<?xml version="1.0" encoding="UTF-8" standalone="no" ?>
<gpx xmlns="http://www.topografix.com/GPX/1/1" xmlns:xsi="http://www.w3.org/2001/XMLSchema-instance" xsi:schemaLocation="http://www.topografix.com/GPX/1/1 http://www.topografix.com/GPX/1/1/gpx.xsd" version="1.1" creator="VisuGPX - https://www.visugpx.com">
  <metadata>
    <name>NE-O-Indre Sautron Treillières Sucé St Mars Le Cellier Nantes</name>
    <desc><![CDATA[NE-O-Indre Sautron Treillières Sucé St Mars Le Cellier Nantes]]></desc>
  </metadata>
  <trk>
    <name><![CDATA[2022-04-16 11:44 GMT+2]]></name>
    <trkseg>
      <trkpt lat="47.16779" lon="-1.62648">
        <ele>55</ele>
        <time>2022-04-16T09:44:55Z</time>
      </trkpt>
      <trkpt lat="47.16781" lon="-1.62662">
        <ele>72</ele>
        <time>2022-04-16T09:46:45Z</time>
      </trkpt>
      <trkpt lat="47.16775" lon="-1.62673">
        <ele>72</ele>
        <time>2022-04-16T09:46:47Z</time>
      </trkpt>
      <trkpt lat="47.16764" lon="-1.62677">
        <ele>72</ele>
        <time>2022-04-16T09:46:49Z</time>
      </trkpt>
      <trkpt lat="47.16755" lon="-1.62671">
        <ele>72</ele>
        <time>2022-04-16T09:46:51Z</time>
      </trkpt>
      <trkpt lat="47.16745" lon="-1.62673">
        <ele>72</ele>
        <time>2022-04-16T09:46:53Z</time>
      </trkpt>
      <trkpt lat="47.16735" lon="-1.6268">
        <ele>71</ele>
        <time>2022-04-16T09:46:55Z</time>
      </trkpt>
      <trkpt lat="47.16725" lon="-1.62687">
        <ele>71</ele>
        <time>2022-04-16T09:46:57Z</time>
      </trkpt>
      <trkpt lat="47.16717" lon="-1.62698">
        <ele>71</ele>
        <time>2022-04-16T09:46:59Z</time>
      </trkpt>
      <trkpt lat="47.1672" lon="-1.62713">
        <ele>72</ele>
        <time>2022-04-16T09:47:01Z</time>
      </trkpt>
      <trkpt lat="47.16728" lon="-1.62728">
        <ele>71</ele>
        <time>2022-04-16T09:47:03Z</time>
      </trkpt>
      <trkpt lat="47.16737" lon="-1.62742">
        <ele>71</ele>
        <time>2022-04-16T09:47:05Z</time>
      </trkpt>
      <trkpt lat="47.16746" lon="-1.62756">
        <ele>71</ele>
        <time>2022-04-16T09:47:07Z</time>
      </trkpt>
      <trkpt lat="47.16757" lon="-1.62768">
        <ele>71</ele>
        <time>2022-04-16T09:47:09Z</time>
      </trkpt>
      <trkpt lat="47.16769" lon="-1.62779">
        <ele>71</ele>
        <time>2022-04-16T09:47:11Z</time>
      </trkpt>
      <trkpt lat="47.1678" lon="-1.6279">
        <ele>71</ele>
        <time>2022-04-16T09:47:13Z</time>
      </trkpt>
      <trkpt lat="47.16792" lon="-1.62801">
        <ele>71</ele>
        <time>2022-04-16T09:47:15Z</time>
      </trkpt>
      <trkpt lat="47.16803" lon="-1.6281">
        <ele>71</ele>
        <time>2022-04-16T09:47:17Z</time>
      </trkpt>
      <trkpt lat="47.16814" lon="-1.6282">
        <ele>72</ele>
        <time>2022-04-16T09:47:19Z</time>
      </trkpt>
      <trkpt lat="47.16824" lon="-1.62829">
        <ele>72</ele>
        <time>2022-04-16T09:47:21Z</time>
      </trkpt>
      <trkpt lat="47.16834" lon="-1.6284">
        <ele>72</ele>
        <time>2022-04-16T09:47:23Z</time>
      </trkpt>
      <trkpt lat="47.16845" lon="-1.6285">
        <ele>73</ele>
        <time>2022-04-16T09:47:25Z</time>
      </trkpt>
      <trkpt lat="47.16855" lon="-1.6286">
        <ele>73</ele>
        <time>2022-04-16T09:47:27Z</time>
      </trkpt>
      <trkpt lat="47.16865" lon="-1.62871">
        <ele>73</ele>
        <time>2022-04-16T09:47:29Z</time>
      </trkpt>
      <trkpt lat="47.16874" lon="-1.62884">
        <ele>74</ele>
        <time>2022-04-16T09:47:31Z</time>
      </trkpt>
      <trkpt lat="47.16881" lon="-1.629">
        <ele>74</ele>
        <time>2022-04-16T09:47:33Z</time>
      </trkpt>
      <trkpt lat="47.16888" lon="-1.62926">
        <ele>74</ele>
        <time>2022-04-16T09:47:36Z</time>
      </trkpt>
      <trkpt lat="47.1689" lon="-1.62945">
        <ele>75</ele>
        <time>2022-04-16T09:47:38Z</time>
      </trkpt>
      <trkpt lat="47.1689" lon="-1.62965">
        <ele>75</ele>
        <time>2022-04-16T09:47:40Z</time>
      </trkpt>
      <trkpt lat="47.16889" lon="-1.62984">
        <ele>75</ele>
        <time>2022-04-16T09:47:42Z</time>
      </trkpt>
      <trkpt lat="47.16887" lon="-1.63004">
        <ele>76</ele>
        <time>2022-04-16T09:47:44Z</time>
      </trkpt>
      <trkpt lat="47.16886" lon="-1.63024">
        <ele>76</ele>
        <time>2022-04-16T09:47:46Z</time>
      </trkpt>
      <trkpt lat="47.16886" lon="-1.63045">
        <ele>76</ele>
        <time>2022-04-16T09:47:48Z</time>
      </trkpt>
      <trkpt lat="47.16887" lon="-1.63065">
        <ele>76</ele>
        <time>2022-04-16T09:47:50Z</time>
      </trkpt>
      <trkpt lat="47.1689" lon="-1.63085">
        <ele>76</ele>
        <time>2022-04-16T09:47:52Z</time>
      </trkpt>
      <trkpt lat="47.16893" lon="-1.63104">
        <ele>77</ele>
        <time>2022-04-16T09:47:54Z</time>
      </trkpt>
      <trkpt lat="47.16898" lon="-1.63122">
        <ele>77</ele>
        <time>2022-04-16T09:47:56Z</time>
      </trkpt>
      <trkpt lat="47.16903" lon="-1.6314">
        <ele>77</ele>
        <time>2022-04-16T09:47:58Z</time>
      </trkpt>
      <trkpt lat="47.1691" lon="-1.63157">
        <ele>77</ele>
        <time>2022-04-16T09:48:00Z</time>
      </trkpt>
      <trkpt lat="47.16917" lon="-1.63174">
        <ele>78</ele>
        <time>2022-04-16T09:48:02Z</time>
      </trkpt>
      <trkpt lat="47.16925" lon="-1.63189">
        <ele>78</ele>
        <time>2022-04-16T09:48:04Z</time>
      </trkpt>
      <trkpt lat="47.16933" lon="-1.63204">
        <ele>78</ele>
        <time>2022-04-16T09:48:06Z</time>
      </trkpt>
      <trkpt lat="47.16942" lon="-1.63217">
        <ele>78</ele>
        <time>2022-04-16T09:48:08Z</time>
      </trkpt>
      <trkpt lat="47.16951" lon="-1.63229">
        <ele>78</ele>
        <time>2022-04-16T09:48:10Z</time>
      </trkpt>
      <trkpt lat="47.16958" lon="-1.63239">
        <ele>78</ele>
        <time>2022-04-16T09:48:12Z</time>
      </trkpt>
      <trkpt lat="47.16966" lon="-1.63248">
        <ele>79</ele>
        <time>2022-04-16T09:48:15Z</time>
      </trkpt>
      <trkpt lat="47.16962" lon="-1.63264">
        <ele>80</ele>
        <time>2022-04-16T09:48:18Z</time>
      </trkpt>
      <trkpt lat="47.16953" lon="-1.63277">
        <ele>79</ele>
        <time>2022-04-16T09:48:20Z</time>
      </trkpt>
      <trkpt lat="47.16945" lon="-1.63292">
        <ele>80</ele>
        <time>2022-04-16T09:48:22Z</time>
      </trkpt>
      <trkpt lat="47.16936" lon="-1.63307">
        <ele>79</ele>
        <time>2022-04-16T09:48:24Z</time>
      </trkpt>
      <trkpt lat="47.16926" lon="-1.63322">
        <ele>78</ele>
        <time>2022-04-16T09:48:26Z</time>
      </trkpt>
      <trkpt lat="47.16916" lon="-1.63337">
        <ele>78</ele>
        <time>2022-04-16T09:48:28Z</time>
      </trkpt>
      <trkpt lat="47.16906" lon="-1.63351">
        <ele>78</ele>
        <time>2022-04-16T09:48:30Z</time>
      </trkpt>
      <trkpt lat="47.16897" lon="-1.63365">
        <ele>78</ele>
        <time>2022-04-16T09:48:32Z</time>
      </trkpt>
      <trkpt lat="47.16888" lon="-1.6338">
        <ele>78</ele>
        <time>2022-04-16T09:48:34Z</time>
      </trkpt>
      <trkpt lat="47.16878" lon="-1.63395">
        <ele>78</ele>
        <time>2022-04-16T09:48:36Z</time>
      </trkpt>
      <trkpt lat="47.16869" lon="-1.63411">
        <ele>78</ele>
        <time>2022-04-16T09:48:38Z</time>
      </trkpt>
      <trkpt lat="47.1686" lon="-1.63427">
        <ele>78</ele>
        <time>2022-04-16T09:48:40Z</time>
      </trkpt>
      <trkpt lat="47.16852" lon="-1.63443">
        <ele>79</ele>
        <time>2022-04-16T09:48:42Z</time>
      </trkpt>
      <trkpt lat="47.16843" lon="-1.63458">
        <ele>79</ele>
        <time>2022-04-16T09:48:44Z</time>
      </trkpt>
      <trkpt lat="47.16834" lon="-1.63473">
        <ele>79</ele>
        <time>2022-04-16T09:48:46Z</time>
      </trkpt>
      <trkpt lat="47.16825" lon="-1.63488">
        <ele>79</ele>
        <time>2022-04-16T09:48:48Z</time>
      </trkpt>
      <trkpt lat="47.16816" lon="-1.63503">
        <ele>79</ele>
        <time>2022-04-16T09:48:50Z</time>
      </trkpt>
      <trkpt lat="47.16808" lon="-1.63519">
        <ele>79</ele>
        <time>2022-04-16T09:48:52Z</time>
      </trkpt>
      <trkpt lat="47.16798" lon="-1.63535">
        <ele>79</ele>
        <time>2022-04-16T09:48:54Z</time>
      </trkpt>
      <trkpt lat="47.16789" lon="-1.6355">
        <ele>79</ele>
        <time>2022-04-16T09:48:56Z</time>
      </trkpt>
      <trkpt lat="47.16779" lon="-1.63566">
        <ele>79</ele>
        <time>2022-04-16T09:48:58Z</time>
      </trkpt>
      <trkpt lat="47.1677" lon="-1.63582">
        <ele>79</ele>
        <time>2022-04-16T09:49:00Z</time>
      </trkpt>
      <trkpt lat="47.16761" lon="-1.63597">
        <ele>79</ele>
        <time>2022-04-16T09:49:02Z</time>
      </trkpt>
      <trkpt lat="47.16752" lon="-1.63611">
        <ele>79</ele>
        <time>2022-04-16T09:49:04Z</time>
      </trkpt>
      <trkpt lat="47.16743" lon="-1.63626">
        <ele>79</ele>
        <time>2022-04-16T09:49:06Z</time>
      </trkpt>
      <trkpt lat="47.16745" lon="-1.63643">
        <ele>79</ele>
        <time>2022-04-16T09:49:08Z</time>
      </trkpt>
      <trkpt lat="47.16758" lon="-1.63648">
        <ele>78</ele>
        <time>2022-04-16T09:49:10Z</time>
      </trkpt>
      <trkpt lat="47.16771" lon="-1.63652">
        <ele>78</ele>
        <time>2022-04-16T09:49:12Z</time>
      </trkpt>
      <trkpt lat="47.16785" lon="-1.63657">
        <ele>77</ele>
        <time>2022-04-16T09:49:14Z</time>
      </trkpt>
      <trkpt lat="47.16798" lon="-1.63662">
        <ele>78</ele>
        <time>2022-04-16T09:49:16Z</time>
      </trkpt>
      <trkpt lat="47.1681" lon="-1.63667">
        <ele>78</ele>
        <time>2022-04-16T09:49:18Z</time>
      </trkpt>
      <trkpt lat="47.16823" lon="-1.63672">
        <ele>79</ele>
        <time>2022-04-16T09:49:20Z</time>
      </trkpt>
      <trkpt lat="47.16837" lon="-1.63676">
        <ele>79</ele>
        <time>2022-04-16T09:49:22Z</time>
      </trkpt>
      <trkpt lat="47.16851" lon="-1.63681">
        <ele>79</ele>
        <time>2022-04-16T09:49:24Z</time>
      </trkpt>
      <trkpt lat="47.16864" lon="-1.63686">
        <ele>80</ele>
        <time>2022-04-16T09:49:26Z</time>
      </trkpt>
      <trkpt lat="47.16878" lon="-1.63692">
        <ele>80</ele>
        <time>2022-04-16T09:49:28Z</time>
      </trkpt>
      <trkpt lat="47.16891" lon="-1.63695">
        <ele>80</ele>
        <time>2022-04-16T09:49:30Z</time>
      </trkpt>
      <trkpt lat="47.16905" lon="-1.63701">
        <ele>80</ele>
        <time>2022-04-16T09:49:32Z</time>
      </trkpt>
      <trkpt lat="47.1692" lon="-1.63708">
        <ele>80</ele>
        <time>2022-04-16T09:49:34Z</time>
      </trkpt>
      <trkpt lat="47.16934" lon="-1.63713">
        <ele>80</ele>
        <time>2022-04-16T09:49:36Z</time>
      </trkpt>
      <trkpt lat="47.16948" lon="-1.63718">
        <ele>80</ele>
        <time>2022-04-16T09:49:38Z</time>
      </trkpt>
      <trkpt lat="47.16963" lon="-1.63723">
        <ele>80</ele>
        <time>2022-04-16T09:49:40Z</time>
      </trkpt>
      <trkpt lat="47.16977" lon="-1.63729">
        <ele>79</ele>
        <time>2022-04-16T09:49:42Z</time>
      </trkpt>
      <trkpt lat="47.16991" lon="-1.63734">
        <ele>79</ele>
        <time>2022-04-16T09:49:44Z</time>
      </trkpt>
      <trkpt lat="47.17005" lon="-1.63739">
        <ele>80</ele>
        <time>2022-04-16T09:49:46Z</time>
      </trkpt>
      <trkpt lat="47.17018" lon="-1.63744">
        <ele>79</ele>
        <time>2022-04-16T09:49:48Z</time>
      </trkpt>
      <trkpt lat="47.17032" lon="-1.63749">
        <ele>80</ele>
        <time>2022-04-16T09:49:50Z</time>
      </trkpt>
      <trkpt lat="47.17045" lon="-1.63756">
        <ele>80</ele>
        <time>2022-04-16T09:49:52Z</time>
      </trkpt>
      <trkpt lat="47.17057" lon="-1.63768">
        <ele>79</ele>
        <time>2022-04-16T09:49:54Z</time>
      </trkpt>
      <trkpt lat="47.17066" lon="-1.63785">
        <ele>80</ele>
        <time>2022-04-16T09:49:56Z</time>
      </trkpt>
      <trkpt lat="47.17072" lon="-1.63804">
        <ele>80</ele>
        <time>2022-04-16T09:49:58Z</time>
      </trkpt>
      <trkpt lat="47.17078" lon="-1.63823">
        <ele>79</ele>
        <time>2022-04-16T09:50:00Z</time>
      </trkpt>
      <trkpt lat="47.17084" lon="-1.63841">
        <ele>79</ele>
        <time>2022-04-16T09:50:02Z</time>
      </trkpt>
      <trkpt lat="47.17091" lon="-1.63859">
        <ele>79</ele>
        <time>2022-04-16T09:50:04Z</time>
      </trkpt>
      <trkpt lat="47.17097" lon="-1.63878">
        <ele>79</ele>
        <time>2022-04-16T09:50:06Z</time>
      </trkpt>
      <trkpt lat="47.17104" lon="-1.63896">
        <ele>79</ele>
        <time>2022-04-16T09:50:08Z</time>
      </trkpt>
      <trkpt lat="47.1711" lon="-1.63914">
        <ele>78</ele>
        <time>2022-04-16T09:50:10Z</time>
      </trkpt>
      <trkpt lat="47.17117" lon="-1.63929">
        <ele>78</ele>
        <time>2022-04-16T09:50:12Z</time>
      </trkpt>
      <trkpt lat="47.17126" lon="-1.63939">
        <ele>79</ele>
        <time>2022-04-16T09:50:14Z</time>
      </trkpt>
      <trkpt lat="47.17135" lon="-1.63949">
        <ele>79</ele>
        <time>2022-04-16T09:50:17Z</time>
      </trkpt>
      <trkpt lat="47.17138" lon="-1.63965">
        <ele>80</ele>
        <time>2022-04-16T09:50:19Z</time>
      </trkpt>
      <trkpt lat="47.17138" lon="-1.63986">
        <ele>80</ele>
        <time>2022-04-16T09:50:21Z</time>
      </trkpt>
      <trkpt lat="47.17135" lon="-1.64008">
        <ele>80</ele>
        <time>2022-04-16T09:50:23Z</time>
      </trkpt>
      <trkpt lat="47.17133" lon="-1.6403">
        <ele>80</ele>
        <time>2022-04-16T09:50:25Z</time>
      </trkpt>
      <trkpt lat="47.17131" lon="-1.64052">
        <ele>80</ele>
        <time>2022-04-16T09:50:27Z</time>
      </trkpt>
      <trkpt lat="47.17128" lon="-1.64073">
        <ele>80</ele>
        <time>2022-04-16T09:50:29Z</time>
      </trkpt>
      <trkpt lat="47.17126" lon="-1.64095">
        <ele>80</ele>
        <time>2022-04-16T09:50:31Z</time>
      </trkpt>
      <trkpt lat="47.17123" lon="-1.64117">
        <ele>81</ele>
        <time>2022-04-16T09:50:33Z</time>
      </trkpt>
      <trkpt lat="47.17121" lon="-1.64137">
        <ele>81</ele>
        <time>2022-04-16T09:50:35Z</time>
      </trkpt>
      <trkpt lat="47.17119" lon="-1.64158">
        <ele>82</ele>
        <time>2022-04-16T09:50:37Z</time>
      </trkpt>
      <trkpt lat="47.17117" lon="-1.6418">
        <ele>81</ele>
        <time>2022-04-16T09:50:39Z</time>
      </trkpt>
      <trkpt lat="47.17114" lon="-1.64201">
        <ele>82</ele>
        <time>2022-04-16T09:50:41Z</time>
      </trkpt>
      <trkpt lat="47.17111" lon="-1.64222">
        <ele>81</ele>
        <time>2022-04-16T09:50:43Z</time>
      </trkpt>
      <trkpt lat="47.17109" lon="-1.64243">
        <ele>81</ele>
        <time>2022-04-16T09:50:45Z</time>
      </trkpt>
      <trkpt lat="47.17107" lon="-1.64264">
        <ele>81</ele>
        <time>2022-04-16T09:50:47Z</time>
      </trkpt>
      <trkpt lat="47.17105" lon="-1.64286">
        <ele>81</ele>
        <time>2022-04-16T09:50:49Z</time>
      </trkpt>
      <trkpt lat="47.17103" lon="-1.64308">
        <ele>81</ele>
        <time>2022-04-16T09:50:51Z</time>
      </trkpt>
      <trkpt lat="47.17101" lon="-1.6433">
        <ele>81</ele>
        <time>2022-04-16T09:50:53Z</time>
      </trkpt>
      <trkpt lat="47.17098" lon="-1.64351">
        <ele>81</ele>
        <time>2022-04-16T09:50:55Z</time>
      </trkpt>
      <trkpt lat="47.17096" lon="-1.64373">
        <ele>81</ele>
        <time>2022-04-16T09:50:57Z</time>
      </trkpt>
      <trkpt lat="47.17095" lon="-1.64395">
        <ele>81</ele>
        <time>2022-04-16T09:50:59Z</time>
      </trkpt>
      <trkpt lat="47.17093" lon="-1.64417">
        <ele>81</ele>
        <time>2022-04-16T09:51:01Z</time>
      </trkpt>
      <trkpt lat="47.17091" lon="-1.64439">
        <ele>81</ele>
        <time>2022-04-16T09:51:03Z</time>
      </trkpt>
      <trkpt lat="47.1709" lon="-1.64462">
        <ele>80</ele>
        <time>2022-04-16T09:51:05Z</time>
      </trkpt>
      <trkpt lat="47.17089" lon="-1.64483">
        <ele>81</ele>
        <time>2022-04-16T09:51:07Z</time>
      </trkpt>
      <trkpt lat="47.17088" lon="-1.64504">
        <ele>81</ele>
        <time>2022-04-16T09:51:09Z</time>
      </trkpt>
      <trkpt lat="47.17087" lon="-1.64527">
        <ele>81</ele>
        <time>2022-04-16T09:51:11Z</time>
      </trkpt>
      <trkpt lat="47.17087" lon="-1.64548">
        <ele>80</ele>
        <time>2022-04-16T09:51:13Z</time>
      </trkpt>
      <trkpt lat="47.17086" lon="-1.64571">
        <ele>80</ele>
        <time>2022-04-16T09:51:15Z</time>
      </trkpt>
      <trkpt lat="47.17086" lon="-1.64594">
        <ele>80</ele>
        <time>2022-04-16T09:51:17Z</time>
      </trkpt>
      <trkpt lat="47.17086" lon="-1.64616">
        <ele>79</ele>
        <time>2022-04-16T09:51:19Z</time>
      </trkpt>
      <trkpt lat="47.17086" lon="-1.64638">
        <ele>79</ele>
        <time>2022-04-16T09:51:21Z</time>
      </trkpt>
      <trkpt lat="47.17086" lon="-1.64662">
        <ele>80</ele>
        <time>2022-04-16T09:51:23Z</time>
      </trkpt>
      <trkpt lat="47.17087" lon="-1.64685">
        <ele>80</ele>
        <time>2022-04-16T09:51:25Z</time>
      </trkpt>
      <trkpt lat="47.17088" lon="-1.64707">
        <ele>80</ele>
        <time>2022-04-16T09:51:27Z</time>
      </trkpt>
      <trkpt lat="47.17088" lon="-1.64729">
        <ele>80</ele>
        <time>2022-04-16T09:51:29Z</time>
      </trkpt>
      <trkpt lat="47.17089" lon="-1.6475">
        <ele>80</ele>
        <time>2022-04-16T09:51:31Z</time>
      </trkpt>
      <trkpt lat="47.1709" lon="-1.64771">
        <ele>81</ele>
        <time>2022-04-16T09:51:33Z</time>
      </trkpt>
      <trkpt lat="47.17091" lon="-1.64793">
        <ele>81</ele>
        <time>2022-04-16T09:51:35Z</time>
      </trkpt>
      <trkpt lat="47.17092" lon="-1.64815">
        <ele>81</ele>
        <time>2022-04-16T09:51:37Z</time>
      </trkpt>
      <trkpt lat="47.17094" lon="-1.64838">
        <ele>82</ele>
        <time>2022-04-16T09:51:39Z</time>
      </trkpt>
      <trkpt lat="47.17096" lon="-1.6486">
        <ele>81</ele>
        <time>2022-04-16T09:51:41Z</time>
      </trkpt>
      <trkpt lat="47.17098" lon="-1.64883">
        <ele>81</ele>
        <time>2022-04-16T09:51:43Z</time>
      </trkpt>
      <trkpt lat="47.17099" lon="-1.64904">
        <ele>80</ele>
        <time>2022-04-16T09:51:45Z</time>
      </trkpt>
      <trkpt lat="47.17101" lon="-1.64926">
        <ele>80</ele>
        <time>2022-04-16T09:51:47Z</time>
      </trkpt>
      <trkpt lat="47.17103" lon="-1.64948">
        <ele>79</ele>
        <time>2022-04-16T09:51:49Z</time>
      </trkpt>
      <trkpt lat="47.17104" lon="-1.6497">
        <ele>79</ele>
        <time>2022-04-16T09:51:51Z</time>
      </trkpt>
      <trkpt lat="47.17106" lon="-1.64992">
        <ele>80</ele>
        <time>2022-04-16T09:51:53Z</time>
      </trkpt>
      <trkpt lat="47.17107" lon="-1.65013">
        <ele>79</ele>
        <time>2022-04-16T09:51:55Z</time>
      </trkpt>
      <trkpt lat="47.17109" lon="-1.65034">
        <ele>79</ele>
        <time>2022-04-16T09:51:57Z</time>
      </trkpt>
      <trkpt lat="47.1711" lon="-1.65055">
        <ele>79</ele>
        <time>2022-04-16T09:51:59Z</time>
      </trkpt>
      <trkpt lat="47.17112" lon="-1.65076">
        <ele>79</ele>
        <time>2022-04-16T09:52:01Z</time>
      </trkpt>
      <trkpt lat="47.17113" lon="-1.65097">
        <ele>79</ele>
        <time>2022-04-16T09:52:03Z</time>
      </trkpt>
      <trkpt lat="47.17113" lon="-1.65117">
        <ele>80</ele>
        <time>2022-04-16T09:52:05Z</time>
      </trkpt>
      <trkpt lat="47.17114" lon="-1.65138">
        <ele>80</ele>
        <time>2022-04-16T09:52:07Z</time>
      </trkpt>
      <trkpt lat="47.17116" lon="-1.65159">
        <ele>80</ele>
        <time>2022-04-16T09:52:09Z</time>
      </trkpt>
      <trkpt lat="47.17117" lon="-1.65181">
        <ele>80</ele>
        <time>2022-04-16T09:52:11Z</time>
      </trkpt>
      <trkpt lat="47.17119" lon="-1.65202">
        <ele>80</ele>
        <time>2022-04-16T09:52:13Z</time>
      </trkpt>
      <trkpt lat="47.17122" lon="-1.65222">
        <ele>81</ele>
        <time>2022-04-16T09:52:15Z</time>
      </trkpt>
      <trkpt lat="47.17126" lon="-1.65241">
        <ele>81</ele>
        <time>2022-04-16T09:52:17Z</time>
      </trkpt>
      <trkpt lat="47.1713" lon="-1.65259">
        <ele>81</ele>
        <time>2022-04-16T09:52:19Z</time>
      </trkpt>
      <trkpt lat="47.17139" lon="-1.65274">
        <ele>81</ele>
        <time>2022-04-16T09:52:21Z</time>
      </trkpt>
      <trkpt lat="47.17149" lon="-1.65286">
        <ele>81</ele>
        <time>2022-04-16T09:52:23Z</time>
      </trkpt>
      <trkpt lat="47.1716" lon="-1.65297">
        <ele>81</ele>
        <time>2022-04-16T09:52:25Z</time>
      </trkpt>
      <trkpt lat="47.1717" lon="-1.65313">
        <ele>80</ele>
        <time>2022-04-16T09:52:27Z</time>
      </trkpt>
      <trkpt lat="47.17177" lon="-1.65333">
        <ele>80</ele>
        <time>2022-04-16T09:52:29Z</time>
      </trkpt>
      <trkpt lat="47.17177" lon="-1.65354">
        <ele>79</ele>
        <time>2022-04-16T09:52:31Z</time>
      </trkpt>
      <trkpt lat="47.17175" lon="-1.65375">
        <ele>80</ele>
        <time>2022-04-16T09:52:33Z</time>
      </trkpt>
      <trkpt lat="47.17174" lon="-1.65361">
        <ele>80</ele>
        <time>2022-04-16T09:52:42Z</time>
      </trkpt>
      <trkpt lat="47.17177" lon="-1.65374">
        <ele>80</ele>
        <time>2022-04-16T09:54:13Z</time>
      </trkpt>
      <trkpt lat="47.17174" lon="-1.65387">
        <ele>80</ele>
        <time>2022-04-16T09:54:17Z</time>
      </trkpt>
      <trkpt lat="47.17172" lon="-1.65403">
        <ele>81</ele>
        <time>2022-04-16T09:54:20Z</time>
      </trkpt>
      <trkpt lat="47.1717" lon="-1.65418">
        <ele>81</ele>
        <time>2022-04-16T09:54:22Z</time>
      </trkpt>
      <trkpt lat="47.17168" lon="-1.65433">
        <ele>81</ele>
        <time>2022-04-16T09:54:24Z</time>
      </trkpt>
      <trkpt lat="47.17165" lon="-1.6545">
        <ele>81</ele>
        <time>2022-04-16T09:54:26Z</time>
      </trkpt>
      <trkpt lat="47.17163" lon="-1.65468">
        <ele>81</ele>
        <time>2022-04-16T09:54:28Z</time>
      </trkpt>
      <trkpt lat="47.17161" lon="-1.65487">
        <ele>81</ele>
        <time>2022-04-16T09:54:30Z</time>
      </trkpt>
      <trkpt lat="47.17159" lon="-1.65505">
        <ele>81</ele>
        <time>2022-04-16T09:54:32Z</time>
      </trkpt>
      <trkpt lat="47.17158" lon="-1.65524">
        <ele>82</ele>
        <time>2022-04-16T09:54:34Z</time>
      </trkpt>
      <trkpt lat="47.17156" lon="-1.65543">
        <ele>82</ele>
        <time>2022-04-16T09:54:36Z</time>
      </trkpt>
      <trkpt lat="47.17155" lon="-1.65563">
        <ele>82</ele>
        <time>2022-04-16T09:54:38Z</time>
      </trkpt>
      <trkpt lat="47.17155" lon="-1.65584">
        <ele>82</ele>
        <time>2022-04-16T09:54:40Z</time>
      </trkpt>
      <trkpt lat="47.17153" lon="-1.65605">
        <ele>82</ele>
        <time>2022-04-16T09:54:42Z</time>
      </trkpt>
      <trkpt lat="47.17153" lon="-1.65626">
        <ele>82</ele>
        <time>2022-04-16T09:54:44Z</time>
      </trkpt>
      <trkpt lat="47.17153" lon="-1.65646">
        <ele>82</ele>
        <time>2022-04-16T09:54:46Z</time>
      </trkpt>
      <trkpt lat="47.17154" lon="-1.65667">
        <ele>81</ele>
        <time>2022-04-16T09:54:48Z</time>
      </trkpt>
      <trkpt lat="47.17155" lon="-1.65689">
        <ele>81</ele>
        <time>2022-04-16T09:54:50Z</time>
      </trkpt>
      <trkpt lat="47.17156" lon="-1.65712">
        <ele>81</ele>
        <time>2022-04-16T09:54:52Z</time>
      </trkpt>
      <trkpt lat="47.17157" lon="-1.65734">
        <ele>81</ele>
        <time>2022-04-16T09:54:54Z</time>
      </trkpt>
      <trkpt lat="47.1716" lon="-1.65756">
        <ele>81</ele>
        <time>2022-04-16T09:54:56Z</time>
      </trkpt>
      <trkpt lat="47.17162" lon="-1.65779">
        <ele>81</ele>
        <time>2022-04-16T09:54:58Z</time>
      </trkpt>
      <trkpt lat="47.17165" lon="-1.65801">
        <ele>81</ele>
        <time>2022-04-16T09:55:00Z</time>
      </trkpt>
      <trkpt lat="47.17168" lon="-1.65825">
        <ele>81</ele>
        <time>2022-04-16T09:55:02Z</time>
      </trkpt>
      <trkpt lat="47.17172" lon="-1.65848">
        <ele>81</ele>
        <time>2022-04-16T09:55:04Z</time>
      </trkpt>
      <trkpt lat="47.17176" lon="-1.6587">
        <ele>80</ele>
        <time>2022-04-16T09:55:06Z</time>
      </trkpt>
      <trkpt lat="47.17179" lon="-1.65893">
        <ele>80</ele>
        <time>2022-04-16T09:55:08Z</time>
      </trkpt>
      <trkpt lat="47.17183" lon="-1.65915">
        <ele>81</ele>
        <time>2022-04-16T09:55:10Z</time>
      </trkpt>
      <trkpt lat="47.17187" lon="-1.65937">
        <ele>80</ele>
        <time>2022-04-16T09:55:12Z</time>
      </trkpt>
      <trkpt lat="47.17191" lon="-1.65959">
        <ele>81</ele>
        <time>2022-04-16T09:55:14Z</time>
      </trkpt>
      <trkpt lat="47.17195" lon="-1.65981">
        <ele>81</ele>
        <time>2022-04-16T09:55:16Z</time>
      </trkpt>
      <trkpt lat="47.17199" lon="-1.66002">
        <ele>81</ele>
        <time>2022-04-16T09:55:18Z</time>
      </trkpt>
      <trkpt lat="47.17203" lon="-1.66024">
        <ele>81</ele>
        <time>2022-04-16T09:55:20Z</time>
      </trkpt>
      <trkpt lat="47.17207" lon="-1.66046">
        <ele>81</ele>
        <time>2022-04-16T09:55:22Z</time>
      </trkpt>
      <trkpt lat="47.17212" lon="-1.66066">
        <ele>82</ele>
        <time>2022-04-16T09:55:24Z</time>
      </trkpt>
      <trkpt lat="47.17216" lon="-1.66086">
        <ele>82</ele>
        <time>2022-04-16T09:55:26Z</time>
      </trkpt>
      <trkpt lat="47.1722" lon="-1.66106">
        <ele>82</ele>
        <time>2022-04-16T09:55:28Z</time>
      </trkpt>
      <trkpt lat="47.17225" lon="-1.66125">
        <ele>81</ele>
        <time>2022-04-16T09:55:30Z</time>
      </trkpt>
      <trkpt lat="47.17229" lon="-1.66146">
        <ele>81</ele>
        <time>2022-04-16T09:55:32Z</time>
      </trkpt>
      <trkpt lat="47.17235" lon="-1.66165">
        <ele>81</ele>
        <time>2022-04-16T09:55:34Z</time>
      </trkpt>
      <trkpt lat="47.17243" lon="-1.6618">
        <ele>81</ele>
        <time>2022-04-16T09:55:36Z</time>
      </trkpt>
      <trkpt lat="47.17251" lon="-1.66196">
        <ele>82</ele>
        <time>2022-04-16T09:55:38Z</time>
      </trkpt>
      <trkpt lat="47.17259" lon="-1.66212">
        <ele>82</ele>
        <time>2022-04-16T09:55:40Z</time>
      </trkpt>
      <trkpt lat="47.17266" lon="-1.66227">
        <ele>83</ele>
        <time>2022-04-16T09:55:42Z</time>
      </trkpt>
      <trkpt lat="47.17274" lon="-1.66242">
        <ele>84</ele>
        <time>2022-04-16T09:55:44Z</time>
      </trkpt>
      <trkpt lat="47.17282" lon="-1.66256">
        <ele>84</ele>
        <time>2022-04-16T09:55:46Z</time>
      </trkpt>
      <trkpt lat="47.17292" lon="-1.66269">
        <ele>84</ele>
        <time>2022-04-16T09:55:48Z</time>
      </trkpt>
      <trkpt lat="47.173" lon="-1.66283">
        <ele>85</ele>
        <time>2022-04-16T09:55:50Z</time>
      </trkpt>
      <trkpt lat="47.17308" lon="-1.66298">
        <ele>87</ele>
        <time>2022-04-16T09:55:52Z</time>
      </trkpt>
      <trkpt lat="47.17316" lon="-1.66314">
        <ele>88</ele>
        <time>2022-04-16T09:55:54Z</time>
      </trkpt>
      <trkpt lat="47.17324" lon="-1.6633">
        <ele>89</ele>
        <time>2022-04-16T09:55:56Z</time>
      </trkpt>
      <trkpt lat="47.17332" lon="-1.66345">
        <ele>89</ele>
        <time>2022-04-16T09:55:58Z</time>
      </trkpt>
      <trkpt lat="47.1734" lon="-1.6636">
        <ele>90</ele>
        <time>2022-04-16T09:56:00Z</time>
      </trkpt>
      <trkpt lat="47.17347" lon="-1.66374">
        <ele>91</ele>
        <time>2022-04-16T09:56:02Z</time>
      </trkpt>
      <trkpt lat="47.17355" lon="-1.66389">
        <ele>91</ele>
        <time>2022-04-16T09:56:04Z</time>
      </trkpt>
      <trkpt lat="47.17363" lon="-1.66405">
        <ele>92</ele>
        <time>2022-04-16T09:56:06Z</time>
      </trkpt>
      <trkpt lat="47.17371" lon="-1.66421">
        <ele>91</ele>
        <time>2022-04-16T09:56:08Z</time>
      </trkpt>
      <trkpt lat="47.1738" lon="-1.66436">
        <ele>90</ele>
        <time>2022-04-16T09:56:10Z</time>
      </trkpt>
      <trkpt lat="47.1739" lon="-1.66452">
        <ele>90</ele>
        <time>2022-04-16T09:56:12Z</time>
      </trkpt>
      <trkpt lat="47.17398" lon="-1.66467">
        <ele>90</ele>
        <time>2022-04-16T09:56:14Z</time>
      </trkpt>
      <trkpt lat="47.17408" lon="-1.66482">
        <ele>90</ele>
        <time>2022-04-16T09:56:16Z</time>
      </trkpt>
      <trkpt lat="47.17416" lon="-1.66498">
        <ele>90</ele>
        <time>2022-04-16T09:56:18Z</time>
      </trkpt>
      <trkpt lat="47.17425" lon="-1.66513">
        <ele>90</ele>
        <time>2022-04-16T09:56:20Z</time>
      </trkpt>
      <trkpt lat="47.17433" lon="-1.6653">
        <ele>91</ele>
        <time>2022-04-16T09:56:22Z</time>
      </trkpt>
      <trkpt lat="47.17441" lon="-1.66546">
        <ele>91</ele>
        <time>2022-04-16T09:56:24Z</time>
      </trkpt>
      <trkpt lat="47.17449" lon="-1.6656">
        <ele>91</ele>
        <time>2022-04-16T09:56:26Z</time>
      </trkpt>
      <trkpt lat="47.17457" lon="-1.66577">
        <ele>91</ele>
        <time>2022-04-16T09:56:28Z</time>
      </trkpt>
      <trkpt lat="47.17465" lon="-1.66594">
        <ele>92</ele>
        <time>2022-04-16T09:56:30Z</time>
      </trkpt>
      <trkpt lat="47.17474" lon="-1.6661">
        <ele>92</ele>
        <time>2022-04-16T09:56:32Z</time>
      </trkpt>
      <trkpt lat="47.17483" lon="-1.66626">
        <ele>92</ele>
        <time>2022-04-16T09:56:34Z</time>
      </trkpt>
      <trkpt lat="47.17492" lon="-1.66642">
        <ele>92</ele>
        <time>2022-04-16T09:56:36Z</time>
      </trkpt>
      <trkpt lat="47.17501" lon="-1.66659">
        <ele>92</ele>
        <time>2022-04-16T09:56:38Z</time>
      </trkpt>
      <trkpt lat="47.1751" lon="-1.66674">
        <ele>92</ele>
        <time>2022-04-16T09:56:40Z</time>
      </trkpt>
      <trkpt lat="47.17519" lon="-1.66691">
        <ele>92</ele>
        <time>2022-04-16T09:56:42Z</time>
      </trkpt>
      <trkpt lat="47.17528" lon="-1.66707">
        <ele>93</ele>
        <time>2022-04-16T09:56:44Z</time>
      </trkpt>
      <trkpt lat="47.17537" lon="-1.66723">
        <ele>92</ele>
        <time>2022-04-16T09:56:46Z</time>
      </trkpt>
      <trkpt lat="47.17546" lon="-1.66741">
        <ele>92</ele>
        <time>2022-04-16T09:56:48Z</time>
      </trkpt>
      <trkpt lat="47.17555" lon="-1.66758">
        <ele>92</ele>
        <time>2022-04-16T09:56:50Z</time>
      </trkpt>
      <trkpt lat="47.17564" lon="-1.66774">
        <ele>91</ele>
        <time>2022-04-16T09:56:52Z</time>
      </trkpt>
      <trkpt lat="47.17572" lon="-1.66789">
        <ele>91</ele>
        <time>2022-04-16T09:56:54Z</time>
      </trkpt>
      <trkpt lat="47.17581" lon="-1.66804">
        <ele>91</ele>
        <time>2022-04-16T09:56:56Z</time>
      </trkpt>
      <trkpt lat="47.1759" lon="-1.66821">
        <ele>91</ele>
        <time>2022-04-16T09:56:58Z</time>
      </trkpt>
      <trkpt lat="47.17598" lon="-1.66837">
        <ele>91</ele>
        <time>2022-04-16T09:57:00Z</time>
      </trkpt>
      <trkpt lat="47.17607" lon="-1.66855">
        <ele>90</ele>
        <time>2022-04-16T09:57:02Z</time>
      </trkpt>
      <trkpt lat="47.17616" lon="-1.66873">
        <ele>88</ele>
        <time>2022-04-16T09:57:04Z</time>
      </trkpt>
      <trkpt lat="47.17624" lon="-1.66888">
        <ele>89</ele>
        <time>2022-04-16T09:57:06Z</time>
      </trkpt>
      <trkpt lat="47.17633" lon="-1.66904">
        <ele>89</ele>
        <time>2022-04-16T09:57:08Z</time>
      </trkpt>
      <trkpt lat="47.17642" lon="-1.66919">
        <ele>89</ele>
        <time>2022-04-16T09:57:10Z</time>
      </trkpt>
      <trkpt lat="47.1765" lon="-1.66935">
        <ele>88</ele>
        <time>2022-04-16T09:57:12Z</time>
      </trkpt>
      <trkpt lat="47.17659" lon="-1.66951">
        <ele>88</ele>
        <time>2022-04-16T09:57:14Z</time>
      </trkpt>
      <trkpt lat="47.17667" lon="-1.66966">
        <ele>89</ele>
        <time>2022-04-16T09:57:16Z</time>
      </trkpt>
      <trkpt lat="47.17676" lon="-1.66982">
        <ele>89</ele>
        <time>2022-04-16T09:57:18Z</time>
      </trkpt>
      <trkpt lat="47.17685" lon="-1.66998">
        <ele>89</ele>
        <time>2022-04-16T09:57:20Z</time>
      </trkpt>
      <trkpt lat="47.17693" lon="-1.67014">
        <ele>89</ele>
        <time>2022-04-16T09:57:22Z</time>
      </trkpt>
      <trkpt lat="47.17702" lon="-1.6703">
        <ele>89</ele>
        <time>2022-04-16T09:57:24Z</time>
      </trkpt>
      <trkpt lat="47.17711" lon="-1.67048">
        <ele>88</ele>
        <time>2022-04-16T09:57:26Z</time>
      </trkpt>
      <trkpt lat="47.17719" lon="-1.67065">
        <ele>88</ele>
        <time>2022-04-16T09:57:28Z</time>
      </trkpt>
      <trkpt lat="47.17728" lon="-1.67081">
        <ele>87</ele>
        <time>2022-04-16T09:57:30Z</time>
      </trkpt>
      <trkpt lat="47.17736" lon="-1.67097">
        <ele>87</ele>
        <time>2022-04-16T09:57:32Z</time>
      </trkpt>
      <trkpt lat="47.17745" lon="-1.67112">
        <ele>87</ele>
        <time>2022-04-16T09:57:34Z</time>
      </trkpt>
      <trkpt lat="47.17753" lon="-1.67129">
        <ele>86</ele>
        <time>2022-04-16T09:57:36Z</time>
      </trkpt>
      <trkpt lat="47.17761" lon="-1.67145">
        <ele>87</ele>
        <time>2022-04-16T09:57:38Z</time>
      </trkpt>
      <trkpt lat="47.17769" lon="-1.67159">
        <ele>87</ele>
        <time>2022-04-16T09:57:40Z</time>
      </trkpt>
      <trkpt lat="47.17778" lon="-1.67174">
        <ele>87</ele>
        <time>2022-04-16T09:57:42Z</time>
      </trkpt>
      <trkpt lat="47.17787" lon="-1.67189">
        <ele>88</ele>
        <time>2022-04-16T09:57:44Z</time>
      </trkpt>
      <trkpt lat="47.17795" lon="-1.67206">
        <ele>87</ele>
        <time>2022-04-16T09:57:46Z</time>
      </trkpt>
      <trkpt lat="47.17804" lon="-1.67223">
        <ele>87</ele>
        <time>2022-04-16T09:57:48Z</time>
      </trkpt>
      <trkpt lat="47.17813" lon="-1.67239">
        <ele>87</ele>
        <time>2022-04-16T09:57:50Z</time>
      </trkpt>
      <trkpt lat="47.17821" lon="-1.67255">
        <ele>87</ele>
        <time>2022-04-16T09:57:52Z</time>
      </trkpt>
      <trkpt lat="47.1783" lon="-1.67271">
        <ele>87</ele>
        <time>2022-04-16T09:57:54Z</time>
      </trkpt>
      <trkpt lat="47.17838" lon="-1.67286">
        <ele>87</ele>
        <time>2022-04-16T09:57:56Z</time>
      </trkpt>
      <trkpt lat="47.17846" lon="-1.673">
        <ele>87</ele>
        <time>2022-04-16T09:57:58Z</time>
      </trkpt>
      <trkpt lat="47.17854" lon="-1.67314">
        <ele>87</ele>
        <time>2022-04-16T09:58:00Z</time>
      </trkpt>
      <trkpt lat="47.17862" lon="-1.67328">
        <ele>86</ele>
        <time>2022-04-16T09:58:02Z</time>
      </trkpt>
      <trkpt lat="47.17869" lon="-1.67343">
        <ele>86</ele>
        <time>2022-04-16T09:58:04Z</time>
      </trkpt>
      <trkpt lat="47.17877" lon="-1.67357">
        <ele>86</ele>
        <time>2022-04-16T09:58:06Z</time>
      </trkpt>
      <trkpt lat="47.17884" lon="-1.67369">
        <ele>86</ele>
        <time>2022-04-16T09:58:08Z</time>
      </trkpt>
      <trkpt lat="47.1789" lon="-1.67382">
        <ele>88</ele>
        <time>2022-04-16T09:58:11Z</time>
      </trkpt>
      <trkpt lat="47.179" lon="-1.67393">
        <ele>87</ele>
        <time>2022-04-16T09:58:15Z</time>
      </trkpt>
      <trkpt lat="47.17905" lon="-1.67405">
        <ele>87</ele>
        <time>2022-04-16T09:58:17Z</time>
      </trkpt>
      <trkpt lat="47.1791" lon="-1.67419">
        <ele>88</ele>
        <time>2022-04-16T09:58:19Z</time>
      </trkpt>
      <trkpt lat="47.17914" lon="-1.67435">
        <ele>88</ele>
        <time>2022-04-16T09:58:21Z</time>
      </trkpt>
      <trkpt lat="47.17919" lon="-1.67453">
        <ele>88</ele>
        <time>2022-04-16T09:58:23Z</time>
      </trkpt>
      <trkpt lat="47.17923" lon="-1.67472">
        <ele>87</ele>
        <time>2022-04-16T09:58:25Z</time>
      </trkpt>
      <trkpt lat="47.17929" lon="-1.6749">
        <ele>86</ele>
        <time>2022-04-16T09:58:27Z</time>
      </trkpt>
      <trkpt lat="47.17934" lon="-1.67509">
        <ele>86</ele>
        <time>2022-04-16T09:58:29Z</time>
      </trkpt>
      <trkpt lat="47.17939" lon="-1.67527">
        <ele>86</ele>
        <time>2022-04-16T09:58:31Z</time>
      </trkpt>
      <trkpt lat="47.17944" lon="-1.67544">
        <ele>87</ele>
        <time>2022-04-16T09:58:33Z</time>
      </trkpt>
      <trkpt lat="47.17949" lon="-1.67561">
        <ele>87</ele>
        <time>2022-04-16T09:58:35Z</time>
      </trkpt>
      <trkpt lat="47.17954" lon="-1.6758">
        <ele>87</ele>
        <time>2022-04-16T09:58:37Z</time>
      </trkpt>
      <trkpt lat="47.17958" lon="-1.67597">
        <ele>87</ele>
        <time>2022-04-16T09:58:39Z</time>
      </trkpt>
      <trkpt lat="47.17963" lon="-1.67615">
        <ele>88</ele>
        <time>2022-04-16T09:58:41Z</time>
      </trkpt>
      <trkpt lat="47.17971" lon="-1.67643">
        <ele>88</ele>
        <time>2022-04-16T09:58:44Z</time>
      </trkpt>
      <trkpt lat="47.17973" lon="-1.6766">
        <ele>90</ele>
        <time>2022-04-16T09:58:46Z</time>
      </trkpt>
      <trkpt lat="47.1798" lon="-1.67683">
        <ele>91</ele>
        <time>2022-04-16T09:58:49Z</time>
      </trkpt>
      <trkpt lat="47.17985" lon="-1.67698">
        <ele>90</ele>
        <time>2022-04-16T09:58:51Z</time>
      </trkpt>
      <trkpt lat="47.1799" lon="-1.6771">
        <ele>90</ele>
        <time>2022-04-16T09:58:55Z</time>
      </trkpt>
      <trkpt lat="47.17996" lon="-1.6772">
        <ele>90</ele>
        <time>2022-04-16T09:59:00Z</time>
      </trkpt>
      <trkpt lat="47.18008" lon="-1.67724">
        <ele>88</ele>
        <time>2022-04-16T09:59:02Z</time>
      </trkpt>
      <trkpt lat="47.1802" lon="-1.6772">
        <ele>86</ele>
        <time>2022-04-16T09:59:04Z</time>
      </trkpt>
      <trkpt lat="47.18032" lon="-1.67713">
        <ele>85</ele>
        <time>2022-04-16T09:59:06Z</time>
      </trkpt>
      <trkpt lat="47.18044" lon="-1.67706">
        <ele>84</ele>
        <time>2022-04-16T09:59:08Z</time>
      </trkpt>
      <trkpt lat="47.18056" lon="-1.67699">
        <ele>84</ele>
        <time>2022-04-16T09:59:10Z</time>
      </trkpt>
      <trkpt lat="47.18069" lon="-1.67692">
        <ele>84</ele>
        <time>2022-04-16T09:59:12Z</time>
      </trkpt>
      <trkpt lat="47.18081" lon="-1.67684">
        <ele>83</ele>
        <time>2022-04-16T09:59:14Z</time>
      </trkpt>
      <trkpt lat="47.18093" lon="-1.67677">
        <ele>83</ele>
        <time>2022-04-16T09:59:16Z</time>
      </trkpt>
      <trkpt lat="47.18105" lon="-1.6767">
        <ele>83</ele>
        <time>2022-04-16T09:59:18Z</time>
      </trkpt>
      <trkpt lat="47.18117" lon="-1.67662">
        <ele>83</ele>
        <time>2022-04-16T09:59:20Z</time>
      </trkpt>
      <trkpt lat="47.1813" lon="-1.67654">
        <ele>83</ele>
        <time>2022-04-16T09:59:22Z</time>
      </trkpt>
      <trkpt lat="47.18142" lon="-1.67646">
        <ele>83</ele>
        <time>2022-04-16T09:59:24Z</time>
      </trkpt>
      <trkpt lat="47.18155" lon="-1.67639">
        <ele>82</ele>
        <time>2022-04-16T09:59:26Z</time>
      </trkpt>
      <trkpt lat="47.18167" lon="-1.67631">
        <ele>82</ele>
        <time>2022-04-16T09:59:28Z</time>
      </trkpt>
      <trkpt lat="47.1818" lon="-1.67623">
        <ele>81</ele>
        <time>2022-04-16T09:59:30Z</time>
      </trkpt>
      <trkpt lat="47.18192" lon="-1.67613">
        <ele>82</ele>
        <time>2022-04-16T09:59:32Z</time>
      </trkpt>
      <trkpt lat="47.18204" lon="-1.67604">
        <ele>82</ele>
        <time>2022-04-16T09:59:34Z</time>
      </trkpt>
      <trkpt lat="47.18217" lon="-1.67598">
        <ele>82</ele>
        <time>2022-04-16T09:59:36Z</time>
      </trkpt>
      <trkpt lat="47.18229" lon="-1.67592">
        <ele>83</ele>
        <time>2022-04-16T09:59:38Z</time>
      </trkpt>
      <trkpt lat="47.18242" lon="-1.67585">
        <ele>83</ele>
        <time>2022-04-16T09:59:40Z</time>
      </trkpt>
      <trkpt lat="47.18254" lon="-1.67577">
        <ele>83</ele>
        <time>2022-04-16T09:59:42Z</time>
      </trkpt>
      <trkpt lat="47.18267" lon="-1.6757">
        <ele>83</ele>
        <time>2022-04-16T09:59:44Z</time>
      </trkpt>
      <trkpt lat="47.18279" lon="-1.67562">
        <ele>84</ele>
        <time>2022-04-16T09:59:46Z</time>
      </trkpt>
      <trkpt lat="47.18292" lon="-1.67555">
        <ele>85</ele>
        <time>2022-04-16T09:59:48Z</time>
      </trkpt>
      <trkpt lat="47.18304" lon="-1.67548">
        <ele>85</ele>
        <time>2022-04-16T09:59:50Z</time>
      </trkpt>
      <trkpt lat="47.18316" lon="-1.6754">
        <ele>85</ele>
        <time>2022-04-16T09:59:52Z</time>
      </trkpt>
      <trkpt lat="47.18328" lon="-1.67533">
        <ele>85</ele>
        <time>2022-04-16T09:59:54Z</time>
      </trkpt>
      <trkpt lat="47.1834" lon="-1.67525">
        <ele>85</ele>
        <time>2022-04-16T09:59:56Z</time>
      </trkpt>
      <trkpt lat="47.18352" lon="-1.67518">
        <ele>85</ele>
        <time>2022-04-16T09:59:58Z</time>
      </trkpt>
      <trkpt lat="47.18364" lon="-1.67511">
        <ele>85</ele>
        <time>2022-04-16T10:00:00Z</time>
      </trkpt>
      <trkpt lat="47.18376" lon="-1.67503">
        <ele>85</ele>
        <time>2022-04-16T10:00:02Z</time>
      </trkpt>
      <trkpt lat="47.18388" lon="-1.67495">
        <ele>85</ele>
        <time>2022-04-16T10:00:04Z</time>
      </trkpt>
      <trkpt lat="47.18399" lon="-1.67489">
        <ele>85</ele>
        <time>2022-04-16T10:00:06Z</time>
      </trkpt>
      <trkpt lat="47.18411" lon="-1.67482">
        <ele>85</ele>
        <time>2022-04-16T10:00:08Z</time>
      </trkpt>
      <trkpt lat="47.18422" lon="-1.67476">
        <ele>85</ele>
        <time>2022-04-16T10:00:10Z</time>
      </trkpt>
      <trkpt lat="47.18433" lon="-1.67469">
        <ele>86</ele>
        <time>2022-04-16T10:00:12Z</time>
      </trkpt>
      <trkpt lat="47.18444" lon="-1.67463">
        <ele>86</ele>
        <time>2022-04-16T10:00:14Z</time>
      </trkpt>
      <trkpt lat="47.18455" lon="-1.67457">
        <ele>87</ele>
        <time>2022-04-16T10:00:16Z</time>
      </trkpt>
      <trkpt lat="47.18466" lon="-1.6745">
        <ele>87</ele>
        <time>2022-04-16T10:00:18Z</time>
      </trkpt>
      <trkpt lat="47.18476" lon="-1.67443">
        <ele>87</ele>
        <time>2022-04-16T10:00:20Z</time>
      </trkpt>
      <trkpt lat="47.18484" lon="-1.67436">
        <ele>88</ele>
        <time>2022-04-16T10:00:22Z</time>
      </trkpt>
      <trkpt lat="47.18497" lon="-1.67432">
        <ele>88</ele>
        <time>2022-04-16T10:00:25Z</time>
      </trkpt>
      <trkpt lat="47.18507" lon="-1.67424">
        <ele>88</ele>
        <time>2022-04-16T10:00:28Z</time>
      </trkpt>
      <trkpt lat="47.18516" lon="-1.67415">
        <ele>88</ele>
        <time>2022-04-16T10:00:31Z</time>
      </trkpt>
      <trkpt lat="47.18524" lon="-1.67407">
        <ele>88</ele>
        <time>2022-04-16T10:00:33Z</time>
      </trkpt>
      <trkpt lat="47.18533" lon="-1.67412">
        <ele>88</ele>
        <time>2022-04-16T10:00:35Z</time>
      </trkpt>
      <trkpt lat="47.18537" lon="-1.67426">
        <ele>88</ele>
        <time>2022-04-16T10:00:37Z</time>
      </trkpt>
      <trkpt lat="47.1854" lon="-1.67441">
        <ele>87</ele>
        <time>2022-04-16T10:00:39Z</time>
      </trkpt>
      <trkpt lat="47.1855" lon="-1.67445">
        <ele>88</ele>
        <time>2022-04-16T10:00:41Z</time>
      </trkpt>
      <trkpt lat="47.1856" lon="-1.6744">
        <ele>88</ele>
        <time>2022-04-16T10:00:43Z</time>
      </trkpt>
      <trkpt lat="47.1857" lon="-1.67434">
        <ele>89</ele>
        <time>2022-04-16T10:00:45Z</time>
      </trkpt>
      <trkpt lat="47.1858" lon="-1.67427">
        <ele>89</ele>
        <time>2022-04-16T10:00:47Z</time>
      </trkpt>
      <trkpt lat="47.18589" lon="-1.67429">
        <ele>89</ele>
        <time>2022-04-16T10:00:49Z</time>
      </trkpt>
      <trkpt lat="47.18596" lon="-1.67442">
        <ele>89</ele>
        <time>2022-04-16T10:00:51Z</time>
      </trkpt>
      <trkpt lat="47.18602" lon="-1.67457">
        <ele>89</ele>
        <time>2022-04-16T10:00:53Z</time>
      </trkpt>
      <trkpt lat="47.18606" lon="-1.67475">
        <ele>89</ele>
        <time>2022-04-16T10:00:55Z</time>
      </trkpt>
      <trkpt lat="47.18611" lon="-1.67493">
        <ele>90</ele>
        <time>2022-04-16T10:00:57Z</time>
      </trkpt>
      <trkpt lat="47.18618" lon="-1.67509">
        <ele>89</ele>
        <time>2022-04-16T10:00:59Z</time>
      </trkpt>
      <trkpt lat="47.18625" lon="-1.67525">
        <ele>89</ele>
        <time>2022-04-16T10:01:01Z</time>
      </trkpt>
      <trkpt lat="47.18635" lon="-1.67539">
        <ele>89</ele>
        <time>2022-04-16T10:01:03Z</time>
      </trkpt>
      <trkpt lat="47.18645" lon="-1.67553">
        <ele>88</ele>
        <time>2022-04-16T10:01:05Z</time>
      </trkpt>
      <trkpt lat="47.18655" lon="-1.67566">
        <ele>88</ele>
        <time>2022-04-16T10:01:07Z</time>
      </trkpt>
      <trkpt lat="47.18665" lon="-1.67579">
        <ele>88</ele>
        <time>2022-04-16T10:01:09Z</time>
      </trkpt>
      <trkpt lat="47.18674" lon="-1.67591">
        <ele>88</ele>
        <time>2022-04-16T10:01:11Z</time>
      </trkpt>
      <trkpt lat="47.18683" lon="-1.67604">
        <ele>88</ele>
        <time>2022-04-16T10:01:13Z</time>
      </trkpt>
      <trkpt lat="47.18693" lon="-1.67614">
        <ele>88</ele>
        <time>2022-04-16T10:01:15Z</time>
      </trkpt>
      <trkpt lat="47.18706" lon="-1.67617">
        <ele>88</ele>
        <time>2022-04-16T10:01:17Z</time>
      </trkpt>
      <trkpt lat="47.18718" lon="-1.67615">
        <ele>88</ele>
        <time>2022-04-16T10:01:19Z</time>
      </trkpt>
      <trkpt lat="47.18729" lon="-1.67611">
        <ele>89</ele>
        <time>2022-04-16T10:01:21Z</time>
      </trkpt>
      <trkpt lat="47.18737" lon="-1.67607">
        <ele>89</ele>
        <time>2022-04-16T10:01:23Z</time>
      </trkpt>
      <trkpt lat="47.18749" lon="-1.67606">
        <ele>90</ele>
        <time>2022-04-16T10:01:27Z</time>
      </trkpt>
      <trkpt lat="47.18754" lon="-1.67618">
        <ele>90</ele>
        <time>2022-04-16T10:01:29Z</time>
      </trkpt>
      <trkpt lat="47.1876" lon="-1.67636">
        <ele>89</ele>
        <time>2022-04-16T10:01:32Z</time>
      </trkpt>
      <trkpt lat="47.18773" lon="-1.67636">
        <ele>88</ele>
        <time>2022-04-16T10:01:35Z</time>
      </trkpt>
      <trkpt lat="47.18784" lon="-1.67629">
        <ele>88</ele>
        <time>2022-04-16T10:01:37Z</time>
      </trkpt>
      <trkpt lat="47.18795" lon="-1.67622">
        <ele>88</ele>
        <time>2022-04-16T10:01:39Z</time>
      </trkpt>
      <trkpt lat="47.18806" lon="-1.67615">
        <ele>88</ele>
        <time>2022-04-16T10:01:41Z</time>
      </trkpt>
      <trkpt lat="47.18818" lon="-1.67609">
        <ele>87</ele>
        <time>2022-04-16T10:01:43Z</time>
      </trkpt>
      <trkpt lat="47.18828" lon="-1.67603">
        <ele>87</ele>
        <time>2022-04-16T10:01:45Z</time>
      </trkpt>
      <trkpt lat="47.18838" lon="-1.67596">
        <ele>87</ele>
        <time>2022-04-16T10:01:48Z</time>
      </trkpt>
      <trkpt lat="47.1884" lon="-1.67582">
        <ele>88</ele>
        <time>2022-04-16T10:01:53Z</time>
      </trkpt>
      <trkpt lat="47.18839" lon="-1.67563">
        <ele>89</ele>
        <time>2022-04-16T10:01:56Z</time>
      </trkpt>
      <trkpt lat="47.1884" lon="-1.67549">
        <ele>89</ele>
        <time>2022-04-16T10:01:58Z</time>
      </trkpt>
      <trkpt lat="47.18842" lon="-1.67537">
        <ele>89</ele>
        <time>2022-04-16T10:02:00Z</time>
      </trkpt>
      <trkpt lat="47.1885" lon="-1.67529">
        <ele>88</ele>
        <time>2022-04-16T10:02:02Z</time>
      </trkpt>
      <trkpt lat="47.18859" lon="-1.67524">
        <ele>86</ele>
        <time>2022-04-16T10:02:04Z</time>
      </trkpt>
      <trkpt lat="47.18868" lon="-1.67515">
        <ele>84</ele>
        <time>2022-04-16T10:02:06Z</time>
      </trkpt>
      <trkpt lat="47.18875" lon="-1.67503">
        <ele>84</ele>
        <time>2022-04-16T10:02:08Z</time>
      </trkpt>
      <trkpt lat="47.18881" lon="-1.6749">
        <ele>83</ele>
        <time>2022-04-16T10:02:10Z</time>
      </trkpt>
      <trkpt lat="47.18887" lon="-1.67476">
        <ele>82</ele>
        <time>2022-04-16T10:02:12Z</time>
      </trkpt>
      <trkpt lat="47.18892" lon="-1.67464">
        <ele>81</ele>
        <time>2022-04-16T10:02:14Z</time>
      </trkpt>
      <trkpt lat="47.18896" lon="-1.67447">
        <ele>80</ele>
        <time>2022-04-16T10:02:17Z</time>
      </trkpt>
      <trkpt lat="47.18894" lon="-1.67433">
        <ele>80</ele>
        <time>2022-04-16T10:02:19Z</time>
      </trkpt>
      <trkpt lat="47.18891" lon="-1.6742">
        <ele>81</ele>
        <time>2022-04-16T10:02:21Z</time>
      </trkpt>
      <trkpt lat="47.18886" lon="-1.67406">
        <ele>81</ele>
        <time>2022-04-16T10:02:23Z</time>
      </trkpt>
      <trkpt lat="47.18881" lon="-1.67392">
        <ele>82</ele>
        <time>2022-04-16T10:02:25Z</time>
      </trkpt>
      <trkpt lat="47.18877" lon="-1.67379">
        <ele>84</ele>
        <time>2022-04-16T10:02:27Z</time>
      </trkpt>
      <trkpt lat="47.18873" lon="-1.67364">
        <ele>84</ele>
        <time>2022-04-16T10:02:29Z</time>
      </trkpt>
      <trkpt lat="47.18868" lon="-1.67348">
        <ele>85</ele>
        <time>2022-04-16T10:02:31Z</time>
      </trkpt>
      <trkpt lat="47.18864" lon="-1.67335">
        <ele>85</ele>
        <time>2022-04-16T10:02:33Z</time>
      </trkpt>
      <trkpt lat="47.1886" lon="-1.67322">
        <ele>87</ele>
        <time>2022-04-16T10:02:36Z</time>
      </trkpt>
      <trkpt lat="47.18855" lon="-1.67309">
        <ele>88</ele>
        <time>2022-04-16T10:02:40Z</time>
      </trkpt>
      <trkpt lat="47.18851" lon="-1.67295">
        <ele>90</ele>
        <time>2022-04-16T10:02:43Z</time>
      </trkpt>
      <trkpt lat="47.18847" lon="-1.67283">
        <ele>90</ele>
        <time>2022-04-16T10:02:45Z</time>
      </trkpt>
      <trkpt lat="47.18841" lon="-1.67268">
        <ele>89</ele>
        <time>2022-04-16T10:02:48Z</time>
      </trkpt>
      <trkpt lat="47.18842" lon="-1.67253">
        <ele>85</ele>
        <time>2022-04-16T10:03:06Z</time>
      </trkpt>
      <trkpt lat="47.18849" lon="-1.67242">
        <ele>85</ele>
        <time>2022-04-16T10:03:10Z</time>
      </trkpt>
      <trkpt lat="47.18851" lon="-1.67223">
        <ele>87</ele>
        <time>2022-04-16T10:03:13Z</time>
      </trkpt>
      <trkpt lat="47.18856" lon="-1.67207">
        <ele>86</ele>
        <time>2022-04-16T10:03:15Z</time>
      </trkpt>
      <trkpt lat="47.18861" lon="-1.67193">
        <ele>85</ele>
        <time>2022-04-16T10:03:17Z</time>
      </trkpt>
      <trkpt lat="47.18861" lon="-1.67179">
        <ele>85</ele>
        <time>2022-04-16T10:03:20Z</time>
      </trkpt>
      <trkpt lat="47.18856" lon="-1.67165">
        <ele>82</ele>
        <time>2022-04-16T10:03:24Z</time>
      </trkpt>
      <trkpt lat="47.18855" lon="-1.67151">
        <ele>81</ele>
        <time>2022-04-16T10:03:35Z</time>
      </trkpt>
      <trkpt lat="47.18855" lon="-1.67136">
        <ele>83</ele>
        <time>2022-04-16T10:03:43Z</time>
      </trkpt>
      <trkpt lat="47.1886" lon="-1.67123">
        <ele>83</ele>
        <time>2022-04-16T10:03:48Z</time>
      </trkpt>
      <trkpt lat="47.18864" lon="-1.67109">
        <ele>83</ele>
        <time>2022-04-16T10:03:51Z</time>
      </trkpt>
      <trkpt lat="47.18864" lon="-1.67093">
        <ele>82</ele>
        <time>2022-04-16T10:03:54Z</time>
      </trkpt>
      <trkpt lat="47.18862" lon="-1.67076">
        <ele>80</ele>
        <time>2022-04-16T10:03:57Z</time>
      </trkpt>
      <trkpt lat="47.18862" lon="-1.6706">
        <ele>79</ele>
        <time>2022-04-16T10:04:01Z</time>
      </trkpt>
      <trkpt lat="47.18871" lon="-1.67051">
        <ele>77</ele>
        <time>2022-04-16T10:04:05Z</time>
      </trkpt>
      <trkpt lat="47.1888" lon="-1.67044">
        <ele>74</ele>
        <time>2022-04-16T10:04:07Z</time>
      </trkpt>
      <trkpt lat="47.18889" lon="-1.67038">
        <ele>71</ele>
        <time>2022-04-16T10:04:09Z</time>
      </trkpt>
      <trkpt lat="47.18898" lon="-1.67032">
        <ele>70</ele>
        <time>2022-04-16T10:04:11Z</time>
      </trkpt>
      <trkpt lat="47.18909" lon="-1.67025">
        <ele>68</ele>
        <time>2022-04-16T10:04:14Z</time>
      </trkpt>
      <trkpt lat="47.18922" lon="-1.67018">
        <ele>66</ele>
        <time>2022-04-16T10:04:17Z</time>
      </trkpt>
      <trkpt lat="47.18932" lon="-1.67013">
        <ele>65</ele>
        <time>2022-04-16T10:04:19Z</time>
      </trkpt>
      <trkpt lat="47.18942" lon="-1.67006">
        <ele>64</ele>
        <time>2022-04-16T10:04:21Z</time>
      </trkpt>
      <trkpt lat="47.18953" lon="-1.67001">
        <ele>63</ele>
        <time>2022-04-16T10:04:23Z</time>
      </trkpt>
      <trkpt lat="47.18964" lon="-1.66995">
        <ele>62</ele>
        <time>2022-04-16T10:04:25Z</time>
      </trkpt>
      <trkpt lat="47.18975" lon="-1.66989">
        <ele>61</ele>
        <time>2022-04-16T10:04:27Z</time>
      </trkpt>
      <trkpt lat="47.18987" lon="-1.66983">
        <ele>60</ele>
        <time>2022-04-16T10:04:29Z</time>
      </trkpt>
      <trkpt lat="47.18998" lon="-1.66977">
        <ele>59</ele>
        <time>2022-04-16T10:04:31Z</time>
      </trkpt>
      <trkpt lat="47.19009" lon="-1.66971">
        <ele>58</ele>
        <time>2022-04-16T10:04:33Z</time>
      </trkpt>
      <trkpt lat="47.1902" lon="-1.66965">
        <ele>58</ele>
        <time>2022-04-16T10:04:35Z</time>
      </trkpt>
      <trkpt lat="47.19031" lon="-1.66959">
        <ele>58</ele>
        <time>2022-04-16T10:04:37Z</time>
      </trkpt>
      <trkpt lat="47.19043" lon="-1.66953">
        <ele>59</ele>
        <time>2022-04-16T10:04:39Z</time>
      </trkpt>
      <trkpt lat="47.19055" lon="-1.66949">
        <ele>59</ele>
        <time>2022-04-16T10:04:41Z</time>
      </trkpt>
      <trkpt lat="47.19068" lon="-1.66948">
        <ele>59</ele>
        <time>2022-04-16T10:04:43Z</time>
      </trkpt>
      <trkpt lat="47.19079" lon="-1.66949">
        <ele>59</ele>
        <time>2022-04-16T10:04:45Z</time>
      </trkpt>
      <trkpt lat="47.1909" lon="-1.66954">
        <ele>59</ele>
        <time>2022-04-16T10:04:47Z</time>
      </trkpt>
      <trkpt lat="47.19099" lon="-1.66961">
        <ele>60</ele>
        <time>2022-04-16T10:04:49Z</time>
      </trkpt>
      <trkpt lat="47.19109" lon="-1.66971">
        <ele>62</ele>
        <time>2022-04-16T10:04:51Z</time>
      </trkpt>
      <trkpt lat="47.19117" lon="-1.66981">
        <ele>63</ele>
        <time>2022-04-16T10:04:53Z</time>
      </trkpt>
      <trkpt lat="47.19127" lon="-1.66993">
        <ele>63</ele>
        <time>2022-04-16T10:04:55Z</time>
      </trkpt>
      <trkpt lat="47.19136" lon="-1.67005">
        <ele>63</ele>
        <time>2022-04-16T10:04:57Z</time>
      </trkpt>
      <trkpt lat="47.19144" lon="-1.67016">
        <ele>64</ele>
        <time>2022-04-16T10:04:59Z</time>
      </trkpt>
      <trkpt lat="47.19152" lon="-1.67027">
        <ele>63</ele>
        <time>2022-04-16T10:05:01Z</time>
      </trkpt>
      <trkpt lat="47.19161" lon="-1.67039">
        <ele>63</ele>
        <time>2022-04-16T10:05:03Z</time>
      </trkpt>
      <trkpt lat="47.19169" lon="-1.67052">
        <ele>64</ele>
        <time>2022-04-16T10:05:05Z</time>
      </trkpt>
      <trkpt lat="47.19178" lon="-1.67065">
        <ele>64</ele>
        <time>2022-04-16T10:05:07Z</time>
      </trkpt>
      <trkpt lat="47.19187" lon="-1.67076">
        <ele>65</ele>
        <time>2022-04-16T10:05:09Z</time>
      </trkpt>
      <trkpt lat="47.19197" lon="-1.6709">
        <ele>67</ele>
        <time>2022-04-16T10:05:11Z</time>
      </trkpt>
      <trkpt lat="47.19207" lon="-1.67104">
        <ele>67</ele>
        <time>2022-04-16T10:05:13Z</time>
      </trkpt>
      <trkpt lat="47.19215" lon="-1.67115">
        <ele>66</ele>
        <time>2022-04-16T10:05:15Z</time>
      </trkpt>
      <trkpt lat="47.19223" lon="-1.67126">
        <ele>66</ele>
        <time>2022-04-16T10:05:17Z</time>
      </trkpt>
      <trkpt lat="47.19231" lon="-1.67136">
        <ele>66</ele>
        <time>2022-04-16T10:05:19Z</time>
      </trkpt>
      <trkpt lat="47.1924" lon="-1.67147">
        <ele>67</ele>
        <time>2022-04-16T10:05:21Z</time>
      </trkpt>
      <trkpt lat="47.19249" lon="-1.67157">
        <ele>67</ele>
        <time>2022-04-16T10:05:23Z</time>
      </trkpt>
      <trkpt lat="47.19257" lon="-1.6717">
        <ele>67</ele>
        <time>2022-04-16T10:05:25Z</time>
      </trkpt>
      <trkpt lat="47.19265" lon="-1.67181">
        <ele>67</ele>
        <time>2022-04-16T10:05:27Z</time>
      </trkpt>
      <trkpt lat="47.19273" lon="-1.67191">
        <ele>67</ele>
        <time>2022-04-16T10:05:29Z</time>
      </trkpt>
      <trkpt lat="47.19282" lon="-1.67202">
        <ele>68</ele>
        <time>2022-04-16T10:05:31Z</time>
      </trkpt>
      <trkpt lat="47.1929" lon="-1.67214">
        <ele>68</ele>
        <time>2022-04-16T10:05:33Z</time>
      </trkpt>
      <trkpt lat="47.19299" lon="-1.67227">
        <ele>68</ele>
        <time>2022-04-16T10:05:35Z</time>
      </trkpt>
      <trkpt lat="47.19307" lon="-1.6724">
        <ele>68</ele>
        <time>2022-04-16T10:05:37Z</time>
      </trkpt>
      <trkpt lat="47.19315" lon="-1.67252">
        <ele>69</ele>
        <time>2022-04-16T10:05:39Z</time>
      </trkpt>
      <trkpt lat="47.19324" lon="-1.67264">
        <ele>70</ele>
        <time>2022-04-16T10:05:41Z</time>
      </trkpt>
      <trkpt lat="47.19333" lon="-1.67277">
        <ele>70</ele>
        <time>2022-04-16T10:05:43Z</time>
      </trkpt>
      <trkpt lat="47.19344" lon="-1.6729">
        <ele>70</ele>
        <time>2022-04-16T10:05:45Z</time>
      </trkpt>
      <trkpt lat="47.19353" lon="-1.67302">
        <ele>69</ele>
        <time>2022-04-16T10:05:47Z</time>
      </trkpt>
      <trkpt lat="47.19361" lon="-1.67313">
        <ele>70</ele>
        <time>2022-04-16T10:05:49Z</time>
      </trkpt>
      <trkpt lat="47.19367" lon="-1.67322">
        <ele>71</ele>
        <time>2022-04-16T10:05:51Z</time>
      </trkpt>
      <trkpt lat="47.19374" lon="-1.67333">
        <ele>71</ele>
        <time>2022-04-16T10:05:54Z</time>
      </trkpt>
      <trkpt lat="47.19382" lon="-1.67343">
        <ele>70</ele>
        <time>2022-04-16T10:05:58Z</time>
      </trkpt>
      <trkpt lat="47.19392" lon="-1.67354">
        <ele>71</ele>
        <time>2022-04-16T10:06:01Z</time>
      </trkpt>
      <trkpt lat="47.194" lon="-1.67364">
        <ele>72</ele>
        <time>2022-04-16T10:06:03Z</time>
      </trkpt>
      <trkpt lat="47.19408" lon="-1.67376">
        <ele>73</ele>
        <time>2022-04-16T10:06:05Z</time>
      </trkpt>
      <trkpt lat="47.19418" lon="-1.67387">
        <ele>73</ele>
        <time>2022-04-16T10:06:07Z</time>
      </trkpt>
      <trkpt lat="47.19429" lon="-1.67398">
        <ele>72</ele>
        <time>2022-04-16T10:06:09Z</time>
      </trkpt>
      <trkpt lat="47.1944" lon="-1.67405">
        <ele>72</ele>
        <time>2022-04-16T10:06:11Z</time>
      </trkpt>
      <trkpt lat="47.19451" lon="-1.67408">
        <ele>71</ele>
        <time>2022-04-16T10:06:13Z</time>
      </trkpt>
      <trkpt lat="47.19461" lon="-1.67417">
        <ele>73</ele>
        <time>2022-04-16T10:06:16Z</time>
      </trkpt>
      <trkpt lat="47.19468" lon="-1.67428">
        <ele>73</ele>
        <time>2022-04-16T10:06:18Z</time>
      </trkpt>
      <trkpt lat="47.19475" lon="-1.67442">
        <ele>72</ele>
        <time>2022-04-16T10:06:20Z</time>
      </trkpt>
      <trkpt lat="47.19481" lon="-1.67452">
        <ele>72</ele>
        <time>2022-04-16T10:06:22Z</time>
      </trkpt>
      <trkpt lat="47.19488" lon="-1.67462">
        <ele>70</ele>
        <time>2022-04-16T10:06:24Z</time>
      </trkpt>
      <trkpt lat="47.19497" lon="-1.6747">
        <ele>69</ele>
        <time>2022-04-16T10:06:27Z</time>
      </trkpt>
      <trkpt lat="47.19505" lon="-1.67482">
        <ele>70</ele>
        <time>2022-04-16T10:06:30Z</time>
      </trkpt>
      <trkpt lat="47.19513" lon="-1.67495">
        <ele>69</ele>
        <time>2022-04-16T10:06:33Z</time>
      </trkpt>
      <trkpt lat="47.19523" lon="-1.67505">
        <ele>66</ele>
        <time>2022-04-16T10:06:36Z</time>
      </trkpt>
      <trkpt lat="47.19532" lon="-1.67508">
        <ele>63</ele>
        <time>2022-04-16T10:06:39Z</time>
      </trkpt>
      <trkpt lat="47.19541" lon="-1.67514">
        <ele>62</ele>
        <time>2022-04-16T10:06:44Z</time>
      </trkpt>
      <trkpt lat="47.1954" lon="-1.67514">
        <ele>60</ele>
        <time>2022-04-16T10:08:45Z</time>
      </trkpt>
      <trkpt lat="47.1954" lon="-1.67514">
        <ele>60</ele>
        <time>2022-04-16T10:10:46Z</time>
      </trkpt>
      <trkpt lat="47.19545" lon="-1.67525">
        <ele>59</ele>
        <time>2022-04-16T10:12:24Z</time>
      </trkpt>
      <trkpt lat="47.19553" lon="-1.67539">
        <ele>56</ele>
        <time>2022-04-16T10:12:26Z</time>
      </trkpt>
      <trkpt lat="47.19563" lon="-1.67551">
        <ele>54</ele>
        <time>2022-04-16T10:12:28Z</time>
      </trkpt>
      <trkpt lat="47.19571" lon="-1.67565">
        <ele>53</ele>
        <time>2022-04-16T10:12:30Z</time>
      </trkpt>
      <trkpt lat="47.19579" lon="-1.67576">
        <ele>52</ele>
        <time>2022-04-16T10:12:32Z</time>
      </trkpt>
      <trkpt lat="47.19585" lon="-1.67586">
        <ele>52</ele>
        <time>2022-04-16T10:12:34Z</time>
      </trkpt>
      <trkpt lat="47.19593" lon="-1.676">
        <ele>53</ele>
        <time>2022-04-16T10:12:37Z</time>
      </trkpt>
      <trkpt lat="47.19601" lon="-1.6761">
        <ele>54</ele>
        <time>2022-04-16T10:12:41Z</time>
      </trkpt>
      <trkpt lat="47.19611" lon="-1.6761">
        <ele>46</ele>
        <time>2022-04-16T10:14:27Z</time>
      </trkpt>
      <trkpt lat="47.19621" lon="-1.67615">
        <ele>47</ele>
        <time>2022-04-16T10:14:34Z</time>
      </trkpt>
      <trkpt lat="47.19631" lon="-1.6762">
        <ele>48</ele>
        <time>2022-04-16T10:14:40Z</time>
      </trkpt>
      <trkpt lat="47.19641" lon="-1.67625">
        <ele>48</ele>
        <time>2022-04-16T10:14:46Z</time>
      </trkpt>
      <trkpt lat="47.19651" lon="-1.67628">
        <ele>49</ele>
        <time>2022-04-16T10:14:51Z</time>
      </trkpt>
      <trkpt lat="47.19662" lon="-1.67628">
        <ele>49</ele>
        <time>2022-04-16T10:14:57Z</time>
      </trkpt>
      <trkpt lat="47.19672" lon="-1.67626">
        <ele>50</ele>
        <time>2022-04-16T10:15:04Z</time>
      </trkpt>
      <trkpt lat="47.19681" lon="-1.67622">
        <ele>49</ele>
        <time>2022-04-16T10:15:10Z</time>
      </trkpt>
      <trkpt lat="47.1969" lon="-1.67614">
        <ele>48</ele>
        <time>2022-04-16T10:15:16Z</time>
      </trkpt>
      <trkpt lat="47.19697" lon="-1.67605">
        <ele>50</ele>
        <time>2022-04-16T10:15:23Z</time>
      </trkpt>
      <trkpt lat="47.19702" lon="-1.67592">
        <ele>48</ele>
        <time>2022-04-16T10:15:30Z</time>
      </trkpt>
      <trkpt lat="47.19705" lon="-1.67579">
        <ele>48</ele>
        <time>2022-04-16T10:15:36Z</time>
      </trkpt>
      <trkpt lat="47.1971" lon="-1.67566">
        <ele>47</ele>
        <time>2022-04-16T10:15:43Z</time>
      </trkpt>
      <trkpt lat="47.19714" lon="-1.67552">
        <ele>46</ele>
        <time>2022-04-16T10:15:49Z</time>
      </trkpt>
      <trkpt lat="47.19717" lon="-1.6754">
        <ele>47</ele>
        <time>2022-04-16T10:15:55Z</time>
      </trkpt>
      <trkpt lat="47.19721" lon="-1.67528">
        <ele>47</ele>
        <time>2022-04-16T10:16:01Z</time>
      </trkpt>
      <trkpt lat="47.19725" lon="-1.67515">
        <ele>48</ele>
        <time>2022-04-16T10:16:07Z</time>
      </trkpt>
      <trkpt lat="47.19729" lon="-1.67501">
        <ele>49</ele>
        <time>2022-04-16T10:16:14Z</time>
      </trkpt>
      <trkpt lat="47.19734" lon="-1.6749">
        <ele>50</ele>
        <time>2022-04-16T10:16:21Z</time>
      </trkpt>
      <trkpt lat="47.19739" lon="-1.67479">
        <ele>49</ele>
        <time>2022-04-16T10:16:29Z</time>
      </trkpt>
      <trkpt lat="47.19744" lon="-1.67467">
        <ele>49</ele>
        <time>2022-04-16T10:16:39Z</time>
      </trkpt>
      <trkpt lat="47.19746" lon="-1.67454">
        <ele>50</ele>
        <time>2022-04-16T10:16:58Z</time>
      </trkpt>
      <trkpt lat="47.19747" lon="-1.67439">
        <ele>51</ele>
        <time>2022-04-16T10:17:06Z</time>
      </trkpt>
      <trkpt lat="47.19747" lon="-1.67425">
        <ele>50</ele>
        <time>2022-04-16T10:17:08Z</time>
      </trkpt>
      <trkpt lat="47.19747" lon="-1.67408">
        <ele>50</ele>
        <time>2022-04-16T10:17:10Z</time>
      </trkpt>
      <trkpt lat="47.19746" lon="-1.67392">
        <ele>51</ele>
        <time>2022-04-16T10:17:12Z</time>
      </trkpt>
      <trkpt lat="47.19746" lon="-1.67376">
        <ele>51</ele>
        <time>2022-04-16T10:17:14Z</time>
      </trkpt>
      <trkpt lat="47.19746" lon="-1.67361">
        <ele>51</ele>
        <time>2022-04-16T10:17:16Z</time>
      </trkpt>
      <trkpt lat="47.19747" lon="-1.67344">
        <ele>51</ele>
        <time>2022-04-16T10:17:18Z</time>
      </trkpt>
      <trkpt lat="47.19756" lon="-1.6733">
        <ele>51</ele>
        <time>2022-04-16T10:17:20Z</time>
      </trkpt>
      <trkpt lat="47.19767" lon="-1.67321">
        <ele>51</ele>
        <time>2022-04-16T10:17:22Z</time>
      </trkpt>
      <trkpt lat="47.19777" lon="-1.6731">
        <ele>51</ele>
        <time>2022-04-16T10:17:24Z</time>
      </trkpt>
      <trkpt lat="47.19786" lon="-1.67301">
        <ele>51</ele>
        <time>2022-04-16T10:17:26Z</time>
      </trkpt>
      <trkpt lat="47.19795" lon="-1.67294">
        <ele>52</ele>
        <time>2022-04-16T10:17:28Z</time>
      </trkpt>
      <trkpt lat="47.19806" lon="-1.673">
        <ele>52</ele>
        <time>2022-04-16T10:17:30Z</time>
      </trkpt>
      <trkpt lat="47.19813" lon="-1.67317">
        <ele>52</ele>
        <time>2022-04-16T10:17:32Z</time>
      </trkpt>
      <trkpt lat="47.19822" lon="-1.67333">
        <ele>52</ele>
        <time>2022-04-16T10:17:34Z</time>
      </trkpt>
      <trkpt lat="47.1983" lon="-1.6735">
        <ele>53</ele>
        <time>2022-04-16T10:17:36Z</time>
      </trkpt>
      <trkpt lat="47.19839" lon="-1.67366">
        <ele>53</ele>
        <time>2022-04-16T10:17:38Z</time>
      </trkpt>
      <trkpt lat="47.19848" lon="-1.67383">
        <ele>53</ele>
        <time>2022-04-16T10:17:40Z</time>
      </trkpt>
      <trkpt lat="47.19857" lon="-1.67401">
        <ele>53</ele>
        <time>2022-04-16T10:17:42Z</time>
      </trkpt>
      <trkpt lat="47.19865" lon="-1.67419">
        <ele>53</ele>
        <time>2022-04-16T10:17:44Z</time>
      </trkpt>
      <trkpt lat="47.19873" lon="-1.67437">
        <ele>53</ele>
        <time>2022-04-16T10:17:46Z</time>
      </trkpt>
      <trkpt lat="47.19882" lon="-1.67455">
        <ele>53</ele>
        <time>2022-04-16T10:17:48Z</time>
      </trkpt>
      <trkpt lat="47.19891" lon="-1.67474">
        <ele>54</ele>
        <time>2022-04-16T10:17:50Z</time>
      </trkpt>
      <trkpt lat="47.199" lon="-1.67492">
        <ele>53</ele>
        <time>2022-04-16T10:17:52Z</time>
      </trkpt>
      <trkpt lat="47.19908" lon="-1.67509">
        <ele>53</ele>
        <time>2022-04-16T10:17:54Z</time>
      </trkpt>
      <trkpt lat="47.19916" lon="-1.67527">
        <ele>53</ele>
        <time>2022-04-16T10:17:56Z</time>
      </trkpt>
      <trkpt lat="47.19925" lon="-1.67544">
        <ele>53</ele>
        <time>2022-04-16T10:17:58Z</time>
      </trkpt>
      <trkpt lat="47.19932" lon="-1.67563">
        <ele>54</ele>
        <time>2022-04-16T10:18:00Z</time>
      </trkpt>
      <trkpt lat="47.19941" lon="-1.67581">
        <ele>54</ele>
        <time>2022-04-16T10:18:02Z</time>
      </trkpt>
      <trkpt lat="47.1995" lon="-1.67599">
        <ele>54</ele>
        <time>2022-04-16T10:18:04Z</time>
      </trkpt>
      <trkpt lat="47.19958" lon="-1.67617">
        <ele>54</ele>
        <time>2022-04-16T10:18:06Z</time>
      </trkpt>
      <trkpt lat="47.19968" lon="-1.67634">
        <ele>54</ele>
        <time>2022-04-16T10:18:08Z</time>
      </trkpt>
      <trkpt lat="47.19977" lon="-1.67651">
        <ele>54</ele>
        <time>2022-04-16T10:18:10Z</time>
      </trkpt>
      <trkpt lat="47.19987" lon="-1.67668">
        <ele>54</ele>
        <time>2022-04-16T10:18:12Z</time>
      </trkpt>
      <trkpt lat="47.19997" lon="-1.67684">
        <ele>54</ele>
        <time>2022-04-16T10:18:14Z</time>
      </trkpt>
      <trkpt lat="47.20012" lon="-1.67708">
        <ele>53</ele>
        <time>2022-04-16T10:18:17Z</time>
      </trkpt>
      <trkpt lat="47.20022" lon="-1.67724">
        <ele>53</ele>
        <time>2022-04-16T10:18:19Z</time>
      </trkpt>
      <trkpt lat="47.20031" lon="-1.67741">
        <ele>53</ele>
        <time>2022-04-16T10:18:21Z</time>
      </trkpt>
      <trkpt lat="47.2004" lon="-1.67756">
        <ele>54</ele>
        <time>2022-04-16T10:18:23Z</time>
      </trkpt>
      <trkpt lat="47.2005" lon="-1.67772">
        <ele>54</ele>
        <time>2022-04-16T10:18:25Z</time>
      </trkpt>
      <trkpt lat="47.20064" lon="-1.67796">
        <ele>53</ele>
        <time>2022-04-16T10:18:28Z</time>
      </trkpt>
      <trkpt lat="47.20073" lon="-1.67812">
        <ele>53</ele>
        <time>2022-04-16T10:18:30Z</time>
      </trkpt>
      <trkpt lat="47.20087" lon="-1.67836">
        <ele>53</ele>
        <time>2022-04-16T10:18:33Z</time>
      </trkpt>
      <trkpt lat="47.20096" lon="-1.67852">
        <ele>54</ele>
        <time>2022-04-16T10:18:35Z</time>
      </trkpt>
      <trkpt lat="47.20104" lon="-1.67869">
        <ele>54</ele>
        <time>2022-04-16T10:18:37Z</time>
      </trkpt>
      <trkpt lat="47.20113" lon="-1.67885">
        <ele>54</ele>
        <time>2022-04-16T10:18:39Z</time>
      </trkpt>
      <trkpt lat="47.20122" lon="-1.679">
        <ele>54</ele>
        <time>2022-04-16T10:18:41Z</time>
      </trkpt>
      <trkpt lat="47.20134" lon="-1.6791">
        <ele>55</ele>
        <time>2022-04-16T10:18:43Z</time>
      </trkpt>
      <trkpt lat="47.20147" lon="-1.67907">
        <ele>55</ele>
        <time>2022-04-16T10:18:45Z</time>
      </trkpt>
      <trkpt lat="47.20157" lon="-1.67897">
        <ele>55</ele>
        <time>2022-04-16T10:18:47Z</time>
      </trkpt>
      <trkpt lat="47.20167" lon="-1.67888">
        <ele>56</ele>
        <time>2022-04-16T10:18:49Z</time>
      </trkpt>
      <trkpt lat="47.20176" lon="-1.67879">
        <ele>56</ele>
        <time>2022-04-16T10:18:51Z</time>
      </trkpt>
      <trkpt lat="47.20185" lon="-1.6787">
        <ele>56</ele>
        <time>2022-04-16T10:18:53Z</time>
      </trkpt>
      <trkpt lat="47.20194" lon="-1.67861">
        <ele>57</ele>
        <time>2022-04-16T10:18:55Z</time>
      </trkpt>
      <trkpt lat="47.20203" lon="-1.67854">
        <ele>57</ele>
        <time>2022-04-16T10:18:57Z</time>
      </trkpt>
      <trkpt lat="47.20213" lon="-1.67847">
        <ele>57</ele>
        <time>2022-04-16T10:18:59Z</time>
      </trkpt>
      <trkpt lat="47.20225" lon="-1.67837">
        <ele>57</ele>
        <time>2022-04-16T10:19:01Z</time>
      </trkpt>
      <trkpt lat="47.20234" lon="-1.67823">
        <ele>56</ele>
        <time>2022-04-16T10:19:03Z</time>
      </trkpt>
      <trkpt lat="47.2023" lon="-1.67798">
        <ele>56</ele>
        <time>2022-04-16T10:19:05Z</time>
      </trkpt>
      <trkpt lat="47.20221" lon="-1.67776">
        <ele>56</ele>
        <time>2022-04-16T10:19:07Z</time>
      </trkpt>
      <trkpt lat="47.20212" lon="-1.67754">
        <ele>57</ele>
        <time>2022-04-16T10:19:09Z</time>
      </trkpt>
      <trkpt lat="47.20203" lon="-1.67732">
        <ele>57</ele>
        <time>2022-04-16T10:19:11Z</time>
      </trkpt>
      <trkpt lat="47.20196" lon="-1.67711">
        <ele>56</ele>
        <time>2022-04-16T10:19:13Z</time>
      </trkpt>
      <trkpt lat="47.20188" lon="-1.6769">
        <ele>56</ele>
        <time>2022-04-16T10:19:15Z</time>
      </trkpt>
      <trkpt lat="47.2018" lon="-1.67671">
        <ele>55</ele>
        <time>2022-04-16T10:19:17Z</time>
      </trkpt>
      <trkpt lat="47.20172" lon="-1.67651">
        <ele>55</ele>
        <time>2022-04-16T10:19:19Z</time>
      </trkpt>
      <trkpt lat="47.20165" lon="-1.67632">
        <ele>55</ele>
        <time>2022-04-16T10:19:21Z</time>
      </trkpt>
      <trkpt lat="47.20158" lon="-1.67614">
        <ele>56</ele>
        <time>2022-04-16T10:19:23Z</time>
      </trkpt>
      <trkpt lat="47.20152" lon="-1.67598">
        <ele>57</ele>
        <time>2022-04-16T10:19:25Z</time>
      </trkpt>
      <trkpt lat="47.20147" lon="-1.67581">
        <ele>56</ele>
        <time>2022-04-16T10:19:27Z</time>
      </trkpt>
      <trkpt lat="47.2014" lon="-1.67563">
        <ele>56</ele>
        <time>2022-04-16T10:19:29Z</time>
      </trkpt>
      <trkpt lat="47.20134" lon="-1.67547">
        <ele>56</ele>
        <time>2022-04-16T10:19:31Z</time>
      </trkpt>
      <trkpt lat="47.20127" lon="-1.67531">
        <ele>57</ele>
        <time>2022-04-16T10:19:33Z</time>
      </trkpt>
      <trkpt lat="47.20121" lon="-1.67515">
        <ele>57</ele>
        <time>2022-04-16T10:19:35Z</time>
      </trkpt>
      <trkpt lat="47.20115" lon="-1.67501">
        <ele>57</ele>
        <time>2022-04-16T10:19:37Z</time>
      </trkpt>
      <trkpt lat="47.20121" lon="-1.67482">
        <ele>57</ele>
        <time>2022-04-16T10:19:40Z</time>
      </trkpt>
      <trkpt lat="47.20134" lon="-1.67473">
        <ele>56</ele>
        <time>2022-04-16T10:19:42Z</time>
      </trkpt>
      <trkpt lat="47.20147" lon="-1.67467">
        <ele>55</ele>
        <time>2022-04-16T10:19:44Z</time>
      </trkpt>
      <trkpt lat="47.2016" lon="-1.6746">
        <ele>55</ele>
        <time>2022-04-16T10:19:46Z</time>
      </trkpt>
      <trkpt lat="47.20174" lon="-1.67454">
        <ele>55</ele>
        <time>2022-04-16T10:19:48Z</time>
      </trkpt>
      <trkpt lat="47.20187" lon="-1.67447">
        <ele>55</ele>
        <time>2022-04-16T10:19:50Z</time>
      </trkpt>
      <trkpt lat="47.202" lon="-1.67441">
        <ele>55</ele>
        <time>2022-04-16T10:19:52Z</time>
      </trkpt>
      <trkpt lat="47.20214" lon="-1.67435">
        <ele>55</ele>
        <time>2022-04-16T10:19:54Z</time>
      </trkpt>
      <trkpt lat="47.20227" lon="-1.67428">
        <ele>55</ele>
        <time>2022-04-16T10:19:56Z</time>
      </trkpt>
      <trkpt lat="47.2024" lon="-1.67422">
        <ele>54</ele>
        <time>2022-04-16T10:19:58Z</time>
      </trkpt>
      <trkpt lat="47.20252" lon="-1.67416">
        <ele>54</ele>
        <time>2022-04-16T10:20:00Z</time>
      </trkpt>
      <trkpt lat="47.20264" lon="-1.6741">
        <ele>55</ele>
        <time>2022-04-16T10:20:02Z</time>
      </trkpt>
      <trkpt lat="47.20276" lon="-1.67404">
        <ele>54</ele>
        <time>2022-04-16T10:20:04Z</time>
      </trkpt>
      <trkpt lat="47.20289" lon="-1.67398">
        <ele>54</ele>
        <time>2022-04-16T10:20:06Z</time>
      </trkpt>
      <trkpt lat="47.20301" lon="-1.67392">
        <ele>54</ele>
        <time>2022-04-16T10:20:08Z</time>
      </trkpt>
      <trkpt lat="47.20314" lon="-1.67387">
        <ele>54</ele>
        <time>2022-04-16T10:20:10Z</time>
      </trkpt>
      <trkpt lat="47.20328" lon="-1.67385">
        <ele>53</ele>
        <time>2022-04-16T10:20:12Z</time>
      </trkpt>
      <trkpt lat="47.20341" lon="-1.6739">
        <ele>53</ele>
        <time>2022-04-16T10:20:14Z</time>
      </trkpt>
      <trkpt lat="47.20353" lon="-1.67401">
        <ele>53</ele>
        <time>2022-04-16T10:20:16Z</time>
      </trkpt>
      <trkpt lat="47.20362" lon="-1.67416">
        <ele>52</ele>
        <time>2022-04-16T10:20:18Z</time>
      </trkpt>
      <trkpt lat="47.20368" lon="-1.67434">
        <ele>52</ele>
        <time>2022-04-16T10:20:20Z</time>
      </trkpt>
      <trkpt lat="47.20372" lon="-1.67454">
        <ele>52</ele>
        <time>2022-04-16T10:20:22Z</time>
      </trkpt>
      <trkpt lat="47.20375" lon="-1.67476">
        <ele>52</ele>
        <time>2022-04-16T10:20:24Z</time>
      </trkpt>
      <trkpt lat="47.20378" lon="-1.67496">
        <ele>52</ele>
        <time>2022-04-16T10:20:26Z</time>
      </trkpt>
      <trkpt lat="47.20381" lon="-1.67516">
        <ele>52</ele>
        <time>2022-04-16T10:20:28Z</time>
      </trkpt>
      <trkpt lat="47.20385" lon="-1.67534">
        <ele>52</ele>
        <time>2022-04-16T10:20:30Z</time>
      </trkpt>
      <trkpt lat="47.20394" lon="-1.67547">
        <ele>53</ele>
        <time>2022-04-16T10:20:32Z</time>
      </trkpt>
      <trkpt lat="47.20407" lon="-1.67548">
        <ele>52</ele>
        <time>2022-04-16T10:20:34Z</time>
      </trkpt>
      <trkpt lat="47.20419" lon="-1.67539">
        <ele>52</ele>
        <time>2022-04-16T10:20:36Z</time>
      </trkpt>
      <trkpt lat="47.20432" lon="-1.67538">
        <ele>52</ele>
        <time>2022-04-16T10:20:38Z</time>
      </trkpt>
      <trkpt lat="47.20444" lon="-1.67551">
        <ele>52</ele>
        <time>2022-04-16T10:20:40Z</time>
      </trkpt>
      <trkpt lat="47.20451" lon="-1.6757">
        <ele>52</ele>
        <time>2022-04-16T10:20:42Z</time>
      </trkpt>
      <trkpt lat="47.20459" lon="-1.67587">
        <ele>52</ele>
        <time>2022-04-16T10:20:44Z</time>
      </trkpt>
      <trkpt lat="47.20469" lon="-1.67602">
        <ele>52</ele>
        <time>2022-04-16T10:20:46Z</time>
      </trkpt>
      <trkpt lat="47.20478" lon="-1.67618">
        <ele>52</ele>
        <time>2022-04-16T10:20:48Z</time>
      </trkpt>
      <trkpt lat="47.20485" lon="-1.67636">
        <ele>52</ele>
        <time>2022-04-16T10:20:50Z</time>
      </trkpt>
      <trkpt lat="47.20493" lon="-1.67654">
        <ele>52</ele>
        <time>2022-04-16T10:20:52Z</time>
      </trkpt>
      <trkpt lat="47.205" lon="-1.67672">
        <ele>52</ele>
        <time>2022-04-16T10:20:54Z</time>
      </trkpt>
      <trkpt lat="47.20507" lon="-1.67691">
        <ele>52</ele>
        <time>2022-04-16T10:20:56Z</time>
      </trkpt>
      <trkpt lat="47.20514" lon="-1.6771">
        <ele>52</ele>
        <time>2022-04-16T10:20:58Z</time>
      </trkpt>
      <trkpt lat="47.2052" lon="-1.6773">
        <ele>52</ele>
        <time>2022-04-16T10:21:00Z</time>
      </trkpt>
      <trkpt lat="47.20527" lon="-1.67749">
        <ele>52</ele>
        <time>2022-04-16T10:21:02Z</time>
      </trkpt>
      <trkpt lat="47.20534" lon="-1.67768">
        <ele>53</ele>
        <time>2022-04-16T10:21:04Z</time>
      </trkpt>
      <trkpt lat="47.2054" lon="-1.67788">
        <ele>53</ele>
        <time>2022-04-16T10:21:06Z</time>
      </trkpt>
      <trkpt lat="47.20546" lon="-1.67807">
        <ele>53</ele>
        <time>2022-04-16T10:21:08Z</time>
      </trkpt>
      <trkpt lat="47.20553" lon="-1.67826">
        <ele>53</ele>
        <time>2022-04-16T10:21:10Z</time>
      </trkpt>
      <trkpt lat="47.20559" lon="-1.67846">
        <ele>53</ele>
        <time>2022-04-16T10:21:12Z</time>
      </trkpt>
      <trkpt lat="47.20565" lon="-1.67866">
        <ele>53</ele>
        <time>2022-04-16T10:21:14Z</time>
      </trkpt>
      <trkpt lat="47.20572" lon="-1.67886">
        <ele>53</ele>
        <time>2022-04-16T10:21:16Z</time>
      </trkpt>
      <trkpt lat="47.20578" lon="-1.67906">
        <ele>53</ele>
        <time>2022-04-16T10:21:18Z</time>
      </trkpt>
      <trkpt lat="47.20584" lon="-1.67926">
        <ele>53</ele>
        <time>2022-04-16T10:21:20Z</time>
      </trkpt>
      <trkpt lat="47.2059" lon="-1.67945">
        <ele>54</ele>
        <time>2022-04-16T10:21:22Z</time>
      </trkpt>
      <trkpt lat="47.20595" lon="-1.67964">
        <ele>53</ele>
        <time>2022-04-16T10:21:24Z</time>
      </trkpt>
      <trkpt lat="47.20601" lon="-1.67984">
        <ele>53</ele>
        <time>2022-04-16T10:21:26Z</time>
      </trkpt>
      <trkpt lat="47.20607" lon="-1.68003">
        <ele>53</ele>
        <time>2022-04-16T10:21:28Z</time>
      </trkpt>
      <trkpt lat="47.20613" lon="-1.68022">
        <ele>53</ele>
        <time>2022-04-16T10:21:30Z</time>
      </trkpt>
      <trkpt lat="47.20618" lon="-1.68041">
        <ele>53</ele>
        <time>2022-04-16T10:21:32Z</time>
      </trkpt>
      <trkpt lat="47.20624" lon="-1.68061">
        <ele>53</ele>
        <time>2022-04-16T10:21:34Z</time>
      </trkpt>
      <trkpt lat="47.2063" lon="-1.6808">
        <ele>53</ele>
        <time>2022-04-16T10:21:36Z</time>
      </trkpt>
      <trkpt lat="47.20635" lon="-1.68099">
        <ele>53</ele>
        <time>2022-04-16T10:21:38Z</time>
      </trkpt>
      <trkpt lat="47.20641" lon="-1.68118">
        <ele>53</ele>
        <time>2022-04-16T10:21:40Z</time>
      </trkpt>
      <trkpt lat="47.20646" lon="-1.68137">
        <ele>53</ele>
        <time>2022-04-16T10:21:42Z</time>
      </trkpt>
      <trkpt lat="47.20652" lon="-1.68156">
        <ele>53</ele>
        <time>2022-04-16T10:21:44Z</time>
      </trkpt>
      <trkpt lat="47.20657" lon="-1.68175">
        <ele>53</ele>
        <time>2022-04-16T10:21:46Z</time>
      </trkpt>
      <trkpt lat="47.20663" lon="-1.68194">
        <ele>53</ele>
        <time>2022-04-16T10:21:48Z</time>
      </trkpt>
      <trkpt lat="47.20668" lon="-1.68213">
        <ele>53</ele>
        <time>2022-04-16T10:21:50Z</time>
      </trkpt>
      <trkpt lat="47.20674" lon="-1.68232">
        <ele>53</ele>
        <time>2022-04-16T10:21:52Z</time>
      </trkpt>
      <trkpt lat="47.2068" lon="-1.68251">
        <ele>53</ele>
        <time>2022-04-16T10:21:54Z</time>
      </trkpt>
      <trkpt lat="47.20685" lon="-1.6827">
        <ele>53</ele>
        <time>2022-04-16T10:21:56Z</time>
      </trkpt>
      <trkpt lat="47.20691" lon="-1.68289">
        <ele>53</ele>
        <time>2022-04-16T10:21:58Z</time>
      </trkpt>
      <trkpt lat="47.20697" lon="-1.68307">
        <ele>53</ele>
        <time>2022-04-16T10:22:00Z</time>
      </trkpt>
      <trkpt lat="47.20703" lon="-1.68327">
        <ele>53</ele>
        <time>2022-04-16T10:22:02Z</time>
      </trkpt>
      <trkpt lat="47.20709" lon="-1.68346">
        <ele>54</ele>
        <time>2022-04-16T10:22:04Z</time>
      </trkpt>
      <trkpt lat="47.20716" lon="-1.68362">
        <ele>53</ele>
        <time>2022-04-16T10:22:06Z</time>
      </trkpt>
      <trkpt lat="47.20729" lon="-1.68373">
        <ele>53</ele>
        <time>2022-04-16T10:22:08Z</time>
      </trkpt>
      <trkpt lat="47.20742" lon="-1.68382">
        <ele>53</ele>
        <time>2022-04-16T10:22:10Z</time>
      </trkpt>
      <trkpt lat="47.20756" lon="-1.68385">
        <ele>53</ele>
        <time>2022-04-16T10:22:12Z</time>
      </trkpt>
      <trkpt lat="47.2077" lon="-1.68386">
        <ele>53</ele>
        <time>2022-04-16T10:22:14Z</time>
      </trkpt>
      <trkpt lat="47.20784" lon="-1.68388">
        <ele>53</ele>
        <time>2022-04-16T10:22:16Z</time>
      </trkpt>
      <trkpt lat="47.20798" lon="-1.68389">
        <ele>53</ele>
        <time>2022-04-16T10:22:18Z</time>
      </trkpt>
      <trkpt lat="47.20811" lon="-1.6839">
        <ele>53</ele>
        <time>2022-04-16T10:22:20Z</time>
      </trkpt>
      <trkpt lat="47.20824" lon="-1.68391">
        <ele>53</ele>
        <time>2022-04-16T10:22:22Z</time>
      </trkpt>
      <trkpt lat="47.20836" lon="-1.68392">
        <ele>53</ele>
        <time>2022-04-16T10:22:24Z</time>
      </trkpt>
      <trkpt lat="47.2085" lon="-1.68392">
        <ele>53</ele>
        <time>2022-04-16T10:22:26Z</time>
      </trkpt>
      <trkpt lat="47.20863" lon="-1.68393">
        <ele>53</ele>
        <time>2022-04-16T10:22:28Z</time>
      </trkpt>
      <trkpt lat="47.20876" lon="-1.68393">
        <ele>54</ele>
        <time>2022-04-16T10:22:30Z</time>
      </trkpt>
      <trkpt lat="47.20889" lon="-1.68394">
        <ele>54</ele>
        <time>2022-04-16T10:22:32Z</time>
      </trkpt>
      <trkpt lat="47.20903" lon="-1.68395">
        <ele>54</ele>
        <time>2022-04-16T10:22:34Z</time>
      </trkpt>
      <trkpt lat="47.20916" lon="-1.68395">
        <ele>54</ele>
        <time>2022-04-16T10:22:36Z</time>
      </trkpt>
      <trkpt lat="47.2093" lon="-1.68396">
        <ele>54</ele>
        <time>2022-04-16T10:22:38Z</time>
      </trkpt>
      <trkpt lat="47.20943" lon="-1.68396">
        <ele>54</ele>
        <time>2022-04-16T10:22:40Z</time>
      </trkpt>
      <trkpt lat="47.20956" lon="-1.68397">
        <ele>54</ele>
        <time>2022-04-16T10:22:42Z</time>
      </trkpt>
      <trkpt lat="47.2097" lon="-1.68397">
        <ele>55</ele>
        <time>2022-04-16T10:22:44Z</time>
      </trkpt>
      <trkpt lat="47.20983" lon="-1.68398">
        <ele>55</ele>
        <time>2022-04-16T10:22:46Z</time>
      </trkpt>
      <trkpt lat="47.20997" lon="-1.68399">
        <ele>54</ele>
        <time>2022-04-16T10:22:48Z</time>
      </trkpt>
      <trkpt lat="47.21011" lon="-1.684">
        <ele>54</ele>
        <time>2022-04-16T10:22:50Z</time>
      </trkpt>
      <trkpt lat="47.21025" lon="-1.68401">
        <ele>53</ele>
        <time>2022-04-16T10:22:52Z</time>
      </trkpt>
      <trkpt lat="47.21039" lon="-1.68401">
        <ele>53</ele>
        <time>2022-04-16T10:22:54Z</time>
      </trkpt>
      <trkpt lat="47.21053" lon="-1.68401">
        <ele>53</ele>
        <time>2022-04-16T10:22:56Z</time>
      </trkpt>
      <trkpt lat="47.21066" lon="-1.68401">
        <ele>52</ele>
        <time>2022-04-16T10:22:58Z</time>
      </trkpt>
      <trkpt lat="47.2108" lon="-1.68402">
        <ele>52</ele>
        <time>2022-04-16T10:23:00Z</time>
      </trkpt>
      <trkpt lat="47.21093" lon="-1.68402">
        <ele>52</ele>
        <time>2022-04-16T10:23:02Z</time>
      </trkpt>
      <trkpt lat="47.21107" lon="-1.68403">
        <ele>52</ele>
        <time>2022-04-16T10:23:04Z</time>
      </trkpt>
      <trkpt lat="47.2112" lon="-1.68403">
        <ele>52</ele>
        <time>2022-04-16T10:23:06Z</time>
      </trkpt>
      <trkpt lat="47.21132" lon="-1.68404">
        <ele>52</ele>
        <time>2022-04-16T10:23:08Z</time>
      </trkpt>
      <trkpt lat="47.21145" lon="-1.68404">
        <ele>52</ele>
        <time>2022-04-16T10:23:10Z</time>
      </trkpt>
      <trkpt lat="47.21157" lon="-1.68405">
        <ele>53</ele>
        <time>2022-04-16T10:23:12Z</time>
      </trkpt>
      <trkpt lat="47.21168" lon="-1.68406">
        <ele>54</ele>
        <time>2022-04-16T10:23:14Z</time>
      </trkpt>
      <trkpt lat="47.21179" lon="-1.68403">
        <ele>55</ele>
        <time>2022-04-16T10:23:16Z</time>
      </trkpt>
      <trkpt lat="47.21188" lon="-1.68397">
        <ele>55</ele>
        <time>2022-04-16T10:23:18Z</time>
      </trkpt>
      <trkpt lat="47.21192" lon="-1.68383">
        <ele>55</ele>
        <time>2022-04-16T10:23:20Z</time>
      </trkpt>
      <trkpt lat="47.21191" lon="-1.68368">
        <ele>55</ele>
        <time>2022-04-16T10:23:22Z</time>
      </trkpt>
      <trkpt lat="47.2119" lon="-1.68354">
        <ele>56</ele>
        <time>2022-04-16T10:23:24Z</time>
      </trkpt>
      <trkpt lat="47.21189" lon="-1.6834">
        <ele>56</ele>
        <time>2022-04-16T10:23:26Z</time>
      </trkpt>
      <trkpt lat="47.21188" lon="-1.68326">
        <ele>57</ele>
        <time>2022-04-16T10:23:28Z</time>
      </trkpt>
      <trkpt lat="47.21188" lon="-1.68313">
        <ele>58</ele>
        <time>2022-04-16T10:23:30Z</time>
      </trkpt>
      <trkpt lat="47.21189" lon="-1.68299">
        <ele>59</ele>
        <time>2022-04-16T10:23:32Z</time>
      </trkpt>
      <trkpt lat="47.21195" lon="-1.68288">
        <ele>59</ele>
        <time>2022-04-16T10:23:34Z</time>
      </trkpt>
      <trkpt lat="47.21203" lon="-1.6828">
        <ele>60</ele>
        <time>2022-04-16T10:23:36Z</time>
      </trkpt>
      <trkpt lat="47.21212" lon="-1.68275">
        <ele>61</ele>
        <time>2022-04-16T10:23:38Z</time>
      </trkpt>
      <trkpt lat="47.21222" lon="-1.68274">
        <ele>62</ele>
        <time>2022-04-16T10:23:40Z</time>
      </trkpt>
      <trkpt lat="47.21235" lon="-1.68272">
        <ele>63</ele>
        <time>2022-04-16T10:23:43Z</time>
      </trkpt>
      <trkpt lat="47.21244" lon="-1.68269">
        <ele>64</ele>
        <time>2022-04-16T10:23:45Z</time>
      </trkpt>
      <trkpt lat="47.21253" lon="-1.68268">
        <ele>65</ele>
        <time>2022-04-16T10:23:47Z</time>
      </trkpt>
      <trkpt lat="47.21262" lon="-1.68264">
        <ele>65</ele>
        <time>2022-04-16T10:23:49Z</time>
      </trkpt>
      <trkpt lat="47.21274" lon="-1.68258">
        <ele>66</ele>
        <time>2022-04-16T10:23:52Z</time>
      </trkpt>
      <trkpt lat="47.21287" lon="-1.68253">
        <ele>67</ele>
        <time>2022-04-16T10:23:55Z</time>
      </trkpt>
      <trkpt lat="47.21296" lon="-1.68249">
        <ele>68</ele>
        <time>2022-04-16T10:23:57Z</time>
      </trkpt>
      <trkpt lat="47.21308" lon="-1.68243">
        <ele>69</ele>
        <time>2022-04-16T10:24:00Z</time>
      </trkpt>
      <trkpt lat="47.2132" lon="-1.68238">
        <ele>71</ele>
        <time>2022-04-16T10:24:03Z</time>
      </trkpt>
      <trkpt lat="47.21329" lon="-1.68233">
        <ele>71</ele>
        <time>2022-04-16T10:24:05Z</time>
      </trkpt>
      <trkpt lat="47.21342" lon="-1.68229">
        <ele>72</ele>
        <time>2022-04-16T10:24:08Z</time>
      </trkpt>
      <trkpt lat="47.21356" lon="-1.68226">
        <ele>73</ele>
        <time>2022-04-16T10:24:11Z</time>
      </trkpt>
      <trkpt lat="47.21365" lon="-1.68225">
        <ele>73</ele>
        <time>2022-04-16T10:24:13Z</time>
      </trkpt>
      <trkpt lat="47.21375" lon="-1.68223">
        <ele>73</ele>
        <time>2022-04-16T10:24:15Z</time>
      </trkpt>
      <trkpt lat="47.21384" lon="-1.68222">
        <ele>73</ele>
        <time>2022-04-16T10:24:17Z</time>
      </trkpt>
      <trkpt lat="47.21398" lon="-1.68221">
        <ele>73</ele>
        <time>2022-04-16T10:24:20Z</time>
      </trkpt>
      <trkpt lat="47.21408" lon="-1.6822">
        <ele>74</ele>
        <time>2022-04-16T10:24:22Z</time>
      </trkpt>
      <trkpt lat="47.21418" lon="-1.68219">
        <ele>74</ele>
        <time>2022-04-16T10:24:24Z</time>
      </trkpt>
      <trkpt lat="47.21428" lon="-1.68218">
        <ele>75</ele>
        <time>2022-04-16T10:24:26Z</time>
      </trkpt>
      <trkpt lat="47.21438" lon="-1.68218">
        <ele>75</ele>
        <time>2022-04-16T10:24:28Z</time>
      </trkpt>
      <trkpt lat="47.21448" lon="-1.68215">
        <ele>75</ele>
        <time>2022-04-16T10:24:30Z</time>
      </trkpt>
      <trkpt lat="47.21457" lon="-1.68215">
        <ele>76</ele>
        <time>2022-04-16T10:24:32Z</time>
      </trkpt>
      <trkpt lat="47.21468" lon="-1.68213">
        <ele>76</ele>
        <time>2022-04-16T10:24:34Z</time>
      </trkpt>
      <trkpt lat="47.21478" lon="-1.68211">
        <ele>77</ele>
        <time>2022-04-16T10:24:36Z</time>
      </trkpt>
      <trkpt lat="47.21487" lon="-1.68206">
        <ele>77</ele>
        <time>2022-04-16T10:24:38Z</time>
      </trkpt>
      <trkpt lat="47.21495" lon="-1.68201">
        <ele>76</ele>
        <time>2022-04-16T10:24:40Z</time>
      </trkpt>
      <trkpt lat="47.21508" lon="-1.68193">
        <ele>77</ele>
        <time>2022-04-16T10:24:43Z</time>
      </trkpt>
      <trkpt lat="47.21519" lon="-1.68184">
        <ele>79</ele>
        <time>2022-04-16T10:24:46Z</time>
      </trkpt>
      <trkpt lat="47.21529" lon="-1.68177">
        <ele>79</ele>
        <time>2022-04-16T10:24:49Z</time>
      </trkpt>
      <trkpt lat="47.21541" lon="-1.68171">
        <ele>80</ele>
        <time>2022-04-16T10:24:52Z</time>
      </trkpt>
      <trkpt lat="47.21551" lon="-1.68174">
        <ele>80</ele>
        <time>2022-04-16T10:24:54Z</time>
      </trkpt>
      <trkpt lat="47.21562" lon="-1.68176">
        <ele>80</ele>
        <time>2022-04-16T10:24:56Z</time>
      </trkpt>
      <trkpt lat="47.21572" lon="-1.68177">
        <ele>80</ele>
        <time>2022-04-16T10:24:58Z</time>
      </trkpt>
      <trkpt lat="47.21582" lon="-1.68179">
        <ele>80</ele>
        <time>2022-04-16T10:25:00Z</time>
      </trkpt>
      <trkpt lat="47.21592" lon="-1.68181">
        <ele>80</ele>
        <time>2022-04-16T10:25:02Z</time>
      </trkpt>
      <trkpt lat="47.21602" lon="-1.68184">
        <ele>81</ele>
        <time>2022-04-16T10:25:04Z</time>
      </trkpt>
      <trkpt lat="47.21612" lon="-1.68187">
        <ele>81</ele>
        <time>2022-04-16T10:25:06Z</time>
      </trkpt>
      <trkpt lat="47.21623" lon="-1.68189">
        <ele>81</ele>
        <time>2022-04-16T10:25:08Z</time>
      </trkpt>
      <trkpt lat="47.21633" lon="-1.6819">
        <ele>82</ele>
        <time>2022-04-16T10:25:10Z</time>
      </trkpt>
      <trkpt lat="47.21644" lon="-1.68192">
        <ele>83</ele>
        <time>2022-04-16T10:25:12Z</time>
      </trkpt>
      <trkpt lat="47.21654" lon="-1.68194">
        <ele>83</ele>
        <time>2022-04-16T10:25:14Z</time>
      </trkpt>
      <trkpt lat="47.21666" lon="-1.68197">
        <ele>82</ele>
        <time>2022-04-16T10:25:16Z</time>
      </trkpt>
      <trkpt lat="47.21677" lon="-1.68199">
        <ele>81</ele>
        <time>2022-04-16T10:25:18Z</time>
      </trkpt>
      <trkpt lat="47.21689" lon="-1.68202">
        <ele>81</ele>
        <time>2022-04-16T10:25:20Z</time>
      </trkpt>
      <trkpt lat="47.21701" lon="-1.68205">
        <ele>81</ele>
        <time>2022-04-16T10:25:22Z</time>
      </trkpt>
      <trkpt lat="47.21713" lon="-1.68208">
        <ele>81</ele>
        <time>2022-04-16T10:25:24Z</time>
      </trkpt>
      <trkpt lat="47.21726" lon="-1.6821">
        <ele>81</ele>
        <time>2022-04-16T10:25:26Z</time>
      </trkpt>
      <trkpt lat="47.21738" lon="-1.68213">
        <ele>80</ele>
        <time>2022-04-16T10:25:28Z</time>
      </trkpt>
      <trkpt lat="47.2175" lon="-1.68215">
        <ele>80</ele>
        <time>2022-04-16T10:25:30Z</time>
      </trkpt>
      <trkpt lat="47.21762" lon="-1.68217">
        <ele>80</ele>
        <time>2022-04-16T10:25:32Z</time>
      </trkpt>
      <trkpt lat="47.21775" lon="-1.6822">
        <ele>79</ele>
        <time>2022-04-16T10:25:34Z</time>
      </trkpt>
      <trkpt lat="47.21787" lon="-1.68222">
        <ele>79</ele>
        <time>2022-04-16T10:25:36Z</time>
      </trkpt>
      <trkpt lat="47.218" lon="-1.68223">
        <ele>79</ele>
        <time>2022-04-16T10:25:38Z</time>
      </trkpt>
      <trkpt lat="47.21812" lon="-1.68224">
        <ele>79</ele>
        <time>2022-04-16T10:25:40Z</time>
      </trkpt>
      <trkpt lat="47.21825" lon="-1.68226">
        <ele>79</ele>
        <time>2022-04-16T10:25:42Z</time>
      </trkpt>
      <trkpt lat="47.21838" lon="-1.68228">
        <ele>79</ele>
        <time>2022-04-16T10:25:44Z</time>
      </trkpt>
      <trkpt lat="47.21851" lon="-1.6823">
        <ele>79</ele>
        <time>2022-04-16T10:25:46Z</time>
      </trkpt>
      <trkpt lat="47.21864" lon="-1.68228">
        <ele>79</ele>
        <time>2022-04-16T10:25:48Z</time>
      </trkpt>
      <trkpt lat="47.21878" lon="-1.68225">
        <ele>79</ele>
        <time>2022-04-16T10:25:50Z</time>
      </trkpt>
      <trkpt lat="47.2189" lon="-1.68219">
        <ele>78</ele>
        <time>2022-04-16T10:25:52Z</time>
      </trkpt>
      <trkpt lat="47.21902" lon="-1.68212">
        <ele>78</ele>
        <time>2022-04-16T10:25:54Z</time>
      </trkpt>
      <trkpt lat="47.21913" lon="-1.68204">
        <ele>78</ele>
        <time>2022-04-16T10:25:56Z</time>
      </trkpt>
      <trkpt lat="47.21925" lon="-1.68196">
        <ele>78</ele>
        <time>2022-04-16T10:25:58Z</time>
      </trkpt>
      <trkpt lat="47.21936" lon="-1.68189">
        <ele>78</ele>
        <time>2022-04-16T10:26:00Z</time>
      </trkpt>
      <trkpt lat="47.21947" lon="-1.68182">
        <ele>78</ele>
        <time>2022-04-16T10:26:02Z</time>
      </trkpt>
      <trkpt lat="47.21959" lon="-1.68174">
        <ele>78</ele>
        <time>2022-04-16T10:26:04Z</time>
      </trkpt>
      <trkpt lat="47.21971" lon="-1.68167">
        <ele>77</ele>
        <time>2022-04-16T10:26:06Z</time>
      </trkpt>
      <trkpt lat="47.21982" lon="-1.6816">
        <ele>77</ele>
        <time>2022-04-16T10:26:08Z</time>
      </trkpt>
      <trkpt lat="47.21994" lon="-1.68152">
        <ele>78</ele>
        <time>2022-04-16T10:26:10Z</time>
      </trkpt>
      <trkpt lat="47.22005" lon="-1.68144">
        <ele>78</ele>
        <time>2022-04-16T10:26:12Z</time>
      </trkpt>
      <trkpt lat="47.22015" lon="-1.68135">
        <ele>78</ele>
        <time>2022-04-16T10:26:14Z</time>
      </trkpt>
      <trkpt lat="47.22025" lon="-1.68126">
        <ele>78</ele>
        <time>2022-04-16T10:26:16Z</time>
      </trkpt>
      <trkpt lat="47.22034" lon="-1.68115">
        <ele>78</ele>
        <time>2022-04-16T10:26:18Z</time>
      </trkpt>
      <trkpt lat="47.22043" lon="-1.68104">
        <ele>79</ele>
        <time>2022-04-16T10:26:20Z</time>
      </trkpt>
      <trkpt lat="47.22052" lon="-1.68093">
        <ele>79</ele>
        <time>2022-04-16T10:26:22Z</time>
      </trkpt>
      <trkpt lat="47.22061" lon="-1.68082">
        <ele>79</ele>
        <time>2022-04-16T10:26:24Z</time>
      </trkpt>
      <trkpt lat="47.2207" lon="-1.6807">
        <ele>79</ele>
        <time>2022-04-16T10:26:26Z</time>
      </trkpt>
      <trkpt lat="47.22079" lon="-1.68057">
        <ele>79</ele>
        <time>2022-04-16T10:26:28Z</time>
      </trkpt>
      <trkpt lat="47.22088" lon="-1.68046">
        <ele>79</ele>
        <time>2022-04-16T10:26:30Z</time>
      </trkpt>
      <trkpt lat="47.22097" lon="-1.68034">
        <ele>80</ele>
        <time>2022-04-16T10:26:32Z</time>
      </trkpt>
      <trkpt lat="47.22106" lon="-1.68022">
        <ele>80</ele>
        <time>2022-04-16T10:26:34Z</time>
      </trkpt>
      <trkpt lat="47.22115" lon="-1.6801">
        <ele>80</ele>
        <time>2022-04-16T10:26:36Z</time>
      </trkpt>
      <trkpt lat="47.22124" lon="-1.67999">
        <ele>80</ele>
        <time>2022-04-16T10:26:38Z</time>
      </trkpt>
      <trkpt lat="47.22134" lon="-1.6799">
        <ele>80</ele>
        <time>2022-04-16T10:26:40Z</time>
      </trkpt>
      <trkpt lat="47.22144" lon="-1.67982">
        <ele>80</ele>
        <time>2022-04-16T10:26:42Z</time>
      </trkpt>
      <trkpt lat="47.22154" lon="-1.67974">
        <ele>80</ele>
        <time>2022-04-16T10:26:44Z</time>
      </trkpt>
      <trkpt lat="47.22165" lon="-1.67967">
        <ele>80</ele>
        <time>2022-04-16T10:26:46Z</time>
      </trkpt>
      <trkpt lat="47.22176" lon="-1.67959">
        <ele>80</ele>
        <time>2022-04-16T10:26:48Z</time>
      </trkpt>
      <trkpt lat="47.22186" lon="-1.67952">
        <ele>80</ele>
        <time>2022-04-16T10:26:50Z</time>
      </trkpt>
      <trkpt lat="47.22197" lon="-1.67944">
        <ele>80</ele>
        <time>2022-04-16T10:26:52Z</time>
      </trkpt>
      <trkpt lat="47.22209" lon="-1.67937">
        <ele>80</ele>
        <time>2022-04-16T10:26:54Z</time>
      </trkpt>
      <trkpt lat="47.22221" lon="-1.67929">
        <ele>79</ele>
        <time>2022-04-16T10:26:56Z</time>
      </trkpt>
      <trkpt lat="47.22233" lon="-1.67921">
        <ele>79</ele>
        <time>2022-04-16T10:26:58Z</time>
      </trkpt>
      <trkpt lat="47.22244" lon="-1.67913">
        <ele>79</ele>
        <time>2022-04-16T10:27:00Z</time>
      </trkpt>
      <trkpt lat="47.22256" lon="-1.67905">
        <ele>79</ele>
        <time>2022-04-16T10:27:02Z</time>
      </trkpt>
      <trkpt lat="47.22268" lon="-1.67896">
        <ele>79</ele>
        <time>2022-04-16T10:27:04Z</time>
      </trkpt>
      <trkpt lat="47.2228" lon="-1.67889">
        <ele>78</ele>
        <time>2022-04-16T10:27:06Z</time>
      </trkpt>
      <trkpt lat="47.22292" lon="-1.67881">
        <ele>78</ele>
        <time>2022-04-16T10:27:08Z</time>
      </trkpt>
      <trkpt lat="47.22303" lon="-1.67873">
        <ele>78</ele>
        <time>2022-04-16T10:27:10Z</time>
      </trkpt>
      <trkpt lat="47.22315" lon="-1.67865">
        <ele>79</ele>
        <time>2022-04-16T10:27:12Z</time>
      </trkpt>
      <trkpt lat="47.22327" lon="-1.67858">
        <ele>79</ele>
        <time>2022-04-16T10:27:14Z</time>
      </trkpt>
      <trkpt lat="47.22338" lon="-1.6785">
        <ele>79</ele>
        <time>2022-04-16T10:27:16Z</time>
      </trkpt>
      <trkpt lat="47.2235" lon="-1.67844">
        <ele>79</ele>
        <time>2022-04-16T10:27:18Z</time>
      </trkpt>
      <trkpt lat="47.22361" lon="-1.67839">
        <ele>79</ele>
        <time>2022-04-16T10:27:20Z</time>
      </trkpt>
      <trkpt lat="47.22374" lon="-1.67834">
        <ele>79</ele>
        <time>2022-04-16T10:27:22Z</time>
      </trkpt>
      <trkpt lat="47.22385" lon="-1.6783">
        <ele>80</ele>
        <time>2022-04-16T10:27:24Z</time>
      </trkpt>
      <trkpt lat="47.22396" lon="-1.67827">
        <ele>80</ele>
        <time>2022-04-16T10:27:26Z</time>
      </trkpt>
      <trkpt lat="47.22407" lon="-1.67825">
        <ele>80</ele>
        <time>2022-04-16T10:27:28Z</time>
      </trkpt>
      <trkpt lat="47.22418" lon="-1.67823">
        <ele>80</ele>
        <time>2022-04-16T10:27:30Z</time>
      </trkpt>
      <trkpt lat="47.22429" lon="-1.67821">
        <ele>81</ele>
        <time>2022-04-16T10:27:32Z</time>
      </trkpt>
      <trkpt lat="47.22439" lon="-1.67821">
        <ele>81</ele>
        <time>2022-04-16T10:27:34Z</time>
      </trkpt>
      <trkpt lat="47.2245" lon="-1.67821">
        <ele>81</ele>
        <time>2022-04-16T10:27:36Z</time>
      </trkpt>
      <trkpt lat="47.22459" lon="-1.67821">
        <ele>81</ele>
        <time>2022-04-16T10:27:38Z</time>
      </trkpt>
      <trkpt lat="47.2247" lon="-1.67822">
        <ele>81</ele>
        <time>2022-04-16T10:27:40Z</time>
      </trkpt>
      <trkpt lat="47.22479" lon="-1.67823">
        <ele>81</ele>
        <time>2022-04-16T10:27:42Z</time>
      </trkpt>
      <trkpt lat="47.22489" lon="-1.67824">
        <ele>82</ele>
        <time>2022-04-16T10:27:44Z</time>
      </trkpt>
      <trkpt lat="47.22499" lon="-1.67826">
        <ele>82</ele>
        <time>2022-04-16T10:27:46Z</time>
      </trkpt>
      <trkpt lat="47.22508" lon="-1.67828">
        <ele>82</ele>
        <time>2022-04-16T10:27:48Z</time>
      </trkpt>
      <trkpt lat="47.22519" lon="-1.67829">
        <ele>83</ele>
        <time>2022-04-16T10:27:50Z</time>
      </trkpt>
      <trkpt lat="47.22529" lon="-1.67831">
        <ele>83</ele>
        <time>2022-04-16T10:27:52Z</time>
      </trkpt>
      <trkpt lat="47.2254" lon="-1.67832">
        <ele>83</ele>
        <time>2022-04-16T10:27:54Z</time>
      </trkpt>
      <trkpt lat="47.2255" lon="-1.67833">
        <ele>84</ele>
        <time>2022-04-16T10:27:56Z</time>
      </trkpt>
      <trkpt lat="47.2256" lon="-1.67835">
        <ele>84</ele>
        <time>2022-04-16T10:27:58Z</time>
      </trkpt>
      <trkpt lat="47.2257" lon="-1.67835">
        <ele>85</ele>
        <time>2022-04-16T10:28:00Z</time>
      </trkpt>
      <trkpt lat="47.22578" lon="-1.67828">
        <ele>85</ele>
        <time>2022-04-16T10:28:02Z</time>
      </trkpt>
      <trkpt lat="47.22588" lon="-1.67825">
        <ele>85</ele>
        <time>2022-04-16T10:28:04Z</time>
      </trkpt>
      <trkpt lat="47.22598" lon="-1.67828">
        <ele>85</ele>
        <time>2022-04-16T10:28:06Z</time>
      </trkpt>
      <trkpt lat="47.22607" lon="-1.67833">
        <ele>85</ele>
        <time>2022-04-16T10:28:08Z</time>
      </trkpt>
      <trkpt lat="47.22617" lon="-1.67834">
        <ele>85</ele>
        <time>2022-04-16T10:28:10Z</time>
      </trkpt>
      <trkpt lat="47.22626" lon="-1.67832">
        <ele>86</ele>
        <time>2022-04-16T10:28:12Z</time>
      </trkpt>
      <trkpt lat="47.22636" lon="-1.67831">
        <ele>87</ele>
        <time>2022-04-16T10:28:14Z</time>
      </trkpt>
      <trkpt lat="47.22645" lon="-1.67829">
        <ele>87</ele>
        <time>2022-04-16T10:28:16Z</time>
      </trkpt>
      <trkpt lat="47.22655" lon="-1.67827">
        <ele>88</ele>
        <time>2022-04-16T10:28:18Z</time>
      </trkpt>
      <trkpt lat="47.22664" lon="-1.67825">
        <ele>89</ele>
        <time>2022-04-16T10:28:20Z</time>
      </trkpt>
      <trkpt lat="47.22673" lon="-1.67823">
        <ele>89</ele>
        <time>2022-04-16T10:28:22Z</time>
      </trkpt>
      <trkpt lat="47.22683" lon="-1.67821">
        <ele>89</ele>
        <time>2022-04-16T10:28:24Z</time>
      </trkpt>
      <trkpt lat="47.22692" lon="-1.67819">
        <ele>89</ele>
        <time>2022-04-16T10:28:26Z</time>
      </trkpt>
      <trkpt lat="47.22701" lon="-1.67817">
        <ele>89</ele>
        <time>2022-04-16T10:28:28Z</time>
      </trkpt>
      <trkpt lat="47.22711" lon="-1.67815">
        <ele>89</ele>
        <time>2022-04-16T10:28:30Z</time>
      </trkpt>
      <trkpt lat="47.2272" lon="-1.67814">
        <ele>89</ele>
        <time>2022-04-16T10:28:32Z</time>
      </trkpt>
      <trkpt lat="47.2273" lon="-1.67811">
        <ele>89</ele>
        <time>2022-04-16T10:28:34Z</time>
      </trkpt>
      <trkpt lat="47.2274" lon="-1.67809">
        <ele>90</ele>
        <time>2022-04-16T10:28:36Z</time>
      </trkpt>
      <trkpt lat="47.22749" lon="-1.67806">
        <ele>90</ele>
        <time>2022-04-16T10:28:38Z</time>
      </trkpt>
      <trkpt lat="47.22758" lon="-1.67803">
        <ele>90</ele>
        <time>2022-04-16T10:28:40Z</time>
      </trkpt>
      <trkpt lat="47.22767" lon="-1.678">
        <ele>91</ele>
        <time>2022-04-16T10:28:42Z</time>
      </trkpt>
      <trkpt lat="47.22777" lon="-1.67796">
        <ele>91</ele>
        <time>2022-04-16T10:28:44Z</time>
      </trkpt>
      <trkpt lat="47.22786" lon="-1.67792">
        <ele>91</ele>
        <time>2022-04-16T10:28:46Z</time>
      </trkpt>
      <trkpt lat="47.22796" lon="-1.67788">
        <ele>92</ele>
        <time>2022-04-16T10:28:48Z</time>
      </trkpt>
      <trkpt lat="47.22805" lon="-1.67784">
        <ele>92</ele>
        <time>2022-04-16T10:28:50Z</time>
      </trkpt>
      <trkpt lat="47.22815" lon="-1.6778">
        <ele>92</ele>
        <time>2022-04-16T10:28:52Z</time>
      </trkpt>
      <trkpt lat="47.22824" lon="-1.67775">
        <ele>92</ele>
        <time>2022-04-16T10:28:54Z</time>
      </trkpt>
      <trkpt lat="47.22834" lon="-1.6777">
        <ele>92</ele>
        <time>2022-04-16T10:28:56Z</time>
      </trkpt>
      <trkpt lat="47.22843" lon="-1.67766">
        <ele>93</ele>
        <time>2022-04-16T10:28:58Z</time>
      </trkpt>
      <trkpt lat="47.22852" lon="-1.67761">
        <ele>93</ele>
        <time>2022-04-16T10:29:00Z</time>
      </trkpt>
      <trkpt lat="47.22862" lon="-1.67756">
        <ele>93</ele>
        <time>2022-04-16T10:29:02Z</time>
      </trkpt>
      <trkpt lat="47.22871" lon="-1.67749">
        <ele>93</ele>
        <time>2022-04-16T10:29:04Z</time>
      </trkpt>
      <trkpt lat="47.2288" lon="-1.67743">
        <ele>94</ele>
        <time>2022-04-16T10:29:06Z</time>
      </trkpt>
      <trkpt lat="47.2289" lon="-1.67739">
        <ele>94</ele>
        <time>2022-04-16T10:29:08Z</time>
      </trkpt>
      <trkpt lat="47.22899" lon="-1.67733">
        <ele>95</ele>
        <time>2022-04-16T10:29:10Z</time>
      </trkpt>
      <trkpt lat="47.22908" lon="-1.67727">
        <ele>95</ele>
        <time>2022-04-16T10:29:12Z</time>
      </trkpt>
      <trkpt lat="47.22917" lon="-1.67721">
        <ele>96</ele>
        <time>2022-04-16T10:29:14Z</time>
      </trkpt>
      <trkpt lat="47.22926" lon="-1.67715">
        <ele>96</ele>
        <time>2022-04-16T10:29:16Z</time>
      </trkpt>
      <trkpt lat="47.22936" lon="-1.67709">
        <ele>97</ele>
        <time>2022-04-16T10:29:18Z</time>
      </trkpt>
      <trkpt lat="47.22945" lon="-1.67702">
        <ele>97</ele>
        <time>2022-04-16T10:29:20Z</time>
      </trkpt>
      <trkpt lat="47.22954" lon="-1.67696">
        <ele>98</ele>
        <time>2022-04-16T10:29:22Z</time>
      </trkpt>
      <trkpt lat="47.22964" lon="-1.67689">
        <ele>99</ele>
        <time>2022-04-16T10:29:24Z</time>
      </trkpt>
      <trkpt lat="47.22973" lon="-1.67683">
        <ele>99</ele>
        <time>2022-04-16T10:29:26Z</time>
      </trkpt>
      <trkpt lat="47.22982" lon="-1.67676">
        <ele>99</ele>
        <time>2022-04-16T10:29:28Z</time>
      </trkpt>
      <trkpt lat="47.22991" lon="-1.6767">
        <ele>99</ele>
        <time>2022-04-16T10:29:30Z</time>
      </trkpt>
      <trkpt lat="47.23" lon="-1.67663">
        <ele>99</ele>
        <time>2022-04-16T10:29:32Z</time>
      </trkpt>
      <trkpt lat="47.23009" lon="-1.67657">
        <ele>98</ele>
        <time>2022-04-16T10:29:34Z</time>
      </trkpt>
      <trkpt lat="47.23018" lon="-1.6765">
        <ele>99</ele>
        <time>2022-04-16T10:29:36Z</time>
      </trkpt>
      <trkpt lat="47.23027" lon="-1.67641">
        <ele>99</ele>
        <time>2022-04-16T10:29:38Z</time>
      </trkpt>
      <trkpt lat="47.23035" lon="-1.67632">
        <ele>99</ele>
        <time>2022-04-16T10:29:40Z</time>
      </trkpt>
      <trkpt lat="47.23042" lon="-1.67621">
        <ele>99</ele>
        <time>2022-04-16T10:29:42Z</time>
      </trkpt>
      <trkpt lat="47.23049" lon="-1.6761">
        <ele>98</ele>
        <time>2022-04-16T10:29:44Z</time>
      </trkpt>
      <trkpt lat="47.23056" lon="-1.67599">
        <ele>98</ele>
        <time>2022-04-16T10:29:46Z</time>
      </trkpt>
      <trkpt lat="47.23064" lon="-1.67588">
        <ele>98</ele>
        <time>2022-04-16T10:29:48Z</time>
      </trkpt>
      <trkpt lat="47.23071" lon="-1.67576">
        <ele>97</ele>
        <time>2022-04-16T10:29:50Z</time>
      </trkpt>
      <trkpt lat="47.23079" lon="-1.67564">
        <ele>97</ele>
        <time>2022-04-16T10:29:52Z</time>
      </trkpt>
      <trkpt lat="47.23088" lon="-1.67554">
        <ele>97</ele>
        <time>2022-04-16T10:29:54Z</time>
      </trkpt>
      <trkpt lat="47.23097" lon="-1.67544">
        <ele>97</ele>
        <time>2022-04-16T10:29:56Z</time>
      </trkpt>
      <trkpt lat="47.23105" lon="-1.67534">
        <ele>96</ele>
        <time>2022-04-16T10:29:58Z</time>
      </trkpt>
      <trkpt lat="47.23118" lon="-1.6752">
        <ele>96</ele>
        <time>2022-04-16T10:30:01Z</time>
      </trkpt>
      <trkpt lat="47.23127" lon="-1.67511">
        <ele>96</ele>
        <time>2022-04-16T10:30:03Z</time>
      </trkpt>
      <trkpt lat="47.23135" lon="-1.67501">
        <ele>96</ele>
        <time>2022-04-16T10:30:05Z</time>
      </trkpt>
      <trkpt lat="47.23143" lon="-1.67493">
        <ele>96</ele>
        <time>2022-04-16T10:30:07Z</time>
      </trkpt>
      <trkpt lat="47.23152" lon="-1.67483">
        <ele>96</ele>
        <time>2022-04-16T10:30:09Z</time>
      </trkpt>
      <trkpt lat="47.2316" lon="-1.67475">
        <ele>97</ele>
        <time>2022-04-16T10:30:11Z</time>
      </trkpt>
      <trkpt lat="47.23168" lon="-1.67465">
        <ele>97</ele>
        <time>2022-04-16T10:30:13Z</time>
      </trkpt>
      <trkpt lat="47.2318" lon="-1.67451">
        <ele>98</ele>
        <time>2022-04-16T10:30:16Z</time>
      </trkpt>
      <trkpt lat="47.23192" lon="-1.67438">
        <ele>99</ele>
        <time>2022-04-16T10:30:19Z</time>
      </trkpt>
      <trkpt lat="47.23201" lon="-1.67429">
        <ele>100</ele>
        <time>2022-04-16T10:30:21Z</time>
      </trkpt>
      <trkpt lat="47.23209" lon="-1.6742">
        <ele>100</ele>
        <time>2022-04-16T10:30:23Z</time>
      </trkpt>
      <trkpt lat="47.23217" lon="-1.67412">
        <ele>101</ele>
        <time>2022-04-16T10:30:25Z</time>
      </trkpt>
      <trkpt lat="47.23225" lon="-1.67404">
        <ele>102</ele>
        <time>2022-04-16T10:30:27Z</time>
      </trkpt>
      <trkpt lat="47.23232" lon="-1.67397">
        <ele>102</ele>
        <time>2022-04-16T10:30:29Z</time>
      </trkpt>
      <trkpt lat="47.23243" lon="-1.67388">
        <ele>104</ele>
        <time>2022-04-16T10:30:32Z</time>
      </trkpt>
      <trkpt lat="47.23252" lon="-1.67381">
        <ele>104</ele>
        <time>2022-04-16T10:30:34Z</time>
      </trkpt>
      <trkpt lat="47.23261" lon="-1.67375">
        <ele>104</ele>
        <time>2022-04-16T10:30:36Z</time>
      </trkpt>
      <trkpt lat="47.23269" lon="-1.67369">
        <ele>105</ele>
        <time>2022-04-16T10:30:38Z</time>
      </trkpt>
      <trkpt lat="47.23278" lon="-1.67362">
        <ele>106</ele>
        <time>2022-04-16T10:30:40Z</time>
      </trkpt>
      <trkpt lat="47.23286" lon="-1.67357">
        <ele>106</ele>
        <time>2022-04-16T10:30:42Z</time>
      </trkpt>
      <trkpt lat="47.23299" lon="-1.67349">
        <ele>107</ele>
        <time>2022-04-16T10:30:45Z</time>
      </trkpt>
      <trkpt lat="47.23307" lon="-1.67343">
        <ele>107</ele>
        <time>2022-04-16T10:30:47Z</time>
      </trkpt>
      <trkpt lat="47.23319" lon="-1.67334">
        <ele>107</ele>
        <time>2022-04-16T10:30:50Z</time>
      </trkpt>
      <trkpt lat="47.23327" lon="-1.67329">
        <ele>108</ele>
        <time>2022-04-16T10:30:52Z</time>
      </trkpt>
      <trkpt lat="47.23336" lon="-1.67322">
        <ele>108</ele>
        <time>2022-04-16T10:30:54Z</time>
      </trkpt>
      <trkpt lat="47.23345" lon="-1.67317">
        <ele>109</ele>
        <time>2022-04-16T10:30:56Z</time>
      </trkpt>
      <trkpt lat="47.23353" lon="-1.67311">
        <ele>109</ele>
        <time>2022-04-16T10:30:58Z</time>
      </trkpt>
      <trkpt lat="47.23362" lon="-1.67305">
        <ele>109</ele>
        <time>2022-04-16T10:31:00Z</time>
      </trkpt>
      <trkpt lat="47.23371" lon="-1.67299">
        <ele>109</ele>
        <time>2022-04-16T10:31:02Z</time>
      </trkpt>
      <trkpt lat="47.2338" lon="-1.67293">
        <ele>109</ele>
        <time>2022-04-16T10:31:04Z</time>
      </trkpt>
      <trkpt lat="47.23388" lon="-1.67287">
        <ele>109</ele>
        <time>2022-04-16T10:31:06Z</time>
      </trkpt>
      <trkpt lat="47.23397" lon="-1.67282">
        <ele>109</ele>
        <time>2022-04-16T10:31:08Z</time>
      </trkpt>
      <trkpt lat="47.23406" lon="-1.67276">
        <ele>109</ele>
        <time>2022-04-16T10:31:10Z</time>
      </trkpt>
      <trkpt lat="47.23415" lon="-1.6727">
        <ele>109</ele>
        <time>2022-04-16T10:31:12Z</time>
      </trkpt>
      <trkpt lat="47.23424" lon="-1.67264">
        <ele>109</ele>
        <time>2022-04-16T10:31:14Z</time>
      </trkpt>
      <trkpt lat="47.23433" lon="-1.67258">
        <ele>109</ele>
        <time>2022-04-16T10:31:16Z</time>
      </trkpt>
      <trkpt lat="47.23441" lon="-1.67252">
        <ele>109</ele>
        <time>2022-04-16T10:31:18Z</time>
      </trkpt>
      <trkpt lat="47.2345" lon="-1.67246">
        <ele>109</ele>
        <time>2022-04-16T10:31:20Z</time>
      </trkpt>
      <trkpt lat="47.23459" lon="-1.6724">
        <ele>109</ele>
        <time>2022-04-16T10:31:22Z</time>
      </trkpt>
      <trkpt lat="47.23467" lon="-1.67233">
        <ele>108</ele>
        <time>2022-04-16T10:31:24Z</time>
      </trkpt>
      <trkpt lat="47.23476" lon="-1.67228">
        <ele>108</ele>
        <time>2022-04-16T10:31:26Z</time>
      </trkpt>
      <trkpt lat="47.23485" lon="-1.67221">
        <ele>109</ele>
        <time>2022-04-16T10:31:28Z</time>
      </trkpt>
      <trkpt lat="47.23493" lon="-1.67214">
        <ele>109</ele>
        <time>2022-04-16T10:31:30Z</time>
      </trkpt>
      <trkpt lat="47.23502" lon="-1.67207">
        <ele>110</ele>
        <time>2022-04-16T10:31:32Z</time>
      </trkpt>
      <trkpt lat="47.23512" lon="-1.67201">
        <ele>110</ele>
        <time>2022-04-16T10:31:34Z</time>
      </trkpt>
      <trkpt lat="47.23523" lon="-1.67196">
        <ele>110</ele>
        <time>2022-04-16T10:31:36Z</time>
      </trkpt>
      <trkpt lat="47.23534" lon="-1.67191">
        <ele>110</ele>
        <time>2022-04-16T10:31:38Z</time>
      </trkpt>
      <trkpt lat="47.23545" lon="-1.67187">
        <ele>110</ele>
        <time>2022-04-16T10:31:40Z</time>
      </trkpt>
      <trkpt lat="47.23556" lon="-1.67184">
        <ele>110</ele>
        <time>2022-04-16T10:31:42Z</time>
      </trkpt>
      <trkpt lat="47.23568" lon="-1.67182">
        <ele>110</ele>
        <time>2022-04-16T10:31:44Z</time>
      </trkpt>
      <trkpt lat="47.2358" lon="-1.6718">
        <ele>109</ele>
        <time>2022-04-16T10:31:46Z</time>
      </trkpt>
      <trkpt lat="47.23592" lon="-1.67178">
        <ele>109</ele>
        <time>2022-04-16T10:31:48Z</time>
      </trkpt>
      <trkpt lat="47.23604" lon="-1.67176">
        <ele>109</ele>
        <time>2022-04-16T10:31:50Z</time>
      </trkpt>
      <trkpt lat="47.23615" lon="-1.67175">
        <ele>109</ele>
        <time>2022-04-16T10:31:52Z</time>
      </trkpt>
      <trkpt lat="47.23625" lon="-1.6717">
        <ele>110</ele>
        <time>2022-04-16T10:31:54Z</time>
      </trkpt>
      <trkpt lat="47.23634" lon="-1.6716">
        <ele>110</ele>
        <time>2022-04-16T10:31:56Z</time>
      </trkpt>
      <trkpt lat="47.23644" lon="-1.67156">
        <ele>109</ele>
        <time>2022-04-16T10:31:58Z</time>
      </trkpt>
      <trkpt lat="47.23656" lon="-1.67161">
        <ele>108</ele>
        <time>2022-04-16T10:32:00Z</time>
      </trkpt>
      <trkpt lat="47.23665" lon="-1.6717">
        <ele>108</ele>
        <time>2022-04-16T10:32:02Z</time>
      </trkpt>
      <trkpt lat="47.23677" lon="-1.6717">
        <ele>109</ele>
        <time>2022-04-16T10:32:04Z</time>
      </trkpt>
      <trkpt lat="47.23689" lon="-1.67168">
        <ele>109</ele>
        <time>2022-04-16T10:32:06Z</time>
      </trkpt>
      <trkpt lat="47.237" lon="-1.67166">
        <ele>109</ele>
        <time>2022-04-16T10:32:08Z</time>
      </trkpt>
      <trkpt lat="47.23712" lon="-1.67163">
        <ele>108</ele>
        <time>2022-04-16T10:32:10Z</time>
      </trkpt>
      <trkpt lat="47.23724" lon="-1.67161">
        <ele>108</ele>
        <time>2022-04-16T10:32:12Z</time>
      </trkpt>
      <trkpt lat="47.23735" lon="-1.67157">
        <ele>108</ele>
        <time>2022-04-16T10:32:14Z</time>
      </trkpt>
      <trkpt lat="47.23747" lon="-1.67152">
        <ele>108</ele>
        <time>2022-04-16T10:32:16Z</time>
      </trkpt>
      <trkpt lat="47.23759" lon="-1.67148">
        <ele>109</ele>
        <time>2022-04-16T10:32:18Z</time>
      </trkpt>
      <trkpt lat="47.2377" lon="-1.67144">
        <ele>109</ele>
        <time>2022-04-16T10:32:20Z</time>
      </trkpt>
      <trkpt lat="47.23782" lon="-1.6714">
        <ele>109</ele>
        <time>2022-04-16T10:32:22Z</time>
      </trkpt>
      <trkpt lat="47.23792" lon="-1.67136">
        <ele>110</ele>
        <time>2022-04-16T10:32:24Z</time>
      </trkpt>
      <trkpt lat="47.23803" lon="-1.67133">
        <ele>110</ele>
        <time>2022-04-16T10:32:26Z</time>
      </trkpt>
      <trkpt lat="47.23814" lon="-1.6713">
        <ele>110</ele>
        <time>2022-04-16T10:32:28Z</time>
      </trkpt>
      <trkpt lat="47.23825" lon="-1.6713">
        <ele>111</ele>
        <time>2022-04-16T10:32:30Z</time>
      </trkpt>
      <trkpt lat="47.23836" lon="-1.6713">
        <ele>111</ele>
        <time>2022-04-16T10:32:32Z</time>
      </trkpt>
      <trkpt lat="47.23847" lon="-1.6713">
        <ele>111</ele>
        <time>2022-04-16T10:32:34Z</time>
      </trkpt>
      <trkpt lat="47.23858" lon="-1.67132">
        <ele>111</ele>
        <time>2022-04-16T10:32:36Z</time>
      </trkpt>
      <trkpt lat="47.23869" lon="-1.67135">
        <ele>112</ele>
        <time>2022-04-16T10:32:38Z</time>
      </trkpt>
      <trkpt lat="47.23879" lon="-1.6714">
        <ele>113</ele>
        <time>2022-04-16T10:32:40Z</time>
      </trkpt>
      <trkpt lat="47.2389" lon="-1.67146">
        <ele>113</ele>
        <time>2022-04-16T10:32:42Z</time>
      </trkpt>
      <trkpt lat="47.23901" lon="-1.67152">
        <ele>113</ele>
        <time>2022-04-16T10:32:44Z</time>
      </trkpt>
      <trkpt lat="47.23911" lon="-1.67158">
        <ele>113</ele>
        <time>2022-04-16T10:32:46Z</time>
      </trkpt>
      <trkpt lat="47.23922" lon="-1.67164">
        <ele>113</ele>
        <time>2022-04-16T10:32:48Z</time>
      </trkpt>
      <trkpt lat="47.23932" lon="-1.67171">
        <ele>113</ele>
        <time>2022-04-16T10:32:50Z</time>
      </trkpt>
      <trkpt lat="47.23941" lon="-1.6718">
        <ele>113</ele>
        <time>2022-04-16T10:32:52Z</time>
      </trkpt>
      <trkpt lat="47.2395" lon="-1.67189">
        <ele>113</ele>
        <time>2022-04-16T10:32:54Z</time>
      </trkpt>
      <trkpt lat="47.23958" lon="-1.672">
        <ele>113</ele>
        <time>2022-04-16T10:32:56Z</time>
      </trkpt>
      <trkpt lat="47.23965" lon="-1.67213">
        <ele>113</ele>
        <time>2022-04-16T10:32:58Z</time>
      </trkpt>
      <trkpt lat="47.23973" lon="-1.67225">
        <ele>114</ele>
        <time>2022-04-16T10:33:00Z</time>
      </trkpt>
      <trkpt lat="47.23981" lon="-1.67237">
        <ele>114</ele>
        <time>2022-04-16T10:33:02Z</time>
      </trkpt>
      <trkpt lat="47.2399" lon="-1.67247">
        <ele>113</ele>
        <time>2022-04-16T10:33:04Z</time>
      </trkpt>
      <trkpt lat="47.24" lon="-1.67257">
        <ele>112</ele>
        <time>2022-04-16T10:33:06Z</time>
      </trkpt>
      <trkpt lat="47.24012" lon="-1.67265">
        <ele>111</ele>
        <time>2022-04-16T10:33:08Z</time>
      </trkpt>
      <trkpt lat="47.24024" lon="-1.67274">
        <ele>111</ele>
        <time>2022-04-16T10:33:10Z</time>
      </trkpt>
      <trkpt lat="47.24036" lon="-1.6728">
        <ele>111</ele>
        <time>2022-04-16T10:33:12Z</time>
      </trkpt>
      <trkpt lat="47.24051" lon="-1.67283">
        <ele>110</ele>
        <time>2022-04-16T10:33:14Z</time>
      </trkpt>
      <trkpt lat="47.24066" lon="-1.67285">
        <ele>109</ele>
        <time>2022-04-16T10:33:16Z</time>
      </trkpt>
      <trkpt lat="47.24082" lon="-1.67287">
        <ele>108</ele>
        <time>2022-04-16T10:33:18Z</time>
      </trkpt>
      <trkpt lat="47.24099" lon="-1.67288">
        <ele>107</ele>
        <time>2022-04-16T10:33:20Z</time>
      </trkpt>
      <trkpt lat="47.24115" lon="-1.67291">
        <ele>107</ele>
        <time>2022-04-16T10:33:22Z</time>
      </trkpt>
      <trkpt lat="47.24132" lon="-1.67293">
        <ele>106</ele>
        <time>2022-04-16T10:33:24Z</time>
      </trkpt>
      <trkpt lat="47.24148" lon="-1.67292">
        <ele>105</ele>
        <time>2022-04-16T10:33:26Z</time>
      </trkpt>
      <trkpt lat="47.24161" lon="-1.6729">
        <ele>106</ele>
        <time>2022-04-16T10:33:28Z</time>
      </trkpt>
      <trkpt lat="47.24174" lon="-1.67285">
        <ele>105</ele>
        <time>2022-04-16T10:33:30Z</time>
      </trkpt>
      <trkpt lat="47.24187" lon="-1.6728">
        <ele>105</ele>
        <time>2022-04-16T10:33:32Z</time>
      </trkpt>
      <trkpt lat="47.242" lon="-1.67275">
        <ele>104</ele>
        <time>2022-04-16T10:33:34Z</time>
      </trkpt>
      <trkpt lat="47.24212" lon="-1.67269">
        <ele>104</ele>
        <time>2022-04-16T10:33:36Z</time>
      </trkpt>
      <trkpt lat="47.24222" lon="-1.67258">
        <ele>104</ele>
        <time>2022-04-16T10:33:38Z</time>
      </trkpt>
      <trkpt lat="47.24226" lon="-1.6724">
        <ele>104</ele>
        <time>2022-04-16T10:33:40Z</time>
      </trkpt>
      <trkpt lat="47.24225" lon="-1.67222">
        <ele>104</ele>
        <time>2022-04-16T10:33:42Z</time>
      </trkpt>
      <trkpt lat="47.24227" lon="-1.67206">
        <ele>104</ele>
        <time>2022-04-16T10:33:44Z</time>
      </trkpt>
      <trkpt lat="47.24233" lon="-1.67193">
        <ele>104</ele>
        <time>2022-04-16T10:33:46Z</time>
      </trkpt>
      <trkpt lat="47.24243" lon="-1.67184">
        <ele>104</ele>
        <time>2022-04-16T10:33:48Z</time>
      </trkpt>
      <trkpt lat="47.24245" lon="-1.67169">
        <ele>104</ele>
        <time>2022-04-16T10:33:50Z</time>
      </trkpt>
      <trkpt lat="47.24244" lon="-1.67152">
        <ele>103</ele>
        <time>2022-04-16T10:33:52Z</time>
      </trkpt>
      <trkpt lat="47.24243" lon="-1.67135">
        <ele>103</ele>
        <time>2022-04-16T10:33:54Z</time>
      </trkpt>
      <trkpt lat="47.24241" lon="-1.67119">
        <ele>103</ele>
        <time>2022-04-16T10:33:56Z</time>
      </trkpt>
      <trkpt lat="47.2424" lon="-1.67103">
        <ele>104</ele>
        <time>2022-04-16T10:33:58Z</time>
      </trkpt>
      <trkpt lat="47.2424" lon="-1.67087">
        <ele>104</ele>
        <time>2022-04-16T10:34:00Z</time>
      </trkpt>
      <trkpt lat="47.2424" lon="-1.67071">
        <ele>105</ele>
        <time>2022-04-16T10:34:02Z</time>
      </trkpt>
      <trkpt lat="47.24241" lon="-1.67055">
        <ele>105</ele>
        <time>2022-04-16T10:34:04Z</time>
      </trkpt>
      <trkpt lat="47.24243" lon="-1.67038">
        <ele>106</ele>
        <time>2022-04-16T10:34:06Z</time>
      </trkpt>
      <trkpt lat="47.24245" lon="-1.67022">
        <ele>106</ele>
        <time>2022-04-16T10:34:08Z</time>
      </trkpt>
      <trkpt lat="47.24248" lon="-1.67006">
        <ele>106</ele>
        <time>2022-04-16T10:34:10Z</time>
      </trkpt>
      <trkpt lat="47.2425" lon="-1.66991">
        <ele>106</ele>
        <time>2022-04-16T10:34:12Z</time>
      </trkpt>
      <trkpt lat="47.24254" lon="-1.66976">
        <ele>106</ele>
        <time>2022-04-16T10:34:14Z</time>
      </trkpt>
      <trkpt lat="47.24257" lon="-1.66961">
        <ele>106</ele>
        <time>2022-04-16T10:34:16Z</time>
      </trkpt>
      <trkpt lat="47.2426" lon="-1.66947">
        <ele>106</ele>
        <time>2022-04-16T10:34:18Z</time>
      </trkpt>
      <trkpt lat="47.24263" lon="-1.66931">
        <ele>106</ele>
        <time>2022-04-16T10:34:20Z</time>
      </trkpt>
      <trkpt lat="47.24266" lon="-1.66915">
        <ele>105</ele>
        <time>2022-04-16T10:34:22Z</time>
      </trkpt>
      <trkpt lat="47.24269" lon="-1.66898">
        <ele>105</ele>
        <time>2022-04-16T10:34:24Z</time>
      </trkpt>
      <trkpt lat="47.24272" lon="-1.66882">
        <ele>106</ele>
        <time>2022-04-16T10:34:26Z</time>
      </trkpt>
      <trkpt lat="47.24276" lon="-1.66866">
        <ele>105</ele>
        <time>2022-04-16T10:34:28Z</time>
      </trkpt>
      <trkpt lat="47.24282" lon="-1.66852">
        <ele>105</ele>
        <time>2022-04-16T10:34:30Z</time>
      </trkpt>
      <trkpt lat="47.24286" lon="-1.66836">
        <ele>105</ele>
        <time>2022-04-16T10:34:32Z</time>
      </trkpt>
      <trkpt lat="47.2429" lon="-1.66821">
        <ele>105</ele>
        <time>2022-04-16T10:34:34Z</time>
      </trkpt>
      <trkpt lat="47.24301" lon="-1.66812">
        <ele>105</ele>
        <time>2022-04-16T10:34:36Z</time>
      </trkpt>
      <trkpt lat="47.24314" lon="-1.66816">
        <ele>104</ele>
        <time>2022-04-16T10:34:38Z</time>
      </trkpt>
      <trkpt lat="47.24324" lon="-1.66829">
        <ele>103</ele>
        <time>2022-04-16T10:34:40Z</time>
      </trkpt>
      <trkpt lat="47.24336" lon="-1.6684">
        <ele>103</ele>
        <time>2022-04-16T10:34:42Z</time>
      </trkpt>
      <trkpt lat="47.24348" lon="-1.6685">
        <ele>102</ele>
        <time>2022-04-16T10:34:44Z</time>
      </trkpt>
      <trkpt lat="47.2436" lon="-1.66861">
        <ele>102</ele>
        <time>2022-04-16T10:34:46Z</time>
      </trkpt>
      <trkpt lat="47.24371" lon="-1.66873">
        <ele>102</ele>
        <time>2022-04-16T10:34:48Z</time>
      </trkpt>
      <trkpt lat="47.24382" lon="-1.66887">
        <ele>101</ele>
        <time>2022-04-16T10:34:50Z</time>
      </trkpt>
      <trkpt lat="47.24393" lon="-1.669">
        <ele>101</ele>
        <time>2022-04-16T10:34:52Z</time>
      </trkpt>
      <trkpt lat="47.24404" lon="-1.66914">
        <ele>100</ele>
        <time>2022-04-16T10:34:54Z</time>
      </trkpt>
      <trkpt lat="47.24415" lon="-1.66928">
        <ele>100</ele>
        <time>2022-04-16T10:34:56Z</time>
      </trkpt>
      <trkpt lat="47.24425" lon="-1.66944">
        <ele>100</ele>
        <time>2022-04-16T10:34:58Z</time>
      </trkpt>
      <trkpt lat="47.24432" lon="-1.66958">
        <ele>100</ele>
        <time>2022-04-16T10:35:00Z</time>
      </trkpt>
      <trkpt lat="47.24442" lon="-1.66965">
        <ele>100</ele>
        <time>2022-04-16T10:35:03Z</time>
      </trkpt>
      <trkpt lat="47.24451" lon="-1.66974">
        <ele>100</ele>
        <time>2022-04-16T10:35:05Z</time>
      </trkpt>
      <trkpt lat="47.24459" lon="-1.66988">
        <ele>99</ele>
        <time>2022-04-16T10:35:07Z</time>
      </trkpt>
      <trkpt lat="47.24469" lon="-1.66999">
        <ele>99</ele>
        <time>2022-04-16T10:35:09Z</time>
      </trkpt>
      <trkpt lat="47.2448" lon="-1.67005">
        <ele>99</ele>
        <time>2022-04-16T10:35:11Z</time>
      </trkpt>
      <trkpt lat="47.24491" lon="-1.67012">
        <ele>99</ele>
        <time>2022-04-16T10:35:13Z</time>
      </trkpt>
      <trkpt lat="47.24502" lon="-1.67018">
        <ele>99</ele>
        <time>2022-04-16T10:35:15Z</time>
      </trkpt>
      <trkpt lat="47.24514" lon="-1.67024">
        <ele>99</ele>
        <time>2022-04-16T10:35:17Z</time>
      </trkpt>
      <trkpt lat="47.24526" lon="-1.67028">
        <ele>100</ele>
        <time>2022-04-16T10:35:19Z</time>
      </trkpt>
      <trkpt lat="47.24537" lon="-1.67031">
        <ele>100</ele>
        <time>2022-04-16T10:35:21Z</time>
      </trkpt>
      <trkpt lat="47.24549" lon="-1.67032">
        <ele>101</ele>
        <time>2022-04-16T10:35:23Z</time>
      </trkpt>
      <trkpt lat="47.24561" lon="-1.67032">
        <ele>101</ele>
        <time>2022-04-16T10:35:25Z</time>
      </trkpt>
      <trkpt lat="47.24572" lon="-1.6703">
        <ele>101</ele>
        <time>2022-04-16T10:35:27Z</time>
      </trkpt>
      <trkpt lat="47.24583" lon="-1.67028">
        <ele>101</ele>
        <time>2022-04-16T10:35:29Z</time>
      </trkpt>
      <trkpt lat="47.24595" lon="-1.67024">
        <ele>101</ele>
        <time>2022-04-16T10:35:31Z</time>
      </trkpt>
      <trkpt lat="47.24606" lon="-1.6702">
        <ele>101</ele>
        <time>2022-04-16T10:35:33Z</time>
      </trkpt>
      <trkpt lat="47.24617" lon="-1.67016">
        <ele>101</ele>
        <time>2022-04-16T10:35:35Z</time>
      </trkpt>
      <trkpt lat="47.24628" lon="-1.67011">
        <ele>101</ele>
        <time>2022-04-16T10:35:37Z</time>
      </trkpt>
      <trkpt lat="47.24639" lon="-1.67007">
        <ele>101</ele>
        <time>2022-04-16T10:35:39Z</time>
      </trkpt>
      <trkpt lat="47.2465" lon="-1.67001">
        <ele>100</ele>
        <time>2022-04-16T10:35:41Z</time>
      </trkpt>
      <trkpt lat="47.2466" lon="-1.66993">
        <ele>100</ele>
        <time>2022-04-16T10:35:43Z</time>
      </trkpt>
      <trkpt lat="47.2467" lon="-1.66985">
        <ele>100</ele>
        <time>2022-04-16T10:35:45Z</time>
      </trkpt>
      <trkpt lat="47.2468" lon="-1.66973">
        <ele>100</ele>
        <time>2022-04-16T10:35:47Z</time>
      </trkpt>
      <trkpt lat="47.24689" lon="-1.66961">
        <ele>100</ele>
        <time>2022-04-16T10:35:49Z</time>
      </trkpt>
      <trkpt lat="47.24697" lon="-1.66948">
        <ele>100</ele>
        <time>2022-04-16T10:35:51Z</time>
      </trkpt>
      <trkpt lat="47.24706" lon="-1.66937">
        <ele>100</ele>
        <time>2022-04-16T10:35:53Z</time>
      </trkpt>
      <trkpt lat="47.24716" lon="-1.66927">
        <ele>100</ele>
        <time>2022-04-16T10:35:55Z</time>
      </trkpt>
      <trkpt lat="47.24728" lon="-1.66918">
        <ele>100</ele>
        <time>2022-04-16T10:35:57Z</time>
      </trkpt>
      <trkpt lat="47.2474" lon="-1.66911">
        <ele>100</ele>
        <time>2022-04-16T10:35:59Z</time>
      </trkpt>
      <trkpt lat="47.24752" lon="-1.66905">
        <ele>100</ele>
        <time>2022-04-16T10:36:01Z</time>
      </trkpt>
      <trkpt lat="47.24764" lon="-1.66898">
        <ele>100</ele>
        <time>2022-04-16T10:36:03Z</time>
      </trkpt>
      <trkpt lat="47.24775" lon="-1.66891">
        <ele>100</ele>
        <time>2022-04-16T10:36:05Z</time>
      </trkpt>
      <trkpt lat="47.24786" lon="-1.66881">
        <ele>100</ele>
        <time>2022-04-16T10:36:07Z</time>
      </trkpt>
      <trkpt lat="47.24797" lon="-1.6687">
        <ele>100</ele>
        <time>2022-04-16T10:36:09Z</time>
      </trkpt>
      <trkpt lat="47.24808" lon="-1.6686">
        <ele>100</ele>
        <time>2022-04-16T10:36:11Z</time>
      </trkpt>
      <trkpt lat="47.24819" lon="-1.66852">
        <ele>99</ele>
        <time>2022-04-16T10:36:13Z</time>
      </trkpt>
      <trkpt lat="47.24832" lon="-1.66845">
        <ele>99</ele>
        <time>2022-04-16T10:36:15Z</time>
      </trkpt>
      <trkpt lat="47.24844" lon="-1.6684">
        <ele>98</ele>
        <time>2022-04-16T10:36:17Z</time>
      </trkpt>
      <trkpt lat="47.24857" lon="-1.66836">
        <ele>98</ele>
        <time>2022-04-16T10:36:19Z</time>
      </trkpt>
      <trkpt lat="47.2487" lon="-1.66832">
        <ele>97</ele>
        <time>2022-04-16T10:36:21Z</time>
      </trkpt>
      <trkpt lat="47.24883" lon="-1.66828">
        <ele>97</ele>
        <time>2022-04-16T10:36:23Z</time>
      </trkpt>
      <trkpt lat="47.24896" lon="-1.66824">
        <ele>97</ele>
        <time>2022-04-16T10:36:25Z</time>
      </trkpt>
      <trkpt lat="47.24909" lon="-1.6682">
        <ele>97</ele>
        <time>2022-04-16T10:36:27Z</time>
      </trkpt>
      <trkpt lat="47.24922" lon="-1.66817">
        <ele>97</ele>
        <time>2022-04-16T10:36:29Z</time>
      </trkpt>
      <trkpt lat="47.24935" lon="-1.66812">
        <ele>97</ele>
        <time>2022-04-16T10:36:31Z</time>
      </trkpt>
      <trkpt lat="47.24948" lon="-1.66808">
        <ele>98</ele>
        <time>2022-04-16T10:36:33Z</time>
      </trkpt>
      <trkpt lat="47.24962" lon="-1.66804">
        <ele>98</ele>
        <time>2022-04-16T10:36:35Z</time>
      </trkpt>
      <trkpt lat="47.24976" lon="-1.668">
        <ele>98</ele>
        <time>2022-04-16T10:36:37Z</time>
      </trkpt>
      <trkpt lat="47.24989" lon="-1.66797">
        <ele>98</ele>
        <time>2022-04-16T10:36:39Z</time>
      </trkpt>
      <trkpt lat="47.25002" lon="-1.66795">
        <ele>98</ele>
        <time>2022-04-16T10:36:41Z</time>
      </trkpt>
      <trkpt lat="47.25015" lon="-1.66792">
        <ele>97</ele>
        <time>2022-04-16T10:36:43Z</time>
      </trkpt>
      <trkpt lat="47.25029" lon="-1.66791">
        <ele>97</ele>
        <time>2022-04-16T10:36:45Z</time>
      </trkpt>
      <trkpt lat="47.25042" lon="-1.66791">
        <ele>97</ele>
        <time>2022-04-16T10:36:47Z</time>
      </trkpt>
      <trkpt lat="47.25055" lon="-1.66791">
        <ele>96</ele>
        <time>2022-04-16T10:36:49Z</time>
      </trkpt>
      <trkpt lat="47.25068" lon="-1.66793">
        <ele>96</ele>
        <time>2022-04-16T10:36:51Z</time>
      </trkpt>
      <trkpt lat="47.2508" lon="-1.66794">
        <ele>95</ele>
        <time>2022-04-16T10:36:53Z</time>
      </trkpt>
      <trkpt lat="47.25093" lon="-1.66797">
        <ele>95</ele>
        <time>2022-04-16T10:36:55Z</time>
      </trkpt>
      <trkpt lat="47.25107" lon="-1.66802">
        <ele>95</ele>
        <time>2022-04-16T10:36:57Z</time>
      </trkpt>
      <trkpt lat="47.25122" lon="-1.66807">
        <ele>95</ele>
        <time>2022-04-16T10:36:59Z</time>
      </trkpt>
      <trkpt lat="47.25139" lon="-1.66812">
        <ele>94</ele>
        <time>2022-04-16T10:37:01Z</time>
      </trkpt>
      <trkpt lat="47.25155" lon="-1.66818">
        <ele>94</ele>
        <time>2022-04-16T10:37:03Z</time>
      </trkpt>
      <trkpt lat="47.25172" lon="-1.66823">
        <ele>94</ele>
        <time>2022-04-16T10:37:05Z</time>
      </trkpt>
      <trkpt lat="47.25189" lon="-1.66826">
        <ele>94</ele>
        <time>2022-04-16T10:37:07Z</time>
      </trkpt>
      <trkpt lat="47.25204" lon="-1.6683">
        <ele>94</ele>
        <time>2022-04-16T10:37:09Z</time>
      </trkpt>
      <trkpt lat="47.25218" lon="-1.66833">
        <ele>95</ele>
        <time>2022-04-16T10:37:11Z</time>
      </trkpt>
      <trkpt lat="47.25232" lon="-1.66835">
        <ele>94</ele>
        <time>2022-04-16T10:37:13Z</time>
      </trkpt>
      <trkpt lat="47.25244" lon="-1.66837">
        <ele>95</ele>
        <time>2022-04-16T10:37:15Z</time>
      </trkpt>
      <trkpt lat="47.25256" lon="-1.66839">
        <ele>95</ele>
        <time>2022-04-16T10:37:17Z</time>
      </trkpt>
      <trkpt lat="47.25267" lon="-1.66841">
        <ele>95</ele>
        <time>2022-04-16T10:37:19Z</time>
      </trkpt>
      <trkpt lat="47.25279" lon="-1.66843">
        <ele>95</ele>
        <time>2022-04-16T10:37:21Z</time>
      </trkpt>
      <trkpt lat="47.25291" lon="-1.66844">
        <ele>95</ele>
        <time>2022-04-16T10:37:23Z</time>
      </trkpt>
      <trkpt lat="47.25302" lon="-1.66846">
        <ele>96</ele>
        <time>2022-04-16T10:37:25Z</time>
      </trkpt>
      <trkpt lat="47.25314" lon="-1.66847">
        <ele>97</ele>
        <time>2022-04-16T10:37:27Z</time>
      </trkpt>
      <trkpt lat="47.25326" lon="-1.66849">
        <ele>97</ele>
        <time>2022-04-16T10:37:29Z</time>
      </trkpt>
      <trkpt lat="47.25337" lon="-1.66851">
        <ele>97</ele>
        <time>2022-04-16T10:37:31Z</time>
      </trkpt>
      <trkpt lat="47.25348" lon="-1.66853">
        <ele>98</ele>
        <time>2022-04-16T10:37:33Z</time>
      </trkpt>
      <trkpt lat="47.2536" lon="-1.66855">
        <ele>98</ele>
        <time>2022-04-16T10:37:35Z</time>
      </trkpt>
      <trkpt lat="47.25371" lon="-1.66856">
        <ele>98</ele>
        <time>2022-04-16T10:37:37Z</time>
      </trkpt>
      <trkpt lat="47.25383" lon="-1.66859">
        <ele>98</ele>
        <time>2022-04-16T10:37:39Z</time>
      </trkpt>
      <trkpt lat="47.25395" lon="-1.6686">
        <ele>98</ele>
        <time>2022-04-16T10:37:41Z</time>
      </trkpt>
      <trkpt lat="47.25407" lon="-1.66862">
        <ele>99</ele>
        <time>2022-04-16T10:37:43Z</time>
      </trkpt>
      <trkpt lat="47.25418" lon="-1.66863">
        <ele>99</ele>
        <time>2022-04-16T10:37:45Z</time>
      </trkpt>
      <trkpt lat="47.2543" lon="-1.66865">
        <ele>99</ele>
        <time>2022-04-16T10:37:47Z</time>
      </trkpt>
      <trkpt lat="47.25441" lon="-1.66867">
        <ele>100</ele>
        <time>2022-04-16T10:37:49Z</time>
      </trkpt>
      <trkpt lat="47.25453" lon="-1.66869">
        <ele>100</ele>
        <time>2022-04-16T10:37:51Z</time>
      </trkpt>
      <trkpt lat="47.25465" lon="-1.6687">
        <ele>101</ele>
        <time>2022-04-16T10:37:53Z</time>
      </trkpt>
      <trkpt lat="47.25477" lon="-1.66873">
        <ele>101</ele>
        <time>2022-04-16T10:37:55Z</time>
      </trkpt>
      <trkpt lat="47.25488" lon="-1.66874">
        <ele>101</ele>
        <time>2022-04-16T10:37:57Z</time>
      </trkpt>
      <trkpt lat="47.25499" lon="-1.66875">
        <ele>102</ele>
        <time>2022-04-16T10:37:59Z</time>
      </trkpt>
      <trkpt lat="47.25511" lon="-1.66876">
        <ele>102</ele>
        <time>2022-04-16T10:38:01Z</time>
      </trkpt>
      <trkpt lat="47.25523" lon="-1.66874">
        <ele>102</ele>
        <time>2022-04-16T10:38:03Z</time>
      </trkpt>
      <trkpt lat="47.25534" lon="-1.66876">
        <ele>101</ele>
        <time>2022-04-16T10:38:05Z</time>
      </trkpt>
      <trkpt lat="47.25545" lon="-1.66882">
        <ele>102</ele>
        <time>2022-04-16T10:38:07Z</time>
      </trkpt>
      <trkpt lat="47.25556" lon="-1.66883">
        <ele>102</ele>
        <time>2022-04-16T10:38:09Z</time>
      </trkpt>
      <trkpt lat="47.25568" lon="-1.66884">
        <ele>102</ele>
        <time>2022-04-16T10:38:11Z</time>
      </trkpt>
      <trkpt lat="47.2558" lon="-1.66885">
        <ele>102</ele>
        <time>2022-04-16T10:38:13Z</time>
      </trkpt>
      <trkpt lat="47.25592" lon="-1.66886">
        <ele>103</ele>
        <time>2022-04-16T10:38:15Z</time>
      </trkpt>
      <trkpt lat="47.25604" lon="-1.66887">
        <ele>102</ele>
        <time>2022-04-16T10:38:17Z</time>
      </trkpt>
      <trkpt lat="47.25616" lon="-1.66888">
        <ele>102</ele>
        <time>2022-04-16T10:38:19Z</time>
      </trkpt>
      <trkpt lat="47.25628" lon="-1.66889">
        <ele>102</ele>
        <time>2022-04-16T10:38:21Z</time>
      </trkpt>
      <trkpt lat="47.25639" lon="-1.6689">
        <ele>102</ele>
        <time>2022-04-16T10:38:23Z</time>
      </trkpt>
      <trkpt lat="47.25652" lon="-1.6689">
        <ele>102</ele>
        <time>2022-04-16T10:38:25Z</time>
      </trkpt>
      <trkpt lat="47.25663" lon="-1.66891">
        <ele>102</ele>
        <time>2022-04-16T10:38:27Z</time>
      </trkpt>
      <trkpt lat="47.25675" lon="-1.66891">
        <ele>102</ele>
        <time>2022-04-16T10:38:29Z</time>
      </trkpt>
      <trkpt lat="47.25686" lon="-1.66887">
        <ele>102</ele>
        <time>2022-04-16T10:38:31Z</time>
      </trkpt>
      <trkpt lat="47.25697" lon="-1.66886">
        <ele>102</ele>
        <time>2022-04-16T10:38:33Z</time>
      </trkpt>
      <trkpt lat="47.25708" lon="-1.66892">
        <ele>102</ele>
        <time>2022-04-16T10:38:35Z</time>
      </trkpt>
      <trkpt lat="47.25719" lon="-1.66894">
        <ele>102</ele>
        <time>2022-04-16T10:38:37Z</time>
      </trkpt>
      <trkpt lat="47.25731" lon="-1.66895">
        <ele>103</ele>
        <time>2022-04-16T10:38:39Z</time>
      </trkpt>
      <trkpt lat="47.25742" lon="-1.66897">
        <ele>103</ele>
        <time>2022-04-16T10:38:41Z</time>
      </trkpt>
      <trkpt lat="47.25754" lon="-1.66899">
        <ele>103</ele>
        <time>2022-04-16T10:38:43Z</time>
      </trkpt>
      <trkpt lat="47.25766" lon="-1.669">
        <ele>103</ele>
        <time>2022-04-16T10:38:45Z</time>
      </trkpt>
      <trkpt lat="47.25777" lon="-1.66902">
        <ele>103</ele>
        <time>2022-04-16T10:38:47Z</time>
      </trkpt>
      <trkpt lat="47.25789" lon="-1.66903">
        <ele>104</ele>
        <time>2022-04-16T10:38:49Z</time>
      </trkpt>
      <trkpt lat="47.258" lon="-1.66906">
        <ele>104</ele>
        <time>2022-04-16T10:38:51Z</time>
      </trkpt>
      <trkpt lat="47.2581" lon="-1.66907">
        <ele>105</ele>
        <time>2022-04-16T10:38:53Z</time>
      </trkpt>
      <trkpt lat="47.25821" lon="-1.6691">
        <ele>105</ele>
        <time>2022-04-16T10:38:55Z</time>
      </trkpt>
      <trkpt lat="47.25833" lon="-1.66912">
        <ele>106</ele>
        <time>2022-04-16T10:38:57Z</time>
      </trkpt>
      <trkpt lat="47.25844" lon="-1.66915">
        <ele>106</ele>
        <time>2022-04-16T10:38:59Z</time>
      </trkpt>
      <trkpt lat="47.25855" lon="-1.66919">
        <ele>106</ele>
        <time>2022-04-16T10:39:01Z</time>
      </trkpt>
      <trkpt lat="47.25865" lon="-1.66921">
        <ele>107</ele>
        <time>2022-04-16T10:39:03Z</time>
      </trkpt>
      <trkpt lat="47.25876" lon="-1.66924">
        <ele>107</ele>
        <time>2022-04-16T10:39:05Z</time>
      </trkpt>
      <trkpt lat="47.25887" lon="-1.66928">
        <ele>107</ele>
        <time>2022-04-16T10:39:07Z</time>
      </trkpt>
      <trkpt lat="47.25898" lon="-1.66932">
        <ele>108</ele>
        <time>2022-04-16T10:39:09Z</time>
      </trkpt>
      <trkpt lat="47.25909" lon="-1.66936">
        <ele>108</ele>
        <time>2022-04-16T10:39:11Z</time>
      </trkpt>
      <trkpt lat="47.2592" lon="-1.6694">
        <ele>109</ele>
        <time>2022-04-16T10:39:13Z</time>
      </trkpt>
      <trkpt lat="47.25931" lon="-1.66945">
        <ele>109</ele>
        <time>2022-04-16T10:39:15Z</time>
      </trkpt>
      <trkpt lat="47.25943" lon="-1.6695">
        <ele>109</ele>
        <time>2022-04-16T10:39:17Z</time>
      </trkpt>
      <trkpt lat="47.25954" lon="-1.66955">
        <ele>109</ele>
        <time>2022-04-16T10:39:19Z</time>
      </trkpt>
      <trkpt lat="47.25964" lon="-1.66959">
        <ele>110</ele>
        <time>2022-04-16T10:39:21Z</time>
      </trkpt>
      <trkpt lat="47.25975" lon="-1.66964">
        <ele>110</ele>
        <time>2022-04-16T10:39:23Z</time>
      </trkpt>
      <trkpt lat="47.25985" lon="-1.66969">
        <ele>110</ele>
        <time>2022-04-16T10:39:25Z</time>
      </trkpt>
      <trkpt lat="47.25996" lon="-1.66974">
        <ele>110</ele>
        <time>2022-04-16T10:39:27Z</time>
      </trkpt>
      <trkpt lat="47.26007" lon="-1.66979">
        <ele>111</ele>
        <time>2022-04-16T10:39:29Z</time>
      </trkpt>
      <trkpt lat="47.26017" lon="-1.66983">
        <ele>111</ele>
        <time>2022-04-16T10:39:31Z</time>
      </trkpt>
      <trkpt lat="47.26028" lon="-1.66988">
        <ele>111</ele>
        <time>2022-04-16T10:39:33Z</time>
      </trkpt>
      <trkpt lat="47.26038" lon="-1.66993">
        <ele>112</ele>
        <time>2022-04-16T10:39:35Z</time>
      </trkpt>
      <trkpt lat="47.26049" lon="-1.66997">
        <ele>112</ele>
        <time>2022-04-16T10:39:37Z</time>
      </trkpt>
      <trkpt lat="47.26059" lon="-1.67002">
        <ele>112</ele>
        <time>2022-04-16T10:39:39Z</time>
      </trkpt>
      <trkpt lat="47.26069" lon="-1.67007">
        <ele>113</ele>
        <time>2022-04-16T10:39:41Z</time>
      </trkpt>
      <trkpt lat="47.26079" lon="-1.67012">
        <ele>113</ele>
        <time>2022-04-16T10:39:43Z</time>
      </trkpt>
      <trkpt lat="47.26089" lon="-1.67016">
        <ele>113</ele>
        <time>2022-04-16T10:39:45Z</time>
      </trkpt>
      <trkpt lat="47.261" lon="-1.67021">
        <ele>113</ele>
        <time>2022-04-16T10:39:47Z</time>
      </trkpt>
      <trkpt lat="47.26111" lon="-1.67026">
        <ele>114</ele>
        <time>2022-04-16T10:39:49Z</time>
      </trkpt>
      <trkpt lat="47.26121" lon="-1.67031">
        <ele>114</ele>
        <time>2022-04-16T10:39:51Z</time>
      </trkpt>
      <trkpt lat="47.26132" lon="-1.67035">
        <ele>114</ele>
        <time>2022-04-16T10:39:53Z</time>
      </trkpt>
      <trkpt lat="47.26142" lon="-1.6704">
        <ele>114</ele>
        <time>2022-04-16T10:39:55Z</time>
      </trkpt>
      <trkpt lat="47.26153" lon="-1.67045">
        <ele>114</ele>
        <time>2022-04-16T10:39:57Z</time>
      </trkpt>
      <trkpt lat="47.26163" lon="-1.6705">
        <ele>115</ele>
        <time>2022-04-16T10:39:59Z</time>
      </trkpt>
      <trkpt lat="47.26173" lon="-1.67055">
        <ele>115</ele>
        <time>2022-04-16T10:40:01Z</time>
      </trkpt>
      <trkpt lat="47.26183" lon="-1.67059">
        <ele>115</ele>
        <time>2022-04-16T10:40:03Z</time>
      </trkpt>
      <trkpt lat="47.26192" lon="-1.6706">
        <ele>115</ele>
        <time>2022-04-16T10:40:05Z</time>
      </trkpt>
      <trkpt lat="47.26205" lon="-1.67066">
        <ele>115</ele>
        <time>2022-04-16T10:40:08Z</time>
      </trkpt>
      <trkpt lat="47.2621" lon="-1.67082">
        <ele>115</ele>
        <time>2022-04-16T10:40:10Z</time>
      </trkpt>
      <trkpt lat="47.26213" lon="-1.67097">
        <ele>116</ele>
        <time>2022-04-16T10:40:12Z</time>
      </trkpt>
      <trkpt lat="47.26216" lon="-1.67115">
        <ele>116</ele>
        <time>2022-04-16T10:40:14Z</time>
      </trkpt>
      <trkpt lat="47.2622" lon="-1.67132">
        <ele>116</ele>
        <time>2022-04-16T10:40:16Z</time>
      </trkpt>
      <trkpt lat="47.26223" lon="-1.6715">
        <ele>116</ele>
        <time>2022-04-16T10:40:18Z</time>
      </trkpt>
      <trkpt lat="47.26226" lon="-1.67166">
        <ele>116</ele>
        <time>2022-04-16T10:40:20Z</time>
      </trkpt>
      <trkpt lat="47.26229" lon="-1.67182">
        <ele>116</ele>
        <time>2022-04-16T10:40:22Z</time>
      </trkpt>
      <trkpt lat="47.26232" lon="-1.67197">
        <ele>116</ele>
        <time>2022-04-16T10:40:24Z</time>
      </trkpt>
      <trkpt lat="47.26235" lon="-1.67212">
        <ele>116</ele>
        <time>2022-04-16T10:40:26Z</time>
      </trkpt>
      <trkpt lat="47.26238" lon="-1.67225">
        <ele>116</ele>
        <time>2022-04-16T10:40:28Z</time>
      </trkpt>
      <trkpt lat="47.26242" lon="-1.67238">
        <ele>116</ele>
        <time>2022-04-16T10:40:30Z</time>
      </trkpt>
      <trkpt lat="47.26255" lon="-1.67247">
        <ele>117</ele>
        <time>2022-04-16T10:40:33Z</time>
      </trkpt>
      <trkpt lat="47.26266" lon="-1.67243">
        <ele>118</ele>
        <time>2022-04-16T10:40:35Z</time>
      </trkpt>
      <trkpt lat="47.2628" lon="-1.67237">
        <ele>118</ele>
        <time>2022-04-16T10:40:37Z</time>
      </trkpt>
      <trkpt lat="47.26292" lon="-1.67233">
        <ele>118</ele>
        <time>2022-04-16T10:40:39Z</time>
      </trkpt>
      <trkpt lat="47.26304" lon="-1.67229">
        <ele>118</ele>
        <time>2022-04-16T10:40:41Z</time>
      </trkpt>
      <trkpt lat="47.26316" lon="-1.67224">
        <ele>117</ele>
        <time>2022-04-16T10:40:43Z</time>
      </trkpt>
      <trkpt lat="47.26328" lon="-1.67221">
        <ele>118</ele>
        <time>2022-04-16T10:40:45Z</time>
      </trkpt>
      <trkpt lat="47.26339" lon="-1.67217">
        <ele>118</ele>
        <time>2022-04-16T10:40:47Z</time>
      </trkpt>
      <trkpt lat="47.26349" lon="-1.67223">
        <ele>117</ele>
        <time>2022-04-16T10:40:49Z</time>
      </trkpt>
      <trkpt lat="47.26354" lon="-1.67237">
        <ele>117</ele>
        <time>2022-04-16T10:40:51Z</time>
      </trkpt>
      <trkpt lat="47.26357" lon="-1.67253">
        <ele>116</ele>
        <time>2022-04-16T10:40:53Z</time>
      </trkpt>
      <trkpt lat="47.2636" lon="-1.6727">
        <ele>116</ele>
        <time>2022-04-16T10:40:55Z</time>
      </trkpt>
      <trkpt lat="47.26366" lon="-1.67284">
        <ele>116</ele>
        <time>2022-04-16T10:40:57Z</time>
      </trkpt>
      <trkpt lat="47.26377" lon="-1.67291">
        <ele>117</ele>
        <time>2022-04-16T10:40:59Z</time>
      </trkpt>
      <trkpt lat="47.26389" lon="-1.67295">
        <ele>116</ele>
        <time>2022-04-16T10:41:01Z</time>
      </trkpt>
      <trkpt lat="47.264" lon="-1.67298">
        <ele>116</ele>
        <time>2022-04-16T10:41:03Z</time>
      </trkpt>
      <trkpt lat="47.26412" lon="-1.67303">
        <ele>117</ele>
        <time>2022-04-16T10:41:05Z</time>
      </trkpt>
      <trkpt lat="47.26424" lon="-1.67308">
        <ele>117</ele>
        <time>2022-04-16T10:41:07Z</time>
      </trkpt>
      <trkpt lat="47.26435" lon="-1.67314">
        <ele>116</ele>
        <time>2022-04-16T10:41:09Z</time>
      </trkpt>
      <trkpt lat="47.26447" lon="-1.67311">
        <ele>116</ele>
        <time>2022-04-16T10:41:11Z</time>
      </trkpt>
      <trkpt lat="47.26455" lon="-1.67297">
        <ele>115</ele>
        <time>2022-04-16T10:41:13Z</time>
      </trkpt>
      <trkpt lat="47.26461" lon="-1.67279">
        <ele>115</ele>
        <time>2022-04-16T10:41:15Z</time>
      </trkpt>
      <trkpt lat="47.26468" lon="-1.67261">
        <ele>114</ele>
        <time>2022-04-16T10:41:17Z</time>
      </trkpt>
      <trkpt lat="47.26476" lon="-1.67243">
        <ele>114</ele>
        <time>2022-04-16T10:41:19Z</time>
      </trkpt>
      <trkpt lat="47.26484" lon="-1.67224">
        <ele>113</ele>
        <time>2022-04-16T10:41:21Z</time>
      </trkpt>
      <trkpt lat="47.26492" lon="-1.67203">
        <ele>112</ele>
        <time>2022-04-16T10:41:23Z</time>
      </trkpt>
      <trkpt lat="47.26503" lon="-1.67184">
        <ele>111</ele>
        <time>2022-04-16T10:41:25Z</time>
      </trkpt>
      <trkpt lat="47.26514" lon="-1.67166">
        <ele>110</ele>
        <time>2022-04-16T10:41:27Z</time>
      </trkpt>
      <trkpt lat="47.26527" lon="-1.67149">
        <ele>109</ele>
        <time>2022-04-16T10:41:29Z</time>
      </trkpt>
      <trkpt lat="47.26535" lon="-1.67141">
        <ele>108</ele>
        <time>2022-04-16T10:41:30Z</time>
      </trkpt>
      <trkpt lat="47.26543" lon="-1.67134">
        <ele>108</ele>
        <time>2022-04-16T10:41:31Z</time>
      </trkpt>
      <trkpt lat="47.26551" lon="-1.67127">
        <ele>107</ele>
        <time>2022-04-16T10:41:32Z</time>
      </trkpt>
      <trkpt lat="47.26567" lon="-1.67115">
        <ele>106</ele>
        <time>2022-04-16T10:41:34Z</time>
      </trkpt>
      <trkpt lat="47.26575" lon="-1.67109">
        <ele>106</ele>
        <time>2022-04-16T10:41:35Z</time>
      </trkpt>
      <trkpt lat="47.26583" lon="-1.67103">
        <ele>106</ele>
        <time>2022-04-16T10:41:36Z</time>
      </trkpt>
      <trkpt lat="47.26599" lon="-1.67091">
        <ele>105</ele>
        <time>2022-04-16T10:41:38Z</time>
      </trkpt>
      <trkpt lat="47.26608" lon="-1.67087">
        <ele>104</ele>
        <time>2022-04-16T10:41:39Z</time>
      </trkpt>
      <trkpt lat="47.26617" lon="-1.67083">
        <ele>103</ele>
        <time>2022-04-16T10:41:40Z</time>
      </trkpt>
      <trkpt lat="47.26625" lon="-1.67077">
        <ele>103</ele>
        <time>2022-04-16T10:41:41Z</time>
      </trkpt>
      <trkpt lat="47.26634" lon="-1.67071">
        <ele>102</ele>
        <time>2022-04-16T10:41:42Z</time>
      </trkpt>
      <trkpt lat="47.26643" lon="-1.67065">
        <ele>102</ele>
        <time>2022-04-16T10:41:43Z</time>
      </trkpt>
      <trkpt lat="47.26651" lon="-1.67059">
        <ele>101</ele>
        <time>2022-04-16T10:41:44Z</time>
      </trkpt>
      <trkpt lat="47.2666" lon="-1.67053">
        <ele>101</ele>
        <time>2022-04-16T10:41:45Z</time>
      </trkpt>
      <trkpt lat="47.26669" lon="-1.67048">
        <ele>100</ele>
        <time>2022-04-16T10:41:46Z</time>
      </trkpt>
      <trkpt lat="47.26678" lon="-1.67042">
        <ele>99</ele>
        <time>2022-04-16T10:41:47Z</time>
      </trkpt>
      <trkpt lat="47.26687" lon="-1.67036">
        <ele>98</ele>
        <time>2022-04-16T10:41:48Z</time>
      </trkpt>
      <trkpt lat="47.26696" lon="-1.6703">
        <ele>98</ele>
        <time>2022-04-16T10:41:49Z</time>
      </trkpt>
      <trkpt lat="47.26705" lon="-1.67024">
        <ele>98</ele>
        <time>2022-04-16T10:41:50Z</time>
      </trkpt>
      <trkpt lat="47.26713" lon="-1.67019">
        <ele>99</ele>
        <time>2022-04-16T10:41:51Z</time>
      </trkpt>
      <trkpt lat="47.26722" lon="-1.67013">
        <ele>99</ele>
        <time>2022-04-16T10:41:52Z</time>
      </trkpt>
      <trkpt lat="47.26731" lon="-1.67009">
        <ele>98</ele>
        <time>2022-04-16T10:41:53Z</time>
      </trkpt>
      <trkpt lat="47.26741" lon="-1.67008">
        <ele>97</ele>
        <time>2022-04-16T10:41:54Z</time>
      </trkpt>
      <trkpt lat="47.26752" lon="-1.67009">
        <ele>97</ele>
        <time>2022-04-16T10:41:55Z</time>
      </trkpt>
      <trkpt lat="47.26761" lon="-1.67011">
        <ele>95</ele>
        <time>2022-04-16T10:41:56Z</time>
      </trkpt>
      <trkpt lat="47.2677" lon="-1.67017">
        <ele>95</ele>
        <time>2022-04-16T10:41:57Z</time>
      </trkpt>
      <trkpt lat="47.26779" lon="-1.67024">
        <ele>94</ele>
        <time>2022-04-16T10:41:58Z</time>
      </trkpt>
      <trkpt lat="47.26787" lon="-1.67032">
        <ele>93</ele>
        <time>2022-04-16T10:41:59Z</time>
      </trkpt>
      <trkpt lat="47.26794" lon="-1.6704">
        <ele>92</ele>
        <time>2022-04-16T10:42:00Z</time>
      </trkpt>
      <trkpt lat="47.26802" lon="-1.6705">
        <ele>91</ele>
        <time>2022-04-16T10:42:01Z</time>
      </trkpt>
      <trkpt lat="47.26809" lon="-1.6706">
        <ele>91</ele>
        <time>2022-04-16T10:42:02Z</time>
      </trkpt>
      <trkpt lat="47.26815" lon="-1.67072">
        <ele>90</ele>
        <time>2022-04-16T10:42:03Z</time>
      </trkpt>
      <trkpt lat="47.26821" lon="-1.67084">
        <ele>90</ele>
        <time>2022-04-16T10:42:04Z</time>
      </trkpt>
      <trkpt lat="47.26828" lon="-1.67095">
        <ele>89</ele>
        <time>2022-04-16T10:42:05Z</time>
      </trkpt>
      <trkpt lat="47.26836" lon="-1.67103">
        <ele>89</ele>
        <time>2022-04-16T10:42:06Z</time>
      </trkpt>
      <trkpt lat="47.26844" lon="-1.67112">
        <ele>89</ele>
        <time>2022-04-16T10:42:07Z</time>
      </trkpt>
      <trkpt lat="47.26852" lon="-1.67121">
        <ele>88</ele>
        <time>2022-04-16T10:42:08Z</time>
      </trkpt>
      <trkpt lat="47.26859" lon="-1.67131">
        <ele>88</ele>
        <time>2022-04-16T10:42:09Z</time>
      </trkpt>
      <trkpt lat="47.26866" lon="-1.67142">
        <ele>89</ele>
        <time>2022-04-16T10:42:10Z</time>
      </trkpt>
      <trkpt lat="47.26874" lon="-1.67151">
        <ele>89</ele>
        <time>2022-04-16T10:42:11Z</time>
      </trkpt>
      <trkpt lat="47.26891" lon="-1.67159">
        <ele>89</ele>
        <time>2022-04-16T10:42:13Z</time>
      </trkpt>
      <trkpt lat="47.26906" lon="-1.6716">
        <ele>89</ele>
        <time>2022-04-16T10:42:15Z</time>
      </trkpt>
      <trkpt lat="47.26919" lon="-1.67156">
        <ele>89</ele>
        <time>2022-04-16T10:42:17Z</time>
      </trkpt>
      <trkpt lat="47.26931" lon="-1.67151">
        <ele>90</ele>
        <time>2022-04-16T10:42:19Z</time>
      </trkpt>
      <trkpt lat="47.26942" lon="-1.67146">
        <ele>90</ele>
        <time>2022-04-16T10:42:21Z</time>
      </trkpt>
      <trkpt lat="47.26953" lon="-1.67142">
        <ele>91</ele>
        <time>2022-04-16T10:42:23Z</time>
      </trkpt>
      <trkpt lat="47.26964" lon="-1.67137">
        <ele>91</ele>
        <time>2022-04-16T10:42:25Z</time>
      </trkpt>
      <trkpt lat="47.26974" lon="-1.67132">
        <ele>92</ele>
        <time>2022-04-16T10:42:27Z</time>
      </trkpt>
      <trkpt lat="47.26985" lon="-1.67127">
        <ele>92</ele>
        <time>2022-04-16T10:42:29Z</time>
      </trkpt>
      <trkpt lat="47.26995" lon="-1.67124">
        <ele>93</ele>
        <time>2022-04-16T10:42:31Z</time>
      </trkpt>
      <trkpt lat="47.27005" lon="-1.6712">
        <ele>94</ele>
        <time>2022-04-16T10:42:33Z</time>
      </trkpt>
      <trkpt lat="47.27016" lon="-1.67118">
        <ele>95</ele>
        <time>2022-04-16T10:42:35Z</time>
      </trkpt>
      <trkpt lat="47.27028" lon="-1.67116">
        <ele>96</ele>
        <time>2022-04-16T10:42:37Z</time>
      </trkpt>
      <trkpt lat="47.27039" lon="-1.67115">
        <ele>97</ele>
        <time>2022-04-16T10:42:39Z</time>
      </trkpt>
      <trkpt lat="47.27049" lon="-1.67115">
        <ele>98</ele>
        <time>2022-04-16T10:42:41Z</time>
      </trkpt>
      <trkpt lat="47.2706" lon="-1.67115">
        <ele>99</ele>
        <time>2022-04-16T10:42:43Z</time>
      </trkpt>
      <trkpt lat="47.27071" lon="-1.67116">
        <ele>99</ele>
        <time>2022-04-16T10:42:45Z</time>
      </trkpt>
      <trkpt lat="47.27082" lon="-1.67118">
        <ele>100</ele>
        <time>2022-04-16T10:42:47Z</time>
      </trkpt>
      <trkpt lat="47.27092" lon="-1.67121">
        <ele>101</ele>
        <time>2022-04-16T10:42:49Z</time>
      </trkpt>
      <trkpt lat="47.27102" lon="-1.67126">
        <ele>102</ele>
        <time>2022-04-16T10:42:51Z</time>
      </trkpt>
      <trkpt lat="47.27111" lon="-1.6713">
        <ele>103</ele>
        <time>2022-04-16T10:42:53Z</time>
      </trkpt>
      <trkpt lat="47.2712" lon="-1.67134">
        <ele>105</ele>
        <time>2022-04-16T10:42:55Z</time>
      </trkpt>
      <trkpt lat="47.27129" lon="-1.67137">
        <ele>106</ele>
        <time>2022-04-16T10:42:57Z</time>
      </trkpt>
      <trkpt lat="47.27141" lon="-1.67142">
        <ele>107</ele>
        <time>2022-04-16T10:43:00Z</time>
      </trkpt>
      <trkpt lat="47.27151" lon="-1.67146">
        <ele>109</ele>
        <time>2022-04-16T10:43:03Z</time>
      </trkpt>
      <trkpt lat="47.27162" lon="-1.67151">
        <ele>109</ele>
        <time>2022-04-16T10:43:05Z</time>
      </trkpt>
      <trkpt lat="47.27171" lon="-1.67158">
        <ele>110</ele>
        <time>2022-04-16T10:43:07Z</time>
      </trkpt>
      <trkpt lat="47.27181" lon="-1.67163">
        <ele>110</ele>
        <time>2022-04-16T10:43:09Z</time>
      </trkpt>
      <trkpt lat="47.27192" lon="-1.67168">
        <ele>110</ele>
        <time>2022-04-16T10:43:11Z</time>
      </trkpt>
      <trkpt lat="47.27203" lon="-1.67172">
        <ele>110</ele>
        <time>2022-04-16T10:43:13Z</time>
      </trkpt>
      <trkpt lat="47.27213" lon="-1.67175">
        <ele>110</ele>
        <time>2022-04-16T10:43:15Z</time>
      </trkpt>
      <trkpt lat="47.27223" lon="-1.67179">
        <ele>110</ele>
        <time>2022-04-16T10:43:17Z</time>
      </trkpt>
      <trkpt lat="47.27232" lon="-1.67182">
        <ele>110</ele>
        <time>2022-04-16T10:43:19Z</time>
      </trkpt>
      <trkpt lat="47.27243" lon="-1.67186">
        <ele>110</ele>
        <time>2022-04-16T10:43:21Z</time>
      </trkpt>
      <trkpt lat="47.27253" lon="-1.6719">
        <ele>110</ele>
        <time>2022-04-16T10:43:23Z</time>
      </trkpt>
      <trkpt lat="47.27265" lon="-1.67195">
        <ele>111</ele>
        <time>2022-04-16T10:43:25Z</time>
      </trkpt>
      <trkpt lat="47.27277" lon="-1.67199">
        <ele>111</ele>
        <time>2022-04-16T10:43:27Z</time>
      </trkpt>
      <trkpt lat="47.27287" lon="-1.67202">
        <ele>111</ele>
        <time>2022-04-16T10:43:29Z</time>
      </trkpt>
      <trkpt lat="47.27297" lon="-1.67206">
        <ele>111</ele>
        <time>2022-04-16T10:43:31Z</time>
      </trkpt>
      <trkpt lat="47.27308" lon="-1.67209">
        <ele>111</ele>
        <time>2022-04-16T10:43:33Z</time>
      </trkpt>
      <trkpt lat="47.27318" lon="-1.67212">
        <ele>111</ele>
        <time>2022-04-16T10:43:35Z</time>
      </trkpt>
      <trkpt lat="47.27328" lon="-1.67214">
        <ele>111</ele>
        <time>2022-04-16T10:43:37Z</time>
      </trkpt>
      <trkpt lat="47.27338" lon="-1.67213">
        <ele>112</ele>
        <time>2022-04-16T10:43:39Z</time>
      </trkpt>
      <trkpt lat="47.27348" lon="-1.6721">
        <ele>113</ele>
        <time>2022-04-16T10:43:41Z</time>
      </trkpt>
      <trkpt lat="47.27359" lon="-1.67207">
        <ele>113</ele>
        <time>2022-04-16T10:43:43Z</time>
      </trkpt>
      <trkpt lat="47.27369" lon="-1.67202">
        <ele>113</ele>
        <time>2022-04-16T10:43:45Z</time>
      </trkpt>
      <trkpt lat="47.27378" lon="-1.67195">
        <ele>113</ele>
        <time>2022-04-16T10:43:47Z</time>
      </trkpt>
      <trkpt lat="47.27388" lon="-1.67187">
        <ele>112</ele>
        <time>2022-04-16T10:43:49Z</time>
      </trkpt>
      <trkpt lat="47.27397" lon="-1.67179">
        <ele>112</ele>
        <time>2022-04-16T10:43:51Z</time>
      </trkpt>
      <trkpt lat="47.27406" lon="-1.6717">
        <ele>112</ele>
        <time>2022-04-16T10:43:53Z</time>
      </trkpt>
      <trkpt lat="47.27415" lon="-1.67162">
        <ele>112</ele>
        <time>2022-04-16T10:43:55Z</time>
      </trkpt>
      <trkpt lat="47.27424" lon="-1.67153">
        <ele>112</ele>
        <time>2022-04-16T10:43:57Z</time>
      </trkpt>
      <trkpt lat="47.27434" lon="-1.67145">
        <ele>112</ele>
        <time>2022-04-16T10:43:59Z</time>
      </trkpt>
      <trkpt lat="47.27443" lon="-1.67137">
        <ele>112</ele>
        <time>2022-04-16T10:44:01Z</time>
      </trkpt>
      <trkpt lat="47.27452" lon="-1.67129">
        <ele>113</ele>
        <time>2022-04-16T10:44:03Z</time>
      </trkpt>
      <trkpt lat="47.27461" lon="-1.67121">
        <ele>113</ele>
        <time>2022-04-16T10:44:05Z</time>
      </trkpt>
      <trkpt lat="47.2747" lon="-1.67112">
        <ele>113</ele>
        <time>2022-04-16T10:44:07Z</time>
      </trkpt>
      <trkpt lat="47.27479" lon="-1.67104">
        <ele>113</ele>
        <time>2022-04-16T10:44:09Z</time>
      </trkpt>
      <trkpt lat="47.27488" lon="-1.67096">
        <ele>113</ele>
        <time>2022-04-16T10:44:11Z</time>
      </trkpt>
      <trkpt lat="47.27497" lon="-1.67089">
        <ele>113</ele>
        <time>2022-04-16T10:44:13Z</time>
      </trkpt>
      <trkpt lat="47.27506" lon="-1.67083">
        <ele>113</ele>
        <time>2022-04-16T10:44:15Z</time>
      </trkpt>
      <trkpt lat="47.27515" lon="-1.67076">
        <ele>113</ele>
        <time>2022-04-16T10:44:17Z</time>
      </trkpt>
      <trkpt lat="47.27524" lon="-1.67079">
        <ele>113</ele>
        <time>2022-04-16T10:44:19Z</time>
      </trkpt>
      <trkpt lat="47.2753" lon="-1.67093">
        <ele>113</ele>
        <time>2022-04-16T10:44:21Z</time>
      </trkpt>
      <trkpt lat="47.27533" lon="-1.67108">
        <ele>113</ele>
        <time>2022-04-16T10:44:23Z</time>
      </trkpt>
      <trkpt lat="47.27536" lon="-1.67123">
        <ele>113</ele>
        <time>2022-04-16T10:44:25Z</time>
      </trkpt>
      <trkpt lat="47.27538" lon="-1.6714">
        <ele>113</ele>
        <time>2022-04-16T10:44:27Z</time>
      </trkpt>
      <trkpt lat="47.27541" lon="-1.67156">
        <ele>114</ele>
        <time>2022-04-16T10:44:29Z</time>
      </trkpt>
      <trkpt lat="47.27544" lon="-1.67171">
        <ele>114</ele>
        <time>2022-04-16T10:44:31Z</time>
      </trkpt>
      <trkpt lat="47.27547" lon="-1.67187">
        <ele>114</ele>
        <time>2022-04-16T10:44:33Z</time>
      </trkpt>
      <trkpt lat="47.2755" lon="-1.67204">
        <ele>114</ele>
        <time>2022-04-16T10:44:35Z</time>
      </trkpt>
      <trkpt lat="47.27553" lon="-1.6722">
        <ele>114</ele>
        <time>2022-04-16T10:44:37Z</time>
      </trkpt>
      <trkpt lat="47.27556" lon="-1.67237">
        <ele>115</ele>
        <time>2022-04-16T10:44:39Z</time>
      </trkpt>
      <trkpt lat="47.2756" lon="-1.67254">
        <ele>115</ele>
        <time>2022-04-16T10:44:41Z</time>
      </trkpt>
      <trkpt lat="47.27564" lon="-1.67271">
        <ele>116</ele>
        <time>2022-04-16T10:44:43Z</time>
      </trkpt>
      <trkpt lat="47.2757" lon="-1.67286">
        <ele>116</ele>
        <time>2022-04-16T10:44:45Z</time>
      </trkpt>
      <trkpt lat="47.27577" lon="-1.67299">
        <ele>116</ele>
        <time>2022-04-16T10:44:47Z</time>
      </trkpt>
      <trkpt lat="47.27586" lon="-1.67312">
        <ele>116</ele>
        <time>2022-04-16T10:44:49Z</time>
      </trkpt>
      <trkpt lat="47.27594" lon="-1.67324">
        <ele>117</ele>
        <time>2022-04-16T10:44:51Z</time>
      </trkpt>
      <trkpt lat="47.27602" lon="-1.67336">
        <ele>118</ele>
        <time>2022-04-16T10:44:53Z</time>
      </trkpt>
      <trkpt lat="47.27611" lon="-1.67348">
        <ele>118</ele>
        <time>2022-04-16T10:44:55Z</time>
      </trkpt>
      <trkpt lat="47.27619" lon="-1.6736">
        <ele>117</ele>
        <time>2022-04-16T10:44:57Z</time>
      </trkpt>
      <trkpt lat="47.27629" lon="-1.67371">
        <ele>118</ele>
        <time>2022-04-16T10:44:59Z</time>
      </trkpt>
      <trkpt lat="47.27639" lon="-1.67381">
        <ele>118</ele>
        <time>2022-04-16T10:45:01Z</time>
      </trkpt>
      <trkpt lat="47.2765" lon="-1.6739">
        <ele>118</ele>
        <time>2022-04-16T10:45:03Z</time>
      </trkpt>
      <trkpt lat="47.27661" lon="-1.67397">
        <ele>119</ele>
        <time>2022-04-16T10:45:05Z</time>
      </trkpt>
      <trkpt lat="47.27672" lon="-1.67401">
        <ele>119</ele>
        <time>2022-04-16T10:45:07Z</time>
      </trkpt>
      <trkpt lat="47.27684" lon="-1.67407">
        <ele>120</ele>
        <time>2022-04-16T10:45:09Z</time>
      </trkpt>
      <trkpt lat="47.27697" lon="-1.67411">
        <ele>120</ele>
        <time>2022-04-16T10:45:11Z</time>
      </trkpt>
      <trkpt lat="47.2771" lon="-1.67415">
        <ele>120</ele>
        <time>2022-04-16T10:45:13Z</time>
      </trkpt>
      <trkpt lat="47.27723" lon="-1.67419">
        <ele>120</ele>
        <time>2022-04-16T10:45:15Z</time>
      </trkpt>
      <trkpt lat="47.27736" lon="-1.67422">
        <ele>120</ele>
        <time>2022-04-16T10:45:17Z</time>
      </trkpt>
      <trkpt lat="47.27749" lon="-1.67425">
        <ele>120</ele>
        <time>2022-04-16T10:45:19Z</time>
      </trkpt>
      <trkpt lat="47.27763" lon="-1.67427">
        <ele>119</ele>
        <time>2022-04-16T10:45:21Z</time>
      </trkpt>
      <trkpt lat="47.27777" lon="-1.67428">
        <ele>120</ele>
        <time>2022-04-16T10:45:23Z</time>
      </trkpt>
      <trkpt lat="47.2779" lon="-1.67429">
        <ele>119</ele>
        <time>2022-04-16T10:45:25Z</time>
      </trkpt>
      <trkpt lat="47.27804" lon="-1.67429">
        <ele>117</ele>
        <time>2022-04-16T10:45:27Z</time>
      </trkpt>
      <trkpt lat="47.27818" lon="-1.67429">
        <ele>116</ele>
        <time>2022-04-16T10:45:29Z</time>
      </trkpt>
      <trkpt lat="47.27833" lon="-1.67429">
        <ele>115</ele>
        <time>2022-04-16T10:45:31Z</time>
      </trkpt>
      <trkpt lat="47.27848" lon="-1.67428">
        <ele>114</ele>
        <time>2022-04-16T10:45:33Z</time>
      </trkpt>
      <trkpt lat="47.27863" lon="-1.67427">
        <ele>113</ele>
        <time>2022-04-16T10:45:35Z</time>
      </trkpt>
      <trkpt lat="47.27878" lon="-1.67427">
        <ele>112</ele>
        <time>2022-04-16T10:45:37Z</time>
      </trkpt>
      <trkpt lat="47.27893" lon="-1.67428">
        <ele>112</ele>
        <time>2022-04-16T10:45:39Z</time>
      </trkpt>
      <trkpt lat="47.27907" lon="-1.67429">
        <ele>111</ele>
        <time>2022-04-16T10:45:41Z</time>
      </trkpt>
      <trkpt lat="47.27922" lon="-1.67432">
        <ele>111</ele>
        <time>2022-04-16T10:45:43Z</time>
      </trkpt>
      <trkpt lat="47.27936" lon="-1.67436">
        <ele>110</ele>
        <time>2022-04-16T10:45:45Z</time>
      </trkpt>
      <trkpt lat="47.2795" lon="-1.67441">
        <ele>109</ele>
        <time>2022-04-16T10:45:47Z</time>
      </trkpt>
      <trkpt lat="47.27964" lon="-1.67447">
        <ele>109</ele>
        <time>2022-04-16T10:45:49Z</time>
      </trkpt>
      <trkpt lat="47.27977" lon="-1.67453">
        <ele>109</ele>
        <time>2022-04-16T10:45:51Z</time>
      </trkpt>
      <trkpt lat="47.2799" lon="-1.6746">
        <ele>109</ele>
        <time>2022-04-16T10:45:53Z</time>
      </trkpt>
      <trkpt lat="47.28003" lon="-1.67467">
        <ele>109</ele>
        <time>2022-04-16T10:45:55Z</time>
      </trkpt>
      <trkpt lat="47.28015" lon="-1.67474">
        <ele>110</ele>
        <time>2022-04-16T10:45:57Z</time>
      </trkpt>
      <trkpt lat="47.28027" lon="-1.67481">
        <ele>110</ele>
        <time>2022-04-16T10:45:59Z</time>
      </trkpt>
      <trkpt lat="47.28038" lon="-1.67488">
        <ele>110</ele>
        <time>2022-04-16T10:46:01Z</time>
      </trkpt>
      <trkpt lat="47.28049" lon="-1.67494">
        <ele>111</ele>
        <time>2022-04-16T10:46:03Z</time>
      </trkpt>
      <trkpt lat="47.2806" lon="-1.675">
        <ele>111</ele>
        <time>2022-04-16T10:46:05Z</time>
      </trkpt>
      <trkpt lat="47.28071" lon="-1.67507">
        <ele>111</ele>
        <time>2022-04-16T10:46:07Z</time>
      </trkpt>
      <trkpt lat="47.28083" lon="-1.67513">
        <ele>111</ele>
        <time>2022-04-16T10:46:09Z</time>
      </trkpt>
      <trkpt lat="47.28094" lon="-1.6752">
        <ele>112</ele>
        <time>2022-04-16T10:46:11Z</time>
      </trkpt>
      <trkpt lat="47.28105" lon="-1.67527">
        <ele>112</ele>
        <time>2022-04-16T10:46:13Z</time>
      </trkpt>
      <trkpt lat="47.28116" lon="-1.67534">
        <ele>112</ele>
        <time>2022-04-16T10:46:15Z</time>
      </trkpt>
      <trkpt lat="47.28128" lon="-1.6754">
        <ele>112</ele>
        <time>2022-04-16T10:46:17Z</time>
      </trkpt>
      <trkpt lat="47.28139" lon="-1.67547">
        <ele>111</ele>
        <time>2022-04-16T10:46:19Z</time>
      </trkpt>
      <trkpt lat="47.28151" lon="-1.67553">
        <ele>111</ele>
        <time>2022-04-16T10:46:21Z</time>
      </trkpt>
      <trkpt lat="47.28162" lon="-1.6756">
        <ele>112</ele>
        <time>2022-04-16T10:46:23Z</time>
      </trkpt>
      <trkpt lat="47.28174" lon="-1.67567">
        <ele>112</ele>
        <time>2022-04-16T10:46:25Z</time>
      </trkpt>
      <trkpt lat="47.28185" lon="-1.67573">
        <ele>112</ele>
        <time>2022-04-16T10:46:27Z</time>
      </trkpt>
      <trkpt lat="47.28195" lon="-1.67579">
        <ele>112</ele>
        <time>2022-04-16T10:46:29Z</time>
      </trkpt>
      <trkpt lat="47.28206" lon="-1.67584">
        <ele>112</ele>
        <time>2022-04-16T10:46:31Z</time>
      </trkpt>
      <trkpt lat="47.28217" lon="-1.67592">
        <ele>112</ele>
        <time>2022-04-16T10:46:33Z</time>
      </trkpt>
      <trkpt lat="47.28228" lon="-1.67598">
        <ele>112</ele>
        <time>2022-04-16T10:46:35Z</time>
      </trkpt>
      <trkpt lat="47.28239" lon="-1.67604">
        <ele>113</ele>
        <time>2022-04-16T10:46:37Z</time>
      </trkpt>
      <trkpt lat="47.2825" lon="-1.67609">
        <ele>113</ele>
        <time>2022-04-16T10:46:39Z</time>
      </trkpt>
      <trkpt lat="47.28263" lon="-1.67613">
        <ele>112</ele>
        <time>2022-04-16T10:46:41Z</time>
      </trkpt>
      <trkpt lat="47.28275" lon="-1.67614">
        <ele>112</ele>
        <time>2022-04-16T10:46:43Z</time>
      </trkpt>
      <trkpt lat="47.28288" lon="-1.67614">
        <ele>112</ele>
        <time>2022-04-16T10:46:45Z</time>
      </trkpt>
      <trkpt lat="47.283" lon="-1.67612">
        <ele>112</ele>
        <time>2022-04-16T10:46:47Z</time>
      </trkpt>
      <trkpt lat="47.28313" lon="-1.6761">
        <ele>112</ele>
        <time>2022-04-16T10:46:49Z</time>
      </trkpt>
      <trkpt lat="47.28327" lon="-1.67608">
        <ele>111</ele>
        <time>2022-04-16T10:46:51Z</time>
      </trkpt>
      <trkpt lat="47.28339" lon="-1.67606">
        <ele>111</ele>
        <time>2022-04-16T10:46:53Z</time>
      </trkpt>
      <trkpt lat="47.28352" lon="-1.67604">
        <ele>111</ele>
        <time>2022-04-16T10:46:55Z</time>
      </trkpt>
      <trkpt lat="47.28364" lon="-1.67603">
        <ele>111</ele>
        <time>2022-04-16T10:46:57Z</time>
      </trkpt>
      <trkpt lat="47.28377" lon="-1.67601">
        <ele>111</ele>
        <time>2022-04-16T10:46:59Z</time>
      </trkpt>
      <trkpt lat="47.2839" lon="-1.67599">
        <ele>110</ele>
        <time>2022-04-16T10:47:01Z</time>
      </trkpt>
      <trkpt lat="47.28403" lon="-1.67597">
        <ele>110</ele>
        <time>2022-04-16T10:47:03Z</time>
      </trkpt>
      <trkpt lat="47.28415" lon="-1.67596">
        <ele>110</ele>
        <time>2022-04-16T10:47:05Z</time>
      </trkpt>
      <trkpt lat="47.28428" lon="-1.67595">
        <ele>111</ele>
        <time>2022-04-16T10:47:07Z</time>
      </trkpt>
      <trkpt lat="47.2844" lon="-1.67595">
        <ele>111</ele>
        <time>2022-04-16T10:47:09Z</time>
      </trkpt>
      <trkpt lat="47.28452" lon="-1.67599">
        <ele>111</ele>
        <time>2022-04-16T10:47:11Z</time>
      </trkpt>
      <trkpt lat="47.28465" lon="-1.67603">
        <ele>111</ele>
        <time>2022-04-16T10:47:13Z</time>
      </trkpt>
      <trkpt lat="47.28477" lon="-1.67608">
        <ele>111</ele>
        <time>2022-04-16T10:47:15Z</time>
      </trkpt>
      <trkpt lat="47.28489" lon="-1.67613">
        <ele>112</ele>
        <time>2022-04-16T10:47:17Z</time>
      </trkpt>
      <trkpt lat="47.28501" lon="-1.67616">
        <ele>112</ele>
        <time>2022-04-16T10:47:19Z</time>
      </trkpt>
      <trkpt lat="47.28513" lon="-1.67619">
        <ele>111</ele>
        <time>2022-04-16T10:47:21Z</time>
      </trkpt>
      <trkpt lat="47.28524" lon="-1.6762">
        <ele>112</ele>
        <time>2022-04-16T10:47:23Z</time>
      </trkpt>
      <trkpt lat="47.28535" lon="-1.67618">
        <ele>112</ele>
        <time>2022-04-16T10:47:25Z</time>
      </trkpt>
      <trkpt lat="47.28547" lon="-1.67613">
        <ele>112</ele>
        <time>2022-04-16T10:47:27Z</time>
      </trkpt>
      <trkpt lat="47.28559" lon="-1.67607">
        <ele>112</ele>
        <time>2022-04-16T10:47:29Z</time>
      </trkpt>
      <trkpt lat="47.28571" lon="-1.67601">
        <ele>111</ele>
        <time>2022-04-16T10:47:31Z</time>
      </trkpt>
      <trkpt lat="47.28584" lon="-1.67594">
        <ele>110</ele>
        <time>2022-04-16T10:47:33Z</time>
      </trkpt>
      <trkpt lat="47.28596" lon="-1.67588">
        <ele>110</ele>
        <time>2022-04-16T10:47:35Z</time>
      </trkpt>
      <trkpt lat="47.28608" lon="-1.67581">
        <ele>109</ele>
        <time>2022-04-16T10:47:37Z</time>
      </trkpt>
      <trkpt lat="47.28621" lon="-1.67576">
        <ele>109</ele>
        <time>2022-04-16T10:47:39Z</time>
      </trkpt>
      <trkpt lat="47.28633" lon="-1.67573">
        <ele>110</ele>
        <time>2022-04-16T10:47:41Z</time>
      </trkpt>
      <trkpt lat="47.28648" lon="-1.67575">
        <ele>109</ele>
        <time>2022-04-16T10:47:43Z</time>
      </trkpt>
      <trkpt lat="47.28662" lon="-1.67579">
        <ele>108</ele>
        <time>2022-04-16T10:47:45Z</time>
      </trkpt>
      <trkpt lat="47.28675" lon="-1.67586">
        <ele>107</ele>
        <time>2022-04-16T10:47:47Z</time>
      </trkpt>
      <trkpt lat="47.28688" lon="-1.67594">
        <ele>106</ele>
        <time>2022-04-16T10:47:49Z</time>
      </trkpt>
      <trkpt lat="47.287" lon="-1.67602">
        <ele>105</ele>
        <time>2022-04-16T10:47:51Z</time>
      </trkpt>
      <trkpt lat="47.28712" lon="-1.6761">
        <ele>106</ele>
        <time>2022-04-16T10:47:53Z</time>
      </trkpt>
      <trkpt lat="47.28723" lon="-1.67617">
        <ele>106</ele>
        <time>2022-04-16T10:47:55Z</time>
      </trkpt>
      <trkpt lat="47.28733" lon="-1.67623">
        <ele>107</ele>
        <time>2022-04-16T10:47:57Z</time>
      </trkpt>
      <trkpt lat="47.28742" lon="-1.67627">
        <ele>107</ele>
        <time>2022-04-16T10:47:59Z</time>
      </trkpt>
      <trkpt lat="47.28753" lon="-1.67619">
        <ele>108</ele>
        <time>2022-04-16T10:48:02Z</time>
      </trkpt>
      <trkpt lat="47.28756" lon="-1.67605">
        <ele>108</ele>
        <time>2022-04-16T10:48:04Z</time>
      </trkpt>
      <trkpt lat="47.2876" lon="-1.67589">
        <ele>107</ele>
        <time>2022-04-16T10:48:06Z</time>
      </trkpt>
      <trkpt lat="47.28764" lon="-1.67573">
        <ele>107</ele>
        <time>2022-04-16T10:48:08Z</time>
      </trkpt>
      <trkpt lat="47.28768" lon="-1.67557">
        <ele>107</ele>
        <time>2022-04-16T10:48:10Z</time>
      </trkpt>
      <trkpt lat="47.28773" lon="-1.67541">
        <ele>107</ele>
        <time>2022-04-16T10:48:12Z</time>
      </trkpt>
      <trkpt lat="47.28776" lon="-1.67525">
        <ele>107</ele>
        <time>2022-04-16T10:48:14Z</time>
      </trkpt>
      <trkpt lat="47.2878" lon="-1.67509">
        <ele>107</ele>
        <time>2022-04-16T10:48:16Z</time>
      </trkpt>
      <trkpt lat="47.28784" lon="-1.67493">
        <ele>107</ele>
        <time>2022-04-16T10:48:18Z</time>
      </trkpt>
      <trkpt lat="47.28789" lon="-1.67477">
        <ele>108</ele>
        <time>2022-04-16T10:48:20Z</time>
      </trkpt>
      <trkpt lat="47.28793" lon="-1.67462">
        <ele>107</ele>
        <time>2022-04-16T10:48:22Z</time>
      </trkpt>
      <trkpt lat="47.28797" lon="-1.67448">
        <ele>108</ele>
        <time>2022-04-16T10:48:24Z</time>
      </trkpt>
      <trkpt lat="47.28802" lon="-1.67433">
        <ele>108</ele>
        <time>2022-04-16T10:48:26Z</time>
      </trkpt>
      <trkpt lat="47.28807" lon="-1.67419">
        <ele>109</ele>
        <time>2022-04-16T10:48:28Z</time>
      </trkpt>
      <trkpt lat="47.28812" lon="-1.67405">
        <ele>108</ele>
        <time>2022-04-16T10:48:30Z</time>
      </trkpt>
      <trkpt lat="47.28817" lon="-1.6739">
        <ele>109</ele>
        <time>2022-04-16T10:48:32Z</time>
      </trkpt>
      <trkpt lat="47.28822" lon="-1.67376">
        <ele>109</ele>
        <time>2022-04-16T10:48:34Z</time>
      </trkpt>
      <trkpt lat="47.28827" lon="-1.67364">
        <ele>109</ele>
        <time>2022-04-16T10:48:36Z</time>
      </trkpt>
      <trkpt lat="47.28835" lon="-1.67352">
        <ele>109</ele>
        <time>2022-04-16T10:48:38Z</time>
      </trkpt>
      <trkpt lat="47.28843" lon="-1.67343">
        <ele>109</ele>
        <time>2022-04-16T10:48:40Z</time>
      </trkpt>
      <trkpt lat="47.28852" lon="-1.67337">
        <ele>109</ele>
        <time>2022-04-16T10:48:42Z</time>
      </trkpt>
      <trkpt lat="47.28862" lon="-1.67333">
        <ele>110</ele>
        <time>2022-04-16T10:48:44Z</time>
      </trkpt>
      <trkpt lat="47.28873" lon="-1.67332">
        <ele>111</ele>
        <time>2022-04-16T10:48:46Z</time>
      </trkpt>
      <trkpt lat="47.28884" lon="-1.67331">
        <ele>111</ele>
        <time>2022-04-16T10:48:48Z</time>
      </trkpt>
      <trkpt lat="47.28895" lon="-1.67329">
        <ele>112</ele>
        <time>2022-04-16T10:48:50Z</time>
      </trkpt>
      <trkpt lat="47.28906" lon="-1.67328">
        <ele>112</ele>
        <time>2022-04-16T10:48:52Z</time>
      </trkpt>
      <trkpt lat="47.28917" lon="-1.67329">
        <ele>113</ele>
        <time>2022-04-16T10:48:54Z</time>
      </trkpt>
      <trkpt lat="47.28928" lon="-1.67332">
        <ele>113</ele>
        <time>2022-04-16T10:48:56Z</time>
      </trkpt>
      <trkpt lat="47.28939" lon="-1.67336">
        <ele>113</ele>
        <time>2022-04-16T10:48:58Z</time>
      </trkpt>
      <trkpt lat="47.28949" lon="-1.67341">
        <ele>113</ele>
        <time>2022-04-16T10:49:00Z</time>
      </trkpt>
      <trkpt lat="47.2896" lon="-1.67346">
        <ele>113</ele>
        <time>2022-04-16T10:49:02Z</time>
      </trkpt>
      <trkpt lat="47.28971" lon="-1.67351">
        <ele>113</ele>
        <time>2022-04-16T10:49:04Z</time>
      </trkpt>
      <trkpt lat="47.28982" lon="-1.67354">
        <ele>113</ele>
        <time>2022-04-16T10:49:06Z</time>
      </trkpt>
      <trkpt lat="47.28993" lon="-1.67354">
        <ele>112</ele>
        <time>2022-04-16T10:49:08Z</time>
      </trkpt>
      <trkpt lat="47.29004" lon="-1.67352">
        <ele>112</ele>
        <time>2022-04-16T10:49:10Z</time>
      </trkpt>
      <trkpt lat="47.29014" lon="-1.67349">
        <ele>113</ele>
        <time>2022-04-16T10:49:12Z</time>
      </trkpt>
      <trkpt lat="47.29025" lon="-1.67345">
        <ele>113</ele>
        <time>2022-04-16T10:49:14Z</time>
      </trkpt>
      <trkpt lat="47.29036" lon="-1.67341">
        <ele>113</ele>
        <time>2022-04-16T10:49:16Z</time>
      </trkpt>
      <trkpt lat="47.29047" lon="-1.67337">
        <ele>113</ele>
        <time>2022-04-16T10:49:18Z</time>
      </trkpt>
      <trkpt lat="47.29058" lon="-1.67333">
        <ele>113</ele>
        <time>2022-04-16T10:49:20Z</time>
      </trkpt>
      <trkpt lat="47.29069" lon="-1.67329">
        <ele>113</ele>
        <time>2022-04-16T10:49:22Z</time>
      </trkpt>
      <trkpt lat="47.2908" lon="-1.67325">
        <ele>113</ele>
        <time>2022-04-16T10:49:24Z</time>
      </trkpt>
      <trkpt lat="47.29091" lon="-1.67321">
        <ele>114</ele>
        <time>2022-04-16T10:49:26Z</time>
      </trkpt>
      <trkpt lat="47.29101" lon="-1.67318">
        <ele>114</ele>
        <time>2022-04-16T10:49:28Z</time>
      </trkpt>
      <trkpt lat="47.29112" lon="-1.67314">
        <ele>114</ele>
        <time>2022-04-16T10:49:30Z</time>
      </trkpt>
      <trkpt lat="47.29122" lon="-1.67312">
        <ele>114</ele>
        <time>2022-04-16T10:49:32Z</time>
      </trkpt>
      <trkpt lat="47.29133" lon="-1.67311">
        <ele>115</ele>
        <time>2022-04-16T10:49:34Z</time>
      </trkpt>
      <trkpt lat="47.29144" lon="-1.67311">
        <ele>116</ele>
        <time>2022-04-16T10:49:36Z</time>
      </trkpt>
      <trkpt lat="47.29155" lon="-1.67313">
        <ele>116</ele>
        <time>2022-04-16T10:49:38Z</time>
      </trkpt>
      <trkpt lat="47.29164" lon="-1.67316">
        <ele>117</ele>
        <time>2022-04-16T10:49:40Z</time>
      </trkpt>
      <trkpt lat="47.29174" lon="-1.67319">
        <ele>118</ele>
        <time>2022-04-16T10:49:42Z</time>
      </trkpt>
      <trkpt lat="47.29183" lon="-1.67321">
        <ele>119</ele>
        <time>2022-04-16T10:49:44Z</time>
      </trkpt>
      <trkpt lat="47.29193" lon="-1.67323">
        <ele>120</ele>
        <time>2022-04-16T10:49:46Z</time>
      </trkpt>
      <trkpt lat="47.29202" lon="-1.67324">
        <ele>120</ele>
        <time>2022-04-16T10:49:48Z</time>
      </trkpt>
      <trkpt lat="47.29212" lon="-1.67326">
        <ele>121</ele>
        <time>2022-04-16T10:49:50Z</time>
      </trkpt>
      <trkpt lat="47.29223" lon="-1.67327">
        <ele>122</ele>
        <time>2022-04-16T10:49:52Z</time>
      </trkpt>
      <trkpt lat="47.29235" lon="-1.67326">
        <ele>122</ele>
        <time>2022-04-16T10:49:54Z</time>
      </trkpt>
      <trkpt lat="47.29246" lon="-1.67324">
        <ele>120</ele>
        <time>2022-04-16T10:49:56Z</time>
      </trkpt>
      <trkpt lat="47.29258" lon="-1.67321">
        <ele>120</ele>
        <time>2022-04-16T10:49:58Z</time>
      </trkpt>
      <trkpt lat="47.29268" lon="-1.67316">
        <ele>119</ele>
        <time>2022-04-16T10:50:00Z</time>
      </trkpt>
      <trkpt lat="47.29282" lon="-1.67303">
        <ele>119</ele>
        <time>2022-04-16T10:50:03Z</time>
      </trkpt>
      <trkpt lat="47.29289" lon="-1.67291">
        <ele>119</ele>
        <time>2022-04-16T10:50:05Z</time>
      </trkpt>
      <trkpt lat="47.29296" lon="-1.67279">
        <ele>119</ele>
        <time>2022-04-16T10:50:07Z</time>
      </trkpt>
      <trkpt lat="47.29301" lon="-1.67267">
        <ele>119</ele>
        <time>2022-04-16T10:50:09Z</time>
      </trkpt>
      <trkpt lat="47.29311" lon="-1.67248">
        <ele>120</ele>
        <time>2022-04-16T10:50:12Z</time>
      </trkpt>
      <trkpt lat="47.29318" lon="-1.67234">
        <ele>120</ele>
        <time>2022-04-16T10:50:14Z</time>
      </trkpt>
      <trkpt lat="47.29325" lon="-1.67221">
        <ele>120</ele>
        <time>2022-04-16T10:50:16Z</time>
      </trkpt>
      <trkpt lat="47.29331" lon="-1.67208">
        <ele>120</ele>
        <time>2022-04-16T10:50:18Z</time>
      </trkpt>
      <trkpt lat="47.29338" lon="-1.67195">
        <ele>120</ele>
        <time>2022-04-16T10:50:20Z</time>
      </trkpt>
      <trkpt lat="47.29344" lon="-1.67182">
        <ele>120</ele>
        <time>2022-04-16T10:50:22Z</time>
      </trkpt>
      <trkpt lat="47.29351" lon="-1.67168">
        <ele>120</ele>
        <time>2022-04-16T10:50:24Z</time>
      </trkpt>
      <trkpt lat="47.29358" lon="-1.67155">
        <ele>120</ele>
        <time>2022-04-16T10:50:26Z</time>
      </trkpt>
      <trkpt lat="47.29368" lon="-1.67135">
        <ele>120</ele>
        <time>2022-04-16T10:50:29Z</time>
      </trkpt>
      <trkpt lat="47.29375" lon="-1.67121">
        <ele>119</ele>
        <time>2022-04-16T10:50:31Z</time>
      </trkpt>
      <trkpt lat="47.29381" lon="-1.67108">
        <ele>119</ele>
        <time>2022-04-16T10:50:33Z</time>
      </trkpt>
      <trkpt lat="47.29388" lon="-1.67095">
        <ele>119</ele>
        <time>2022-04-16T10:50:35Z</time>
      </trkpt>
      <trkpt lat="47.29394" lon="-1.67082">
        <ele>119</ele>
        <time>2022-04-16T10:50:37Z</time>
      </trkpt>
      <trkpt lat="47.29401" lon="-1.67068">
        <ele>119</ele>
        <time>2022-04-16T10:50:39Z</time>
      </trkpt>
      <trkpt lat="47.29408" lon="-1.67055">
        <ele>119</ele>
        <time>2022-04-16T10:50:41Z</time>
      </trkpt>
      <trkpt lat="47.29414" lon="-1.67042">
        <ele>119</ele>
        <time>2022-04-16T10:50:43Z</time>
      </trkpt>
      <trkpt lat="47.29425" lon="-1.67023">
        <ele>119</ele>
        <time>2022-04-16T10:50:46Z</time>
      </trkpt>
      <trkpt lat="47.29435" lon="-1.67004">
        <ele>119</ele>
        <time>2022-04-16T10:50:49Z</time>
      </trkpt>
      <trkpt lat="47.29442" lon="-1.66993">
        <ele>119</ele>
        <time>2022-04-16T10:50:51Z</time>
      </trkpt>
      <trkpt lat="47.29451" lon="-1.66983">
        <ele>119</ele>
        <time>2022-04-16T10:50:53Z</time>
      </trkpt>
      <trkpt lat="47.2946" lon="-1.66974">
        <ele>120</ele>
        <time>2022-04-16T10:50:55Z</time>
      </trkpt>
      <trkpt lat="47.29471" lon="-1.66967">
        <ele>119</ele>
        <time>2022-04-16T10:50:57Z</time>
      </trkpt>
      <trkpt lat="47.29481" lon="-1.6696">
        <ele>120</ele>
        <time>2022-04-16T10:50:59Z</time>
      </trkpt>
      <trkpt lat="47.29491" lon="-1.66954">
        <ele>120</ele>
        <time>2022-04-16T10:51:01Z</time>
      </trkpt>
      <trkpt lat="47.29502" lon="-1.66948">
        <ele>120</ele>
        <time>2022-04-16T10:51:03Z</time>
      </trkpt>
      <trkpt lat="47.29512" lon="-1.66942">
        <ele>120</ele>
        <time>2022-04-16T10:51:05Z</time>
      </trkpt>
      <trkpt lat="47.29523" lon="-1.66937">
        <ele>120</ele>
        <time>2022-04-16T10:51:07Z</time>
      </trkpt>
      <trkpt lat="47.29533" lon="-1.66931">
        <ele>120</ele>
        <time>2022-04-16T10:51:09Z</time>
      </trkpt>
      <trkpt lat="47.29544" lon="-1.66925">
        <ele>120</ele>
        <time>2022-04-16T10:51:11Z</time>
      </trkpt>
      <trkpt lat="47.29556" lon="-1.66918">
        <ele>119</ele>
        <time>2022-04-16T10:51:13Z</time>
      </trkpt>
      <trkpt lat="47.29566" lon="-1.66913">
        <ele>119</ele>
        <time>2022-04-16T10:51:15Z</time>
      </trkpt>
      <trkpt lat="47.29578" lon="-1.66906">
        <ele>119</ele>
        <time>2022-04-16T10:51:17Z</time>
      </trkpt>
      <trkpt lat="47.29591" lon="-1.66898">
        <ele>118</ele>
        <time>2022-04-16T10:51:19Z</time>
      </trkpt>
      <trkpt lat="47.29605" lon="-1.66891">
        <ele>117</ele>
        <time>2022-04-16T10:51:21Z</time>
      </trkpt>
      <trkpt lat="47.29618" lon="-1.66883">
        <ele>116</ele>
        <time>2022-04-16T10:51:23Z</time>
      </trkpt>
      <trkpt lat="47.29632" lon="-1.66875">
        <ele>116</ele>
        <time>2022-04-16T10:51:25Z</time>
      </trkpt>
      <trkpt lat="47.29645" lon="-1.66866">
        <ele>116</ele>
        <time>2022-04-16T10:51:27Z</time>
      </trkpt>
      <trkpt lat="47.29657" lon="-1.66854">
        <ele>116</ele>
        <time>2022-04-16T10:51:29Z</time>
      </trkpt>
      <trkpt lat="47.29668" lon="-1.66842">
        <ele>116</ele>
        <time>2022-04-16T10:51:31Z</time>
      </trkpt>
      <trkpt lat="47.29678" lon="-1.66828">
        <ele>116</ele>
        <time>2022-04-16T10:51:33Z</time>
      </trkpt>
      <trkpt lat="47.29686" lon="-1.66813">
        <ele>116</ele>
        <time>2022-04-16T10:51:35Z</time>
      </trkpt>
      <trkpt lat="47.29695" lon="-1.66798">
        <ele>116</ele>
        <time>2022-04-16T10:51:37Z</time>
      </trkpt>
      <trkpt lat="47.29704" lon="-1.66782">
        <ele>116</ele>
        <time>2022-04-16T10:51:39Z</time>
      </trkpt>
      <trkpt lat="47.29713" lon="-1.66768">
        <ele>116</ele>
        <time>2022-04-16T10:51:41Z</time>
      </trkpt>
      <trkpt lat="47.29722" lon="-1.66753">
        <ele>117</ele>
        <time>2022-04-16T10:51:43Z</time>
      </trkpt>
      <trkpt lat="47.29731" lon="-1.66738">
        <ele>116</ele>
        <time>2022-04-16T10:51:45Z</time>
      </trkpt>
      <trkpt lat="47.2974" lon="-1.66723">
        <ele>116</ele>
        <time>2022-04-16T10:51:47Z</time>
      </trkpt>
      <trkpt lat="47.29749" lon="-1.66709">
        <ele>116</ele>
        <time>2022-04-16T10:51:49Z</time>
      </trkpt>
      <trkpt lat="47.29759" lon="-1.66696">
        <ele>116</ele>
        <time>2022-04-16T10:51:51Z</time>
      </trkpt>
      <trkpt lat="47.29769" lon="-1.66683">
        <ele>117</ele>
        <time>2022-04-16T10:51:53Z</time>
      </trkpt>
      <trkpt lat="47.29779" lon="-1.66671">
        <ele>117</ele>
        <time>2022-04-16T10:51:55Z</time>
      </trkpt>
      <trkpt lat="47.2979" lon="-1.66661">
        <ele>117</ele>
        <time>2022-04-16T10:51:57Z</time>
      </trkpt>
      <trkpt lat="47.298" lon="-1.66651">
        <ele>118</ele>
        <time>2022-04-16T10:51:59Z</time>
      </trkpt>
      <trkpt lat="47.2981" lon="-1.6664">
        <ele>120</ele>
        <time>2022-04-16T10:52:01Z</time>
      </trkpt>
      <trkpt lat="47.29819" lon="-1.6663">
        <ele>120</ele>
        <time>2022-04-16T10:52:03Z</time>
      </trkpt>
      <trkpt lat="47.29829" lon="-1.66619">
        <ele>120</ele>
        <time>2022-04-16T10:52:05Z</time>
      </trkpt>
      <trkpt lat="47.29839" lon="-1.66609">
        <ele>120</ele>
        <time>2022-04-16T10:52:07Z</time>
      </trkpt>
      <trkpt lat="47.29848" lon="-1.66598">
        <ele>120</ele>
        <time>2022-04-16T10:52:09Z</time>
      </trkpt>
      <trkpt lat="47.29858" lon="-1.66585">
        <ele>119</ele>
        <time>2022-04-16T10:52:11Z</time>
      </trkpt>
      <trkpt lat="47.29867" lon="-1.66572">
        <ele>119</ele>
        <time>2022-04-16T10:52:13Z</time>
      </trkpt>
      <trkpt lat="47.29875" lon="-1.6656">
        <ele>119</ele>
        <time>2022-04-16T10:52:15Z</time>
      </trkpt>
      <trkpt lat="47.29883" lon="-1.66547">
        <ele>119</ele>
        <time>2022-04-16T10:52:17Z</time>
      </trkpt>
      <trkpt lat="47.2989" lon="-1.66535">
        <ele>119</ele>
        <time>2022-04-16T10:52:19Z</time>
      </trkpt>
      <trkpt lat="47.29899" lon="-1.66522">
        <ele>119</ele>
        <time>2022-04-16T10:52:21Z</time>
      </trkpt>
      <trkpt lat="47.29906" lon="-1.66508">
        <ele>119</ele>
        <time>2022-04-16T10:52:23Z</time>
      </trkpt>
      <trkpt lat="47.29915" lon="-1.66494">
        <ele>118</ele>
        <time>2022-04-16T10:52:25Z</time>
      </trkpt>
      <trkpt lat="47.29923" lon="-1.66481">
        <ele>118</ele>
        <time>2022-04-16T10:52:27Z</time>
      </trkpt>
      <trkpt lat="47.2993" lon="-1.66469">
        <ele>118</ele>
        <time>2022-04-16T10:52:29Z</time>
      </trkpt>
      <trkpt lat="47.29937" lon="-1.66458">
        <ele>118</ele>
        <time>2022-04-16T10:52:31Z</time>
      </trkpt>
      <trkpt lat="47.29942" lon="-1.66448">
        <ele>117</ele>
        <time>2022-04-16T10:52:35Z</time>
      </trkpt>
      <trkpt lat="47.29951" lon="-1.66436">
        <ele>117</ele>
        <time>2022-04-16T10:52:42Z</time>
      </trkpt>
      <trkpt lat="47.2996" lon="-1.66425">
        <ele>117</ele>
        <time>2022-04-16T10:52:44Z</time>
      </trkpt>
      <trkpt lat="47.29968" lon="-1.66413">
        <ele>117</ele>
        <time>2022-04-16T10:52:46Z</time>
      </trkpt>
      <trkpt lat="47.29976" lon="-1.664">
        <ele>116</ele>
        <time>2022-04-16T10:52:48Z</time>
      </trkpt>
      <trkpt lat="47.29984" lon="-1.66386">
        <ele>116</ele>
        <time>2022-04-16T10:52:50Z</time>
      </trkpt>
      <trkpt lat="47.29992" lon="-1.66373">
        <ele>116</ele>
        <time>2022-04-16T10:52:52Z</time>
      </trkpt>
      <trkpt lat="47.30001" lon="-1.66359">
        <ele>116</ele>
        <time>2022-04-16T10:52:54Z</time>
      </trkpt>
      <trkpt lat="47.30009" lon="-1.66345">
        <ele>116</ele>
        <time>2022-04-16T10:52:56Z</time>
      </trkpt>
      <trkpt lat="47.30018" lon="-1.66331">
        <ele>116</ele>
        <time>2022-04-16T10:52:58Z</time>
      </trkpt>
      <trkpt lat="47.30027" lon="-1.66317">
        <ele>116</ele>
        <time>2022-04-16T10:53:00Z</time>
      </trkpt>
      <trkpt lat="47.30036" lon="-1.66303">
        <ele>116</ele>
        <time>2022-04-16T10:53:02Z</time>
      </trkpt>
      <trkpt lat="47.30045" lon="-1.66289">
        <ele>115</ele>
        <time>2022-04-16T10:53:04Z</time>
      </trkpt>
      <trkpt lat="47.30054" lon="-1.66275">
        <ele>115</ele>
        <time>2022-04-16T10:53:06Z</time>
      </trkpt>
      <trkpt lat="47.30063" lon="-1.66262">
        <ele>116</ele>
        <time>2022-04-16T10:53:08Z</time>
      </trkpt>
      <trkpt lat="47.30072" lon="-1.66248">
        <ele>116</ele>
        <time>2022-04-16T10:53:10Z</time>
      </trkpt>
      <trkpt lat="47.30081" lon="-1.66234">
        <ele>115</ele>
        <time>2022-04-16T10:53:12Z</time>
      </trkpt>
      <trkpt lat="47.3009" lon="-1.66221">
        <ele>115</ele>
        <time>2022-04-16T10:53:14Z</time>
      </trkpt>
      <trkpt lat="47.30099" lon="-1.66208">
        <ele>115</ele>
        <time>2022-04-16T10:53:16Z</time>
      </trkpt>
      <trkpt lat="47.30108" lon="-1.66196">
        <ele>115</ele>
        <time>2022-04-16T10:53:18Z</time>
      </trkpt>
      <trkpt lat="47.30117" lon="-1.66184">
        <ele>115</ele>
        <time>2022-04-16T10:53:20Z</time>
      </trkpt>
      <trkpt lat="47.30127" lon="-1.66173">
        <ele>116</ele>
        <time>2022-04-16T10:53:22Z</time>
      </trkpt>
      <trkpt lat="47.30137" lon="-1.66162">
        <ele>116</ele>
        <time>2022-04-16T10:53:24Z</time>
      </trkpt>
      <trkpt lat="47.30146" lon="-1.66153">
        <ele>117</ele>
        <time>2022-04-16T10:53:26Z</time>
      </trkpt>
      <trkpt lat="47.30155" lon="-1.66143">
        <ele>118</ele>
        <time>2022-04-16T10:53:28Z</time>
      </trkpt>
      <trkpt lat="47.30165" lon="-1.66133">
        <ele>119</ele>
        <time>2022-04-16T10:53:30Z</time>
      </trkpt>
      <trkpt lat="47.30174" lon="-1.66124">
        <ele>119</ele>
        <time>2022-04-16T10:53:32Z</time>
      </trkpt>
      <trkpt lat="47.30184" lon="-1.66113">
        <ele>120</ele>
        <time>2022-04-16T10:53:34Z</time>
      </trkpt>
      <trkpt lat="47.30193" lon="-1.66103">
        <ele>120</ele>
        <time>2022-04-16T10:53:36Z</time>
      </trkpt>
      <trkpt lat="47.30203" lon="-1.66092">
        <ele>120</ele>
        <time>2022-04-16T10:53:38Z</time>
      </trkpt>
      <trkpt lat="47.30213" lon="-1.66082">
        <ele>120</ele>
        <time>2022-04-16T10:53:40Z</time>
      </trkpt>
      <trkpt lat="47.30222" lon="-1.66072">
        <ele>120</ele>
        <time>2022-04-16T10:53:42Z</time>
      </trkpt>
      <trkpt lat="47.30231" lon="-1.66062">
        <ele>120</ele>
        <time>2022-04-16T10:53:44Z</time>
      </trkpt>
      <trkpt lat="47.30241" lon="-1.66053">
        <ele>120</ele>
        <time>2022-04-16T10:53:46Z</time>
      </trkpt>
      <trkpt lat="47.30251" lon="-1.66043">
        <ele>120</ele>
        <time>2022-04-16T10:53:48Z</time>
      </trkpt>
      <trkpt lat="47.3026" lon="-1.66033">
        <ele>121</ele>
        <time>2022-04-16T10:53:50Z</time>
      </trkpt>
      <trkpt lat="47.3027" lon="-1.66023">
        <ele>120</ele>
        <time>2022-04-16T10:53:52Z</time>
      </trkpt>
      <trkpt lat="47.30279" lon="-1.66013">
        <ele>120</ele>
        <time>2022-04-16T10:53:54Z</time>
      </trkpt>
      <trkpt lat="47.30289" lon="-1.66003">
        <ele>120</ele>
        <time>2022-04-16T10:53:56Z</time>
      </trkpt>
      <trkpt lat="47.30299" lon="-1.65994">
        <ele>120</ele>
        <time>2022-04-16T10:53:58Z</time>
      </trkpt>
      <trkpt lat="47.30308" lon="-1.65984">
        <ele>120</ele>
        <time>2022-04-16T10:54:00Z</time>
      </trkpt>
      <trkpt lat="47.30318" lon="-1.65974">
        <ele>120</ele>
        <time>2022-04-16T10:54:02Z</time>
      </trkpt>
      <trkpt lat="47.30327" lon="-1.65964">
        <ele>120</ele>
        <time>2022-04-16T10:54:04Z</time>
      </trkpt>
      <trkpt lat="47.30336" lon="-1.65955">
        <ele>120</ele>
        <time>2022-04-16T10:54:06Z</time>
      </trkpt>
      <trkpt lat="47.30346" lon="-1.65945">
        <ele>120</ele>
        <time>2022-04-16T10:54:08Z</time>
      </trkpt>
      <trkpt lat="47.30355" lon="-1.65935">
        <ele>120</ele>
        <time>2022-04-16T10:54:10Z</time>
      </trkpt>
      <trkpt lat="47.30364" lon="-1.65926">
        <ele>119</ele>
        <time>2022-04-16T10:54:12Z</time>
      </trkpt>
      <trkpt lat="47.30373" lon="-1.65916">
        <ele>119</ele>
        <time>2022-04-16T10:54:14Z</time>
      </trkpt>
      <trkpt lat="47.30383" lon="-1.65906">
        <ele>118</ele>
        <time>2022-04-16T10:54:16Z</time>
      </trkpt>
      <trkpt lat="47.30392" lon="-1.65897">
        <ele>119</ele>
        <time>2022-04-16T10:54:18Z</time>
      </trkpt>
      <trkpt lat="47.30402" lon="-1.65887">
        <ele>118</ele>
        <time>2022-04-16T10:54:20Z</time>
      </trkpt>
      <trkpt lat="47.30411" lon="-1.65877">
        <ele>118</ele>
        <time>2022-04-16T10:54:22Z</time>
      </trkpt>
      <trkpt lat="47.3042" lon="-1.65868">
        <ele>118</ele>
        <time>2022-04-16T10:54:24Z</time>
      </trkpt>
      <trkpt lat="47.30429" lon="-1.65859">
        <ele>119</ele>
        <time>2022-04-16T10:54:26Z</time>
      </trkpt>
      <trkpt lat="47.30438" lon="-1.6585">
        <ele>119</ele>
        <time>2022-04-16T10:54:28Z</time>
      </trkpt>
      <trkpt lat="47.30447" lon="-1.6584">
        <ele>119</ele>
        <time>2022-04-16T10:54:30Z</time>
      </trkpt>
      <trkpt lat="47.30456" lon="-1.6583">
        <ele>119</ele>
        <time>2022-04-16T10:54:32Z</time>
      </trkpt>
      <trkpt lat="47.30465" lon="-1.65821">
        <ele>119</ele>
        <time>2022-04-16T10:54:34Z</time>
      </trkpt>
      <trkpt lat="47.30474" lon="-1.65811">
        <ele>119</ele>
        <time>2022-04-16T10:54:36Z</time>
      </trkpt>
      <trkpt lat="47.30484" lon="-1.65802">
        <ele>119</ele>
        <time>2022-04-16T10:54:38Z</time>
      </trkpt>
      <trkpt lat="47.30493" lon="-1.65792">
        <ele>118</ele>
        <time>2022-04-16T10:54:40Z</time>
      </trkpt>
      <trkpt lat="47.30502" lon="-1.65782">
        <ele>118</ele>
        <time>2022-04-16T10:54:42Z</time>
      </trkpt>
      <trkpt lat="47.30511" lon="-1.65773">
        <ele>118</ele>
        <time>2022-04-16T10:54:44Z</time>
      </trkpt>
      <trkpt lat="47.3052" lon="-1.65763">
        <ele>119</ele>
        <time>2022-04-16T10:54:46Z</time>
      </trkpt>
      <trkpt lat="47.30529" lon="-1.65753">
        <ele>118</ele>
        <time>2022-04-16T10:54:48Z</time>
      </trkpt>
      <trkpt lat="47.30538" lon="-1.65743">
        <ele>118</ele>
        <time>2022-04-16T10:54:50Z</time>
      </trkpt>
      <trkpt lat="47.30548" lon="-1.65734">
        <ele>119</ele>
        <time>2022-04-16T10:54:52Z</time>
      </trkpt>
      <trkpt lat="47.30557" lon="-1.65724">
        <ele>118</ele>
        <time>2022-04-16T10:54:54Z</time>
      </trkpt>
      <trkpt lat="47.30566" lon="-1.65715">
        <ele>118</ele>
        <time>2022-04-16T10:54:56Z</time>
      </trkpt>
      <trkpt lat="47.30575" lon="-1.65705">
        <ele>118</ele>
        <time>2022-04-16T10:54:58Z</time>
      </trkpt>
      <trkpt lat="47.30584" lon="-1.65696">
        <ele>119</ele>
        <time>2022-04-16T10:55:00Z</time>
      </trkpt>
      <trkpt lat="47.30594" lon="-1.65686">
        <ele>119</ele>
        <time>2022-04-16T10:55:02Z</time>
      </trkpt>
      <trkpt lat="47.30603" lon="-1.65676">
        <ele>119</ele>
        <time>2022-04-16T10:55:04Z</time>
      </trkpt>
      <trkpt lat="47.30613" lon="-1.65667">
        <ele>119</ele>
        <time>2022-04-16T10:55:06Z</time>
      </trkpt>
      <trkpt lat="47.30622" lon="-1.65657">
        <ele>119</ele>
        <time>2022-04-16T10:55:08Z</time>
      </trkpt>
      <trkpt lat="47.30632" lon="-1.65647">
        <ele>119</ele>
        <time>2022-04-16T10:55:10Z</time>
      </trkpt>
      <trkpt lat="47.30642" lon="-1.65638">
        <ele>119</ele>
        <time>2022-04-16T10:55:12Z</time>
      </trkpt>
      <trkpt lat="47.30651" lon="-1.65628">
        <ele>119</ele>
        <time>2022-04-16T10:55:14Z</time>
      </trkpt>
      <trkpt lat="47.3066" lon="-1.65618">
        <ele>119</ele>
        <time>2022-04-16T10:55:16Z</time>
      </trkpt>
      <trkpt lat="47.3067" lon="-1.65608">
        <ele>119</ele>
        <time>2022-04-16T10:55:18Z</time>
      </trkpt>
      <trkpt lat="47.30679" lon="-1.65598">
        <ele>120</ele>
        <time>2022-04-16T10:55:20Z</time>
      </trkpt>
      <trkpt lat="47.30689" lon="-1.65588">
        <ele>120</ele>
        <time>2022-04-16T10:55:22Z</time>
      </trkpt>
      <trkpt lat="47.30698" lon="-1.65578">
        <ele>120</ele>
        <time>2022-04-16T10:55:24Z</time>
      </trkpt>
      <trkpt lat="47.30707" lon="-1.65567">
        <ele>120</ele>
        <time>2022-04-16T10:55:26Z</time>
      </trkpt>
      <trkpt lat="47.30717" lon="-1.65556">
        <ele>121</ele>
        <time>2022-04-16T10:55:28Z</time>
      </trkpt>
      <trkpt lat="47.30726" lon="-1.65544">
        <ele>120</ele>
        <time>2022-04-16T10:55:30Z</time>
      </trkpt>
      <trkpt lat="47.30733" lon="-1.65532">
        <ele>120</ele>
        <time>2022-04-16T10:55:32Z</time>
      </trkpt>
      <trkpt lat="47.30739" lon="-1.65518">
        <ele>120</ele>
        <time>2022-04-16T10:55:34Z</time>
      </trkpt>
      <trkpt lat="47.30744" lon="-1.65505">
        <ele>120</ele>
        <time>2022-04-16T10:55:36Z</time>
      </trkpt>
      <trkpt lat="47.30751" lon="-1.65492">
        <ele>120</ele>
        <time>2022-04-16T10:55:38Z</time>
      </trkpt>
      <trkpt lat="47.30758" lon="-1.65479">
        <ele>119</ele>
        <time>2022-04-16T10:55:40Z</time>
      </trkpt>
      <trkpt lat="47.30766" lon="-1.65466">
        <ele>119</ele>
        <time>2022-04-16T10:55:42Z</time>
      </trkpt>
      <trkpt lat="47.30773" lon="-1.65453">
        <ele>119</ele>
        <time>2022-04-16T10:55:44Z</time>
      </trkpt>
      <trkpt lat="47.30781" lon="-1.6544">
        <ele>119</ele>
        <time>2022-04-16T10:55:46Z</time>
      </trkpt>
      <trkpt lat="47.30788" lon="-1.65427">
        <ele>119</ele>
        <time>2022-04-16T10:55:48Z</time>
      </trkpt>
      <trkpt lat="47.30796" lon="-1.65413">
        <ele>119</ele>
        <time>2022-04-16T10:55:50Z</time>
      </trkpt>
      <trkpt lat="47.30803" lon="-1.654">
        <ele>119</ele>
        <time>2022-04-16T10:55:52Z</time>
      </trkpt>
      <trkpt lat="47.30811" lon="-1.65387">
        <ele>119</ele>
        <time>2022-04-16T10:55:54Z</time>
      </trkpt>
      <trkpt lat="47.30818" lon="-1.65375">
        <ele>119</ele>
        <time>2022-04-16T10:55:56Z</time>
      </trkpt>
      <trkpt lat="47.30825" lon="-1.65362">
        <ele>118</ele>
        <time>2022-04-16T10:55:58Z</time>
      </trkpt>
      <trkpt lat="47.30833" lon="-1.65349">
        <ele>118</ele>
        <time>2022-04-16T10:56:00Z</time>
      </trkpt>
      <trkpt lat="47.3084" lon="-1.65335">
        <ele>118</ele>
        <time>2022-04-16T10:56:02Z</time>
      </trkpt>
      <trkpt lat="47.30848" lon="-1.65322">
        <ele>117</ele>
        <time>2022-04-16T10:56:04Z</time>
      </trkpt>
      <trkpt lat="47.30856" lon="-1.65307">
        <ele>117</ele>
        <time>2022-04-16T10:56:06Z</time>
      </trkpt>
      <trkpt lat="47.30864" lon="-1.65293">
        <ele>117</ele>
        <time>2022-04-16T10:56:08Z</time>
      </trkpt>
      <trkpt lat="47.30872" lon="-1.65279">
        <ele>117</ele>
        <time>2022-04-16T10:56:10Z</time>
      </trkpt>
      <trkpt lat="47.3088" lon="-1.65265">
        <ele>117</ele>
        <time>2022-04-16T10:56:12Z</time>
      </trkpt>
      <trkpt lat="47.30888" lon="-1.65252">
        <ele>117</ele>
        <time>2022-04-16T10:56:14Z</time>
      </trkpt>
      <trkpt lat="47.30896" lon="-1.65237">
        <ele>116</ele>
        <time>2022-04-16T10:56:16Z</time>
      </trkpt>
      <trkpt lat="47.30904" lon="-1.65223">
        <ele>116</ele>
        <time>2022-04-16T10:56:18Z</time>
      </trkpt>
      <trkpt lat="47.30912" lon="-1.65208">
        <ele>116</ele>
        <time>2022-04-16T10:56:20Z</time>
      </trkpt>
      <trkpt lat="47.3092" lon="-1.65194">
        <ele>115</ele>
        <time>2022-04-16T10:56:22Z</time>
      </trkpt>
      <trkpt lat="47.30929" lon="-1.65179">
        <ele>115</ele>
        <time>2022-04-16T10:56:24Z</time>
      </trkpt>
      <trkpt lat="47.30937" lon="-1.65164">
        <ele>115</ele>
        <time>2022-04-16T10:56:26Z</time>
      </trkpt>
      <trkpt lat="47.30945" lon="-1.65149">
        <ele>115</ele>
        <time>2022-04-16T10:56:28Z</time>
      </trkpt>
      <trkpt lat="47.30953" lon="-1.65134">
        <ele>115</ele>
        <time>2022-04-16T10:56:30Z</time>
      </trkpt>
      <trkpt lat="47.30961" lon="-1.6512">
        <ele>115</ele>
        <time>2022-04-16T10:56:32Z</time>
      </trkpt>
      <trkpt lat="47.3097" lon="-1.65105">
        <ele>115</ele>
        <time>2022-04-16T10:56:34Z</time>
      </trkpt>
      <trkpt lat="47.30978" lon="-1.65092">
        <ele>115</ele>
        <time>2022-04-16T10:56:36Z</time>
      </trkpt>
      <trkpt lat="47.30988" lon="-1.65082">
        <ele>115</ele>
        <time>2022-04-16T10:56:38Z</time>
      </trkpt>
      <trkpt lat="47.30999" lon="-1.65075">
        <ele>115</ele>
        <time>2022-04-16T10:56:40Z</time>
      </trkpt>
      <trkpt lat="47.31011" lon="-1.65068">
        <ele>116</ele>
        <time>2022-04-16T10:56:42Z</time>
      </trkpt>
      <trkpt lat="47.31023" lon="-1.65062">
        <ele>116</ele>
        <time>2022-04-16T10:56:44Z</time>
      </trkpt>
      <trkpt lat="47.31035" lon="-1.65055">
        <ele>115</ele>
        <time>2022-04-16T10:56:46Z</time>
      </trkpt>
      <trkpt lat="47.31048" lon="-1.65049">
        <ele>115</ele>
        <time>2022-04-16T10:56:48Z</time>
      </trkpt>
      <trkpt lat="47.3106" lon="-1.65044">
        <ele>115</ele>
        <time>2022-04-16T10:56:50Z</time>
      </trkpt>
      <trkpt lat="47.31073" lon="-1.6504">
        <ele>116</ele>
        <time>2022-04-16T10:56:52Z</time>
      </trkpt>
      <trkpt lat="47.31086" lon="-1.65036">
        <ele>115</ele>
        <time>2022-04-16T10:56:54Z</time>
      </trkpt>
      <trkpt lat="47.31099" lon="-1.65032">
        <ele>115</ele>
        <time>2022-04-16T10:56:56Z</time>
      </trkpt>
      <trkpt lat="47.31112" lon="-1.65031">
        <ele>115</ele>
        <time>2022-04-16T10:56:58Z</time>
      </trkpt>
      <trkpt lat="47.31125" lon="-1.65033">
        <ele>115</ele>
        <time>2022-04-16T10:57:00Z</time>
      </trkpt>
      <trkpt lat="47.31137" lon="-1.65037">
        <ele>115</ele>
        <time>2022-04-16T10:57:02Z</time>
      </trkpt>
      <trkpt lat="47.31148" lon="-1.65044">
        <ele>115</ele>
        <time>2022-04-16T10:57:04Z</time>
      </trkpt>
      <trkpt lat="47.31159" lon="-1.65051">
        <ele>114</ele>
        <time>2022-04-16T10:57:06Z</time>
      </trkpt>
      <trkpt lat="47.31171" lon="-1.65055">
        <ele>114</ele>
        <time>2022-04-16T10:57:08Z</time>
      </trkpt>
      <trkpt lat="47.31182" lon="-1.65056">
        <ele>115</ele>
        <time>2022-04-16T10:57:10Z</time>
      </trkpt>
      <trkpt lat="47.31192" lon="-1.65054">
        <ele>115</ele>
        <time>2022-04-16T10:57:12Z</time>
      </trkpt>
      <trkpt lat="47.31202" lon="-1.65051">
        <ele>115</ele>
        <time>2022-04-16T10:57:14Z</time>
      </trkpt>
      <trkpt lat="47.31211" lon="-1.65046">
        <ele>115</ele>
        <time>2022-04-16T10:57:16Z</time>
      </trkpt>
      <trkpt lat="47.31221" lon="-1.6504">
        <ele>116</ele>
        <time>2022-04-16T10:57:18Z</time>
      </trkpt>
      <trkpt lat="47.3123" lon="-1.65035">
        <ele>117</ele>
        <time>2022-04-16T10:57:20Z</time>
      </trkpt>
      <trkpt lat="47.31239" lon="-1.6503">
        <ele>117</ele>
        <time>2022-04-16T10:57:22Z</time>
      </trkpt>
      <trkpt lat="47.31248" lon="-1.65025">
        <ele>117</ele>
        <time>2022-04-16T10:57:24Z</time>
      </trkpt>
      <trkpt lat="47.31257" lon="-1.6502">
        <ele>118</ele>
        <time>2022-04-16T10:57:26Z</time>
      </trkpt>
      <trkpt lat="47.31266" lon="-1.65014">
        <ele>118</ele>
        <time>2022-04-16T10:57:28Z</time>
      </trkpt>
      <trkpt lat="47.31276" lon="-1.65008">
        <ele>118</ele>
        <time>2022-04-16T10:57:30Z</time>
      </trkpt>
      <trkpt lat="47.31285" lon="-1.65003">
        <ele>118</ele>
        <time>2022-04-16T10:57:32Z</time>
      </trkpt>
      <trkpt lat="47.31295" lon="-1.64997">
        <ele>119</ele>
        <time>2022-04-16T10:57:34Z</time>
      </trkpt>
      <trkpt lat="47.31305" lon="-1.6499">
        <ele>119</ele>
        <time>2022-04-16T10:57:36Z</time>
      </trkpt>
      <trkpt lat="47.31314" lon="-1.64984">
        <ele>119</ele>
        <time>2022-04-16T10:57:38Z</time>
      </trkpt>
      <trkpt lat="47.31324" lon="-1.64978">
        <ele>119</ele>
        <time>2022-04-16T10:57:40Z</time>
      </trkpt>
      <trkpt lat="47.31334" lon="-1.64972">
        <ele>119</ele>
        <time>2022-04-16T10:57:42Z</time>
      </trkpt>
      <trkpt lat="47.31343" lon="-1.64966">
        <ele>119</ele>
        <time>2022-04-16T10:57:44Z</time>
      </trkpt>
      <trkpt lat="47.31353" lon="-1.6496">
        <ele>119</ele>
        <time>2022-04-16T10:57:46Z</time>
      </trkpt>
      <trkpt lat="47.31362" lon="-1.64954">
        <ele>119</ele>
        <time>2022-04-16T10:57:48Z</time>
      </trkpt>
      <trkpt lat="47.31372" lon="-1.64947">
        <ele>119</ele>
        <time>2022-04-16T10:57:50Z</time>
      </trkpt>
      <trkpt lat="47.31382" lon="-1.64941">
        <ele>119</ele>
        <time>2022-04-16T10:57:52Z</time>
      </trkpt>
      <trkpt lat="47.31393" lon="-1.64935">
        <ele>120</ele>
        <time>2022-04-16T10:57:54Z</time>
      </trkpt>
      <trkpt lat="47.31403" lon="-1.64928">
        <ele>121</ele>
        <time>2022-04-16T10:57:56Z</time>
      </trkpt>
      <trkpt lat="47.31414" lon="-1.64922">
        <ele>121</ele>
        <time>2022-04-16T10:57:58Z</time>
      </trkpt>
      <trkpt lat="47.31426" lon="-1.64917">
        <ele>121</ele>
        <time>2022-04-16T10:58:00Z</time>
      </trkpt>
      <trkpt lat="47.31438" lon="-1.64914">
        <ele>121</ele>
        <time>2022-04-16T10:58:02Z</time>
      </trkpt>
      <trkpt lat="47.31452" lon="-1.64913">
        <ele>121</ele>
        <time>2022-04-16T10:58:04Z</time>
      </trkpt>
      <trkpt lat="47.31466" lon="-1.64913">
        <ele>121</ele>
        <time>2022-04-16T10:58:06Z</time>
      </trkpt>
      <trkpt lat="47.31481" lon="-1.64913">
        <ele>121</ele>
        <time>2022-04-16T10:58:08Z</time>
      </trkpt>
      <trkpt lat="47.31495" lon="-1.64912">
        <ele>121</ele>
        <time>2022-04-16T10:58:10Z</time>
      </trkpt>
      <trkpt lat="47.31507" lon="-1.64908">
        <ele>120</ele>
        <time>2022-04-16T10:58:12Z</time>
      </trkpt>
      <trkpt lat="47.31517" lon="-1.64904">
        <ele>118</ele>
        <time>2022-04-16T10:58:14Z</time>
      </trkpt>
      <trkpt lat="47.31529" lon="-1.64899">
        <ele>117</ele>
        <time>2022-04-16T10:58:16Z</time>
      </trkpt>
      <trkpt lat="47.31541" lon="-1.64892">
        <ele>116</ele>
        <time>2022-04-16T10:58:18Z</time>
      </trkpt>
      <trkpt lat="47.31552" lon="-1.64884">
        <ele>115</ele>
        <time>2022-04-16T10:58:20Z</time>
      </trkpt>
      <trkpt lat="47.31564" lon="-1.64875">
        <ele>115</ele>
        <time>2022-04-16T10:58:22Z</time>
      </trkpt>
      <trkpt lat="47.31575" lon="-1.64866">
        <ele>115</ele>
        <time>2022-04-16T10:58:24Z</time>
      </trkpt>
      <trkpt lat="47.31586" lon="-1.64857">
        <ele>114</ele>
        <time>2022-04-16T10:58:26Z</time>
      </trkpt>
      <trkpt lat="47.31597" lon="-1.64848">
        <ele>114</ele>
        <time>2022-04-16T10:58:28Z</time>
      </trkpt>
      <trkpt lat="47.31609" lon="-1.6484">
        <ele>113</ele>
        <time>2022-04-16T10:58:30Z</time>
      </trkpt>
      <trkpt lat="47.3162" lon="-1.6483">
        <ele>113</ele>
        <time>2022-04-16T10:58:32Z</time>
      </trkpt>
      <trkpt lat="47.31632" lon="-1.64817">
        <ele>112</ele>
        <time>2022-04-16T10:58:34Z</time>
      </trkpt>
      <trkpt lat="47.31643" lon="-1.64804">
        <ele>110</ele>
        <time>2022-04-16T10:58:36Z</time>
      </trkpt>
      <trkpt lat="47.31655" lon="-1.6479">
        <ele>110</ele>
        <time>2022-04-16T10:58:38Z</time>
      </trkpt>
      <trkpt lat="47.31667" lon="-1.64776">
        <ele>109</ele>
        <time>2022-04-16T10:58:40Z</time>
      </trkpt>
      <trkpt lat="47.3168" lon="-1.64763">
        <ele>108</ele>
        <time>2022-04-16T10:58:42Z</time>
      </trkpt>
      <trkpt lat="47.31693" lon="-1.6475">
        <ele>107</ele>
        <time>2022-04-16T10:58:44Z</time>
      </trkpt>
      <trkpt lat="47.31705" lon="-1.64738">
        <ele>107</ele>
        <time>2022-04-16T10:58:46Z</time>
      </trkpt>
      <trkpt lat="47.31717" lon="-1.64727">
        <ele>107</ele>
        <time>2022-04-16T10:58:48Z</time>
      </trkpt>
      <trkpt lat="47.31729" lon="-1.64716">
        <ele>107</ele>
        <time>2022-04-16T10:58:50Z</time>
      </trkpt>
      <trkpt lat="47.31741" lon="-1.64705">
        <ele>107</ele>
        <time>2022-04-16T10:58:52Z</time>
      </trkpt>
      <trkpt lat="47.31754" lon="-1.64696">
        <ele>107</ele>
        <time>2022-04-16T10:58:54Z</time>
      </trkpt>
      <trkpt lat="47.31767" lon="-1.6469">
        <ele>107</ele>
        <time>2022-04-16T10:58:56Z</time>
      </trkpt>
      <trkpt lat="47.31779" lon="-1.64685">
        <ele>106</ele>
        <time>2022-04-16T10:58:58Z</time>
      </trkpt>
      <trkpt lat="47.31792" lon="-1.6468">
        <ele>107</ele>
        <time>2022-04-16T10:59:00Z</time>
      </trkpt>
      <trkpt lat="47.31806" lon="-1.64675">
        <ele>107</ele>
        <time>2022-04-16T10:59:02Z</time>
      </trkpt>
      <trkpt lat="47.3182" lon="-1.64669">
        <ele>106</ele>
        <time>2022-04-16T10:59:04Z</time>
      </trkpt>
      <trkpt lat="47.31834" lon="-1.64665">
        <ele>106</ele>
        <time>2022-04-16T10:59:06Z</time>
      </trkpt>
      <trkpt lat="47.31848" lon="-1.6466">
        <ele>106</ele>
        <time>2022-04-16T10:59:08Z</time>
      </trkpt>
      <trkpt lat="47.31862" lon="-1.64653">
        <ele>105</ele>
        <time>2022-04-16T10:59:10Z</time>
      </trkpt>
      <trkpt lat="47.31876" lon="-1.64648">
        <ele>105</ele>
        <time>2022-04-16T10:59:12Z</time>
      </trkpt>
      <trkpt lat="47.31889" lon="-1.64643">
        <ele>105</ele>
        <time>2022-04-16T10:59:14Z</time>
      </trkpt>
      <trkpt lat="47.31903" lon="-1.64638">
        <ele>104</ele>
        <time>2022-04-16T10:59:16Z</time>
      </trkpt>
      <trkpt lat="47.31916" lon="-1.64632">
        <ele>103</ele>
        <time>2022-04-16T10:59:18Z</time>
      </trkpt>
      <trkpt lat="47.3193" lon="-1.64627">
        <ele>103</ele>
        <time>2022-04-16T10:59:20Z</time>
      </trkpt>
      <trkpt lat="47.31944" lon="-1.64621">
        <ele>103</ele>
        <time>2022-04-16T10:59:22Z</time>
      </trkpt>
      <trkpt lat="47.31958" lon="-1.64616">
        <ele>102</ele>
        <time>2022-04-16T10:59:24Z</time>
      </trkpt>
      <trkpt lat="47.31973" lon="-1.64611">
        <ele>102</ele>
        <time>2022-04-16T10:59:26Z</time>
      </trkpt>
      <trkpt lat="47.31988" lon="-1.64606">
        <ele>101</ele>
        <time>2022-04-16T10:59:28Z</time>
      </trkpt>
      <trkpt lat="47.32004" lon="-1.646">
        <ele>100</ele>
        <time>2022-04-16T10:59:30Z</time>
      </trkpt>
      <trkpt lat="47.32019" lon="-1.64595">
        <ele>100</ele>
        <time>2022-04-16T10:59:32Z</time>
      </trkpt>
      <trkpt lat="47.32034" lon="-1.6459">
        <ele>100</ele>
        <time>2022-04-16T10:59:34Z</time>
      </trkpt>
      <trkpt lat="47.3205" lon="-1.64584">
        <ele>99</ele>
        <time>2022-04-16T10:59:36Z</time>
      </trkpt>
      <trkpt lat="47.32066" lon="-1.64578">
        <ele>98</ele>
        <time>2022-04-16T10:59:38Z</time>
      </trkpt>
      <trkpt lat="47.32081" lon="-1.64572">
        <ele>97</ele>
        <time>2022-04-16T10:59:40Z</time>
      </trkpt>
      <trkpt lat="47.32096" lon="-1.64566">
        <ele>95</ele>
        <time>2022-04-16T10:59:42Z</time>
      </trkpt>
      <trkpt lat="47.32112" lon="-1.6456">
        <ele>94</ele>
        <time>2022-04-16T10:59:44Z</time>
      </trkpt>
      <trkpt lat="47.32128" lon="-1.64553">
        <ele>93</ele>
        <time>2022-04-16T10:59:46Z</time>
      </trkpt>
      <trkpt lat="47.32145" lon="-1.64545">
        <ele>91</ele>
        <time>2022-04-16T10:59:48Z</time>
      </trkpt>
      <trkpt lat="47.3216" lon="-1.64534">
        <ele>90</ele>
        <time>2022-04-16T10:59:50Z</time>
      </trkpt>
      <trkpt lat="47.32168" lon="-1.64525">
        <ele>89</ele>
        <time>2022-04-16T10:59:51Z</time>
      </trkpt>
      <trkpt lat="47.32176" lon="-1.64514">
        <ele>89</ele>
        <time>2022-04-16T10:59:52Z</time>
      </trkpt>
      <trkpt lat="47.32183" lon="-1.64503">
        <ele>89</ele>
        <time>2022-04-16T10:59:53Z</time>
      </trkpt>
      <trkpt lat="47.32189" lon="-1.64491">
        <ele>89</ele>
        <time>2022-04-16T10:59:54Z</time>
      </trkpt>
      <trkpt lat="47.32195" lon="-1.64478">
        <ele>89</ele>
        <time>2022-04-16T10:59:55Z</time>
      </trkpt>
      <trkpt lat="47.32201" lon="-1.64467">
        <ele>88</ele>
        <time>2022-04-16T10:59:56Z</time>
      </trkpt>
      <trkpt lat="47.32206" lon="-1.64455">
        <ele>87</ele>
        <time>2022-04-16T10:59:57Z</time>
      </trkpt>
      <trkpt lat="47.32212" lon="-1.64444">
        <ele>86</ele>
        <time>2022-04-16T10:59:58Z</time>
      </trkpt>
      <trkpt lat="47.32217" lon="-1.64433">
        <ele>86</ele>
        <time>2022-04-16T10:59:59Z</time>
      </trkpt>
      <trkpt lat="47.32228" lon="-1.64411">
        <ele>84</ele>
        <time>2022-04-16T11:00:01Z</time>
      </trkpt>
      <trkpt lat="47.32232" lon="-1.64399">
        <ele>83</ele>
        <time>2022-04-16T11:00:02Z</time>
      </trkpt>
      <trkpt lat="47.32237" lon="-1.64387">
        <ele>82</ele>
        <time>2022-04-16T11:00:03Z</time>
      </trkpt>
      <trkpt lat="47.3224" lon="-1.64374">
        <ele>81</ele>
        <time>2022-04-16T11:00:04Z</time>
      </trkpt>
      <trkpt lat="47.32243" lon="-1.6436">
        <ele>80</ele>
        <time>2022-04-16T11:00:05Z</time>
      </trkpt>
      <trkpt lat="47.32246" lon="-1.64348">
        <ele>79</ele>
        <time>2022-04-16T11:00:06Z</time>
      </trkpt>
      <trkpt lat="47.3225" lon="-1.64325">
        <ele>79</ele>
        <time>2022-04-16T11:00:08Z</time>
      </trkpt>
      <trkpt lat="47.32256" lon="-1.64308">
        <ele>78</ele>
        <time>2022-04-16T11:00:10Z</time>
      </trkpt>
      <trkpt lat="47.32268" lon="-1.64305">
        <ele>78</ele>
        <time>2022-04-16T11:00:12Z</time>
      </trkpt>
      <trkpt lat="47.32281" lon="-1.64311">
        <ele>76</ele>
        <time>2022-04-16T11:00:14Z</time>
      </trkpt>
      <trkpt lat="47.32295" lon="-1.64318">
        <ele>75</ele>
        <time>2022-04-16T11:00:16Z</time>
      </trkpt>
      <trkpt lat="47.32309" lon="-1.64326">
        <ele>74</ele>
        <time>2022-04-16T11:00:18Z</time>
      </trkpt>
      <trkpt lat="47.32323" lon="-1.64333">
        <ele>73</ele>
        <time>2022-04-16T11:00:20Z</time>
      </trkpt>
      <trkpt lat="47.32337" lon="-1.64338">
        <ele>72</ele>
        <time>2022-04-16T11:00:22Z</time>
      </trkpt>
      <trkpt lat="47.32352" lon="-1.64341">
        <ele>72</ele>
        <time>2022-04-16T11:00:24Z</time>
      </trkpt>
      <trkpt lat="47.32366" lon="-1.64344">
        <ele>72</ele>
        <time>2022-04-16T11:00:26Z</time>
      </trkpt>
      <trkpt lat="47.3238" lon="-1.64347">
        <ele>72</ele>
        <time>2022-04-16T11:00:28Z</time>
      </trkpt>
      <trkpt lat="47.32393" lon="-1.64349">
        <ele>72</ele>
        <time>2022-04-16T11:00:30Z</time>
      </trkpt>
      <trkpt lat="47.32406" lon="-1.64352">
        <ele>72</ele>
        <time>2022-04-16T11:00:32Z</time>
      </trkpt>
      <trkpt lat="47.3242" lon="-1.64354">
        <ele>72</ele>
        <time>2022-04-16T11:00:34Z</time>
      </trkpt>
      <trkpt lat="47.32434" lon="-1.64356">
        <ele>71</ele>
        <time>2022-04-16T11:00:36Z</time>
      </trkpt>
      <trkpt lat="47.32447" lon="-1.6436">
        <ele>71</ele>
        <time>2022-04-16T11:00:38Z</time>
      </trkpt>
      <trkpt lat="47.3246" lon="-1.64366">
        <ele>71</ele>
        <time>2022-04-16T11:00:40Z</time>
      </trkpt>
      <trkpt lat="47.32471" lon="-1.64374">
        <ele>71</ele>
        <time>2022-04-16T11:00:42Z</time>
      </trkpt>
      <trkpt lat="47.32483" lon="-1.64382">
        <ele>71</ele>
        <time>2022-04-16T11:00:44Z</time>
      </trkpt>
      <trkpt lat="47.32495" lon="-1.64389">
        <ele>71</ele>
        <time>2022-04-16T11:00:46Z</time>
      </trkpt>
      <trkpt lat="47.32506" lon="-1.64394">
        <ele>72</ele>
        <time>2022-04-16T11:00:48Z</time>
      </trkpt>
      <trkpt lat="47.32518" lon="-1.64397">
        <ele>72</ele>
        <time>2022-04-16T11:00:50Z</time>
      </trkpt>
      <trkpt lat="47.32528" lon="-1.64397">
        <ele>72</ele>
        <time>2022-04-16T11:00:52Z</time>
      </trkpt>
      <trkpt lat="47.32538" lon="-1.64396">
        <ele>72</ele>
        <time>2022-04-16T11:00:54Z</time>
      </trkpt>
      <trkpt lat="47.32548" lon="-1.64394">
        <ele>73</ele>
        <time>2022-04-16T11:00:56Z</time>
      </trkpt>
      <trkpt lat="47.32557" lon="-1.64393">
        <ele>73</ele>
        <time>2022-04-16T11:00:58Z</time>
      </trkpt>
      <trkpt lat="47.32567" lon="-1.6439">
        <ele>74</ele>
        <time>2022-04-16T11:01:00Z</time>
      </trkpt>
      <trkpt lat="47.3258" lon="-1.64387">
        <ele>75</ele>
        <time>2022-04-16T11:01:03Z</time>
      </trkpt>
      <trkpt lat="47.32593" lon="-1.64383">
        <ele>76</ele>
        <time>2022-04-16T11:01:06Z</time>
      </trkpt>
      <trkpt lat="47.32606" lon="-1.64379">
        <ele>77</ele>
        <time>2022-04-16T11:01:09Z</time>
      </trkpt>
      <trkpt lat="47.32615" lon="-1.64376">
        <ele>77</ele>
        <time>2022-04-16T11:01:11Z</time>
      </trkpt>
      <trkpt lat="47.32624" lon="-1.64373">
        <ele>78</ele>
        <time>2022-04-16T11:01:13Z</time>
      </trkpt>
      <trkpt lat="47.32633" lon="-1.6437">
        <ele>78</ele>
        <time>2022-04-16T11:01:15Z</time>
      </trkpt>
      <trkpt lat="47.32643" lon="-1.64367">
        <ele>78</ele>
        <time>2022-04-16T11:01:17Z</time>
      </trkpt>
      <trkpt lat="47.32652" lon="-1.64364">
        <ele>78</ele>
        <time>2022-04-16T11:01:19Z</time>
      </trkpt>
      <trkpt lat="47.32661" lon="-1.64362">
        <ele>78</ele>
        <time>2022-04-16T11:01:21Z</time>
      </trkpt>
      <trkpt lat="47.3267" lon="-1.64359">
        <ele>79</ele>
        <time>2022-04-16T11:01:23Z</time>
      </trkpt>
      <trkpt lat="47.3268" lon="-1.64356">
        <ele>79</ele>
        <time>2022-04-16T11:01:25Z</time>
      </trkpt>
      <trkpt lat="47.32689" lon="-1.64354">
        <ele>80</ele>
        <time>2022-04-16T11:01:27Z</time>
      </trkpt>
      <trkpt lat="47.32698" lon="-1.64351">
        <ele>80</ele>
        <time>2022-04-16T11:01:29Z</time>
      </trkpt>
      <trkpt lat="47.32707" lon="-1.64349">
        <ele>81</ele>
        <time>2022-04-16T11:01:31Z</time>
      </trkpt>
      <trkpt lat="47.32716" lon="-1.64346">
        <ele>81</ele>
        <time>2022-04-16T11:01:33Z</time>
      </trkpt>
      <trkpt lat="47.32725" lon="-1.64343">
        <ele>81</ele>
        <time>2022-04-16T11:01:35Z</time>
      </trkpt>
      <trkpt lat="47.32738" lon="-1.6434">
        <ele>83</ele>
        <time>2022-04-16T11:01:38Z</time>
      </trkpt>
      <trkpt lat="47.3275" lon="-1.64337">
        <ele>85</ele>
        <time>2022-04-16T11:01:41Z</time>
      </trkpt>
      <trkpt lat="47.32762" lon="-1.64335">
        <ele>85</ele>
        <time>2022-04-16T11:01:44Z</time>
      </trkpt>
      <trkpt lat="47.32776" lon="-1.64334">
        <ele>86</ele>
        <time>2022-04-16T11:01:47Z</time>
      </trkpt>
      <trkpt lat="47.32789" lon="-1.64332">
        <ele>86</ele>
        <time>2022-04-16T11:01:50Z</time>
      </trkpt>
      <trkpt lat="47.32798" lon="-1.6433">
        <ele>86</ele>
        <time>2022-04-16T11:01:52Z</time>
      </trkpt>
      <trkpt lat="47.32811" lon="-1.64328">
        <ele>86</ele>
        <time>2022-04-16T11:01:55Z</time>
      </trkpt>
      <trkpt lat="47.32824" lon="-1.64326">
        <ele>87</ele>
        <time>2022-04-16T11:01:58Z</time>
      </trkpt>
      <trkpt lat="47.32836" lon="-1.64325">
        <ele>88</ele>
        <time>2022-04-16T11:02:01Z</time>
      </trkpt>
      <trkpt lat="47.32849" lon="-1.64324">
        <ele>89</ele>
        <time>2022-04-16T11:02:04Z</time>
      </trkpt>
      <trkpt lat="47.32861" lon="-1.64321">
        <ele>91</ele>
        <time>2022-04-16T11:02:07Z</time>
      </trkpt>
      <trkpt lat="47.32872" lon="-1.6432">
        <ele>92</ele>
        <time>2022-04-16T11:02:10Z</time>
      </trkpt>
      <trkpt lat="47.32883" lon="-1.64319">
        <ele>94</ele>
        <time>2022-04-16T11:02:13Z</time>
      </trkpt>
      <trkpt lat="47.32895" lon="-1.64317">
        <ele>95</ele>
        <time>2022-04-16T11:02:16Z</time>
      </trkpt>
      <trkpt lat="47.32908" lon="-1.64314">
        <ele>96</ele>
        <time>2022-04-16T11:02:19Z</time>
      </trkpt>
      <trkpt lat="47.32917" lon="-1.64312">
        <ele>96</ele>
        <time>2022-04-16T11:02:21Z</time>
      </trkpt>
      <trkpt lat="47.32926" lon="-1.6431">
        <ele>95</ele>
        <time>2022-04-16T11:02:23Z</time>
      </trkpt>
      <trkpt lat="47.32935" lon="-1.64308">
        <ele>95</ele>
        <time>2022-04-16T11:02:25Z</time>
      </trkpt>
      <trkpt lat="47.32947" lon="-1.64308">
        <ele>96</ele>
        <time>2022-04-16T11:02:28Z</time>
      </trkpt>
      <trkpt lat="47.32958" lon="-1.64308">
        <ele>97</ele>
        <time>2022-04-16T11:02:31Z</time>
      </trkpt>
      <trkpt lat="47.32969" lon="-1.64308">
        <ele>97</ele>
        <time>2022-04-16T11:02:34Z</time>
      </trkpt>
      <trkpt lat="47.32981" lon="-1.6431">
        <ele>97</ele>
        <time>2022-04-16T11:02:37Z</time>
      </trkpt>
      <trkpt lat="47.32992" lon="-1.64312">
        <ele>98</ele>
        <time>2022-04-16T11:02:40Z</time>
      </trkpt>
      <trkpt lat="47.33004" lon="-1.64314">
        <ele>98</ele>
        <time>2022-04-16T11:02:43Z</time>
      </trkpt>
      <trkpt lat="47.33015" lon="-1.64318">
        <ele>99</ele>
        <time>2022-04-16T11:02:46Z</time>
      </trkpt>
      <trkpt lat="47.33024" lon="-1.64321">
        <ele>99</ele>
        <time>2022-04-16T11:02:49Z</time>
      </trkpt>
      <trkpt lat="47.33034" lon="-1.64324">
        <ele>100</ele>
        <time>2022-04-16T11:02:52Z</time>
      </trkpt>
      <trkpt lat="47.33044" lon="-1.64328">
        <ele>101</ele>
        <time>2022-04-16T11:02:55Z</time>
      </trkpt>
      <trkpt lat="47.33053" lon="-1.6433">
        <ele>101</ele>
        <time>2022-04-16T11:02:58Z</time>
      </trkpt>
      <trkpt lat="47.33064" lon="-1.64333">
        <ele>102</ele>
        <time>2022-04-16T11:03:01Z</time>
      </trkpt>
      <trkpt lat="47.33074" lon="-1.64336">
        <ele>103</ele>
        <time>2022-04-16T11:03:04Z</time>
      </trkpt>
      <trkpt lat="47.33084" lon="-1.6434">
        <ele>103</ele>
        <time>2022-04-16T11:03:07Z</time>
      </trkpt>
      <trkpt lat="47.33094" lon="-1.64343">
        <ele>104</ele>
        <time>2022-04-16T11:03:10Z</time>
      </trkpt>
      <trkpt lat="47.33105" lon="-1.64345">
        <ele>104</ele>
        <time>2022-04-16T11:03:14Z</time>
      </trkpt>
      <trkpt lat="47.33115" lon="-1.64344">
        <ele>105</ele>
        <time>2022-04-16T11:03:17Z</time>
      </trkpt>
      <trkpt lat="47.33128" lon="-1.64342">
        <ele>105</ele>
        <time>2022-04-16T11:03:20Z</time>
      </trkpt>
      <trkpt lat="47.33139" lon="-1.64339">
        <ele>105</ele>
        <time>2022-04-16T11:03:23Z</time>
      </trkpt>
      <trkpt lat="47.3315" lon="-1.64337">
        <ele>106</ele>
        <time>2022-04-16T11:03:26Z</time>
      </trkpt>
      <trkpt lat="47.33161" lon="-1.64334">
        <ele>106</ele>
        <time>2022-04-16T11:03:29Z</time>
      </trkpt>
      <trkpt lat="47.33172" lon="-1.6433">
        <ele>107</ele>
        <time>2022-04-16T11:03:32Z</time>
      </trkpt>
      <trkpt lat="47.33183" lon="-1.64327">
        <ele>107</ele>
        <time>2022-04-16T11:03:35Z</time>
      </trkpt>
      <trkpt lat="47.33194" lon="-1.64324">
        <ele>108</ele>
        <time>2022-04-16T11:03:38Z</time>
      </trkpt>
      <trkpt lat="47.33204" lon="-1.64322">
        <ele>109</ele>
        <time>2022-04-16T11:03:41Z</time>
      </trkpt>
      <trkpt lat="47.33215" lon="-1.64319">
        <ele>110</ele>
        <time>2022-04-16T11:03:44Z</time>
      </trkpt>
      <trkpt lat="47.33226" lon="-1.64315">
        <ele>111</ele>
        <time>2022-04-16T11:03:47Z</time>
      </trkpt>
      <trkpt lat="47.33238" lon="-1.6431">
        <ele>110</ele>
        <time>2022-04-16T11:03:50Z</time>
      </trkpt>
      <trkpt lat="47.3325" lon="-1.64304">
        <ele>110</ele>
        <time>2022-04-16T11:03:53Z</time>
      </trkpt>
      <trkpt lat="47.33259" lon="-1.64295">
        <ele>111</ele>
        <time>2022-04-16T11:03:56Z</time>
      </trkpt>
      <trkpt lat="47.33269" lon="-1.64284">
        <ele>111</ele>
        <time>2022-04-16T11:03:59Z</time>
      </trkpt>
      <trkpt lat="47.33279" lon="-1.64272">
        <ele>110</ele>
        <time>2022-04-16T11:04:02Z</time>
      </trkpt>
      <trkpt lat="47.3329" lon="-1.6426">
        <ele>110</ele>
        <time>2022-04-16T11:04:05Z</time>
      </trkpt>
      <trkpt lat="47.333" lon="-1.64248">
        <ele>111</ele>
        <time>2022-04-16T11:04:08Z</time>
      </trkpt>
      <trkpt lat="47.33308" lon="-1.64239">
        <ele>111</ele>
        <time>2022-04-16T11:04:10Z</time>
      </trkpt>
      <trkpt lat="47.33318" lon="-1.64227">
        <ele>112</ele>
        <time>2022-04-16T11:04:13Z</time>
      </trkpt>
      <trkpt lat="47.33326" lon="-1.64218">
        <ele>112</ele>
        <time>2022-04-16T11:04:15Z</time>
      </trkpt>
      <trkpt lat="47.33334" lon="-1.64209">
        <ele>112</ele>
        <time>2022-04-16T11:04:17Z</time>
      </trkpt>
      <trkpt lat="47.33342" lon="-1.64201">
        <ele>113</ele>
        <time>2022-04-16T11:04:19Z</time>
      </trkpt>
      <trkpt lat="47.33349" lon="-1.64191">
        <ele>114</ele>
        <time>2022-04-16T11:04:21Z</time>
      </trkpt>
      <trkpt lat="47.33357" lon="-1.64181">
        <ele>114</ele>
        <time>2022-04-16T11:04:23Z</time>
      </trkpt>
      <trkpt lat="47.33366" lon="-1.64171">
        <ele>114</ele>
        <time>2022-04-16T11:04:25Z</time>
      </trkpt>
      <trkpt lat="47.33374" lon="-1.64162">
        <ele>114</ele>
        <time>2022-04-16T11:04:27Z</time>
      </trkpt>
      <trkpt lat="47.33382" lon="-1.64152">
        <ele>114</ele>
        <time>2022-04-16T11:04:29Z</time>
      </trkpt>
      <trkpt lat="47.33391" lon="-1.64141">
        <ele>115</ele>
        <time>2022-04-16T11:04:31Z</time>
      </trkpt>
      <trkpt lat="47.334" lon="-1.64131">
        <ele>115</ele>
        <time>2022-04-16T11:04:33Z</time>
      </trkpt>
      <trkpt lat="47.33409" lon="-1.64121">
        <ele>114</ele>
        <time>2022-04-16T11:04:35Z</time>
      </trkpt>
      <trkpt lat="47.33418" lon="-1.6411">
        <ele>113</ele>
        <time>2022-04-16T11:04:37Z</time>
      </trkpt>
      <trkpt lat="47.33427" lon="-1.64099">
        <ele>113</ele>
        <time>2022-04-16T11:04:39Z</time>
      </trkpt>
      <trkpt lat="47.33435" lon="-1.64089">
        <ele>112</ele>
        <time>2022-04-16T11:04:41Z</time>
      </trkpt>
      <trkpt lat="47.33444" lon="-1.64079">
        <ele>112</ele>
        <time>2022-04-16T11:04:43Z</time>
      </trkpt>
      <trkpt lat="47.33453" lon="-1.64069">
        <ele>111</ele>
        <time>2022-04-16T11:04:45Z</time>
      </trkpt>
      <trkpt lat="47.33463" lon="-1.64059">
        <ele>111</ele>
        <time>2022-04-16T11:04:47Z</time>
      </trkpt>
      <trkpt lat="47.33471" lon="-1.64049">
        <ele>112</ele>
        <time>2022-04-16T11:04:49Z</time>
      </trkpt>
      <trkpt lat="47.3348" lon="-1.64038">
        <ele>112</ele>
        <time>2022-04-16T11:04:51Z</time>
      </trkpt>
      <trkpt lat="47.33488" lon="-1.64028">
        <ele>112</ele>
        <time>2022-04-16T11:04:53Z</time>
      </trkpt>
      <trkpt lat="47.33497" lon="-1.64018">
        <ele>111</ele>
        <time>2022-04-16T11:04:55Z</time>
      </trkpt>
      <trkpt lat="47.33506" lon="-1.64008">
        <ele>111</ele>
        <time>2022-04-16T11:04:57Z</time>
      </trkpt>
      <trkpt lat="47.33515" lon="-1.63998">
        <ele>111</ele>
        <time>2022-04-16T11:04:59Z</time>
      </trkpt>
      <trkpt lat="47.33524" lon="-1.63987">
        <ele>111</ele>
        <time>2022-04-16T11:05:01Z</time>
      </trkpt>
      <trkpt lat="47.33532" lon="-1.63977">
        <ele>111</ele>
        <time>2022-04-16T11:05:03Z</time>
      </trkpt>
      <trkpt lat="47.33541" lon="-1.63967">
        <ele>112</ele>
        <time>2022-04-16T11:05:05Z</time>
      </trkpt>
      <trkpt lat="47.3355" lon="-1.63958">
        <ele>113</ele>
        <time>2022-04-16T11:05:07Z</time>
      </trkpt>
      <trkpt lat="47.33558" lon="-1.63947">
        <ele>113</ele>
        <time>2022-04-16T11:05:09Z</time>
      </trkpt>
      <trkpt lat="47.33567" lon="-1.63937">
        <ele>113</ele>
        <time>2022-04-16T11:05:11Z</time>
      </trkpt>
      <trkpt lat="47.33576" lon="-1.63925">
        <ele>113</ele>
        <time>2022-04-16T11:05:13Z</time>
      </trkpt>
      <trkpt lat="47.33585" lon="-1.63914">
        <ele>113</ele>
        <time>2022-04-16T11:05:15Z</time>
      </trkpt>
      <trkpt lat="47.33595" lon="-1.63904">
        <ele>113</ele>
        <time>2022-04-16T11:05:17Z</time>
      </trkpt>
      <trkpt lat="47.33604" lon="-1.63893">
        <ele>113</ele>
        <time>2022-04-16T11:05:19Z</time>
      </trkpt>
      <trkpt lat="47.33613" lon="-1.63883">
        <ele>112</ele>
        <time>2022-04-16T11:05:21Z</time>
      </trkpt>
      <trkpt lat="47.33622" lon="-1.63872">
        <ele>113</ele>
        <time>2022-04-16T11:05:23Z</time>
      </trkpt>
      <trkpt lat="47.33631" lon="-1.63861">
        <ele>114</ele>
        <time>2022-04-16T11:05:25Z</time>
      </trkpt>
      <trkpt lat="47.33641" lon="-1.6385">
        <ele>114</ele>
        <time>2022-04-16T11:05:27Z</time>
      </trkpt>
      <trkpt lat="47.3365" lon="-1.63838">
        <ele>113</ele>
        <time>2022-04-16T11:05:29Z</time>
      </trkpt>
      <trkpt lat="47.3366" lon="-1.63827">
        <ele>113</ele>
        <time>2022-04-16T11:05:31Z</time>
      </trkpt>
      <trkpt lat="47.33669" lon="-1.63815">
        <ele>112</ele>
        <time>2022-04-16T11:05:33Z</time>
      </trkpt>
      <trkpt lat="47.33679" lon="-1.63804">
        <ele>112</ele>
        <time>2022-04-16T11:05:35Z</time>
      </trkpt>
      <trkpt lat="47.33688" lon="-1.63793">
        <ele>111</ele>
        <time>2022-04-16T11:05:37Z</time>
      </trkpt>
      <trkpt lat="47.33698" lon="-1.63781">
        <ele>111</ele>
        <time>2022-04-16T11:05:39Z</time>
      </trkpt>
      <trkpt lat="47.33707" lon="-1.63771">
        <ele>111</ele>
        <time>2022-04-16T11:05:41Z</time>
      </trkpt>
      <trkpt lat="47.33716" lon="-1.63761">
        <ele>111</ele>
        <time>2022-04-16T11:05:43Z</time>
      </trkpt>
      <trkpt lat="47.33722" lon="-1.63751">
        <ele>111</ele>
        <time>2022-04-16T11:05:55Z</time>
      </trkpt>
      <trkpt lat="47.33731" lon="-1.63744">
        <ele>116</ele>
        <time>2022-04-16T11:06:39Z</time>
      </trkpt>
      <trkpt lat="47.3374" lon="-1.63733">
        <ele>118</ele>
        <time>2022-04-16T11:06:42Z</time>
      </trkpt>
      <trkpt lat="47.33747" lon="-1.63722">
        <ele>120</ele>
        <time>2022-04-16T11:06:44Z</time>
      </trkpt>
      <trkpt lat="47.33754" lon="-1.63712">
        <ele>121</ele>
        <time>2022-04-16T11:06:46Z</time>
      </trkpt>
      <trkpt lat="47.33763" lon="-1.63701">
        <ele>120</ele>
        <time>2022-04-16T11:06:48Z</time>
      </trkpt>
      <trkpt lat="47.33771" lon="-1.6369">
        <ele>120</ele>
        <time>2022-04-16T11:06:50Z</time>
      </trkpt>
      <trkpt lat="47.33781" lon="-1.6368">
        <ele>120</ele>
        <time>2022-04-16T11:06:52Z</time>
      </trkpt>
      <trkpt lat="47.3379" lon="-1.6367">
        <ele>121</ele>
        <time>2022-04-16T11:06:54Z</time>
      </trkpt>
      <trkpt lat="47.33799" lon="-1.63658">
        <ele>121</ele>
        <time>2022-04-16T11:06:56Z</time>
      </trkpt>
      <trkpt lat="47.33809" lon="-1.63647">
        <ele>121</ele>
        <time>2022-04-16T11:06:58Z</time>
      </trkpt>
      <trkpt lat="47.33819" lon="-1.63635">
        <ele>121</ele>
        <time>2022-04-16T11:07:00Z</time>
      </trkpt>
      <trkpt lat="47.33829" lon="-1.63624">
        <ele>119</ele>
        <time>2022-04-16T11:07:02Z</time>
      </trkpt>
      <trkpt lat="47.33838" lon="-1.63615">
        <ele>118</ele>
        <time>2022-04-16T11:07:04Z</time>
      </trkpt>
      <trkpt lat="47.33846" lon="-1.63606">
        <ele>117</ele>
        <time>2022-04-16T11:07:06Z</time>
      </trkpt>
      <trkpt lat="47.33856" lon="-1.63594">
        <ele>116</ele>
        <time>2022-04-16T11:07:09Z</time>
      </trkpt>
      <trkpt lat="47.33867" lon="-1.63583">
        <ele>115</ele>
        <time>2022-04-16T11:07:12Z</time>
      </trkpt>
      <trkpt lat="47.33876" lon="-1.63572">
        <ele>114</ele>
        <time>2022-04-16T11:07:14Z</time>
      </trkpt>
      <trkpt lat="47.33885" lon="-1.63562">
        <ele>114</ele>
        <time>2022-04-16T11:07:16Z</time>
      </trkpt>
      <trkpt lat="47.33894" lon="-1.63552">
        <ele>114</ele>
        <time>2022-04-16T11:07:18Z</time>
      </trkpt>
      <trkpt lat="47.33904" lon="-1.63541">
        <ele>113</ele>
        <time>2022-04-16T11:07:20Z</time>
      </trkpt>
      <trkpt lat="47.33913" lon="-1.6353">
        <ele>113</ele>
        <time>2022-04-16T11:07:22Z</time>
      </trkpt>
      <trkpt lat="47.33922" lon="-1.63521">
        <ele>114</ele>
        <time>2022-04-16T11:07:24Z</time>
      </trkpt>
      <trkpt lat="47.33932" lon="-1.63514">
        <ele>114</ele>
        <time>2022-04-16T11:07:26Z</time>
      </trkpt>
      <trkpt lat="47.33942" lon="-1.63508">
        <ele>114</ele>
        <time>2022-04-16T11:07:28Z</time>
      </trkpt>
      <trkpt lat="47.33953" lon="-1.63502">
        <ele>114</ele>
        <time>2022-04-16T11:07:30Z</time>
      </trkpt>
      <trkpt lat="47.33963" lon="-1.63496">
        <ele>113</ele>
        <time>2022-04-16T11:07:32Z</time>
      </trkpt>
      <trkpt lat="47.33974" lon="-1.63491">
        <ele>113</ele>
        <time>2022-04-16T11:07:34Z</time>
      </trkpt>
      <trkpt lat="47.33984" lon="-1.63484">
        <ele>113</ele>
        <time>2022-04-16T11:07:36Z</time>
      </trkpt>
      <trkpt lat="47.33996" lon="-1.6348">
        <ele>113</ele>
        <time>2022-04-16T11:07:38Z</time>
      </trkpt>
      <trkpt lat="47.34009" lon="-1.63472">
        <ele>113</ele>
        <time>2022-04-16T11:07:40Z</time>
      </trkpt>
      <trkpt lat="47.34021" lon="-1.63462">
        <ele>114</ele>
        <time>2022-04-16T11:07:42Z</time>
      </trkpt>
      <trkpt lat="47.34033" lon="-1.63455">
        <ele>114</ele>
        <time>2022-04-16T11:07:44Z</time>
      </trkpt>
      <trkpt lat="47.34045" lon="-1.63447">
        <ele>115</ele>
        <time>2022-04-16T11:07:46Z</time>
      </trkpt>
      <trkpt lat="47.34057" lon="-1.6344">
        <ele>115</ele>
        <time>2022-04-16T11:07:48Z</time>
      </trkpt>
      <trkpt lat="47.34068" lon="-1.63434">
        <ele>115</ele>
        <time>2022-04-16T11:07:50Z</time>
      </trkpt>
      <trkpt lat="47.34079" lon="-1.63427">
        <ele>114</ele>
        <time>2022-04-16T11:07:52Z</time>
      </trkpt>
      <trkpt lat="47.3409" lon="-1.63421">
        <ele>114</ele>
        <time>2022-04-16T11:07:54Z</time>
      </trkpt>
      <trkpt lat="47.34101" lon="-1.63414">
        <ele>114</ele>
        <time>2022-04-16T11:07:56Z</time>
      </trkpt>
      <trkpt lat="47.34113" lon="-1.63407">
        <ele>114</ele>
        <time>2022-04-16T11:07:58Z</time>
      </trkpt>
      <trkpt lat="47.34125" lon="-1.634">
        <ele>115</ele>
        <time>2022-04-16T11:08:02Z</time>
      </trkpt>
      <trkpt lat="47.34141" lon="-1.63387">
        <ele>115</ele>
        <time>2022-04-16T11:08:04Z</time>
      </trkpt>
      <trkpt lat="47.34149" lon="-1.63381">
        <ele>114</ele>
        <time>2022-04-16T11:08:05Z</time>
      </trkpt>
      <trkpt lat="47.34163" lon="-1.6337">
        <ele>114</ele>
        <time>2022-04-16T11:08:07Z</time>
      </trkpt>
      <trkpt lat="47.34175" lon="-1.6336">
        <ele>113</ele>
        <time>2022-04-16T11:08:09Z</time>
      </trkpt>
      <trkpt lat="47.34185" lon="-1.63348">
        <ele>113</ele>
        <time>2022-04-16T11:08:11Z</time>
      </trkpt>
      <trkpt lat="47.34197" lon="-1.63337">
        <ele>112</ele>
        <time>2022-04-16T11:08:13Z</time>
      </trkpt>
      <trkpt lat="47.34208" lon="-1.63325">
        <ele>112</ele>
        <time>2022-04-16T11:08:15Z</time>
      </trkpt>
      <trkpt lat="47.34218" lon="-1.63314">
        <ele>111</ele>
        <time>2022-04-16T11:08:17Z</time>
      </trkpt>
      <trkpt lat="47.34227" lon="-1.633">
        <ele>112</ele>
        <time>2022-04-16T11:08:19Z</time>
      </trkpt>
      <trkpt lat="47.34236" lon="-1.63284">
        <ele>111</ele>
        <time>2022-04-16T11:08:21Z</time>
      </trkpt>
      <trkpt lat="47.34244" lon="-1.63268">
        <ele>110</ele>
        <time>2022-04-16T11:08:23Z</time>
      </trkpt>
      <trkpt lat="47.34251" lon="-1.6325">
        <ele>110</ele>
        <time>2022-04-16T11:08:25Z</time>
      </trkpt>
      <trkpt lat="47.34258" lon="-1.63232">
        <ele>110</ele>
        <time>2022-04-16T11:08:27Z</time>
      </trkpt>
      <trkpt lat="47.34265" lon="-1.63215">
        <ele>109</ele>
        <time>2022-04-16T11:08:29Z</time>
      </trkpt>
      <trkpt lat="47.34271" lon="-1.63198">
        <ele>108</ele>
        <time>2022-04-16T11:08:31Z</time>
      </trkpt>
      <trkpt lat="47.34279" lon="-1.63182">
        <ele>108</ele>
        <time>2022-04-16T11:08:33Z</time>
      </trkpt>
      <trkpt lat="47.34288" lon="-1.63169">
        <ele>108</ele>
        <time>2022-04-16T11:08:35Z</time>
      </trkpt>
      <trkpt lat="47.34297" lon="-1.63156">
        <ele>107</ele>
        <time>2022-04-16T11:08:37Z</time>
      </trkpt>
      <trkpt lat="47.34307" lon="-1.63143">
        <ele>106</ele>
        <time>2022-04-16T11:08:39Z</time>
      </trkpt>
      <trkpt lat="47.34318" lon="-1.63131">
        <ele>106</ele>
        <time>2022-04-16T11:08:41Z</time>
      </trkpt>
      <trkpt lat="47.34329" lon="-1.63119">
        <ele>106</ele>
        <time>2022-04-16T11:08:43Z</time>
      </trkpt>
      <trkpt lat="47.3434" lon="-1.63108">
        <ele>106</ele>
        <time>2022-04-16T11:08:45Z</time>
      </trkpt>
      <trkpt lat="47.34351" lon="-1.63096">
        <ele>107</ele>
        <time>2022-04-16T11:08:47Z</time>
      </trkpt>
      <trkpt lat="47.34362" lon="-1.63085">
        <ele>107</ele>
        <time>2022-04-16T11:08:49Z</time>
      </trkpt>
      <trkpt lat="47.34372" lon="-1.63074">
        <ele>108</ele>
        <time>2022-04-16T11:08:51Z</time>
      </trkpt>
      <trkpt lat="47.34383" lon="-1.63063">
        <ele>107</ele>
        <time>2022-04-16T11:08:53Z</time>
      </trkpt>
      <trkpt lat="47.34394" lon="-1.63052">
        <ele>107</ele>
        <time>2022-04-16T11:08:55Z</time>
      </trkpt>
      <trkpt lat="47.34405" lon="-1.63041">
        <ele>108</ele>
        <time>2022-04-16T11:08:57Z</time>
      </trkpt>
      <trkpt lat="47.34415" lon="-1.6303">
        <ele>108</ele>
        <time>2022-04-16T11:08:59Z</time>
      </trkpt>
      <trkpt lat="47.34425" lon="-1.63019">
        <ele>109</ele>
        <time>2022-04-16T11:09:01Z</time>
      </trkpt>
      <trkpt lat="47.34435" lon="-1.63009">
        <ele>109</ele>
        <time>2022-04-16T11:09:03Z</time>
      </trkpt>
      <trkpt lat="47.34445" lon="-1.62998">
        <ele>109</ele>
        <time>2022-04-16T11:09:05Z</time>
      </trkpt>
      <trkpt lat="47.34455" lon="-1.62988">
        <ele>109</ele>
        <time>2022-04-16T11:09:07Z</time>
      </trkpt>
      <trkpt lat="47.34465" lon="-1.62978">
        <ele>109</ele>
        <time>2022-04-16T11:09:09Z</time>
      </trkpt>
      <trkpt lat="47.34475" lon="-1.62968">
        <ele>108</ele>
        <time>2022-04-16T11:09:11Z</time>
      </trkpt>
      <trkpt lat="47.34485" lon="-1.62958">
        <ele>108</ele>
        <time>2022-04-16T11:09:13Z</time>
      </trkpt>
      <trkpt lat="47.34495" lon="-1.62947">
        <ele>108</ele>
        <time>2022-04-16T11:09:15Z</time>
      </trkpt>
      <trkpt lat="47.34506" lon="-1.62936">
        <ele>107</ele>
        <time>2022-04-16T11:09:17Z</time>
      </trkpt>
      <trkpt lat="47.34515" lon="-1.62926">
        <ele>107</ele>
        <time>2022-04-16T11:09:19Z</time>
      </trkpt>
      <trkpt lat="47.34525" lon="-1.62915">
        <ele>107</ele>
        <time>2022-04-16T11:09:21Z</time>
      </trkpt>
      <trkpt lat="47.34535" lon="-1.62905">
        <ele>107</ele>
        <time>2022-04-16T11:09:23Z</time>
      </trkpt>
      <trkpt lat="47.34545" lon="-1.62895">
        <ele>107</ele>
        <time>2022-04-16T11:09:25Z</time>
      </trkpt>
      <trkpt lat="47.34555" lon="-1.62884">
        <ele>106</ele>
        <time>2022-04-16T11:09:27Z</time>
      </trkpt>
      <trkpt lat="47.34564" lon="-1.62874">
        <ele>107</ele>
        <time>2022-04-16T11:09:29Z</time>
      </trkpt>
      <trkpt lat="47.34573" lon="-1.62864">
        <ele>107</ele>
        <time>2022-04-16T11:09:31Z</time>
      </trkpt>
      <trkpt lat="47.34582" lon="-1.62854">
        <ele>107</ele>
        <time>2022-04-16T11:09:33Z</time>
      </trkpt>
      <trkpt lat="47.34591" lon="-1.62845">
        <ele>107</ele>
        <time>2022-04-16T11:09:35Z</time>
      </trkpt>
      <trkpt lat="47.346" lon="-1.62836">
        <ele>108</ele>
        <time>2022-04-16T11:09:37Z</time>
      </trkpt>
      <trkpt lat="47.34609" lon="-1.62825">
        <ele>108</ele>
        <time>2022-04-16T11:09:39Z</time>
      </trkpt>
      <trkpt lat="47.34618" lon="-1.62813">
        <ele>107</ele>
        <time>2022-04-16T11:09:41Z</time>
      </trkpt>
      <trkpt lat="47.34627" lon="-1.62801">
        <ele>107</ele>
        <time>2022-04-16T11:09:43Z</time>
      </trkpt>
      <trkpt lat="47.34636" lon="-1.62789">
        <ele>107</ele>
        <time>2022-04-16T11:09:45Z</time>
      </trkpt>
      <trkpt lat="47.34644" lon="-1.62776">
        <ele>107</ele>
        <time>2022-04-16T11:09:47Z</time>
      </trkpt>
      <trkpt lat="47.34653" lon="-1.62763">
        <ele>107</ele>
        <time>2022-04-16T11:09:49Z</time>
      </trkpt>
      <trkpt lat="47.34662" lon="-1.62751">
        <ele>107</ele>
        <time>2022-04-16T11:09:51Z</time>
      </trkpt>
      <trkpt lat="47.34668" lon="-1.62736">
        <ele>106</ele>
        <time>2022-04-16T11:09:53Z</time>
      </trkpt>
      <trkpt lat="47.34675" lon="-1.62721">
        <ele>106</ele>
        <time>2022-04-16T11:09:55Z</time>
      </trkpt>
      <trkpt lat="47.34682" lon="-1.62705">
        <ele>106</ele>
        <time>2022-04-16T11:09:57Z</time>
      </trkpt>
      <trkpt lat="47.34688" lon="-1.6269">
        <ele>106</ele>
        <time>2022-04-16T11:09:59Z</time>
      </trkpt>
      <trkpt lat="47.34695" lon="-1.62674">
        <ele>105</ele>
        <time>2022-04-16T11:10:01Z</time>
      </trkpt>
      <trkpt lat="47.34701" lon="-1.62658">
        <ele>106</ele>
        <time>2022-04-16T11:10:03Z</time>
      </trkpt>
      <trkpt lat="47.34708" lon="-1.62643">
        <ele>106</ele>
        <time>2022-04-16T11:10:05Z</time>
      </trkpt>
      <trkpt lat="47.34713" lon="-1.62627">
        <ele>106</ele>
        <time>2022-04-16T11:10:07Z</time>
      </trkpt>
      <trkpt lat="47.34719" lon="-1.62613">
        <ele>106</ele>
        <time>2022-04-16T11:10:09Z</time>
      </trkpt>
      <trkpt lat="47.34724" lon="-1.626">
        <ele>106</ele>
        <time>2022-04-16T11:10:11Z</time>
      </trkpt>
      <trkpt lat="47.34728" lon="-1.62586">
        <ele>106</ele>
        <time>2022-04-16T11:10:14Z</time>
      </trkpt>
      <trkpt lat="47.34733" lon="-1.62572">
        <ele>106</ele>
        <time>2022-04-16T11:10:17Z</time>
      </trkpt>
      <trkpt lat="47.34739" lon="-1.62557">
        <ele>106</ele>
        <time>2022-04-16T11:10:19Z</time>
      </trkpt>
      <trkpt lat="47.34746" lon="-1.62543">
        <ele>106</ele>
        <time>2022-04-16T11:10:21Z</time>
      </trkpt>
      <trkpt lat="47.34752" lon="-1.62527">
        <ele>105</ele>
        <time>2022-04-16T11:10:23Z</time>
      </trkpt>
      <trkpt lat="47.34759" lon="-1.62512">
        <ele>105</ele>
        <time>2022-04-16T11:10:25Z</time>
      </trkpt>
      <trkpt lat="47.34764" lon="-1.62498">
        <ele>106</ele>
        <time>2022-04-16T11:10:27Z</time>
      </trkpt>
      <trkpt lat="47.3477" lon="-1.62482">
        <ele>106</ele>
        <time>2022-04-16T11:10:29Z</time>
      </trkpt>
      <trkpt lat="47.34777" lon="-1.62466">
        <ele>106</ele>
        <time>2022-04-16T11:10:31Z</time>
      </trkpt>
      <trkpt lat="47.34786" lon="-1.62451">
        <ele>106</ele>
        <time>2022-04-16T11:10:33Z</time>
      </trkpt>
      <trkpt lat="47.34795" lon="-1.62437">
        <ele>106</ele>
        <time>2022-04-16T11:10:35Z</time>
      </trkpt>
      <trkpt lat="47.34804" lon="-1.62424">
        <ele>106</ele>
        <time>2022-04-16T11:10:37Z</time>
      </trkpt>
      <trkpt lat="47.34812" lon="-1.62411">
        <ele>106</ele>
        <time>2022-04-16T11:10:39Z</time>
      </trkpt>
      <trkpt lat="47.3482" lon="-1.62398">
        <ele>107</ele>
        <time>2022-04-16T11:10:41Z</time>
      </trkpt>
      <trkpt lat="47.34828" lon="-1.62385">
        <ele>107</ele>
        <time>2022-04-16T11:10:43Z</time>
      </trkpt>
      <trkpt lat="47.34836" lon="-1.62372">
        <ele>108</ele>
        <time>2022-04-16T11:10:45Z</time>
      </trkpt>
      <trkpt lat="47.34844" lon="-1.62359">
        <ele>109</ele>
        <time>2022-04-16T11:10:47Z</time>
      </trkpt>
      <trkpt lat="47.34852" lon="-1.62347">
        <ele>109</ele>
        <time>2022-04-16T11:10:49Z</time>
      </trkpt>
      <trkpt lat="47.34861" lon="-1.62333">
        <ele>109</ele>
        <time>2022-04-16T11:10:51Z</time>
      </trkpt>
      <trkpt lat="47.3487" lon="-1.62319">
        <ele>109</ele>
        <time>2022-04-16T11:10:53Z</time>
      </trkpt>
      <trkpt lat="47.34879" lon="-1.62305">
        <ele>109</ele>
        <time>2022-04-16T11:10:55Z</time>
      </trkpt>
      <trkpt lat="47.34888" lon="-1.62291">
        <ele>109</ele>
        <time>2022-04-16T11:10:57Z</time>
      </trkpt>
      <trkpt lat="47.34897" lon="-1.62278">
        <ele>109</ele>
        <time>2022-04-16T11:10:59Z</time>
      </trkpt>
      <trkpt lat="47.34906" lon="-1.62264">
        <ele>109</ele>
        <time>2022-04-16T11:11:01Z</time>
      </trkpt>
      <trkpt lat="47.34915" lon="-1.62251">
        <ele>109</ele>
        <time>2022-04-16T11:11:03Z</time>
      </trkpt>
      <trkpt lat="47.34925" lon="-1.6224">
        <ele>109</ele>
        <time>2022-04-16T11:11:05Z</time>
      </trkpt>
      <trkpt lat="47.34936" lon="-1.62231">
        <ele>109</ele>
        <time>2022-04-16T11:11:07Z</time>
      </trkpt>
      <trkpt lat="47.34948" lon="-1.62224">
        <ele>108</ele>
        <time>2022-04-16T11:11:09Z</time>
      </trkpt>
      <trkpt lat="47.3496" lon="-1.62217">
        <ele>107</ele>
        <time>2022-04-16T11:11:11Z</time>
      </trkpt>
      <trkpt lat="47.34972" lon="-1.62211">
        <ele>107</ele>
        <time>2022-04-16T11:11:13Z</time>
      </trkpt>
      <trkpt lat="47.34984" lon="-1.62205">
        <ele>106</ele>
        <time>2022-04-16T11:11:15Z</time>
      </trkpt>
      <trkpt lat="47.34996" lon="-1.62197">
        <ele>106</ele>
        <time>2022-04-16T11:11:17Z</time>
      </trkpt>
      <trkpt lat="47.35008" lon="-1.62187">
        <ele>106</ele>
        <time>2022-04-16T11:11:19Z</time>
      </trkpt>
      <trkpt lat="47.35018" lon="-1.62175">
        <ele>106</ele>
        <time>2022-04-16T11:11:21Z</time>
      </trkpt>
      <trkpt lat="47.35028" lon="-1.62162">
        <ele>105</ele>
        <time>2022-04-16T11:11:23Z</time>
      </trkpt>
      <trkpt lat="47.35038" lon="-1.62148">
        <ele>104</ele>
        <time>2022-04-16T11:11:25Z</time>
      </trkpt>
      <trkpt lat="47.35047" lon="-1.62134">
        <ele>103</ele>
        <time>2022-04-16T11:11:27Z</time>
      </trkpt>
      <trkpt lat="47.35058" lon="-1.62121">
        <ele>102</ele>
        <time>2022-04-16T11:11:29Z</time>
      </trkpt>
      <trkpt lat="47.35069" lon="-1.62107">
        <ele>102</ele>
        <time>2022-04-16T11:11:31Z</time>
      </trkpt>
      <trkpt lat="47.35079" lon="-1.62093">
        <ele>101</ele>
        <time>2022-04-16T11:11:33Z</time>
      </trkpt>
      <trkpt lat="47.35089" lon="-1.6208">
        <ele>101</ele>
        <time>2022-04-16T11:11:35Z</time>
      </trkpt>
      <trkpt lat="47.35099" lon="-1.62067">
        <ele>100</ele>
        <time>2022-04-16T11:11:37Z</time>
      </trkpt>
      <trkpt lat="47.3511" lon="-1.62054">
        <ele>100</ele>
        <time>2022-04-16T11:11:39Z</time>
      </trkpt>
      <trkpt lat="47.3512" lon="-1.6204">
        <ele>99</ele>
        <time>2022-04-16T11:11:41Z</time>
      </trkpt>
      <trkpt lat="47.3513" lon="-1.62026">
        <ele>99</ele>
        <time>2022-04-16T11:11:43Z</time>
      </trkpt>
      <trkpt lat="47.3514" lon="-1.62013">
        <ele>99</ele>
        <time>2022-04-16T11:11:45Z</time>
      </trkpt>
      <trkpt lat="47.3515" lon="-1.62">
        <ele>99</ele>
        <time>2022-04-16T11:11:47Z</time>
      </trkpt>
      <trkpt lat="47.3516" lon="-1.61987">
        <ele>98</ele>
        <time>2022-04-16T11:11:49Z</time>
      </trkpt>
      <trkpt lat="47.35171" lon="-1.61974">
        <ele>98</ele>
        <time>2022-04-16T11:11:51Z</time>
      </trkpt>
      <trkpt lat="47.35181" lon="-1.61961">
        <ele>98</ele>
        <time>2022-04-16T11:11:53Z</time>
      </trkpt>
      <trkpt lat="47.35191" lon="-1.61948">
        <ele>97</ele>
        <time>2022-04-16T11:11:55Z</time>
      </trkpt>
      <trkpt lat="47.35201" lon="-1.61935">
        <ele>97</ele>
        <time>2022-04-16T11:11:57Z</time>
      </trkpt>
      <trkpt lat="47.35212" lon="-1.61922">
        <ele>96</ele>
        <time>2022-04-16T11:11:59Z</time>
      </trkpt>
      <trkpt lat="47.35223" lon="-1.61909">
        <ele>96</ele>
        <time>2022-04-16T11:12:01Z</time>
      </trkpt>
      <trkpt lat="47.35233" lon="-1.61897">
        <ele>96</ele>
        <time>2022-04-16T11:12:03Z</time>
      </trkpt>
      <trkpt lat="47.35243" lon="-1.61884">
        <ele>96</ele>
        <time>2022-04-16T11:12:05Z</time>
      </trkpt>
      <trkpt lat="47.35253" lon="-1.61873">
        <ele>96</ele>
        <time>2022-04-16T11:12:07Z</time>
      </trkpt>
      <trkpt lat="47.35263" lon="-1.6186">
        <ele>95</ele>
        <time>2022-04-16T11:12:09Z</time>
      </trkpt>
      <trkpt lat="47.35274" lon="-1.61848">
        <ele>95</ele>
        <time>2022-04-16T11:12:11Z</time>
      </trkpt>
      <trkpt lat="47.35285" lon="-1.61836">
        <ele>94</ele>
        <time>2022-04-16T11:12:13Z</time>
      </trkpt>
      <trkpt lat="47.35296" lon="-1.61823">
        <ele>94</ele>
        <time>2022-04-16T11:12:15Z</time>
      </trkpt>
      <trkpt lat="47.35307" lon="-1.61811">
        <ele>94</ele>
        <time>2022-04-16T11:12:17Z</time>
      </trkpt>
      <trkpt lat="47.35318" lon="-1.61799">
        <ele>94</ele>
        <time>2022-04-16T11:12:19Z</time>
      </trkpt>
      <trkpt lat="47.3533" lon="-1.61786">
        <ele>94</ele>
        <time>2022-04-16T11:12:21Z</time>
      </trkpt>
      <trkpt lat="47.35341" lon="-1.61773">
        <ele>94</ele>
        <time>2022-04-16T11:12:23Z</time>
      </trkpt>
      <trkpt lat="47.35352" lon="-1.61762">
        <ele>93</ele>
        <time>2022-04-16T11:12:25Z</time>
      </trkpt>
      <trkpt lat="47.35364" lon="-1.6175">
        <ele>93</ele>
        <time>2022-04-16T11:12:27Z</time>
      </trkpt>
      <trkpt lat="47.35376" lon="-1.61739">
        <ele>94</ele>
        <time>2022-04-16T11:12:29Z</time>
      </trkpt>
      <trkpt lat="47.35386" lon="-1.61729">
        <ele>94</ele>
        <time>2022-04-16T11:12:31Z</time>
      </trkpt>
      <trkpt lat="47.35398" lon="-1.61718">
        <ele>94</ele>
        <time>2022-04-16T11:12:33Z</time>
      </trkpt>
      <trkpt lat="47.3541" lon="-1.61708">
        <ele>94</ele>
        <time>2022-04-16T11:12:35Z</time>
      </trkpt>
      <trkpt lat="47.35422" lon="-1.61698">
        <ele>94</ele>
        <time>2022-04-16T11:12:37Z</time>
      </trkpt>
      <trkpt lat="47.35433" lon="-1.61688">
        <ele>94</ele>
        <time>2022-04-16T11:12:39Z</time>
      </trkpt>
      <trkpt lat="47.35445" lon="-1.61677">
        <ele>93</ele>
        <time>2022-04-16T11:12:41Z</time>
      </trkpt>
      <trkpt lat="47.35457" lon="-1.61667">
        <ele>93</ele>
        <time>2022-04-16T11:12:43Z</time>
      </trkpt>
      <trkpt lat="47.35469" lon="-1.61656">
        <ele>92</ele>
        <time>2022-04-16T11:12:45Z</time>
      </trkpt>
      <trkpt lat="47.35481" lon="-1.61647">
        <ele>92</ele>
        <time>2022-04-16T11:12:47Z</time>
      </trkpt>
      <trkpt lat="47.35492" lon="-1.61637">
        <ele>92</ele>
        <time>2022-04-16T11:12:49Z</time>
      </trkpt>
      <trkpt lat="47.35503" lon="-1.61629">
        <ele>92</ele>
        <time>2022-04-16T11:12:51Z</time>
      </trkpt>
      <trkpt lat="47.3551" lon="-1.61617">
        <ele>92</ele>
        <time>2022-04-16T11:12:53Z</time>
      </trkpt>
      <trkpt lat="47.35511" lon="-1.61601">
        <ele>92</ele>
        <time>2022-04-16T11:12:55Z</time>
      </trkpt>
      <trkpt lat="47.35508" lon="-1.61581">
        <ele>91</ele>
        <time>2022-04-16T11:12:57Z</time>
      </trkpt>
      <trkpt lat="47.35504" lon="-1.61561">
        <ele>90</ele>
        <time>2022-04-16T11:12:59Z</time>
      </trkpt>
      <trkpt lat="47.35502" lon="-1.6154">
        <ele>89</ele>
        <time>2022-04-16T11:13:01Z</time>
      </trkpt>
      <trkpt lat="47.35498" lon="-1.6152">
        <ele>89</ele>
        <time>2022-04-16T11:13:03Z</time>
      </trkpt>
      <trkpt lat="47.35495" lon="-1.61499">
        <ele>89</ele>
        <time>2022-04-16T11:13:05Z</time>
      </trkpt>
      <trkpt lat="47.35492" lon="-1.61478">
        <ele>88</ele>
        <time>2022-04-16T11:13:07Z</time>
      </trkpt>
      <trkpt lat="47.35489" lon="-1.61456">
        <ele>87</ele>
        <time>2022-04-16T11:13:09Z</time>
      </trkpt>
      <trkpt lat="47.35485" lon="-1.61435">
        <ele>87</ele>
        <time>2022-04-16T11:13:11Z</time>
      </trkpt>
      <trkpt lat="47.35482" lon="-1.61413">
        <ele>87</ele>
        <time>2022-04-16T11:13:13Z</time>
      </trkpt>
      <trkpt lat="47.35478" lon="-1.61391">
        <ele>86</ele>
        <time>2022-04-16T11:13:15Z</time>
      </trkpt>
      <trkpt lat="47.35473" lon="-1.6137">
        <ele>86</ele>
        <time>2022-04-16T11:13:17Z</time>
      </trkpt>
      <trkpt lat="47.35469" lon="-1.61349">
        <ele>87</ele>
        <time>2022-04-16T11:13:19Z</time>
      </trkpt>
      <trkpt lat="47.35464" lon="-1.61328">
        <ele>86</ele>
        <time>2022-04-16T11:13:21Z</time>
      </trkpt>
      <trkpt lat="47.35459" lon="-1.61306">
        <ele>86</ele>
        <time>2022-04-16T11:13:23Z</time>
      </trkpt>
      <trkpt lat="47.35454" lon="-1.61286">
        <ele>86</ele>
        <time>2022-04-16T11:13:25Z</time>
      </trkpt>
      <trkpt lat="47.3545" lon="-1.61266">
        <ele>86</ele>
        <time>2022-04-16T11:13:27Z</time>
      </trkpt>
      <trkpt lat="47.35445" lon="-1.61244">
        <ele>86</ele>
        <time>2022-04-16T11:13:29Z</time>
      </trkpt>
      <trkpt lat="47.35442" lon="-1.61224">
        <ele>85</ele>
        <time>2022-04-16T11:13:31Z</time>
      </trkpt>
      <trkpt lat="47.35439" lon="-1.61203">
        <ele>85</ele>
        <time>2022-04-16T11:13:33Z</time>
      </trkpt>
      <trkpt lat="47.35438" lon="-1.61181">
        <ele>85</ele>
        <time>2022-04-16T11:13:35Z</time>
      </trkpt>
      <trkpt lat="47.35437" lon="-1.6116">
        <ele>85</ele>
        <time>2022-04-16T11:13:37Z</time>
      </trkpt>
      <trkpt lat="47.35436" lon="-1.61139">
        <ele>85</ele>
        <time>2022-04-16T11:13:39Z</time>
      </trkpt>
      <trkpt lat="47.35436" lon="-1.61119">
        <ele>85</ele>
        <time>2022-04-16T11:13:41Z</time>
      </trkpt>
      <trkpt lat="47.35437" lon="-1.61099">
        <ele>86</ele>
        <time>2022-04-16T11:13:43Z</time>
      </trkpt>
      <trkpt lat="47.35437" lon="-1.61079">
        <ele>86</ele>
        <time>2022-04-16T11:13:45Z</time>
      </trkpt>
      <trkpt lat="47.35438" lon="-1.6106">
        <ele>86</ele>
        <time>2022-04-16T11:13:47Z</time>
      </trkpt>
      <trkpt lat="47.35437" lon="-1.61042">
        <ele>86</ele>
        <time>2022-04-16T11:13:49Z</time>
      </trkpt>
      <trkpt lat="47.35437" lon="-1.61024">
        <ele>86</ele>
        <time>2022-04-16T11:13:51Z</time>
      </trkpt>
      <trkpt lat="47.35438" lon="-1.61006">
        <ele>86</ele>
        <time>2022-04-16T11:13:53Z</time>
      </trkpt>
      <trkpt lat="47.35438" lon="-1.60989">
        <ele>86</ele>
        <time>2022-04-16T11:13:55Z</time>
      </trkpt>
      <trkpt lat="47.35438" lon="-1.60971">
        <ele>86</ele>
        <time>2022-04-16T11:13:57Z</time>
      </trkpt>
      <trkpt lat="47.35438" lon="-1.60954">
        <ele>86</ele>
        <time>2022-04-16T11:13:59Z</time>
      </trkpt>
      <trkpt lat="47.35439" lon="-1.60938">
        <ele>86</ele>
        <time>2022-04-16T11:14:01Z</time>
      </trkpt>
      <trkpt lat="47.35439" lon="-1.60921">
        <ele>85</ele>
        <time>2022-04-16T11:14:03Z</time>
      </trkpt>
      <trkpt lat="47.35438" lon="-1.60905">
        <ele>85</ele>
        <time>2022-04-16T11:14:05Z</time>
      </trkpt>
      <trkpt lat="47.35437" lon="-1.60889">
        <ele>85</ele>
        <time>2022-04-16T11:14:07Z</time>
      </trkpt>
      <trkpt lat="47.35436" lon="-1.60873">
        <ele>85</ele>
        <time>2022-04-16T11:14:09Z</time>
      </trkpt>
      <trkpt lat="47.35432" lon="-1.60857">
        <ele>85</ele>
        <time>2022-04-16T11:14:11Z</time>
      </trkpt>
      <trkpt lat="47.35429" lon="-1.60841">
        <ele>85</ele>
        <time>2022-04-16T11:14:13Z</time>
      </trkpt>
      <trkpt lat="47.35426" lon="-1.60825">
        <ele>85</ele>
        <time>2022-04-16T11:14:15Z</time>
      </trkpt>
      <trkpt lat="47.35423" lon="-1.6081">
        <ele>86</ele>
        <time>2022-04-16T11:14:17Z</time>
      </trkpt>
      <trkpt lat="47.35421" lon="-1.60794">
        <ele>86</ele>
        <time>2022-04-16T11:14:19Z</time>
      </trkpt>
      <trkpt lat="47.35418" lon="-1.60777">
        <ele>86</ele>
        <time>2022-04-16T11:14:21Z</time>
      </trkpt>
      <trkpt lat="47.35415" lon="-1.60761">
        <ele>86</ele>
        <time>2022-04-16T11:14:23Z</time>
      </trkpt>
      <trkpt lat="47.35412" lon="-1.60745">
        <ele>87</ele>
        <time>2022-04-16T11:14:25Z</time>
      </trkpt>
      <trkpt lat="47.35411" lon="-1.60728">
        <ele>87</ele>
        <time>2022-04-16T11:14:27Z</time>
      </trkpt>
      <trkpt lat="47.3541" lon="-1.60711">
        <ele>87</ele>
        <time>2022-04-16T11:14:29Z</time>
      </trkpt>
      <trkpt lat="47.3541" lon="-1.60694">
        <ele>87</ele>
        <time>2022-04-16T11:14:31Z</time>
      </trkpt>
      <trkpt lat="47.3541" lon="-1.60677">
        <ele>88</ele>
        <time>2022-04-16T11:14:33Z</time>
      </trkpt>
      <trkpt lat="47.3541" lon="-1.6066">
        <ele>88</ele>
        <time>2022-04-16T11:14:35Z</time>
      </trkpt>
      <trkpt lat="47.35409" lon="-1.60645">
        <ele>88</ele>
        <time>2022-04-16T11:14:37Z</time>
      </trkpt>
      <trkpt lat="47.3541" lon="-1.60628">
        <ele>88</ele>
        <time>2022-04-16T11:14:39Z</time>
      </trkpt>
      <trkpt lat="47.3541" lon="-1.60612">
        <ele>88</ele>
        <time>2022-04-16T11:14:41Z</time>
      </trkpt>
      <trkpt lat="47.3541" lon="-1.60595">
        <ele>89</ele>
        <time>2022-04-16T11:14:43Z</time>
      </trkpt>
      <trkpt lat="47.3541" lon="-1.60579">
        <ele>89</ele>
        <time>2022-04-16T11:14:45Z</time>
      </trkpt>
      <trkpt lat="47.35411" lon="-1.60564">
        <ele>89</ele>
        <time>2022-04-16T11:14:47Z</time>
      </trkpt>
      <trkpt lat="47.35411" lon="-1.60549">
        <ele>89</ele>
        <time>2022-04-16T11:14:49Z</time>
      </trkpt>
      <trkpt lat="47.35411" lon="-1.60534">
        <ele>89</ele>
        <time>2022-04-16T11:14:51Z</time>
      </trkpt>
      <trkpt lat="47.35412" lon="-1.60521">
        <ele>90</ele>
        <time>2022-04-16T11:14:53Z</time>
      </trkpt>
      <trkpt lat="47.35412" lon="-1.60504">
        <ele>90</ele>
        <time>2022-04-16T11:14:56Z</time>
      </trkpt>
      <trkpt lat="47.35412" lon="-1.6049">
        <ele>90</ele>
        <time>2022-04-16T11:14:58Z</time>
      </trkpt>
      <trkpt lat="47.35413" lon="-1.60472">
        <ele>89</ele>
        <time>2022-04-16T11:15:00Z</time>
      </trkpt>
      <trkpt lat="47.35413" lon="-1.60454">
        <ele>90</ele>
        <time>2022-04-16T11:15:02Z</time>
      </trkpt>
      <trkpt lat="47.35414" lon="-1.60436">
        <ele>89</ele>
        <time>2022-04-16T11:15:04Z</time>
      </trkpt>
      <trkpt lat="47.35415" lon="-1.60419">
        <ele>89</ele>
        <time>2022-04-16T11:15:06Z</time>
      </trkpt>
      <trkpt lat="47.35415" lon="-1.60401">
        <ele>89</ele>
        <time>2022-04-16T11:15:08Z</time>
      </trkpt>
      <trkpt lat="47.35416" lon="-1.60384">
        <ele>89</ele>
        <time>2022-04-16T11:15:10Z</time>
      </trkpt>
      <trkpt lat="47.35417" lon="-1.60367">
        <ele>89</ele>
        <time>2022-04-16T11:15:12Z</time>
      </trkpt>
      <trkpt lat="47.35417" lon="-1.6035">
        <ele>90</ele>
        <time>2022-04-16T11:15:14Z</time>
      </trkpt>
      <trkpt lat="47.35417" lon="-1.60333">
        <ele>90</ele>
        <time>2022-04-16T11:15:16Z</time>
      </trkpt>
      <trkpt lat="47.35418" lon="-1.60316">
        <ele>90</ele>
        <time>2022-04-16T11:15:18Z</time>
      </trkpt>
      <trkpt lat="47.35418" lon="-1.60299">
        <ele>90</ele>
        <time>2022-04-16T11:15:20Z</time>
      </trkpt>
      <trkpt lat="47.35419" lon="-1.60281">
        <ele>90</ele>
        <time>2022-04-16T11:15:22Z</time>
      </trkpt>
      <trkpt lat="47.35419" lon="-1.60263">
        <ele>90</ele>
        <time>2022-04-16T11:15:24Z</time>
      </trkpt>
      <trkpt lat="47.3542" lon="-1.60246">
        <ele>90</ele>
        <time>2022-04-16T11:15:26Z</time>
      </trkpt>
      <trkpt lat="47.35421" lon="-1.60228">
        <ele>90</ele>
        <time>2022-04-16T11:15:28Z</time>
      </trkpt>
      <trkpt lat="47.35421" lon="-1.60211">
        <ele>90</ele>
        <time>2022-04-16T11:15:30Z</time>
      </trkpt>
      <trkpt lat="47.35422" lon="-1.60193">
        <ele>90</ele>
        <time>2022-04-16T11:15:32Z</time>
      </trkpt>
      <trkpt lat="47.35421" lon="-1.60176">
        <ele>90</ele>
        <time>2022-04-16T11:15:34Z</time>
      </trkpt>
      <trkpt lat="47.3542" lon="-1.60158">
        <ele>89</ele>
        <time>2022-04-16T11:15:36Z</time>
      </trkpt>
      <trkpt lat="47.35419" lon="-1.6014">
        <ele>89</ele>
        <time>2022-04-16T11:15:38Z</time>
      </trkpt>
      <trkpt lat="47.35417" lon="-1.60122">
        <ele>89</ele>
        <time>2022-04-16T11:15:40Z</time>
      </trkpt>
      <trkpt lat="47.35417" lon="-1.60103">
        <ele>89</ele>
        <time>2022-04-16T11:15:42Z</time>
      </trkpt>
      <trkpt lat="47.35419" lon="-1.60084">
        <ele>89</ele>
        <time>2022-04-16T11:15:44Z</time>
      </trkpt>
      <trkpt lat="47.35423" lon="-1.60067">
        <ele>89</ele>
        <time>2022-04-16T11:15:46Z</time>
      </trkpt>
      <trkpt lat="47.35427" lon="-1.60049">
        <ele>89</ele>
        <time>2022-04-16T11:15:48Z</time>
      </trkpt>
      <trkpt lat="47.35432" lon="-1.60031">
        <ele>89</ele>
        <time>2022-04-16T11:15:50Z</time>
      </trkpt>
      <trkpt lat="47.35436" lon="-1.60015">
        <ele>89</ele>
        <time>2022-04-16T11:15:52Z</time>
      </trkpt>
      <trkpt lat="47.35441" lon="-1.59998">
        <ele>88</ele>
        <time>2022-04-16T11:15:54Z</time>
      </trkpt>
      <trkpt lat="47.35445" lon="-1.5998">
        <ele>89</ele>
        <time>2022-04-16T11:15:56Z</time>
      </trkpt>
      <trkpt lat="47.35448" lon="-1.59962">
        <ele>88</ele>
        <time>2022-04-16T11:15:58Z</time>
      </trkpt>
      <trkpt lat="47.3545" lon="-1.59944">
        <ele>88</ele>
        <time>2022-04-16T11:16:00Z</time>
      </trkpt>
      <trkpt lat="47.35453" lon="-1.59927">
        <ele>89</ele>
        <time>2022-04-16T11:16:02Z</time>
      </trkpt>
      <trkpt lat="47.35455" lon="-1.5991">
        <ele>89</ele>
        <time>2022-04-16T11:16:04Z</time>
      </trkpt>
      <trkpt lat="47.35456" lon="-1.59893">
        <ele>89</ele>
        <time>2022-04-16T11:16:06Z</time>
      </trkpt>
      <trkpt lat="47.35459" lon="-1.59877">
        <ele>89</ele>
        <time>2022-04-16T11:16:08Z</time>
      </trkpt>
      <trkpt lat="47.35461" lon="-1.5986">
        <ele>89</ele>
        <time>2022-04-16T11:16:10Z</time>
      </trkpt>
      <trkpt lat="47.35463" lon="-1.59843">
        <ele>89</ele>
        <time>2022-04-16T11:16:12Z</time>
      </trkpt>
      <trkpt lat="47.35465" lon="-1.59826">
        <ele>89</ele>
        <time>2022-04-16T11:16:14Z</time>
      </trkpt>
      <trkpt lat="47.35467" lon="-1.59811">
        <ele>89</ele>
        <time>2022-04-16T11:16:16Z</time>
      </trkpt>
      <trkpt lat="47.35464" lon="-1.59793">
        <ele>89</ele>
        <time>2022-04-16T11:16:19Z</time>
      </trkpt>
      <trkpt lat="47.35455" lon="-1.59788">
        <ele>89</ele>
        <time>2022-04-16T11:16:21Z</time>
      </trkpt>
      <trkpt lat="47.35444" lon="-1.59786">
        <ele>89</ele>
        <time>2022-04-16T11:16:23Z</time>
      </trkpt>
      <trkpt lat="47.35432" lon="-1.59782">
        <ele>89</ele>
        <time>2022-04-16T11:16:25Z</time>
      </trkpt>
      <trkpt lat="47.35419" lon="-1.59778">
        <ele>89</ele>
        <time>2022-04-16T11:16:27Z</time>
      </trkpt>
      <trkpt lat="47.35406" lon="-1.59774">
        <ele>89</ele>
        <time>2022-04-16T11:16:29Z</time>
      </trkpt>
      <trkpt lat="47.35393" lon="-1.5977">
        <ele>89</ele>
        <time>2022-04-16T11:16:31Z</time>
      </trkpt>
      <trkpt lat="47.3538" lon="-1.59765">
        <ele>89</ele>
        <time>2022-04-16T11:16:33Z</time>
      </trkpt>
      <trkpt lat="47.35367" lon="-1.59761">
        <ele>88</ele>
        <time>2022-04-16T11:16:35Z</time>
      </trkpt>
      <trkpt lat="47.35354" lon="-1.59755">
        <ele>87</ele>
        <time>2022-04-16T11:16:37Z</time>
      </trkpt>
      <trkpt lat="47.35341" lon="-1.59746">
        <ele>86</ele>
        <time>2022-04-16T11:16:39Z</time>
      </trkpt>
      <trkpt lat="47.35327" lon="-1.59736">
        <ele>86</ele>
        <time>2022-04-16T11:16:41Z</time>
      </trkpt>
      <trkpt lat="47.35315" lon="-1.59723">
        <ele>85</ele>
        <time>2022-04-16T11:16:43Z</time>
      </trkpt>
      <trkpt lat="47.35302" lon="-1.59707">
        <ele>84</ele>
        <time>2022-04-16T11:16:45Z</time>
      </trkpt>
      <trkpt lat="47.35289" lon="-1.59691">
        <ele>84</ele>
        <time>2022-04-16T11:16:47Z</time>
      </trkpt>
      <trkpt lat="47.35277" lon="-1.59674">
        <ele>82</ele>
        <time>2022-04-16T11:16:49Z</time>
      </trkpt>
      <trkpt lat="47.35263" lon="-1.59657">
        <ele>81</ele>
        <time>2022-04-16T11:16:51Z</time>
      </trkpt>
      <trkpt lat="47.35256" lon="-1.59648">
        <ele>81</ele>
        <time>2022-04-16T11:16:52Z</time>
      </trkpt>
      <trkpt lat="47.35248" lon="-1.5964">
        <ele>80</ele>
        <time>2022-04-16T11:16:53Z</time>
      </trkpt>
      <trkpt lat="47.35242" lon="-1.59631">
        <ele>80</ele>
        <time>2022-04-16T11:16:54Z</time>
      </trkpt>
      <trkpt lat="47.35234" lon="-1.59623">
        <ele>80</ele>
        <time>2022-04-16T11:16:55Z</time>
      </trkpt>
      <trkpt lat="47.35226" lon="-1.59614">
        <ele>80</ele>
        <time>2022-04-16T11:16:56Z</time>
      </trkpt>
      <trkpt lat="47.35219" lon="-1.59606">
        <ele>80</ele>
        <time>2022-04-16T11:16:57Z</time>
      </trkpt>
      <trkpt lat="47.35211" lon="-1.59597">
        <ele>80</ele>
        <time>2022-04-16T11:16:58Z</time>
      </trkpt>
      <trkpt lat="47.35203" lon="-1.59588">
        <ele>79</ele>
        <time>2022-04-16T11:16:59Z</time>
      </trkpt>
      <trkpt lat="47.35196" lon="-1.59579">
        <ele>79</ele>
        <time>2022-04-16T11:17:00Z</time>
      </trkpt>
      <trkpt lat="47.35189" lon="-1.59569">
        <ele>78</ele>
        <time>2022-04-16T11:17:01Z</time>
      </trkpt>
      <trkpt lat="47.35181" lon="-1.5956">
        <ele>77</ele>
        <time>2022-04-16T11:17:02Z</time>
      </trkpt>
      <trkpt lat="47.35173" lon="-1.59551">
        <ele>76</ele>
        <time>2022-04-16T11:17:03Z</time>
      </trkpt>
      <trkpt lat="47.35166" lon="-1.59541">
        <ele>75</ele>
        <time>2022-04-16T11:17:04Z</time>
      </trkpt>
      <trkpt lat="47.35158" lon="-1.59532">
        <ele>75</ele>
        <time>2022-04-16T11:17:05Z</time>
      </trkpt>
      <trkpt lat="47.3515" lon="-1.59522">
        <ele>75</ele>
        <time>2022-04-16T11:17:06Z</time>
      </trkpt>
      <trkpt lat="47.35142" lon="-1.59513">
        <ele>74</ele>
        <time>2022-04-16T11:17:07Z</time>
      </trkpt>
      <trkpt lat="47.35135" lon="-1.59503">
        <ele>73</ele>
        <time>2022-04-16T11:17:08Z</time>
      </trkpt>
      <trkpt lat="47.35127" lon="-1.59493">
        <ele>73</ele>
        <time>2022-04-16T11:17:09Z</time>
      </trkpt>
      <trkpt lat="47.35119" lon="-1.59484">
        <ele>72</ele>
        <time>2022-04-16T11:17:10Z</time>
      </trkpt>
      <trkpt lat="47.35112" lon="-1.59474">
        <ele>72</ele>
        <time>2022-04-16T11:17:11Z</time>
      </trkpt>
      <trkpt lat="47.35104" lon="-1.59465">
        <ele>71</ele>
        <time>2022-04-16T11:17:12Z</time>
      </trkpt>
      <trkpt lat="47.35096" lon="-1.59456">
        <ele>71</ele>
        <time>2022-04-16T11:17:13Z</time>
      </trkpt>
      <trkpt lat="47.35089" lon="-1.59447">
        <ele>70</ele>
        <time>2022-04-16T11:17:14Z</time>
      </trkpt>
      <trkpt lat="47.35082" lon="-1.59438">
        <ele>71</ele>
        <time>2022-04-16T11:17:15Z</time>
      </trkpt>
      <trkpt lat="47.35069" lon="-1.59421">
        <ele>71</ele>
        <time>2022-04-16T11:17:17Z</time>
      </trkpt>
      <trkpt lat="47.35057" lon="-1.59405">
        <ele>72</ele>
        <time>2022-04-16T11:17:19Z</time>
      </trkpt>
      <trkpt lat="47.35046" lon="-1.59391">
        <ele>73</ele>
        <time>2022-04-16T11:17:21Z</time>
      </trkpt>
      <trkpt lat="47.35036" lon="-1.59379">
        <ele>73</ele>
        <time>2022-04-16T11:17:23Z</time>
      </trkpt>
      <trkpt lat="47.35027" lon="-1.59368">
        <ele>74</ele>
        <time>2022-04-16T11:17:25Z</time>
      </trkpt>
      <trkpt lat="47.35018" lon="-1.59357">
        <ele>74</ele>
        <time>2022-04-16T11:17:27Z</time>
      </trkpt>
      <trkpt lat="47.35011" lon="-1.59348">
        <ele>75</ele>
        <time>2022-04-16T11:17:29Z</time>
      </trkpt>
      <trkpt lat="47.35004" lon="-1.59339">
        <ele>75</ele>
        <time>2022-04-16T11:17:31Z</time>
      </trkpt>
      <trkpt lat="47.34998" lon="-1.59329">
        <ele>76</ele>
        <time>2022-04-16T11:17:33Z</time>
      </trkpt>
      <trkpt lat="47.3499" lon="-1.5932">
        <ele>75</ele>
        <time>2022-04-16T11:17:35Z</time>
      </trkpt>
      <trkpt lat="47.34982" lon="-1.5931">
        <ele>76</ele>
        <time>2022-04-16T11:17:37Z</time>
      </trkpt>
      <trkpt lat="47.34975" lon="-1.59301">
        <ele>76</ele>
        <time>2022-04-16T11:17:39Z</time>
      </trkpt>
      <trkpt lat="47.34967" lon="-1.59291">
        <ele>77</ele>
        <time>2022-04-16T11:17:41Z</time>
      </trkpt>
      <trkpt lat="47.34961" lon="-1.59283">
        <ele>78</ele>
        <time>2022-04-16T11:17:43Z</time>
      </trkpt>
      <trkpt lat="47.3495" lon="-1.5927">
        <ele>81</ele>
        <time>2022-04-16T11:17:46Z</time>
      </trkpt>
      <trkpt lat="47.34943" lon="-1.59262">
        <ele>81</ele>
        <time>2022-04-16T11:17:48Z</time>
      </trkpt>
      <trkpt lat="47.34935" lon="-1.59253">
        <ele>81</ele>
        <time>2022-04-16T11:17:50Z</time>
      </trkpt>
      <trkpt lat="47.34928" lon="-1.59244">
        <ele>82</ele>
        <time>2022-04-16T11:17:52Z</time>
      </trkpt>
      <trkpt lat="47.3492" lon="-1.59236">
        <ele>82</ele>
        <time>2022-04-16T11:17:54Z</time>
      </trkpt>
      <trkpt lat="47.34912" lon="-1.59228">
        <ele>82</ele>
        <time>2022-04-16T11:17:56Z</time>
      </trkpt>
      <trkpt lat="47.34905" lon="-1.59219">
        <ele>83</ele>
        <time>2022-04-16T11:17:58Z</time>
      </trkpt>
      <trkpt lat="47.34895" lon="-1.59207">
        <ele>83</ele>
        <time>2022-04-16T11:18:01Z</time>
      </trkpt>
      <trkpt lat="47.34888" lon="-1.59198">
        <ele>83</ele>
        <time>2022-04-16T11:18:03Z</time>
      </trkpt>
      <trkpt lat="47.3488" lon="-1.59189">
        <ele>84</ele>
        <time>2022-04-16T11:18:05Z</time>
      </trkpt>
      <trkpt lat="47.34874" lon="-1.59179">
        <ele>84</ele>
        <time>2022-04-16T11:18:07Z</time>
      </trkpt>
      <trkpt lat="47.34867" lon="-1.59171">
        <ele>84</ele>
        <time>2022-04-16T11:18:09Z</time>
      </trkpt>
      <trkpt lat="47.3486" lon="-1.59161">
        <ele>83</ele>
        <time>2022-04-16T11:18:11Z</time>
      </trkpt>
      <trkpt lat="47.34853" lon="-1.59151">
        <ele>83</ele>
        <time>2022-04-16T11:18:13Z</time>
      </trkpt>
      <trkpt lat="47.34845" lon="-1.59143">
        <ele>84</ele>
        <time>2022-04-16T11:18:15Z</time>
      </trkpt>
      <trkpt lat="47.34838" lon="-1.59134">
        <ele>84</ele>
        <time>2022-04-16T11:18:17Z</time>
      </trkpt>
      <trkpt lat="47.34831" lon="-1.59125">
        <ele>85</ele>
        <time>2022-04-16T11:18:19Z</time>
      </trkpt>
      <trkpt lat="47.34823" lon="-1.59117">
        <ele>86</ele>
        <time>2022-04-16T11:18:21Z</time>
      </trkpt>
      <trkpt lat="47.34812" lon="-1.59105">
        <ele>87</ele>
        <time>2022-04-16T11:18:24Z</time>
      </trkpt>
      <trkpt lat="47.34805" lon="-1.59096">
        <ele>87</ele>
        <time>2022-04-16T11:18:26Z</time>
      </trkpt>
      <trkpt lat="47.34797" lon="-1.59087">
        <ele>88</ele>
        <time>2022-04-16T11:18:28Z</time>
      </trkpt>
      <trkpt lat="47.3479" lon="-1.59078">
        <ele>88</ele>
        <time>2022-04-16T11:18:30Z</time>
      </trkpt>
      <trkpt lat="47.34783" lon="-1.5907">
        <ele>89</ele>
        <time>2022-04-16T11:18:32Z</time>
      </trkpt>
      <trkpt lat="47.34776" lon="-1.59061">
        <ele>89</ele>
        <time>2022-04-16T11:18:34Z</time>
      </trkpt>
      <trkpt lat="47.34768" lon="-1.59052">
        <ele>89</ele>
        <time>2022-04-16T11:18:36Z</time>
      </trkpt>
      <trkpt lat="47.3476" lon="-1.59043">
        <ele>89</ele>
        <time>2022-04-16T11:18:38Z</time>
      </trkpt>
      <trkpt lat="47.34753" lon="-1.59034">
        <ele>89</ele>
        <time>2022-04-16T11:18:40Z</time>
      </trkpt>
      <trkpt lat="47.34746" lon="-1.59024">
        <ele>89</ele>
        <time>2022-04-16T11:18:42Z</time>
      </trkpt>
      <trkpt lat="47.34738" lon="-1.59015">
        <ele>89</ele>
        <time>2022-04-16T11:18:44Z</time>
      </trkpt>
      <trkpt lat="47.34729" lon="-1.59005">
        <ele>89</ele>
        <time>2022-04-16T11:18:46Z</time>
      </trkpt>
      <trkpt lat="47.34721" lon="-1.58996">
        <ele>89</ele>
        <time>2022-04-16T11:18:48Z</time>
      </trkpt>
      <trkpt lat="47.34713" lon="-1.58986">
        <ele>89</ele>
        <time>2022-04-16T11:18:50Z</time>
      </trkpt>
      <trkpt lat="47.34705" lon="-1.58976">
        <ele>89</ele>
        <time>2022-04-16T11:18:52Z</time>
      </trkpt>
      <trkpt lat="47.34697" lon="-1.58966">
        <ele>89</ele>
        <time>2022-04-16T11:18:54Z</time>
      </trkpt>
      <trkpt lat="47.34689" lon="-1.58957">
        <ele>89</ele>
        <time>2022-04-16T11:18:56Z</time>
      </trkpt>
      <trkpt lat="47.34681" lon="-1.58948">
        <ele>89</ele>
        <time>2022-04-16T11:18:58Z</time>
      </trkpt>
      <trkpt lat="47.34673" lon="-1.58938">
        <ele>90</ele>
        <time>2022-04-16T11:19:00Z</time>
      </trkpt>
      <trkpt lat="47.34665" lon="-1.58927">
        <ele>89</ele>
        <time>2022-04-16T11:19:02Z</time>
      </trkpt>
      <trkpt lat="47.34656" lon="-1.58917">
        <ele>89</ele>
        <time>2022-04-16T11:19:04Z</time>
      </trkpt>
      <trkpt lat="47.34647" lon="-1.58906">
        <ele>89</ele>
        <time>2022-04-16T11:19:06Z</time>
      </trkpt>
      <trkpt lat="47.34638" lon="-1.58895">
        <ele>89</ele>
        <time>2022-04-16T11:19:08Z</time>
      </trkpt>
      <trkpt lat="47.3463" lon="-1.58884">
        <ele>89</ele>
        <time>2022-04-16T11:19:10Z</time>
      </trkpt>
      <trkpt lat="47.3462" lon="-1.58874">
        <ele>89</ele>
        <time>2022-04-16T11:19:12Z</time>
      </trkpt>
      <trkpt lat="47.34611" lon="-1.58863">
        <ele>89</ele>
        <time>2022-04-16T11:19:14Z</time>
      </trkpt>
      <trkpt lat="47.34602" lon="-1.58852">
        <ele>89</ele>
        <time>2022-04-16T11:19:16Z</time>
      </trkpt>
      <trkpt lat="47.34593" lon="-1.5884">
        <ele>89</ele>
        <time>2022-04-16T11:19:18Z</time>
      </trkpt>
      <trkpt lat="47.34583" lon="-1.58829">
        <ele>89</ele>
        <time>2022-04-16T11:19:20Z</time>
      </trkpt>
      <trkpt lat="47.34574" lon="-1.58817">
        <ele>89</ele>
        <time>2022-04-16T11:19:22Z</time>
      </trkpt>
      <trkpt lat="47.34564" lon="-1.58805">
        <ele>89</ele>
        <time>2022-04-16T11:19:24Z</time>
      </trkpt>
      <trkpt lat="47.34555" lon="-1.58794">
        <ele>89</ele>
        <time>2022-04-16T11:19:26Z</time>
      </trkpt>
      <trkpt lat="47.34546" lon="-1.58782">
        <ele>89</ele>
        <time>2022-04-16T11:19:28Z</time>
      </trkpt>
      <trkpt lat="47.34536" lon="-1.5877">
        <ele>89</ele>
        <time>2022-04-16T11:19:30Z</time>
      </trkpt>
      <trkpt lat="47.34527" lon="-1.58759">
        <ele>89</ele>
        <time>2022-04-16T11:19:32Z</time>
      </trkpt>
      <trkpt lat="47.34518" lon="-1.58748">
        <ele>89</ele>
        <time>2022-04-16T11:19:34Z</time>
      </trkpt>
      <trkpt lat="47.34509" lon="-1.58738">
        <ele>89</ele>
        <time>2022-04-16T11:19:36Z</time>
      </trkpt>
      <trkpt lat="47.34501" lon="-1.58727">
        <ele>89</ele>
        <time>2022-04-16T11:19:38Z</time>
      </trkpt>
      <trkpt lat="47.34493" lon="-1.58716">
        <ele>89</ele>
        <time>2022-04-16T11:19:40Z</time>
      </trkpt>
      <trkpt lat="47.34486" lon="-1.58704">
        <ele>90</ele>
        <time>2022-04-16T11:19:42Z</time>
      </trkpt>
      <trkpt lat="47.34478" lon="-1.58693">
        <ele>90</ele>
        <time>2022-04-16T11:19:44Z</time>
      </trkpt>
      <trkpt lat="47.34471" lon="-1.58682">
        <ele>90</ele>
        <time>2022-04-16T11:19:46Z</time>
      </trkpt>
      <trkpt lat="47.34463" lon="-1.58669">
        <ele>91</ele>
        <time>2022-04-16T11:19:48Z</time>
      </trkpt>
      <trkpt lat="47.34455" lon="-1.58657">
        <ele>91</ele>
        <time>2022-04-16T11:19:50Z</time>
      </trkpt>
      <trkpt lat="47.34447" lon="-1.58646">
        <ele>91</ele>
        <time>2022-04-16T11:19:52Z</time>
      </trkpt>
      <trkpt lat="47.34439" lon="-1.58634">
        <ele>92</ele>
        <time>2022-04-16T11:19:54Z</time>
      </trkpt>
      <trkpt lat="47.34431" lon="-1.58623">
        <ele>92</ele>
        <time>2022-04-16T11:19:56Z</time>
      </trkpt>
      <trkpt lat="47.34422" lon="-1.58611">
        <ele>93</ele>
        <time>2022-04-16T11:19:58Z</time>
      </trkpt>
      <trkpt lat="47.34414" lon="-1.58599">
        <ele>93</ele>
        <time>2022-04-16T11:20:00Z</time>
      </trkpt>
      <trkpt lat="47.34404" lon="-1.58588">
        <ele>94</ele>
        <time>2022-04-16T11:20:02Z</time>
      </trkpt>
      <trkpt lat="47.34396" lon="-1.58577">
        <ele>94</ele>
        <time>2022-04-16T11:20:04Z</time>
      </trkpt>
      <trkpt lat="47.34388" lon="-1.58568">
        <ele>95</ele>
        <time>2022-04-16T11:20:06Z</time>
      </trkpt>
      <trkpt lat="47.34379" lon="-1.58557">
        <ele>95</ele>
        <time>2022-04-16T11:20:08Z</time>
      </trkpt>
      <trkpt lat="47.34371" lon="-1.58547">
        <ele>96</ele>
        <time>2022-04-16T11:20:10Z</time>
      </trkpt>
      <trkpt lat="47.34363" lon="-1.58536">
        <ele>96</ele>
        <time>2022-04-16T11:20:12Z</time>
      </trkpt>
      <trkpt lat="47.34355" lon="-1.58525">
        <ele>96</ele>
        <time>2022-04-16T11:20:14Z</time>
      </trkpt>
      <trkpt lat="47.34348" lon="-1.58515">
        <ele>96</ele>
        <time>2022-04-16T11:20:16Z</time>
      </trkpt>
      <trkpt lat="47.3434" lon="-1.58505">
        <ele>96</ele>
        <time>2022-04-16T11:20:18Z</time>
      </trkpt>
      <trkpt lat="47.34332" lon="-1.58494">
        <ele>96</ele>
        <time>2022-04-16T11:20:20Z</time>
      </trkpt>
      <trkpt lat="47.34324" lon="-1.58482">
        <ele>96</ele>
        <time>2022-04-16T11:20:22Z</time>
      </trkpt>
      <trkpt lat="47.34316" lon="-1.5847">
        <ele>95</ele>
        <time>2022-04-16T11:20:24Z</time>
      </trkpt>
      <trkpt lat="47.34308" lon="-1.58459">
        <ele>95</ele>
        <time>2022-04-16T11:20:26Z</time>
      </trkpt>
      <trkpt lat="47.34299" lon="-1.58446">
        <ele>95</ele>
        <time>2022-04-16T11:20:28Z</time>
      </trkpt>
      <trkpt lat="47.3429" lon="-1.58433">
        <ele>94</ele>
        <time>2022-04-16T11:20:30Z</time>
      </trkpt>
      <trkpt lat="47.34281" lon="-1.5842">
        <ele>94</ele>
        <time>2022-04-16T11:20:32Z</time>
      </trkpt>
      <trkpt lat="47.34271" lon="-1.58406">
        <ele>93</ele>
        <time>2022-04-16T11:20:34Z</time>
      </trkpt>
      <trkpt lat="47.34262" lon="-1.58393">
        <ele>93</ele>
        <time>2022-04-16T11:20:36Z</time>
      </trkpt>
      <trkpt lat="47.34251" lon="-1.58379">
        <ele>92</ele>
        <time>2022-04-16T11:20:38Z</time>
      </trkpt>
      <trkpt lat="47.34241" lon="-1.58365">
        <ele>92</ele>
        <time>2022-04-16T11:20:40Z</time>
      </trkpt>
      <trkpt lat="47.34231" lon="-1.58351">
        <ele>91</ele>
        <time>2022-04-16T11:20:42Z</time>
      </trkpt>
      <trkpt lat="47.34221" lon="-1.58337">
        <ele>91</ele>
        <time>2022-04-16T11:20:44Z</time>
      </trkpt>
      <trkpt lat="47.34211" lon="-1.58323">
        <ele>91</ele>
        <time>2022-04-16T11:20:46Z</time>
      </trkpt>
      <trkpt lat="47.34201" lon="-1.58309">
        <ele>90</ele>
        <time>2022-04-16T11:20:48Z</time>
      </trkpt>
      <trkpt lat="47.3419" lon="-1.58295">
        <ele>90</ele>
        <time>2022-04-16T11:20:50Z</time>
      </trkpt>
      <trkpt lat="47.3418" lon="-1.58281">
        <ele>90</ele>
        <time>2022-04-16T11:20:52Z</time>
      </trkpt>
      <trkpt lat="47.3417" lon="-1.58266">
        <ele>89</ele>
        <time>2022-04-16T11:20:54Z</time>
      </trkpt>
      <trkpt lat="47.34159" lon="-1.58252">
        <ele>89</ele>
        <time>2022-04-16T11:20:56Z</time>
      </trkpt>
      <trkpt lat="47.34149" lon="-1.58237">
        <ele>88</ele>
        <time>2022-04-16T11:20:58Z</time>
      </trkpt>
      <trkpt lat="47.34139" lon="-1.58223">
        <ele>88</ele>
        <time>2022-04-16T11:21:00Z</time>
      </trkpt>
      <trkpt lat="47.34129" lon="-1.58208">
        <ele>87</ele>
        <time>2022-04-16T11:21:02Z</time>
      </trkpt>
      <trkpt lat="47.34118" lon="-1.58193">
        <ele>87</ele>
        <time>2022-04-16T11:21:04Z</time>
      </trkpt>
      <trkpt lat="47.34108" lon="-1.58178">
        <ele>86</ele>
        <time>2022-04-16T11:21:06Z</time>
      </trkpt>
      <trkpt lat="47.34099" lon="-1.58164">
        <ele>87</ele>
        <time>2022-04-16T11:21:08Z</time>
      </trkpt>
      <trkpt lat="47.34088" lon="-1.58149">
        <ele>86</ele>
        <time>2022-04-16T11:21:10Z</time>
      </trkpt>
      <trkpt lat="47.34077" lon="-1.58133">
        <ele>87</ele>
        <time>2022-04-16T11:21:12Z</time>
      </trkpt>
      <trkpt lat="47.34068" lon="-1.58118">
        <ele>86</ele>
        <time>2022-04-16T11:21:14Z</time>
      </trkpt>
      <trkpt lat="47.34056" lon="-1.58104">
        <ele>86</ele>
        <time>2022-04-16T11:21:16Z</time>
      </trkpt>
      <trkpt lat="47.34045" lon="-1.58089">
        <ele>85</ele>
        <time>2022-04-16T11:21:18Z</time>
      </trkpt>
      <trkpt lat="47.34035" lon="-1.58075">
        <ele>85</ele>
        <time>2022-04-16T11:21:20Z</time>
      </trkpt>
      <trkpt lat="47.34025" lon="-1.58061">
        <ele>84</ele>
        <time>2022-04-16T11:21:22Z</time>
      </trkpt>
      <trkpt lat="47.34014" lon="-1.58047">
        <ele>85</ele>
        <time>2022-04-16T11:21:24Z</time>
      </trkpt>
      <trkpt lat="47.34002" lon="-1.58032">
        <ele>84</ele>
        <time>2022-04-16T11:21:26Z</time>
      </trkpt>
      <trkpt lat="47.3399" lon="-1.58018">
        <ele>83</ele>
        <time>2022-04-16T11:21:28Z</time>
      </trkpt>
      <trkpt lat="47.33979" lon="-1.58003">
        <ele>83</ele>
        <time>2022-04-16T11:21:30Z</time>
      </trkpt>
      <trkpt lat="47.33969" lon="-1.57989">
        <ele>83</ele>
        <time>2022-04-16T11:21:32Z</time>
      </trkpt>
      <trkpt lat="47.33959" lon="-1.57975">
        <ele>83</ele>
        <time>2022-04-16T11:21:34Z</time>
      </trkpt>
      <trkpt lat="47.33949" lon="-1.57961">
        <ele>82</ele>
        <time>2022-04-16T11:21:36Z</time>
      </trkpt>
      <trkpt lat="47.33939" lon="-1.57948">
        <ele>83</ele>
        <time>2022-04-16T11:21:38Z</time>
      </trkpt>
      <trkpt lat="47.33929" lon="-1.57935">
        <ele>82</ele>
        <time>2022-04-16T11:21:40Z</time>
      </trkpt>
      <trkpt lat="47.3392" lon="-1.57922">
        <ele>83</ele>
        <time>2022-04-16T11:21:42Z</time>
      </trkpt>
      <trkpt lat="47.33911" lon="-1.5791">
        <ele>83</ele>
        <time>2022-04-16T11:21:44Z</time>
      </trkpt>
      <trkpt lat="47.33902" lon="-1.57899">
        <ele>84</ele>
        <time>2022-04-16T11:21:46Z</time>
      </trkpt>
      <trkpt lat="47.33893" lon="-1.57888">
        <ele>84</ele>
        <time>2022-04-16T11:21:48Z</time>
      </trkpt>
      <trkpt lat="47.33884" lon="-1.57877">
        <ele>84</ele>
        <time>2022-04-16T11:21:50Z</time>
      </trkpt>
      <trkpt lat="47.33875" lon="-1.57866">
        <ele>85</ele>
        <time>2022-04-16T11:21:52Z</time>
      </trkpt>
      <trkpt lat="47.33866" lon="-1.57856">
        <ele>85</ele>
        <time>2022-04-16T11:21:54Z</time>
      </trkpt>
      <trkpt lat="47.33857" lon="-1.57848">
        <ele>85</ele>
        <time>2022-04-16T11:21:56Z</time>
      </trkpt>
      <trkpt lat="47.33849" lon="-1.57841">
        <ele>85</ele>
        <time>2022-04-16T11:21:58Z</time>
      </trkpt>
      <trkpt lat="47.3384" lon="-1.57829">
        <ele>86</ele>
        <time>2022-04-16T11:22:01Z</time>
      </trkpt>
      <trkpt lat="47.3384" lon="-1.57809">
        <ele>87</ele>
        <time>2022-04-16T11:22:04Z</time>
      </trkpt>
      <trkpt lat="47.33844" lon="-1.57794">
        <ele>86</ele>
        <time>2022-04-16T11:22:06Z</time>
      </trkpt>
      <trkpt lat="47.33849" lon="-1.57777">
        <ele>86</ele>
        <time>2022-04-16T11:22:08Z</time>
      </trkpt>
      <trkpt lat="47.33853" lon="-1.57761">
        <ele>87</ele>
        <time>2022-04-16T11:22:10Z</time>
      </trkpt>
      <trkpt lat="47.33858" lon="-1.57746">
        <ele>87</ele>
        <time>2022-04-16T11:22:12Z</time>
      </trkpt>
      <trkpt lat="47.33863" lon="-1.5773">
        <ele>87</ele>
        <time>2022-04-16T11:22:14Z</time>
      </trkpt>
      <trkpt lat="47.33867" lon="-1.57714">
        <ele>87</ele>
        <time>2022-04-16T11:22:16Z</time>
      </trkpt>
      <trkpt lat="47.33871" lon="-1.57698">
        <ele>87</ele>
        <time>2022-04-16T11:22:18Z</time>
      </trkpt>
      <trkpt lat="47.33876" lon="-1.57682">
        <ele>88</ele>
        <time>2022-04-16T11:22:20Z</time>
      </trkpt>
      <trkpt lat="47.3388" lon="-1.57667">
        <ele>88</ele>
        <time>2022-04-16T11:22:22Z</time>
      </trkpt>
      <trkpt lat="47.33885" lon="-1.57652">
        <ele>88</ele>
        <time>2022-04-16T11:22:24Z</time>
      </trkpt>
      <trkpt lat="47.33889" lon="-1.57636">
        <ele>87</ele>
        <time>2022-04-16T11:22:26Z</time>
      </trkpt>
      <trkpt lat="47.33894" lon="-1.57621">
        <ele>88</ele>
        <time>2022-04-16T11:22:28Z</time>
      </trkpt>
      <trkpt lat="47.33899" lon="-1.57605">
        <ele>88</ele>
        <time>2022-04-16T11:22:30Z</time>
      </trkpt>
      <trkpt lat="47.33904" lon="-1.57589">
        <ele>87</ele>
        <time>2022-04-16T11:22:32Z</time>
      </trkpt>
      <trkpt lat="47.33908" lon="-1.57571">
        <ele>88</ele>
        <time>2022-04-16T11:22:34Z</time>
      </trkpt>
      <trkpt lat="47.33913" lon="-1.57554">
        <ele>87</ele>
        <time>2022-04-16T11:22:36Z</time>
      </trkpt>
      <trkpt lat="47.33918" lon="-1.57537">
        <ele>87</ele>
        <time>2022-04-16T11:22:38Z</time>
      </trkpt>
      <trkpt lat="47.33922" lon="-1.5752">
        <ele>87</ele>
        <time>2022-04-16T11:22:40Z</time>
      </trkpt>
      <trkpt lat="47.33927" lon="-1.57502">
        <ele>87</ele>
        <time>2022-04-16T11:22:42Z</time>
      </trkpt>
      <trkpt lat="47.33933" lon="-1.57483">
        <ele>86</ele>
        <time>2022-04-16T11:22:44Z</time>
      </trkpt>
      <trkpt lat="47.33938" lon="-1.57464">
        <ele>85</ele>
        <time>2022-04-16T11:22:46Z</time>
      </trkpt>
      <trkpt lat="47.33944" lon="-1.57445">
        <ele>84</ele>
        <time>2022-04-16T11:22:48Z</time>
      </trkpt>
      <trkpt lat="47.3395" lon="-1.57426">
        <ele>83</ele>
        <time>2022-04-16T11:22:50Z</time>
      </trkpt>
      <trkpt lat="47.33955" lon="-1.57406">
        <ele>82</ele>
        <time>2022-04-16T11:22:52Z</time>
      </trkpt>
      <trkpt lat="47.33961" lon="-1.57387">
        <ele>81</ele>
        <time>2022-04-16T11:22:54Z</time>
      </trkpt>
      <trkpt lat="47.33967" lon="-1.57368">
        <ele>81</ele>
        <time>2022-04-16T11:22:56Z</time>
      </trkpt>
      <trkpt lat="47.33972" lon="-1.57348">
        <ele>80</ele>
        <time>2022-04-16T11:22:58Z</time>
      </trkpt>
      <trkpt lat="47.33977" lon="-1.57328">
        <ele>79</ele>
        <time>2022-04-16T11:23:00Z</time>
      </trkpt>
      <trkpt lat="47.3398" lon="-1.57308">
        <ele>79</ele>
        <time>2022-04-16T11:23:02Z</time>
      </trkpt>
      <trkpt lat="47.33983" lon="-1.57287">
        <ele>78</ele>
        <time>2022-04-16T11:23:04Z</time>
      </trkpt>
      <trkpt lat="47.33986" lon="-1.57265">
        <ele>77</ele>
        <time>2022-04-16T11:23:06Z</time>
      </trkpt>
      <trkpt lat="47.33988" lon="-1.57243">
        <ele>77</ele>
        <time>2022-04-16T11:23:08Z</time>
      </trkpt>
      <trkpt lat="47.33989" lon="-1.57221">
        <ele>77</ele>
        <time>2022-04-16T11:23:10Z</time>
      </trkpt>
      <trkpt lat="47.3399" lon="-1.57199">
        <ele>77</ele>
        <time>2022-04-16T11:23:12Z</time>
      </trkpt>
      <trkpt lat="47.33992" lon="-1.57178">
        <ele>77</ele>
        <time>2022-04-16T11:23:14Z</time>
      </trkpt>
      <trkpt lat="47.33993" lon="-1.57158">
        <ele>78</ele>
        <time>2022-04-16T11:23:16Z</time>
      </trkpt>
      <trkpt lat="47.33993" lon="-1.57138">
        <ele>78</ele>
        <time>2022-04-16T11:23:18Z</time>
      </trkpt>
      <trkpt lat="47.33993" lon="-1.57118">
        <ele>78</ele>
        <time>2022-04-16T11:23:20Z</time>
      </trkpt>
      <trkpt lat="47.33993" lon="-1.57098">
        <ele>78</ele>
        <time>2022-04-16T11:23:22Z</time>
      </trkpt>
      <trkpt lat="47.33993" lon="-1.57078">
        <ele>78</ele>
        <time>2022-04-16T11:23:24Z</time>
      </trkpt>
      <trkpt lat="47.33992" lon="-1.57058">
        <ele>78</ele>
        <time>2022-04-16T11:23:26Z</time>
      </trkpt>
      <trkpt lat="47.33992" lon="-1.57037">
        <ele>77</ele>
        <time>2022-04-16T11:23:28Z</time>
      </trkpt>
      <trkpt lat="47.33993" lon="-1.57016">
        <ele>76</ele>
        <time>2022-04-16T11:23:30Z</time>
      </trkpt>
      <trkpt lat="47.33993" lon="-1.56994">
        <ele>76</ele>
        <time>2022-04-16T11:23:32Z</time>
      </trkpt>
      <trkpt lat="47.33995" lon="-1.56974">
        <ele>76</ele>
        <time>2022-04-16T11:23:34Z</time>
      </trkpt>
      <trkpt lat="47.33995" lon="-1.56952">
        <ele>75</ele>
        <time>2022-04-16T11:23:36Z</time>
      </trkpt>
      <trkpt lat="47.33996" lon="-1.5693">
        <ele>75</ele>
        <time>2022-04-16T11:23:38Z</time>
      </trkpt>
      <trkpt lat="47.33998" lon="-1.56907">
        <ele>74</ele>
        <time>2022-04-16T11:23:40Z</time>
      </trkpt>
      <trkpt lat="47.33999" lon="-1.56883">
        <ele>73</ele>
        <time>2022-04-16T11:23:42Z</time>
      </trkpt>
      <trkpt lat="47.34" lon="-1.5686">
        <ele>73</ele>
        <time>2022-04-16T11:23:44Z</time>
      </trkpt>
      <trkpt lat="47.34001" lon="-1.56837">
        <ele>73</ele>
        <time>2022-04-16T11:23:46Z</time>
      </trkpt>
      <trkpt lat="47.34002" lon="-1.56816">
        <ele>73</ele>
        <time>2022-04-16T11:23:48Z</time>
      </trkpt>
      <trkpt lat="47.34003" lon="-1.56796">
        <ele>74</ele>
        <time>2022-04-16T11:23:50Z</time>
      </trkpt>
      <trkpt lat="47.34005" lon="-1.56776">
        <ele>74</ele>
        <time>2022-04-16T11:23:52Z</time>
      </trkpt>
      <trkpt lat="47.34006" lon="-1.56754">
        <ele>73</ele>
        <time>2022-04-16T11:23:54Z</time>
      </trkpt>
      <trkpt lat="47.34007" lon="-1.56732">
        <ele>73</ele>
        <time>2022-04-16T11:23:56Z</time>
      </trkpt>
      <trkpt lat="47.34007" lon="-1.56712">
        <ele>74</ele>
        <time>2022-04-16T11:23:58Z</time>
      </trkpt>
      <trkpt lat="47.34008" lon="-1.56693">
        <ele>74</ele>
        <time>2022-04-16T11:24:00Z</time>
      </trkpt>
      <trkpt lat="47.34009" lon="-1.56672">
        <ele>74</ele>
        <time>2022-04-16T11:24:02Z</time>
      </trkpt>
      <trkpt lat="47.34009" lon="-1.56651">
        <ele>74</ele>
        <time>2022-04-16T11:24:04Z</time>
      </trkpt>
      <trkpt lat="47.3401" lon="-1.56629">
        <ele>74</ele>
        <time>2022-04-16T11:24:06Z</time>
      </trkpt>
      <trkpt lat="47.34011" lon="-1.56608">
        <ele>73</ele>
        <time>2022-04-16T11:24:08Z</time>
      </trkpt>
      <trkpt lat="47.34011" lon="-1.56585">
        <ele>72</ele>
        <time>2022-04-16T11:24:10Z</time>
      </trkpt>
      <trkpt lat="47.34012" lon="-1.56563">
        <ele>72</ele>
        <time>2022-04-16T11:24:12Z</time>
      </trkpt>
      <trkpt lat="47.34013" lon="-1.56539">
        <ele>71</ele>
        <time>2022-04-16T11:24:14Z</time>
      </trkpt>
      <trkpt lat="47.34014" lon="-1.56517">
        <ele>70</ele>
        <time>2022-04-16T11:24:16Z</time>
      </trkpt>
      <trkpt lat="47.34015" lon="-1.56494">
        <ele>70</ele>
        <time>2022-04-16T11:24:18Z</time>
      </trkpt>
      <trkpt lat="47.34017" lon="-1.5647">
        <ele>69</ele>
        <time>2022-04-16T11:24:20Z</time>
      </trkpt>
      <trkpt lat="47.34018" lon="-1.56448">
        <ele>69</ele>
        <time>2022-04-16T11:24:22Z</time>
      </trkpt>
      <trkpt lat="47.34019" lon="-1.56425">
        <ele>69</ele>
        <time>2022-04-16T11:24:24Z</time>
      </trkpt>
      <trkpt lat="47.3402" lon="-1.56403">
        <ele>69</ele>
        <time>2022-04-16T11:24:26Z</time>
      </trkpt>
      <trkpt lat="47.3402" lon="-1.56381">
        <ele>69</ele>
        <time>2022-04-16T11:24:28Z</time>
      </trkpt>
      <trkpt lat="47.34019" lon="-1.56361">
        <ele>70</ele>
        <time>2022-04-16T11:24:30Z</time>
      </trkpt>
      <trkpt lat="47.34018" lon="-1.56341">
        <ele>71</ele>
        <time>2022-04-16T11:24:32Z</time>
      </trkpt>
      <trkpt lat="47.34015" lon="-1.5632">
        <ele>71</ele>
        <time>2022-04-16T11:24:34Z</time>
      </trkpt>
      <trkpt lat="47.34012" lon="-1.56299">
        <ele>71</ele>
        <time>2022-04-16T11:24:36Z</time>
      </trkpt>
      <trkpt lat="47.3401" lon="-1.56277">
        <ele>70</ele>
        <time>2022-04-16T11:24:38Z</time>
      </trkpt>
      <trkpt lat="47.34006" lon="-1.56255">
        <ele>69</ele>
        <time>2022-04-16T11:24:40Z</time>
      </trkpt>
      <trkpt lat="47.34003" lon="-1.56233">
        <ele>69</ele>
        <time>2022-04-16T11:24:42Z</time>
      </trkpt>
      <trkpt lat="47.34" lon="-1.56211">
        <ele>69</ele>
        <time>2022-04-16T11:24:44Z</time>
      </trkpt>
      <trkpt lat="47.33997" lon="-1.56188">
        <ele>69</ele>
        <time>2022-04-16T11:24:46Z</time>
      </trkpt>
      <trkpt lat="47.33993" lon="-1.56163">
        <ele>68</ele>
        <time>2022-04-16T11:24:48Z</time>
      </trkpt>
      <trkpt lat="47.33989" lon="-1.56139">
        <ele>68</ele>
        <time>2022-04-16T11:24:50Z</time>
      </trkpt>
      <trkpt lat="47.33988" lon="-1.56126">
        <ele>67</ele>
        <time>2022-04-16T11:24:51Z</time>
      </trkpt>
      <trkpt lat="47.33986" lon="-1.56101">
        <ele>67</ele>
        <time>2022-04-16T11:24:53Z</time>
      </trkpt>
      <trkpt lat="47.33985" lon="-1.56076">
        <ele>67</ele>
        <time>2022-04-16T11:24:55Z</time>
      </trkpt>
      <trkpt lat="47.33985" lon="-1.56062">
        <ele>66</ele>
        <time>2022-04-16T11:24:56Z</time>
      </trkpt>
      <trkpt lat="47.33985" lon="-1.56049">
        <ele>65</ele>
        <time>2022-04-16T11:24:57Z</time>
      </trkpt>
      <trkpt lat="47.33989" lon="-1.56024">
        <ele>64</ele>
        <time>2022-04-16T11:24:59Z</time>
      </trkpt>
      <trkpt lat="47.33999" lon="-1.56003">
        <ele>63</ele>
        <time>2022-04-16T11:25:01Z</time>
      </trkpt>
      <trkpt lat="47.34012" lon="-1.55983">
        <ele>61</ele>
        <time>2022-04-16T11:25:03Z</time>
      </trkpt>
      <trkpt lat="47.34019" lon="-1.55975">
        <ele>61</ele>
        <time>2022-04-16T11:25:04Z</time>
      </trkpt>
      <trkpt lat="47.34026" lon="-1.55966">
        <ele>61</ele>
        <time>2022-04-16T11:25:05Z</time>
      </trkpt>
      <trkpt lat="47.3404" lon="-1.5595">
        <ele>61</ele>
        <time>2022-04-16T11:25:07Z</time>
      </trkpt>
      <trkpt lat="47.34053" lon="-1.55934">
        <ele>60</ele>
        <time>2022-04-16T11:25:09Z</time>
      </trkpt>
      <trkpt lat="47.34063" lon="-1.55916">
        <ele>59</ele>
        <time>2022-04-16T11:25:11Z</time>
      </trkpt>
      <trkpt lat="47.34066" lon="-1.55897">
        <ele>60</ele>
        <time>2022-04-16T11:25:13Z</time>
      </trkpt>
      <trkpt lat="47.34066" lon="-1.55879">
        <ele>60</ele>
        <time>2022-04-16T11:25:15Z</time>
      </trkpt>
      <trkpt lat="47.34064" lon="-1.55863">
        <ele>60</ele>
        <time>2022-04-16T11:25:17Z</time>
      </trkpt>
      <trkpt lat="47.34062" lon="-1.55848">
        <ele>61</ele>
        <time>2022-04-16T11:25:19Z</time>
      </trkpt>
      <trkpt lat="47.3406" lon="-1.55834">
        <ele>61</ele>
        <time>2022-04-16T11:25:21Z</time>
      </trkpt>
      <trkpt lat="47.34057" lon="-1.55816">
        <ele>63</ele>
        <time>2022-04-16T11:25:24Z</time>
      </trkpt>
      <trkpt lat="47.34055" lon="-1.55795">
        <ele>64</ele>
        <time>2022-04-16T11:25:27Z</time>
      </trkpt>
      <trkpt lat="47.34053" lon="-1.5578">
        <ele>64</ele>
        <time>2022-04-16T11:25:29Z</time>
      </trkpt>
      <trkpt lat="47.34054" lon="-1.55764">
        <ele>65</ele>
        <time>2022-04-16T11:25:31Z</time>
      </trkpt>
      <trkpt lat="47.34056" lon="-1.55748">
        <ele>65</ele>
        <time>2022-04-16T11:25:33Z</time>
      </trkpt>
      <trkpt lat="47.34058" lon="-1.55732">
        <ele>65</ele>
        <time>2022-04-16T11:25:35Z</time>
      </trkpt>
      <trkpt lat="47.34062" lon="-1.55715">
        <ele>65</ele>
        <time>2022-04-16T11:25:37Z</time>
      </trkpt>
      <trkpt lat="47.34065" lon="-1.55698">
        <ele>65</ele>
        <time>2022-04-16T11:25:39Z</time>
      </trkpt>
      <trkpt lat="47.34068" lon="-1.55683">
        <ele>65</ele>
        <time>2022-04-16T11:25:41Z</time>
      </trkpt>
      <trkpt lat="47.34071" lon="-1.55667">
        <ele>65</ele>
        <time>2022-04-16T11:25:43Z</time>
      </trkpt>
      <trkpt lat="47.34075" lon="-1.55652">
        <ele>65</ele>
        <time>2022-04-16T11:25:45Z</time>
      </trkpt>
      <trkpt lat="47.34078" lon="-1.55638">
        <ele>66</ele>
        <time>2022-04-16T11:25:47Z</time>
      </trkpt>
      <trkpt lat="47.34081" lon="-1.55623">
        <ele>66</ele>
        <time>2022-04-16T11:25:49Z</time>
      </trkpt>
      <trkpt lat="47.34085" lon="-1.55609">
        <ele>67</ele>
        <time>2022-04-16T11:25:51Z</time>
      </trkpt>
      <trkpt lat="47.34089" lon="-1.55594">
        <ele>68</ele>
        <time>2022-04-16T11:25:53Z</time>
      </trkpt>
      <trkpt lat="47.34093" lon="-1.55579">
        <ele>68</ele>
        <time>2022-04-16T11:25:55Z</time>
      </trkpt>
      <trkpt lat="47.34097" lon="-1.55565">
        <ele>69</ele>
        <time>2022-04-16T11:25:57Z</time>
      </trkpt>
      <trkpt lat="47.34102" lon="-1.5555">
        <ele>69</ele>
        <time>2022-04-16T11:25:59Z</time>
      </trkpt>
      <trkpt lat="47.34108" lon="-1.55535">
        <ele>68</ele>
        <time>2022-04-16T11:26:01Z</time>
      </trkpt>
      <trkpt lat="47.34115" lon="-1.5552">
        <ele>67</ele>
        <time>2022-04-16T11:26:03Z</time>
      </trkpt>
      <trkpt lat="47.34122" lon="-1.55505">
        <ele>67</ele>
        <time>2022-04-16T11:26:05Z</time>
      </trkpt>
      <trkpt lat="47.34129" lon="-1.55492">
        <ele>66</ele>
        <time>2022-04-16T11:26:07Z</time>
      </trkpt>
      <trkpt lat="47.34137" lon="-1.55479">
        <ele>67</ele>
        <time>2022-04-16T11:26:09Z</time>
      </trkpt>
      <trkpt lat="47.34144" lon="-1.55467">
        <ele>67</ele>
        <time>2022-04-16T11:26:11Z</time>
      </trkpt>
      <trkpt lat="47.34152" lon="-1.55455">
        <ele>68</ele>
        <time>2022-04-16T11:26:13Z</time>
      </trkpt>
      <trkpt lat="47.3416" lon="-1.55443">
        <ele>67</ele>
        <time>2022-04-16T11:26:15Z</time>
      </trkpt>
      <trkpt lat="47.34168" lon="-1.5543">
        <ele>67</ele>
        <time>2022-04-16T11:26:17Z</time>
      </trkpt>
      <trkpt lat="47.34175" lon="-1.55419">
        <ele>67</ele>
        <time>2022-04-16T11:26:19Z</time>
      </trkpt>
      <trkpt lat="47.34183" lon="-1.55408">
        <ele>66</ele>
        <time>2022-04-16T11:26:21Z</time>
      </trkpt>
      <trkpt lat="47.3419" lon="-1.55398">
        <ele>66</ele>
        <time>2022-04-16T11:26:23Z</time>
      </trkpt>
      <trkpt lat="47.34197" lon="-1.55387">
        <ele>66</ele>
        <time>2022-04-16T11:26:25Z</time>
      </trkpt>
      <trkpt lat="47.34204" lon="-1.55377">
        <ele>66</ele>
        <time>2022-04-16T11:26:27Z</time>
      </trkpt>
      <trkpt lat="47.34211" lon="-1.55366">
        <ele>66</ele>
        <time>2022-04-16T11:26:29Z</time>
      </trkpt>
      <trkpt lat="47.34219" lon="-1.55355">
        <ele>65</ele>
        <time>2022-04-16T11:26:31Z</time>
      </trkpt>
      <trkpt lat="47.34227" lon="-1.55344">
        <ele>65</ele>
        <time>2022-04-16T11:26:33Z</time>
      </trkpt>
      <trkpt lat="47.34234" lon="-1.55331">
        <ele>65</ele>
        <time>2022-04-16T11:26:35Z</time>
      </trkpt>
      <trkpt lat="47.34243" lon="-1.55319">
        <ele>65</ele>
        <time>2022-04-16T11:26:37Z</time>
      </trkpt>
      <trkpt lat="47.34251" lon="-1.55306">
        <ele>64</ele>
        <time>2022-04-16T11:26:39Z</time>
      </trkpt>
      <trkpt lat="47.3426" lon="-1.55293">
        <ele>64</ele>
        <time>2022-04-16T11:26:41Z</time>
      </trkpt>
      <trkpt lat="47.34268" lon="-1.55281">
        <ele>65</ele>
        <time>2022-04-16T11:26:43Z</time>
      </trkpt>
      <trkpt lat="47.34278" lon="-1.55266">
        <ele>64</ele>
        <time>2022-04-16T11:26:45Z</time>
      </trkpt>
      <trkpt lat="47.34288" lon="-1.5525">
        <ele>63</ele>
        <time>2022-04-16T11:26:47Z</time>
      </trkpt>
      <trkpt lat="47.34295" lon="-1.55232">
        <ele>63</ele>
        <time>2022-04-16T11:26:49Z</time>
      </trkpt>
      <trkpt lat="47.34301" lon="-1.55213">
        <ele>62</ele>
        <time>2022-04-16T11:26:51Z</time>
      </trkpt>
      <trkpt lat="47.34307" lon="-1.55192">
        <ele>61</ele>
        <time>2022-04-16T11:26:53Z</time>
      </trkpt>
      <trkpt lat="47.3431" lon="-1.5517">
        <ele>60</ele>
        <time>2022-04-16T11:26:55Z</time>
      </trkpt>
      <trkpt lat="47.34313" lon="-1.55148">
        <ele>59</ele>
        <time>2022-04-16T11:26:57Z</time>
      </trkpt>
      <trkpt lat="47.34315" lon="-1.55124">
        <ele>58</ele>
        <time>2022-04-16T11:26:59Z</time>
      </trkpt>
      <trkpt lat="47.34317" lon="-1.55101">
        <ele>59</ele>
        <time>2022-04-16T11:27:01Z</time>
      </trkpt>
      <trkpt lat="47.34319" lon="-1.55079">
        <ele>59</ele>
        <time>2022-04-16T11:27:03Z</time>
      </trkpt>
      <trkpt lat="47.3432" lon="-1.55059">
        <ele>59</ele>
        <time>2022-04-16T11:27:05Z</time>
      </trkpt>
      <trkpt lat="47.34322" lon="-1.55042">
        <ele>60</ele>
        <time>2022-04-16T11:27:07Z</time>
      </trkpt>
      <trkpt lat="47.34323" lon="-1.55028">
        <ele>60</ele>
        <time>2022-04-16T11:27:09Z</time>
      </trkpt>
      <trkpt lat="47.34325" lon="-1.55014">
        <ele>60</ele>
        <time>2022-04-16T11:27:11Z</time>
      </trkpt>
      <trkpt lat="47.34327" lon="-1.54995">
        <ele>61</ele>
        <time>2022-04-16T11:27:14Z</time>
      </trkpt>
      <trkpt lat="47.3433" lon="-1.54978">
        <ele>61</ele>
        <time>2022-04-16T11:27:17Z</time>
      </trkpt>
      <trkpt lat="47.34331" lon="-1.54961">
        <ele>62</ele>
        <time>2022-04-16T11:27:20Z</time>
      </trkpt>
      <trkpt lat="47.34332" lon="-1.54943">
        <ele>62</ele>
        <time>2022-04-16T11:27:23Z</time>
      </trkpt>
      <trkpt lat="47.34334" lon="-1.54925">
        <ele>63</ele>
        <time>2022-04-16T11:27:26Z</time>
      </trkpt>
      <trkpt lat="47.34336" lon="-1.54907">
        <ele>64</ele>
        <time>2022-04-16T11:27:29Z</time>
      </trkpt>
      <trkpt lat="47.34337" lon="-1.54889">
        <ele>65</ele>
        <time>2022-04-16T11:27:32Z</time>
      </trkpt>
      <trkpt lat="47.34339" lon="-1.5487">
        <ele>65</ele>
        <time>2022-04-16T11:27:35Z</time>
      </trkpt>
      <trkpt lat="47.3434" lon="-1.54852">
        <ele>66</ele>
        <time>2022-04-16T11:27:38Z</time>
      </trkpt>
      <trkpt lat="47.34342" lon="-1.54834">
        <ele>67</ele>
        <time>2022-04-16T11:27:41Z</time>
      </trkpt>
      <trkpt lat="47.34344" lon="-1.54817">
        <ele>68</ele>
        <time>2022-04-16T11:27:44Z</time>
      </trkpt>
      <trkpt lat="47.34345" lon="-1.54799">
        <ele>69</ele>
        <time>2022-04-16T11:27:47Z</time>
      </trkpt>
      <trkpt lat="47.34347" lon="-1.5478">
        <ele>70</ele>
        <time>2022-04-16T11:27:50Z</time>
      </trkpt>
      <trkpt lat="47.3435" lon="-1.54762">
        <ele>70</ele>
        <time>2022-04-16T11:27:53Z</time>
      </trkpt>
      <trkpt lat="47.34357" lon="-1.54739">
        <ele>71</ele>
        <time>2022-04-16T11:27:57Z</time>
      </trkpt>
      <trkpt lat="47.34363" lon="-1.54724">
        <ele>71</ele>
        <time>2022-04-16T11:28:00Z</time>
      </trkpt>
      <trkpt lat="47.34372" lon="-1.54711">
        <ele>72</ele>
        <time>2022-04-16T11:28:03Z</time>
      </trkpt>
      <trkpt lat="47.34381" lon="-1.54698">
        <ele>72</ele>
        <time>2022-04-16T11:28:06Z</time>
      </trkpt>
      <trkpt lat="47.34391" lon="-1.54688">
        <ele>73</ele>
        <time>2022-04-16T11:28:09Z</time>
      </trkpt>
      <trkpt lat="47.34401" lon="-1.54677">
        <ele>73</ele>
        <time>2022-04-16T11:28:12Z</time>
      </trkpt>
      <trkpt lat="47.3441" lon="-1.54665">
        <ele>74</ele>
        <time>2022-04-16T11:28:15Z</time>
      </trkpt>
      <trkpt lat="47.34419" lon="-1.54651">
        <ele>74</ele>
        <time>2022-04-16T11:28:18Z</time>
      </trkpt>
      <trkpt lat="47.34427" lon="-1.54628">
        <ele>74</ele>
        <time>2022-04-16T11:28:22Z</time>
      </trkpt>
      <trkpt lat="47.34429" lon="-1.54615">
        <ele>74</ele>
        <time>2022-04-16T11:28:24Z</time>
      </trkpt>
      <trkpt lat="47.34427" lon="-1.54596">
        <ele>75</ele>
        <time>2022-04-16T11:28:27Z</time>
      </trkpt>
      <trkpt lat="47.34426" lon="-1.54583">
        <ele>75</ele>
        <time>2022-04-16T11:28:29Z</time>
      </trkpt>
      <trkpt lat="47.34422" lon="-1.54564">
        <ele>75</ele>
        <time>2022-04-16T11:28:32Z</time>
      </trkpt>
      <trkpt lat="47.34418" lon="-1.54545">
        <ele>76</ele>
        <time>2022-04-16T11:28:35Z</time>
      </trkpt>
      <trkpt lat="47.34414" lon="-1.54526">
        <ele>77</ele>
        <time>2022-04-16T11:28:38Z</time>
      </trkpt>
      <trkpt lat="47.34412" lon="-1.54513">
        <ele>77</ele>
        <time>2022-04-16T11:28:40Z</time>
      </trkpt>
      <trkpt lat="47.34408" lon="-1.54495">
        <ele>78</ele>
        <time>2022-04-16T11:28:43Z</time>
      </trkpt>
      <trkpt lat="47.34404" lon="-1.54476">
        <ele>78</ele>
        <time>2022-04-16T11:28:46Z</time>
      </trkpt>
      <trkpt lat="47.34401" lon="-1.54464">
        <ele>79</ele>
        <time>2022-04-16T11:28:48Z</time>
      </trkpt>
      <trkpt lat="47.34399" lon="-1.54451">
        <ele>79</ele>
        <time>2022-04-16T11:28:50Z</time>
      </trkpt>
      <trkpt lat="47.34396" lon="-1.54438">
        <ele>80</ele>
        <time>2022-04-16T11:28:52Z</time>
      </trkpt>
      <trkpt lat="47.34393" lon="-1.54425">
        <ele>80</ele>
        <time>2022-04-16T11:28:54Z</time>
      </trkpt>
      <trkpt lat="47.3439" lon="-1.54413">
        <ele>81</ele>
        <time>2022-04-16T11:28:56Z</time>
      </trkpt>
      <trkpt lat="47.34387" lon="-1.544">
        <ele>81</ele>
        <time>2022-04-16T11:28:58Z</time>
      </trkpt>
      <trkpt lat="47.34384" lon="-1.54388">
        <ele>82</ele>
        <time>2022-04-16T11:29:00Z</time>
      </trkpt>
      <trkpt lat="47.34378" lon="-1.54369">
        <ele>82</ele>
        <time>2022-04-16T11:29:03Z</time>
      </trkpt>
      <trkpt lat="47.34374" lon="-1.54357">
        <ele>83</ele>
        <time>2022-04-16T11:29:05Z</time>
      </trkpt>
      <trkpt lat="47.34371" lon="-1.54345">
        <ele>83</ele>
        <time>2022-04-16T11:29:07Z</time>
      </trkpt>
      <trkpt lat="47.34366" lon="-1.54333">
        <ele>83</ele>
        <time>2022-04-16T11:29:09Z</time>
      </trkpt>
      <trkpt lat="47.3436" lon="-1.54315">
        <ele>84</ele>
        <time>2022-04-16T11:29:12Z</time>
      </trkpt>
      <trkpt lat="47.34356" lon="-1.54303">
        <ele>84</ele>
        <time>2022-04-16T11:29:14Z</time>
      </trkpt>
      <trkpt lat="47.34352" lon="-1.5429">
        <ele>85</ele>
        <time>2022-04-16T11:29:16Z</time>
      </trkpt>
      <trkpt lat="47.34347" lon="-1.54278">
        <ele>85</ele>
        <time>2022-04-16T11:29:18Z</time>
      </trkpt>
      <trkpt lat="47.34341" lon="-1.54265">
        <ele>85</ele>
        <time>2022-04-16T11:29:20Z</time>
      </trkpt>
      <trkpt lat="47.34335" lon="-1.54251">
        <ele>85</ele>
        <time>2022-04-16T11:29:22Z</time>
      </trkpt>
      <trkpt lat="47.34329" lon="-1.54236">
        <ele>84</ele>
        <time>2022-04-16T11:29:24Z</time>
      </trkpt>
      <trkpt lat="47.34323" lon="-1.54222">
        <ele>84</ele>
        <time>2022-04-16T11:29:26Z</time>
      </trkpt>
      <trkpt lat="47.34317" lon="-1.54207">
        <ele>84</ele>
        <time>2022-04-16T11:29:28Z</time>
      </trkpt>
      <trkpt lat="47.34311" lon="-1.54191">
        <ele>84</ele>
        <time>2022-04-16T11:29:30Z</time>
      </trkpt>
      <trkpt lat="47.34305" lon="-1.54176">
        <ele>84</ele>
        <time>2022-04-16T11:29:32Z</time>
      </trkpt>
      <trkpt lat="47.343" lon="-1.5416">
        <ele>83</ele>
        <time>2022-04-16T11:29:34Z</time>
      </trkpt>
      <trkpt lat="47.34296" lon="-1.54143">
        <ele>83</ele>
        <time>2022-04-16T11:29:36Z</time>
      </trkpt>
      <trkpt lat="47.34293" lon="-1.54124">
        <ele>83</ele>
        <time>2022-04-16T11:29:38Z</time>
      </trkpt>
      <trkpt lat="47.34289" lon="-1.54105">
        <ele>82</ele>
        <time>2022-04-16T11:29:40Z</time>
      </trkpt>
      <trkpt lat="47.34287" lon="-1.54087">
        <ele>82</ele>
        <time>2022-04-16T11:29:42Z</time>
      </trkpt>
      <trkpt lat="47.34284" lon="-1.54068">
        <ele>82</ele>
        <time>2022-04-16T11:29:44Z</time>
      </trkpt>
      <trkpt lat="47.34281" lon="-1.5405">
        <ele>82</ele>
        <time>2022-04-16T11:29:46Z</time>
      </trkpt>
      <trkpt lat="47.34277" lon="-1.54031">
        <ele>82</ele>
        <time>2022-04-16T11:29:48Z</time>
      </trkpt>
      <trkpt lat="47.34272" lon="-1.54013">
        <ele>81</ele>
        <time>2022-04-16T11:29:50Z</time>
      </trkpt>
      <trkpt lat="47.34267" lon="-1.53996">
        <ele>81</ele>
        <time>2022-04-16T11:29:52Z</time>
      </trkpt>
      <trkpt lat="47.34259" lon="-1.53982">
        <ele>81</ele>
        <time>2022-04-16T11:29:54Z</time>
      </trkpt>
      <trkpt lat="47.34253" lon="-1.53966">
        <ele>81</ele>
        <time>2022-04-16T11:29:56Z</time>
      </trkpt>
      <trkpt lat="47.34247" lon="-1.53949">
        <ele>81</ele>
        <time>2022-04-16T11:29:58Z</time>
      </trkpt>
      <trkpt lat="47.34239" lon="-1.53934">
        <ele>81</ele>
        <time>2022-04-16T11:30:00Z</time>
      </trkpt>
      <trkpt lat="47.34231" lon="-1.5392">
        <ele>80</ele>
        <time>2022-04-16T11:30:02Z</time>
      </trkpt>
      <trkpt lat="47.34223" lon="-1.53906">
        <ele>80</ele>
        <time>2022-04-16T11:30:04Z</time>
      </trkpt>
      <trkpt lat="47.34214" lon="-1.53894">
        <ele>81</ele>
        <time>2022-04-16T11:30:06Z</time>
      </trkpt>
      <trkpt lat="47.34206" lon="-1.53881">
        <ele>81</ele>
        <time>2022-04-16T11:30:08Z</time>
      </trkpt>
      <trkpt lat="47.34197" lon="-1.53869">
        <ele>81</ele>
        <time>2022-04-16T11:30:10Z</time>
      </trkpt>
      <trkpt lat="47.34187" lon="-1.53857">
        <ele>81</ele>
        <time>2022-04-16T11:30:12Z</time>
      </trkpt>
      <trkpt lat="47.34177" lon="-1.53847">
        <ele>81</ele>
        <time>2022-04-16T11:30:14Z</time>
      </trkpt>
      <trkpt lat="47.34167" lon="-1.53837">
        <ele>82</ele>
        <time>2022-04-16T11:30:16Z</time>
      </trkpt>
      <trkpt lat="47.34157" lon="-1.53827">
        <ele>82</ele>
        <time>2022-04-16T11:30:18Z</time>
      </trkpt>
      <trkpt lat="47.34146" lon="-1.53816">
        <ele>82</ele>
        <time>2022-04-16T11:30:20Z</time>
      </trkpt>
      <trkpt lat="47.34135" lon="-1.53805">
        <ele>82</ele>
        <time>2022-04-16T11:30:22Z</time>
      </trkpt>
      <trkpt lat="47.34124" lon="-1.53795">
        <ele>81</ele>
        <time>2022-04-16T11:30:24Z</time>
      </trkpt>
      <trkpt lat="47.34113" lon="-1.53784">
        <ele>81</ele>
        <time>2022-04-16T11:30:26Z</time>
      </trkpt>
      <trkpt lat="47.34102" lon="-1.53773">
        <ele>81</ele>
        <time>2022-04-16T11:30:28Z</time>
      </trkpt>
      <trkpt lat="47.34091" lon="-1.53763">
        <ele>81</ele>
        <time>2022-04-16T11:30:30Z</time>
      </trkpt>
      <trkpt lat="47.34081" lon="-1.53752">
        <ele>81</ele>
        <time>2022-04-16T11:30:32Z</time>
      </trkpt>
      <trkpt lat="47.3407" lon="-1.5374">
        <ele>81</ele>
        <time>2022-04-16T11:30:34Z</time>
      </trkpt>
      <trkpt lat="47.34059" lon="-1.53729">
        <ele>81</ele>
        <time>2022-04-16T11:30:36Z</time>
      </trkpt>
      <trkpt lat="47.34048" lon="-1.53717">
        <ele>81</ele>
        <time>2022-04-16T11:30:38Z</time>
      </trkpt>
      <trkpt lat="47.34037" lon="-1.53707">
        <ele>80</ele>
        <time>2022-04-16T11:30:40Z</time>
      </trkpt>
      <trkpt lat="47.34026" lon="-1.53696">
        <ele>80</ele>
        <time>2022-04-16T11:30:42Z</time>
      </trkpt>
      <trkpt lat="47.34015" lon="-1.53684">
        <ele>80</ele>
        <time>2022-04-16T11:30:44Z</time>
      </trkpt>
      <trkpt lat="47.34004" lon="-1.53673">
        <ele>80</ele>
        <time>2022-04-16T11:30:46Z</time>
      </trkpt>
      <trkpt lat="47.33992" lon="-1.53662">
        <ele>80</ele>
        <time>2022-04-16T11:30:48Z</time>
      </trkpt>
      <trkpt lat="47.3398" lon="-1.53651">
        <ele>80</ele>
        <time>2022-04-16T11:30:50Z</time>
      </trkpt>
      <trkpt lat="47.33969" lon="-1.53639">
        <ele>79</ele>
        <time>2022-04-16T11:30:52Z</time>
      </trkpt>
      <trkpt lat="47.33957" lon="-1.53626">
        <ele>78</ele>
        <time>2022-04-16T11:30:54Z</time>
      </trkpt>
      <trkpt lat="47.33944" lon="-1.53613">
        <ele>78</ele>
        <time>2022-04-16T11:30:56Z</time>
      </trkpt>
      <trkpt lat="47.33932" lon="-1.53599">
        <ele>77</ele>
        <time>2022-04-16T11:30:58Z</time>
      </trkpt>
      <trkpt lat="47.33922" lon="-1.53582">
        <ele>76</ele>
        <time>2022-04-16T11:31:00Z</time>
      </trkpt>
      <trkpt lat="47.33914" lon="-1.53561">
        <ele>75</ele>
        <time>2022-04-16T11:31:02Z</time>
      </trkpt>
      <trkpt lat="47.33912" lon="-1.53536">
        <ele>74</ele>
        <time>2022-04-16T11:31:04Z</time>
      </trkpt>
      <trkpt lat="47.33912" lon="-1.53511">
        <ele>73</ele>
        <time>2022-04-16T11:31:06Z</time>
      </trkpt>
      <trkpt lat="47.33914" lon="-1.53485">
        <ele>71</ele>
        <time>2022-04-16T11:31:08Z</time>
      </trkpt>
      <trkpt lat="47.33913" lon="-1.5346">
        <ele>70</ele>
        <time>2022-04-16T11:31:10Z</time>
      </trkpt>
      <trkpt lat="47.33907" lon="-1.53437">
        <ele>69</ele>
        <time>2022-04-16T11:31:12Z</time>
      </trkpt>
      <trkpt lat="47.33899" lon="-1.53417">
        <ele>69</ele>
        <time>2022-04-16T11:31:14Z</time>
      </trkpt>
      <trkpt lat="47.33895" lon="-1.53394">
        <ele>68</ele>
        <time>2022-04-16T11:31:16Z</time>
      </trkpt>
      <trkpt lat="47.33897" lon="-1.53371">
        <ele>67</ele>
        <time>2022-04-16T11:31:18Z</time>
      </trkpt>
      <trkpt lat="47.33904" lon="-1.53351">
        <ele>66</ele>
        <time>2022-04-16T11:31:20Z</time>
      </trkpt>
      <trkpt lat="47.33913" lon="-1.53332">
        <ele>65</ele>
        <time>2022-04-16T11:31:22Z</time>
      </trkpt>
      <trkpt lat="47.3392" lon="-1.53312">
        <ele>64</ele>
        <time>2022-04-16T11:31:24Z</time>
      </trkpt>
      <trkpt lat="47.33929" lon="-1.53293">
        <ele>64</ele>
        <time>2022-04-16T11:31:26Z</time>
      </trkpt>
      <trkpt lat="47.33936" lon="-1.53272">
        <ele>63</ele>
        <time>2022-04-16T11:31:28Z</time>
      </trkpt>
      <trkpt lat="47.33944" lon="-1.53253">
        <ele>62</ele>
        <time>2022-04-16T11:31:30Z</time>
      </trkpt>
      <trkpt lat="47.33951" lon="-1.53236">
        <ele>62</ele>
        <time>2022-04-16T11:31:32Z</time>
      </trkpt>
      <trkpt lat="47.33958" lon="-1.53219">
        <ele>61</ele>
        <time>2022-04-16T11:31:34Z</time>
      </trkpt>
      <trkpt lat="47.33956" lon="-1.53206">
        <ele>60</ele>
        <time>2022-04-16T11:31:53Z</time>
      </trkpt>
      <trkpt lat="47.33951" lon="-1.5319">
        <ele>60</ele>
        <time>2022-04-16T11:31:57Z</time>
      </trkpt>
      <trkpt lat="47.33943" lon="-1.53175">
        <ele>60</ele>
        <time>2022-04-16T11:31:59Z</time>
      </trkpt>
      <trkpt lat="47.33935" lon="-1.53159">
        <ele>59</ele>
        <time>2022-04-16T11:32:01Z</time>
      </trkpt>
      <trkpt lat="47.33926" lon="-1.53142">
        <ele>59</ele>
        <time>2022-04-16T11:32:03Z</time>
      </trkpt>
      <trkpt lat="47.33919" lon="-1.53126">
        <ele>58</ele>
        <time>2022-04-16T11:32:05Z</time>
      </trkpt>
      <trkpt lat="47.33911" lon="-1.53109">
        <ele>58</ele>
        <time>2022-04-16T11:32:07Z</time>
      </trkpt>
      <trkpt lat="47.33902" lon="-1.53093">
        <ele>57</ele>
        <time>2022-04-16T11:32:09Z</time>
      </trkpt>
      <trkpt lat="47.33896" lon="-1.53081">
        <ele>57</ele>
        <time>2022-04-16T11:32:11Z</time>
      </trkpt>
      <trkpt lat="47.33894" lon="-1.53065">
        <ele>57</ele>
        <time>2022-04-16T11:32:14Z</time>
      </trkpt>
      <trkpt lat="47.339" lon="-1.5305">
        <ele>57</ele>
        <time>2022-04-16T11:32:16Z</time>
      </trkpt>
      <trkpt lat="47.33906" lon="-1.53035">
        <ele>56</ele>
        <time>2022-04-16T11:32:18Z</time>
      </trkpt>
      <trkpt lat="47.33913" lon="-1.53017">
        <ele>56</ele>
        <time>2022-04-16T11:32:20Z</time>
      </trkpt>
      <trkpt lat="47.33919" lon="-1.53">
        <ele>55</ele>
        <time>2022-04-16T11:32:22Z</time>
      </trkpt>
      <trkpt lat="47.33925" lon="-1.52981">
        <ele>55</ele>
        <time>2022-04-16T11:32:24Z</time>
      </trkpt>
      <trkpt lat="47.33932" lon="-1.52963">
        <ele>55</ele>
        <time>2022-04-16T11:32:26Z</time>
      </trkpt>
      <trkpt lat="47.33938" lon="-1.52947">
        <ele>56</ele>
        <time>2022-04-16T11:32:28Z</time>
      </trkpt>
      <trkpt lat="47.33943" lon="-1.52931">
        <ele>56</ele>
        <time>2022-04-16T11:32:30Z</time>
      </trkpt>
      <trkpt lat="47.33949" lon="-1.52916">
        <ele>57</ele>
        <time>2022-04-16T11:32:32Z</time>
      </trkpt>
      <trkpt lat="47.33955" lon="-1.529">
        <ele>57</ele>
        <time>2022-04-16T11:32:34Z</time>
      </trkpt>
      <trkpt lat="47.33961" lon="-1.52886">
        <ele>57</ele>
        <time>2022-04-16T11:32:36Z</time>
      </trkpt>
      <trkpt lat="47.33966" lon="-1.52874">
        <ele>57</ele>
        <time>2022-04-16T11:32:38Z</time>
      </trkpt>
      <trkpt lat="47.3397" lon="-1.5286">
        <ele>57</ele>
        <time>2022-04-16T11:32:41Z</time>
      </trkpt>
      <trkpt lat="47.33965" lon="-1.52849">
        <ele>57</ele>
        <time>2022-04-16T11:32:44Z</time>
      </trkpt>
      <trkpt lat="47.33953" lon="-1.52838">
        <ele>57</ele>
        <time>2022-04-16T11:32:46Z</time>
      </trkpt>
      <trkpt lat="47.33939" lon="-1.52829">
        <ele>58</ele>
        <time>2022-04-16T11:32:48Z</time>
      </trkpt>
      <trkpt lat="47.33924" lon="-1.52819">
        <ele>59</ele>
        <time>2022-04-16T11:32:50Z</time>
      </trkpt>
      <trkpt lat="47.33913" lon="-1.52806">
        <ele>59</ele>
        <time>2022-04-16T11:32:52Z</time>
      </trkpt>
      <trkpt lat="47.33911" lon="-1.52787">
        <ele>58</ele>
        <time>2022-04-16T11:32:54Z</time>
      </trkpt>
      <trkpt lat="47.33915" lon="-1.52769">
        <ele>58</ele>
        <time>2022-04-16T11:32:56Z</time>
      </trkpt>
      <trkpt lat="47.33918" lon="-1.52751">
        <ele>58</ele>
        <time>2022-04-16T11:32:58Z</time>
      </trkpt>
      <trkpt lat="47.3392" lon="-1.52732">
        <ele>57</ele>
        <time>2022-04-16T11:33:00Z</time>
      </trkpt>
      <trkpt lat="47.33922" lon="-1.52713">
        <ele>57</ele>
        <time>2022-04-16T11:33:02Z</time>
      </trkpt>
      <trkpt lat="47.33924" lon="-1.52692">
        <ele>56</ele>
        <time>2022-04-16T11:33:04Z</time>
      </trkpt>
      <trkpt lat="47.33927" lon="-1.52674">
        <ele>56</ele>
        <time>2022-04-16T11:33:06Z</time>
      </trkpt>
      <trkpt lat="47.33931" lon="-1.52656">
        <ele>56</ele>
        <time>2022-04-16T11:33:08Z</time>
      </trkpt>
      <trkpt lat="47.33934" lon="-1.52638">
        <ele>56</ele>
        <time>2022-04-16T11:33:10Z</time>
      </trkpt>
      <trkpt lat="47.33937" lon="-1.5262">
        <ele>57</ele>
        <time>2022-04-16T11:33:12Z</time>
      </trkpt>
      <trkpt lat="47.33935" lon="-1.52605">
        <ele>57</ele>
        <time>2022-04-16T11:33:14Z</time>
      </trkpt>
      <trkpt lat="47.33924" lon="-1.52598">
        <ele>56</ele>
        <time>2022-04-16T11:33:16Z</time>
      </trkpt>
      <trkpt lat="47.33912" lon="-1.52594">
        <ele>57</ele>
        <time>2022-04-16T11:33:18Z</time>
      </trkpt>
      <trkpt lat="47.33899" lon="-1.52589">
        <ele>57</ele>
        <time>2022-04-16T11:33:20Z</time>
      </trkpt>
      <trkpt lat="47.33885" lon="-1.52585">
        <ele>57</ele>
        <time>2022-04-16T11:33:22Z</time>
      </trkpt>
      <trkpt lat="47.33873" lon="-1.5258">
        <ele>58</ele>
        <time>2022-04-16T11:33:24Z</time>
      </trkpt>
      <trkpt lat="47.33862" lon="-1.52576">
        <ele>58</ele>
        <time>2022-04-16T11:33:26Z</time>
      </trkpt>
      <trkpt lat="47.33851" lon="-1.52572">
        <ele>59</ele>
        <time>2022-04-16T11:33:28Z</time>
      </trkpt>
      <trkpt lat="47.3384" lon="-1.52568">
        <ele>59</ele>
        <time>2022-04-16T11:33:30Z</time>
      </trkpt>
      <trkpt lat="47.33829" lon="-1.52563">
        <ele>60</ele>
        <time>2022-04-16T11:33:32Z</time>
      </trkpt>
      <trkpt lat="47.33819" lon="-1.52559">
        <ele>61</ele>
        <time>2022-04-16T11:33:34Z</time>
      </trkpt>
      <trkpt lat="47.33808" lon="-1.52554">
        <ele>61</ele>
        <time>2022-04-16T11:33:36Z</time>
      </trkpt>
      <trkpt lat="47.33797" lon="-1.52551">
        <ele>62</ele>
        <time>2022-04-16T11:33:38Z</time>
      </trkpt>
      <trkpt lat="47.33787" lon="-1.52547">
        <ele>62</ele>
        <time>2022-04-16T11:33:40Z</time>
      </trkpt>
      <trkpt lat="47.33776" lon="-1.52542">
        <ele>61</ele>
        <time>2022-04-16T11:33:42Z</time>
      </trkpt>
      <trkpt lat="47.33766" lon="-1.52538">
        <ele>61</ele>
        <time>2022-04-16T11:33:44Z</time>
      </trkpt>
      <trkpt lat="47.33754" lon="-1.52533">
        <ele>60</ele>
        <time>2022-04-16T11:33:46Z</time>
      </trkpt>
      <trkpt lat="47.33742" lon="-1.52529">
        <ele>59</ele>
        <time>2022-04-16T11:33:48Z</time>
      </trkpt>
      <trkpt lat="47.33729" lon="-1.52522">
        <ele>59</ele>
        <time>2022-04-16T11:33:50Z</time>
      </trkpt>
      <trkpt lat="47.33716" lon="-1.52514">
        <ele>59</ele>
        <time>2022-04-16T11:33:52Z</time>
      </trkpt>
      <trkpt lat="47.33706" lon="-1.52503">
        <ele>59</ele>
        <time>2022-04-16T11:33:54Z</time>
      </trkpt>
      <trkpt lat="47.33697" lon="-1.5249">
        <ele>59</ele>
        <time>2022-04-16T11:33:56Z</time>
      </trkpt>
      <trkpt lat="47.3369" lon="-1.52478">
        <ele>59</ele>
        <time>2022-04-16T11:33:58Z</time>
      </trkpt>
      <trkpt lat="47.33696" lon="-1.52465">
        <ele>59</ele>
        <time>2022-04-16T11:34:00Z</time>
      </trkpt>
      <trkpt lat="47.33701" lon="-1.52451">
        <ele>60</ele>
        <time>2022-04-16T11:34:02Z</time>
      </trkpt>
      <trkpt lat="47.33703" lon="-1.52436">
        <ele>60</ele>
        <time>2022-04-16T11:34:04Z</time>
      </trkpt>
      <trkpt lat="47.33705" lon="-1.52423">
        <ele>60</ele>
        <time>2022-04-16T11:34:06Z</time>
      </trkpt>
      <trkpt lat="47.33709" lon="-1.52406">
        <ele>61</ele>
        <time>2022-04-16T11:34:09Z</time>
      </trkpt>
      <trkpt lat="47.33713" lon="-1.5239">
        <ele>61</ele>
        <time>2022-04-16T11:34:12Z</time>
      </trkpt>
      <trkpt lat="47.33716" lon="-1.52373">
        <ele>62</ele>
        <time>2022-04-16T11:34:15Z</time>
      </trkpt>
      <trkpt lat="47.33719" lon="-1.52356">
        <ele>62</ele>
        <time>2022-04-16T11:34:18Z</time>
      </trkpt>
      <trkpt lat="47.33722" lon="-1.52339">
        <ele>64</ele>
        <time>2022-04-16T11:34:21Z</time>
      </trkpt>
      <trkpt lat="47.33726" lon="-1.52323">
        <ele>65</ele>
        <time>2022-04-16T11:34:24Z</time>
      </trkpt>
      <trkpt lat="47.3373" lon="-1.52306">
        <ele>65</ele>
        <time>2022-04-16T11:34:27Z</time>
      </trkpt>
      <trkpt lat="47.33733" lon="-1.52288">
        <ele>66</ele>
        <time>2022-04-16T11:34:30Z</time>
      </trkpt>
      <trkpt lat="47.33737" lon="-1.5227">
        <ele>67</ele>
        <time>2022-04-16T11:34:33Z</time>
      </trkpt>
      <trkpt lat="47.3374" lon="-1.52257">
        <ele>67</ele>
        <time>2022-04-16T11:34:35Z</time>
      </trkpt>
      <trkpt lat="47.33742" lon="-1.52243">
        <ele>66</ele>
        <time>2022-04-16T11:34:37Z</time>
      </trkpt>
      <trkpt lat="47.33745" lon="-1.5223">
        <ele>66</ele>
        <time>2022-04-16T11:34:39Z</time>
      </trkpt>
      <trkpt lat="47.33747" lon="-1.52216">
        <ele>66</ele>
        <time>2022-04-16T11:34:41Z</time>
      </trkpt>
      <trkpt lat="47.33749" lon="-1.52202">
        <ele>66</ele>
        <time>2022-04-16T11:34:43Z</time>
      </trkpt>
      <trkpt lat="47.33751" lon="-1.52188">
        <ele>66</ele>
        <time>2022-04-16T11:34:45Z</time>
      </trkpt>
      <trkpt lat="47.33752" lon="-1.52173">
        <ele>66</ele>
        <time>2022-04-16T11:34:47Z</time>
      </trkpt>
      <trkpt lat="47.33753" lon="-1.52158">
        <ele>66</ele>
        <time>2022-04-16T11:34:49Z</time>
      </trkpt>
      <trkpt lat="47.33753" lon="-1.52143">
        <ele>66</ele>
        <time>2022-04-16T11:34:51Z</time>
      </trkpt>
      <trkpt lat="47.33754" lon="-1.52129">
        <ele>66</ele>
        <time>2022-04-16T11:34:53Z</time>
      </trkpt>
      <trkpt lat="47.33756" lon="-1.52109">
        <ele>67</ele>
        <time>2022-04-16T11:34:56Z</time>
      </trkpt>
      <trkpt lat="47.33758" lon="-1.52091">
        <ele>67</ele>
        <time>2022-04-16T11:34:59Z</time>
      </trkpt>
      <trkpt lat="47.33759" lon="-1.52072">
        <ele>68</ele>
        <time>2022-04-16T11:35:02Z</time>
      </trkpt>
      <trkpt lat="47.3376" lon="-1.52053">
        <ele>69</ele>
        <time>2022-04-16T11:35:05Z</time>
      </trkpt>
      <trkpt lat="47.33759" lon="-1.52035">
        <ele>69</ele>
        <time>2022-04-16T11:35:08Z</time>
      </trkpt>
      <trkpt lat="47.33759" lon="-1.52022">
        <ele>69</ele>
        <time>2022-04-16T11:35:10Z</time>
      </trkpt>
      <trkpt lat="47.33758" lon="-1.52008">
        <ele>70</ele>
        <time>2022-04-16T11:35:12Z</time>
      </trkpt>
      <trkpt lat="47.33755" lon="-1.5199">
        <ele>71</ele>
        <time>2022-04-16T11:35:15Z</time>
      </trkpt>
      <trkpt lat="47.33753" lon="-1.51977">
        <ele>71</ele>
        <time>2022-04-16T11:35:17Z</time>
      </trkpt>
      <trkpt lat="47.33751" lon="-1.51964">
        <ele>72</ele>
        <time>2022-04-16T11:35:19Z</time>
      </trkpt>
      <trkpt lat="47.33749" lon="-1.51944">
        <ele>72</ele>
        <time>2022-04-16T11:35:22Z</time>
      </trkpt>
      <trkpt lat="47.33747" lon="-1.51926">
        <ele>73</ele>
        <time>2022-04-16T11:35:25Z</time>
      </trkpt>
      <trkpt lat="47.33745" lon="-1.51907">
        <ele>73</ele>
        <time>2022-04-16T11:35:28Z</time>
      </trkpt>
      <trkpt lat="47.33745" lon="-1.51893">
        <ele>73</ele>
        <time>2022-04-16T11:35:30Z</time>
      </trkpt>
      <trkpt lat="47.33744" lon="-1.51879">
        <ele>73</ele>
        <time>2022-04-16T11:35:32Z</time>
      </trkpt>
      <trkpt lat="47.33743" lon="-1.51866">
        <ele>74</ele>
        <time>2022-04-16T11:35:34Z</time>
      </trkpt>
      <trkpt lat="47.33743" lon="-1.51852">
        <ele>74</ele>
        <time>2022-04-16T11:35:36Z</time>
      </trkpt>
      <trkpt lat="47.33743" lon="-1.51839">
        <ele>74</ele>
        <time>2022-04-16T11:35:38Z</time>
      </trkpt>
      <trkpt lat="47.33742" lon="-1.51825">
        <ele>75</ele>
        <time>2022-04-16T11:35:40Z</time>
      </trkpt>
      <trkpt lat="47.33742" lon="-1.51811">
        <ele>75</ele>
        <time>2022-04-16T11:35:42Z</time>
      </trkpt>
      <trkpt lat="47.3374" lon="-1.51797">
        <ele>75</ele>
        <time>2022-04-16T11:35:44Z</time>
      </trkpt>
      <trkpt lat="47.3374" lon="-1.51783">
        <ele>75</ele>
        <time>2022-04-16T11:35:46Z</time>
      </trkpt>
      <trkpt lat="47.3374" lon="-1.51769">
        <ele>75</ele>
        <time>2022-04-16T11:35:48Z</time>
      </trkpt>
      <trkpt lat="47.33739" lon="-1.51754">
        <ele>75</ele>
        <time>2022-04-16T11:35:50Z</time>
      </trkpt>
      <trkpt lat="47.33739" lon="-1.51741">
        <ele>75</ele>
        <time>2022-04-16T11:35:52Z</time>
      </trkpt>
      <trkpt lat="47.33738" lon="-1.51726">
        <ele>75</ele>
        <time>2022-04-16T11:35:54Z</time>
      </trkpt>
      <trkpt lat="47.33737" lon="-1.51711">
        <ele>75</ele>
        <time>2022-04-16T11:35:56Z</time>
      </trkpt>
      <trkpt lat="47.33736" lon="-1.51697">
        <ele>75</ele>
        <time>2022-04-16T11:35:58Z</time>
      </trkpt>
      <trkpt lat="47.33734" lon="-1.51682">
        <ele>75</ele>
        <time>2022-04-16T11:36:00Z</time>
      </trkpt>
      <trkpt lat="47.33731" lon="-1.51667">
        <ele>75</ele>
        <time>2022-04-16T11:36:02Z</time>
      </trkpt>
      <trkpt lat="47.33727" lon="-1.51652">
        <ele>74</ele>
        <time>2022-04-16T11:36:04Z</time>
      </trkpt>
      <trkpt lat="47.33724" lon="-1.51637">
        <ele>74</ele>
        <time>2022-04-16T11:36:06Z</time>
      </trkpt>
      <trkpt lat="47.33721" lon="-1.51623">
        <ele>74</ele>
        <time>2022-04-16T11:36:08Z</time>
      </trkpt>
      <trkpt lat="47.33716" lon="-1.51607">
        <ele>73</ele>
        <time>2022-04-16T11:36:15Z</time>
      </trkpt>
      <trkpt lat="47.33713" lon="-1.51594">
        <ele>73</ele>
        <time>2022-04-16T11:36:17Z</time>
      </trkpt>
      <trkpt lat="47.3371" lon="-1.5158">
        <ele>73</ele>
        <time>2022-04-16T11:36:19Z</time>
      </trkpt>
      <trkpt lat="47.33706" lon="-1.51563">
        <ele>73</ele>
        <time>2022-04-16T11:36:21Z</time>
      </trkpt>
      <trkpt lat="47.33702" lon="-1.51546">
        <ele>72</ele>
        <time>2022-04-16T11:36:23Z</time>
      </trkpt>
      <trkpt lat="47.33698" lon="-1.51529">
        <ele>72</ele>
        <time>2022-04-16T11:36:25Z</time>
      </trkpt>
      <trkpt lat="47.33695" lon="-1.51511">
        <ele>71</ele>
        <time>2022-04-16T11:36:27Z</time>
      </trkpt>
      <trkpt lat="47.33693" lon="-1.51494">
        <ele>71</ele>
        <time>2022-04-16T11:36:29Z</time>
      </trkpt>
      <trkpt lat="47.33692" lon="-1.51475">
        <ele>71</ele>
        <time>2022-04-16T11:36:31Z</time>
      </trkpt>
      <trkpt lat="47.33691" lon="-1.51457">
        <ele>70</ele>
        <time>2022-04-16T11:36:33Z</time>
      </trkpt>
      <trkpt lat="47.33689" lon="-1.51438">
        <ele>70</ele>
        <time>2022-04-16T11:36:35Z</time>
      </trkpt>
      <trkpt lat="47.33686" lon="-1.51418">
        <ele>69</ele>
        <time>2022-04-16T11:36:37Z</time>
      </trkpt>
      <trkpt lat="47.33682" lon="-1.51398">
        <ele>69</ele>
        <time>2022-04-16T11:36:39Z</time>
      </trkpt>
      <trkpt lat="47.33677" lon="-1.51379">
        <ele>68</ele>
        <time>2022-04-16T11:36:41Z</time>
      </trkpt>
      <trkpt lat="47.33673" lon="-1.51359">
        <ele>67</ele>
        <time>2022-04-16T11:36:43Z</time>
      </trkpt>
      <trkpt lat="47.33669" lon="-1.51341">
        <ele>67</ele>
        <time>2022-04-16T11:36:45Z</time>
      </trkpt>
      <trkpt lat="47.33665" lon="-1.51321">
        <ele>67</ele>
        <time>2022-04-16T11:36:47Z</time>
      </trkpt>
      <trkpt lat="47.33661" lon="-1.51302">
        <ele>66</ele>
        <time>2022-04-16T11:36:49Z</time>
      </trkpt>
      <trkpt lat="47.33658" lon="-1.51282">
        <ele>66</ele>
        <time>2022-04-16T11:36:51Z</time>
      </trkpt>
      <trkpt lat="47.33655" lon="-1.51264">
        <ele>66</ele>
        <time>2022-04-16T11:36:53Z</time>
      </trkpt>
      <trkpt lat="47.33653" lon="-1.51245">
        <ele>67</ele>
        <time>2022-04-16T11:36:55Z</time>
      </trkpt>
      <trkpt lat="47.33652" lon="-1.51224">
        <ele>66</ele>
        <time>2022-04-16T11:36:57Z</time>
      </trkpt>
      <trkpt lat="47.33652" lon="-1.51205">
        <ele>66</ele>
        <time>2022-04-16T11:36:59Z</time>
      </trkpt>
      <trkpt lat="47.33651" lon="-1.51184">
        <ele>66</ele>
        <time>2022-04-16T11:37:01Z</time>
      </trkpt>
      <trkpt lat="47.33651" lon="-1.51164">
        <ele>66</ele>
        <time>2022-04-16T11:37:03Z</time>
      </trkpt>
      <trkpt lat="47.3365" lon="-1.51143">
        <ele>65</ele>
        <time>2022-04-16T11:37:05Z</time>
      </trkpt>
      <trkpt lat="47.3365" lon="-1.51124">
        <ele>65</ele>
        <time>2022-04-16T11:37:07Z</time>
      </trkpt>
      <trkpt lat="47.3365" lon="-1.51106">
        <ele>65</ele>
        <time>2022-04-16T11:37:09Z</time>
      </trkpt>
      <trkpt lat="47.3365" lon="-1.51088">
        <ele>65</ele>
        <time>2022-04-16T11:37:11Z</time>
      </trkpt>
      <trkpt lat="47.33655" lon="-1.5107">
        <ele>64</ele>
        <time>2022-04-16T11:37:13Z</time>
      </trkpt>
      <trkpt lat="47.3366" lon="-1.51054">
        <ele>65</ele>
        <time>2022-04-16T11:37:15Z</time>
      </trkpt>
      <trkpt lat="47.33665" lon="-1.51037">
        <ele>65</ele>
        <time>2022-04-16T11:37:17Z</time>
      </trkpt>
      <trkpt lat="47.3367" lon="-1.51019">
        <ele>65</ele>
        <time>2022-04-16T11:37:19Z</time>
      </trkpt>
      <trkpt lat="47.33674" lon="-1.51001">
        <ele>64</ele>
        <time>2022-04-16T11:37:21Z</time>
      </trkpt>
      <trkpt lat="47.33677" lon="-1.50984">
        <ele>64</ele>
        <time>2022-04-16T11:37:23Z</time>
      </trkpt>
      <trkpt lat="47.3368" lon="-1.50966">
        <ele>64</ele>
        <time>2022-04-16T11:37:25Z</time>
      </trkpt>
      <trkpt lat="47.33684" lon="-1.50946">
        <ele>64</ele>
        <time>2022-04-16T11:37:27Z</time>
      </trkpt>
      <trkpt lat="47.33687" lon="-1.50926">
        <ele>63</ele>
        <time>2022-04-16T11:37:29Z</time>
      </trkpt>
      <trkpt lat="47.33691" lon="-1.50906">
        <ele>63</ele>
        <time>2022-04-16T11:37:31Z</time>
      </trkpt>
      <trkpt lat="47.33695" lon="-1.50887">
        <ele>62</ele>
        <time>2022-04-16T11:37:33Z</time>
      </trkpt>
      <trkpt lat="47.33698" lon="-1.50869">
        <ele>62</ele>
        <time>2022-04-16T11:37:35Z</time>
      </trkpt>
      <trkpt lat="47.33702" lon="-1.50849">
        <ele>62</ele>
        <time>2022-04-16T11:37:37Z</time>
      </trkpt>
      <trkpt lat="47.33706" lon="-1.5083">
        <ele>61</ele>
        <time>2022-04-16T11:37:39Z</time>
      </trkpt>
      <trkpt lat="47.33709" lon="-1.5081">
        <ele>61</ele>
        <time>2022-04-16T11:37:41Z</time>
      </trkpt>
      <trkpt lat="47.33713" lon="-1.5079">
        <ele>60</ele>
        <time>2022-04-16T11:37:43Z</time>
      </trkpt>
      <trkpt lat="47.33717" lon="-1.50771">
        <ele>60</ele>
        <time>2022-04-16T11:37:45Z</time>
      </trkpt>
      <trkpt lat="47.33721" lon="-1.50752">
        <ele>60</ele>
        <time>2022-04-16T11:37:47Z</time>
      </trkpt>
      <trkpt lat="47.33724" lon="-1.50733">
        <ele>60</ele>
        <time>2022-04-16T11:37:49Z</time>
      </trkpt>
      <trkpt lat="47.33728" lon="-1.50715">
        <ele>59</ele>
        <time>2022-04-16T11:37:51Z</time>
      </trkpt>
      <trkpt lat="47.33732" lon="-1.50696">
        <ele>59</ele>
        <time>2022-04-16T11:37:53Z</time>
      </trkpt>
      <trkpt lat="47.33736" lon="-1.50677">
        <ele>59</ele>
        <time>2022-04-16T11:37:55Z</time>
      </trkpt>
      <trkpt lat="47.33739" lon="-1.50657">
        <ele>59</ele>
        <time>2022-04-16T11:37:57Z</time>
      </trkpt>
      <trkpt lat="47.33743" lon="-1.50638">
        <ele>58</ele>
        <time>2022-04-16T11:37:59Z</time>
      </trkpt>
      <trkpt lat="47.33747" lon="-1.50619">
        <ele>58</ele>
        <time>2022-04-16T11:38:01Z</time>
      </trkpt>
      <trkpt lat="47.3375" lon="-1.506">
        <ele>58</ele>
        <time>2022-04-16T11:38:03Z</time>
      </trkpt>
      <trkpt lat="47.33754" lon="-1.50582">
        <ele>57</ele>
        <time>2022-04-16T11:38:05Z</time>
      </trkpt>
      <trkpt lat="47.33757" lon="-1.50563">
        <ele>57</ele>
        <time>2022-04-16T11:38:07Z</time>
      </trkpt>
      <trkpt lat="47.33761" lon="-1.50544">
        <ele>57</ele>
        <time>2022-04-16T11:38:09Z</time>
      </trkpt>
      <trkpt lat="47.33765" lon="-1.50525">
        <ele>57</ele>
        <time>2022-04-16T11:38:11Z</time>
      </trkpt>
      <trkpt lat="47.33769" lon="-1.50507">
        <ele>57</ele>
        <time>2022-04-16T11:38:13Z</time>
      </trkpt>
      <trkpt lat="47.33772" lon="-1.50488">
        <ele>57</ele>
        <time>2022-04-16T11:38:15Z</time>
      </trkpt>
      <trkpt lat="47.33776" lon="-1.5047">
        <ele>57</ele>
        <time>2022-04-16T11:38:17Z</time>
      </trkpt>
      <trkpt lat="47.33779" lon="-1.50451">
        <ele>57</ele>
        <time>2022-04-16T11:38:19Z</time>
      </trkpt>
      <trkpt lat="47.33783" lon="-1.50432">
        <ele>57</ele>
        <time>2022-04-16T11:38:21Z</time>
      </trkpt>
      <trkpt lat="47.33786" lon="-1.50414">
        <ele>57</ele>
        <time>2022-04-16T11:38:23Z</time>
      </trkpt>
      <trkpt lat="47.33789" lon="-1.50396">
        <ele>57</ele>
        <time>2022-04-16T11:38:25Z</time>
      </trkpt>
      <trkpt lat="47.3379" lon="-1.50377">
        <ele>57</ele>
        <time>2022-04-16T11:38:27Z</time>
      </trkpt>
      <trkpt lat="47.33789" lon="-1.50357">
        <ele>57</ele>
        <time>2022-04-16T11:38:29Z</time>
      </trkpt>
      <trkpt lat="47.33786" lon="-1.50338">
        <ele>57</ele>
        <time>2022-04-16T11:38:31Z</time>
      </trkpt>
      <trkpt lat="47.33783" lon="-1.50319">
        <ele>58</ele>
        <time>2022-04-16T11:38:33Z</time>
      </trkpt>
      <trkpt lat="47.3378" lon="-1.50301">
        <ele>58</ele>
        <time>2022-04-16T11:38:35Z</time>
      </trkpt>
      <trkpt lat="47.33778" lon="-1.50282">
        <ele>58</ele>
        <time>2022-04-16T11:38:37Z</time>
      </trkpt>
      <trkpt lat="47.33775" lon="-1.50265">
        <ele>59</ele>
        <time>2022-04-16T11:38:39Z</time>
      </trkpt>
      <trkpt lat="47.33773" lon="-1.50248">
        <ele>59</ele>
        <time>2022-04-16T11:38:41Z</time>
      </trkpt>
      <trkpt lat="47.3377" lon="-1.50232">
        <ele>59</ele>
        <time>2022-04-16T11:38:43Z</time>
      </trkpt>
      <trkpt lat="47.33767" lon="-1.50216">
        <ele>60</ele>
        <time>2022-04-16T11:38:45Z</time>
      </trkpt>
      <trkpt lat="47.33765" lon="-1.50199">
        <ele>60</ele>
        <time>2022-04-16T11:38:47Z</time>
      </trkpt>
      <trkpt lat="47.33763" lon="-1.50183">
        <ele>61</ele>
        <time>2022-04-16T11:38:49Z</time>
      </trkpt>
      <trkpt lat="47.3376" lon="-1.50167">
        <ele>61</ele>
        <time>2022-04-16T11:38:51Z</time>
      </trkpt>
      <trkpt lat="47.33758" lon="-1.50151">
        <ele>62</ele>
        <time>2022-04-16T11:38:53Z</time>
      </trkpt>
      <trkpt lat="47.33756" lon="-1.50134">
        <ele>62</ele>
        <time>2022-04-16T11:38:55Z</time>
      </trkpt>
      <trkpt lat="47.33755" lon="-1.50117">
        <ele>63</ele>
        <time>2022-04-16T11:38:57Z</time>
      </trkpt>
      <trkpt lat="47.33753" lon="-1.50093">
        <ele>64</ele>
        <time>2022-04-16T11:39:00Z</time>
      </trkpt>
      <trkpt lat="47.33752" lon="-1.50067">
        <ele>64</ele>
        <time>2022-04-16T11:39:03Z</time>
      </trkpt>
      <trkpt lat="47.33751" lon="-1.50051">
        <ele>64</ele>
        <time>2022-04-16T11:39:05Z</time>
      </trkpt>
      <trkpt lat="47.33749" lon="-1.50035">
        <ele>64</ele>
        <time>2022-04-16T11:39:07Z</time>
      </trkpt>
      <trkpt lat="47.33745" lon="-1.50019">
        <ele>64</ele>
        <time>2022-04-16T11:39:09Z</time>
      </trkpt>
      <trkpt lat="47.33741" lon="-1.50004">
        <ele>64</ele>
        <time>2022-04-16T11:39:11Z</time>
      </trkpt>
      <trkpt lat="47.33737" lon="-1.49988">
        <ele>64</ele>
        <time>2022-04-16T11:39:13Z</time>
      </trkpt>
      <trkpt lat="47.33733" lon="-1.49972">
        <ele>64</ele>
        <time>2022-04-16T11:39:15Z</time>
      </trkpt>
      <trkpt lat="47.33729" lon="-1.49957">
        <ele>64</ele>
        <time>2022-04-16T11:39:17Z</time>
      </trkpt>
      <trkpt lat="47.33724" lon="-1.49941">
        <ele>63</ele>
        <time>2022-04-16T11:39:19Z</time>
      </trkpt>
      <trkpt lat="47.33715" lon="-1.49925">
        <ele>62</ele>
        <time>2022-04-16T11:39:21Z</time>
      </trkpt>
      <trkpt lat="47.33703" lon="-1.49911">
        <ele>61</ele>
        <time>2022-04-16T11:39:23Z</time>
      </trkpt>
      <trkpt lat="47.3369" lon="-1.49898">
        <ele>60</ele>
        <time>2022-04-16T11:39:25Z</time>
      </trkpt>
      <trkpt lat="47.33678" lon="-1.49881">
        <ele>59</ele>
        <time>2022-04-16T11:39:27Z</time>
      </trkpt>
      <trkpt lat="47.33667" lon="-1.4986">
        <ele>58</ele>
        <time>2022-04-16T11:39:29Z</time>
      </trkpt>
      <trkpt lat="47.33658" lon="-1.49838">
        <ele>58</ele>
        <time>2022-04-16T11:39:31Z</time>
      </trkpt>
      <trkpt lat="47.33654" lon="-1.49814">
        <ele>57</ele>
        <time>2022-04-16T11:39:33Z</time>
      </trkpt>
      <trkpt lat="47.33652" lon="-1.49791">
        <ele>57</ele>
        <time>2022-04-16T11:39:35Z</time>
      </trkpt>
      <trkpt lat="47.3365" lon="-1.49768">
        <ele>57</ele>
        <time>2022-04-16T11:39:37Z</time>
      </trkpt>
      <trkpt lat="47.33648" lon="-1.49744">
        <ele>57</ele>
        <time>2022-04-16T11:39:39Z</time>
      </trkpt>
      <trkpt lat="47.33645" lon="-1.49722">
        <ele>57</ele>
        <time>2022-04-16T11:39:41Z</time>
      </trkpt>
      <trkpt lat="47.33643" lon="-1.497">
        <ele>57</ele>
        <time>2022-04-16T11:39:43Z</time>
      </trkpt>
      <trkpt lat="47.3364" lon="-1.49679">
        <ele>58</ele>
        <time>2022-04-16T11:39:45Z</time>
      </trkpt>
      <trkpt lat="47.33638" lon="-1.49658">
        <ele>57</ele>
        <time>2022-04-16T11:39:47Z</time>
      </trkpt>
      <trkpt lat="47.33637" lon="-1.49638">
        <ele>58</ele>
        <time>2022-04-16T11:39:49Z</time>
      </trkpt>
      <trkpt lat="47.33638" lon="-1.49618">
        <ele>58</ele>
        <time>2022-04-16T11:39:51Z</time>
      </trkpt>
      <trkpt lat="47.33639" lon="-1.49599">
        <ele>58</ele>
        <time>2022-04-16T11:39:53Z</time>
      </trkpt>
      <trkpt lat="47.33639" lon="-1.49579">
        <ele>57</ele>
        <time>2022-04-16T11:39:55Z</time>
      </trkpt>
      <trkpt lat="47.33637" lon="-1.4956">
        <ele>57</ele>
        <time>2022-04-16T11:39:57Z</time>
      </trkpt>
      <trkpt lat="47.33634" lon="-1.49541">
        <ele>57</ele>
        <time>2022-04-16T11:39:59Z</time>
      </trkpt>
      <trkpt lat="47.33631" lon="-1.49523">
        <ele>58</ele>
        <time>2022-04-16T11:40:01Z</time>
      </trkpt>
      <trkpt lat="47.33626" lon="-1.49505">
        <ele>59</ele>
        <time>2022-04-16T11:40:03Z</time>
      </trkpt>
      <trkpt lat="47.33621" lon="-1.49486">
        <ele>59</ele>
        <time>2022-04-16T11:40:05Z</time>
      </trkpt>
      <trkpt lat="47.33615" lon="-1.49468">
        <ele>59</ele>
        <time>2022-04-16T11:40:07Z</time>
      </trkpt>
      <trkpt lat="47.33607" lon="-1.49451">
        <ele>58</ele>
        <time>2022-04-16T11:40:09Z</time>
      </trkpt>
      <trkpt lat="47.336" lon="-1.49434">
        <ele>58</ele>
        <time>2022-04-16T11:40:11Z</time>
      </trkpt>
      <trkpt lat="47.33593" lon="-1.49418">
        <ele>58</ele>
        <time>2022-04-16T11:40:13Z</time>
      </trkpt>
      <trkpt lat="47.33586" lon="-1.49403">
        <ele>57</ele>
        <time>2022-04-16T11:40:15Z</time>
      </trkpt>
      <trkpt lat="47.33579" lon="-1.49387">
        <ele>58</ele>
        <time>2022-04-16T11:40:17Z</time>
      </trkpt>
      <trkpt lat="47.33573" lon="-1.4937">
        <ele>57</ele>
        <time>2022-04-16T11:40:19Z</time>
      </trkpt>
      <trkpt lat="47.33566" lon="-1.49354">
        <ele>57</ele>
        <time>2022-04-16T11:40:21Z</time>
      </trkpt>
      <trkpt lat="47.33562" lon="-1.4934">
        <ele>57</ele>
        <time>2022-04-16T11:40:23Z</time>
      </trkpt>
      <trkpt lat="47.33567" lon="-1.49325">
        <ele>57</ele>
        <time>2022-04-16T11:40:25Z</time>
      </trkpt>
      <trkpt lat="47.33576" lon="-1.49314">
        <ele>58</ele>
        <time>2022-04-16T11:40:27Z</time>
      </trkpt>
      <trkpt lat="47.33586" lon="-1.49302">
        <ele>58</ele>
        <time>2022-04-16T11:40:29Z</time>
      </trkpt>
      <trkpt lat="47.33595" lon="-1.49291">
        <ele>59</ele>
        <time>2022-04-16T11:40:31Z</time>
      </trkpt>
      <trkpt lat="47.33604" lon="-1.49278">
        <ele>59</ele>
        <time>2022-04-16T11:40:33Z</time>
      </trkpt>
      <trkpt lat="47.33613" lon="-1.49266">
        <ele>59</ele>
        <time>2022-04-16T11:40:35Z</time>
      </trkpt>
      <trkpt lat="47.33622" lon="-1.49254">
        <ele>59</ele>
        <time>2022-04-16T11:40:37Z</time>
      </trkpt>
      <trkpt lat="47.33631" lon="-1.49243">
        <ele>59</ele>
        <time>2022-04-16T11:40:39Z</time>
      </trkpt>
      <trkpt lat="47.3364" lon="-1.49232">
        <ele>59</ele>
        <time>2022-04-16T11:40:41Z</time>
      </trkpt>
      <trkpt lat="47.33648" lon="-1.49222">
        <ele>60</ele>
        <time>2022-04-16T11:40:43Z</time>
      </trkpt>
      <trkpt lat="47.33657" lon="-1.49212">
        <ele>60</ele>
        <time>2022-04-16T11:40:45Z</time>
      </trkpt>
      <trkpt lat="47.33666" lon="-1.49201">
        <ele>61</ele>
        <time>2022-04-16T11:40:47Z</time>
      </trkpt>
      <trkpt lat="47.33674" lon="-1.4919">
        <ele>61</ele>
        <time>2022-04-16T11:40:49Z</time>
      </trkpt>
      <trkpt lat="47.33682" lon="-1.49179">
        <ele>60</ele>
        <time>2022-04-16T11:40:51Z</time>
      </trkpt>
      <trkpt lat="47.33689" lon="-1.49166">
        <ele>60</ele>
        <time>2022-04-16T11:40:53Z</time>
      </trkpt>
      <trkpt lat="47.33694" lon="-1.49151">
        <ele>60</ele>
        <time>2022-04-16T11:40:55Z</time>
      </trkpt>
      <trkpt lat="47.33697" lon="-1.49134">
        <ele>60</ele>
        <time>2022-04-16T11:40:57Z</time>
      </trkpt>
      <trkpt lat="47.33698" lon="-1.49118">
        <ele>60</ele>
        <time>2022-04-16T11:40:59Z</time>
      </trkpt>
      <trkpt lat="47.337" lon="-1.49103">
        <ele>60</ele>
        <time>2022-04-16T11:41:01Z</time>
      </trkpt>
      <trkpt lat="47.33705" lon="-1.49088">
        <ele>61</ele>
        <time>2022-04-16T11:41:03Z</time>
      </trkpt>
      <trkpt lat="47.33711" lon="-1.49074">
        <ele>62</ele>
        <time>2022-04-16T11:41:05Z</time>
      </trkpt>
      <trkpt lat="47.33718" lon="-1.49063">
        <ele>62</ele>
        <time>2022-04-16T11:41:07Z</time>
      </trkpt>
      <trkpt lat="47.33726" lon="-1.49053">
        <ele>62</ele>
        <time>2022-04-16T11:41:09Z</time>
      </trkpt>
      <trkpt lat="47.33734" lon="-1.49044">
        <ele>63</ele>
        <time>2022-04-16T11:41:11Z</time>
      </trkpt>
      <trkpt lat="47.33743" lon="-1.49034">
        <ele>63</ele>
        <time>2022-04-16T11:41:13Z</time>
      </trkpt>
      <trkpt lat="47.33751" lon="-1.49025">
        <ele>63</ele>
        <time>2022-04-16T11:41:15Z</time>
      </trkpt>
      <trkpt lat="47.3376" lon="-1.49016">
        <ele>63</ele>
        <time>2022-04-16T11:41:17Z</time>
      </trkpt>
      <trkpt lat="47.33768" lon="-1.49007">
        <ele>63</ele>
        <time>2022-04-16T11:41:19Z</time>
      </trkpt>
      <trkpt lat="47.33777" lon="-1.48997">
        <ele>63</ele>
        <time>2022-04-16T11:41:21Z</time>
      </trkpt>
      <trkpt lat="47.33785" lon="-1.48987">
        <ele>63</ele>
        <time>2022-04-16T11:41:23Z</time>
      </trkpt>
      <trkpt lat="47.33794" lon="-1.48976">
        <ele>63</ele>
        <time>2022-04-16T11:41:25Z</time>
      </trkpt>
      <trkpt lat="47.33802" lon="-1.48965">
        <ele>63</ele>
        <time>2022-04-16T11:41:27Z</time>
      </trkpt>
      <trkpt lat="47.33811" lon="-1.48953">
        <ele>62</ele>
        <time>2022-04-16T11:41:29Z</time>
      </trkpt>
      <trkpt lat="47.33819" lon="-1.4894">
        <ele>62</ele>
        <time>2022-04-16T11:41:31Z</time>
      </trkpt>
      <trkpt lat="47.33827" lon="-1.48927">
        <ele>62</ele>
        <time>2022-04-16T11:41:33Z</time>
      </trkpt>
      <trkpt lat="47.33835" lon="-1.48915">
        <ele>62</ele>
        <time>2022-04-16T11:41:35Z</time>
      </trkpt>
      <trkpt lat="47.33844" lon="-1.48902">
        <ele>61</ele>
        <time>2022-04-16T11:41:37Z</time>
      </trkpt>
      <trkpt lat="47.33852" lon="-1.48889">
        <ele>61</ele>
        <time>2022-04-16T11:41:39Z</time>
      </trkpt>
      <trkpt lat="47.3386" lon="-1.48876">
        <ele>61</ele>
        <time>2022-04-16T11:41:41Z</time>
      </trkpt>
      <trkpt lat="47.33868" lon="-1.48863">
        <ele>60</ele>
        <time>2022-04-16T11:41:43Z</time>
      </trkpt>
      <trkpt lat="47.33876" lon="-1.4885">
        <ele>59</ele>
        <time>2022-04-16T11:41:45Z</time>
      </trkpt>
      <trkpt lat="47.33884" lon="-1.48837">
        <ele>59</ele>
        <time>2022-04-16T11:41:47Z</time>
      </trkpt>
      <trkpt lat="47.33893" lon="-1.48824">
        <ele>59</ele>
        <time>2022-04-16T11:41:49Z</time>
      </trkpt>
      <trkpt lat="47.33902" lon="-1.48809">
        <ele>58</ele>
        <time>2022-04-16T11:41:51Z</time>
      </trkpt>
      <trkpt lat="47.33911" lon="-1.48794">
        <ele>58</ele>
        <time>2022-04-16T11:41:53Z</time>
      </trkpt>
      <trkpt lat="47.33921" lon="-1.48778">
        <ele>57</ele>
        <time>2022-04-16T11:41:55Z</time>
      </trkpt>
      <trkpt lat="47.33931" lon="-1.48763">
        <ele>56</ele>
        <time>2022-04-16T11:41:57Z</time>
      </trkpt>
      <trkpt lat="47.33941" lon="-1.48747">
        <ele>55</ele>
        <time>2022-04-16T11:41:59Z</time>
      </trkpt>
      <trkpt lat="47.33951" lon="-1.48732">
        <ele>55</ele>
        <time>2022-04-16T11:42:01Z</time>
      </trkpt>
      <trkpt lat="47.3396" lon="-1.48716">
        <ele>55</ele>
        <time>2022-04-16T11:42:03Z</time>
      </trkpt>
      <trkpt lat="47.33969" lon="-1.48702">
        <ele>55</ele>
        <time>2022-04-16T11:42:05Z</time>
      </trkpt>
      <trkpt lat="47.33978" lon="-1.48687">
        <ele>55</ele>
        <time>2022-04-16T11:42:07Z</time>
      </trkpt>
      <trkpt lat="47.33987" lon="-1.48671">
        <ele>55</ele>
        <time>2022-04-16T11:42:09Z</time>
      </trkpt>
      <trkpt lat="47.33997" lon="-1.48657">
        <ele>54</ele>
        <time>2022-04-16T11:42:11Z</time>
      </trkpt>
      <trkpt lat="47.34006" lon="-1.48641">
        <ele>54</ele>
        <time>2022-04-16T11:42:13Z</time>
      </trkpt>
      <trkpt lat="47.34015" lon="-1.48626">
        <ele>54</ele>
        <time>2022-04-16T11:42:15Z</time>
      </trkpt>
      <trkpt lat="47.34024" lon="-1.48612">
        <ele>53</ele>
        <time>2022-04-16T11:42:17Z</time>
      </trkpt>
      <trkpt lat="47.34032" lon="-1.48597">
        <ele>53</ele>
        <time>2022-04-16T11:42:19Z</time>
      </trkpt>
      <trkpt lat="47.3404" lon="-1.48581">
        <ele>53</ele>
        <time>2022-04-16T11:42:21Z</time>
      </trkpt>
      <trkpt lat="47.34048" lon="-1.48565">
        <ele>54</ele>
        <time>2022-04-16T11:42:23Z</time>
      </trkpt>
      <trkpt lat="47.34055" lon="-1.4855">
        <ele>54</ele>
        <time>2022-04-16T11:42:25Z</time>
      </trkpt>
      <trkpt lat="47.34062" lon="-1.48534">
        <ele>54</ele>
        <time>2022-04-16T11:42:27Z</time>
      </trkpt>
      <trkpt lat="47.3407" lon="-1.48518">
        <ele>54</ele>
        <time>2022-04-16T11:42:29Z</time>
      </trkpt>
      <trkpt lat="47.34078" lon="-1.48503">
        <ele>54</ele>
        <time>2022-04-16T11:42:31Z</time>
      </trkpt>
      <trkpt lat="47.34085" lon="-1.48487">
        <ele>54</ele>
        <time>2022-04-16T11:42:33Z</time>
      </trkpt>
      <trkpt lat="47.34093" lon="-1.48471">
        <ele>54</ele>
        <time>2022-04-16T11:42:35Z</time>
      </trkpt>
      <trkpt lat="47.341" lon="-1.48456">
        <ele>54</ele>
        <time>2022-04-16T11:42:37Z</time>
      </trkpt>
      <trkpt lat="47.34107" lon="-1.4844">
        <ele>55</ele>
        <time>2022-04-16T11:42:39Z</time>
      </trkpt>
      <trkpt lat="47.34114" lon="-1.48424">
        <ele>55</ele>
        <time>2022-04-16T11:42:41Z</time>
      </trkpt>
      <trkpt lat="47.34122" lon="-1.48408">
        <ele>54</ele>
        <time>2022-04-16T11:42:43Z</time>
      </trkpt>
      <trkpt lat="47.34129" lon="-1.48392">
        <ele>54</ele>
        <time>2022-04-16T11:42:45Z</time>
      </trkpt>
      <trkpt lat="47.34137" lon="-1.48377">
        <ele>54</ele>
        <time>2022-04-16T11:42:47Z</time>
      </trkpt>
      <trkpt lat="47.34144" lon="-1.48361">
        <ele>54</ele>
        <time>2022-04-16T11:42:49Z</time>
      </trkpt>
      <trkpt lat="47.34152" lon="-1.48346">
        <ele>54</ele>
        <time>2022-04-16T11:42:51Z</time>
      </trkpt>
      <trkpt lat="47.3416" lon="-1.4833">
        <ele>53</ele>
        <time>2022-04-16T11:42:53Z</time>
      </trkpt>
      <trkpt lat="47.34167" lon="-1.48315">
        <ele>54</ele>
        <time>2022-04-16T11:42:55Z</time>
      </trkpt>
      <trkpt lat="47.34174" lon="-1.48299">
        <ele>54</ele>
        <time>2022-04-16T11:42:57Z</time>
      </trkpt>
      <trkpt lat="47.34181" lon="-1.48284">
        <ele>54</ele>
        <time>2022-04-16T11:42:59Z</time>
      </trkpt>
      <trkpt lat="47.34188" lon="-1.48269">
        <ele>55</ele>
        <time>2022-04-16T11:43:01Z</time>
      </trkpt>
      <trkpt lat="47.34196" lon="-1.48254">
        <ele>55</ele>
        <time>2022-04-16T11:43:03Z</time>
      </trkpt>
      <trkpt lat="47.34205" lon="-1.48239">
        <ele>54</ele>
        <time>2022-04-16T11:43:05Z</time>
      </trkpt>
      <trkpt lat="47.34213" lon="-1.48226">
        <ele>54</ele>
        <time>2022-04-16T11:43:07Z</time>
      </trkpt>
      <trkpt lat="47.34222" lon="-1.48213">
        <ele>53</ele>
        <time>2022-04-16T11:43:09Z</time>
      </trkpt>
      <trkpt lat="47.3423" lon="-1.48199">
        <ele>53</ele>
        <time>2022-04-16T11:43:11Z</time>
      </trkpt>
      <trkpt lat="47.34239" lon="-1.48185">
        <ele>53</ele>
        <time>2022-04-16T11:43:13Z</time>
      </trkpt>
      <trkpt lat="47.34248" lon="-1.48171">
        <ele>53</ele>
        <time>2022-04-16T11:43:15Z</time>
      </trkpt>
      <trkpt lat="47.34257" lon="-1.48158">
        <ele>52</ele>
        <time>2022-04-16T11:43:17Z</time>
      </trkpt>
      <trkpt lat="47.34265" lon="-1.48144">
        <ele>52</ele>
        <time>2022-04-16T11:43:19Z</time>
      </trkpt>
      <trkpt lat="47.34273" lon="-1.4813">
        <ele>52</ele>
        <time>2022-04-16T11:43:21Z</time>
      </trkpt>
      <trkpt lat="47.34282" lon="-1.48117">
        <ele>52</ele>
        <time>2022-04-16T11:43:23Z</time>
      </trkpt>
      <trkpt lat="47.3429" lon="-1.48103">
        <ele>53</ele>
        <time>2022-04-16T11:43:25Z</time>
      </trkpt>
      <trkpt lat="47.34299" lon="-1.48089">
        <ele>52</ele>
        <time>2022-04-16T11:43:27Z</time>
      </trkpt>
      <trkpt lat="47.34307" lon="-1.48075">
        <ele>52</ele>
        <time>2022-04-16T11:43:29Z</time>
      </trkpt>
      <trkpt lat="47.34316" lon="-1.48062">
        <ele>52</ele>
        <time>2022-04-16T11:43:31Z</time>
      </trkpt>
      <trkpt lat="47.34324" lon="-1.48048">
        <ele>52</ele>
        <time>2022-04-16T11:43:33Z</time>
      </trkpt>
      <trkpt lat="47.34333" lon="-1.48034">
        <ele>53</ele>
        <time>2022-04-16T11:43:35Z</time>
      </trkpt>
      <trkpt lat="47.34341" lon="-1.4802">
        <ele>53</ele>
        <time>2022-04-16T11:43:37Z</time>
      </trkpt>
      <trkpt lat="47.34349" lon="-1.48006">
        <ele>53</ele>
        <time>2022-04-16T11:43:39Z</time>
      </trkpt>
      <trkpt lat="47.34358" lon="-1.47993">
        <ele>52</ele>
        <time>2022-04-16T11:43:41Z</time>
      </trkpt>
      <trkpt lat="47.34367" lon="-1.47979">
        <ele>51</ele>
        <time>2022-04-16T11:43:43Z</time>
      </trkpt>
      <trkpt lat="47.34376" lon="-1.47966">
        <ele>52</ele>
        <time>2022-04-16T11:43:45Z</time>
      </trkpt>
      <trkpt lat="47.34385" lon="-1.47952">
        <ele>51</ele>
        <time>2022-04-16T11:43:47Z</time>
      </trkpt>
      <trkpt lat="47.34394" lon="-1.4794">
        <ele>51</ele>
        <time>2022-04-16T11:43:49Z</time>
      </trkpt>
      <trkpt lat="47.34402" lon="-1.47927">
        <ele>51</ele>
        <time>2022-04-16T11:43:51Z</time>
      </trkpt>
      <trkpt lat="47.3441" lon="-1.47915">
        <ele>51</ele>
        <time>2022-04-16T11:43:53Z</time>
      </trkpt>
      <trkpt lat="47.34419" lon="-1.47904">
        <ele>52</ele>
        <time>2022-04-16T11:43:55Z</time>
      </trkpt>
      <trkpt lat="47.34428" lon="-1.47892">
        <ele>53</ele>
        <time>2022-04-16T11:43:57Z</time>
      </trkpt>
      <trkpt lat="47.34437" lon="-1.47882">
        <ele>53</ele>
        <time>2022-04-16T11:43:59Z</time>
      </trkpt>
      <trkpt lat="47.34446" lon="-1.47871">
        <ele>54</ele>
        <time>2022-04-16T11:44:01Z</time>
      </trkpt>
      <trkpt lat="47.34457" lon="-1.47859">
        <ele>54</ele>
        <time>2022-04-16T11:44:03Z</time>
      </trkpt>
      <trkpt lat="47.34467" lon="-1.47847">
        <ele>53</ele>
        <time>2022-04-16T11:44:05Z</time>
      </trkpt>
      <trkpt lat="47.34478" lon="-1.47834">
        <ele>54</ele>
        <time>2022-04-16T11:44:07Z</time>
      </trkpt>
      <trkpt lat="47.34488" lon="-1.47822">
        <ele>54</ele>
        <time>2022-04-16T11:44:09Z</time>
      </trkpt>
      <trkpt lat="47.34498" lon="-1.47811">
        <ele>54</ele>
        <time>2022-04-16T11:44:11Z</time>
      </trkpt>
      <trkpt lat="47.34508" lon="-1.478">
        <ele>54</ele>
        <time>2022-04-16T11:44:13Z</time>
      </trkpt>
      <trkpt lat="47.34518" lon="-1.47789">
        <ele>54</ele>
        <time>2022-04-16T11:44:15Z</time>
      </trkpt>
      <trkpt lat="47.34528" lon="-1.47777">
        <ele>54</ele>
        <time>2022-04-16T11:44:17Z</time>
      </trkpt>
      <trkpt lat="47.34538" lon="-1.47765">
        <ele>54</ele>
        <time>2022-04-16T11:44:19Z</time>
      </trkpt>
      <trkpt lat="47.34548" lon="-1.47754">
        <ele>54</ele>
        <time>2022-04-16T11:44:21Z</time>
      </trkpt>
      <trkpt lat="47.34558" lon="-1.47743">
        <ele>54</ele>
        <time>2022-04-16T11:44:23Z</time>
      </trkpt>
      <trkpt lat="47.34568" lon="-1.47732">
        <ele>55</ele>
        <time>2022-04-16T11:44:25Z</time>
      </trkpt>
      <trkpt lat="47.34578" lon="-1.47721">
        <ele>54</ele>
        <time>2022-04-16T11:44:27Z</time>
      </trkpt>
      <trkpt lat="47.34588" lon="-1.47709">
        <ele>54</ele>
        <time>2022-04-16T11:44:29Z</time>
      </trkpt>
      <trkpt lat="47.34599" lon="-1.47698">
        <ele>54</ele>
        <time>2022-04-16T11:44:31Z</time>
      </trkpt>
      <trkpt lat="47.34608" lon="-1.47686">
        <ele>55</ele>
        <time>2022-04-16T11:44:33Z</time>
      </trkpt>
      <trkpt lat="47.34619" lon="-1.47675">
        <ele>55</ele>
        <time>2022-04-16T11:44:35Z</time>
      </trkpt>
      <trkpt lat="47.34629" lon="-1.47664">
        <ele>55</ele>
        <time>2022-04-16T11:44:37Z</time>
      </trkpt>
      <trkpt lat="47.34639" lon="-1.47653">
        <ele>55</ele>
        <time>2022-04-16T11:44:39Z</time>
      </trkpt>
      <trkpt lat="47.34649" lon="-1.47642">
        <ele>55</ele>
        <time>2022-04-16T11:44:41Z</time>
      </trkpt>
      <trkpt lat="47.34659" lon="-1.47631">
        <ele>55</ele>
        <time>2022-04-16T11:44:43Z</time>
      </trkpt>
      <trkpt lat="47.34669" lon="-1.4762">
        <ele>55</ele>
        <time>2022-04-16T11:44:45Z</time>
      </trkpt>
      <trkpt lat="47.34679" lon="-1.47608">
        <ele>55</ele>
        <time>2022-04-16T11:44:47Z</time>
      </trkpt>
      <trkpt lat="47.34689" lon="-1.47597">
        <ele>56</ele>
        <time>2022-04-16T11:44:49Z</time>
      </trkpt>
      <trkpt lat="47.34699" lon="-1.47585">
        <ele>56</ele>
        <time>2022-04-16T11:44:51Z</time>
      </trkpt>
      <trkpt lat="47.3471" lon="-1.47574">
        <ele>55</ele>
        <time>2022-04-16T11:44:53Z</time>
      </trkpt>
      <trkpt lat="47.3472" lon="-1.47562">
        <ele>55</ele>
        <time>2022-04-16T11:44:55Z</time>
      </trkpt>
      <trkpt lat="47.3473" lon="-1.47551">
        <ele>55</ele>
        <time>2022-04-16T11:44:57Z</time>
      </trkpt>
      <trkpt lat="47.3474" lon="-1.47539">
        <ele>54</ele>
        <time>2022-04-16T11:44:59Z</time>
      </trkpt>
      <trkpt lat="47.3475" lon="-1.47527">
        <ele>54</ele>
        <time>2022-04-16T11:45:01Z</time>
      </trkpt>
      <trkpt lat="47.3476" lon="-1.47514">
        <ele>53</ele>
        <time>2022-04-16T11:45:03Z</time>
      </trkpt>
      <trkpt lat="47.34769" lon="-1.47501">
        <ele>53</ele>
        <time>2022-04-16T11:45:05Z</time>
      </trkpt>
      <trkpt lat="47.34778" lon="-1.47487">
        <ele>53</ele>
        <time>2022-04-16T11:45:07Z</time>
      </trkpt>
      <trkpt lat="47.34785" lon="-1.47471">
        <ele>53</ele>
        <time>2022-04-16T11:45:09Z</time>
      </trkpt>
      <trkpt lat="47.34793" lon="-1.47454">
        <ele>52</ele>
        <time>2022-04-16T11:45:11Z</time>
      </trkpt>
      <trkpt lat="47.34799" lon="-1.47437">
        <ele>52</ele>
        <time>2022-04-16T11:45:13Z</time>
      </trkpt>
      <trkpt lat="47.34805" lon="-1.4742">
        <ele>52</ele>
        <time>2022-04-16T11:45:15Z</time>
      </trkpt>
      <trkpt lat="47.34812" lon="-1.47403">
        <ele>52</ele>
        <time>2022-04-16T11:45:17Z</time>
      </trkpt>
      <trkpt lat="47.34819" lon="-1.47387">
        <ele>53</ele>
        <time>2022-04-16T11:45:19Z</time>
      </trkpt>
      <trkpt lat="47.34827" lon="-1.47372">
        <ele>53</ele>
        <time>2022-04-16T11:45:21Z</time>
      </trkpt>
      <trkpt lat="47.34836" lon="-1.47357">
        <ele>53</ele>
        <time>2022-04-16T11:45:23Z</time>
      </trkpt>
      <trkpt lat="47.34846" lon="-1.47343">
        <ele>54</ele>
        <time>2022-04-16T11:45:25Z</time>
      </trkpt>
      <trkpt lat="47.34856" lon="-1.4733">
        <ele>54</ele>
        <time>2022-04-16T11:45:27Z</time>
      </trkpt>
      <trkpt lat="47.34867" lon="-1.4732">
        <ele>54</ele>
        <time>2022-04-16T11:45:29Z</time>
      </trkpt>
      <trkpt lat="47.34879" lon="-1.4731">
        <ele>54</ele>
        <time>2022-04-16T11:45:31Z</time>
      </trkpt>
      <trkpt lat="47.3489" lon="-1.47302">
        <ele>54</ele>
        <time>2022-04-16T11:45:33Z</time>
      </trkpt>
      <trkpt lat="47.34901" lon="-1.47293">
        <ele>54</ele>
        <time>2022-04-16T11:45:35Z</time>
      </trkpt>
      <trkpt lat="47.34911" lon="-1.47285">
        <ele>54</ele>
        <time>2022-04-16T11:45:37Z</time>
      </trkpt>
      <trkpt lat="47.34921" lon="-1.47278">
        <ele>54</ele>
        <time>2022-04-16T11:45:39Z</time>
      </trkpt>
      <trkpt lat="47.34931" lon="-1.47272">
        <ele>55</ele>
        <time>2022-04-16T11:45:41Z</time>
      </trkpt>
      <trkpt lat="47.34941" lon="-1.47266">
        <ele>55</ele>
        <time>2022-04-16T11:45:43Z</time>
      </trkpt>
      <trkpt lat="47.34952" lon="-1.47261">
        <ele>55</ele>
        <time>2022-04-16T11:45:45Z</time>
      </trkpt>
      <trkpt lat="47.34963" lon="-1.47256">
        <ele>56</ele>
        <time>2022-04-16T11:45:47Z</time>
      </trkpt>
      <trkpt lat="47.34974" lon="-1.47251">
        <ele>56</ele>
        <time>2022-04-16T11:45:49Z</time>
      </trkpt>
      <trkpt lat="47.34984" lon="-1.47246">
        <ele>56</ele>
        <time>2022-04-16T11:45:51Z</time>
      </trkpt>
      <trkpt lat="47.34994" lon="-1.47237">
        <ele>57</ele>
        <time>2022-04-16T11:45:53Z</time>
      </trkpt>
      <trkpt lat="47.35004" lon="-1.47227">
        <ele>57</ele>
        <time>2022-04-16T11:45:55Z</time>
      </trkpt>
      <trkpt lat="47.35014" lon="-1.47217">
        <ele>58</ele>
        <time>2022-04-16T11:45:57Z</time>
      </trkpt>
      <trkpt lat="47.35025" lon="-1.47211">
        <ele>57</ele>
        <time>2022-04-16T11:45:59Z</time>
      </trkpt>
      <trkpt lat="47.35037" lon="-1.47213">
        <ele>58</ele>
        <time>2022-04-16T11:46:01Z</time>
      </trkpt>
      <trkpt lat="47.35048" lon="-1.4722">
        <ele>57</ele>
        <time>2022-04-16T11:46:03Z</time>
      </trkpt>
      <trkpt lat="47.3506" lon="-1.47225">
        <ele>57</ele>
        <time>2022-04-16T11:46:05Z</time>
      </trkpt>
      <trkpt lat="47.35072" lon="-1.47229">
        <ele>57</ele>
        <time>2022-04-16T11:46:07Z</time>
      </trkpt>
      <trkpt lat="47.35084" lon="-1.47231">
        <ele>57</ele>
        <time>2022-04-16T11:46:09Z</time>
      </trkpt>
      <trkpt lat="47.35096" lon="-1.47234">
        <ele>57</ele>
        <time>2022-04-16T11:46:11Z</time>
      </trkpt>
      <trkpt lat="47.35108" lon="-1.47237">
        <ele>57</ele>
        <time>2022-04-16T11:46:13Z</time>
      </trkpt>
      <trkpt lat="47.3512" lon="-1.4724">
        <ele>57</ele>
        <time>2022-04-16T11:46:15Z</time>
      </trkpt>
      <trkpt lat="47.35132" lon="-1.47242">
        <ele>57</ele>
        <time>2022-04-16T11:46:17Z</time>
      </trkpt>
      <trkpt lat="47.35144" lon="-1.47244">
        <ele>57</ele>
        <time>2022-04-16T11:46:19Z</time>
      </trkpt>
      <trkpt lat="47.35157" lon="-1.47244">
        <ele>56</ele>
        <time>2022-04-16T11:46:21Z</time>
      </trkpt>
      <trkpt lat="47.35168" lon="-1.47242">
        <ele>57</ele>
        <time>2022-04-16T11:46:23Z</time>
      </trkpt>
      <trkpt lat="47.3518" lon="-1.47238">
        <ele>57</ele>
        <time>2022-04-16T11:46:25Z</time>
      </trkpt>
      <trkpt lat="47.35191" lon="-1.47234">
        <ele>57</ele>
        <time>2022-04-16T11:46:27Z</time>
      </trkpt>
      <trkpt lat="47.35203" lon="-1.47232">
        <ele>57</ele>
        <time>2022-04-16T11:46:29Z</time>
      </trkpt>
      <trkpt lat="47.35215" lon="-1.47238">
        <ele>57</ele>
        <time>2022-04-16T11:46:31Z</time>
      </trkpt>
      <trkpt lat="47.35224" lon="-1.47251">
        <ele>57</ele>
        <time>2022-04-16T11:46:33Z</time>
      </trkpt>
      <trkpt lat="47.35231" lon="-1.47265">
        <ele>57</ele>
        <time>2022-04-16T11:46:35Z</time>
      </trkpt>
      <trkpt lat="47.35239" lon="-1.47279">
        <ele>57</ele>
        <time>2022-04-16T11:46:37Z</time>
      </trkpt>
      <trkpt lat="47.35246" lon="-1.47293">
        <ele>57</ele>
        <time>2022-04-16T11:46:39Z</time>
      </trkpt>
      <trkpt lat="47.35256" lon="-1.47302">
        <ele>56</ele>
        <time>2022-04-16T11:46:41Z</time>
      </trkpt>
      <trkpt lat="47.35266" lon="-1.47296">
        <ele>56</ele>
        <time>2022-04-16T11:46:43Z</time>
      </trkpt>
      <trkpt lat="47.35275" lon="-1.47287">
        <ele>56</ele>
        <time>2022-04-16T11:46:45Z</time>
      </trkpt>
      <trkpt lat="47.35286" lon="-1.47282">
        <ele>57</ele>
        <time>2022-04-16T11:46:47Z</time>
      </trkpt>
      <trkpt lat="47.35297" lon="-1.47281">
        <ele>57</ele>
        <time>2022-04-16T11:46:49Z</time>
      </trkpt>
      <trkpt lat="47.35308" lon="-1.47281">
        <ele>57</ele>
        <time>2022-04-16T11:46:51Z</time>
      </trkpt>
      <trkpt lat="47.35319" lon="-1.4728">
        <ele>57</ele>
        <time>2022-04-16T11:46:53Z</time>
      </trkpt>
      <trkpt lat="47.35328" lon="-1.4728">
        <ele>57</ele>
        <time>2022-04-16T11:46:55Z</time>
      </trkpt>
      <trkpt lat="47.3534" lon="-1.4728">
        <ele>58</ele>
        <time>2022-04-16T11:46:58Z</time>
      </trkpt>
      <trkpt lat="47.35351" lon="-1.47279">
        <ele>60</ele>
        <time>2022-04-16T11:47:01Z</time>
      </trkpt>
      <trkpt lat="47.35362" lon="-1.47277">
        <ele>61</ele>
        <time>2022-04-16T11:47:04Z</time>
      </trkpt>
      <trkpt lat="47.35374" lon="-1.47272">
        <ele>61</ele>
        <time>2022-04-16T11:47:07Z</time>
      </trkpt>
      <trkpt lat="47.35384" lon="-1.47262">
        <ele>62</ele>
        <time>2022-04-16T11:47:10Z</time>
      </trkpt>
      <trkpt lat="47.35394" lon="-1.47254">
        <ele>62</ele>
        <time>2022-04-16T11:47:13Z</time>
      </trkpt>
      <trkpt lat="47.35405" lon="-1.47245">
        <ele>63</ele>
        <time>2022-04-16T11:47:16Z</time>
      </trkpt>
      <trkpt lat="47.35416" lon="-1.47235">
        <ele>63</ele>
        <time>2022-04-16T11:47:19Z</time>
      </trkpt>
      <trkpt lat="47.35427" lon="-1.47226">
        <ele>64</ele>
        <time>2022-04-16T11:47:22Z</time>
      </trkpt>
      <trkpt lat="47.35436" lon="-1.47217">
        <ele>64</ele>
        <time>2022-04-16T11:47:25Z</time>
      </trkpt>
      <trkpt lat="47.35448" lon="-1.47206">
        <ele>65</ele>
        <time>2022-04-16T11:47:28Z</time>
      </trkpt>
      <trkpt lat="47.35456" lon="-1.47199">
        <ele>66</ele>
        <time>2022-04-16T11:47:30Z</time>
      </trkpt>
      <trkpt lat="47.35464" lon="-1.47192">
        <ele>66</ele>
        <time>2022-04-16T11:47:32Z</time>
      </trkpt>
      <trkpt lat="47.35472" lon="-1.47185">
        <ele>66</ele>
        <time>2022-04-16T11:47:34Z</time>
      </trkpt>
      <trkpt lat="47.35483" lon="-1.47174">
        <ele>67</ele>
        <time>2022-04-16T11:47:37Z</time>
      </trkpt>
      <trkpt lat="47.35491" lon="-1.47166">
        <ele>68</ele>
        <time>2022-04-16T11:47:39Z</time>
      </trkpt>
      <trkpt lat="47.35499" lon="-1.47159">
        <ele>68</ele>
        <time>2022-04-16T11:47:41Z</time>
      </trkpt>
      <trkpt lat="47.35508" lon="-1.47153">
        <ele>67</ele>
        <time>2022-04-16T11:47:43Z</time>
      </trkpt>
      <trkpt lat="47.35516" lon="-1.47145">
        <ele>67</ele>
        <time>2022-04-16T11:47:45Z</time>
      </trkpt>
      <trkpt lat="47.35526" lon="-1.47138">
        <ele>67</ele>
        <time>2022-04-16T11:47:47Z</time>
      </trkpt>
      <trkpt lat="47.35536" lon="-1.4713">
        <ele>66</ele>
        <time>2022-04-16T11:47:49Z</time>
      </trkpt>
      <trkpt lat="47.35545" lon="-1.47123">
        <ele>67</ele>
        <time>2022-04-16T11:47:51Z</time>
      </trkpt>
      <trkpt lat="47.35552" lon="-1.47114">
        <ele>68</ele>
        <time>2022-04-16T11:47:53Z</time>
      </trkpt>
      <trkpt lat="47.35561" lon="-1.47106">
        <ele>69</ele>
        <time>2022-04-16T11:47:55Z</time>
      </trkpt>
      <trkpt lat="47.35571" lon="-1.47098">
        <ele>69</ele>
        <time>2022-04-16T11:47:57Z</time>
      </trkpt>
      <trkpt lat="47.35581" lon="-1.47089">
        <ele>69</ele>
        <time>2022-04-16T11:47:59Z</time>
      </trkpt>
      <trkpt lat="47.35591" lon="-1.47082">
        <ele>69</ele>
        <time>2022-04-16T11:48:01Z</time>
      </trkpt>
      <trkpt lat="47.35601" lon="-1.47073">
        <ele>68</ele>
        <time>2022-04-16T11:48:03Z</time>
      </trkpt>
      <trkpt lat="47.35612" lon="-1.47064">
        <ele>67</ele>
        <time>2022-04-16T11:48:05Z</time>
      </trkpt>
      <trkpt lat="47.35624" lon="-1.47054">
        <ele>67</ele>
        <time>2022-04-16T11:48:07Z</time>
      </trkpt>
      <trkpt lat="47.35638" lon="-1.47042">
        <ele>65</ele>
        <time>2022-04-16T11:48:09Z</time>
      </trkpt>
      <trkpt lat="47.35653" lon="-1.47029">
        <ele>63</ele>
        <time>2022-04-16T11:48:11Z</time>
      </trkpt>
      <trkpt lat="47.3566" lon="-1.47022">
        <ele>62</ele>
        <time>2022-04-16T11:48:12Z</time>
      </trkpt>
      <trkpt lat="47.35668" lon="-1.47015">
        <ele>61</ele>
        <time>2022-04-16T11:48:13Z</time>
      </trkpt>
      <trkpt lat="47.35677" lon="-1.47007">
        <ele>60</ele>
        <time>2022-04-16T11:48:14Z</time>
      </trkpt>
      <trkpt lat="47.35686" lon="-1.47">
        <ele>59</ele>
        <time>2022-04-16T11:48:15Z</time>
      </trkpt>
      <trkpt lat="47.35694" lon="-1.46992">
        <ele>58</ele>
        <time>2022-04-16T11:48:16Z</time>
      </trkpt>
      <trkpt lat="47.35703" lon="-1.46984">
        <ele>57</ele>
        <time>2022-04-16T11:48:17Z</time>
      </trkpt>
      <trkpt lat="47.35711" lon="-1.46977">
        <ele>56</ele>
        <time>2022-04-16T11:48:18Z</time>
      </trkpt>
      <trkpt lat="47.35725" lon="-1.46964">
        <ele>54</ele>
        <time>2022-04-16T11:48:20Z</time>
      </trkpt>
      <trkpt lat="47.35737" lon="-1.46953">
        <ele>55</ele>
        <time>2022-04-16T11:48:22Z</time>
      </trkpt>
      <trkpt lat="47.35744" lon="-1.46939">
        <ele>55</ele>
        <time>2022-04-16T11:48:24Z</time>
      </trkpt>
      <trkpt lat="47.35744" lon="-1.4692">
        <ele>55</ele>
        <time>2022-04-16T11:48:26Z</time>
      </trkpt>
      <trkpt lat="47.35742" lon="-1.469">
        <ele>55</ele>
        <time>2022-04-16T11:48:28Z</time>
      </trkpt>
      <trkpt lat="47.35739" lon="-1.46878">
        <ele>56</ele>
        <time>2022-04-16T11:48:30Z</time>
      </trkpt>
      <trkpt lat="47.35736" lon="-1.46858">
        <ele>56</ele>
        <time>2022-04-16T11:48:32Z</time>
      </trkpt>
      <trkpt lat="47.35735" lon="-1.46839">
        <ele>55</ele>
        <time>2022-04-16T11:48:34Z</time>
      </trkpt>
      <trkpt lat="47.35733" lon="-1.46819">
        <ele>55</ele>
        <time>2022-04-16T11:48:36Z</time>
      </trkpt>
      <trkpt lat="47.35733" lon="-1.46799">
        <ele>55</ele>
        <time>2022-04-16T11:48:38Z</time>
      </trkpt>
      <trkpt lat="47.35736" lon="-1.46779">
        <ele>54</ele>
        <time>2022-04-16T11:48:40Z</time>
      </trkpt>
      <trkpt lat="47.35739" lon="-1.4676">
        <ele>54</ele>
        <time>2022-04-16T11:48:42Z</time>
      </trkpt>
      <trkpt lat="47.35742" lon="-1.46742">
        <ele>54</ele>
        <time>2022-04-16T11:48:44Z</time>
      </trkpt>
      <trkpt lat="47.35745" lon="-1.46723">
        <ele>54</ele>
        <time>2022-04-16T11:48:46Z</time>
      </trkpt>
      <trkpt lat="47.35747" lon="-1.46705">
        <ele>54</ele>
        <time>2022-04-16T11:48:48Z</time>
      </trkpt>
      <trkpt lat="47.3575" lon="-1.46687">
        <ele>55</ele>
        <time>2022-04-16T11:48:50Z</time>
      </trkpt>
      <trkpt lat="47.35754" lon="-1.46668">
        <ele>55</ele>
        <time>2022-04-16T11:48:52Z</time>
      </trkpt>
      <trkpt lat="47.3576" lon="-1.4665">
        <ele>55</ele>
        <time>2022-04-16T11:48:54Z</time>
      </trkpt>
      <trkpt lat="47.3577" lon="-1.46636">
        <ele>54</ele>
        <time>2022-04-16T11:48:56Z</time>
      </trkpt>
      <trkpt lat="47.35787" lon="-1.46621">
        <ele>54</ele>
        <time>2022-04-16T11:48:59Z</time>
      </trkpt>
      <trkpt lat="47.35799" lon="-1.46611">
        <ele>54</ele>
        <time>2022-04-16T11:49:01Z</time>
      </trkpt>
      <trkpt lat="47.35816" lon="-1.46598">
        <ele>55</ele>
        <time>2022-04-16T11:49:04Z</time>
      </trkpt>
      <trkpt lat="47.35827" lon="-1.46588">
        <ele>55</ele>
        <time>2022-04-16T11:49:06Z</time>
      </trkpt>
      <trkpt lat="47.35838" lon="-1.46579">
        <ele>55</ele>
        <time>2022-04-16T11:49:08Z</time>
      </trkpt>
      <trkpt lat="47.35855" lon="-1.46565">
        <ele>54</ele>
        <time>2022-04-16T11:49:11Z</time>
      </trkpt>
      <trkpt lat="47.35866" lon="-1.46555">
        <ele>54</ele>
        <time>2022-04-16T11:49:13Z</time>
      </trkpt>
      <trkpt lat="47.35877" lon="-1.46545">
        <ele>54</ele>
        <time>2022-04-16T11:49:15Z</time>
      </trkpt>
      <trkpt lat="47.35885" lon="-1.46532">
        <ele>54</ele>
        <time>2022-04-16T11:49:17Z</time>
      </trkpt>
      <trkpt lat="47.35891" lon="-1.46517">
        <ele>54</ele>
        <time>2022-04-16T11:49:19Z</time>
      </trkpt>
      <trkpt lat="47.35894" lon="-1.46498">
        <ele>54</ele>
        <time>2022-04-16T11:49:21Z</time>
      </trkpt>
      <trkpt lat="47.35897" lon="-1.46479">
        <ele>54</ele>
        <time>2022-04-16T11:49:23Z</time>
      </trkpt>
      <trkpt lat="47.35901" lon="-1.4646">
        <ele>54</ele>
        <time>2022-04-16T11:49:25Z</time>
      </trkpt>
      <trkpt lat="47.35904" lon="-1.46441">
        <ele>54</ele>
        <time>2022-04-16T11:49:27Z</time>
      </trkpt>
      <trkpt lat="47.35907" lon="-1.46423">
        <ele>54</ele>
        <time>2022-04-16T11:49:29Z</time>
      </trkpt>
      <trkpt lat="47.35909" lon="-1.46405">
        <ele>54</ele>
        <time>2022-04-16T11:49:31Z</time>
      </trkpt>
      <trkpt lat="47.35909" lon="-1.46387">
        <ele>53</ele>
        <time>2022-04-16T11:49:33Z</time>
      </trkpt>
      <trkpt lat="47.35904" lon="-1.4637">
        <ele>52</ele>
        <time>2022-04-16T11:49:35Z</time>
      </trkpt>
      <trkpt lat="47.35895" lon="-1.46356">
        <ele>53</ele>
        <time>2022-04-16T11:49:37Z</time>
      </trkpt>
      <trkpt lat="47.35886" lon="-1.46343">
        <ele>53</ele>
        <time>2022-04-16T11:49:39Z</time>
      </trkpt>
      <trkpt lat="47.35877" lon="-1.46331">
        <ele>53</ele>
        <time>2022-04-16T11:49:41Z</time>
      </trkpt>
      <trkpt lat="47.35867" lon="-1.46319">
        <ele>54</ele>
        <time>2022-04-16T11:49:43Z</time>
      </trkpt>
      <trkpt lat="47.35857" lon="-1.46307">
        <ele>54</ele>
        <time>2022-04-16T11:49:45Z</time>
      </trkpt>
      <trkpt lat="47.35849" lon="-1.46293">
        <ele>55</ele>
        <time>2022-04-16T11:49:47Z</time>
      </trkpt>
      <trkpt lat="47.35843" lon="-1.46278">
        <ele>55</ele>
        <time>2022-04-16T11:49:49Z</time>
      </trkpt>
      <trkpt lat="47.35838" lon="-1.46261">
        <ele>55</ele>
        <time>2022-04-16T11:49:51Z</time>
      </trkpt>
      <trkpt lat="47.35835" lon="-1.46243">
        <ele>55</ele>
        <time>2022-04-16T11:49:53Z</time>
      </trkpt>
      <trkpt lat="47.35836" lon="-1.46226">
        <ele>56</ele>
        <time>2022-04-16T11:49:55Z</time>
      </trkpt>
      <trkpt lat="47.35841" lon="-1.4621">
        <ele>56</ele>
        <time>2022-04-16T11:49:57Z</time>
      </trkpt>
      <trkpt lat="47.35844" lon="-1.46195">
        <ele>56</ele>
        <time>2022-04-16T11:49:59Z</time>
      </trkpt>
      <trkpt lat="47.35844" lon="-1.46178">
        <ele>57</ele>
        <time>2022-04-16T11:50:01Z</time>
      </trkpt>
      <trkpt lat="47.35841" lon="-1.46161">
        <ele>56</ele>
        <time>2022-04-16T11:50:03Z</time>
      </trkpt>
      <trkpt lat="47.35838" lon="-1.46143">
        <ele>56</ele>
        <time>2022-04-16T11:50:05Z</time>
      </trkpt>
      <trkpt lat="47.35834" lon="-1.46126">
        <ele>56</ele>
        <time>2022-04-16T11:50:07Z</time>
      </trkpt>
      <trkpt lat="47.35831" lon="-1.4611">
        <ele>56</ele>
        <time>2022-04-16T11:50:09Z</time>
      </trkpt>
      <trkpt lat="47.35827" lon="-1.46094">
        <ele>57</ele>
        <time>2022-04-16T11:50:11Z</time>
      </trkpt>
      <trkpt lat="47.35823" lon="-1.46078">
        <ele>58</ele>
        <time>2022-04-16T11:50:13Z</time>
      </trkpt>
      <trkpt lat="47.35818" lon="-1.46064">
        <ele>58</ele>
        <time>2022-04-16T11:50:15Z</time>
      </trkpt>
      <trkpt lat="47.35814" lon="-1.46049">
        <ele>58</ele>
        <time>2022-04-16T11:50:17Z</time>
      </trkpt>
      <trkpt lat="47.35809" lon="-1.46034">
        <ele>58</ele>
        <time>2022-04-16T11:50:19Z</time>
      </trkpt>
      <trkpt lat="47.35805" lon="-1.46019">
        <ele>58</ele>
        <time>2022-04-16T11:50:21Z</time>
      </trkpt>
      <trkpt lat="47.35802" lon="-1.46005">
        <ele>58</ele>
        <time>2022-04-16T11:50:23Z</time>
      </trkpt>
      <trkpt lat="47.35801" lon="-1.4599">
        <ele>59</ele>
        <time>2022-04-16T11:50:25Z</time>
      </trkpt>
      <trkpt lat="47.358" lon="-1.45975">
        <ele>59</ele>
        <time>2022-04-16T11:50:27Z</time>
      </trkpt>
      <trkpt lat="47.358" lon="-1.45959">
        <ele>59</ele>
        <time>2022-04-16T11:50:29Z</time>
      </trkpt>
      <trkpt lat="47.358" lon="-1.45943">
        <ele>60</ele>
        <time>2022-04-16T11:50:31Z</time>
      </trkpt>
      <trkpt lat="47.358" lon="-1.45927">
        <ele>60</ele>
        <time>2022-04-16T11:50:33Z</time>
      </trkpt>
      <trkpt lat="47.358" lon="-1.45912">
        <ele>60</ele>
        <time>2022-04-16T11:50:35Z</time>
      </trkpt>
      <trkpt lat="47.358" lon="-1.45896">
        <ele>60</ele>
        <time>2022-04-16T11:50:37Z</time>
      </trkpt>
      <trkpt lat="47.358" lon="-1.45881">
        <ele>60</ele>
        <time>2022-04-16T11:50:39Z</time>
      </trkpt>
      <trkpt lat="47.35799" lon="-1.45866">
        <ele>60</ele>
        <time>2022-04-16T11:50:41Z</time>
      </trkpt>
      <trkpt lat="47.35799" lon="-1.45851">
        <ele>61</ele>
        <time>2022-04-16T11:50:43Z</time>
      </trkpt>
      <trkpt lat="47.35798" lon="-1.45837">
        <ele>61</ele>
        <time>2022-04-16T11:50:45Z</time>
      </trkpt>
      <trkpt lat="47.35797" lon="-1.45821">
        <ele>62</ele>
        <time>2022-04-16T11:50:47Z</time>
      </trkpt>
      <trkpt lat="47.35797" lon="-1.45805">
        <ele>61</ele>
        <time>2022-04-16T11:50:49Z</time>
      </trkpt>
      <trkpt lat="47.35797" lon="-1.45789">
        <ele>61</ele>
        <time>2022-04-16T11:50:51Z</time>
      </trkpt>
      <trkpt lat="47.35797" lon="-1.45774">
        <ele>61</ele>
        <time>2022-04-16T11:50:53Z</time>
      </trkpt>
      <trkpt lat="47.35796" lon="-1.4576">
        <ele>61</ele>
        <time>2022-04-16T11:50:55Z</time>
      </trkpt>
      <trkpt lat="47.35794" lon="-1.45741">
        <ele>61</ele>
        <time>2022-04-16T11:50:58Z</time>
      </trkpt>
      <trkpt lat="47.3579" lon="-1.45728">
        <ele>62</ele>
        <time>2022-04-16T11:51:05Z</time>
      </trkpt>
      <trkpt lat="47.35786" lon="-1.45714">
        <ele>62</ele>
        <time>2022-04-16T11:51:08Z</time>
      </trkpt>
      <trkpt lat="47.35783" lon="-1.45701">
        <ele>62</ele>
        <time>2022-04-16T11:51:10Z</time>
      </trkpt>
      <trkpt lat="47.3578" lon="-1.45687">
        <ele>62</ele>
        <time>2022-04-16T11:51:12Z</time>
      </trkpt>
      <trkpt lat="47.35777" lon="-1.45674">
        <ele>63</ele>
        <time>2022-04-16T11:51:14Z</time>
      </trkpt>
      <trkpt lat="47.35774" lon="-1.4566">
        <ele>63</ele>
        <time>2022-04-16T11:51:16Z</time>
      </trkpt>
      <trkpt lat="47.35771" lon="-1.45645">
        <ele>63</ele>
        <time>2022-04-16T11:51:18Z</time>
      </trkpt>
      <trkpt lat="47.35767" lon="-1.45629">
        <ele>63</ele>
        <time>2022-04-16T11:51:20Z</time>
      </trkpt>
      <trkpt lat="47.35764" lon="-1.45613">
        <ele>63</ele>
        <time>2022-04-16T11:51:22Z</time>
      </trkpt>
      <trkpt lat="47.35763" lon="-1.45596">
        <ele>63</ele>
        <time>2022-04-16T11:51:24Z</time>
      </trkpt>
      <trkpt lat="47.35763" lon="-1.4558">
        <ele>63</ele>
        <time>2022-04-16T11:51:26Z</time>
      </trkpt>
      <trkpt lat="47.35764" lon="-1.45563">
        <ele>63</ele>
        <time>2022-04-16T11:51:28Z</time>
      </trkpt>
      <trkpt lat="47.35766" lon="-1.45548">
        <ele>63</ele>
        <time>2022-04-16T11:51:30Z</time>
      </trkpt>
      <trkpt lat="47.3577" lon="-1.45533">
        <ele>63</ele>
        <time>2022-04-16T11:51:32Z</time>
      </trkpt>
      <trkpt lat="47.35774" lon="-1.45519">
        <ele>63</ele>
        <time>2022-04-16T11:51:34Z</time>
      </trkpt>
      <trkpt lat="47.35778" lon="-1.45504">
        <ele>64</ele>
        <time>2022-04-16T11:51:36Z</time>
      </trkpt>
      <trkpt lat="47.35783" lon="-1.4549">
        <ele>64</ele>
        <time>2022-04-16T11:51:38Z</time>
      </trkpt>
      <trkpt lat="47.35788" lon="-1.45477">
        <ele>64</ele>
        <time>2022-04-16T11:51:40Z</time>
      </trkpt>
      <trkpt lat="47.35793" lon="-1.45463">
        <ele>64</ele>
        <time>2022-04-16T11:51:42Z</time>
      </trkpt>
      <trkpt lat="47.35797" lon="-1.45448">
        <ele>64</ele>
        <time>2022-04-16T11:51:44Z</time>
      </trkpt>
      <trkpt lat="47.358" lon="-1.45431">
        <ele>64</ele>
        <time>2022-04-16T11:51:46Z</time>
      </trkpt>
      <trkpt lat="47.35801" lon="-1.45415">
        <ele>65</ele>
        <time>2022-04-16T11:51:48Z</time>
      </trkpt>
      <trkpt lat="47.35801" lon="-1.45399">
        <ele>65</ele>
        <time>2022-04-16T11:51:50Z</time>
      </trkpt>
      <trkpt lat="47.358" lon="-1.45382">
        <ele>65</ele>
        <time>2022-04-16T11:51:52Z</time>
      </trkpt>
      <trkpt lat="47.35798" lon="-1.45366">
        <ele>66</ele>
        <time>2022-04-16T11:51:54Z</time>
      </trkpt>
      <trkpt lat="47.35795" lon="-1.4535">
        <ele>66</ele>
        <time>2022-04-16T11:51:56Z</time>
      </trkpt>
      <trkpt lat="47.35792" lon="-1.45334">
        <ele>66</ele>
        <time>2022-04-16T11:51:58Z</time>
      </trkpt>
      <trkpt lat="47.35789" lon="-1.45319">
        <ele>66</ele>
        <time>2022-04-16T11:52:00Z</time>
      </trkpt>
      <trkpt lat="47.35786" lon="-1.45304">
        <ele>66</ele>
        <time>2022-04-16T11:52:02Z</time>
      </trkpt>
      <trkpt lat="47.35784" lon="-1.45288">
        <ele>66</ele>
        <time>2022-04-16T11:52:04Z</time>
      </trkpt>
      <trkpt lat="47.35781" lon="-1.45273">
        <ele>67</ele>
        <time>2022-04-16T11:52:06Z</time>
      </trkpt>
      <trkpt lat="47.35778" lon="-1.45257">
        <ele>67</ele>
        <time>2022-04-16T11:52:08Z</time>
      </trkpt>
      <trkpt lat="47.35776" lon="-1.45242">
        <ele>67</ele>
        <time>2022-04-16T11:52:10Z</time>
      </trkpt>
      <trkpt lat="47.35773" lon="-1.45227">
        <ele>67</ele>
        <time>2022-04-16T11:52:12Z</time>
      </trkpt>
      <trkpt lat="47.35771" lon="-1.45211">
        <ele>67</ele>
        <time>2022-04-16T11:52:14Z</time>
      </trkpt>
      <trkpt lat="47.35768" lon="-1.45195">
        <ele>68</ele>
        <time>2022-04-16T11:52:16Z</time>
      </trkpt>
      <trkpt lat="47.35766" lon="-1.4518">
        <ele>68</ele>
        <time>2022-04-16T11:52:18Z</time>
      </trkpt>
      <trkpt lat="47.35765" lon="-1.45165">
        <ele>68</ele>
        <time>2022-04-16T11:52:20Z</time>
      </trkpt>
      <trkpt lat="47.35764" lon="-1.4515">
        <ele>68</ele>
        <time>2022-04-16T11:52:22Z</time>
      </trkpt>
      <trkpt lat="47.35764" lon="-1.45134">
        <ele>69</ele>
        <time>2022-04-16T11:52:24Z</time>
      </trkpt>
      <trkpt lat="47.35765" lon="-1.45119">
        <ele>69</ele>
        <time>2022-04-16T11:52:26Z</time>
      </trkpt>
      <trkpt lat="47.35767" lon="-1.45103">
        <ele>69</ele>
        <time>2022-04-16T11:52:28Z</time>
      </trkpt>
      <trkpt lat="47.35769" lon="-1.45087">
        <ele>69</ele>
        <time>2022-04-16T11:52:30Z</time>
      </trkpt>
      <trkpt lat="47.35772" lon="-1.45073">
        <ele>69</ele>
        <time>2022-04-16T11:52:32Z</time>
      </trkpt>
      <trkpt lat="47.35774" lon="-1.45058">
        <ele>69</ele>
        <time>2022-04-16T11:52:34Z</time>
      </trkpt>
      <trkpt lat="47.35776" lon="-1.45043">
        <ele>69</ele>
        <time>2022-04-16T11:52:36Z</time>
      </trkpt>
      <trkpt lat="47.35778" lon="-1.45028">
        <ele>70</ele>
        <time>2022-04-16T11:52:38Z</time>
      </trkpt>
      <trkpt lat="47.35779" lon="-1.45013">
        <ele>70</ele>
        <time>2022-04-16T11:52:40Z</time>
      </trkpt>
      <trkpt lat="47.3578" lon="-1.44997">
        <ele>70</ele>
        <time>2022-04-16T11:52:42Z</time>
      </trkpt>
      <trkpt lat="47.35781" lon="-1.44982">
        <ele>69</ele>
        <time>2022-04-16T11:52:44Z</time>
      </trkpt>
      <trkpt lat="47.35781" lon="-1.44967">
        <ele>70</ele>
        <time>2022-04-16T11:52:46Z</time>
      </trkpt>
      <trkpt lat="47.35781" lon="-1.44952">
        <ele>70</ele>
        <time>2022-04-16T11:52:48Z</time>
      </trkpt>
      <trkpt lat="47.35782" lon="-1.44937">
        <ele>70</ele>
        <time>2022-04-16T11:52:50Z</time>
      </trkpt>
      <trkpt lat="47.35782" lon="-1.44922">
        <ele>70</ele>
        <time>2022-04-16T11:52:52Z</time>
      </trkpt>
      <trkpt lat="47.35783" lon="-1.44907">
        <ele>70</ele>
        <time>2022-04-16T11:52:54Z</time>
      </trkpt>
      <trkpt lat="47.35783" lon="-1.44891">
        <ele>71</ele>
        <time>2022-04-16T11:52:56Z</time>
      </trkpt>
      <trkpt lat="47.35783" lon="-1.44875">
        <ele>71</ele>
        <time>2022-04-16T11:52:58Z</time>
      </trkpt>
      <trkpt lat="47.35783" lon="-1.4486">
        <ele>71</ele>
        <time>2022-04-16T11:53:00Z</time>
      </trkpt>
      <trkpt lat="47.35784" lon="-1.44846">
        <ele>72</ele>
        <time>2022-04-16T11:53:02Z</time>
      </trkpt>
      <trkpt lat="47.35784" lon="-1.44831">
        <ele>72</ele>
        <time>2022-04-16T11:53:04Z</time>
      </trkpt>
      <trkpt lat="47.35784" lon="-1.44817">
        <ele>72</ele>
        <time>2022-04-16T11:53:06Z</time>
      </trkpt>
      <trkpt lat="47.35785" lon="-1.44803">
        <ele>72</ele>
        <time>2022-04-16T11:53:08Z</time>
      </trkpt>
      <trkpt lat="47.35785" lon="-1.44788">
        <ele>73</ele>
        <time>2022-04-16T11:53:10Z</time>
      </trkpt>
      <trkpt lat="47.35786" lon="-1.44774">
        <ele>73</ele>
        <time>2022-04-16T11:53:12Z</time>
      </trkpt>
      <trkpt lat="47.35786" lon="-1.4476">
        <ele>74</ele>
        <time>2022-04-16T11:53:14Z</time>
      </trkpt>
      <trkpt lat="47.35786" lon="-1.44745">
        <ele>74</ele>
        <time>2022-04-16T11:53:16Z</time>
      </trkpt>
      <trkpt lat="47.35787" lon="-1.44731">
        <ele>74</ele>
        <time>2022-04-16T11:53:18Z</time>
      </trkpt>
      <trkpt lat="47.35787" lon="-1.44717">
        <ele>74</ele>
        <time>2022-04-16T11:53:20Z</time>
      </trkpt>
      <trkpt lat="47.35787" lon="-1.44702">
        <ele>75</ele>
        <time>2022-04-16T11:53:22Z</time>
      </trkpt>
      <trkpt lat="47.35788" lon="-1.44687">
        <ele>75</ele>
        <time>2022-04-16T11:53:24Z</time>
      </trkpt>
      <trkpt lat="47.35788" lon="-1.44673">
        <ele>76</ele>
        <time>2022-04-16T11:53:26Z</time>
      </trkpt>
      <trkpt lat="47.35789" lon="-1.44657">
        <ele>76</ele>
        <time>2022-04-16T11:53:28Z</time>
      </trkpt>
      <trkpt lat="47.35789" lon="-1.44642">
        <ele>77</ele>
        <time>2022-04-16T11:53:30Z</time>
      </trkpt>
      <trkpt lat="47.3579" lon="-1.44627">
        <ele>77</ele>
        <time>2022-04-16T11:53:32Z</time>
      </trkpt>
      <trkpt lat="47.3579" lon="-1.44612">
        <ele>78</ele>
        <time>2022-04-16T11:53:34Z</time>
      </trkpt>
      <trkpt lat="47.35791" lon="-1.44598">
        <ele>78</ele>
        <time>2022-04-16T11:53:36Z</time>
      </trkpt>
      <trkpt lat="47.35792" lon="-1.44585">
        <ele>79</ele>
        <time>2022-04-16T11:53:38Z</time>
      </trkpt>
      <trkpt lat="47.35794" lon="-1.44571">
        <ele>80</ele>
        <time>2022-04-16T11:53:40Z</time>
      </trkpt>
      <trkpt lat="47.35796" lon="-1.44558">
        <ele>80</ele>
        <time>2022-04-16T11:53:42Z</time>
      </trkpt>
      <trkpt lat="47.35798" lon="-1.44544">
        <ele>81</ele>
        <time>2022-04-16T11:53:44Z</time>
      </trkpt>
      <trkpt lat="47.35799" lon="-1.4453">
        <ele>81</ele>
        <time>2022-04-16T11:53:46Z</time>
      </trkpt>
      <trkpt lat="47.35801" lon="-1.44517">
        <ele>81</ele>
        <time>2022-04-16T11:53:48Z</time>
      </trkpt>
      <trkpt lat="47.35802" lon="-1.44502">
        <ele>81</ele>
        <time>2022-04-16T11:53:50Z</time>
      </trkpt>
      <trkpt lat="47.35803" lon="-1.44488">
        <ele>82</ele>
        <time>2022-04-16T11:53:52Z</time>
      </trkpt>
      <trkpt lat="47.35804" lon="-1.44473">
        <ele>82</ele>
        <time>2022-04-16T11:53:54Z</time>
      </trkpt>
      <trkpt lat="47.35805" lon="-1.44459">
        <ele>83</ele>
        <time>2022-04-16T11:53:56Z</time>
      </trkpt>
      <trkpt lat="47.35806" lon="-1.44444">
        <ele>83</ele>
        <time>2022-04-16T11:53:58Z</time>
      </trkpt>
      <trkpt lat="47.35806" lon="-1.44428">
        <ele>83</ele>
        <time>2022-04-16T11:54:00Z</time>
      </trkpt>
      <trkpt lat="47.35806" lon="-1.44413">
        <ele>83</ele>
        <time>2022-04-16T11:54:02Z</time>
      </trkpt>
      <trkpt lat="47.35807" lon="-1.44398">
        <ele>83</ele>
        <time>2022-04-16T11:54:04Z</time>
      </trkpt>
      <trkpt lat="47.35807" lon="-1.44382">
        <ele>84</ele>
        <time>2022-04-16T11:54:06Z</time>
      </trkpt>
      <trkpt lat="47.35807" lon="-1.44366">
        <ele>83</ele>
        <time>2022-04-16T11:54:08Z</time>
      </trkpt>
      <trkpt lat="47.35807" lon="-1.44349">
        <ele>83</ele>
        <time>2022-04-16T11:54:10Z</time>
      </trkpt>
      <trkpt lat="47.35807" lon="-1.44333">
        <ele>83</ele>
        <time>2022-04-16T11:54:12Z</time>
      </trkpt>
      <trkpt lat="47.35808" lon="-1.44316">
        <ele>83</ele>
        <time>2022-04-16T11:54:14Z</time>
      </trkpt>
      <trkpt lat="47.3581" lon="-1.44299">
        <ele>83</ele>
        <time>2022-04-16T11:54:16Z</time>
      </trkpt>
      <trkpt lat="47.35813" lon="-1.44283">
        <ele>82</ele>
        <time>2022-04-16T11:54:18Z</time>
      </trkpt>
      <trkpt lat="47.35818" lon="-1.44268">
        <ele>82</ele>
        <time>2022-04-16T11:54:20Z</time>
      </trkpt>
      <trkpt lat="47.35824" lon="-1.44254">
        <ele>81</ele>
        <time>2022-04-16T11:54:22Z</time>
      </trkpt>
      <trkpt lat="47.35832" lon="-1.44242">
        <ele>81</ele>
        <time>2022-04-16T11:54:24Z</time>
      </trkpt>
      <trkpt lat="47.3584" lon="-1.44231">
        <ele>81</ele>
        <time>2022-04-16T11:54:26Z</time>
      </trkpt>
      <trkpt lat="47.35848" lon="-1.44219">
        <ele>81</ele>
        <time>2022-04-16T11:54:28Z</time>
      </trkpt>
      <trkpt lat="47.35856" lon="-1.44208">
        <ele>81</ele>
        <time>2022-04-16T11:54:30Z</time>
      </trkpt>
      <trkpt lat="47.35864" lon="-1.44197">
        <ele>81</ele>
        <time>2022-04-16T11:54:32Z</time>
      </trkpt>
      <trkpt lat="47.35872" lon="-1.44185">
        <ele>80</ele>
        <time>2022-04-16T11:54:34Z</time>
      </trkpt>
      <trkpt lat="47.3588" lon="-1.44174">
        <ele>80</ele>
        <time>2022-04-16T11:54:36Z</time>
      </trkpt>
      <trkpt lat="47.35888" lon="-1.44163">
        <ele>80</ele>
        <time>2022-04-16T11:54:38Z</time>
      </trkpt>
      <trkpt lat="47.35897" lon="-1.44151">
        <ele>80</ele>
        <time>2022-04-16T11:54:40Z</time>
      </trkpt>
      <trkpt lat="47.35905" lon="-1.4414">
        <ele>80</ele>
        <time>2022-04-16T11:54:42Z</time>
      </trkpt>
      <trkpt lat="47.35912" lon="-1.44129">
        <ele>81</ele>
        <time>2022-04-16T11:54:44Z</time>
      </trkpt>
      <trkpt lat="47.35921" lon="-1.44118">
        <ele>82</ele>
        <time>2022-04-16T11:54:46Z</time>
      </trkpt>
      <trkpt lat="47.35929" lon="-1.44107">
        <ele>81</ele>
        <time>2022-04-16T11:54:48Z</time>
      </trkpt>
      <trkpt lat="47.35936" lon="-1.44096">
        <ele>81</ele>
        <time>2022-04-16T11:54:50Z</time>
      </trkpt>
      <trkpt lat="47.35943" lon="-1.44086">
        <ele>81</ele>
        <time>2022-04-16T11:54:52Z</time>
      </trkpt>
      <trkpt lat="47.35951" lon="-1.44076">
        <ele>81</ele>
        <time>2022-04-16T11:54:54Z</time>
      </trkpt>
      <trkpt lat="47.3596" lon="-1.44066">
        <ele>82</ele>
        <time>2022-04-16T11:54:56Z</time>
      </trkpt>
      <trkpt lat="47.35969" lon="-1.44055">
        <ele>82</ele>
        <time>2022-04-16T11:54:58Z</time>
      </trkpt>
      <trkpt lat="47.35977" lon="-1.44045">
        <ele>82</ele>
        <time>2022-04-16T11:55:00Z</time>
      </trkpt>
      <trkpt lat="47.35986" lon="-1.44035">
        <ele>82</ele>
        <time>2022-04-16T11:55:02Z</time>
      </trkpt>
      <trkpt lat="47.35995" lon="-1.44025">
        <ele>82</ele>
        <time>2022-04-16T11:55:04Z</time>
      </trkpt>
      <trkpt lat="47.36004" lon="-1.44014">
        <ele>82</ele>
        <time>2022-04-16T11:55:06Z</time>
      </trkpt>
      <trkpt lat="47.36012" lon="-1.44004">
        <ele>82</ele>
        <time>2022-04-16T11:55:08Z</time>
      </trkpt>
      <trkpt lat="47.3602" lon="-1.43991">
        <ele>82</ele>
        <time>2022-04-16T11:55:10Z</time>
      </trkpt>
      <trkpt lat="47.36028" lon="-1.43979">
        <ele>82</ele>
        <time>2022-04-16T11:55:12Z</time>
      </trkpt>
      <trkpt lat="47.36036" lon="-1.43966">
        <ele>82</ele>
        <time>2022-04-16T11:55:14Z</time>
      </trkpt>
      <trkpt lat="47.36043" lon="-1.43951">
        <ele>82</ele>
        <time>2022-04-16T11:55:16Z</time>
      </trkpt>
      <trkpt lat="47.36049" lon="-1.43935">
        <ele>81</ele>
        <time>2022-04-16T11:55:18Z</time>
      </trkpt>
      <trkpt lat="47.36055" lon="-1.43919">
        <ele>81</ele>
        <time>2022-04-16T11:55:20Z</time>
      </trkpt>
      <trkpt lat="47.36059" lon="-1.43901">
        <ele>81</ele>
        <time>2022-04-16T11:55:22Z</time>
      </trkpt>
      <trkpt lat="47.36063" lon="-1.43882">
        <ele>81</ele>
        <time>2022-04-16T11:55:24Z</time>
      </trkpt>
      <trkpt lat="47.36065" lon="-1.43863">
        <ele>81</ele>
        <time>2022-04-16T11:55:26Z</time>
      </trkpt>
      <trkpt lat="47.36068" lon="-1.43842">
        <ele>80</ele>
        <time>2022-04-16T11:55:28Z</time>
      </trkpt>
      <trkpt lat="47.3607" lon="-1.4382">
        <ele>79</ele>
        <time>2022-04-16T11:55:30Z</time>
      </trkpt>
      <trkpt lat="47.36073" lon="-1.43798">
        <ele>79</ele>
        <time>2022-04-16T11:55:32Z</time>
      </trkpt>
      <trkpt lat="47.36076" lon="-1.43776">
        <ele>79</ele>
        <time>2022-04-16T11:55:34Z</time>
      </trkpt>
      <trkpt lat="47.36081" lon="-1.43754">
        <ele>78</ele>
        <time>2022-04-16T11:55:36Z</time>
      </trkpt>
      <trkpt lat="47.36088" lon="-1.43732">
        <ele>77</ele>
        <time>2022-04-16T11:55:38Z</time>
      </trkpt>
      <trkpt lat="47.36097" lon="-1.4371">
        <ele>76</ele>
        <time>2022-04-16T11:55:40Z</time>
      </trkpt>
      <trkpt lat="47.36108" lon="-1.4369">
        <ele>76</ele>
        <time>2022-04-16T11:55:42Z</time>
      </trkpt>
      <trkpt lat="47.36119" lon="-1.43673">
        <ele>75</ele>
        <time>2022-04-16T11:55:44Z</time>
      </trkpt>
      <trkpt lat="47.36128" lon="-1.43656">
        <ele>75</ele>
        <time>2022-04-16T11:55:46Z</time>
      </trkpt>
      <trkpt lat="47.36137" lon="-1.4364">
        <ele>74</ele>
        <time>2022-04-16T11:55:48Z</time>
      </trkpt>
      <trkpt lat="47.36145" lon="-1.43624">
        <ele>75</ele>
        <time>2022-04-16T11:55:50Z</time>
      </trkpt>
      <trkpt lat="47.36152" lon="-1.43608">
        <ele>74</ele>
        <time>2022-04-16T11:55:52Z</time>
      </trkpt>
      <trkpt lat="47.36159" lon="-1.43593">
        <ele>75</ele>
        <time>2022-04-16T11:55:54Z</time>
      </trkpt>
      <trkpt lat="47.36167" lon="-1.43577">
        <ele>75</ele>
        <time>2022-04-16T11:55:56Z</time>
      </trkpt>
      <trkpt lat="47.36174" lon="-1.43561">
        <ele>74</ele>
        <time>2022-04-16T11:55:58Z</time>
      </trkpt>
      <trkpt lat="47.36181" lon="-1.43547">
        <ele>75</ele>
        <time>2022-04-16T11:56:00Z</time>
      </trkpt>
      <trkpt lat="47.36189" lon="-1.43533">
        <ele>74</ele>
        <time>2022-04-16T11:56:02Z</time>
      </trkpt>
      <trkpt lat="47.36197" lon="-1.4352">
        <ele>74</ele>
        <time>2022-04-16T11:56:04Z</time>
      </trkpt>
      <trkpt lat="47.36205" lon="-1.43509">
        <ele>75</ele>
        <time>2022-04-16T11:56:06Z</time>
      </trkpt>
      <trkpt lat="47.36213" lon="-1.43497">
        <ele>75</ele>
        <time>2022-04-16T11:56:08Z</time>
      </trkpt>
      <trkpt lat="47.3622" lon="-1.43488">
        <ele>75</ele>
        <time>2022-04-16T11:56:10Z</time>
      </trkpt>
      <trkpt lat="47.36227" lon="-1.4348">
        <ele>75</ele>
        <time>2022-04-16T11:56:12Z</time>
      </trkpt>
      <trkpt lat="47.36234" lon="-1.43471">
        <ele>76</ele>
        <time>2022-04-16T11:56:14Z</time>
      </trkpt>
      <trkpt lat="47.36242" lon="-1.43463">
        <ele>76</ele>
        <time>2022-04-16T11:56:16Z</time>
      </trkpt>
      <trkpt lat="47.36249" lon="-1.43455">
        <ele>75</ele>
        <time>2022-04-16T11:56:18Z</time>
      </trkpt>
      <trkpt lat="47.36259" lon="-1.43444">
        <ele>76</ele>
        <time>2022-04-16T11:56:21Z</time>
      </trkpt>
      <trkpt lat="47.3627" lon="-1.43435">
        <ele>76</ele>
        <time>2022-04-16T11:56:24Z</time>
      </trkpt>
      <trkpt lat="47.36279" lon="-1.43426">
        <ele>77</ele>
        <time>2022-04-16T11:56:27Z</time>
      </trkpt>
      <trkpt lat="47.36288" lon="-1.43416">
        <ele>78</ele>
        <time>2022-04-16T11:56:30Z</time>
      </trkpt>
      <trkpt lat="47.36298" lon="-1.43406">
        <ele>79</ele>
        <time>2022-04-16T11:56:33Z</time>
      </trkpt>
      <trkpt lat="47.36307" lon="-1.43397">
        <ele>80</ele>
        <time>2022-04-16T11:56:36Z</time>
      </trkpt>
      <trkpt lat="47.36317" lon="-1.43387">
        <ele>80</ele>
        <time>2022-04-16T11:56:39Z</time>
      </trkpt>
      <trkpt lat="47.36327" lon="-1.43377">
        <ele>81</ele>
        <time>2022-04-16T11:56:42Z</time>
      </trkpt>
      <trkpt lat="47.36337" lon="-1.43367">
        <ele>81</ele>
        <time>2022-04-16T11:56:45Z</time>
      </trkpt>
      <trkpt lat="47.36346" lon="-1.43357">
        <ele>82</ele>
        <time>2022-04-16T11:56:48Z</time>
      </trkpt>
      <trkpt lat="47.36356" lon="-1.43347">
        <ele>83</ele>
        <time>2022-04-16T11:56:51Z</time>
      </trkpt>
      <trkpt lat="47.36365" lon="-1.43337">
        <ele>84</ele>
        <time>2022-04-16T11:56:54Z</time>
      </trkpt>
      <trkpt lat="47.36375" lon="-1.43327">
        <ele>84</ele>
        <time>2022-04-16T11:56:57Z</time>
      </trkpt>
      <trkpt lat="47.36385" lon="-1.43317">
        <ele>85</ele>
        <time>2022-04-16T11:57:00Z</time>
      </trkpt>
      <trkpt lat="47.36394" lon="-1.43308">
        <ele>86</ele>
        <time>2022-04-16T11:57:03Z</time>
      </trkpt>
      <trkpt lat="47.36403" lon="-1.43298">
        <ele>86</ele>
        <time>2022-04-16T11:57:06Z</time>
      </trkpt>
      <trkpt lat="47.36413" lon="-1.43288">
        <ele>87</ele>
        <time>2022-04-16T11:57:09Z</time>
      </trkpt>
      <trkpt lat="47.36422" lon="-1.43277">
        <ele>88</ele>
        <time>2022-04-16T11:57:12Z</time>
      </trkpt>
      <trkpt lat="47.3643" lon="-1.43266">
        <ele>88</ele>
        <time>2022-04-16T11:57:15Z</time>
      </trkpt>
      <trkpt lat="47.36438" lon="-1.43255">
        <ele>89</ele>
        <time>2022-04-16T11:57:18Z</time>
      </trkpt>
      <trkpt lat="47.36445" lon="-1.43243">
        <ele>90</ele>
        <time>2022-04-16T11:57:21Z</time>
      </trkpt>
      <trkpt lat="47.36452" lon="-1.43229">
        <ele>91</ele>
        <time>2022-04-16T11:57:24Z</time>
      </trkpt>
      <trkpt lat="47.36459" lon="-1.43215">
        <ele>92</ele>
        <time>2022-04-16T11:57:27Z</time>
      </trkpt>
      <trkpt lat="47.36465" lon="-1.43201">
        <ele>93</ele>
        <time>2022-04-16T11:57:30Z</time>
      </trkpt>
      <trkpt lat="47.36472" lon="-1.43186">
        <ele>93</ele>
        <time>2022-04-16T11:57:33Z</time>
      </trkpt>
      <trkpt lat="47.36479" lon="-1.43172">
        <ele>94</ele>
        <time>2022-04-16T11:57:36Z</time>
      </trkpt>
      <trkpt lat="47.36485" lon="-1.43156">
        <ele>94</ele>
        <time>2022-04-16T11:57:39Z</time>
      </trkpt>
      <trkpt lat="47.36492" lon="-1.43141">
        <ele>95</ele>
        <time>2022-04-16T11:57:42Z</time>
      </trkpt>
      <trkpt lat="47.36499" lon="-1.43125">
        <ele>95</ele>
        <time>2022-04-16T11:57:45Z</time>
      </trkpt>
      <trkpt lat="47.36505" lon="-1.43107">
        <ele>94</ele>
        <time>2022-04-16T11:57:48Z</time>
      </trkpt>
      <trkpt lat="47.36511" lon="-1.43089">
        <ele>94</ele>
        <time>2022-04-16T11:57:51Z</time>
      </trkpt>
      <trkpt lat="47.36513" lon="-1.43076">
        <ele>94</ele>
        <time>2022-04-16T11:57:53Z</time>
      </trkpt>
      <trkpt lat="47.36515" lon="-1.43063">
        <ele>95</ele>
        <time>2022-04-16T11:57:55Z</time>
      </trkpt>
      <trkpt lat="47.36517" lon="-1.43044">
        <ele>95</ele>
        <time>2022-04-16T11:57:58Z</time>
      </trkpt>
      <trkpt lat="47.36518" lon="-1.4303">
        <ele>95</ele>
        <time>2022-04-16T11:58:00Z</time>
      </trkpt>
      <trkpt lat="47.3652" lon="-1.43017">
        <ele>95</ele>
        <time>2022-04-16T11:58:02Z</time>
      </trkpt>
      <trkpt lat="47.36525" lon="-1.42998">
        <ele>96</ele>
        <time>2022-04-16T11:58:05Z</time>
      </trkpt>
      <trkpt lat="47.36531" lon="-1.42988">
        <ele>96</ele>
        <time>2022-04-16T11:58:07Z</time>
      </trkpt>
      <trkpt lat="47.36544" lon="-1.42981">
        <ele>96</ele>
        <time>2022-04-16T11:58:10Z</time>
      </trkpt>
      <trkpt lat="47.36553" lon="-1.42981">
        <ele>96</ele>
        <time>2022-04-16T11:58:12Z</time>
      </trkpt>
      <trkpt lat="47.36564" lon="-1.42981">
        <ele>96</ele>
        <time>2022-04-16T11:58:14Z</time>
      </trkpt>
      <trkpt lat="47.36574" lon="-1.4298">
        <ele>96</ele>
        <time>2022-04-16T11:58:16Z</time>
      </trkpt>
      <trkpt lat="47.36585" lon="-1.4298">
        <ele>95</ele>
        <time>2022-04-16T11:58:18Z</time>
      </trkpt>
      <trkpt lat="47.36596" lon="-1.4298">
        <ele>96</ele>
        <time>2022-04-16T11:58:20Z</time>
      </trkpt>
      <trkpt lat="47.36608" lon="-1.42979">
        <ele>95</ele>
        <time>2022-04-16T11:58:22Z</time>
      </trkpt>
      <trkpt lat="47.36619" lon="-1.42978">
        <ele>96</ele>
        <time>2022-04-16T11:58:24Z</time>
      </trkpt>
      <trkpt lat="47.36631" lon="-1.42978">
        <ele>96</ele>
        <time>2022-04-16T11:58:26Z</time>
      </trkpt>
      <trkpt lat="47.36642" lon="-1.42978">
        <ele>96</ele>
        <time>2022-04-16T11:58:28Z</time>
      </trkpt>
      <trkpt lat="47.36653" lon="-1.42977">
        <ele>96</ele>
        <time>2022-04-16T11:58:30Z</time>
      </trkpt>
      <trkpt lat="47.36664" lon="-1.42977">
        <ele>96</ele>
        <time>2022-04-16T11:58:32Z</time>
      </trkpt>
      <trkpt lat="47.36674" lon="-1.42977">
        <ele>96</ele>
        <time>2022-04-16T11:58:34Z</time>
      </trkpt>
      <trkpt lat="47.36684" lon="-1.42975">
        <ele>96</ele>
        <time>2022-04-16T11:58:36Z</time>
      </trkpt>
      <trkpt lat="47.36691" lon="-1.42967">
        <ele>96</ele>
        <time>2022-04-16T11:58:38Z</time>
      </trkpt>
      <trkpt lat="47.36696" lon="-1.42953">
        <ele>96</ele>
        <time>2022-04-16T11:58:40Z</time>
      </trkpt>
      <trkpt lat="47.36701" lon="-1.42937">
        <ele>96</ele>
        <time>2022-04-16T11:58:42Z</time>
      </trkpt>
      <trkpt lat="47.36705" lon="-1.42921">
        <ele>96</ele>
        <time>2022-04-16T11:58:44Z</time>
      </trkpt>
      <trkpt lat="47.3671" lon="-1.42904">
        <ele>96</ele>
        <time>2022-04-16T11:58:46Z</time>
      </trkpt>
      <trkpt lat="47.36714" lon="-1.42888">
        <ele>96</ele>
        <time>2022-04-16T11:58:48Z</time>
      </trkpt>
      <trkpt lat="47.36719" lon="-1.42872">
        <ele>96</ele>
        <time>2022-04-16T11:58:50Z</time>
      </trkpt>
      <trkpt lat="47.36723" lon="-1.42855">
        <ele>96</ele>
        <time>2022-04-16T11:58:52Z</time>
      </trkpt>
      <trkpt lat="47.36727" lon="-1.42838">
        <ele>96</ele>
        <time>2022-04-16T11:58:54Z</time>
      </trkpt>
      <trkpt lat="47.3673" lon="-1.42821">
        <ele>96</ele>
        <time>2022-04-16T11:58:56Z</time>
      </trkpt>
      <trkpt lat="47.36733" lon="-1.42803">
        <ele>96</ele>
        <time>2022-04-16T11:58:58Z</time>
      </trkpt>
      <trkpt lat="47.36735" lon="-1.42786">
        <ele>96</ele>
        <time>2022-04-16T11:59:00Z</time>
      </trkpt>
      <trkpt lat="47.36737" lon="-1.42768">
        <ele>96</ele>
        <time>2022-04-16T11:59:02Z</time>
      </trkpt>
      <trkpt lat="47.36738" lon="-1.4275">
        <ele>96</ele>
        <time>2022-04-16T11:59:04Z</time>
      </trkpt>
      <trkpt lat="47.36739" lon="-1.42732">
        <ele>96</ele>
        <time>2022-04-16T11:59:06Z</time>
      </trkpt>
      <trkpt lat="47.36739" lon="-1.42714">
        <ele>96</ele>
        <time>2022-04-16T11:59:08Z</time>
      </trkpt>
      <trkpt lat="47.36738" lon="-1.42697">
        <ele>97</ele>
        <time>2022-04-16T11:59:10Z</time>
      </trkpt>
      <trkpt lat="47.36737" lon="-1.42679">
        <ele>97</ele>
        <time>2022-04-16T11:59:12Z</time>
      </trkpt>
      <trkpt lat="47.36735" lon="-1.4266">
        <ele>98</ele>
        <time>2022-04-16T11:59:14Z</time>
      </trkpt>
      <trkpt lat="47.36733" lon="-1.42642">
        <ele>98</ele>
        <time>2022-04-16T11:59:16Z</time>
      </trkpt>
      <trkpt lat="47.36729" lon="-1.42616">
        <ele>99</ele>
        <time>2022-04-16T11:59:19Z</time>
      </trkpt>
      <trkpt lat="47.36727" lon="-1.42599">
        <ele>99</ele>
        <time>2022-04-16T11:59:21Z</time>
      </trkpt>
      <trkpt lat="47.36724" lon="-1.42583">
        <ele>99</ele>
        <time>2022-04-16T11:59:23Z</time>
      </trkpt>
      <trkpt lat="47.36722" lon="-1.42565">
        <ele>99</ele>
        <time>2022-04-16T11:59:25Z</time>
      </trkpt>
      <trkpt lat="47.36719" lon="-1.42549">
        <ele>100</ele>
        <time>2022-04-16T11:59:27Z</time>
      </trkpt>
      <trkpt lat="47.36714" lon="-1.42523">
        <ele>100</ele>
        <time>2022-04-16T11:59:30Z</time>
      </trkpt>
      <trkpt lat="47.36711" lon="-1.42506">
        <ele>100</ele>
        <time>2022-04-16T11:59:32Z</time>
      </trkpt>
      <trkpt lat="47.36709" lon="-1.42489">
        <ele>100</ele>
        <time>2022-04-16T11:59:34Z</time>
      </trkpt>
      <trkpt lat="47.36706" lon="-1.42472">
        <ele>100</ele>
        <time>2022-04-16T11:59:36Z</time>
      </trkpt>
      <trkpt lat="47.36703" lon="-1.42455">
        <ele>100</ele>
        <time>2022-04-16T11:59:38Z</time>
      </trkpt>
      <trkpt lat="47.36701" lon="-1.42439">
        <ele>101</ele>
        <time>2022-04-16T11:59:40Z</time>
      </trkpt>
      <trkpt lat="47.36698" lon="-1.42422">
        <ele>101</ele>
        <time>2022-04-16T11:59:42Z</time>
      </trkpt>
      <trkpt lat="47.36696" lon="-1.42405">
        <ele>101</ele>
        <time>2022-04-16T11:59:44Z</time>
      </trkpt>
      <trkpt lat="47.36693" lon="-1.42388">
        <ele>101</ele>
        <time>2022-04-16T11:59:46Z</time>
      </trkpt>
      <trkpt lat="47.3669" lon="-1.42371">
        <ele>101</ele>
        <time>2022-04-16T11:59:48Z</time>
      </trkpt>
      <trkpt lat="47.36688" lon="-1.42354">
        <ele>101</ele>
        <time>2022-04-16T11:59:50Z</time>
      </trkpt>
      <trkpt lat="47.36685" lon="-1.42338">
        <ele>101</ele>
        <time>2022-04-16T11:59:52Z</time>
      </trkpt>
      <trkpt lat="47.36683" lon="-1.42322">
        <ele>102</ele>
        <time>2022-04-16T11:59:54Z</time>
      </trkpt>
      <trkpt lat="47.36681" lon="-1.42306">
        <ele>102</ele>
        <time>2022-04-16T11:59:56Z</time>
      </trkpt>
      <trkpt lat="47.36679" lon="-1.42289">
        <ele>102</ele>
        <time>2022-04-16T11:59:58Z</time>
      </trkpt>
      <trkpt lat="47.36677" lon="-1.42272">
        <ele>102</ele>
        <time>2022-04-16T12:00:00Z</time>
      </trkpt>
      <trkpt lat="47.36675" lon="-1.42256">
        <ele>102</ele>
        <time>2022-04-16T12:00:02Z</time>
      </trkpt>
      <trkpt lat="47.36674" lon="-1.4224">
        <ele>102</ele>
        <time>2022-04-16T12:00:04Z</time>
      </trkpt>
      <trkpt lat="47.36672" lon="-1.42224">
        <ele>102</ele>
        <time>2022-04-16T12:00:06Z</time>
      </trkpt>
      <trkpt lat="47.36671" lon="-1.42208">
        <ele>103</ele>
        <time>2022-04-16T12:00:08Z</time>
      </trkpt>
      <trkpt lat="47.36669" lon="-1.42191">
        <ele>103</ele>
        <time>2022-04-16T12:00:10Z</time>
      </trkpt>
      <trkpt lat="47.36668" lon="-1.42176">
        <ele>103</ele>
        <time>2022-04-16T12:00:12Z</time>
      </trkpt>
      <trkpt lat="47.36666" lon="-1.4216">
        <ele>104</ele>
        <time>2022-04-16T12:00:14Z</time>
      </trkpt>
      <trkpt lat="47.36665" lon="-1.42145">
        <ele>104</ele>
        <time>2022-04-16T12:00:16Z</time>
      </trkpt>
      <trkpt lat="47.36663" lon="-1.42129">
        <ele>104</ele>
        <time>2022-04-16T12:00:18Z</time>
      </trkpt>
      <trkpt lat="47.36662" lon="-1.42113">
        <ele>104</ele>
        <time>2022-04-16T12:00:20Z</time>
      </trkpt>
      <trkpt lat="47.3666" lon="-1.42097">
        <ele>104</ele>
        <time>2022-04-16T12:00:22Z</time>
      </trkpt>
      <trkpt lat="47.36659" lon="-1.4208">
        <ele>105</ele>
        <time>2022-04-16T12:00:24Z</time>
      </trkpt>
      <trkpt lat="47.36658" lon="-1.42063">
        <ele>105</ele>
        <time>2022-04-16T12:00:26Z</time>
      </trkpt>
      <trkpt lat="47.36656" lon="-1.42047">
        <ele>105</ele>
        <time>2022-04-16T12:00:28Z</time>
      </trkpt>
      <trkpt lat="47.36655" lon="-1.42031">
        <ele>106</ele>
        <time>2022-04-16T12:00:30Z</time>
      </trkpt>
      <trkpt lat="47.36653" lon="-1.42015">
        <ele>106</ele>
        <time>2022-04-16T12:00:32Z</time>
      </trkpt>
      <trkpt lat="47.36652" lon="-1.42">
        <ele>106</ele>
        <time>2022-04-16T12:00:34Z</time>
      </trkpt>
      <trkpt lat="47.36651" lon="-1.41984">
        <ele>107</ele>
        <time>2022-04-16T12:00:36Z</time>
      </trkpt>
      <trkpt lat="47.3665" lon="-1.41968">
        <ele>108</ele>
        <time>2022-04-16T12:00:38Z</time>
      </trkpt>
      <trkpt lat="47.36648" lon="-1.41953">
        <ele>108</ele>
        <time>2022-04-16T12:00:40Z</time>
      </trkpt>
      <trkpt lat="47.36646" lon="-1.41937">
        <ele>108</ele>
        <time>2022-04-16T12:00:42Z</time>
      </trkpt>
      <trkpt lat="47.36645" lon="-1.41922">
        <ele>108</ele>
        <time>2022-04-16T12:00:44Z</time>
      </trkpt>
      <trkpt lat="47.36644" lon="-1.41906">
        <ele>109</ele>
        <time>2022-04-16T12:00:46Z</time>
      </trkpt>
      <trkpt lat="47.36642" lon="-1.41891">
        <ele>109</ele>
        <time>2022-04-16T12:00:48Z</time>
      </trkpt>
      <trkpt lat="47.36641" lon="-1.41874">
        <ele>110</ele>
        <time>2022-04-16T12:00:50Z</time>
      </trkpt>
      <trkpt lat="47.3664" lon="-1.41859">
        <ele>110</ele>
        <time>2022-04-16T12:00:52Z</time>
      </trkpt>
      <trkpt lat="47.36639" lon="-1.41844">
        <ele>110</ele>
        <time>2022-04-16T12:00:54Z</time>
      </trkpt>
      <trkpt lat="47.36637" lon="-1.4183">
        <ele>110</ele>
        <time>2022-04-16T12:00:56Z</time>
      </trkpt>
      <trkpt lat="47.36636" lon="-1.41816">
        <ele>111</ele>
        <time>2022-04-16T12:00:58Z</time>
      </trkpt>
      <trkpt lat="47.36635" lon="-1.41801">
        <ele>111</ele>
        <time>2022-04-16T12:01:00Z</time>
      </trkpt>
      <trkpt lat="47.36633" lon="-1.41786">
        <ele>112</ele>
        <time>2022-04-16T12:01:02Z</time>
      </trkpt>
      <trkpt lat="47.36632" lon="-1.41771">
        <ele>112</ele>
        <time>2022-04-16T12:01:04Z</time>
      </trkpt>
      <trkpt lat="47.36631" lon="-1.41755">
        <ele>112</ele>
        <time>2022-04-16T12:01:06Z</time>
      </trkpt>
      <trkpt lat="47.3663" lon="-1.41739">
        <ele>112</ele>
        <time>2022-04-16T12:01:08Z</time>
      </trkpt>
      <trkpt lat="47.36628" lon="-1.41724">
        <ele>112</ele>
        <time>2022-04-16T12:01:10Z</time>
      </trkpt>
      <trkpt lat="47.36627" lon="-1.41708">
        <ele>112</ele>
        <time>2022-04-16T12:01:12Z</time>
      </trkpt>
      <trkpt lat="47.36626" lon="-1.41693">
        <ele>112</ele>
        <time>2022-04-16T12:01:14Z</time>
      </trkpt>
      <trkpt lat="47.36625" lon="-1.41678">
        <ele>112</ele>
        <time>2022-04-16T12:01:16Z</time>
      </trkpt>
      <trkpt lat="47.36625" lon="-1.41662">
        <ele>112</ele>
        <time>2022-04-16T12:01:18Z</time>
      </trkpt>
      <trkpt lat="47.36624" lon="-1.41647">
        <ele>113</ele>
        <time>2022-04-16T12:01:20Z</time>
      </trkpt>
      <trkpt lat="47.36624" lon="-1.41631">
        <ele>113</ele>
        <time>2022-04-16T12:01:22Z</time>
      </trkpt>
      <trkpt lat="47.36625" lon="-1.41616">
        <ele>113</ele>
        <time>2022-04-16T12:01:24Z</time>
      </trkpt>
      <trkpt lat="47.36626" lon="-1.41601">
        <ele>113</ele>
        <time>2022-04-16T12:01:26Z</time>
      </trkpt>
      <trkpt lat="47.36627" lon="-1.41586">
        <ele>114</ele>
        <time>2022-04-16T12:01:28Z</time>
      </trkpt>
      <trkpt lat="47.36628" lon="-1.41571">
        <ele>114</ele>
        <time>2022-04-16T12:01:30Z</time>
      </trkpt>
      <trkpt lat="47.36628" lon="-1.41557">
        <ele>114</ele>
        <time>2022-04-16T12:01:32Z</time>
      </trkpt>
      <trkpt lat="47.3663" lon="-1.41542">
        <ele>114</ele>
        <time>2022-04-16T12:01:34Z</time>
      </trkpt>
      <trkpt lat="47.36634" lon="-1.41528">
        <ele>114</ele>
        <time>2022-04-16T12:01:36Z</time>
      </trkpt>
      <trkpt lat="47.36638" lon="-1.41513">
        <ele>114</ele>
        <time>2022-04-16T12:01:38Z</time>
      </trkpt>
      <trkpt lat="47.36642" lon="-1.41497">
        <ele>114</ele>
        <time>2022-04-16T12:01:40Z</time>
      </trkpt>
      <trkpt lat="47.36646" lon="-1.41481">
        <ele>114</ele>
        <time>2022-04-16T12:01:42Z</time>
      </trkpt>
      <trkpt lat="47.3665" lon="-1.41466">
        <ele>113</ele>
        <time>2022-04-16T12:01:44Z</time>
      </trkpt>
      <trkpt lat="47.36655" lon="-1.41451">
        <ele>113</ele>
        <time>2022-04-16T12:01:46Z</time>
      </trkpt>
      <trkpt lat="47.36659" lon="-1.41437">
        <ele>114</ele>
        <time>2022-04-16T12:01:48Z</time>
      </trkpt>
      <trkpt lat="47.36664" lon="-1.41422">
        <ele>114</ele>
        <time>2022-04-16T12:01:50Z</time>
      </trkpt>
      <trkpt lat="47.36669" lon="-1.41408">
        <ele>114</ele>
        <time>2022-04-16T12:01:52Z</time>
      </trkpt>
      <trkpt lat="47.36675" lon="-1.41393">
        <ele>113</ele>
        <time>2022-04-16T12:01:54Z</time>
      </trkpt>
      <trkpt lat="47.3668" lon="-1.41378">
        <ele>113</ele>
        <time>2022-04-16T12:01:56Z</time>
      </trkpt>
      <trkpt lat="47.36686" lon="-1.41362">
        <ele>113</ele>
        <time>2022-04-16T12:01:58Z</time>
      </trkpt>
      <trkpt lat="47.36691" lon="-1.41347">
        <ele>113</ele>
        <time>2022-04-16T12:02:00Z</time>
      </trkpt>
      <trkpt lat="47.36696" lon="-1.41332">
        <ele>114</ele>
        <time>2022-04-16T12:02:02Z</time>
      </trkpt>
      <trkpt lat="47.36701" lon="-1.41317">
        <ele>114</ele>
        <time>2022-04-16T12:02:04Z</time>
      </trkpt>
      <trkpt lat="47.36707" lon="-1.41304">
        <ele>113</ele>
        <time>2022-04-16T12:02:06Z</time>
      </trkpt>
      <trkpt lat="47.36715" lon="-1.41291">
        <ele>113</ele>
        <time>2022-04-16T12:02:08Z</time>
      </trkpt>
      <trkpt lat="47.36721" lon="-1.41276">
        <ele>112</ele>
        <time>2022-04-16T12:02:10Z</time>
      </trkpt>
      <trkpt lat="47.36725" lon="-1.41259">
        <ele>111</ele>
        <time>2022-04-16T12:02:12Z</time>
      </trkpt>
      <trkpt lat="47.36731" lon="-1.41242">
        <ele>111</ele>
        <time>2022-04-16T12:02:14Z</time>
      </trkpt>
      <trkpt lat="47.36736" lon="-1.41226">
        <ele>110</ele>
        <time>2022-04-16T12:02:16Z</time>
      </trkpt>
      <trkpt lat="47.36741" lon="-1.41207">
        <ele>110</ele>
        <time>2022-04-16T12:02:18Z</time>
      </trkpt>
      <trkpt lat="47.36743" lon="-1.41188">
        <ele>109</ele>
        <time>2022-04-16T12:02:20Z</time>
      </trkpt>
      <trkpt lat="47.36743" lon="-1.41169">
        <ele>109</ele>
        <time>2022-04-16T12:02:22Z</time>
      </trkpt>
      <trkpt lat="47.3674" lon="-1.41149">
        <ele>109</ele>
        <time>2022-04-16T12:02:24Z</time>
      </trkpt>
      <trkpt lat="47.36736" lon="-1.41131">
        <ele>108</ele>
        <time>2022-04-16T12:02:26Z</time>
      </trkpt>
      <trkpt lat="47.36732" lon="-1.41114">
        <ele>108</ele>
        <time>2022-04-16T12:02:28Z</time>
      </trkpt>
      <trkpt lat="47.36728" lon="-1.41098">
        <ele>108</ele>
        <time>2022-04-16T12:02:30Z</time>
      </trkpt>
      <trkpt lat="47.36723" lon="-1.41081">
        <ele>107</ele>
        <time>2022-04-16T12:02:32Z</time>
      </trkpt>
      <trkpt lat="47.36718" lon="-1.41063">
        <ele>108</ele>
        <time>2022-04-16T12:02:34Z</time>
      </trkpt>
      <trkpt lat="47.36714" lon="-1.41045">
        <ele>108</ele>
        <time>2022-04-16T12:02:36Z</time>
      </trkpt>
      <trkpt lat="47.36709" lon="-1.41028">
        <ele>108</ele>
        <time>2022-04-16T12:02:38Z</time>
      </trkpt>
      <trkpt lat="47.36704" lon="-1.4101">
        <ele>108</ele>
        <time>2022-04-16T12:02:40Z</time>
      </trkpt>
      <trkpt lat="47.367" lon="-1.40992">
        <ele>108</ele>
        <time>2022-04-16T12:02:42Z</time>
      </trkpt>
      <trkpt lat="47.36696" lon="-1.40975">
        <ele>108</ele>
        <time>2022-04-16T12:02:44Z</time>
      </trkpt>
      <trkpt lat="47.36693" lon="-1.40958">
        <ele>109</ele>
        <time>2022-04-16T12:02:46Z</time>
      </trkpt>
      <trkpt lat="47.36691" lon="-1.40942">
        <ele>109</ele>
        <time>2022-04-16T12:02:48Z</time>
      </trkpt>
      <trkpt lat="47.36689" lon="-1.40926">
        <ele>109</ele>
        <time>2022-04-16T12:02:50Z</time>
      </trkpt>
      <trkpt lat="47.36689" lon="-1.40909">
        <ele>110</ele>
        <time>2022-04-16T12:02:52Z</time>
      </trkpt>
      <trkpt lat="47.3669" lon="-1.40891">
        <ele>109</ele>
        <time>2022-04-16T12:02:54Z</time>
      </trkpt>
      <trkpt lat="47.3669" lon="-1.40875">
        <ele>109</ele>
        <time>2022-04-16T12:02:56Z</time>
      </trkpt>
      <trkpt lat="47.36691" lon="-1.40857">
        <ele>109</ele>
        <time>2022-04-16T12:02:58Z</time>
      </trkpt>
      <trkpt lat="47.36691" lon="-1.4084">
        <ele>109</ele>
        <time>2022-04-16T12:03:00Z</time>
      </trkpt>
      <trkpt lat="47.36692" lon="-1.40823">
        <ele>109</ele>
        <time>2022-04-16T12:03:02Z</time>
      </trkpt>
      <trkpt lat="47.36692" lon="-1.40806">
        <ele>109</ele>
        <time>2022-04-16T12:03:04Z</time>
      </trkpt>
      <trkpt lat="47.36693" lon="-1.4079">
        <ele>110</ele>
        <time>2022-04-16T12:03:06Z</time>
      </trkpt>
      <trkpt lat="47.36694" lon="-1.40773">
        <ele>110</ele>
        <time>2022-04-16T12:03:08Z</time>
      </trkpt>
      <trkpt lat="47.36694" lon="-1.40756">
        <ele>109</ele>
        <time>2022-04-16T12:03:10Z</time>
      </trkpt>
      <trkpt lat="47.36694" lon="-1.4074">
        <ele>109</ele>
        <time>2022-04-16T12:03:12Z</time>
      </trkpt>
      <trkpt lat="47.36695" lon="-1.40723">
        <ele>109</ele>
        <time>2022-04-16T12:03:14Z</time>
      </trkpt>
      <trkpt lat="47.36695" lon="-1.40705">
        <ele>109</ele>
        <time>2022-04-16T12:03:16Z</time>
      </trkpt>
      <trkpt lat="47.36696" lon="-1.40689">
        <ele>109</ele>
        <time>2022-04-16T12:03:18Z</time>
      </trkpt>
      <trkpt lat="47.36696" lon="-1.40672">
        <ele>109</ele>
        <time>2022-04-16T12:03:20Z</time>
      </trkpt>
      <trkpt lat="47.36696" lon="-1.40655">
        <ele>108</ele>
        <time>2022-04-16T12:03:22Z</time>
      </trkpt>
      <trkpt lat="47.36697" lon="-1.40638">
        <ele>108</ele>
        <time>2022-04-16T12:03:24Z</time>
      </trkpt>
      <trkpt lat="47.36698" lon="-1.40621">
        <ele>107</ele>
        <time>2022-04-16T12:03:26Z</time>
      </trkpt>
      <trkpt lat="47.36698" lon="-1.40603">
        <ele>107</ele>
        <time>2022-04-16T12:03:28Z</time>
      </trkpt>
      <trkpt lat="47.36698" lon="-1.40586">
        <ele>107</ele>
        <time>2022-04-16T12:03:30Z</time>
      </trkpt>
      <trkpt lat="47.36699" lon="-1.40567">
        <ele>107</ele>
        <time>2022-04-16T12:03:32Z</time>
      </trkpt>
      <trkpt lat="47.36698" lon="-1.40549">
        <ele>106</ele>
        <time>2022-04-16T12:03:34Z</time>
      </trkpt>
      <trkpt lat="47.36696" lon="-1.40534">
        <ele>106</ele>
        <time>2022-04-16T12:03:36Z</time>
      </trkpt>
      <trkpt lat="47.36699" lon="-1.40518">
        <ele>106</ele>
        <time>2022-04-16T12:03:39Z</time>
      </trkpt>
      <trkpt lat="47.36711" lon="-1.40514">
        <ele>106</ele>
        <time>2022-04-16T12:03:41Z</time>
      </trkpt>
      <trkpt lat="47.36724" lon="-1.40508">
        <ele>105</ele>
        <time>2022-04-16T12:03:43Z</time>
      </trkpt>
      <trkpt lat="47.36728" lon="-1.40491">
        <ele>105</ele>
        <time>2022-04-16T12:03:45Z</time>
      </trkpt>
      <trkpt lat="47.3673" lon="-1.40471">
        <ele>104</ele>
        <time>2022-04-16T12:03:47Z</time>
      </trkpt>
      <trkpt lat="47.36731" lon="-1.40451">
        <ele>104</ele>
        <time>2022-04-16T12:03:49Z</time>
      </trkpt>
      <trkpt lat="47.36732" lon="-1.40432">
        <ele>104</ele>
        <time>2022-04-16T12:03:51Z</time>
      </trkpt>
      <trkpt lat="47.36734" lon="-1.40412">
        <ele>104</ele>
        <time>2022-04-16T12:03:53Z</time>
      </trkpt>
      <trkpt lat="47.36737" lon="-1.40393">
        <ele>104</ele>
        <time>2022-04-16T12:03:55Z</time>
      </trkpt>
      <trkpt lat="47.36739" lon="-1.40375">
        <ele>104</ele>
        <time>2022-04-16T12:03:57Z</time>
      </trkpt>
      <trkpt lat="47.36742" lon="-1.40356">
        <ele>104</ele>
        <time>2022-04-16T12:03:59Z</time>
      </trkpt>
      <trkpt lat="47.36745" lon="-1.40337">
        <ele>103</ele>
        <time>2022-04-16T12:04:01Z</time>
      </trkpt>
      <trkpt lat="47.36748" lon="-1.40319">
        <ele>103</ele>
        <time>2022-04-16T12:04:03Z</time>
      </trkpt>
      <trkpt lat="47.36751" lon="-1.40301">
        <ele>103</ele>
        <time>2022-04-16T12:04:05Z</time>
      </trkpt>
      <trkpt lat="47.36754" lon="-1.40281">
        <ele>103</ele>
        <time>2022-04-16T12:04:07Z</time>
      </trkpt>
      <trkpt lat="47.36756" lon="-1.40262">
        <ele>102</ele>
        <time>2022-04-16T12:04:09Z</time>
      </trkpt>
      <trkpt lat="47.36759" lon="-1.40243">
        <ele>102</ele>
        <time>2022-04-16T12:04:11Z</time>
      </trkpt>
      <trkpt lat="47.36761" lon="-1.40222">
        <ele>101</ele>
        <time>2022-04-16T12:04:13Z</time>
      </trkpt>
      <trkpt lat="47.36762" lon="-1.40201">
        <ele>101</ele>
        <time>2022-04-16T12:04:15Z</time>
      </trkpt>
      <trkpt lat="47.36763" lon="-1.40182">
        <ele>101</ele>
        <time>2022-04-16T12:04:17Z</time>
      </trkpt>
      <trkpt lat="47.36764" lon="-1.40162">
        <ele>102</ele>
        <time>2022-04-16T12:04:19Z</time>
      </trkpt>
      <trkpt lat="47.36763" lon="-1.40142">
        <ele>102</ele>
        <time>2022-04-16T12:04:21Z</time>
      </trkpt>
      <trkpt lat="47.36763" lon="-1.40122">
        <ele>103</ele>
        <time>2022-04-16T12:04:23Z</time>
      </trkpt>
      <trkpt lat="47.36763" lon="-1.40104">
        <ele>104</ele>
        <time>2022-04-16T12:04:25Z</time>
      </trkpt>
      <trkpt lat="47.36763" lon="-1.40087">
        <ele>104</ele>
        <time>2022-04-16T12:04:27Z</time>
      </trkpt>
      <trkpt lat="47.36763" lon="-1.40071">
        <ele>105</ele>
        <time>2022-04-16T12:04:29Z</time>
      </trkpt>
      <trkpt lat="47.36763" lon="-1.40057">
        <ele>104</ele>
        <time>2022-04-16T12:04:31Z</time>
      </trkpt>
      <trkpt lat="47.36764" lon="-1.40042">
        <ele>104</ele>
        <time>2022-04-16T12:04:33Z</time>
      </trkpt>
      <trkpt lat="47.36764" lon="-1.40028">
        <ele>105</ele>
        <time>2022-04-16T12:04:35Z</time>
      </trkpt>
      <trkpt lat="47.36764" lon="-1.40013">
        <ele>105</ele>
        <time>2022-04-16T12:04:37Z</time>
      </trkpt>
      <trkpt lat="47.36764" lon="-1.39997">
        <ele>105</ele>
        <time>2022-04-16T12:04:39Z</time>
      </trkpt>
      <trkpt lat="47.36764" lon="-1.39983">
        <ele>105</ele>
        <time>2022-04-16T12:04:41Z</time>
      </trkpt>
      <trkpt lat="47.36764" lon="-1.39969">
        <ele>106</ele>
        <time>2022-04-16T12:04:43Z</time>
      </trkpt>
      <trkpt lat="47.36764" lon="-1.39954">
        <ele>107</ele>
        <time>2022-04-16T12:04:45Z</time>
      </trkpt>
      <trkpt lat="47.36764" lon="-1.3994">
        <ele>108</ele>
        <time>2022-04-16T12:04:47Z</time>
      </trkpt>
      <trkpt lat="47.36764" lon="-1.39925">
        <ele>108</ele>
        <time>2022-04-16T12:04:49Z</time>
      </trkpt>
      <trkpt lat="47.36764" lon="-1.39911">
        <ele>108</ele>
        <time>2022-04-16T12:04:51Z</time>
      </trkpt>
      <trkpt lat="47.36764" lon="-1.39896">
        <ele>109</ele>
        <time>2022-04-16T12:04:53Z</time>
      </trkpt>
      <trkpt lat="47.36764" lon="-1.39882">
        <ele>110</ele>
        <time>2022-04-16T12:04:55Z</time>
      </trkpt>
      <trkpt lat="47.36764" lon="-1.39868">
        <ele>110</ele>
        <time>2022-04-16T12:04:57Z</time>
      </trkpt>
      <trkpt lat="47.36764" lon="-1.39854">
        <ele>110</ele>
        <time>2022-04-16T12:04:59Z</time>
      </trkpt>
      <trkpt lat="47.36764" lon="-1.39839">
        <ele>110</ele>
        <time>2022-04-16T12:05:01Z</time>
      </trkpt>
      <trkpt lat="47.36764" lon="-1.39825">
        <ele>111</ele>
        <time>2022-04-16T12:05:03Z</time>
      </trkpt>
      <trkpt lat="47.36764" lon="-1.3981">
        <ele>110</ele>
        <time>2022-04-16T12:05:05Z</time>
      </trkpt>
      <trkpt lat="47.36764" lon="-1.39796">
        <ele>111</ele>
        <time>2022-04-16T12:05:07Z</time>
      </trkpt>
      <trkpt lat="47.36764" lon="-1.39781">
        <ele>112</ele>
        <time>2022-04-16T12:05:09Z</time>
      </trkpt>
      <trkpt lat="47.36764" lon="-1.39766">
        <ele>112</ele>
        <time>2022-04-16T12:05:11Z</time>
      </trkpt>
      <trkpt lat="47.36764" lon="-1.39751">
        <ele>112</ele>
        <time>2022-04-16T12:05:13Z</time>
      </trkpt>
      <trkpt lat="47.36764" lon="-1.39737">
        <ele>112</ele>
        <time>2022-04-16T12:05:15Z</time>
      </trkpt>
      <trkpt lat="47.36764" lon="-1.39722">
        <ele>112</ele>
        <time>2022-04-16T12:05:17Z</time>
      </trkpt>
      <trkpt lat="47.36764" lon="-1.39707">
        <ele>112</ele>
        <time>2022-04-16T12:05:19Z</time>
      </trkpt>
      <trkpt lat="47.36764" lon="-1.39692">
        <ele>113</ele>
        <time>2022-04-16T12:05:21Z</time>
      </trkpt>
      <trkpt lat="47.36765" lon="-1.39677">
        <ele>113</ele>
        <time>2022-04-16T12:05:23Z</time>
      </trkpt>
      <trkpt lat="47.36765" lon="-1.39662">
        <ele>114</ele>
        <time>2022-04-16T12:05:25Z</time>
      </trkpt>
      <trkpt lat="47.36764" lon="-1.39647">
        <ele>114</ele>
        <time>2022-04-16T12:05:27Z</time>
      </trkpt>
      <trkpt lat="47.36765" lon="-1.39632">
        <ele>115</ele>
        <time>2022-04-16T12:05:29Z</time>
      </trkpt>
      <trkpt lat="47.36765" lon="-1.39617">
        <ele>115</ele>
        <time>2022-04-16T12:05:31Z</time>
      </trkpt>
      <trkpt lat="47.36765" lon="-1.39603">
        <ele>115</ele>
        <time>2022-04-16T12:05:33Z</time>
      </trkpt>
      <trkpt lat="47.36765" lon="-1.39588">
        <ele>116</ele>
        <time>2022-04-16T12:05:35Z</time>
      </trkpt>
      <trkpt lat="47.36765" lon="-1.39572">
        <ele>116</ele>
        <time>2022-04-16T12:05:37Z</time>
      </trkpt>
      <trkpt lat="47.36765" lon="-1.39558">
        <ele>116</ele>
        <time>2022-04-16T12:05:39Z</time>
      </trkpt>
      <trkpt lat="47.36765" lon="-1.39542">
        <ele>116</ele>
        <time>2022-04-16T12:05:41Z</time>
      </trkpt>
      <trkpt lat="47.36765" lon="-1.39527">
        <ele>117</ele>
        <time>2022-04-16T12:05:43Z</time>
      </trkpt>
      <trkpt lat="47.36765" lon="-1.39511">
        <ele>116</ele>
        <time>2022-04-16T12:05:45Z</time>
      </trkpt>
      <trkpt lat="47.36765" lon="-1.39496">
        <ele>116</ele>
        <time>2022-04-16T12:05:47Z</time>
      </trkpt>
      <trkpt lat="47.36765" lon="-1.39481">
        <ele>117</ele>
        <time>2022-04-16T12:05:49Z</time>
      </trkpt>
      <trkpt lat="47.36765" lon="-1.39465">
        <ele>116</ele>
        <time>2022-04-16T12:05:51Z</time>
      </trkpt>
      <trkpt lat="47.36765" lon="-1.3945">
        <ele>116</ele>
        <time>2022-04-16T12:05:53Z</time>
      </trkpt>
      <trkpt lat="47.36765" lon="-1.39435">
        <ele>116</ele>
        <time>2022-04-16T12:05:55Z</time>
      </trkpt>
      <trkpt lat="47.36765" lon="-1.3942">
        <ele>116</ele>
        <time>2022-04-16T12:05:57Z</time>
      </trkpt>
      <trkpt lat="47.36765" lon="-1.39405">
        <ele>116</ele>
        <time>2022-04-16T12:05:59Z</time>
      </trkpt>
      <trkpt lat="47.36765" lon="-1.3939">
        <ele>116</ele>
        <time>2022-04-16T12:06:01Z</time>
      </trkpt>
      <trkpt lat="47.36765" lon="-1.39374">
        <ele>116</ele>
        <time>2022-04-16T12:06:03Z</time>
      </trkpt>
      <trkpt lat="47.36764" lon="-1.39358">
        <ele>116</ele>
        <time>2022-04-16T12:06:05Z</time>
      </trkpt>
      <trkpt lat="47.36763" lon="-1.39343">
        <ele>115</ele>
        <time>2022-04-16T12:06:07Z</time>
      </trkpt>
      <trkpt lat="47.36761" lon="-1.39328">
        <ele>115</ele>
        <time>2022-04-16T12:06:09Z</time>
      </trkpt>
      <trkpt lat="47.36759" lon="-1.39313">
        <ele>115</ele>
        <time>2022-04-16T12:06:11Z</time>
      </trkpt>
      <trkpt lat="47.36756" lon="-1.39298">
        <ele>115</ele>
        <time>2022-04-16T12:06:13Z</time>
      </trkpt>
      <trkpt lat="47.36752" lon="-1.39285">
        <ele>115</ele>
        <time>2022-04-16T12:06:15Z</time>
      </trkpt>
      <trkpt lat="47.36748" lon="-1.39271">
        <ele>116</ele>
        <time>2022-04-16T12:06:17Z</time>
      </trkpt>
      <trkpt lat="47.36742" lon="-1.39258">
        <ele>116</ele>
        <time>2022-04-16T12:06:19Z</time>
      </trkpt>
      <trkpt lat="47.36737" lon="-1.39245">
        <ele>116</ele>
        <time>2022-04-16T12:06:21Z</time>
      </trkpt>
      <trkpt lat="47.36731" lon="-1.39233">
        <ele>116</ele>
        <time>2022-04-16T12:06:23Z</time>
      </trkpt>
      <trkpt lat="47.36725" lon="-1.3922">
        <ele>117</ele>
        <time>2022-04-16T12:06:25Z</time>
      </trkpt>
      <trkpt lat="47.36719" lon="-1.39207">
        <ele>117</ele>
        <time>2022-04-16T12:06:27Z</time>
      </trkpt>
      <trkpt lat="47.36713" lon="-1.39194">
        <ele>117</ele>
        <time>2022-04-16T12:06:29Z</time>
      </trkpt>
      <trkpt lat="47.36707" lon="-1.39182">
        <ele>117</ele>
        <time>2022-04-16T12:06:31Z</time>
      </trkpt>
      <trkpt lat="47.36701" lon="-1.39169">
        <ele>117</ele>
        <time>2022-04-16T12:06:33Z</time>
      </trkpt>
      <trkpt lat="47.36695" lon="-1.39157">
        <ele>117</ele>
        <time>2022-04-16T12:06:35Z</time>
      </trkpt>
      <trkpt lat="47.36689" lon="-1.39144">
        <ele>117</ele>
        <time>2022-04-16T12:06:37Z</time>
      </trkpt>
      <trkpt lat="47.36683" lon="-1.39132">
        <ele>117</ele>
        <time>2022-04-16T12:06:39Z</time>
      </trkpt>
      <trkpt lat="47.36677" lon="-1.39118">
        <ele>117</ele>
        <time>2022-04-16T12:06:41Z</time>
      </trkpt>
      <trkpt lat="47.36671" lon="-1.39105">
        <ele>118</ele>
        <time>2022-04-16T12:06:43Z</time>
      </trkpt>
      <trkpt lat="47.36665" lon="-1.39093">
        <ele>118</ele>
        <time>2022-04-16T12:06:45Z</time>
      </trkpt>
      <trkpt lat="47.36659" lon="-1.3908">
        <ele>118</ele>
        <time>2022-04-16T12:06:47Z</time>
      </trkpt>
      <trkpt lat="47.36653" lon="-1.39067">
        <ele>118</ele>
        <time>2022-04-16T12:06:49Z</time>
      </trkpt>
      <trkpt lat="47.36646" lon="-1.39054">
        <ele>118</ele>
        <time>2022-04-16T12:06:51Z</time>
      </trkpt>
      <trkpt lat="47.3664" lon="-1.39041">
        <ele>118</ele>
        <time>2022-04-16T12:06:53Z</time>
      </trkpt>
      <trkpt lat="47.36634" lon="-1.39028">
        <ele>118</ele>
        <time>2022-04-16T12:06:55Z</time>
      </trkpt>
      <trkpt lat="47.36627" lon="-1.39014">
        <ele>118</ele>
        <time>2022-04-16T12:06:57Z</time>
      </trkpt>
      <trkpt lat="47.36621" lon="-1.39001">
        <ele>118</ele>
        <time>2022-04-16T12:06:59Z</time>
      </trkpt>
      <trkpt lat="47.36614" lon="-1.38987">
        <ele>118</ele>
        <time>2022-04-16T12:07:01Z</time>
      </trkpt>
      <trkpt lat="47.36608" lon="-1.38975">
        <ele>119</ele>
        <time>2022-04-16T12:07:03Z</time>
      </trkpt>
      <trkpt lat="47.36602" lon="-1.38962">
        <ele>119</ele>
        <time>2022-04-16T12:07:05Z</time>
      </trkpt>
      <trkpt lat="47.36596" lon="-1.38949">
        <ele>120</ele>
        <time>2022-04-16T12:07:07Z</time>
      </trkpt>
      <trkpt lat="47.3659" lon="-1.38937">
        <ele>121</ele>
        <time>2022-04-16T12:07:09Z</time>
      </trkpt>
      <trkpt lat="47.36584" lon="-1.38924">
        <ele>121</ele>
        <time>2022-04-16T12:07:11Z</time>
      </trkpt>
      <trkpt lat="47.36577" lon="-1.38911">
        <ele>121</ele>
        <time>2022-04-16T12:07:13Z</time>
      </trkpt>
      <trkpt lat="47.36571" lon="-1.38897">
        <ele>121</ele>
        <time>2022-04-16T12:07:15Z</time>
      </trkpt>
      <trkpt lat="47.36565" lon="-1.38884">
        <ele>121</ele>
        <time>2022-04-16T12:07:17Z</time>
      </trkpt>
      <trkpt lat="47.36559" lon="-1.38871">
        <ele>121</ele>
        <time>2022-04-16T12:07:19Z</time>
      </trkpt>
      <trkpt lat="47.36553" lon="-1.38857">
        <ele>122</ele>
        <time>2022-04-16T12:07:21Z</time>
      </trkpt>
      <trkpt lat="47.36546" lon="-1.38844">
        <ele>122</ele>
        <time>2022-04-16T12:07:23Z</time>
      </trkpt>
      <trkpt lat="47.3654" lon="-1.38831">
        <ele>122</ele>
        <time>2022-04-16T12:07:25Z</time>
      </trkpt>
      <trkpt lat="47.36533" lon="-1.38818">
        <ele>122</ele>
        <time>2022-04-16T12:07:27Z</time>
      </trkpt>
      <trkpt lat="47.36527" lon="-1.38804">
        <ele>123</ele>
        <time>2022-04-16T12:07:29Z</time>
      </trkpt>
      <trkpt lat="47.3652" lon="-1.38791">
        <ele>123</ele>
        <time>2022-04-16T12:07:31Z</time>
      </trkpt>
      <trkpt lat="47.36514" lon="-1.38778">
        <ele>123</ele>
        <time>2022-04-16T12:07:33Z</time>
      </trkpt>
      <trkpt lat="47.36508" lon="-1.38764">
        <ele>123</ele>
        <time>2022-04-16T12:07:35Z</time>
      </trkpt>
      <trkpt lat="47.36501" lon="-1.38751">
        <ele>123</ele>
        <time>2022-04-16T12:07:37Z</time>
      </trkpt>
      <trkpt lat="47.36495" lon="-1.38737">
        <ele>123</ele>
        <time>2022-04-16T12:07:39Z</time>
      </trkpt>
      <trkpt lat="47.36489" lon="-1.38724">
        <ele>124</ele>
        <time>2022-04-16T12:07:41Z</time>
      </trkpt>
      <trkpt lat="47.36482" lon="-1.3871">
        <ele>124</ele>
        <time>2022-04-16T12:07:43Z</time>
      </trkpt>
      <trkpt lat="47.36475" lon="-1.38697">
        <ele>124</ele>
        <time>2022-04-16T12:07:45Z</time>
      </trkpt>
      <trkpt lat="47.36469" lon="-1.38682">
        <ele>124</ele>
        <time>2022-04-16T12:07:47Z</time>
      </trkpt>
      <trkpt lat="47.36462" lon="-1.38669">
        <ele>124</ele>
        <time>2022-04-16T12:07:49Z</time>
      </trkpt>
      <trkpt lat="47.36455" lon="-1.38655">
        <ele>124</ele>
        <time>2022-04-16T12:07:51Z</time>
      </trkpt>
      <trkpt lat="47.36448" lon="-1.3864">
        <ele>124</ele>
        <time>2022-04-16T12:07:53Z</time>
      </trkpt>
      <trkpt lat="47.36441" lon="-1.38626">
        <ele>124</ele>
        <time>2022-04-16T12:07:55Z</time>
      </trkpt>
      <trkpt lat="47.36434" lon="-1.38611">
        <ele>123</ele>
        <time>2022-04-16T12:07:57Z</time>
      </trkpt>
      <trkpt lat="47.36428" lon="-1.38597">
        <ele>123</ele>
        <time>2022-04-16T12:07:59Z</time>
      </trkpt>
      <trkpt lat="47.36421" lon="-1.38583">
        <ele>122</ele>
        <time>2022-04-16T12:08:01Z</time>
      </trkpt>
      <trkpt lat="47.36414" lon="-1.3857">
        <ele>122</ele>
        <time>2022-04-16T12:08:03Z</time>
      </trkpt>
      <trkpt lat="47.36407" lon="-1.38557">
        <ele>122</ele>
        <time>2022-04-16T12:08:05Z</time>
      </trkpt>
      <trkpt lat="47.36399" lon="-1.38544">
        <ele>122</ele>
        <time>2022-04-16T12:08:07Z</time>
      </trkpt>
      <trkpt lat="47.36391" lon="-1.38532">
        <ele>122</ele>
        <time>2022-04-16T12:08:09Z</time>
      </trkpt>
      <trkpt lat="47.36382" lon="-1.38519">
        <ele>122</ele>
        <time>2022-04-16T12:08:11Z</time>
      </trkpt>
      <trkpt lat="47.36374" lon="-1.38507">
        <ele>122</ele>
        <time>2022-04-16T12:08:13Z</time>
      </trkpt>
      <trkpt lat="47.36366" lon="-1.38494">
        <ele>121</ele>
        <time>2022-04-16T12:08:15Z</time>
      </trkpt>
      <trkpt lat="47.36357" lon="-1.38481">
        <ele>121</ele>
        <time>2022-04-16T12:08:17Z</time>
      </trkpt>
      <trkpt lat="47.36349" lon="-1.38469">
        <ele>121</ele>
        <time>2022-04-16T12:08:19Z</time>
      </trkpt>
      <trkpt lat="47.36341" lon="-1.38457">
        <ele>121</ele>
        <time>2022-04-16T12:08:21Z</time>
      </trkpt>
      <trkpt lat="47.36332" lon="-1.38444">
        <ele>121</ele>
        <time>2022-04-16T12:08:23Z</time>
      </trkpt>
      <trkpt lat="47.36324" lon="-1.38432">
        <ele>121</ele>
        <time>2022-04-16T12:08:25Z</time>
      </trkpt>
      <trkpt lat="47.36315" lon="-1.38419">
        <ele>121</ele>
        <time>2022-04-16T12:08:27Z</time>
      </trkpt>
      <trkpt lat="47.36307" lon="-1.38406">
        <ele>121</ele>
        <time>2022-04-16T12:08:29Z</time>
      </trkpt>
      <trkpt lat="47.36299" lon="-1.38394">
        <ele>120</ele>
        <time>2022-04-16T12:08:31Z</time>
      </trkpt>
      <trkpt lat="47.3629" lon="-1.38381">
        <ele>120</ele>
        <time>2022-04-16T12:08:33Z</time>
      </trkpt>
      <trkpt lat="47.36282" lon="-1.38368">
        <ele>120</ele>
        <time>2022-04-16T12:08:35Z</time>
      </trkpt>
      <trkpt lat="47.36273" lon="-1.38355">
        <ele>120</ele>
        <time>2022-04-16T12:08:37Z</time>
      </trkpt>
      <trkpt lat="47.36265" lon="-1.38342">
        <ele>120</ele>
        <time>2022-04-16T12:08:39Z</time>
      </trkpt>
      <trkpt lat="47.36256" lon="-1.38329">
        <ele>120</ele>
        <time>2022-04-16T12:08:41Z</time>
      </trkpt>
      <trkpt lat="47.36248" lon="-1.38317">
        <ele>119</ele>
        <time>2022-04-16T12:08:43Z</time>
      </trkpt>
      <trkpt lat="47.36239" lon="-1.38304">
        <ele>119</ele>
        <time>2022-04-16T12:08:45Z</time>
      </trkpt>
      <trkpt lat="47.36231" lon="-1.38291">
        <ele>119</ele>
        <time>2022-04-16T12:08:47Z</time>
      </trkpt>
      <trkpt lat="47.36222" lon="-1.38278">
        <ele>119</ele>
        <time>2022-04-16T12:08:49Z</time>
      </trkpt>
      <trkpt lat="47.36214" lon="-1.38266">
        <ele>119</ele>
        <time>2022-04-16T12:08:51Z</time>
      </trkpt>
      <trkpt lat="47.36206" lon="-1.38253">
        <ele>119</ele>
        <time>2022-04-16T12:08:53Z</time>
      </trkpt>
      <trkpt lat="47.36197" lon="-1.38241">
        <ele>119</ele>
        <time>2022-04-16T12:08:55Z</time>
      </trkpt>
      <trkpt lat="47.36189" lon="-1.38228">
        <ele>119</ele>
        <time>2022-04-16T12:08:57Z</time>
      </trkpt>
      <trkpt lat="47.3618" lon="-1.38216">
        <ele>119</ele>
        <time>2022-04-16T12:08:59Z</time>
      </trkpt>
      <trkpt lat="47.36173" lon="-1.38204">
        <ele>119</ele>
        <time>2022-04-16T12:09:01Z</time>
      </trkpt>
      <trkpt lat="47.36164" lon="-1.38192">
        <ele>120</ele>
        <time>2022-04-16T12:09:03Z</time>
      </trkpt>
      <trkpt lat="47.36156" lon="-1.3818">
        <ele>120</ele>
        <time>2022-04-16T12:09:05Z</time>
      </trkpt>
      <trkpt lat="47.36148" lon="-1.38167">
        <ele>120</ele>
        <time>2022-04-16T12:09:07Z</time>
      </trkpt>
      <trkpt lat="47.3614" lon="-1.38155">
        <ele>120</ele>
        <time>2022-04-16T12:09:09Z</time>
      </trkpt>
      <trkpt lat="47.36132" lon="-1.38143">
        <ele>120</ele>
        <time>2022-04-16T12:09:11Z</time>
      </trkpt>
      <trkpt lat="47.36124" lon="-1.38131">
        <ele>120</ele>
        <time>2022-04-16T12:09:13Z</time>
      </trkpt>
      <trkpt lat="47.36116" lon="-1.38119">
        <ele>120</ele>
        <time>2022-04-16T12:09:15Z</time>
      </trkpt>
      <trkpt lat="47.36108" lon="-1.38107">
        <ele>121</ele>
        <time>2022-04-16T12:09:17Z</time>
      </trkpt>
      <trkpt lat="47.36101" lon="-1.38096">
        <ele>121</ele>
        <time>2022-04-16T12:09:19Z</time>
      </trkpt>
      <trkpt lat="47.36094" lon="-1.38085">
        <ele>121</ele>
        <time>2022-04-16T12:09:21Z</time>
      </trkpt>
      <trkpt lat="47.36087" lon="-1.38074">
        <ele>121</ele>
        <time>2022-04-16T12:09:23Z</time>
      </trkpt>
      <trkpt lat="47.3608" lon="-1.38064">
        <ele>121</ele>
        <time>2022-04-16T12:09:25Z</time>
      </trkpt>
      <trkpt lat="47.36073" lon="-1.38053">
        <ele>121</ele>
        <time>2022-04-16T12:09:27Z</time>
      </trkpt>
      <trkpt lat="47.36066" lon="-1.38043">
        <ele>121</ele>
        <time>2022-04-16T12:09:29Z</time>
      </trkpt>
      <trkpt lat="47.36059" lon="-1.38033">
        <ele>122</ele>
        <time>2022-04-16T12:09:31Z</time>
      </trkpt>
      <trkpt lat="47.36052" lon="-1.38022">
        <ele>122</ele>
        <time>2022-04-16T12:09:33Z</time>
      </trkpt>
      <trkpt lat="47.36045" lon="-1.38011">
        <ele>122</ele>
        <time>2022-04-16T12:09:35Z</time>
      </trkpt>
      <trkpt lat="47.36037" lon="-1.38001">
        <ele>122</ele>
        <time>2022-04-16T12:09:37Z</time>
      </trkpt>
      <trkpt lat="47.3603" lon="-1.3799">
        <ele>122</ele>
        <time>2022-04-16T12:09:39Z</time>
      </trkpt>
      <trkpt lat="47.36023" lon="-1.3798">
        <ele>122</ele>
        <time>2022-04-16T12:09:41Z</time>
      </trkpt>
      <trkpt lat="47.36015" lon="-1.37968">
        <ele>123</ele>
        <time>2022-04-16T12:09:43Z</time>
      </trkpt>
      <trkpt lat="47.36008" lon="-1.37957">
        <ele>123</ele>
        <time>2022-04-16T12:09:45Z</time>
      </trkpt>
      <trkpt lat="47.36" lon="-1.37946">
        <ele>123</ele>
        <time>2022-04-16T12:09:47Z</time>
      </trkpt>
      <trkpt lat="47.35993" lon="-1.37934">
        <ele>124</ele>
        <time>2022-04-16T12:09:49Z</time>
      </trkpt>
      <trkpt lat="47.35986" lon="-1.37923">
        <ele>124</ele>
        <time>2022-04-16T12:09:51Z</time>
      </trkpt>
      <trkpt lat="47.35978" lon="-1.37913">
        <ele>124</ele>
        <time>2022-04-16T12:09:53Z</time>
      </trkpt>
      <trkpt lat="47.35971" lon="-1.37901">
        <ele>124</ele>
        <time>2022-04-16T12:09:55Z</time>
      </trkpt>
      <trkpt lat="47.35964" lon="-1.3789">
        <ele>124</ele>
        <time>2022-04-16T12:09:57Z</time>
      </trkpt>
      <trkpt lat="47.35957" lon="-1.3788">
        <ele>125</ele>
        <time>2022-04-16T12:09:59Z</time>
      </trkpt>
      <trkpt lat="47.35949" lon="-1.3787">
        <ele>125</ele>
        <time>2022-04-16T12:10:01Z</time>
      </trkpt>
      <trkpt lat="47.35942" lon="-1.37859">
        <ele>125</ele>
        <time>2022-04-16T12:10:03Z</time>
      </trkpt>
      <trkpt lat="47.35935" lon="-1.37847">
        <ele>126</ele>
        <time>2022-04-16T12:10:05Z</time>
      </trkpt>
      <trkpt lat="47.35928" lon="-1.37836">
        <ele>126</ele>
        <time>2022-04-16T12:10:07Z</time>
      </trkpt>
      <trkpt lat="47.35921" lon="-1.37825">
        <ele>126</ele>
        <time>2022-04-16T12:10:09Z</time>
      </trkpt>
      <trkpt lat="47.35914" lon="-1.37815">
        <ele>126</ele>
        <time>2022-04-16T12:10:11Z</time>
      </trkpt>
      <trkpt lat="47.35907" lon="-1.37804">
        <ele>127</ele>
        <time>2022-04-16T12:10:13Z</time>
      </trkpt>
      <trkpt lat="47.359" lon="-1.37794">
        <ele>127</ele>
        <time>2022-04-16T12:10:15Z</time>
      </trkpt>
      <trkpt lat="47.35892" lon="-1.37783">
        <ele>127</ele>
        <time>2022-04-16T12:10:17Z</time>
      </trkpt>
      <trkpt lat="47.35886" lon="-1.37772">
        <ele>127</ele>
        <time>2022-04-16T12:10:19Z</time>
      </trkpt>
      <trkpt lat="47.35879" lon="-1.37761">
        <ele>127</ele>
        <time>2022-04-16T12:10:21Z</time>
      </trkpt>
      <trkpt lat="47.35872" lon="-1.37751">
        <ele>128</ele>
        <time>2022-04-16T12:10:23Z</time>
      </trkpt>
      <trkpt lat="47.35864" lon="-1.37741">
        <ele>128</ele>
        <time>2022-04-16T12:10:25Z</time>
      </trkpt>
      <trkpt lat="47.35857" lon="-1.3773">
        <ele>128</ele>
        <time>2022-04-16T12:10:27Z</time>
      </trkpt>
      <trkpt lat="47.3585" lon="-1.37718">
        <ele>128</ele>
        <time>2022-04-16T12:10:29Z</time>
      </trkpt>
      <trkpt lat="47.35843" lon="-1.37708">
        <ele>128</ele>
        <time>2022-04-16T12:10:31Z</time>
      </trkpt>
      <trkpt lat="47.35836" lon="-1.37697">
        <ele>129</ele>
        <time>2022-04-16T12:10:33Z</time>
      </trkpt>
      <trkpt lat="47.35829" lon="-1.37687">
        <ele>129</ele>
        <time>2022-04-16T12:10:35Z</time>
      </trkpt>
      <trkpt lat="47.35821" lon="-1.37676">
        <ele>129</ele>
        <time>2022-04-16T12:10:37Z</time>
      </trkpt>
      <trkpt lat="47.35814" lon="-1.37665">
        <ele>130</ele>
        <time>2022-04-16T12:10:39Z</time>
      </trkpt>
      <trkpt lat="47.35807" lon="-1.37654">
        <ele>130</ele>
        <time>2022-04-16T12:10:41Z</time>
      </trkpt>
      <trkpt lat="47.35799" lon="-1.37644">
        <ele>131</ele>
        <time>2022-04-16T12:10:43Z</time>
      </trkpt>
      <trkpt lat="47.35792" lon="-1.37633">
        <ele>131</ele>
        <time>2022-04-16T12:10:45Z</time>
      </trkpt>
      <trkpt lat="47.35784" lon="-1.37621">
        <ele>131</ele>
        <time>2022-04-16T12:10:47Z</time>
      </trkpt>
      <trkpt lat="47.35777" lon="-1.3761">
        <ele>131</ele>
        <time>2022-04-16T12:10:49Z</time>
      </trkpt>
      <trkpt lat="47.3577" lon="-1.376">
        <ele>131</ele>
        <time>2022-04-16T12:10:51Z</time>
      </trkpt>
      <trkpt lat="47.35762" lon="-1.37589">
        <ele>131</ele>
        <time>2022-04-16T12:10:53Z</time>
      </trkpt>
      <trkpt lat="47.35755" lon="-1.37577">
        <ele>131</ele>
        <time>2022-04-16T12:10:55Z</time>
      </trkpt>
      <trkpt lat="47.35748" lon="-1.37566">
        <ele>131</ele>
        <time>2022-04-16T12:10:57Z</time>
      </trkpt>
      <trkpt lat="47.35741" lon="-1.37555">
        <ele>131</ele>
        <time>2022-04-16T12:10:59Z</time>
      </trkpt>
      <trkpt lat="47.35733" lon="-1.37544">
        <ele>132</ele>
        <time>2022-04-16T12:11:01Z</time>
      </trkpt>
      <trkpt lat="47.35726" lon="-1.37533">
        <ele>132</ele>
        <time>2022-04-16T12:11:03Z</time>
      </trkpt>
      <trkpt lat="47.35718" lon="-1.37522">
        <ele>132</ele>
        <time>2022-04-16T12:11:05Z</time>
      </trkpt>
      <trkpt lat="47.3571" lon="-1.37511">
        <ele>132</ele>
        <time>2022-04-16T12:11:07Z</time>
      </trkpt>
      <trkpt lat="47.35703" lon="-1.37499">
        <ele>132</ele>
        <time>2022-04-16T12:11:09Z</time>
      </trkpt>
      <trkpt lat="47.35695" lon="-1.37487">
        <ele>132</ele>
        <time>2022-04-16T12:11:11Z</time>
      </trkpt>
      <trkpt lat="47.35687" lon="-1.37475">
        <ele>132</ele>
        <time>2022-04-16T12:11:13Z</time>
      </trkpt>
      <trkpt lat="47.35679" lon="-1.37463">
        <ele>132</ele>
        <time>2022-04-16T12:11:15Z</time>
      </trkpt>
      <trkpt lat="47.35671" lon="-1.37451">
        <ele>132</ele>
        <time>2022-04-16T12:11:17Z</time>
      </trkpt>
      <trkpt lat="47.35663" lon="-1.37438">
        <ele>132</ele>
        <time>2022-04-16T12:11:19Z</time>
      </trkpt>
      <trkpt lat="47.35655" lon="-1.37425">
        <ele>132</ele>
        <time>2022-04-16T12:11:21Z</time>
      </trkpt>
      <trkpt lat="47.35646" lon="-1.37412">
        <ele>132</ele>
        <time>2022-04-16T12:11:23Z</time>
      </trkpt>
      <trkpt lat="47.35638" lon="-1.37399">
        <ele>132</ele>
        <time>2022-04-16T12:11:25Z</time>
      </trkpt>
      <trkpt lat="47.35629" lon="-1.37386">
        <ele>131</ele>
        <time>2022-04-16T12:11:27Z</time>
      </trkpt>
      <trkpt lat="47.3562" lon="-1.37373">
        <ele>131</ele>
        <time>2022-04-16T12:11:29Z</time>
      </trkpt>
      <trkpt lat="47.35612" lon="-1.3736">
        <ele>130</ele>
        <time>2022-04-16T12:11:31Z</time>
      </trkpt>
      <trkpt lat="47.35603" lon="-1.37347">
        <ele>130</ele>
        <time>2022-04-16T12:11:33Z</time>
      </trkpt>
      <trkpt lat="47.35595" lon="-1.37334">
        <ele>130</ele>
        <time>2022-04-16T12:11:35Z</time>
      </trkpt>
      <trkpt lat="47.35586" lon="-1.37321">
        <ele>130</ele>
        <time>2022-04-16T12:11:37Z</time>
      </trkpt>
      <trkpt lat="47.35577" lon="-1.37308">
        <ele>130</ele>
        <time>2022-04-16T12:11:39Z</time>
      </trkpt>
      <trkpt lat="47.35568" lon="-1.37294">
        <ele>130</ele>
        <time>2022-04-16T12:11:41Z</time>
      </trkpt>
      <trkpt lat="47.35559" lon="-1.37281">
        <ele>131</ele>
        <time>2022-04-16T12:11:43Z</time>
      </trkpt>
      <trkpt lat="47.35549" lon="-1.37267">
        <ele>131</ele>
        <time>2022-04-16T12:11:45Z</time>
      </trkpt>
      <trkpt lat="47.3554" lon="-1.37252">
        <ele>131</ele>
        <time>2022-04-16T12:11:47Z</time>
      </trkpt>
      <trkpt lat="47.35531" lon="-1.37237">
        <ele>131</ele>
        <time>2022-04-16T12:11:49Z</time>
      </trkpt>
      <trkpt lat="47.35521" lon="-1.37223">
        <ele>132</ele>
        <time>2022-04-16T12:11:51Z</time>
      </trkpt>
      <trkpt lat="47.35513" lon="-1.37209">
        <ele>132</ele>
        <time>2022-04-16T12:11:53Z</time>
      </trkpt>
      <trkpt lat="47.35504" lon="-1.37195">
        <ele>133</ele>
        <time>2022-04-16T12:11:55Z</time>
      </trkpt>
      <trkpt lat="47.35496" lon="-1.37183">
        <ele>133</ele>
        <time>2022-04-16T12:11:57Z</time>
      </trkpt>
      <trkpt lat="47.35489" lon="-1.37172">
        <ele>134</ele>
        <time>2022-04-16T12:11:59Z</time>
      </trkpt>
      <trkpt lat="47.3548" lon="-1.3716">
        <ele>134</ele>
        <time>2022-04-16T12:12:01Z</time>
      </trkpt>
      <trkpt lat="47.35472" lon="-1.37147">
        <ele>134</ele>
        <time>2022-04-16T12:12:03Z</time>
      </trkpt>
      <trkpt lat="47.35463" lon="-1.37134">
        <ele>134</ele>
        <time>2022-04-16T12:12:05Z</time>
      </trkpt>
      <trkpt lat="47.35455" lon="-1.37122">
        <ele>134</ele>
        <time>2022-04-16T12:12:07Z</time>
      </trkpt>
      <trkpt lat="47.35447" lon="-1.37111">
        <ele>135</ele>
        <time>2022-04-16T12:12:09Z</time>
      </trkpt>
      <trkpt lat="47.35439" lon="-1.37099">
        <ele>135</ele>
        <time>2022-04-16T12:12:11Z</time>
      </trkpt>
      <trkpt lat="47.35431" lon="-1.37086">
        <ele>135</ele>
        <time>2022-04-16T12:12:13Z</time>
      </trkpt>
      <trkpt lat="47.35422" lon="-1.37073">
        <ele>135</ele>
        <time>2022-04-16T12:12:15Z</time>
      </trkpt>
      <trkpt lat="47.35414" lon="-1.37061">
        <ele>135</ele>
        <time>2022-04-16T12:12:17Z</time>
      </trkpt>
      <trkpt lat="47.35406" lon="-1.37047">
        <ele>135</ele>
        <time>2022-04-16T12:12:19Z</time>
      </trkpt>
      <trkpt lat="47.35398" lon="-1.37034">
        <ele>136</ele>
        <time>2022-04-16T12:12:21Z</time>
      </trkpt>
      <trkpt lat="47.35389" lon="-1.37022">
        <ele>135</ele>
        <time>2022-04-16T12:12:23Z</time>
      </trkpt>
      <trkpt lat="47.35381" lon="-1.37009">
        <ele>135</ele>
        <time>2022-04-16T12:12:25Z</time>
      </trkpt>
      <trkpt lat="47.35372" lon="-1.36996">
        <ele>135</ele>
        <time>2022-04-16T12:12:27Z</time>
      </trkpt>
      <trkpt lat="47.35364" lon="-1.36984">
        <ele>135</ele>
        <time>2022-04-16T12:12:29Z</time>
      </trkpt>
      <trkpt lat="47.35355" lon="-1.36972">
        <ele>134</ele>
        <time>2022-04-16T12:12:31Z</time>
      </trkpt>
      <trkpt lat="47.35347" lon="-1.36959">
        <ele>134</ele>
        <time>2022-04-16T12:12:33Z</time>
      </trkpt>
      <trkpt lat="47.35339" lon="-1.36947">
        <ele>134</ele>
        <time>2022-04-16T12:12:35Z</time>
      </trkpt>
      <trkpt lat="47.3533" lon="-1.36934">
        <ele>134</ele>
        <time>2022-04-16T12:12:37Z</time>
      </trkpt>
      <trkpt lat="47.35322" lon="-1.36922">
        <ele>134</ele>
        <time>2022-04-16T12:12:39Z</time>
      </trkpt>
      <trkpt lat="47.35314" lon="-1.3691">
        <ele>134</ele>
        <time>2022-04-16T12:12:41Z</time>
      </trkpt>
      <trkpt lat="47.35305" lon="-1.36897">
        <ele>135</ele>
        <time>2022-04-16T12:12:43Z</time>
      </trkpt>
      <trkpt lat="47.35297" lon="-1.36885">
        <ele>135</ele>
        <time>2022-04-16T12:12:45Z</time>
      </trkpt>
      <trkpt lat="47.35289" lon="-1.36873">
        <ele>135</ele>
        <time>2022-04-16T12:12:47Z</time>
      </trkpt>
      <trkpt lat="47.3528" lon="-1.3686">
        <ele>135</ele>
        <time>2022-04-16T12:12:49Z</time>
      </trkpt>
      <trkpt lat="47.35272" lon="-1.36847">
        <ele>135</ele>
        <time>2022-04-16T12:12:51Z</time>
      </trkpt>
      <trkpt lat="47.35264" lon="-1.36835">
        <ele>135</ele>
        <time>2022-04-16T12:12:53Z</time>
      </trkpt>
      <trkpt lat="47.35256" lon="-1.36822">
        <ele>135</ele>
        <time>2022-04-16T12:12:55Z</time>
      </trkpt>
      <trkpt lat="47.35247" lon="-1.3681">
        <ele>135</ele>
        <time>2022-04-16T12:12:57Z</time>
      </trkpt>
      <trkpt lat="47.35239" lon="-1.36797">
        <ele>135</ele>
        <time>2022-04-16T12:12:59Z</time>
      </trkpt>
      <trkpt lat="47.3523" lon="-1.36784">
        <ele>135</ele>
        <time>2022-04-16T12:13:01Z</time>
      </trkpt>
      <trkpt lat="47.35222" lon="-1.36772">
        <ele>135</ele>
        <time>2022-04-16T12:13:03Z</time>
      </trkpt>
      <trkpt lat="47.35213" lon="-1.36759">
        <ele>135</ele>
        <time>2022-04-16T12:13:05Z</time>
      </trkpt>
      <trkpt lat="47.35205" lon="-1.36747">
        <ele>135</ele>
        <time>2022-04-16T12:13:07Z</time>
      </trkpt>
      <trkpt lat="47.35197" lon="-1.36734">
        <ele>135</ele>
        <time>2022-04-16T12:13:09Z</time>
      </trkpt>
      <trkpt lat="47.35189" lon="-1.36721">
        <ele>135</ele>
        <time>2022-04-16T12:13:11Z</time>
      </trkpt>
      <trkpt lat="47.3518" lon="-1.36709">
        <ele>134</ele>
        <time>2022-04-16T12:13:13Z</time>
      </trkpt>
      <trkpt lat="47.35172" lon="-1.36697">
        <ele>135</ele>
        <time>2022-04-16T12:13:15Z</time>
      </trkpt>
      <trkpt lat="47.35164" lon="-1.36684">
        <ele>135</ele>
        <time>2022-04-16T12:13:17Z</time>
      </trkpt>
      <trkpt lat="47.35156" lon="-1.36671">
        <ele>135</ele>
        <time>2022-04-16T12:13:19Z</time>
      </trkpt>
      <trkpt lat="47.35147" lon="-1.36658">
        <ele>135</ele>
        <time>2022-04-16T12:13:21Z</time>
      </trkpt>
      <trkpt lat="47.35139" lon="-1.36646">
        <ele>135</ele>
        <time>2022-04-16T12:13:23Z</time>
      </trkpt>
      <trkpt lat="47.35131" lon="-1.36633">
        <ele>136</ele>
        <time>2022-04-16T12:13:25Z</time>
      </trkpt>
      <trkpt lat="47.35122" lon="-1.36621">
        <ele>136</ele>
        <time>2022-04-16T12:13:27Z</time>
      </trkpt>
      <trkpt lat="47.35114" lon="-1.36608">
        <ele>136</ele>
        <time>2022-04-16T12:13:29Z</time>
      </trkpt>
      <trkpt lat="47.35106" lon="-1.36595">
        <ele>137</ele>
        <time>2022-04-16T12:13:31Z</time>
      </trkpt>
      <trkpt lat="47.35098" lon="-1.36583">
        <ele>137</ele>
        <time>2022-04-16T12:13:33Z</time>
      </trkpt>
      <trkpt lat="47.3509" lon="-1.3657">
        <ele>137</ele>
        <time>2022-04-16T12:13:35Z</time>
      </trkpt>
      <trkpt lat="47.35082" lon="-1.36557">
        <ele>138</ele>
        <time>2022-04-16T12:13:37Z</time>
      </trkpt>
      <trkpt lat="47.35074" lon="-1.36544">
        <ele>138</ele>
        <time>2022-04-16T12:13:39Z</time>
      </trkpt>
      <trkpt lat="47.35065" lon="-1.36532">
        <ele>138</ele>
        <time>2022-04-16T12:13:41Z</time>
      </trkpt>
      <trkpt lat="47.35057" lon="-1.36518">
        <ele>138</ele>
        <time>2022-04-16T12:13:43Z</time>
      </trkpt>
      <trkpt lat="47.35049" lon="-1.36504">
        <ele>138</ele>
        <time>2022-04-16T12:13:45Z</time>
      </trkpt>
      <trkpt lat="47.3504" lon="-1.36491">
        <ele>137</ele>
        <time>2022-04-16T12:13:47Z</time>
      </trkpt>
      <trkpt lat="47.35032" lon="-1.36479">
        <ele>137</ele>
        <time>2022-04-16T12:13:49Z</time>
      </trkpt>
      <trkpt lat="47.35023" lon="-1.36467">
        <ele>136</ele>
        <time>2022-04-16T12:13:51Z</time>
      </trkpt>
      <trkpt lat="47.35013" lon="-1.36453">
        <ele>136</ele>
        <time>2022-04-16T12:13:53Z</time>
      </trkpt>
      <trkpt lat="47.35002" lon="-1.36441">
        <ele>136</ele>
        <time>2022-04-16T12:13:55Z</time>
      </trkpt>
      <trkpt lat="47.34993" lon="-1.36429">
        <ele>136</ele>
        <time>2022-04-16T12:13:57Z</time>
      </trkpt>
      <trkpt lat="47.34983" lon="-1.36417">
        <ele>135</ele>
        <time>2022-04-16T12:13:59Z</time>
      </trkpt>
      <trkpt lat="47.34973" lon="-1.36405">
        <ele>135</ele>
        <time>2022-04-16T12:14:01Z</time>
      </trkpt>
      <trkpt lat="47.34964" lon="-1.36394">
        <ele>135</ele>
        <time>2022-04-16T12:14:03Z</time>
      </trkpt>
      <trkpt lat="47.34954" lon="-1.36381">
        <ele>135</ele>
        <time>2022-04-16T12:14:05Z</time>
      </trkpt>
      <trkpt lat="47.34944" lon="-1.36369">
        <ele>135</ele>
        <time>2022-04-16T12:14:07Z</time>
      </trkpt>
      <trkpt lat="47.34934" lon="-1.36357">
        <ele>135</ele>
        <time>2022-04-16T12:14:09Z</time>
      </trkpt>
      <trkpt lat="47.34925" lon="-1.36345">
        <ele>135</ele>
        <time>2022-04-16T12:14:11Z</time>
      </trkpt>
      <trkpt lat="47.34916" lon="-1.36333">
        <ele>135</ele>
        <time>2022-04-16T12:14:13Z</time>
      </trkpt>
      <trkpt lat="47.34907" lon="-1.36321">
        <ele>135</ele>
        <time>2022-04-16T12:14:15Z</time>
      </trkpt>
      <trkpt lat="47.34898" lon="-1.36307">
        <ele>135</ele>
        <time>2022-04-16T12:14:17Z</time>
      </trkpt>
      <trkpt lat="47.3489" lon="-1.36294">
        <ele>135</ele>
        <time>2022-04-16T12:14:19Z</time>
      </trkpt>
      <trkpt lat="47.34882" lon="-1.3628">
        <ele>135</ele>
        <time>2022-04-16T12:14:21Z</time>
      </trkpt>
      <trkpt lat="47.34873" lon="-1.36267">
        <ele>135</ele>
        <time>2022-04-16T12:14:23Z</time>
      </trkpt>
      <trkpt lat="47.34865" lon="-1.36254">
        <ele>135</ele>
        <time>2022-04-16T12:14:25Z</time>
      </trkpt>
      <trkpt lat="47.34858" lon="-1.36242">
        <ele>135</ele>
        <time>2022-04-16T12:14:27Z</time>
      </trkpt>
      <trkpt lat="47.3485" lon="-1.3623">
        <ele>135</ele>
        <time>2022-04-16T12:14:29Z</time>
      </trkpt>
      <trkpt lat="47.34842" lon="-1.36217">
        <ele>136</ele>
        <time>2022-04-16T12:14:31Z</time>
      </trkpt>
      <trkpt lat="47.34834" lon="-1.36205">
        <ele>136</ele>
        <time>2022-04-16T12:14:33Z</time>
      </trkpt>
      <trkpt lat="47.34826" lon="-1.36192">
        <ele>136</ele>
        <time>2022-04-16T12:14:35Z</time>
      </trkpt>
      <trkpt lat="47.34817" lon="-1.36179">
        <ele>136</ele>
        <time>2022-04-16T12:14:37Z</time>
      </trkpt>
      <trkpt lat="47.34809" lon="-1.36167">
        <ele>136</ele>
        <time>2022-04-16T12:14:39Z</time>
      </trkpt>
      <trkpt lat="47.348" lon="-1.36154">
        <ele>136</ele>
        <time>2022-04-16T12:14:41Z</time>
      </trkpt>
      <trkpt lat="47.34792" lon="-1.36142">
        <ele>136</ele>
        <time>2022-04-16T12:14:43Z</time>
      </trkpt>
      <trkpt lat="47.34782" lon="-1.36131">
        <ele>136</ele>
        <time>2022-04-16T12:14:45Z</time>
      </trkpt>
      <trkpt lat="47.34773" lon="-1.3612">
        <ele>136</ele>
        <time>2022-04-16T12:14:47Z</time>
      </trkpt>
      <trkpt lat="47.34764" lon="-1.36109">
        <ele>136</ele>
        <time>2022-04-16T12:14:49Z</time>
      </trkpt>
      <trkpt lat="47.34755" lon="-1.36098">
        <ele>136</ele>
        <time>2022-04-16T12:14:51Z</time>
      </trkpt>
      <trkpt lat="47.34745" lon="-1.36087">
        <ele>136</ele>
        <time>2022-04-16T12:14:53Z</time>
      </trkpt>
      <trkpt lat="47.34736" lon="-1.36076">
        <ele>136</ele>
        <time>2022-04-16T12:14:55Z</time>
      </trkpt>
      <trkpt lat="47.34727" lon="-1.36065">
        <ele>136</ele>
        <time>2022-04-16T12:14:57Z</time>
      </trkpt>
      <trkpt lat="47.34718" lon="-1.36054">
        <ele>135</ele>
        <time>2022-04-16T12:14:59Z</time>
      </trkpt>
      <trkpt lat="47.34708" lon="-1.36042">
        <ele>135</ele>
        <time>2022-04-16T12:15:01Z</time>
      </trkpt>
      <trkpt lat="47.34698" lon="-1.36031">
        <ele>135</ele>
        <time>2022-04-16T12:15:03Z</time>
      </trkpt>
      <trkpt lat="47.34688" lon="-1.3602">
        <ele>134</ele>
        <time>2022-04-16T12:15:05Z</time>
      </trkpt>
      <trkpt lat="47.34678" lon="-1.36009">
        <ele>133</ele>
        <time>2022-04-16T12:15:07Z</time>
      </trkpt>
      <trkpt lat="47.34668" lon="-1.35997">
        <ele>133</ele>
        <time>2022-04-16T12:15:09Z</time>
      </trkpt>
      <trkpt lat="47.34657" lon="-1.35986">
        <ele>132</ele>
        <time>2022-04-16T12:15:11Z</time>
      </trkpt>
      <trkpt lat="47.34646" lon="-1.35974">
        <ele>132</ele>
        <time>2022-04-16T12:15:13Z</time>
      </trkpt>
      <trkpt lat="47.34635" lon="-1.35962">
        <ele>131</ele>
        <time>2022-04-16T12:15:15Z</time>
      </trkpt>
      <trkpt lat="47.34624" lon="-1.3595">
        <ele>131</ele>
        <time>2022-04-16T12:15:17Z</time>
      </trkpt>
      <trkpt lat="47.34613" lon="-1.35938">
        <ele>131</ele>
        <time>2022-04-16T12:15:19Z</time>
      </trkpt>
      <trkpt lat="47.34603" lon="-1.35926">
        <ele>131</ele>
        <time>2022-04-16T12:15:21Z</time>
      </trkpt>
      <trkpt lat="47.34592" lon="-1.35914">
        <ele>131</ele>
        <time>2022-04-16T12:15:23Z</time>
      </trkpt>
      <trkpt lat="47.34582" lon="-1.35901">
        <ele>131</ele>
        <time>2022-04-16T12:15:25Z</time>
      </trkpt>
      <trkpt lat="47.34572" lon="-1.35889">
        <ele>131</ele>
        <time>2022-04-16T12:15:27Z</time>
      </trkpt>
      <trkpt lat="47.34563" lon="-1.35876">
        <ele>132</ele>
        <time>2022-04-16T12:15:29Z</time>
      </trkpt>
      <trkpt lat="47.34555" lon="-1.35863">
        <ele>132</ele>
        <time>2022-04-16T12:15:31Z</time>
      </trkpt>
      <trkpt lat="47.34546" lon="-1.3585">
        <ele>132</ele>
        <time>2022-04-16T12:15:33Z</time>
      </trkpt>
      <trkpt lat="47.34538" lon="-1.35837">
        <ele>132</ele>
        <time>2022-04-16T12:15:35Z</time>
      </trkpt>
      <trkpt lat="47.34531" lon="-1.35824">
        <ele>133</ele>
        <time>2022-04-16T12:15:37Z</time>
      </trkpt>
      <trkpt lat="47.34523" lon="-1.35812">
        <ele>133</ele>
        <time>2022-04-16T12:15:39Z</time>
      </trkpt>
      <trkpt lat="47.34516" lon="-1.35799">
        <ele>133</ele>
        <time>2022-04-16T12:15:41Z</time>
      </trkpt>
      <trkpt lat="47.34508" lon="-1.35785">
        <ele>133</ele>
        <time>2022-04-16T12:15:43Z</time>
      </trkpt>
      <trkpt lat="47.345" lon="-1.3577">
        <ele>134</ele>
        <time>2022-04-16T12:15:45Z</time>
      </trkpt>
      <trkpt lat="47.34491" lon="-1.35755">
        <ele>134</ele>
        <time>2022-04-16T12:15:47Z</time>
      </trkpt>
      <trkpt lat="47.34484" lon="-1.35742">
        <ele>134</ele>
        <time>2022-04-16T12:15:49Z</time>
      </trkpt>
      <trkpt lat="47.34477" lon="-1.35728">
        <ele>135</ele>
        <time>2022-04-16T12:15:51Z</time>
      </trkpt>
      <trkpt lat="47.34471" lon="-1.35715">
        <ele>135</ele>
        <time>2022-04-16T12:15:53Z</time>
      </trkpt>
      <trkpt lat="47.34464" lon="-1.35701">
        <ele>136</ele>
        <time>2022-04-16T12:15:55Z</time>
      </trkpt>
      <trkpt lat="47.34458" lon="-1.35687">
        <ele>137</ele>
        <time>2022-04-16T12:15:57Z</time>
      </trkpt>
      <trkpt lat="47.34449" lon="-1.35675">
        <ele>137</ele>
        <time>2022-04-16T12:15:59Z</time>
      </trkpt>
      <trkpt lat="47.3444" lon="-1.35663">
        <ele>137</ele>
        <time>2022-04-16T12:16:01Z</time>
      </trkpt>
      <trkpt lat="47.34433" lon="-1.35652">
        <ele>138</ele>
        <time>2022-04-16T12:16:03Z</time>
      </trkpt>
      <trkpt lat="47.34425" lon="-1.35639">
        <ele>139</ele>
        <time>2022-04-16T12:16:05Z</time>
      </trkpt>
      <trkpt lat="47.34416" lon="-1.35626">
        <ele>139</ele>
        <time>2022-04-16T12:16:07Z</time>
      </trkpt>
      <trkpt lat="47.34408" lon="-1.35611">
        <ele>139</ele>
        <time>2022-04-16T12:16:09Z</time>
      </trkpt>
      <trkpt lat="47.344" lon="-1.35598">
        <ele>139</ele>
        <time>2022-04-16T12:16:11Z</time>
      </trkpt>
      <trkpt lat="47.34392" lon="-1.35584">
        <ele>139</ele>
        <time>2022-04-16T12:16:13Z</time>
      </trkpt>
      <trkpt lat="47.34383" lon="-1.3557">
        <ele>138</ele>
        <time>2022-04-16T12:16:15Z</time>
      </trkpt>
      <trkpt lat="47.34375" lon="-1.35555">
        <ele>138</ele>
        <time>2022-04-16T12:16:17Z</time>
      </trkpt>
      <trkpt lat="47.34367" lon="-1.35541">
        <ele>138</ele>
        <time>2022-04-16T12:16:19Z</time>
      </trkpt>
      <trkpt lat="47.34359" lon="-1.35527">
        <ele>137</ele>
        <time>2022-04-16T12:16:21Z</time>
      </trkpt>
      <trkpt lat="47.34351" lon="-1.35514">
        <ele>137</ele>
        <time>2022-04-16T12:16:23Z</time>
      </trkpt>
      <trkpt lat="47.34343" lon="-1.355">
        <ele>137</ele>
        <time>2022-04-16T12:16:25Z</time>
      </trkpt>
      <trkpt lat="47.34334" lon="-1.35486">
        <ele>137</ele>
        <time>2022-04-16T12:16:27Z</time>
      </trkpt>
      <trkpt lat="47.34327" lon="-1.35472">
        <ele>136</ele>
        <time>2022-04-16T12:16:29Z</time>
      </trkpt>
      <trkpt lat="47.34319" lon="-1.35457">
        <ele>136</ele>
        <time>2022-04-16T12:16:31Z</time>
      </trkpt>
      <trkpt lat="47.34311" lon="-1.35444">
        <ele>137</ele>
        <time>2022-04-16T12:16:33Z</time>
      </trkpt>
      <trkpt lat="47.34303" lon="-1.3543">
        <ele>136</ele>
        <time>2022-04-16T12:16:35Z</time>
      </trkpt>
      <trkpt lat="47.34295" lon="-1.35416">
        <ele>136</ele>
        <time>2022-04-16T12:16:37Z</time>
      </trkpt>
      <trkpt lat="47.34287" lon="-1.35403">
        <ele>136</ele>
        <time>2022-04-16T12:16:39Z</time>
      </trkpt>
      <trkpt lat="47.34279" lon="-1.3539">
        <ele>136</ele>
        <time>2022-04-16T12:16:41Z</time>
      </trkpt>
      <trkpt lat="47.34271" lon="-1.35376">
        <ele>136</ele>
        <time>2022-04-16T12:16:43Z</time>
      </trkpt>
      <trkpt lat="47.34263" lon="-1.35362">
        <ele>136</ele>
        <time>2022-04-16T12:16:45Z</time>
      </trkpt>
      <trkpt lat="47.34255" lon="-1.35349">
        <ele>136</ele>
        <time>2022-04-16T12:16:47Z</time>
      </trkpt>
      <trkpt lat="47.34248" lon="-1.35336">
        <ele>136</ele>
        <time>2022-04-16T12:16:49Z</time>
      </trkpt>
      <trkpt lat="47.3424" lon="-1.35324">
        <ele>136</ele>
        <time>2022-04-16T12:16:51Z</time>
      </trkpt>
      <trkpt lat="47.34232" lon="-1.35311">
        <ele>136</ele>
        <time>2022-04-16T12:16:53Z</time>
      </trkpt>
      <trkpt lat="47.34224" lon="-1.35298">
        <ele>136</ele>
        <time>2022-04-16T12:16:55Z</time>
      </trkpt>
      <trkpt lat="47.34217" lon="-1.35284">
        <ele>136</ele>
        <time>2022-04-16T12:16:57Z</time>
      </trkpt>
      <trkpt lat="47.34209" lon="-1.35271">
        <ele>136</ele>
        <time>2022-04-16T12:16:59Z</time>
      </trkpt>
      <trkpt lat="47.342" lon="-1.35258">
        <ele>136</ele>
        <time>2022-04-16T12:17:01Z</time>
      </trkpt>
      <trkpt lat="47.34193" lon="-1.35245">
        <ele>136</ele>
        <time>2022-04-16T12:17:03Z</time>
      </trkpt>
      <trkpt lat="47.34185" lon="-1.35232">
        <ele>136</ele>
        <time>2022-04-16T12:17:05Z</time>
      </trkpt>
      <trkpt lat="47.34177" lon="-1.35219">
        <ele>137</ele>
        <time>2022-04-16T12:17:07Z</time>
      </trkpt>
      <trkpt lat="47.34169" lon="-1.35205">
        <ele>136</ele>
        <time>2022-04-16T12:17:09Z</time>
      </trkpt>
      <trkpt lat="47.34161" lon="-1.35192">
        <ele>136</ele>
        <time>2022-04-16T12:17:11Z</time>
      </trkpt>
      <trkpt lat="47.34152" lon="-1.35178">
        <ele>136</ele>
        <time>2022-04-16T12:17:13Z</time>
      </trkpt>
      <trkpt lat="47.34144" lon="-1.35164">
        <ele>136</ele>
        <time>2022-04-16T12:17:15Z</time>
      </trkpt>
      <trkpt lat="47.34136" lon="-1.3515">
        <ele>136</ele>
        <time>2022-04-16T12:17:17Z</time>
      </trkpt>
      <trkpt lat="47.34128" lon="-1.35136">
        <ele>136</ele>
        <time>2022-04-16T12:17:19Z</time>
      </trkpt>
      <trkpt lat="47.34119" lon="-1.35123">
        <ele>135</ele>
        <time>2022-04-16T12:17:21Z</time>
      </trkpt>
      <trkpt lat="47.34111" lon="-1.35108">
        <ele>135</ele>
        <time>2022-04-16T12:17:23Z</time>
      </trkpt>
      <trkpt lat="47.34103" lon="-1.35094">
        <ele>135</ele>
        <time>2022-04-16T12:17:25Z</time>
      </trkpt>
      <trkpt lat="47.34094" lon="-1.3508">
        <ele>136</ele>
        <time>2022-04-16T12:17:27Z</time>
      </trkpt>
      <trkpt lat="47.34087" lon="-1.35066">
        <ele>136</ele>
        <time>2022-04-16T12:17:29Z</time>
      </trkpt>
      <trkpt lat="47.34078" lon="-1.35053">
        <ele>136</ele>
        <time>2022-04-16T12:17:31Z</time>
      </trkpt>
      <trkpt lat="47.3407" lon="-1.3504">
        <ele>136</ele>
        <time>2022-04-16T12:17:33Z</time>
      </trkpt>
      <trkpt lat="47.34062" lon="-1.35027">
        <ele>136</ele>
        <time>2022-04-16T12:17:35Z</time>
      </trkpt>
      <trkpt lat="47.34054" lon="-1.35013">
        <ele>136</ele>
        <time>2022-04-16T12:17:37Z</time>
      </trkpt>
      <trkpt lat="47.34047" lon="-1.35">
        <ele>136</ele>
        <time>2022-04-16T12:17:39Z</time>
      </trkpt>
      <trkpt lat="47.34038" lon="-1.34987">
        <ele>136</ele>
        <time>2022-04-16T12:17:41Z</time>
      </trkpt>
      <trkpt lat="47.3403" lon="-1.34977">
        <ele>136</ele>
        <time>2022-04-16T12:17:43Z</time>
      </trkpt>
      <trkpt lat="47.3402" lon="-1.34968">
        <ele>136</ele>
        <time>2022-04-16T12:17:45Z</time>
      </trkpt>
      <trkpt lat="47.3401" lon="-1.34963">
        <ele>137</ele>
        <time>2022-04-16T12:17:47Z</time>
      </trkpt>
      <trkpt lat="47.33999" lon="-1.34957">
        <ele>137</ele>
        <time>2022-04-16T12:17:49Z</time>
      </trkpt>
      <trkpt lat="47.3399" lon="-1.34945">
        <ele>136</ele>
        <time>2022-04-16T12:17:51Z</time>
      </trkpt>
      <trkpt lat="47.33984" lon="-1.34929">
        <ele>135</ele>
        <time>2022-04-16T12:17:53Z</time>
      </trkpt>
      <trkpt lat="47.33975" lon="-1.34916">
        <ele>134</ele>
        <time>2022-04-16T12:17:55Z</time>
      </trkpt>
      <trkpt lat="47.33965" lon="-1.34905">
        <ele>134</ele>
        <time>2022-04-16T12:17:57Z</time>
      </trkpt>
      <trkpt lat="47.33954" lon="-1.34895">
        <ele>134</ele>
        <time>2022-04-16T12:17:59Z</time>
      </trkpt>
      <trkpt lat="47.33944" lon="-1.34884">
        <ele>134</ele>
        <time>2022-04-16T12:18:01Z</time>
      </trkpt>
      <trkpt lat="47.33934" lon="-1.34874">
        <ele>134</ele>
        <time>2022-04-16T12:18:03Z</time>
      </trkpt>
      <trkpt lat="47.33923" lon="-1.34864">
        <ele>134</ele>
        <time>2022-04-16T12:18:05Z</time>
      </trkpt>
      <trkpt lat="47.33913" lon="-1.34854">
        <ele>134</ele>
        <time>2022-04-16T12:18:07Z</time>
      </trkpt>
      <trkpt lat="47.33903" lon="-1.34843">
        <ele>134</ele>
        <time>2022-04-16T12:18:09Z</time>
      </trkpt>
      <trkpt lat="47.33893" lon="-1.34832">
        <ele>134</ele>
        <time>2022-04-16T12:18:11Z</time>
      </trkpt>
      <trkpt lat="47.33884" lon="-1.34819">
        <ele>134</ele>
        <time>2022-04-16T12:18:13Z</time>
      </trkpt>
      <trkpt lat="47.33874" lon="-1.34807">
        <ele>134</ele>
        <time>2022-04-16T12:18:15Z</time>
      </trkpt>
      <trkpt lat="47.33865" lon="-1.34794">
        <ele>134</ele>
        <time>2022-04-16T12:18:17Z</time>
      </trkpt>
      <trkpt lat="47.33856" lon="-1.34782">
        <ele>134</ele>
        <time>2022-04-16T12:18:19Z</time>
      </trkpt>
      <trkpt lat="47.33847" lon="-1.34769">
        <ele>134</ele>
        <time>2022-04-16T12:18:21Z</time>
      </trkpt>
      <trkpt lat="47.33838" lon="-1.34757">
        <ele>134</ele>
        <time>2022-04-16T12:18:23Z</time>
      </trkpt>
      <trkpt lat="47.33828" lon="-1.34744">
        <ele>134</ele>
        <time>2022-04-16T12:18:25Z</time>
      </trkpt>
      <trkpt lat="47.33819" lon="-1.34731">
        <ele>133</ele>
        <time>2022-04-16T12:18:27Z</time>
      </trkpt>
      <trkpt lat="47.3381" lon="-1.34718">
        <ele>133</ele>
        <time>2022-04-16T12:18:29Z</time>
      </trkpt>
      <trkpt lat="47.33801" lon="-1.34705">
        <ele>133</ele>
        <time>2022-04-16T12:18:31Z</time>
      </trkpt>
      <trkpt lat="47.33792" lon="-1.34693">
        <ele>133</ele>
        <time>2022-04-16T12:18:33Z</time>
      </trkpt>
      <trkpt lat="47.33783" lon="-1.3468">
        <ele>133</ele>
        <time>2022-04-16T12:18:35Z</time>
      </trkpt>
      <trkpt lat="47.33774" lon="-1.34668">
        <ele>133</ele>
        <time>2022-04-16T12:18:37Z</time>
      </trkpt>
      <trkpt lat="47.33765" lon="-1.34655">
        <ele>133</ele>
        <time>2022-04-16T12:18:39Z</time>
      </trkpt>
      <trkpt lat="47.33755" lon="-1.34642">
        <ele>133</ele>
        <time>2022-04-16T12:18:41Z</time>
      </trkpt>
      <trkpt lat="47.33746" lon="-1.3463">
        <ele>134</ele>
        <time>2022-04-16T12:18:43Z</time>
      </trkpt>
      <trkpt lat="47.33737" lon="-1.34618">
        <ele>134</ele>
        <time>2022-04-16T12:18:45Z</time>
      </trkpt>
      <trkpt lat="47.33728" lon="-1.34606">
        <ele>134</ele>
        <time>2022-04-16T12:18:47Z</time>
      </trkpt>
      <trkpt lat="47.33719" lon="-1.34594">
        <ele>133</ele>
        <time>2022-04-16T12:18:49Z</time>
      </trkpt>
      <trkpt lat="47.3371" lon="-1.34581">
        <ele>133</ele>
        <time>2022-04-16T12:18:51Z</time>
      </trkpt>
      <trkpt lat="47.33702" lon="-1.34569">
        <ele>134</ele>
        <time>2022-04-16T12:18:53Z</time>
      </trkpt>
      <trkpt lat="47.33693" lon="-1.34557">
        <ele>133</ele>
        <time>2022-04-16T12:18:55Z</time>
      </trkpt>
      <trkpt lat="47.33684" lon="-1.34545">
        <ele>133</ele>
        <time>2022-04-16T12:18:57Z</time>
      </trkpt>
      <trkpt lat="47.33675" lon="-1.34533">
        <ele>133</ele>
        <time>2022-04-16T12:18:59Z</time>
      </trkpt>
      <trkpt lat="47.33666" lon="-1.3452">
        <ele>133</ele>
        <time>2022-04-16T12:19:01Z</time>
      </trkpt>
      <trkpt lat="47.33657" lon="-1.34508">
        <ele>133</ele>
        <time>2022-04-16T12:19:03Z</time>
      </trkpt>
      <trkpt lat="47.33648" lon="-1.34496">
        <ele>133</ele>
        <time>2022-04-16T12:19:05Z</time>
      </trkpt>
      <trkpt lat="47.33639" lon="-1.34484">
        <ele>132</ele>
        <time>2022-04-16T12:19:07Z</time>
      </trkpt>
      <trkpt lat="47.33628" lon="-1.34474">
        <ele>132</ele>
        <time>2022-04-16T12:19:09Z</time>
      </trkpt>
      <trkpt lat="47.33617" lon="-1.34466">
        <ele>132</ele>
        <time>2022-04-16T12:19:11Z</time>
      </trkpt>
      <trkpt lat="47.33605" lon="-1.34459">
        <ele>132</ele>
        <time>2022-04-16T12:19:13Z</time>
      </trkpt>
      <trkpt lat="47.33593" lon="-1.34453">
        <ele>132</ele>
        <time>2022-04-16T12:19:15Z</time>
      </trkpt>
      <trkpt lat="47.33581" lon="-1.34447">
        <ele>132</ele>
        <time>2022-04-16T12:19:17Z</time>
      </trkpt>
      <trkpt lat="47.33569" lon="-1.34442">
        <ele>132</ele>
        <time>2022-04-16T12:19:19Z</time>
      </trkpt>
      <trkpt lat="47.33557" lon="-1.34436">
        <ele>132</ele>
        <time>2022-04-16T12:19:21Z</time>
      </trkpt>
      <trkpt lat="47.33545" lon="-1.3443">
        <ele>131</ele>
        <time>2022-04-16T12:19:23Z</time>
      </trkpt>
      <trkpt lat="47.33533" lon="-1.34424">
        <ele>131</ele>
        <time>2022-04-16T12:19:25Z</time>
      </trkpt>
      <trkpt lat="47.33521" lon="-1.34418">
        <ele>131</ele>
        <time>2022-04-16T12:19:27Z</time>
      </trkpt>
      <trkpt lat="47.33509" lon="-1.34412">
        <ele>131</ele>
        <time>2022-04-16T12:19:29Z</time>
      </trkpt>
      <trkpt lat="47.33497" lon="-1.34406">
        <ele>130</ele>
        <time>2022-04-16T12:19:31Z</time>
      </trkpt>
      <trkpt lat="47.33485" lon="-1.344">
        <ele>130</ele>
        <time>2022-04-16T12:19:33Z</time>
      </trkpt>
      <trkpt lat="47.33472" lon="-1.34393">
        <ele>130</ele>
        <time>2022-04-16T12:19:35Z</time>
      </trkpt>
      <trkpt lat="47.3346" lon="-1.34387">
        <ele>130</ele>
        <time>2022-04-16T12:19:37Z</time>
      </trkpt>
      <trkpt lat="47.33448" lon="-1.34382">
        <ele>131</ele>
        <time>2022-04-16T12:19:39Z</time>
      </trkpt>
      <trkpt lat="47.33428" lon="-1.34372">
        <ele>131</ele>
        <time>2022-04-16T12:19:42Z</time>
      </trkpt>
      <trkpt lat="47.33415" lon="-1.34366">
        <ele>130</ele>
        <time>2022-04-16T12:19:44Z</time>
      </trkpt>
      <trkpt lat="47.33402" lon="-1.3436">
        <ele>130</ele>
        <time>2022-04-16T12:19:46Z</time>
      </trkpt>
      <trkpt lat="47.33389" lon="-1.34354">
        <ele>130</ele>
        <time>2022-04-16T12:19:48Z</time>
      </trkpt>
      <trkpt lat="47.33376" lon="-1.34347">
        <ele>130</ele>
        <time>2022-04-16T12:19:50Z</time>
      </trkpt>
      <trkpt lat="47.33363" lon="-1.34341">
        <ele>129</ele>
        <time>2022-04-16T12:19:52Z</time>
      </trkpt>
      <trkpt lat="47.3335" lon="-1.34334">
        <ele>129</ele>
        <time>2022-04-16T12:19:54Z</time>
      </trkpt>
      <trkpt lat="47.33337" lon="-1.34327">
        <ele>128</ele>
        <time>2022-04-16T12:19:56Z</time>
      </trkpt>
      <trkpt lat="47.33324" lon="-1.34321">
        <ele>128</ele>
        <time>2022-04-16T12:19:58Z</time>
      </trkpt>
      <trkpt lat="47.33311" lon="-1.34315">
        <ele>127</ele>
        <time>2022-04-16T12:20:00Z</time>
      </trkpt>
      <trkpt lat="47.33298" lon="-1.34311">
        <ele>127</ele>
        <time>2022-04-16T12:20:02Z</time>
      </trkpt>
      <trkpt lat="47.33285" lon="-1.34308">
        <ele>127</ele>
        <time>2022-04-16T12:20:04Z</time>
      </trkpt>
      <trkpt lat="47.33271" lon="-1.34307">
        <ele>127</ele>
        <time>2022-04-16T12:20:06Z</time>
      </trkpt>
      <trkpt lat="47.33258" lon="-1.34305">
        <ele>127</ele>
        <time>2022-04-16T12:20:08Z</time>
      </trkpt>
      <trkpt lat="47.33244" lon="-1.34303">
        <ele>127</ele>
        <time>2022-04-16T12:20:10Z</time>
      </trkpt>
      <trkpt lat="47.33231" lon="-1.34302">
        <ele>127</ele>
        <time>2022-04-16T12:20:12Z</time>
      </trkpt>
      <trkpt lat="47.33217" lon="-1.343">
        <ele>127</ele>
        <time>2022-04-16T12:20:14Z</time>
      </trkpt>
      <trkpt lat="47.33203" lon="-1.34298">
        <ele>127</ele>
        <time>2022-04-16T12:20:16Z</time>
      </trkpt>
      <trkpt lat="47.33189" lon="-1.34297">
        <ele>126</ele>
        <time>2022-04-16T12:20:18Z</time>
      </trkpt>
      <trkpt lat="47.33175" lon="-1.34294">
        <ele>127</ele>
        <time>2022-04-16T12:20:20Z</time>
      </trkpt>
      <trkpt lat="47.33161" lon="-1.3429">
        <ele>126</ele>
        <time>2022-04-16T12:20:22Z</time>
      </trkpt>
      <trkpt lat="47.33147" lon="-1.34283">
        <ele>126</ele>
        <time>2022-04-16T12:20:24Z</time>
      </trkpt>
      <trkpt lat="47.33133" lon="-1.34275">
        <ele>126</ele>
        <time>2022-04-16T12:20:26Z</time>
      </trkpt>
      <trkpt lat="47.3312" lon="-1.34265">
        <ele>125</ele>
        <time>2022-04-16T12:20:28Z</time>
      </trkpt>
      <trkpt lat="47.33106" lon="-1.34255">
        <ele>125</ele>
        <time>2022-04-16T12:20:30Z</time>
      </trkpt>
      <trkpt lat="47.33092" lon="-1.34246">
        <ele>124</ele>
        <time>2022-04-16T12:20:32Z</time>
      </trkpt>
      <trkpt lat="47.33078" lon="-1.34237">
        <ele>123</ele>
        <time>2022-04-16T12:20:34Z</time>
      </trkpt>
      <trkpt lat="47.33063" lon="-1.34227">
        <ele>122</ele>
        <time>2022-04-16T12:20:36Z</time>
      </trkpt>
      <trkpt lat="47.33048" lon="-1.34217">
        <ele>121</ele>
        <time>2022-04-16T12:20:38Z</time>
      </trkpt>
      <trkpt lat="47.33033" lon="-1.34207">
        <ele>121</ele>
        <time>2022-04-16T12:20:40Z</time>
      </trkpt>
      <trkpt lat="47.33018" lon="-1.34197">
        <ele>120</ele>
        <time>2022-04-16T12:20:42Z</time>
      </trkpt>
      <trkpt lat="47.33003" lon="-1.34186">
        <ele>121</ele>
        <time>2022-04-16T12:20:44Z</time>
      </trkpt>
      <trkpt lat="47.32988" lon="-1.34175">
        <ele>120</ele>
        <time>2022-04-16T12:20:46Z</time>
      </trkpt>
      <trkpt lat="47.32973" lon="-1.34162">
        <ele>120</ele>
        <time>2022-04-16T12:20:48Z</time>
      </trkpt>
      <trkpt lat="47.3296" lon="-1.34145">
        <ele>120</ele>
        <time>2022-04-16T12:20:50Z</time>
      </trkpt>
      <trkpt lat="47.3295" lon="-1.34124">
        <ele>118</ele>
        <time>2022-04-16T12:20:52Z</time>
      </trkpt>
      <trkpt lat="47.32942" lon="-1.34102">
        <ele>117</ele>
        <time>2022-04-16T12:20:54Z</time>
      </trkpt>
      <trkpt lat="47.32938" lon="-1.34078">
        <ele>117</ele>
        <time>2022-04-16T12:20:56Z</time>
      </trkpt>
      <trkpt lat="47.32938" lon="-1.34055">
        <ele>117</ele>
        <time>2022-04-16T12:20:58Z</time>
      </trkpt>
      <trkpt lat="47.32941" lon="-1.34032">
        <ele>116</ele>
        <time>2022-04-16T12:21:00Z</time>
      </trkpt>
      <trkpt lat="47.32946" lon="-1.34009">
        <ele>115</ele>
        <time>2022-04-16T12:21:02Z</time>
      </trkpt>
      <trkpt lat="47.32954" lon="-1.33988">
        <ele>115</ele>
        <time>2022-04-16T12:21:04Z</time>
      </trkpt>
      <trkpt lat="47.32961" lon="-1.33968">
        <ele>114</ele>
        <time>2022-04-16T12:21:06Z</time>
      </trkpt>
      <trkpt lat="47.32969" lon="-1.33947">
        <ele>114</ele>
        <time>2022-04-16T12:21:08Z</time>
      </trkpt>
      <trkpt lat="47.32977" lon="-1.33926">
        <ele>113</ele>
        <time>2022-04-16T12:21:10Z</time>
      </trkpt>
      <trkpt lat="47.32985" lon="-1.33907">
        <ele>113</ele>
        <time>2022-04-16T12:21:12Z</time>
      </trkpt>
      <trkpt lat="47.32993" lon="-1.33894">
        <ele>113</ele>
        <time>2022-04-16T12:21:14Z</time>
      </trkpt>
      <trkpt lat="47.33003" lon="-1.33894">
        <ele>112</ele>
        <time>2022-04-16T12:21:18Z</time>
      </trkpt>
      <trkpt lat="47.33004" lon="-1.3388">
        <ele>110</ele>
        <time>2022-04-16T12:22:25Z</time>
      </trkpt>
      <trkpt lat="47.33006" lon="-1.33867">
        <ele>109</ele>
        <time>2022-04-16T12:22:27Z</time>
      </trkpt>
      <trkpt lat="47.33006" lon="-1.33851">
        <ele>110</ele>
        <time>2022-04-16T12:22:29Z</time>
      </trkpt>
      <trkpt lat="47.33011" lon="-1.33834">
        <ele>109</ele>
        <time>2022-04-16T12:22:31Z</time>
      </trkpt>
      <trkpt lat="47.33017" lon="-1.33817">
        <ele>109</ele>
        <time>2022-04-16T12:22:33Z</time>
      </trkpt>
      <trkpt lat="47.33025" lon="-1.338">
        <ele>109</ele>
        <time>2022-04-16T12:22:35Z</time>
      </trkpt>
      <trkpt lat="47.33033" lon="-1.33783">
        <ele>109</ele>
        <time>2022-04-16T12:22:37Z</time>
      </trkpt>
      <trkpt lat="47.3304" lon="-1.33766">
        <ele>108</ele>
        <time>2022-04-16T12:22:39Z</time>
      </trkpt>
      <trkpt lat="47.33049" lon="-1.33749">
        <ele>108</ele>
        <time>2022-04-16T12:22:41Z</time>
      </trkpt>
      <trkpt lat="47.33058" lon="-1.33733">
        <ele>107</ele>
        <time>2022-04-16T12:22:43Z</time>
      </trkpt>
      <trkpt lat="47.33067" lon="-1.33715">
        <ele>106</ele>
        <time>2022-04-16T12:22:45Z</time>
      </trkpt>
      <trkpt lat="47.33076" lon="-1.33696">
        <ele>105</ele>
        <time>2022-04-16T12:22:47Z</time>
      </trkpt>
      <trkpt lat="47.33083" lon="-1.33675">
        <ele>105</ele>
        <time>2022-04-16T12:22:49Z</time>
      </trkpt>
      <trkpt lat="47.3309" lon="-1.33653">
        <ele>104</ele>
        <time>2022-04-16T12:22:51Z</time>
      </trkpt>
      <trkpt lat="47.33097" lon="-1.3363">
        <ele>103</ele>
        <time>2022-04-16T12:22:53Z</time>
      </trkpt>
      <trkpt lat="47.33104" lon="-1.33607">
        <ele>103</ele>
        <time>2022-04-16T12:22:55Z</time>
      </trkpt>
      <trkpt lat="47.3311" lon="-1.33584">
        <ele>103</ele>
        <time>2022-04-16T12:22:57Z</time>
      </trkpt>
      <trkpt lat="47.33116" lon="-1.33561">
        <ele>101</ele>
        <time>2022-04-16T12:22:59Z</time>
      </trkpt>
      <trkpt lat="47.3312" lon="-1.33536">
        <ele>101</ele>
        <time>2022-04-16T12:23:01Z</time>
      </trkpt>
      <trkpt lat="47.33119" lon="-1.33522">
        <ele>100</ele>
        <time>2022-04-16T12:23:02Z</time>
      </trkpt>
      <trkpt lat="47.33117" lon="-1.33509">
        <ele>100</ele>
        <time>2022-04-16T12:23:03Z</time>
      </trkpt>
      <trkpt lat="47.33113" lon="-1.33496">
        <ele>100</ele>
        <time>2022-04-16T12:23:04Z</time>
      </trkpt>
      <trkpt lat="47.33108" lon="-1.33483">
        <ele>100</ele>
        <time>2022-04-16T12:23:05Z</time>
      </trkpt>
      <trkpt lat="47.33104" lon="-1.33472">
        <ele>100</ele>
        <time>2022-04-16T12:23:06Z</time>
      </trkpt>
      <trkpt lat="47.33093" lon="-1.33452">
        <ele>99</ele>
        <time>2022-04-16T12:23:08Z</time>
      </trkpt>
      <trkpt lat="47.33085" lon="-1.33444">
        <ele>99</ele>
        <time>2022-04-16T12:23:09Z</time>
      </trkpt>
      <trkpt lat="47.33077" lon="-1.33437">
        <ele>99</ele>
        <time>2022-04-16T12:23:10Z</time>
      </trkpt>
      <trkpt lat="47.3307" lon="-1.33429">
        <ele>98</ele>
        <time>2022-04-16T12:23:11Z</time>
      </trkpt>
      <trkpt lat="47.33056" lon="-1.33414">
        <ele>97</ele>
        <time>2022-04-16T12:23:13Z</time>
      </trkpt>
      <trkpt lat="47.33042" lon="-1.33398">
        <ele>96</ele>
        <time>2022-04-16T12:23:15Z</time>
      </trkpt>
      <trkpt lat="47.33028" lon="-1.33383">
        <ele>96</ele>
        <time>2022-04-16T12:23:17Z</time>
      </trkpt>
      <trkpt lat="47.33014" lon="-1.33368">
        <ele>95</ele>
        <time>2022-04-16T12:23:19Z</time>
      </trkpt>
      <trkpt lat="47.33" lon="-1.33353">
        <ele>96</ele>
        <time>2022-04-16T12:23:21Z</time>
      </trkpt>
      <trkpt lat="47.32986" lon="-1.33338">
        <ele>95</ele>
        <time>2022-04-16T12:23:23Z</time>
      </trkpt>
      <trkpt lat="47.32979" lon="-1.3333">
        <ele>94</ele>
        <time>2022-04-16T12:23:24Z</time>
      </trkpt>
      <trkpt lat="47.32966" lon="-1.33314">
        <ele>93</ele>
        <time>2022-04-16T12:23:26Z</time>
      </trkpt>
      <trkpt lat="47.32953" lon="-1.33299">
        <ele>93</ele>
        <time>2022-04-16T12:23:28Z</time>
      </trkpt>
      <trkpt lat="47.3294" lon="-1.33285">
        <ele>93</ele>
        <time>2022-04-16T12:23:30Z</time>
      </trkpt>
      <trkpt lat="47.32926" lon="-1.33268">
        <ele>92</ele>
        <time>2022-04-16T12:23:32Z</time>
      </trkpt>
      <trkpt lat="47.32919" lon="-1.33259">
        <ele>92</ele>
        <time>2022-04-16T12:23:33Z</time>
      </trkpt>
      <trkpt lat="47.32911" lon="-1.3325">
        <ele>91</ele>
        <time>2022-04-16T12:23:34Z</time>
      </trkpt>
      <trkpt lat="47.32903" lon="-1.33242">
        <ele>91</ele>
        <time>2022-04-16T12:23:35Z</time>
      </trkpt>
      <trkpt lat="47.32896" lon="-1.33234">
        <ele>90</ele>
        <time>2022-04-16T12:23:36Z</time>
      </trkpt>
      <trkpt lat="47.32888" lon="-1.33227">
        <ele>90</ele>
        <time>2022-04-16T12:23:37Z</time>
      </trkpt>
      <trkpt lat="47.3288" lon="-1.33219">
        <ele>89</ele>
        <time>2022-04-16T12:23:38Z</time>
      </trkpt>
      <trkpt lat="47.32872" lon="-1.33212">
        <ele>88</ele>
        <time>2022-04-16T12:23:39Z</time>
      </trkpt>
      <trkpt lat="47.32864" lon="-1.33205">
        <ele>87</ele>
        <time>2022-04-16T12:23:40Z</time>
      </trkpt>
      <trkpt lat="47.32856" lon="-1.33198">
        <ele>86</ele>
        <time>2022-04-16T12:23:41Z</time>
      </trkpt>
      <trkpt lat="47.32847" lon="-1.33191">
        <ele>85</ele>
        <time>2022-04-16T12:23:42Z</time>
      </trkpt>
      <trkpt lat="47.32839" lon="-1.33184">
        <ele>84</ele>
        <time>2022-04-16T12:23:43Z</time>
      </trkpt>
      <trkpt lat="47.32831" lon="-1.33177">
        <ele>83</ele>
        <time>2022-04-16T12:23:44Z</time>
      </trkpt>
      <trkpt lat="47.32823" lon="-1.3317">
        <ele>83</ele>
        <time>2022-04-16T12:23:45Z</time>
      </trkpt>
      <trkpt lat="47.32814" lon="-1.33164">
        <ele>83</ele>
        <time>2022-04-16T12:23:46Z</time>
      </trkpt>
      <trkpt lat="47.32799" lon="-1.3315">
        <ele>82</ele>
        <time>2022-04-16T12:23:48Z</time>
      </trkpt>
      <trkpt lat="47.32784" lon="-1.33136">
        <ele>81</ele>
        <time>2022-04-16T12:23:50Z</time>
      </trkpt>
      <trkpt lat="47.32776" lon="-1.33129">
        <ele>80</ele>
        <time>2022-04-16T12:23:51Z</time>
      </trkpt>
      <trkpt lat="47.3276" lon="-1.33114">
        <ele>82</ele>
        <time>2022-04-16T12:23:53Z</time>
      </trkpt>
      <trkpt lat="47.32753" lon="-1.33107">
        <ele>81</ele>
        <time>2022-04-16T12:23:54Z</time>
      </trkpt>
      <trkpt lat="47.32745" lon="-1.33099">
        <ele>80</ele>
        <time>2022-04-16T12:23:55Z</time>
      </trkpt>
      <trkpt lat="47.32738" lon="-1.33091">
        <ele>80</ele>
        <time>2022-04-16T12:23:56Z</time>
      </trkpt>
      <trkpt lat="47.3273" lon="-1.33083">
        <ele>80</ele>
        <time>2022-04-16T12:23:57Z</time>
      </trkpt>
      <trkpt lat="47.32722" lon="-1.33074">
        <ele>80</ele>
        <time>2022-04-16T12:23:58Z</time>
      </trkpt>
      <trkpt lat="47.32707" lon="-1.33061">
        <ele>79</ele>
        <time>2022-04-16T12:24:00Z</time>
      </trkpt>
      <trkpt lat="47.32699" lon="-1.33054">
        <ele>77</ele>
        <time>2022-04-16T12:24:01Z</time>
      </trkpt>
      <trkpt lat="47.32691" lon="-1.33047">
        <ele>76</ele>
        <time>2022-04-16T12:24:02Z</time>
      </trkpt>
      <trkpt lat="47.32683" lon="-1.33041">
        <ele>76</ele>
        <time>2022-04-16T12:24:03Z</time>
      </trkpt>
      <trkpt lat="47.32675" lon="-1.33034">
        <ele>75</ele>
        <time>2022-04-16T12:24:04Z</time>
      </trkpt>
      <trkpt lat="47.32668" lon="-1.33026">
        <ele>74</ele>
        <time>2022-04-16T12:24:05Z</time>
      </trkpt>
      <trkpt lat="47.32654" lon="-1.33012">
        <ele>72</ele>
        <time>2022-04-16T12:24:07Z</time>
      </trkpt>
      <trkpt lat="47.32642" lon="-1.32997">
        <ele>70</ele>
        <time>2022-04-16T12:24:09Z</time>
      </trkpt>
      <trkpt lat="47.32633" lon="-1.32981">
        <ele>68</ele>
        <time>2022-04-16T12:24:11Z</time>
      </trkpt>
      <trkpt lat="47.32625" lon="-1.32967">
        <ele>66</ele>
        <time>2022-04-16T12:24:13Z</time>
      </trkpt>
      <trkpt lat="47.32619" lon="-1.32956">
        <ele>65</ele>
        <time>2022-04-16T12:24:15Z</time>
      </trkpt>
      <trkpt lat="47.32606" lon="-1.3296">
        <ele>64</ele>
        <time>2022-04-16T12:24:18Z</time>
      </trkpt>
      <trkpt lat="47.32599" lon="-1.32972">
        <ele>63</ele>
        <time>2022-04-16T12:24:20Z</time>
      </trkpt>
      <trkpt lat="47.32593" lon="-1.32982">
        <ele>62</ele>
        <time>2022-04-16T12:24:22Z</time>
      </trkpt>
      <trkpt lat="47.32586" lon="-1.32991">
        <ele>63</ele>
        <time>2022-04-16T12:24:24Z</time>
      </trkpt>
      <trkpt lat="47.32578" lon="-1.33001">
        <ele>63</ele>
        <time>2022-04-16T12:24:26Z</time>
      </trkpt>
      <trkpt lat="47.32571" lon="-1.33009">
        <ele>63</ele>
        <time>2022-04-16T12:24:28Z</time>
      </trkpt>
      <trkpt lat="47.32563" lon="-1.33018">
        <ele>63</ele>
        <time>2022-04-16T12:24:30Z</time>
      </trkpt>
      <trkpt lat="47.32554" lon="-1.33027">
        <ele>63</ele>
        <time>2022-04-16T12:24:32Z</time>
      </trkpt>
      <trkpt lat="47.32544" lon="-1.33035">
        <ele>63</ele>
        <time>2022-04-16T12:24:34Z</time>
      </trkpt>
      <trkpt lat="47.32533" lon="-1.33044">
        <ele>62</ele>
        <time>2022-04-16T12:24:36Z</time>
      </trkpt>
      <trkpt lat="47.32523" lon="-1.33054">
        <ele>62</ele>
        <time>2022-04-16T12:24:38Z</time>
      </trkpt>
      <trkpt lat="47.32513" lon="-1.33065">
        <ele>62</ele>
        <time>2022-04-16T12:24:40Z</time>
      </trkpt>
      <trkpt lat="47.32502" lon="-1.33075">
        <ele>62</ele>
        <time>2022-04-16T12:24:42Z</time>
      </trkpt>
      <trkpt lat="47.32493" lon="-1.33085">
        <ele>63</ele>
        <time>2022-04-16T12:24:44Z</time>
      </trkpt>
      <trkpt lat="47.32483" lon="-1.33096">
        <ele>63</ele>
        <time>2022-04-16T12:24:46Z</time>
      </trkpt>
      <trkpt lat="47.32473" lon="-1.33107">
        <ele>62</ele>
        <time>2022-04-16T12:24:48Z</time>
      </trkpt>
      <trkpt lat="47.32463" lon="-1.33118">
        <ele>63</ele>
        <time>2022-04-16T12:24:50Z</time>
      </trkpt>
      <trkpt lat="47.32455" lon="-1.33129">
        <ele>63</ele>
        <time>2022-04-16T12:24:52Z</time>
      </trkpt>
      <trkpt lat="47.32448" lon="-1.33139">
        <ele>63</ele>
        <time>2022-04-16T12:24:54Z</time>
      </trkpt>
      <trkpt lat="47.32436" lon="-1.33146">
        <ele>63</ele>
        <time>2022-04-16T12:24:57Z</time>
      </trkpt>
      <trkpt lat="47.32424" lon="-1.33146">
        <ele>64</ele>
        <time>2022-04-16T12:25:00Z</time>
      </trkpt>
      <trkpt lat="47.32416" lon="-1.33155">
        <ele>63</ele>
        <time>2022-04-16T12:25:02Z</time>
      </trkpt>
      <trkpt lat="47.32408" lon="-1.33167">
        <ele>63</ele>
        <time>2022-04-16T12:25:04Z</time>
      </trkpt>
      <trkpt lat="47.32398" lon="-1.33178">
        <ele>63</ele>
        <time>2022-04-16T12:25:06Z</time>
      </trkpt>
      <trkpt lat="47.32389" lon="-1.3319">
        <ele>62</ele>
        <time>2022-04-16T12:25:08Z</time>
      </trkpt>
      <trkpt lat="47.32381" lon="-1.33204">
        <ele>62</ele>
        <time>2022-04-16T12:25:10Z</time>
      </trkpt>
      <trkpt lat="47.32373" lon="-1.33217">
        <ele>62</ele>
        <time>2022-04-16T12:25:12Z</time>
      </trkpt>
      <trkpt lat="47.32366" lon="-1.33232">
        <ele>60</ele>
        <time>2022-04-16T12:25:14Z</time>
      </trkpt>
      <trkpt lat="47.32359" lon="-1.33247">
        <ele>60</ele>
        <time>2022-04-16T12:25:16Z</time>
      </trkpt>
      <trkpt lat="47.32352" lon="-1.33262">
        <ele>60</ele>
        <time>2022-04-16T12:25:18Z</time>
      </trkpt>
      <trkpt lat="47.32344" lon="-1.33278">
        <ele>59</ele>
        <time>2022-04-16T12:25:20Z</time>
      </trkpt>
      <trkpt lat="47.32337" lon="-1.33293">
        <ele>59</ele>
        <time>2022-04-16T12:25:22Z</time>
      </trkpt>
      <trkpt lat="47.32331" lon="-1.3331">
        <ele>59</ele>
        <time>2022-04-16T12:25:24Z</time>
      </trkpt>
      <trkpt lat="47.32324" lon="-1.33324">
        <ele>60</ele>
        <time>2022-04-16T12:25:26Z</time>
      </trkpt>
      <trkpt lat="47.32317" lon="-1.3334">
        <ele>60</ele>
        <time>2022-04-16T12:25:28Z</time>
      </trkpt>
      <trkpt lat="47.3231" lon="-1.33357">
        <ele>60</ele>
        <time>2022-04-16T12:25:30Z</time>
      </trkpt>
      <trkpt lat="47.32304" lon="-1.33372">
        <ele>61</ele>
        <time>2022-04-16T12:25:32Z</time>
      </trkpt>
      <trkpt lat="47.32297" lon="-1.33388">
        <ele>61</ele>
        <time>2022-04-16T12:25:34Z</time>
      </trkpt>
      <trkpt lat="47.3229" lon="-1.33403">
        <ele>61</ele>
        <time>2022-04-16T12:25:36Z</time>
      </trkpt>
      <trkpt lat="47.32283" lon="-1.33419">
        <ele>62</ele>
        <time>2022-04-16T12:25:38Z</time>
      </trkpt>
      <trkpt lat="47.32276" lon="-1.33434">
        <ele>62</ele>
        <time>2022-04-16T12:25:40Z</time>
      </trkpt>
      <trkpt lat="47.32268" lon="-1.33451">
        <ele>61</ele>
        <time>2022-04-16T12:25:42Z</time>
      </trkpt>
      <trkpt lat="47.3226" lon="-1.33467">
        <ele>62</ele>
        <time>2022-04-16T12:25:44Z</time>
      </trkpt>
      <trkpt lat="47.32253" lon="-1.33483">
        <ele>61</ele>
        <time>2022-04-16T12:25:46Z</time>
      </trkpt>
      <trkpt lat="47.32246" lon="-1.33499">
        <ele>61</ele>
        <time>2022-04-16T12:25:48Z</time>
      </trkpt>
      <trkpt lat="47.32238" lon="-1.33515">
        <ele>61</ele>
        <time>2022-04-16T12:25:50Z</time>
      </trkpt>
      <trkpt lat="47.32231" lon="-1.3353">
        <ele>61</ele>
        <time>2022-04-16T12:25:52Z</time>
      </trkpt>
      <trkpt lat="47.32224" lon="-1.33542">
        <ele>61</ele>
        <time>2022-04-16T12:25:54Z</time>
      </trkpt>
      <trkpt lat="47.32216" lon="-1.33556">
        <ele>60</ele>
        <time>2022-04-16T12:25:56Z</time>
      </trkpt>
      <trkpt lat="47.3221" lon="-1.33571">
        <ele>60</ele>
        <time>2022-04-16T12:25:58Z</time>
      </trkpt>
      <trkpt lat="47.32204" lon="-1.33586">
        <ele>60</ele>
        <time>2022-04-16T12:26:00Z</time>
      </trkpt>
      <trkpt lat="47.32198" lon="-1.33603">
        <ele>60</ele>
        <time>2022-04-16T12:26:02Z</time>
      </trkpt>
      <trkpt lat="47.32192" lon="-1.33617">
        <ele>60</ele>
        <time>2022-04-16T12:26:04Z</time>
      </trkpt>
      <trkpt lat="47.32187" lon="-1.33631">
        <ele>60</ele>
        <time>2022-04-16T12:26:06Z</time>
      </trkpt>
      <trkpt lat="47.32181" lon="-1.33641">
        <ele>60</ele>
        <time>2022-04-16T12:26:08Z</time>
      </trkpt>
      <trkpt lat="47.32175" lon="-1.33658">
        <ele>59</ele>
        <time>2022-04-16T12:26:11Z</time>
      </trkpt>
      <trkpt lat="47.32171" lon="-1.33671">
        <ele>60</ele>
        <time>2022-04-16T12:26:13Z</time>
      </trkpt>
      <trkpt lat="47.32166" lon="-1.33685">
        <ele>60</ele>
        <time>2022-04-16T12:26:15Z</time>
      </trkpt>
      <trkpt lat="47.3216" lon="-1.337">
        <ele>61</ele>
        <time>2022-04-16T12:26:17Z</time>
      </trkpt>
      <trkpt lat="47.32154" lon="-1.33716">
        <ele>61</ele>
        <time>2022-04-16T12:26:19Z</time>
      </trkpt>
      <trkpt lat="47.32147" lon="-1.33732">
        <ele>61</ele>
        <time>2022-04-16T12:26:21Z</time>
      </trkpt>
      <trkpt lat="47.32141" lon="-1.33748">
        <ele>61</ele>
        <time>2022-04-16T12:26:23Z</time>
      </trkpt>
      <trkpt lat="47.32134" lon="-1.33764">
        <ele>61</ele>
        <time>2022-04-16T12:26:25Z</time>
      </trkpt>
      <trkpt lat="47.32128" lon="-1.3378">
        <ele>62</ele>
        <time>2022-04-16T12:26:27Z</time>
      </trkpt>
      <trkpt lat="47.32122" lon="-1.33795">
        <ele>62</ele>
        <time>2022-04-16T12:26:29Z</time>
      </trkpt>
      <trkpt lat="47.32115" lon="-1.3381">
        <ele>62</ele>
        <time>2022-04-16T12:26:31Z</time>
      </trkpt>
      <trkpt lat="47.32108" lon="-1.33824">
        <ele>62</ele>
        <time>2022-04-16T12:26:33Z</time>
      </trkpt>
      <trkpt lat="47.32101" lon="-1.33839">
        <ele>62</ele>
        <time>2022-04-16T12:26:35Z</time>
      </trkpt>
      <trkpt lat="47.32093" lon="-1.33853">
        <ele>62</ele>
        <time>2022-04-16T12:26:37Z</time>
      </trkpt>
      <trkpt lat="47.32086" lon="-1.33867">
        <ele>63</ele>
        <time>2022-04-16T12:26:39Z</time>
      </trkpt>
      <trkpt lat="47.32079" lon="-1.33882">
        <ele>62</ele>
        <time>2022-04-16T12:26:41Z</time>
      </trkpt>
      <trkpt lat="47.32071" lon="-1.33897">
        <ele>62</ele>
        <time>2022-04-16T12:26:43Z</time>
      </trkpt>
      <trkpt lat="47.32063" lon="-1.33911">
        <ele>62</ele>
        <time>2022-04-16T12:26:45Z</time>
      </trkpt>
      <trkpt lat="47.32054" lon="-1.33925">
        <ele>61</ele>
        <time>2022-04-16T12:26:47Z</time>
      </trkpt>
      <trkpt lat="47.32046" lon="-1.33939">
        <ele>61</ele>
        <time>2022-04-16T12:26:49Z</time>
      </trkpt>
      <trkpt lat="47.32039" lon="-1.33952">
        <ele>61</ele>
        <time>2022-04-16T12:26:51Z</time>
      </trkpt>
      <trkpt lat="47.32034" lon="-1.33964">
        <ele>61</ele>
        <time>2022-04-16T12:26:53Z</time>
      </trkpt>
      <trkpt lat="47.32027" lon="-1.33975">
        <ele>62</ele>
        <time>2022-04-16T12:26:55Z</time>
      </trkpt>
      <trkpt lat="47.32019" lon="-1.33986">
        <ele>61</ele>
        <time>2022-04-16T12:26:57Z</time>
      </trkpt>
      <trkpt lat="47.3201" lon="-1.33998">
        <ele>61</ele>
        <time>2022-04-16T12:26:59Z</time>
      </trkpt>
      <trkpt lat="47.32002" lon="-1.34012">
        <ele>61</ele>
        <time>2022-04-16T12:27:01Z</time>
      </trkpt>
      <trkpt lat="47.31994" lon="-1.34025">
        <ele>61</ele>
        <time>2022-04-16T12:27:03Z</time>
      </trkpt>
      <trkpt lat="47.31986" lon="-1.34038">
        <ele>62</ele>
        <time>2022-04-16T12:27:05Z</time>
      </trkpt>
      <trkpt lat="47.31978" lon="-1.3405">
        <ele>61</ele>
        <time>2022-04-16T12:27:07Z</time>
      </trkpt>
      <trkpt lat="47.31969" lon="-1.34063">
        <ele>61</ele>
        <time>2022-04-16T12:27:09Z</time>
      </trkpt>
      <trkpt lat="47.3196" lon="-1.34076">
        <ele>61</ele>
        <time>2022-04-16T12:27:11Z</time>
      </trkpt>
      <trkpt lat="47.31952" lon="-1.34089">
        <ele>61</ele>
        <time>2022-04-16T12:27:13Z</time>
      </trkpt>
      <trkpt lat="47.31944" lon="-1.34102">
        <ele>61</ele>
        <time>2022-04-16T12:27:15Z</time>
      </trkpt>
      <trkpt lat="47.31937" lon="-1.34114">
        <ele>62</ele>
        <time>2022-04-16T12:27:17Z</time>
      </trkpt>
      <trkpt lat="47.3193" lon="-1.34126">
        <ele>62</ele>
        <time>2022-04-16T12:27:19Z</time>
      </trkpt>
      <trkpt lat="47.31921" lon="-1.34139">
        <ele>62</ele>
        <time>2022-04-16T12:27:21Z</time>
      </trkpt>
      <trkpt lat="47.31913" lon="-1.34152">
        <ele>61</ele>
        <time>2022-04-16T12:27:23Z</time>
      </trkpt>
      <trkpt lat="47.31904" lon="-1.34164">
        <ele>61</ele>
        <time>2022-04-16T12:27:25Z</time>
      </trkpt>
      <trkpt lat="47.31895" lon="-1.34178">
        <ele>59</ele>
        <time>2022-04-16T12:27:27Z</time>
      </trkpt>
      <trkpt lat="47.31885" lon="-1.34192">
        <ele>60</ele>
        <time>2022-04-16T12:27:29Z</time>
      </trkpt>
      <trkpt lat="47.31875" lon="-1.34206">
        <ele>60</ele>
        <time>2022-04-16T12:27:31Z</time>
      </trkpt>
      <trkpt lat="47.31866" lon="-1.3422">
        <ele>59</ele>
        <time>2022-04-16T12:27:33Z</time>
      </trkpt>
      <trkpt lat="47.31857" lon="-1.34234">
        <ele>59</ele>
        <time>2022-04-16T12:27:35Z</time>
      </trkpt>
      <trkpt lat="47.31849" lon="-1.34246">
        <ele>59</ele>
        <time>2022-04-16T12:27:37Z</time>
      </trkpt>
      <trkpt lat="47.3184" lon="-1.34259">
        <ele>58</ele>
        <time>2022-04-16T12:27:39Z</time>
      </trkpt>
      <trkpt lat="47.31831" lon="-1.34272">
        <ele>58</ele>
        <time>2022-04-16T12:27:41Z</time>
      </trkpt>
      <trkpt lat="47.31823" lon="-1.34285">
        <ele>58</ele>
        <time>2022-04-16T12:27:43Z</time>
      </trkpt>
      <trkpt lat="47.31815" lon="-1.34299">
        <ele>59</ele>
        <time>2022-04-16T12:27:45Z</time>
      </trkpt>
      <trkpt lat="47.31806" lon="-1.34312">
        <ele>59</ele>
        <time>2022-04-16T12:27:47Z</time>
      </trkpt>
      <trkpt lat="47.31798" lon="-1.34327">
        <ele>59</ele>
        <time>2022-04-16T12:27:49Z</time>
      </trkpt>
      <trkpt lat="47.31789" lon="-1.3434">
        <ele>59</ele>
        <time>2022-04-16T12:27:51Z</time>
      </trkpt>
      <trkpt lat="47.3178" lon="-1.34354">
        <ele>59</ele>
        <time>2022-04-16T12:27:53Z</time>
      </trkpt>
      <trkpt lat="47.31772" lon="-1.34367">
        <ele>59</ele>
        <time>2022-04-16T12:27:55Z</time>
      </trkpt>
      <trkpt lat="47.31764" lon="-1.3438">
        <ele>60</ele>
        <time>2022-04-16T12:27:57Z</time>
      </trkpt>
      <trkpt lat="47.31757" lon="-1.34394">
        <ele>60</ele>
        <time>2022-04-16T12:27:59Z</time>
      </trkpt>
      <trkpt lat="47.3175" lon="-1.34408">
        <ele>61</ele>
        <time>2022-04-16T12:28:01Z</time>
      </trkpt>
      <trkpt lat="47.31741" lon="-1.34422">
        <ele>61</ele>
        <time>2022-04-16T12:28:03Z</time>
      </trkpt>
      <trkpt lat="47.31732" lon="-1.34436">
        <ele>61</ele>
        <time>2022-04-16T12:28:05Z</time>
      </trkpt>
      <trkpt lat="47.31723" lon="-1.34449">
        <ele>61</ele>
        <time>2022-04-16T12:28:07Z</time>
      </trkpt>
      <trkpt lat="47.31714" lon="-1.34463">
        <ele>61</ele>
        <time>2022-04-16T12:28:09Z</time>
      </trkpt>
      <trkpt lat="47.31706" lon="-1.34477">
        <ele>61</ele>
        <time>2022-04-16T12:28:11Z</time>
      </trkpt>
      <trkpt lat="47.31697" lon="-1.34491">
        <ele>62</ele>
        <time>2022-04-16T12:28:13Z</time>
      </trkpt>
      <trkpt lat="47.31687" lon="-1.34504">
        <ele>61</ele>
        <time>2022-04-16T12:28:15Z</time>
      </trkpt>
      <trkpt lat="47.31678" lon="-1.34518">
        <ele>61</ele>
        <time>2022-04-16T12:28:17Z</time>
      </trkpt>
      <trkpt lat="47.31669" lon="-1.34531">
        <ele>61</ele>
        <time>2022-04-16T12:28:19Z</time>
      </trkpt>
      <trkpt lat="47.3166" lon="-1.34544">
        <ele>61</ele>
        <time>2022-04-16T12:28:21Z</time>
      </trkpt>
      <trkpt lat="47.31652" lon="-1.34557">
        <ele>61</ele>
        <time>2022-04-16T12:28:23Z</time>
      </trkpt>
      <trkpt lat="47.31645" lon="-1.3457">
        <ele>61</ele>
        <time>2022-04-16T12:28:25Z</time>
      </trkpt>
      <trkpt lat="47.31638" lon="-1.34582">
        <ele>61</ele>
        <time>2022-04-16T12:28:27Z</time>
      </trkpt>
      <trkpt lat="47.3163" lon="-1.34595">
        <ele>61</ele>
        <time>2022-04-16T12:28:29Z</time>
      </trkpt>
      <trkpt lat="47.31622" lon="-1.34609">
        <ele>61</ele>
        <time>2022-04-16T12:28:31Z</time>
      </trkpt>
      <trkpt lat="47.31613" lon="-1.34622">
        <ele>61</ele>
        <time>2022-04-16T12:28:33Z</time>
      </trkpt>
      <trkpt lat="47.31605" lon="-1.34635">
        <ele>61</ele>
        <time>2022-04-16T12:28:35Z</time>
      </trkpt>
      <trkpt lat="47.31597" lon="-1.34649">
        <ele>62</ele>
        <time>2022-04-16T12:28:37Z</time>
      </trkpt>
      <trkpt lat="47.31589" lon="-1.34663">
        <ele>62</ele>
        <time>2022-04-16T12:28:39Z</time>
      </trkpt>
      <trkpt lat="47.31581" lon="-1.34677">
        <ele>62</ele>
        <time>2022-04-16T12:28:41Z</time>
      </trkpt>
      <trkpt lat="47.31572" lon="-1.3469">
        <ele>63</ele>
        <time>2022-04-16T12:28:43Z</time>
      </trkpt>
      <trkpt lat="47.31564" lon="-1.34703">
        <ele>63</ele>
        <time>2022-04-16T12:28:45Z</time>
      </trkpt>
      <trkpt lat="47.31555" lon="-1.34717">
        <ele>63</ele>
        <time>2022-04-16T12:28:47Z</time>
      </trkpt>
      <trkpt lat="47.31545" lon="-1.34731">
        <ele>63</ele>
        <time>2022-04-16T12:28:49Z</time>
      </trkpt>
      <trkpt lat="47.31536" lon="-1.34745">
        <ele>62</ele>
        <time>2022-04-16T12:28:51Z</time>
      </trkpt>
      <trkpt lat="47.31527" lon="-1.34759">
        <ele>62</ele>
        <time>2022-04-16T12:28:53Z</time>
      </trkpt>
      <trkpt lat="47.31518" lon="-1.34772">
        <ele>61</ele>
        <time>2022-04-16T12:28:55Z</time>
      </trkpt>
      <trkpt lat="47.3151" lon="-1.34785">
        <ele>61</ele>
        <time>2022-04-16T12:28:57Z</time>
      </trkpt>
      <trkpt lat="47.31502" lon="-1.34799">
        <ele>61</ele>
        <time>2022-04-16T12:28:59Z</time>
      </trkpt>
      <trkpt lat="47.31494" lon="-1.34812">
        <ele>61</ele>
        <time>2022-04-16T12:29:01Z</time>
      </trkpt>
      <trkpt lat="47.31485" lon="-1.34825">
        <ele>61</ele>
        <time>2022-04-16T12:29:03Z</time>
      </trkpt>
      <trkpt lat="47.31477" lon="-1.34838">
        <ele>61</ele>
        <time>2022-04-16T12:29:05Z</time>
      </trkpt>
      <trkpt lat="47.31468" lon="-1.34852">
        <ele>61</ele>
        <time>2022-04-16T12:29:07Z</time>
      </trkpt>
      <trkpt lat="47.3146" lon="-1.34864">
        <ele>61</ele>
        <time>2022-04-16T12:29:09Z</time>
      </trkpt>
      <trkpt lat="47.31452" lon="-1.34877">
        <ele>61</ele>
        <time>2022-04-16T12:29:11Z</time>
      </trkpt>
      <trkpt lat="47.31444" lon="-1.3489">
        <ele>61</ele>
        <time>2022-04-16T12:29:13Z</time>
      </trkpt>
      <trkpt lat="47.31435" lon="-1.34903">
        <ele>60</ele>
        <time>2022-04-16T12:29:15Z</time>
      </trkpt>
      <trkpt lat="47.31427" lon="-1.34916">
        <ele>61</ele>
        <time>2022-04-16T12:29:17Z</time>
      </trkpt>
      <trkpt lat="47.31419" lon="-1.34929">
        <ele>61</ele>
        <time>2022-04-16T12:29:19Z</time>
      </trkpt>
      <trkpt lat="47.31411" lon="-1.34942">
        <ele>61</ele>
        <time>2022-04-16T12:29:21Z</time>
      </trkpt>
      <trkpt lat="47.31403" lon="-1.34955">
        <ele>61</ele>
        <time>2022-04-16T12:29:23Z</time>
      </trkpt>
      <trkpt lat="47.31395" lon="-1.34968">
        <ele>62</ele>
        <time>2022-04-16T12:29:25Z</time>
      </trkpt>
      <trkpt lat="47.31387" lon="-1.34981">
        <ele>61</ele>
        <time>2022-04-16T12:29:27Z</time>
      </trkpt>
      <trkpt lat="47.3138" lon="-1.34996">
        <ele>61</ele>
        <time>2022-04-16T12:29:29Z</time>
      </trkpt>
      <trkpt lat="47.31372" lon="-1.35009">
        <ele>61</ele>
        <time>2022-04-16T12:29:31Z</time>
      </trkpt>
      <trkpt lat="47.31364" lon="-1.35022">
        <ele>60</ele>
        <time>2022-04-16T12:29:33Z</time>
      </trkpt>
      <trkpt lat="47.31356" lon="-1.35035">
        <ele>61</ele>
        <time>2022-04-16T12:29:35Z</time>
      </trkpt>
      <trkpt lat="47.31348" lon="-1.35047">
        <ele>61</ele>
        <time>2022-04-16T12:29:37Z</time>
      </trkpt>
      <trkpt lat="47.3134" lon="-1.35059">
        <ele>61</ele>
        <time>2022-04-16T12:29:39Z</time>
      </trkpt>
      <trkpt lat="47.31333" lon="-1.35072">
        <ele>62</ele>
        <time>2022-04-16T12:29:41Z</time>
      </trkpt>
      <trkpt lat="47.31324" lon="-1.35082">
        <ele>62</ele>
        <time>2022-04-16T12:29:43Z</time>
      </trkpt>
      <trkpt lat="47.31312" lon="-1.35087">
        <ele>61</ele>
        <time>2022-04-16T12:29:45Z</time>
      </trkpt>
      <trkpt lat="47.31301" lon="-1.35095">
        <ele>60</ele>
        <time>2022-04-16T12:29:47Z</time>
      </trkpt>
      <trkpt lat="47.31294" lon="-1.35107">
        <ele>60</ele>
        <time>2022-04-16T12:29:49Z</time>
      </trkpt>
      <trkpt lat="47.31289" lon="-1.35118">
        <ele>59</ele>
        <time>2022-04-16T12:29:51Z</time>
      </trkpt>
      <trkpt lat="47.31284" lon="-1.35132">
        <ele>59</ele>
        <time>2022-04-16T12:29:53Z</time>
      </trkpt>
      <trkpt lat="47.31277" lon="-1.35147">
        <ele>59</ele>
        <time>2022-04-16T12:29:55Z</time>
      </trkpt>
      <trkpt lat="47.3127" lon="-1.35161">
        <ele>59</ele>
        <time>2022-04-16T12:29:57Z</time>
      </trkpt>
      <trkpt lat="47.31261" lon="-1.35175">
        <ele>58</ele>
        <time>2022-04-16T12:29:59Z</time>
      </trkpt>
      <trkpt lat="47.31253" lon="-1.35189">
        <ele>58</ele>
        <time>2022-04-16T12:30:01Z</time>
      </trkpt>
      <trkpt lat="47.31245" lon="-1.35203">
        <ele>58</ele>
        <time>2022-04-16T12:30:03Z</time>
      </trkpt>
      <trkpt lat="47.31236" lon="-1.35215">
        <ele>58</ele>
        <time>2022-04-16T12:30:05Z</time>
      </trkpt>
      <trkpt lat="47.31228" lon="-1.35229">
        <ele>58</ele>
        <time>2022-04-16T12:30:07Z</time>
      </trkpt>
      <trkpt lat="47.3122" lon="-1.35243">
        <ele>58</ele>
        <time>2022-04-16T12:30:09Z</time>
      </trkpt>
      <trkpt lat="47.31211" lon="-1.35256">
        <ele>58</ele>
        <time>2022-04-16T12:30:11Z</time>
      </trkpt>
      <trkpt lat="47.31202" lon="-1.35269">
        <ele>58</ele>
        <time>2022-04-16T12:30:13Z</time>
      </trkpt>
      <trkpt lat="47.31193" lon="-1.35283">
        <ele>59</ele>
        <time>2022-04-16T12:30:15Z</time>
      </trkpt>
      <trkpt lat="47.31185" lon="-1.35297">
        <ele>59</ele>
        <time>2022-04-16T12:30:17Z</time>
      </trkpt>
      <trkpt lat="47.31176" lon="-1.35311">
        <ele>59</ele>
        <time>2022-04-16T12:30:19Z</time>
      </trkpt>
      <trkpt lat="47.31168" lon="-1.35324">
        <ele>59</ele>
        <time>2022-04-16T12:30:21Z</time>
      </trkpt>
      <trkpt lat="47.31159" lon="-1.35339">
        <ele>60</ele>
        <time>2022-04-16T12:30:23Z</time>
      </trkpt>
      <trkpt lat="47.31151" lon="-1.35354">
        <ele>59</ele>
        <time>2022-04-16T12:30:25Z</time>
      </trkpt>
      <trkpt lat="47.31142" lon="-1.35368">
        <ele>59</ele>
        <time>2022-04-16T12:30:27Z</time>
      </trkpt>
      <trkpt lat="47.31134" lon="-1.35381">
        <ele>59</ele>
        <time>2022-04-16T12:30:29Z</time>
      </trkpt>
      <trkpt lat="47.31125" lon="-1.35395">
        <ele>59</ele>
        <time>2022-04-16T12:30:31Z</time>
      </trkpt>
      <trkpt lat="47.31116" lon="-1.35408">
        <ele>59</ele>
        <time>2022-04-16T12:30:33Z</time>
      </trkpt>
      <trkpt lat="47.31107" lon="-1.3542">
        <ele>59</ele>
        <time>2022-04-16T12:30:35Z</time>
      </trkpt>
      <trkpt lat="47.31098" lon="-1.35433">
        <ele>59</ele>
        <time>2022-04-16T12:30:37Z</time>
      </trkpt>
      <trkpt lat="47.31088" lon="-1.35445">
        <ele>59</ele>
        <time>2022-04-16T12:30:39Z</time>
      </trkpt>
      <trkpt lat="47.31079" lon="-1.35457">
        <ele>59</ele>
        <time>2022-04-16T12:30:41Z</time>
      </trkpt>
      <trkpt lat="47.31069" lon="-1.35469">
        <ele>59</ele>
        <time>2022-04-16T12:30:43Z</time>
      </trkpt>
      <trkpt lat="47.31059" lon="-1.35482">
        <ele>59</ele>
        <time>2022-04-16T12:30:45Z</time>
      </trkpt>
      <trkpt lat="47.31049" lon="-1.35493">
        <ele>59</ele>
        <time>2022-04-16T12:30:47Z</time>
      </trkpt>
      <trkpt lat="47.31039" lon="-1.35505">
        <ele>59</ele>
        <time>2022-04-16T12:30:49Z</time>
      </trkpt>
      <trkpt lat="47.31029" lon="-1.35517">
        <ele>59</ele>
        <time>2022-04-16T12:30:51Z</time>
      </trkpt>
      <trkpt lat="47.3102" lon="-1.35529">
        <ele>59</ele>
        <time>2022-04-16T12:30:53Z</time>
      </trkpt>
      <trkpt lat="47.31009" lon="-1.3554">
        <ele>59</ele>
        <time>2022-04-16T12:30:55Z</time>
      </trkpt>
      <trkpt lat="47.30999" lon="-1.35551">
        <ele>59</ele>
        <time>2022-04-16T12:30:57Z</time>
      </trkpt>
      <trkpt lat="47.30989" lon="-1.35563">
        <ele>59</ele>
        <time>2022-04-16T12:30:59Z</time>
      </trkpt>
      <trkpt lat="47.30979" lon="-1.35575">
        <ele>59</ele>
        <time>2022-04-16T12:31:01Z</time>
      </trkpt>
      <trkpt lat="47.30969" lon="-1.35587">
        <ele>59</ele>
        <time>2022-04-16T12:31:03Z</time>
      </trkpt>
      <trkpt lat="47.30959" lon="-1.35598">
        <ele>59</ele>
        <time>2022-04-16T12:31:05Z</time>
      </trkpt>
      <trkpt lat="47.30949" lon="-1.3561">
        <ele>59</ele>
        <time>2022-04-16T12:31:07Z</time>
      </trkpt>
      <trkpt lat="47.30939" lon="-1.35621">
        <ele>60</ele>
        <time>2022-04-16T12:31:09Z</time>
      </trkpt>
      <trkpt lat="47.3093" lon="-1.35633">
        <ele>60</ele>
        <time>2022-04-16T12:31:11Z</time>
      </trkpt>
      <trkpt lat="47.3092" lon="-1.35644">
        <ele>60</ele>
        <time>2022-04-16T12:31:13Z</time>
      </trkpt>
      <trkpt lat="47.30911" lon="-1.35656">
        <ele>60</ele>
        <time>2022-04-16T12:31:15Z</time>
      </trkpt>
      <trkpt lat="47.30901" lon="-1.35667">
        <ele>61</ele>
        <time>2022-04-16T12:31:17Z</time>
      </trkpt>
      <trkpt lat="47.30892" lon="-1.35678">
        <ele>61</ele>
        <time>2022-04-16T12:31:19Z</time>
      </trkpt>
      <trkpt lat="47.30884" lon="-1.35688">
        <ele>61</ele>
        <time>2022-04-16T12:31:21Z</time>
      </trkpt>
      <trkpt lat="47.30875" lon="-1.35698">
        <ele>61</ele>
        <time>2022-04-16T12:31:23Z</time>
      </trkpt>
      <trkpt lat="47.30865" lon="-1.35709">
        <ele>61</ele>
        <time>2022-04-16T12:31:25Z</time>
      </trkpt>
      <trkpt lat="47.30855" lon="-1.35721">
        <ele>62</ele>
        <time>2022-04-16T12:31:27Z</time>
      </trkpt>
      <trkpt lat="47.30844" lon="-1.35734">
        <ele>62</ele>
        <time>2022-04-16T12:31:29Z</time>
      </trkpt>
      <trkpt lat="47.30834" lon="-1.35746">
        <ele>62</ele>
        <time>2022-04-16T12:31:31Z</time>
      </trkpt>
      <trkpt lat="47.30823" lon="-1.35758">
        <ele>62</ele>
        <time>2022-04-16T12:31:33Z</time>
      </trkpt>
      <trkpt lat="47.30813" lon="-1.3577">
        <ele>63</ele>
        <time>2022-04-16T12:31:35Z</time>
      </trkpt>
      <trkpt lat="47.30802" lon="-1.35782">
        <ele>63</ele>
        <time>2022-04-16T12:31:37Z</time>
      </trkpt>
      <trkpt lat="47.30792" lon="-1.35794">
        <ele>63</ele>
        <time>2022-04-16T12:31:39Z</time>
      </trkpt>
      <trkpt lat="47.30782" lon="-1.35807">
        <ele>63</ele>
        <time>2022-04-16T12:31:41Z</time>
      </trkpt>
      <trkpt lat="47.30771" lon="-1.35819">
        <ele>64</ele>
        <time>2022-04-16T12:31:43Z</time>
      </trkpt>
      <trkpt lat="47.30761" lon="-1.35832">
        <ele>64</ele>
        <time>2022-04-16T12:31:45Z</time>
      </trkpt>
      <trkpt lat="47.3075" lon="-1.35844">
        <ele>64</ele>
        <time>2022-04-16T12:31:47Z</time>
      </trkpt>
      <trkpt lat="47.3074" lon="-1.35856">
        <ele>64</ele>
        <time>2022-04-16T12:31:49Z</time>
      </trkpt>
      <trkpt lat="47.3073" lon="-1.35868">
        <ele>64</ele>
        <time>2022-04-16T12:31:51Z</time>
      </trkpt>
      <trkpt lat="47.3072" lon="-1.3588">
        <ele>63</ele>
        <time>2022-04-16T12:31:53Z</time>
      </trkpt>
      <trkpt lat="47.3071" lon="-1.35892">
        <ele>63</ele>
        <time>2022-04-16T12:31:55Z</time>
      </trkpt>
      <trkpt lat="47.30699" lon="-1.35903">
        <ele>64</ele>
        <time>2022-04-16T12:31:57Z</time>
      </trkpt>
      <trkpt lat="47.30689" lon="-1.35915">
        <ele>64</ele>
        <time>2022-04-16T12:31:59Z</time>
      </trkpt>
      <trkpt lat="47.30679" lon="-1.35927">
        <ele>64</ele>
        <time>2022-04-16T12:32:01Z</time>
      </trkpt>
      <trkpt lat="47.30669" lon="-1.3594">
        <ele>63</ele>
        <time>2022-04-16T12:32:03Z</time>
      </trkpt>
      <trkpt lat="47.30659" lon="-1.35952">
        <ele>64</ele>
        <time>2022-04-16T12:32:05Z</time>
      </trkpt>
      <trkpt lat="47.30648" lon="-1.35964">
        <ele>64</ele>
        <time>2022-04-16T12:32:07Z</time>
      </trkpt>
      <trkpt lat="47.30637" lon="-1.35975">
        <ele>63</ele>
        <time>2022-04-16T12:32:09Z</time>
      </trkpt>
      <trkpt lat="47.30628" lon="-1.35987">
        <ele>63</ele>
        <time>2022-04-16T12:32:11Z</time>
      </trkpt>
      <trkpt lat="47.30618" lon="-1.35999">
        <ele>63</ele>
        <time>2022-04-16T12:32:13Z</time>
      </trkpt>
      <trkpt lat="47.30608" lon="-1.36009">
        <ele>62</ele>
        <time>2022-04-16T12:32:15Z</time>
      </trkpt>
      <trkpt lat="47.30598" lon="-1.36019">
        <ele>61</ele>
        <time>2022-04-16T12:32:17Z</time>
      </trkpt>
      <trkpt lat="47.3059" lon="-1.36027">
        <ele>61</ele>
        <time>2022-04-16T12:32:19Z</time>
      </trkpt>
      <trkpt lat="47.30584" lon="-1.36043">
        <ele>62</ele>
        <time>2022-04-16T12:32:35Z</time>
      </trkpt>
      <trkpt lat="47.30578" lon="-1.36054">
        <ele>62</ele>
        <time>2022-04-16T12:32:37Z</time>
      </trkpt>
      <trkpt lat="47.30568" lon="-1.36066">
        <ele>63</ele>
        <time>2022-04-16T12:32:39Z</time>
      </trkpt>
      <trkpt lat="47.30559" lon="-1.36079">
        <ele>62</ele>
        <time>2022-04-16T12:32:41Z</time>
      </trkpt>
      <trkpt lat="47.30549" lon="-1.36093">
        <ele>62</ele>
        <time>2022-04-16T12:32:43Z</time>
      </trkpt>
      <trkpt lat="47.30541" lon="-1.36106">
        <ele>62</ele>
        <time>2022-04-16T12:32:45Z</time>
      </trkpt>
      <trkpt lat="47.30533" lon="-1.36121">
        <ele>62</ele>
        <time>2022-04-16T12:32:47Z</time>
      </trkpt>
      <trkpt lat="47.30524" lon="-1.36135">
        <ele>62</ele>
        <time>2022-04-16T12:32:49Z</time>
      </trkpt>
      <trkpt lat="47.30516" lon="-1.36149">
        <ele>62</ele>
        <time>2022-04-16T12:32:51Z</time>
      </trkpt>
      <trkpt lat="47.30507" lon="-1.36164">
        <ele>62</ele>
        <time>2022-04-16T12:32:53Z</time>
      </trkpt>
      <trkpt lat="47.30498" lon="-1.36179">
        <ele>62</ele>
        <time>2022-04-16T12:32:55Z</time>
      </trkpt>
      <trkpt lat="47.30489" lon="-1.36195">
        <ele>61</ele>
        <time>2022-04-16T12:32:57Z</time>
      </trkpt>
      <trkpt lat="47.30481" lon="-1.36211">
        <ele>61</ele>
        <time>2022-04-16T12:32:59Z</time>
      </trkpt>
      <trkpt lat="47.30474" lon="-1.36226">
        <ele>61</ele>
        <time>2022-04-16T12:33:01Z</time>
      </trkpt>
      <trkpt lat="47.30466" lon="-1.36241">
        <ele>61</ele>
        <time>2022-04-16T12:33:03Z</time>
      </trkpt>
      <trkpt lat="47.30459" lon="-1.36257">
        <ele>60</ele>
        <time>2022-04-16T12:33:05Z</time>
      </trkpt>
      <trkpt lat="47.30451" lon="-1.36273">
        <ele>60</ele>
        <time>2022-04-16T12:33:07Z</time>
      </trkpt>
      <trkpt lat="47.30443" lon="-1.36289">
        <ele>60</ele>
        <time>2022-04-16T12:33:09Z</time>
      </trkpt>
      <trkpt lat="47.30434" lon="-1.36305">
        <ele>60</ele>
        <time>2022-04-16T12:33:11Z</time>
      </trkpt>
      <trkpt lat="47.30427" lon="-1.36321">
        <ele>60</ele>
        <time>2022-04-16T12:33:13Z</time>
      </trkpt>
      <trkpt lat="47.30421" lon="-1.36337">
        <ele>60</ele>
        <time>2022-04-16T12:33:15Z</time>
      </trkpt>
      <trkpt lat="47.30414" lon="-1.36352">
        <ele>61</ele>
        <time>2022-04-16T12:33:17Z</time>
      </trkpt>
      <trkpt lat="47.30406" lon="-1.36368">
        <ele>61</ele>
        <time>2022-04-16T12:33:19Z</time>
      </trkpt>
      <trkpt lat="47.30398" lon="-1.36384">
        <ele>61</ele>
        <time>2022-04-16T12:33:21Z</time>
      </trkpt>
      <trkpt lat="47.3039" lon="-1.364">
        <ele>61</ele>
        <time>2022-04-16T12:33:23Z</time>
      </trkpt>
      <trkpt lat="47.30382" lon="-1.36415">
        <ele>62</ele>
        <time>2022-04-16T12:33:25Z</time>
      </trkpt>
      <trkpt lat="47.30375" lon="-1.36431">
        <ele>62</ele>
        <time>2022-04-16T12:33:27Z</time>
      </trkpt>
      <trkpt lat="47.30367" lon="-1.36447">
        <ele>62</ele>
        <time>2022-04-16T12:33:29Z</time>
      </trkpt>
      <trkpt lat="47.3036" lon="-1.36462">
        <ele>62</ele>
        <time>2022-04-16T12:33:31Z</time>
      </trkpt>
      <trkpt lat="47.30353" lon="-1.36478">
        <ele>62</ele>
        <time>2022-04-16T12:33:33Z</time>
      </trkpt>
      <trkpt lat="47.30345" lon="-1.36493">
        <ele>61</ele>
        <time>2022-04-16T12:33:35Z</time>
      </trkpt>
      <trkpt lat="47.30337" lon="-1.36508">
        <ele>61</ele>
        <time>2022-04-16T12:33:37Z</time>
      </trkpt>
      <trkpt lat="47.3033" lon="-1.36524">
        <ele>61</ele>
        <time>2022-04-16T12:33:39Z</time>
      </trkpt>
      <trkpt lat="47.30323" lon="-1.3654">
        <ele>62</ele>
        <time>2022-04-16T12:33:41Z</time>
      </trkpt>
      <trkpt lat="47.30316" lon="-1.36555">
        <ele>62</ele>
        <time>2022-04-16T12:33:43Z</time>
      </trkpt>
      <trkpt lat="47.30308" lon="-1.3657">
        <ele>63</ele>
        <time>2022-04-16T12:33:45Z</time>
      </trkpt>
      <trkpt lat="47.30301" lon="-1.36585">
        <ele>63</ele>
        <time>2022-04-16T12:33:47Z</time>
      </trkpt>
      <trkpt lat="47.30293" lon="-1.36601">
        <ele>64</ele>
        <time>2022-04-16T12:33:49Z</time>
      </trkpt>
      <trkpt lat="47.30286" lon="-1.36617">
        <ele>64</ele>
        <time>2022-04-16T12:33:51Z</time>
      </trkpt>
      <trkpt lat="47.30277" lon="-1.36633">
        <ele>65</ele>
        <time>2022-04-16T12:33:53Z</time>
      </trkpt>
      <trkpt lat="47.30269" lon="-1.36649">
        <ele>65</ele>
        <time>2022-04-16T12:33:55Z</time>
      </trkpt>
      <trkpt lat="47.30261" lon="-1.36665">
        <ele>64</ele>
        <time>2022-04-16T12:33:57Z</time>
      </trkpt>
      <trkpt lat="47.30253" lon="-1.36681">
        <ele>64</ele>
        <time>2022-04-16T12:33:59Z</time>
      </trkpt>
      <trkpt lat="47.30245" lon="-1.36697">
        <ele>64</ele>
        <time>2022-04-16T12:34:01Z</time>
      </trkpt>
      <trkpt lat="47.30238" lon="-1.36712">
        <ele>64</ele>
        <time>2022-04-16T12:34:03Z</time>
      </trkpt>
      <trkpt lat="47.30231" lon="-1.36726">
        <ele>64</ele>
        <time>2022-04-16T12:34:05Z</time>
      </trkpt>
      <trkpt lat="47.30224" lon="-1.36741">
        <ele>64</ele>
        <time>2022-04-16T12:34:07Z</time>
      </trkpt>
      <trkpt lat="47.30217" lon="-1.36756">
        <ele>64</ele>
        <time>2022-04-16T12:34:09Z</time>
      </trkpt>
      <trkpt lat="47.30209" lon="-1.36771">
        <ele>63</ele>
        <time>2022-04-16T12:34:11Z</time>
      </trkpt>
      <trkpt lat="47.30202" lon="-1.36786">
        <ele>63</ele>
        <time>2022-04-16T12:34:13Z</time>
      </trkpt>
      <trkpt lat="47.30195" lon="-1.368">
        <ele>63</ele>
        <time>2022-04-16T12:34:15Z</time>
      </trkpt>
      <trkpt lat="47.30189" lon="-1.36815">
        <ele>64</ele>
        <time>2022-04-16T12:34:17Z</time>
      </trkpt>
      <trkpt lat="47.30182" lon="-1.3683">
        <ele>64</ele>
        <time>2022-04-16T12:34:19Z</time>
      </trkpt>
      <trkpt lat="47.30174" lon="-1.36845">
        <ele>65</ele>
        <time>2022-04-16T12:34:21Z</time>
      </trkpt>
      <trkpt lat="47.30167" lon="-1.3686">
        <ele>64</ele>
        <time>2022-04-16T12:34:23Z</time>
      </trkpt>
      <trkpt lat="47.3016" lon="-1.36875">
        <ele>64</ele>
        <time>2022-04-16T12:34:25Z</time>
      </trkpt>
      <trkpt lat="47.30152" lon="-1.3689">
        <ele>63</ele>
        <time>2022-04-16T12:34:27Z</time>
      </trkpt>
      <trkpt lat="47.30144" lon="-1.36905">
        <ele>62</ele>
        <time>2022-04-16T12:34:29Z</time>
      </trkpt>
      <trkpt lat="47.30136" lon="-1.3692">
        <ele>61</ele>
        <time>2022-04-16T12:34:31Z</time>
      </trkpt>
      <trkpt lat="47.30129" lon="-1.36934">
        <ele>61</ele>
        <time>2022-04-16T12:34:33Z</time>
      </trkpt>
      <trkpt lat="47.30122" lon="-1.36949">
        <ele>61</ele>
        <time>2022-04-16T12:34:35Z</time>
      </trkpt>
      <trkpt lat="47.30118" lon="-1.36965">
        <ele>61</ele>
        <time>2022-04-16T12:34:37Z</time>
      </trkpt>
      <trkpt lat="47.30112" lon="-1.36979">
        <ele>61</ele>
        <time>2022-04-16T12:34:39Z</time>
      </trkpt>
      <trkpt lat="47.30105" lon="-1.36993">
        <ele>60</ele>
        <time>2022-04-16T12:34:41Z</time>
      </trkpt>
      <trkpt lat="47.30098" lon="-1.37007">
        <ele>60</ele>
        <time>2022-04-16T12:34:43Z</time>
      </trkpt>
      <trkpt lat="47.30091" lon="-1.37021">
        <ele>60</ele>
        <time>2022-04-16T12:34:45Z</time>
      </trkpt>
      <trkpt lat="47.30083" lon="-1.37036">
        <ele>59</ele>
        <time>2022-04-16T12:34:47Z</time>
      </trkpt>
      <trkpt lat="47.30076" lon="-1.3705">
        <ele>59</ele>
        <time>2022-04-16T12:34:49Z</time>
      </trkpt>
      <trkpt lat="47.30068" lon="-1.37064">
        <ele>59</ele>
        <time>2022-04-16T12:34:51Z</time>
      </trkpt>
      <trkpt lat="47.3006" lon="-1.37079">
        <ele>59</ele>
        <time>2022-04-16T12:34:53Z</time>
      </trkpt>
      <trkpt lat="47.30052" lon="-1.37093">
        <ele>59</ele>
        <time>2022-04-16T12:34:55Z</time>
      </trkpt>
      <trkpt lat="47.30044" lon="-1.37106">
        <ele>59</ele>
        <time>2022-04-16T12:34:57Z</time>
      </trkpt>
      <trkpt lat="47.30036" lon="-1.3712">
        <ele>58</ele>
        <time>2022-04-16T12:34:59Z</time>
      </trkpt>
      <trkpt lat="47.30028" lon="-1.37132">
        <ele>59</ele>
        <time>2022-04-16T12:35:01Z</time>
      </trkpt>
      <trkpt lat="47.30019" lon="-1.37146">
        <ele>59</ele>
        <time>2022-04-16T12:35:03Z</time>
      </trkpt>
      <trkpt lat="47.3001" lon="-1.37158">
        <ele>58</ele>
        <time>2022-04-16T12:35:05Z</time>
      </trkpt>
      <trkpt lat="47.30001" lon="-1.37172">
        <ele>58</ele>
        <time>2022-04-16T12:35:07Z</time>
      </trkpt>
      <trkpt lat="47.29992" lon="-1.37185">
        <ele>57</ele>
        <time>2022-04-16T12:35:09Z</time>
      </trkpt>
      <trkpt lat="47.29983" lon="-1.37199">
        <ele>57</ele>
        <time>2022-04-16T12:35:11Z</time>
      </trkpt>
      <trkpt lat="47.29975" lon="-1.37213">
        <ele>58</ele>
        <time>2022-04-16T12:35:13Z</time>
      </trkpt>
      <trkpt lat="47.29966" lon="-1.37227">
        <ele>58</ele>
        <time>2022-04-16T12:35:15Z</time>
      </trkpt>
      <trkpt lat="47.29958" lon="-1.3724">
        <ele>58</ele>
        <time>2022-04-16T12:35:17Z</time>
      </trkpt>
      <trkpt lat="47.2995" lon="-1.37253">
        <ele>57</ele>
        <time>2022-04-16T12:35:19Z</time>
      </trkpt>
      <trkpt lat="47.2994" lon="-1.37266">
        <ele>57</ele>
        <time>2022-04-16T12:35:21Z</time>
      </trkpt>
      <trkpt lat="47.29932" lon="-1.3728">
        <ele>57</ele>
        <time>2022-04-16T12:35:23Z</time>
      </trkpt>
      <trkpt lat="47.29923" lon="-1.37294">
        <ele>57</ele>
        <time>2022-04-16T12:35:25Z</time>
      </trkpt>
      <trkpt lat="47.29914" lon="-1.37308">
        <ele>56</ele>
        <time>2022-04-16T12:35:27Z</time>
      </trkpt>
      <trkpt lat="47.29905" lon="-1.37322">
        <ele>56</ele>
        <time>2022-04-16T12:35:29Z</time>
      </trkpt>
      <trkpt lat="47.29896" lon="-1.37337">
        <ele>56</ele>
        <time>2022-04-16T12:35:31Z</time>
      </trkpt>
      <trkpt lat="47.29887" lon="-1.37351">
        <ele>56</ele>
        <time>2022-04-16T12:35:33Z</time>
      </trkpt>
      <trkpt lat="47.29878" lon="-1.37364">
        <ele>56</ele>
        <time>2022-04-16T12:35:35Z</time>
      </trkpt>
      <trkpt lat="47.2987" lon="-1.37378">
        <ele>57</ele>
        <time>2022-04-16T12:35:37Z</time>
      </trkpt>
      <trkpt lat="47.29861" lon="-1.37391">
        <ele>57</ele>
        <time>2022-04-16T12:35:39Z</time>
      </trkpt>
      <trkpt lat="47.29851" lon="-1.37404">
        <ele>56</ele>
        <time>2022-04-16T12:35:41Z</time>
      </trkpt>
      <trkpt lat="47.29842" lon="-1.37417">
        <ele>56</ele>
        <time>2022-04-16T12:35:43Z</time>
      </trkpt>
      <trkpt lat="47.29833" lon="-1.37431">
        <ele>56</ele>
        <time>2022-04-16T12:35:45Z</time>
      </trkpt>
      <trkpt lat="47.29825" lon="-1.37444">
        <ele>56</ele>
        <time>2022-04-16T12:35:47Z</time>
      </trkpt>
      <trkpt lat="47.29817" lon="-1.37456">
        <ele>56</ele>
        <time>2022-04-16T12:35:49Z</time>
      </trkpt>
      <trkpt lat="47.29809" lon="-1.37469">
        <ele>57</ele>
        <time>2022-04-16T12:35:51Z</time>
      </trkpt>
      <trkpt lat="47.29801" lon="-1.37484">
        <ele>56</ele>
        <time>2022-04-16T12:35:53Z</time>
      </trkpt>
      <trkpt lat="47.29792" lon="-1.37498">
        <ele>56</ele>
        <time>2022-04-16T12:35:55Z</time>
      </trkpt>
      <trkpt lat="47.29784" lon="-1.37512">
        <ele>56</ele>
        <time>2022-04-16T12:35:57Z</time>
      </trkpt>
      <trkpt lat="47.29776" lon="-1.37527">
        <ele>56</ele>
        <time>2022-04-16T12:35:59Z</time>
      </trkpt>
      <trkpt lat="47.29768" lon="-1.37541">
        <ele>56</ele>
        <time>2022-04-16T12:36:01Z</time>
      </trkpt>
      <trkpt lat="47.29761" lon="-1.37556">
        <ele>56</ele>
        <time>2022-04-16T12:36:03Z</time>
      </trkpt>
      <trkpt lat="47.29753" lon="-1.37571">
        <ele>57</ele>
        <time>2022-04-16T12:36:05Z</time>
      </trkpt>
      <trkpt lat="47.29746" lon="-1.37586">
        <ele>56</ele>
        <time>2022-04-16T12:36:07Z</time>
      </trkpt>
      <trkpt lat="47.29738" lon="-1.37601">
        <ele>56</ele>
        <time>2022-04-16T12:36:09Z</time>
      </trkpt>
      <trkpt lat="47.2973" lon="-1.37616">
        <ele>56</ele>
        <time>2022-04-16T12:36:11Z</time>
      </trkpt>
      <trkpt lat="47.29723" lon="-1.37631">
        <ele>56</ele>
        <time>2022-04-16T12:36:13Z</time>
      </trkpt>
      <trkpt lat="47.29715" lon="-1.37646">
        <ele>56</ele>
        <time>2022-04-16T12:36:15Z</time>
      </trkpt>
      <trkpt lat="47.29708" lon="-1.37661">
        <ele>56</ele>
        <time>2022-04-16T12:36:17Z</time>
      </trkpt>
      <trkpt lat="47.297" lon="-1.37676">
        <ele>57</ele>
        <time>2022-04-16T12:36:19Z</time>
      </trkpt>
      <trkpt lat="47.29693" lon="-1.37691">
        <ele>57</ele>
        <time>2022-04-16T12:36:21Z</time>
      </trkpt>
      <trkpt lat="47.29686" lon="-1.37705">
        <ele>57</ele>
        <time>2022-04-16T12:36:23Z</time>
      </trkpt>
      <trkpt lat="47.29679" lon="-1.3772">
        <ele>57</ele>
        <time>2022-04-16T12:36:25Z</time>
      </trkpt>
      <trkpt lat="47.29671" lon="-1.37735">
        <ele>57</ele>
        <time>2022-04-16T12:36:27Z</time>
      </trkpt>
      <trkpt lat="47.29664" lon="-1.3775">
        <ele>57</ele>
        <time>2022-04-16T12:36:29Z</time>
      </trkpt>
      <trkpt lat="47.29656" lon="-1.37766">
        <ele>57</ele>
        <time>2022-04-16T12:36:31Z</time>
      </trkpt>
      <trkpt lat="47.29649" lon="-1.37781">
        <ele>57</ele>
        <time>2022-04-16T12:36:33Z</time>
      </trkpt>
      <trkpt lat="47.29641" lon="-1.37795">
        <ele>57</ele>
        <time>2022-04-16T12:36:35Z</time>
      </trkpt>
      <trkpt lat="47.29632" lon="-1.37807">
        <ele>57</ele>
        <time>2022-04-16T12:36:37Z</time>
      </trkpt>
      <trkpt lat="47.29624" lon="-1.37821">
        <ele>57</ele>
        <time>2022-04-16T12:36:39Z</time>
      </trkpt>
      <trkpt lat="47.29617" lon="-1.37837">
        <ele>57</ele>
        <time>2022-04-16T12:36:41Z</time>
      </trkpt>
      <trkpt lat="47.29609" lon="-1.37852">
        <ele>57</ele>
        <time>2022-04-16T12:36:43Z</time>
      </trkpt>
      <trkpt lat="47.29601" lon="-1.37868">
        <ele>57</ele>
        <time>2022-04-16T12:36:45Z</time>
      </trkpt>
      <trkpt lat="47.29593" lon="-1.37883">
        <ele>57</ele>
        <time>2022-04-16T12:36:47Z</time>
      </trkpt>
      <trkpt lat="47.29586" lon="-1.37898">
        <ele>57</ele>
        <time>2022-04-16T12:36:49Z</time>
      </trkpt>
      <trkpt lat="47.29579" lon="-1.37914">
        <ele>57</ele>
        <time>2022-04-16T12:36:51Z</time>
      </trkpt>
      <trkpt lat="47.29573" lon="-1.37929">
        <ele>57</ele>
        <time>2022-04-16T12:36:53Z</time>
      </trkpt>
      <trkpt lat="47.29566" lon="-1.37944">
        <ele>57</ele>
        <time>2022-04-16T12:36:55Z</time>
      </trkpt>
      <trkpt lat="47.2956" lon="-1.37959">
        <ele>57</ele>
        <time>2022-04-16T12:36:57Z</time>
      </trkpt>
      <trkpt lat="47.29554" lon="-1.37976">
        <ele>58</ele>
        <time>2022-04-16T12:36:59Z</time>
      </trkpt>
      <trkpt lat="47.29548" lon="-1.37992">
        <ele>58</ele>
        <time>2022-04-16T12:37:01Z</time>
      </trkpt>
      <trkpt lat="47.29542" lon="-1.38009">
        <ele>58</ele>
        <time>2022-04-16T12:37:03Z</time>
      </trkpt>
      <trkpt lat="47.29536" lon="-1.38025">
        <ele>58</ele>
        <time>2022-04-16T12:37:05Z</time>
      </trkpt>
      <trkpt lat="47.2953" lon="-1.38041">
        <ele>59</ele>
        <time>2022-04-16T12:37:07Z</time>
      </trkpt>
      <trkpt lat="47.29525" lon="-1.38057">
        <ele>59</ele>
        <time>2022-04-16T12:37:09Z</time>
      </trkpt>
      <trkpt lat="47.29519" lon="-1.38074">
        <ele>58</ele>
        <time>2022-04-16T12:37:11Z</time>
      </trkpt>
      <trkpt lat="47.29514" lon="-1.38091">
        <ele>58</ele>
        <time>2022-04-16T12:37:13Z</time>
      </trkpt>
      <trkpt lat="47.29509" lon="-1.38108">
        <ele>58</ele>
        <time>2022-04-16T12:37:15Z</time>
      </trkpt>
      <trkpt lat="47.29505" lon="-1.38125">
        <ele>58</ele>
        <time>2022-04-16T12:37:17Z</time>
      </trkpt>
      <trkpt lat="47.295" lon="-1.38143">
        <ele>59</ele>
        <time>2022-04-16T12:37:19Z</time>
      </trkpt>
      <trkpt lat="47.29496" lon="-1.3816">
        <ele>58</ele>
        <time>2022-04-16T12:37:21Z</time>
      </trkpt>
      <trkpt lat="47.29491" lon="-1.38178">
        <ele>58</ele>
        <time>2022-04-16T12:37:23Z</time>
      </trkpt>
      <trkpt lat="47.29486" lon="-1.38194">
        <ele>59</ele>
        <time>2022-04-16T12:37:25Z</time>
      </trkpt>
      <trkpt lat="47.29481" lon="-1.38211">
        <ele>59</ele>
        <time>2022-04-16T12:37:27Z</time>
      </trkpt>
      <trkpt lat="47.29476" lon="-1.38229">
        <ele>59</ele>
        <time>2022-04-16T12:37:29Z</time>
      </trkpt>
      <trkpt lat="47.29472" lon="-1.38246">
        <ele>60</ele>
        <time>2022-04-16T12:37:31Z</time>
      </trkpt>
      <trkpt lat="47.29467" lon="-1.38263">
        <ele>60</ele>
        <time>2022-04-16T12:37:33Z</time>
      </trkpt>
      <trkpt lat="47.29463" lon="-1.3828">
        <ele>60</ele>
        <time>2022-04-16T12:37:35Z</time>
      </trkpt>
      <trkpt lat="47.29458" lon="-1.38297">
        <ele>60</ele>
        <time>2022-04-16T12:37:37Z</time>
      </trkpt>
      <trkpt lat="47.29453" lon="-1.38312">
        <ele>60</ele>
        <time>2022-04-16T12:37:39Z</time>
      </trkpt>
      <trkpt lat="47.29448" lon="-1.38325">
        <ele>61</ele>
        <time>2022-04-16T12:37:41Z</time>
      </trkpt>
      <trkpt lat="47.29441" lon="-1.38337">
        <ele>62</ele>
        <time>2022-04-16T12:37:43Z</time>
      </trkpt>
      <trkpt lat="47.29438" lon="-1.38352">
        <ele>61</ele>
        <time>2022-04-16T12:37:45Z</time>
      </trkpt>
      <trkpt lat="47.29435" lon="-1.38369">
        <ele>61</ele>
        <time>2022-04-16T12:37:47Z</time>
      </trkpt>
      <trkpt lat="47.29431" lon="-1.38387">
        <ele>60</ele>
        <time>2022-04-16T12:37:49Z</time>
      </trkpt>
      <trkpt lat="47.29426" lon="-1.38405">
        <ele>60</ele>
        <time>2022-04-16T12:37:51Z</time>
      </trkpt>
      <trkpt lat="47.29422" lon="-1.38423">
        <ele>59</ele>
        <time>2022-04-16T12:37:53Z</time>
      </trkpt>
      <trkpt lat="47.29417" lon="-1.3844">
        <ele>60</ele>
        <time>2022-04-16T12:37:55Z</time>
      </trkpt>
      <trkpt lat="47.29413" lon="-1.38458">
        <ele>59</ele>
        <time>2022-04-16T12:37:57Z</time>
      </trkpt>
      <trkpt lat="47.29408" lon="-1.38476">
        <ele>60</ele>
        <time>2022-04-16T12:37:59Z</time>
      </trkpt>
      <trkpt lat="47.29401" lon="-1.38492">
        <ele>59</ele>
        <time>2022-04-16T12:38:01Z</time>
      </trkpt>
      <trkpt lat="47.29394" lon="-1.38508">
        <ele>59</ele>
        <time>2022-04-16T12:38:03Z</time>
      </trkpt>
      <trkpt lat="47.29388" lon="-1.38524">
        <ele>59</ele>
        <time>2022-04-16T12:38:05Z</time>
      </trkpt>
      <trkpt lat="47.29382" lon="-1.38542">
        <ele>59</ele>
        <time>2022-04-16T12:38:07Z</time>
      </trkpt>
      <trkpt lat="47.29376" lon="-1.38559">
        <ele>58</ele>
        <time>2022-04-16T12:38:09Z</time>
      </trkpt>
      <trkpt lat="47.2937" lon="-1.38577">
        <ele>58</ele>
        <time>2022-04-16T12:38:11Z</time>
      </trkpt>
      <trkpt lat="47.29363" lon="-1.38597">
        <ele>57</ele>
        <time>2022-04-16T12:38:13Z</time>
      </trkpt>
      <trkpt lat="47.29357" lon="-1.38617">
        <ele>57</ele>
        <time>2022-04-16T12:38:15Z</time>
      </trkpt>
      <trkpt lat="47.29352" lon="-1.38635">
        <ele>57</ele>
        <time>2022-04-16T12:38:17Z</time>
      </trkpt>
      <trkpt lat="47.29346" lon="-1.38654">
        <ele>57</ele>
        <time>2022-04-16T12:38:19Z</time>
      </trkpt>
      <trkpt lat="47.2934" lon="-1.38672">
        <ele>57</ele>
        <time>2022-04-16T12:38:21Z</time>
      </trkpt>
      <trkpt lat="47.29334" lon="-1.38689">
        <ele>57</ele>
        <time>2022-04-16T12:38:23Z</time>
      </trkpt>
      <trkpt lat="47.29328" lon="-1.38705">
        <ele>57</ele>
        <time>2022-04-16T12:38:25Z</time>
      </trkpt>
      <trkpt lat="47.29323" lon="-1.38722">
        <ele>56</ele>
        <time>2022-04-16T12:38:27Z</time>
      </trkpt>
      <trkpt lat="47.29321" lon="-1.38741">
        <ele>56</ele>
        <time>2022-04-16T12:38:29Z</time>
      </trkpt>
      <trkpt lat="47.29317" lon="-1.38758">
        <ele>56</ele>
        <time>2022-04-16T12:38:31Z</time>
      </trkpt>
      <trkpt lat="47.29313" lon="-1.38775">
        <ele>56</ele>
        <time>2022-04-16T12:38:33Z</time>
      </trkpt>
      <trkpt lat="47.29309" lon="-1.38792">
        <ele>57</ele>
        <time>2022-04-16T12:38:35Z</time>
      </trkpt>
      <trkpt lat="47.29304" lon="-1.38809">
        <ele>57</ele>
        <time>2022-04-16T12:38:37Z</time>
      </trkpt>
      <trkpt lat="47.29299" lon="-1.38827">
        <ele>57</ele>
        <time>2022-04-16T12:38:39Z</time>
      </trkpt>
      <trkpt lat="47.29294" lon="-1.38845">
        <ele>57</ele>
        <time>2022-04-16T12:38:41Z</time>
      </trkpt>
      <trkpt lat="47.29289" lon="-1.38863">
        <ele>57</ele>
        <time>2022-04-16T12:38:43Z</time>
      </trkpt>
      <trkpt lat="47.29285" lon="-1.38881">
        <ele>57</ele>
        <time>2022-04-16T12:38:45Z</time>
      </trkpt>
      <trkpt lat="47.2928" lon="-1.389">
        <ele>57</ele>
        <time>2022-04-16T12:38:47Z</time>
      </trkpt>
      <trkpt lat="47.29275" lon="-1.38918">
        <ele>57</ele>
        <time>2022-04-16T12:38:49Z</time>
      </trkpt>
      <trkpt lat="47.2927" lon="-1.38936">
        <ele>57</ele>
        <time>2022-04-16T12:38:51Z</time>
      </trkpt>
      <trkpt lat="47.29265" lon="-1.38954">
        <ele>57</ele>
        <time>2022-04-16T12:38:53Z</time>
      </trkpt>
      <trkpt lat="47.2926" lon="-1.38971">
        <ele>57</ele>
        <time>2022-04-16T12:38:55Z</time>
      </trkpt>
      <trkpt lat="47.29255" lon="-1.38989">
        <ele>57</ele>
        <time>2022-04-16T12:38:57Z</time>
      </trkpt>
      <trkpt lat="47.29251" lon="-1.39006">
        <ele>58</ele>
        <time>2022-04-16T12:38:59Z</time>
      </trkpt>
      <trkpt lat="47.29246" lon="-1.39024">
        <ele>58</ele>
        <time>2022-04-16T12:39:01Z</time>
      </trkpt>
      <trkpt lat="47.29242" lon="-1.39042">
        <ele>58</ele>
        <time>2022-04-16T12:39:03Z</time>
      </trkpt>
      <trkpt lat="47.29237" lon="-1.3906">
        <ele>58</ele>
        <time>2022-04-16T12:39:05Z</time>
      </trkpt>
      <trkpt lat="47.29232" lon="-1.39077">
        <ele>58</ele>
        <time>2022-04-16T12:39:07Z</time>
      </trkpt>
      <trkpt lat="47.29225" lon="-1.39093">
        <ele>58</ele>
        <time>2022-04-16T12:39:09Z</time>
      </trkpt>
      <trkpt lat="47.29217" lon="-1.39108">
        <ele>59</ele>
        <time>2022-04-16T12:39:11Z</time>
      </trkpt>
      <trkpt lat="47.29208" lon="-1.39123">
        <ele>59</ele>
        <time>2022-04-16T12:39:13Z</time>
      </trkpt>
      <trkpt lat="47.29199" lon="-1.39137">
        <ele>58</ele>
        <time>2022-04-16T12:39:15Z</time>
      </trkpt>
      <trkpt lat="47.29189" lon="-1.3915">
        <ele>59</ele>
        <time>2022-04-16T12:39:17Z</time>
      </trkpt>
      <trkpt lat="47.29179" lon="-1.39162">
        <ele>58</ele>
        <time>2022-04-16T12:39:19Z</time>
      </trkpt>
      <trkpt lat="47.29169" lon="-1.39174">
        <ele>58</ele>
        <time>2022-04-16T12:39:21Z</time>
      </trkpt>
      <trkpt lat="47.29158" lon="-1.39186">
        <ele>58</ele>
        <time>2022-04-16T12:39:23Z</time>
      </trkpt>
      <trkpt lat="47.29147" lon="-1.39199">
        <ele>58</ele>
        <time>2022-04-16T12:39:25Z</time>
      </trkpt>
      <trkpt lat="47.29136" lon="-1.39212">
        <ele>58</ele>
        <time>2022-04-16T12:39:27Z</time>
      </trkpt>
      <trkpt lat="47.29126" lon="-1.39224">
        <ele>58</ele>
        <time>2022-04-16T12:39:29Z</time>
      </trkpt>
      <trkpt lat="47.29115" lon="-1.39237">
        <ele>58</ele>
        <time>2022-04-16T12:39:31Z</time>
      </trkpt>
      <trkpt lat="47.29106" lon="-1.39251">
        <ele>58</ele>
        <time>2022-04-16T12:39:33Z</time>
      </trkpt>
      <trkpt lat="47.29097" lon="-1.39265">
        <ele>58</ele>
        <time>2022-04-16T12:39:35Z</time>
      </trkpt>
      <trkpt lat="47.29089" lon="-1.3928">
        <ele>58</ele>
        <time>2022-04-16T12:39:37Z</time>
      </trkpt>
      <trkpt lat="47.29075" lon="-1.39299">
        <ele>58</ele>
        <time>2022-04-16T12:39:40Z</time>
      </trkpt>
      <trkpt lat="47.2906" lon="-1.39315">
        <ele>58</ele>
        <time>2022-04-16T12:39:43Z</time>
      </trkpt>
      <trkpt lat="47.29045" lon="-1.39331">
        <ele>59</ele>
        <time>2022-04-16T12:39:46Z</time>
      </trkpt>
      <trkpt lat="47.29037" lon="-1.39344">
        <ele>59</ele>
        <time>2022-04-16T12:39:48Z</time>
      </trkpt>
      <trkpt lat="47.29028" lon="-1.39356">
        <ele>60</ele>
        <time>2022-04-16T12:39:50Z</time>
      </trkpt>
      <trkpt lat="47.29019" lon="-1.39369">
        <ele>61</ele>
        <time>2022-04-16T12:39:52Z</time>
      </trkpt>
      <trkpt lat="47.29009" lon="-1.39382">
        <ele>61</ele>
        <time>2022-04-16T12:39:54Z</time>
      </trkpt>
      <trkpt lat="47.28999" lon="-1.39396">
        <ele>61</ele>
        <time>2022-04-16T12:39:56Z</time>
      </trkpt>
      <trkpt lat="47.28988" lon="-1.39409">
        <ele>61</ele>
        <time>2022-04-16T12:39:58Z</time>
      </trkpt>
      <trkpt lat="47.28977" lon="-1.39422">
        <ele>61</ele>
        <time>2022-04-16T12:40:00Z</time>
      </trkpt>
      <trkpt lat="47.28967" lon="-1.39435">
        <ele>61</ele>
        <time>2022-04-16T12:40:02Z</time>
      </trkpt>
      <trkpt lat="47.28955" lon="-1.39448">
        <ele>62</ele>
        <time>2022-04-16T12:40:04Z</time>
      </trkpt>
      <trkpt lat="47.28944" lon="-1.3946">
        <ele>62</ele>
        <time>2022-04-16T12:40:06Z</time>
      </trkpt>
      <trkpt lat="47.28934" lon="-1.39475">
        <ele>63</ele>
        <time>2022-04-16T12:40:08Z</time>
      </trkpt>
      <trkpt lat="47.28923" lon="-1.39491">
        <ele>63</ele>
        <time>2022-04-16T12:40:10Z</time>
      </trkpt>
      <trkpt lat="47.2891" lon="-1.39505">
        <ele>63</ele>
        <time>2022-04-16T12:40:12Z</time>
      </trkpt>
      <trkpt lat="47.28897" lon="-1.39519">
        <ele>63</ele>
        <time>2022-04-16T12:40:14Z</time>
      </trkpt>
      <trkpt lat="47.28885" lon="-1.39534">
        <ele>62</ele>
        <time>2022-04-16T12:40:16Z</time>
      </trkpt>
      <trkpt lat="47.28872" lon="-1.39548">
        <ele>62</ele>
        <time>2022-04-16T12:40:18Z</time>
      </trkpt>
      <trkpt lat="47.28861" lon="-1.39563">
        <ele>62</ele>
        <time>2022-04-16T12:40:20Z</time>
      </trkpt>
      <trkpt lat="47.28849" lon="-1.39578">
        <ele>62</ele>
        <time>2022-04-16T12:40:22Z</time>
      </trkpt>
      <trkpt lat="47.28836" lon="-1.39592">
        <ele>62</ele>
        <time>2022-04-16T12:40:24Z</time>
      </trkpt>
      <trkpt lat="47.28824" lon="-1.39607">
        <ele>61</ele>
        <time>2022-04-16T12:40:26Z</time>
      </trkpt>
      <trkpt lat="47.28812" lon="-1.39622">
        <ele>61</ele>
        <time>2022-04-16T12:40:28Z</time>
      </trkpt>
      <trkpt lat="47.288" lon="-1.39636">
        <ele>61</ele>
        <time>2022-04-16T12:40:30Z</time>
      </trkpt>
      <trkpt lat="47.28788" lon="-1.3965">
        <ele>60</ele>
        <time>2022-04-16T12:40:32Z</time>
      </trkpt>
      <trkpt lat="47.28776" lon="-1.39664">
        <ele>61</ele>
        <time>2022-04-16T12:40:34Z</time>
      </trkpt>
      <trkpt lat="47.28765" lon="-1.39678">
        <ele>61</ele>
        <time>2022-04-16T12:40:36Z</time>
      </trkpt>
      <trkpt lat="47.28753" lon="-1.39693">
        <ele>61</ele>
        <time>2022-04-16T12:40:38Z</time>
      </trkpt>
      <trkpt lat="47.28741" lon="-1.39707">
        <ele>61</ele>
        <time>2022-04-16T12:40:40Z</time>
      </trkpt>
      <trkpt lat="47.28729" lon="-1.39722">
        <ele>61</ele>
        <time>2022-04-16T12:40:42Z</time>
      </trkpt>
      <trkpt lat="47.28717" lon="-1.39736">
        <ele>62</ele>
        <time>2022-04-16T12:40:44Z</time>
      </trkpt>
      <trkpt lat="47.28705" lon="-1.3975">
        <ele>62</ele>
        <time>2022-04-16T12:40:46Z</time>
      </trkpt>
      <trkpt lat="47.28693" lon="-1.39765">
        <ele>62</ele>
        <time>2022-04-16T12:40:48Z</time>
      </trkpt>
      <trkpt lat="47.28681" lon="-1.39779">
        <ele>61</ele>
        <time>2022-04-16T12:40:50Z</time>
      </trkpt>
      <trkpt lat="47.2867" lon="-1.39794">
        <ele>61</ele>
        <time>2022-04-16T12:40:52Z</time>
      </trkpt>
      <trkpt lat="47.2866" lon="-1.39809">
        <ele>61</ele>
        <time>2022-04-16T12:40:54Z</time>
      </trkpt>
      <trkpt lat="47.28649" lon="-1.39824">
        <ele>61</ele>
        <time>2022-04-16T12:40:56Z</time>
      </trkpt>
      <trkpt lat="47.28639" lon="-1.3984">
        <ele>61</ele>
        <time>2022-04-16T12:40:58Z</time>
      </trkpt>
      <trkpt lat="47.2863" lon="-1.39855">
        <ele>61</ele>
        <time>2022-04-16T12:41:00Z</time>
      </trkpt>
      <trkpt lat="47.2862" lon="-1.39871">
        <ele>61</ele>
        <time>2022-04-16T12:41:02Z</time>
      </trkpt>
      <trkpt lat="47.2861" lon="-1.39886">
        <ele>61</ele>
        <time>2022-04-16T12:41:04Z</time>
      </trkpt>
      <trkpt lat="47.286" lon="-1.39901">
        <ele>61</ele>
        <time>2022-04-16T12:41:06Z</time>
      </trkpt>
      <trkpt lat="47.2859" lon="-1.39917">
        <ele>61</ele>
        <time>2022-04-16T12:41:08Z</time>
      </trkpt>
      <trkpt lat="47.28579" lon="-1.39933">
        <ele>60</ele>
        <time>2022-04-16T12:41:10Z</time>
      </trkpt>
      <trkpt lat="47.28569" lon="-1.39948">
        <ele>60</ele>
        <time>2022-04-16T12:41:12Z</time>
      </trkpt>
      <trkpt lat="47.28558" lon="-1.39964">
        <ele>60</ele>
        <time>2022-04-16T12:41:14Z</time>
      </trkpt>
      <trkpt lat="47.28548" lon="-1.39979">
        <ele>60</ele>
        <time>2022-04-16T12:41:16Z</time>
      </trkpt>
      <trkpt lat="47.28536" lon="-1.39993">
        <ele>60</ele>
        <time>2022-04-16T12:41:18Z</time>
      </trkpt>
      <trkpt lat="47.28525" lon="-1.40007">
        <ele>60</ele>
        <time>2022-04-16T12:41:20Z</time>
      </trkpt>
      <trkpt lat="47.28515" lon="-1.40023">
        <ele>60</ele>
        <time>2022-04-16T12:41:22Z</time>
      </trkpt>
      <trkpt lat="47.28506" lon="-1.40041">
        <ele>60</ele>
        <time>2022-04-16T12:41:24Z</time>
      </trkpt>
      <trkpt lat="47.28497" lon="-1.40058">
        <ele>60</ele>
        <time>2022-04-16T12:41:26Z</time>
      </trkpt>
      <trkpt lat="47.28489" lon="-1.40077">
        <ele>61</ele>
        <time>2022-04-16T12:41:28Z</time>
      </trkpt>
      <trkpt lat="47.28482" lon="-1.40095">
        <ele>61</ele>
        <time>2022-04-16T12:41:30Z</time>
      </trkpt>
      <trkpt lat="47.28475" lon="-1.40113">
        <ele>62</ele>
        <time>2022-04-16T12:41:32Z</time>
      </trkpt>
      <trkpt lat="47.28467" lon="-1.40131">
        <ele>62</ele>
        <time>2022-04-16T12:41:34Z</time>
      </trkpt>
      <trkpt lat="47.28462" lon="-1.4015">
        <ele>62</ele>
        <time>2022-04-16T12:41:36Z</time>
      </trkpt>
      <trkpt lat="47.28455" lon="-1.40168">
        <ele>62</ele>
        <time>2022-04-16T12:41:38Z</time>
      </trkpt>
      <trkpt lat="47.28448" lon="-1.40185">
        <ele>62</ele>
        <time>2022-04-16T12:41:40Z</time>
      </trkpt>
      <trkpt lat="47.28441" lon="-1.40202">
        <ele>62</ele>
        <time>2022-04-16T12:41:42Z</time>
      </trkpt>
      <trkpt lat="47.28434" lon="-1.4022">
        <ele>62</ele>
        <time>2022-04-16T12:41:44Z</time>
      </trkpt>
      <trkpt lat="47.28427" lon="-1.40237">
        <ele>63</ele>
        <time>2022-04-16T12:41:46Z</time>
      </trkpt>
      <trkpt lat="47.28419" lon="-1.40255">
        <ele>63</ele>
        <time>2022-04-16T12:41:48Z</time>
      </trkpt>
      <trkpt lat="47.28411" lon="-1.40272">
        <ele>63</ele>
        <time>2022-04-16T12:41:50Z</time>
      </trkpt>
      <trkpt lat="47.28403" lon="-1.4029">
        <ele>62</ele>
        <time>2022-04-16T12:41:52Z</time>
      </trkpt>
      <trkpt lat="47.28394" lon="-1.40306">
        <ele>61</ele>
        <time>2022-04-16T12:41:54Z</time>
      </trkpt>
      <trkpt lat="47.28384" lon="-1.40322">
        <ele>61</ele>
        <time>2022-04-16T12:41:56Z</time>
      </trkpt>
      <trkpt lat="47.28374" lon="-1.40337">
        <ele>60</ele>
        <time>2022-04-16T12:41:58Z</time>
      </trkpt>
      <trkpt lat="47.28363" lon="-1.40352">
        <ele>60</ele>
        <time>2022-04-16T12:42:00Z</time>
      </trkpt>
      <trkpt lat="47.28353" lon="-1.40366">
        <ele>59</ele>
        <time>2022-04-16T12:42:02Z</time>
      </trkpt>
      <trkpt lat="47.28342" lon="-1.40381">
        <ele>59</ele>
        <time>2022-04-16T12:42:04Z</time>
      </trkpt>
      <trkpt lat="47.28331" lon="-1.40396">
        <ele>59</ele>
        <time>2022-04-16T12:42:06Z</time>
      </trkpt>
      <trkpt lat="47.2832" lon="-1.40409">
        <ele>59</ele>
        <time>2022-04-16T12:42:08Z</time>
      </trkpt>
      <trkpt lat="47.28308" lon="-1.40423">
        <ele>59</ele>
        <time>2022-04-16T12:42:10Z</time>
      </trkpt>
      <trkpt lat="47.28296" lon="-1.40436">
        <ele>59</ele>
        <time>2022-04-16T12:42:12Z</time>
      </trkpt>
      <trkpt lat="47.28283" lon="-1.40448">
        <ele>59</ele>
        <time>2022-04-16T12:42:14Z</time>
      </trkpt>
      <trkpt lat="47.2827" lon="-1.4046">
        <ele>59</ele>
        <time>2022-04-16T12:42:16Z</time>
      </trkpt>
      <trkpt lat="47.28258" lon="-1.40472">
        <ele>59</ele>
        <time>2022-04-16T12:42:18Z</time>
      </trkpt>
      <trkpt lat="47.28246" lon="-1.40484">
        <ele>59</ele>
        <time>2022-04-16T12:42:20Z</time>
      </trkpt>
      <trkpt lat="47.28234" lon="-1.40496">
        <ele>59</ele>
        <time>2022-04-16T12:42:22Z</time>
      </trkpt>
      <trkpt lat="47.28221" lon="-1.40508">
        <ele>59</ele>
        <time>2022-04-16T12:42:24Z</time>
      </trkpt>
      <trkpt lat="47.28209" lon="-1.4052">
        <ele>59</ele>
        <time>2022-04-16T12:42:26Z</time>
      </trkpt>
      <trkpt lat="47.28197" lon="-1.40532">
        <ele>59</ele>
        <time>2022-04-16T12:42:28Z</time>
      </trkpt>
      <trkpt lat="47.28185" lon="-1.40544">
        <ele>59</ele>
        <time>2022-04-16T12:42:30Z</time>
      </trkpt>
      <trkpt lat="47.28172" lon="-1.40556">
        <ele>59</ele>
        <time>2022-04-16T12:42:32Z</time>
      </trkpt>
      <trkpt lat="47.2816" lon="-1.40568">
        <ele>59</ele>
        <time>2022-04-16T12:42:34Z</time>
      </trkpt>
      <trkpt lat="47.28147" lon="-1.4058">
        <ele>59</ele>
        <time>2022-04-16T12:42:36Z</time>
      </trkpt>
      <trkpt lat="47.28135" lon="-1.40592">
        <ele>59</ele>
        <time>2022-04-16T12:42:38Z</time>
      </trkpt>
      <trkpt lat="47.28122" lon="-1.40604">
        <ele>59</ele>
        <time>2022-04-16T12:42:40Z</time>
      </trkpt>
      <trkpt lat="47.2811" lon="-1.40616">
        <ele>59</ele>
        <time>2022-04-16T12:42:42Z</time>
      </trkpt>
      <trkpt lat="47.28097" lon="-1.40628">
        <ele>59</ele>
        <time>2022-04-16T12:42:44Z</time>
      </trkpt>
      <trkpt lat="47.28084" lon="-1.40641">
        <ele>59</ele>
        <time>2022-04-16T12:42:46Z</time>
      </trkpt>
      <trkpt lat="47.28071" lon="-1.40653">
        <ele>59</ele>
        <time>2022-04-16T12:42:48Z</time>
      </trkpt>
      <trkpt lat="47.28058" lon="-1.40665">
        <ele>59</ele>
        <time>2022-04-16T12:42:50Z</time>
      </trkpt>
      <trkpt lat="47.28045" lon="-1.40678">
        <ele>58</ele>
        <time>2022-04-16T12:42:52Z</time>
      </trkpt>
      <trkpt lat="47.28032" lon="-1.40691">
        <ele>59</ele>
        <time>2022-04-16T12:42:54Z</time>
      </trkpt>
      <trkpt lat="47.2802" lon="-1.40704">
        <ele>58</ele>
        <time>2022-04-16T12:42:56Z</time>
      </trkpt>
      <trkpt lat="47.28008" lon="-1.40717">
        <ele>59</ele>
        <time>2022-04-16T12:42:58Z</time>
      </trkpt>
      <trkpt lat="47.27995" lon="-1.40728">
        <ele>58</ele>
        <time>2022-04-16T12:43:00Z</time>
      </trkpt>
      <trkpt lat="47.27983" lon="-1.4074">
        <ele>58</ele>
        <time>2022-04-16T12:43:02Z</time>
      </trkpt>
      <trkpt lat="47.2797" lon="-1.40751">
        <ele>58</ele>
        <time>2022-04-16T12:43:04Z</time>
      </trkpt>
      <trkpt lat="47.27957" lon="-1.40762">
        <ele>58</ele>
        <time>2022-04-16T12:43:06Z</time>
      </trkpt>
      <trkpt lat="47.27945" lon="-1.40774">
        <ele>58</ele>
        <time>2022-04-16T12:43:08Z</time>
      </trkpt>
      <trkpt lat="47.27932" lon="-1.40786">
        <ele>58</ele>
        <time>2022-04-16T12:43:10Z</time>
      </trkpt>
      <trkpt lat="47.27919" lon="-1.40797">
        <ele>58</ele>
        <time>2022-04-16T12:43:12Z</time>
      </trkpt>
      <trkpt lat="47.27907" lon="-1.4081">
        <ele>59</ele>
        <time>2022-04-16T12:43:14Z</time>
      </trkpt>
      <trkpt lat="47.27895" lon="-1.40823">
        <ele>58</ele>
        <time>2022-04-16T12:43:16Z</time>
      </trkpt>
      <trkpt lat="47.27885" lon="-1.40836">
        <ele>58</ele>
        <time>2022-04-16T12:43:18Z</time>
      </trkpt>
      <trkpt lat="47.27876" lon="-1.40853">
        <ele>58</ele>
        <time>2022-04-16T12:43:20Z</time>
      </trkpt>
      <trkpt lat="47.27868" lon="-1.40869">
        <ele>58</ele>
        <time>2022-04-16T12:43:22Z</time>
      </trkpt>
      <trkpt lat="47.2786" lon="-1.40886">
        <ele>59</ele>
        <time>2022-04-16T12:43:24Z</time>
      </trkpt>
      <trkpt lat="47.27852" lon="-1.40904">
        <ele>59</ele>
        <time>2022-04-16T12:43:26Z</time>
      </trkpt>
      <trkpt lat="47.27844" lon="-1.40921">
        <ele>59</ele>
        <time>2022-04-16T12:43:28Z</time>
      </trkpt>
      <trkpt lat="47.27836" lon="-1.40938">
        <ele>59</ele>
        <time>2022-04-16T12:43:30Z</time>
      </trkpt>
      <trkpt lat="47.27827" lon="-1.40955">
        <ele>59</ele>
        <time>2022-04-16T12:43:32Z</time>
      </trkpt>
      <trkpt lat="47.27818" lon="-1.40971">
        <ele>59</ele>
        <time>2022-04-16T12:43:34Z</time>
      </trkpt>
      <trkpt lat="47.27808" lon="-1.40988">
        <ele>59</ele>
        <time>2022-04-16T12:43:36Z</time>
      </trkpt>
      <trkpt lat="47.27798" lon="-1.41003">
        <ele>59</ele>
        <time>2022-04-16T12:43:38Z</time>
      </trkpt>
      <trkpt lat="47.27788" lon="-1.41017">
        <ele>58</ele>
        <time>2022-04-16T12:43:40Z</time>
      </trkpt>
      <trkpt lat="47.27779" lon="-1.41033">
        <ele>58</ele>
        <time>2022-04-16T12:43:42Z</time>
      </trkpt>
      <trkpt lat="47.27773" lon="-1.41052">
        <ele>58</ele>
        <time>2022-04-16T12:43:44Z</time>
      </trkpt>
      <trkpt lat="47.27765" lon="-1.4107">
        <ele>58</ele>
        <time>2022-04-16T12:43:46Z</time>
      </trkpt>
      <trkpt lat="47.27754" lon="-1.41084">
        <ele>58</ele>
        <time>2022-04-16T12:43:48Z</time>
      </trkpt>
      <trkpt lat="47.27742" lon="-1.41095">
        <ele>58</ele>
        <time>2022-04-16T12:43:50Z</time>
      </trkpt>
      <trkpt lat="47.2773" lon="-1.41107">
        <ele>58</ele>
        <time>2022-04-16T12:43:52Z</time>
      </trkpt>
      <trkpt lat="47.27717" lon="-1.41119">
        <ele>58</ele>
        <time>2022-04-16T12:43:54Z</time>
      </trkpt>
      <trkpt lat="47.27706" lon="-1.41132">
        <ele>59</ele>
        <time>2022-04-16T12:43:56Z</time>
      </trkpt>
      <trkpt lat="47.27694" lon="-1.41144">
        <ele>59</ele>
        <time>2022-04-16T12:43:58Z</time>
      </trkpt>
      <trkpt lat="47.27684" lon="-1.41156">
        <ele>59</ele>
        <time>2022-04-16T12:44:00Z</time>
      </trkpt>
      <trkpt lat="47.27673" lon="-1.41169">
        <ele>59</ele>
        <time>2022-04-16T12:44:02Z</time>
      </trkpt>
      <trkpt lat="47.27662" lon="-1.41182">
        <ele>59</ele>
        <time>2022-04-16T12:44:04Z</time>
      </trkpt>
      <trkpt lat="47.2765" lon="-1.41195">
        <ele>59</ele>
        <time>2022-04-16T12:44:06Z</time>
      </trkpt>
      <trkpt lat="47.27638" lon="-1.41207">
        <ele>59</ele>
        <time>2022-04-16T12:44:08Z</time>
      </trkpt>
      <trkpt lat="47.27625" lon="-1.41219">
        <ele>59</ele>
        <time>2022-04-16T12:44:10Z</time>
      </trkpt>
      <trkpt lat="47.27614" lon="-1.4123">
        <ele>59</ele>
        <time>2022-04-16T12:44:12Z</time>
      </trkpt>
      <trkpt lat="47.27602" lon="-1.41243">
        <ele>59</ele>
        <time>2022-04-16T12:44:14Z</time>
      </trkpt>
      <trkpt lat="47.2759" lon="-1.41256">
        <ele>59</ele>
        <time>2022-04-16T12:44:16Z</time>
      </trkpt>
      <trkpt lat="47.27579" lon="-1.41268">
        <ele>59</ele>
        <time>2022-04-16T12:44:18Z</time>
      </trkpt>
      <trkpt lat="47.27568" lon="-1.41282">
        <ele>59</ele>
        <time>2022-04-16T12:44:20Z</time>
      </trkpt>
      <trkpt lat="47.27557" lon="-1.41295">
        <ele>59</ele>
        <time>2022-04-16T12:44:22Z</time>
      </trkpt>
      <trkpt lat="47.27546" lon="-1.4131">
        <ele>59</ele>
        <time>2022-04-16T12:44:24Z</time>
      </trkpt>
      <trkpt lat="47.27535" lon="-1.41324">
        <ele>59</ele>
        <time>2022-04-16T12:44:26Z</time>
      </trkpt>
      <trkpt lat="47.27525" lon="-1.41338">
        <ele>58</ele>
        <time>2022-04-16T12:44:28Z</time>
      </trkpt>
      <trkpt lat="47.27514" lon="-1.41353">
        <ele>58</ele>
        <time>2022-04-16T12:44:30Z</time>
      </trkpt>
      <trkpt lat="47.27503" lon="-1.41369">
        <ele>58</ele>
        <time>2022-04-16T12:44:32Z</time>
      </trkpt>
      <trkpt lat="47.27493" lon="-1.41384">
        <ele>58</ele>
        <time>2022-04-16T12:44:34Z</time>
      </trkpt>
      <trkpt lat="47.27484" lon="-1.414">
        <ele>58</ele>
        <time>2022-04-16T12:44:36Z</time>
      </trkpt>
      <trkpt lat="47.27474" lon="-1.41416">
        <ele>58</ele>
        <time>2022-04-16T12:44:38Z</time>
      </trkpt>
      <trkpt lat="47.27465" lon="-1.41433">
        <ele>59</ele>
        <time>2022-04-16T12:44:40Z</time>
      </trkpt>
      <trkpt lat="47.27456" lon="-1.41449">
        <ele>59</ele>
        <time>2022-04-16T12:44:42Z</time>
      </trkpt>
      <trkpt lat="47.27447" lon="-1.41465">
        <ele>59</ele>
        <time>2022-04-16T12:44:44Z</time>
      </trkpt>
      <trkpt lat="47.27438" lon="-1.41481">
        <ele>59</ele>
        <time>2022-04-16T12:44:46Z</time>
      </trkpt>
      <trkpt lat="47.27429" lon="-1.41497">
        <ele>59</ele>
        <time>2022-04-16T12:44:48Z</time>
      </trkpt>
      <trkpt lat="47.27419" lon="-1.41513">
        <ele>59</ele>
        <time>2022-04-16T12:44:50Z</time>
      </trkpt>
      <trkpt lat="47.2741" lon="-1.41528">
        <ele>59</ele>
        <time>2022-04-16T12:44:52Z</time>
      </trkpt>
      <trkpt lat="47.274" lon="-1.41543">
        <ele>59</ele>
        <time>2022-04-16T12:44:54Z</time>
      </trkpt>
      <trkpt lat="47.2739" lon="-1.41559">
        <ele>59</ele>
        <time>2022-04-16T12:44:56Z</time>
      </trkpt>
      <trkpt lat="47.2738" lon="-1.41575">
        <ele>60</ele>
        <time>2022-04-16T12:44:58Z</time>
      </trkpt>
      <trkpt lat="47.2737" lon="-1.4159">
        <ele>59</ele>
        <time>2022-04-16T12:45:00Z</time>
      </trkpt>
      <trkpt lat="47.2736" lon="-1.41605">
        <ele>59</ele>
        <time>2022-04-16T12:45:02Z</time>
      </trkpt>
      <trkpt lat="47.2735" lon="-1.41621">
        <ele>59</ele>
        <time>2022-04-16T12:45:04Z</time>
      </trkpt>
      <trkpt lat="47.2734" lon="-1.41636">
        <ele>60</ele>
        <time>2022-04-16T12:45:06Z</time>
      </trkpt>
      <trkpt lat="47.2733" lon="-1.41651">
        <ele>60</ele>
        <time>2022-04-16T12:45:08Z</time>
      </trkpt>
      <trkpt lat="47.27322" lon="-1.41668">
        <ele>60</ele>
        <time>2022-04-16T12:45:10Z</time>
      </trkpt>
      <trkpt lat="47.27313" lon="-1.41684">
        <ele>61</ele>
        <time>2022-04-16T12:45:12Z</time>
      </trkpt>
      <trkpt lat="47.27305" lon="-1.417">
        <ele>61</ele>
        <time>2022-04-16T12:45:14Z</time>
      </trkpt>
      <trkpt lat="47.27296" lon="-1.41718">
        <ele>61</ele>
        <time>2022-04-16T12:45:16Z</time>
      </trkpt>
      <trkpt lat="47.27287" lon="-1.41735">
        <ele>60</ele>
        <time>2022-04-16T12:45:18Z</time>
      </trkpt>
      <trkpt lat="47.27277" lon="-1.41753">
        <ele>59</ele>
        <time>2022-04-16T12:45:20Z</time>
      </trkpt>
      <trkpt lat="47.27268" lon="-1.41771">
        <ele>59</ele>
        <time>2022-04-16T12:45:22Z</time>
      </trkpt>
      <trkpt lat="47.2726" lon="-1.41787">
        <ele>60</ele>
        <time>2022-04-16T12:45:24Z</time>
      </trkpt>
      <trkpt lat="47.2725" lon="-1.41803">
        <ele>59</ele>
        <time>2022-04-16T12:45:26Z</time>
      </trkpt>
      <trkpt lat="47.27242" lon="-1.4182">
        <ele>59</ele>
        <time>2022-04-16T12:45:28Z</time>
      </trkpt>
      <trkpt lat="47.27232" lon="-1.41838">
        <ele>60</ele>
        <time>2022-04-16T12:45:30Z</time>
      </trkpt>
      <trkpt lat="47.27223" lon="-1.41854">
        <ele>60</ele>
        <time>2022-04-16T12:45:32Z</time>
      </trkpt>
      <trkpt lat="47.27214" lon="-1.41871">
        <ele>60</ele>
        <time>2022-04-16T12:45:34Z</time>
      </trkpt>
      <trkpt lat="47.27205" lon="-1.41886">
        <ele>60</ele>
        <time>2022-04-16T12:45:36Z</time>
      </trkpt>
      <trkpt lat="47.27196" lon="-1.41902">
        <ele>59</ele>
        <time>2022-04-16T12:45:38Z</time>
      </trkpt>
      <trkpt lat="47.27187" lon="-1.41917">
        <ele>60</ele>
        <time>2022-04-16T12:45:40Z</time>
      </trkpt>
      <trkpt lat="47.27176" lon="-1.41934">
        <ele>60</ele>
        <time>2022-04-16T12:45:42Z</time>
      </trkpt>
      <trkpt lat="47.27167" lon="-1.4195">
        <ele>60</ele>
        <time>2022-04-16T12:45:44Z</time>
      </trkpt>
      <trkpt lat="47.27158" lon="-1.41967">
        <ele>60</ele>
        <time>2022-04-16T12:45:46Z</time>
      </trkpt>
      <trkpt lat="47.27149" lon="-1.41985">
        <ele>60</ele>
        <time>2022-04-16T12:45:48Z</time>
      </trkpt>
      <trkpt lat="47.2714" lon="-1.42002">
        <ele>60</ele>
        <time>2022-04-16T12:45:50Z</time>
      </trkpt>
      <trkpt lat="47.2713" lon="-1.42018">
        <ele>60</ele>
        <time>2022-04-16T12:45:52Z</time>
      </trkpt>
      <trkpt lat="47.27119" lon="-1.42034">
        <ele>60</ele>
        <time>2022-04-16T12:45:54Z</time>
      </trkpt>
      <trkpt lat="47.27109" lon="-1.42049">
        <ele>59</ele>
        <time>2022-04-16T12:45:56Z</time>
      </trkpt>
      <trkpt lat="47.27099" lon="-1.42065">
        <ele>60</ele>
        <time>2022-04-16T12:45:58Z</time>
      </trkpt>
      <trkpt lat="47.27088" lon="-1.42082">
        <ele>60</ele>
        <time>2022-04-16T12:46:00Z</time>
      </trkpt>
      <trkpt lat="47.27078" lon="-1.42098">
        <ele>59</ele>
        <time>2022-04-16T12:46:02Z</time>
      </trkpt>
      <trkpt lat="47.27069" lon="-1.42115">
        <ele>59</ele>
        <time>2022-04-16T12:46:04Z</time>
      </trkpt>
      <trkpt lat="47.27061" lon="-1.42131">
        <ele>59</ele>
        <time>2022-04-16T12:46:06Z</time>
      </trkpt>
      <trkpt lat="47.27053" lon="-1.42148">
        <ele>60</ele>
        <time>2022-04-16T12:46:08Z</time>
      </trkpt>
      <trkpt lat="47.27045" lon="-1.42164">
        <ele>60</ele>
        <time>2022-04-16T12:46:10Z</time>
      </trkpt>
      <trkpt lat="47.27036" lon="-1.42179">
        <ele>60</ele>
        <time>2022-04-16T12:46:12Z</time>
      </trkpt>
      <trkpt lat="47.27028" lon="-1.42195">
        <ele>60</ele>
        <time>2022-04-16T12:46:14Z</time>
      </trkpt>
      <trkpt lat="47.27019" lon="-1.4221">
        <ele>61</ele>
        <time>2022-04-16T12:46:16Z</time>
      </trkpt>
      <trkpt lat="47.27008" lon="-1.42226">
        <ele>60</ele>
        <time>2022-04-16T12:46:18Z</time>
      </trkpt>
      <trkpt lat="47.27" lon="-1.42241">
        <ele>60</ele>
        <time>2022-04-16T12:46:20Z</time>
      </trkpt>
      <trkpt lat="47.26991" lon="-1.42256">
        <ele>59</ele>
        <time>2022-04-16T12:46:22Z</time>
      </trkpt>
      <trkpt lat="47.26982" lon="-1.42271">
        <ele>59</ele>
        <time>2022-04-16T12:46:24Z</time>
      </trkpt>
      <trkpt lat="47.26973" lon="-1.42287">
        <ele>58</ele>
        <time>2022-04-16T12:46:26Z</time>
      </trkpt>
      <trkpt lat="47.26965" lon="-1.42302">
        <ele>58</ele>
        <time>2022-04-16T12:46:28Z</time>
      </trkpt>
      <trkpt lat="47.26957" lon="-1.42319">
        <ele>58</ele>
        <time>2022-04-16T12:46:30Z</time>
      </trkpt>
      <trkpt lat="47.26949" lon="-1.42335">
        <ele>58</ele>
        <time>2022-04-16T12:46:32Z</time>
      </trkpt>
      <trkpt lat="47.2694" lon="-1.42352">
        <ele>58</ele>
        <time>2022-04-16T12:46:34Z</time>
      </trkpt>
      <trkpt lat="47.26932" lon="-1.42369">
        <ele>58</ele>
        <time>2022-04-16T12:46:36Z</time>
      </trkpt>
      <trkpt lat="47.26924" lon="-1.42385">
        <ele>58</ele>
        <time>2022-04-16T12:46:38Z</time>
      </trkpt>
      <trkpt lat="47.26916" lon="-1.42402">
        <ele>58</ele>
        <time>2022-04-16T12:46:40Z</time>
      </trkpt>
      <trkpt lat="47.26907" lon="-1.42418">
        <ele>58</ele>
        <time>2022-04-16T12:46:42Z</time>
      </trkpt>
      <trkpt lat="47.26899" lon="-1.42433">
        <ele>58</ele>
        <time>2022-04-16T12:46:44Z</time>
      </trkpt>
      <trkpt lat="47.2689" lon="-1.42449">
        <ele>58</ele>
        <time>2022-04-16T12:46:46Z</time>
      </trkpt>
      <trkpt lat="47.26881" lon="-1.42465">
        <ele>58</ele>
        <time>2022-04-16T12:46:48Z</time>
      </trkpt>
      <trkpt lat="47.26872" lon="-1.42482">
        <ele>57</ele>
        <time>2022-04-16T12:46:50Z</time>
      </trkpt>
      <trkpt lat="47.26862" lon="-1.42498">
        <ele>57</ele>
        <time>2022-04-16T12:46:52Z</time>
      </trkpt>
      <trkpt lat="47.26853" lon="-1.42515">
        <ele>57</ele>
        <time>2022-04-16T12:46:54Z</time>
      </trkpt>
      <trkpt lat="47.26844" lon="-1.42532">
        <ele>57</ele>
        <time>2022-04-16T12:46:56Z</time>
      </trkpt>
      <trkpt lat="47.26835" lon="-1.42549">
        <ele>57</ele>
        <time>2022-04-16T12:46:58Z</time>
      </trkpt>
      <trkpt lat="47.26827" lon="-1.42566">
        <ele>57</ele>
        <time>2022-04-16T12:47:00Z</time>
      </trkpt>
      <trkpt lat="47.26819" lon="-1.42582">
        <ele>57</ele>
        <time>2022-04-16T12:47:02Z</time>
      </trkpt>
      <trkpt lat="47.26811" lon="-1.426">
        <ele>57</ele>
        <time>2022-04-16T12:47:04Z</time>
      </trkpt>
      <trkpt lat="47.26804" lon="-1.42618">
        <ele>57</ele>
        <time>2022-04-16T12:47:06Z</time>
      </trkpt>
      <trkpt lat="47.26797" lon="-1.42636">
        <ele>57</ele>
        <time>2022-04-16T12:47:08Z</time>
      </trkpt>
      <trkpt lat="47.26791" lon="-1.42655">
        <ele>57</ele>
        <time>2022-04-16T12:47:10Z</time>
      </trkpt>
      <trkpt lat="47.26784" lon="-1.42673">
        <ele>57</ele>
        <time>2022-04-16T12:47:12Z</time>
      </trkpt>
      <trkpt lat="47.26778" lon="-1.42691">
        <ele>58</ele>
        <time>2022-04-16T12:47:14Z</time>
      </trkpt>
      <trkpt lat="47.26771" lon="-1.4271">
        <ele>59</ele>
        <time>2022-04-16T12:47:16Z</time>
      </trkpt>
      <trkpt lat="47.26762" lon="-1.42728">
        <ele>59</ele>
        <time>2022-04-16T12:47:18Z</time>
      </trkpt>
      <trkpt lat="47.26753" lon="-1.42744">
        <ele>59</ele>
        <time>2022-04-16T12:47:20Z</time>
      </trkpt>
      <trkpt lat="47.26744" lon="-1.42761">
        <ele>59</ele>
        <time>2022-04-16T12:47:22Z</time>
      </trkpt>
      <trkpt lat="47.26737" lon="-1.4278">
        <ele>59</ele>
        <time>2022-04-16T12:47:24Z</time>
      </trkpt>
      <trkpt lat="47.26732" lon="-1.42798">
        <ele>59</ele>
        <time>2022-04-16T12:47:26Z</time>
      </trkpt>
      <trkpt lat="47.26728" lon="-1.42815">
        <ele>59</ele>
        <time>2022-04-16T12:47:28Z</time>
      </trkpt>
      <trkpt lat="47.26723" lon="-1.42832">
        <ele>61</ele>
        <time>2022-04-16T12:47:30Z</time>
      </trkpt>
      <trkpt lat="47.26715" lon="-1.42851">
        <ele>62</ele>
        <time>2022-04-16T12:47:32Z</time>
      </trkpt>
      <trkpt lat="47.26708" lon="-1.4287">
        <ele>62</ele>
        <time>2022-04-16T12:47:34Z</time>
      </trkpt>
      <trkpt lat="47.26699" lon="-1.42887">
        <ele>62</ele>
        <time>2022-04-16T12:47:36Z</time>
      </trkpt>
      <trkpt lat="47.2669" lon="-1.42904">
        <ele>61</ele>
        <time>2022-04-16T12:47:38Z</time>
      </trkpt>
      <trkpt lat="47.2668" lon="-1.42921">
        <ele>61</ele>
        <time>2022-04-16T12:47:40Z</time>
      </trkpt>
      <trkpt lat="47.26672" lon="-1.42939">
        <ele>60</ele>
        <time>2022-04-16T12:47:42Z</time>
      </trkpt>
      <trkpt lat="47.26663" lon="-1.42957">
        <ele>60</ele>
        <time>2022-04-16T12:47:44Z</time>
      </trkpt>
      <trkpt lat="47.26655" lon="-1.42975">
        <ele>60</ele>
        <time>2022-04-16T12:47:46Z</time>
      </trkpt>
      <trkpt lat="47.26646" lon="-1.42992">
        <ele>59</ele>
        <time>2022-04-16T12:47:48Z</time>
      </trkpt>
      <trkpt lat="47.26638" lon="-1.43009">
        <ele>59</ele>
        <time>2022-04-16T12:47:50Z</time>
      </trkpt>
      <trkpt lat="47.2663" lon="-1.43027">
        <ele>59</ele>
        <time>2022-04-16T12:47:52Z</time>
      </trkpt>
      <trkpt lat="47.26621" lon="-1.43044">
        <ele>59</ele>
        <time>2022-04-16T12:47:54Z</time>
      </trkpt>
      <trkpt lat="47.26613" lon="-1.43061">
        <ele>59</ele>
        <time>2022-04-16T12:47:56Z</time>
      </trkpt>
      <trkpt lat="47.26604" lon="-1.43077">
        <ele>59</ele>
        <time>2022-04-16T12:47:58Z</time>
      </trkpt>
      <trkpt lat="47.26595" lon="-1.43093">
        <ele>58</ele>
        <time>2022-04-16T12:48:00Z</time>
      </trkpt>
      <trkpt lat="47.26586" lon="-1.43108">
        <ele>58</ele>
        <time>2022-04-16T12:48:02Z</time>
      </trkpt>
      <trkpt lat="47.26576" lon="-1.43124">
        <ele>58</ele>
        <time>2022-04-16T12:48:04Z</time>
      </trkpt>
      <trkpt lat="47.26567" lon="-1.4314">
        <ele>59</ele>
        <time>2022-04-16T12:48:06Z</time>
      </trkpt>
      <trkpt lat="47.26558" lon="-1.43153">
        <ele>60</ele>
        <time>2022-04-16T12:48:08Z</time>
      </trkpt>
      <trkpt lat="47.26547" lon="-1.43169">
        <ele>60</ele>
        <time>2022-04-16T12:48:10Z</time>
      </trkpt>
      <trkpt lat="47.26538" lon="-1.43184">
        <ele>60</ele>
        <time>2022-04-16T12:48:12Z</time>
      </trkpt>
      <trkpt lat="47.26528" lon="-1.43199">
        <ele>60</ele>
        <time>2022-04-16T12:48:14Z</time>
      </trkpt>
      <trkpt lat="47.26518" lon="-1.43213">
        <ele>60</ele>
        <time>2022-04-16T12:48:16Z</time>
      </trkpt>
      <trkpt lat="47.26508" lon="-1.43227">
        <ele>60</ele>
        <time>2022-04-16T12:48:18Z</time>
      </trkpt>
      <trkpt lat="47.26498" lon="-1.43239">
        <ele>60</ele>
        <time>2022-04-16T12:48:20Z</time>
      </trkpt>
      <trkpt lat="47.26488" lon="-1.43253">
        <ele>61</ele>
        <time>2022-04-16T12:48:22Z</time>
      </trkpt>
      <trkpt lat="47.26479" lon="-1.43267">
        <ele>61</ele>
        <time>2022-04-16T12:48:24Z</time>
      </trkpt>
      <trkpt lat="47.26469" lon="-1.43281">
        <ele>62</ele>
        <time>2022-04-16T12:48:26Z</time>
      </trkpt>
      <trkpt lat="47.2646" lon="-1.43295">
        <ele>62</ele>
        <time>2022-04-16T12:48:28Z</time>
      </trkpt>
      <trkpt lat="47.2645" lon="-1.43311">
        <ele>62</ele>
        <time>2022-04-16T12:48:30Z</time>
      </trkpt>
      <trkpt lat="47.2644" lon="-1.43325">
        <ele>62</ele>
        <time>2022-04-16T12:48:32Z</time>
      </trkpt>
      <trkpt lat="47.26431" lon="-1.43338">
        <ele>61</ele>
        <time>2022-04-16T12:48:34Z</time>
      </trkpt>
      <trkpt lat="47.2642" lon="-1.43352">
        <ele>61</ele>
        <time>2022-04-16T12:48:36Z</time>
      </trkpt>
      <trkpt lat="47.2641" lon="-1.43365">
        <ele>60</ele>
        <time>2022-04-16T12:48:38Z</time>
      </trkpt>
      <trkpt lat="47.26399" lon="-1.43378">
        <ele>60</ele>
        <time>2022-04-16T12:48:40Z</time>
      </trkpt>
      <trkpt lat="47.26388" lon="-1.43389">
        <ele>59</ele>
        <time>2022-04-16T12:48:42Z</time>
      </trkpt>
      <trkpt lat="47.26377" lon="-1.43401">
        <ele>58</ele>
        <time>2022-04-16T12:48:44Z</time>
      </trkpt>
      <trkpt lat="47.26365" lon="-1.43414">
        <ele>58</ele>
        <time>2022-04-16T12:48:46Z</time>
      </trkpt>
      <trkpt lat="47.26354" lon="-1.43426">
        <ele>58</ele>
        <time>2022-04-16T12:48:48Z</time>
      </trkpt>
      <trkpt lat="47.26344" lon="-1.43437">
        <ele>58</ele>
        <time>2022-04-16T12:48:50Z</time>
      </trkpt>
      <trkpt lat="47.26333" lon="-1.4345">
        <ele>57</ele>
        <time>2022-04-16T12:48:52Z</time>
      </trkpt>
      <trkpt lat="47.26322" lon="-1.43461">
        <ele>58</ele>
        <time>2022-04-16T12:48:54Z</time>
      </trkpt>
      <trkpt lat="47.26311" lon="-1.43472">
        <ele>58</ele>
        <time>2022-04-16T12:48:56Z</time>
      </trkpt>
      <trkpt lat="47.26301" lon="-1.43482">
        <ele>58</ele>
        <time>2022-04-16T12:48:58Z</time>
      </trkpt>
      <trkpt lat="47.2629" lon="-1.43489">
        <ele>58</ele>
        <time>2022-04-16T12:49:00Z</time>
      </trkpt>
      <trkpt lat="47.26279" lon="-1.43494">
        <ele>59</ele>
        <time>2022-04-16T12:49:02Z</time>
      </trkpt>
      <trkpt lat="47.26265" lon="-1.43498">
        <ele>59</ele>
        <time>2022-04-16T12:49:04Z</time>
      </trkpt>
      <trkpt lat="47.26252" lon="-1.43508">
        <ele>59</ele>
        <time>2022-04-16T12:49:06Z</time>
      </trkpt>
      <trkpt lat="47.2624" lon="-1.43519">
        <ele>59</ele>
        <time>2022-04-16T12:49:08Z</time>
      </trkpt>
      <trkpt lat="47.2623" lon="-1.43531">
        <ele>59</ele>
        <time>2022-04-16T12:49:10Z</time>
      </trkpt>
      <trkpt lat="47.26221" lon="-1.43543">
        <ele>59</ele>
        <time>2022-04-16T12:49:12Z</time>
      </trkpt>
      <trkpt lat="47.26216" lon="-1.43561">
        <ele>59</ele>
        <time>2022-04-16T12:49:14Z</time>
      </trkpt>
      <trkpt lat="47.26212" lon="-1.4358">
        <ele>58</ele>
        <time>2022-04-16T12:49:16Z</time>
      </trkpt>
      <trkpt lat="47.26203" lon="-1.43594">
        <ele>58</ele>
        <time>2022-04-16T12:49:18Z</time>
      </trkpt>
      <trkpt lat="47.26194" lon="-1.43609">
        <ele>58</ele>
        <time>2022-04-16T12:49:20Z</time>
      </trkpt>
      <trkpt lat="47.26186" lon="-1.43624">
        <ele>58</ele>
        <time>2022-04-16T12:49:22Z</time>
      </trkpt>
      <trkpt lat="47.26178" lon="-1.4364">
        <ele>58</ele>
        <time>2022-04-16T12:49:24Z</time>
      </trkpt>
      <trkpt lat="47.26169" lon="-1.43655">
        <ele>59</ele>
        <time>2022-04-16T12:49:26Z</time>
      </trkpt>
      <trkpt lat="47.2616" lon="-1.4367">
        <ele>58</ele>
        <time>2022-04-16T12:49:28Z</time>
      </trkpt>
      <trkpt lat="47.26151" lon="-1.43685">
        <ele>58</ele>
        <time>2022-04-16T12:49:30Z</time>
      </trkpt>
      <trkpt lat="47.26141" lon="-1.43699">
        <ele>58</ele>
        <time>2022-04-16T12:49:32Z</time>
      </trkpt>
      <trkpt lat="47.26132" lon="-1.43713">
        <ele>58</ele>
        <time>2022-04-16T12:49:34Z</time>
      </trkpt>
      <trkpt lat="47.26123" lon="-1.43727">
        <ele>59</ele>
        <time>2022-04-16T12:49:36Z</time>
      </trkpt>
      <trkpt lat="47.26113" lon="-1.43742">
        <ele>59</ele>
        <time>2022-04-16T12:49:38Z</time>
      </trkpt>
      <trkpt lat="47.26101" lon="-1.43755">
        <ele>59</ele>
        <time>2022-04-16T12:49:40Z</time>
      </trkpt>
      <trkpt lat="47.26091" lon="-1.43768">
        <ele>59</ele>
        <time>2022-04-16T12:49:42Z</time>
      </trkpt>
      <trkpt lat="47.26081" lon="-1.43782">
        <ele>59</ele>
        <time>2022-04-16T12:49:44Z</time>
      </trkpt>
      <trkpt lat="47.2607" lon="-1.43796">
        <ele>60</ele>
        <time>2022-04-16T12:49:46Z</time>
      </trkpt>
      <trkpt lat="47.26059" lon="-1.4381">
        <ele>60</ele>
        <time>2022-04-16T12:49:48Z</time>
      </trkpt>
      <trkpt lat="47.26046" lon="-1.43835">
        <ele>60</ele>
        <time>2022-04-16T12:49:51Z</time>
      </trkpt>
      <trkpt lat="47.26039" lon="-1.43853">
        <ele>60</ele>
        <time>2022-04-16T12:49:53Z</time>
      </trkpt>
      <trkpt lat="47.26029" lon="-1.43866">
        <ele>60</ele>
        <time>2022-04-16T12:49:55Z</time>
      </trkpt>
      <trkpt lat="47.26018" lon="-1.43877">
        <ele>60</ele>
        <time>2022-04-16T12:49:57Z</time>
      </trkpt>
      <trkpt lat="47.26007" lon="-1.43888">
        <ele>60</ele>
        <time>2022-04-16T12:49:59Z</time>
      </trkpt>
      <trkpt lat="47.25995" lon="-1.43899">
        <ele>61</ele>
        <time>2022-04-16T12:50:01Z</time>
      </trkpt>
      <trkpt lat="47.25984" lon="-1.43912">
        <ele>60</ele>
        <time>2022-04-16T12:50:03Z</time>
      </trkpt>
      <trkpt lat="47.25972" lon="-1.43926">
        <ele>60</ele>
        <time>2022-04-16T12:50:05Z</time>
      </trkpt>
      <trkpt lat="47.25962" lon="-1.4394">
        <ele>60</ele>
        <time>2022-04-16T12:50:07Z</time>
      </trkpt>
      <trkpt lat="47.25951" lon="-1.43953">
        <ele>60</ele>
        <time>2022-04-16T12:50:09Z</time>
      </trkpt>
      <trkpt lat="47.2594" lon="-1.43966">
        <ele>60</ele>
        <time>2022-04-16T12:50:11Z</time>
      </trkpt>
      <trkpt lat="47.2593" lon="-1.43979">
        <ele>60</ele>
        <time>2022-04-16T12:50:13Z</time>
      </trkpt>
      <trkpt lat="47.25919" lon="-1.43991">
        <ele>60</ele>
        <time>2022-04-16T12:50:15Z</time>
      </trkpt>
      <trkpt lat="47.25907" lon="-1.44002">
        <ele>60</ele>
        <time>2022-04-16T12:50:17Z</time>
      </trkpt>
      <trkpt lat="47.25897" lon="-1.44014">
        <ele>60</ele>
        <time>2022-04-16T12:50:19Z</time>
      </trkpt>
      <trkpt lat="47.25886" lon="-1.44027">
        <ele>60</ele>
        <time>2022-04-16T12:50:21Z</time>
      </trkpt>
      <trkpt lat="47.25876" lon="-1.44042">
        <ele>60</ele>
        <time>2022-04-16T12:50:23Z</time>
      </trkpt>
      <trkpt lat="47.25871" lon="-1.44061">
        <ele>59</ele>
        <time>2022-04-16T12:50:25Z</time>
      </trkpt>
      <trkpt lat="47.25864" lon="-1.44078">
        <ele>59</ele>
        <time>2022-04-16T12:50:27Z</time>
      </trkpt>
      <trkpt lat="47.25856" lon="-1.44093">
        <ele>58</ele>
        <time>2022-04-16T12:50:29Z</time>
      </trkpt>
      <trkpt lat="47.25846" lon="-1.44105">
        <ele>58</ele>
        <time>2022-04-16T12:50:31Z</time>
      </trkpt>
      <trkpt lat="47.25837" lon="-1.44118">
        <ele>58</ele>
        <time>2022-04-16T12:50:33Z</time>
      </trkpt>
      <trkpt lat="47.25826" lon="-1.4413">
        <ele>57</ele>
        <time>2022-04-16T12:50:35Z</time>
      </trkpt>
      <trkpt lat="47.25815" lon="-1.44142">
        <ele>57</ele>
        <time>2022-04-16T12:50:37Z</time>
      </trkpt>
      <trkpt lat="47.25804" lon="-1.44154">
        <ele>57</ele>
        <time>2022-04-16T12:50:39Z</time>
      </trkpt>
      <trkpt lat="47.25793" lon="-1.44166">
        <ele>57</ele>
        <time>2022-04-16T12:50:41Z</time>
      </trkpt>
      <trkpt lat="47.25781" lon="-1.44178">
        <ele>58</ele>
        <time>2022-04-16T12:50:43Z</time>
      </trkpt>
      <trkpt lat="47.2577" lon="-1.44191">
        <ele>57</ele>
        <time>2022-04-16T12:50:45Z</time>
      </trkpt>
      <trkpt lat="47.25759" lon="-1.44206">
        <ele>57</ele>
        <time>2022-04-16T12:50:47Z</time>
      </trkpt>
      <trkpt lat="47.25748" lon="-1.44221">
        <ele>57</ele>
        <time>2022-04-16T12:50:49Z</time>
      </trkpt>
      <trkpt lat="47.25736" lon="-1.44237">
        <ele>57</ele>
        <time>2022-04-16T12:50:51Z</time>
      </trkpt>
      <trkpt lat="47.25725" lon="-1.44251">
        <ele>57</ele>
        <time>2022-04-16T12:50:53Z</time>
      </trkpt>
      <trkpt lat="47.25714" lon="-1.44266">
        <ele>57</ele>
        <time>2022-04-16T12:50:55Z</time>
      </trkpt>
      <trkpt lat="47.25702" lon="-1.44279">
        <ele>57</ele>
        <time>2022-04-16T12:50:57Z</time>
      </trkpt>
      <trkpt lat="47.2569" lon="-1.44293">
        <ele>57</ele>
        <time>2022-04-16T12:50:59Z</time>
      </trkpt>
      <trkpt lat="47.25678" lon="-1.44307">
        <ele>57</ele>
        <time>2022-04-16T12:51:01Z</time>
      </trkpt>
      <trkpt lat="47.25667" lon="-1.44322">
        <ele>57</ele>
        <time>2022-04-16T12:51:03Z</time>
      </trkpt>
      <trkpt lat="47.25655" lon="-1.44336">
        <ele>57</ele>
        <time>2022-04-16T12:51:05Z</time>
      </trkpt>
      <trkpt lat="47.25643" lon="-1.44349">
        <ele>58</ele>
        <time>2022-04-16T12:51:07Z</time>
      </trkpt>
      <trkpt lat="47.25631" lon="-1.44362">
        <ele>57</ele>
        <time>2022-04-16T12:51:09Z</time>
      </trkpt>
      <trkpt lat="47.25619" lon="-1.44376">
        <ele>57</ele>
        <time>2022-04-16T12:51:11Z</time>
      </trkpt>
      <trkpt lat="47.25607" lon="-1.44389">
        <ele>57</ele>
        <time>2022-04-16T12:51:13Z</time>
      </trkpt>
      <trkpt lat="47.25595" lon="-1.44403">
        <ele>57</ele>
        <time>2022-04-16T12:51:15Z</time>
      </trkpt>
      <trkpt lat="47.25583" lon="-1.44416">
        <ele>57</ele>
        <time>2022-04-16T12:51:17Z</time>
      </trkpt>
      <trkpt lat="47.25572" lon="-1.4443">
        <ele>57</ele>
        <time>2022-04-16T12:51:19Z</time>
      </trkpt>
      <trkpt lat="47.25561" lon="-1.44443">
        <ele>57</ele>
        <time>2022-04-16T12:51:21Z</time>
      </trkpt>
      <trkpt lat="47.2555" lon="-1.44459">
        <ele>57</ele>
        <time>2022-04-16T12:51:23Z</time>
      </trkpt>
      <trkpt lat="47.2554" lon="-1.44474">
        <ele>57</ele>
        <time>2022-04-16T12:51:25Z</time>
      </trkpt>
      <trkpt lat="47.2553" lon="-1.4449">
        <ele>57</ele>
        <time>2022-04-16T12:51:27Z</time>
      </trkpt>
      <trkpt lat="47.2552" lon="-1.44505">
        <ele>57</ele>
        <time>2022-04-16T12:51:29Z</time>
      </trkpt>
      <trkpt lat="47.25511" lon="-1.4452">
        <ele>56</ele>
        <time>2022-04-16T12:51:31Z</time>
      </trkpt>
      <trkpt lat="47.255" lon="-1.44535">
        <ele>56</ele>
        <time>2022-04-16T12:51:33Z</time>
      </trkpt>
      <trkpt lat="47.25489" lon="-1.44549">
        <ele>56</ele>
        <time>2022-04-16T12:51:35Z</time>
      </trkpt>
      <trkpt lat="47.25479" lon="-1.44565">
        <ele>55</ele>
        <time>2022-04-16T12:51:37Z</time>
      </trkpt>
      <trkpt lat="47.25469" lon="-1.4458">
        <ele>55</ele>
        <time>2022-04-16T12:51:39Z</time>
      </trkpt>
      <trkpt lat="47.25459" lon="-1.44595">
        <ele>55</ele>
        <time>2022-04-16T12:51:41Z</time>
      </trkpt>
      <trkpt lat="47.25449" lon="-1.4461">
        <ele>56</ele>
        <time>2022-04-16T12:51:43Z</time>
      </trkpt>
      <trkpt lat="47.25439" lon="-1.44624">
        <ele>56</ele>
        <time>2022-04-16T12:51:45Z</time>
      </trkpt>
      <trkpt lat="47.25428" lon="-1.44639">
        <ele>56</ele>
        <time>2022-04-16T12:51:47Z</time>
      </trkpt>
      <trkpt lat="47.25417" lon="-1.44653">
        <ele>56</ele>
        <time>2022-04-16T12:51:49Z</time>
      </trkpt>
      <trkpt lat="47.25406" lon="-1.44667">
        <ele>56</ele>
        <time>2022-04-16T12:51:51Z</time>
      </trkpt>
      <trkpt lat="47.25395" lon="-1.44681">
        <ele>56</ele>
        <time>2022-04-16T12:51:53Z</time>
      </trkpt>
      <trkpt lat="47.25385" lon="-1.44695">
        <ele>56</ele>
        <time>2022-04-16T12:51:55Z</time>
      </trkpt>
      <trkpt lat="47.25374" lon="-1.44709">
        <ele>56</ele>
        <time>2022-04-16T12:51:57Z</time>
      </trkpt>
      <trkpt lat="47.25362" lon="-1.44722">
        <ele>57</ele>
        <time>2022-04-16T12:51:59Z</time>
      </trkpt>
      <trkpt lat="47.25351" lon="-1.44734">
        <ele>57</ele>
        <time>2022-04-16T12:52:01Z</time>
      </trkpt>
      <trkpt lat="47.2534" lon="-1.44745">
        <ele>57</ele>
        <time>2022-04-16T12:52:03Z</time>
      </trkpt>
      <trkpt lat="47.25328" lon="-1.44757">
        <ele>57</ele>
        <time>2022-04-16T12:52:05Z</time>
      </trkpt>
      <trkpt lat="47.25317" lon="-1.44769">
        <ele>57</ele>
        <time>2022-04-16T12:52:07Z</time>
      </trkpt>
      <trkpt lat="47.25306" lon="-1.44781">
        <ele>58</ele>
        <time>2022-04-16T12:52:09Z</time>
      </trkpt>
      <trkpt lat="47.25295" lon="-1.44792">
        <ele>58</ele>
        <time>2022-04-16T12:52:11Z</time>
      </trkpt>
      <trkpt lat="47.25284" lon="-1.44804">
        <ele>58</ele>
        <time>2022-04-16T12:52:13Z</time>
      </trkpt>
      <trkpt lat="47.25273" lon="-1.44816">
        <ele>59</ele>
        <time>2022-04-16T12:52:15Z</time>
      </trkpt>
      <trkpt lat="47.25262" lon="-1.44829">
        <ele>59</ele>
        <time>2022-04-16T12:52:17Z</time>
      </trkpt>
      <trkpt lat="47.25251" lon="-1.44842">
        <ele>59</ele>
        <time>2022-04-16T12:52:19Z</time>
      </trkpt>
      <trkpt lat="47.2524" lon="-1.44855">
        <ele>58</ele>
        <time>2022-04-16T12:52:21Z</time>
      </trkpt>
      <trkpt lat="47.25229" lon="-1.44866">
        <ele>59</ele>
        <time>2022-04-16T12:52:23Z</time>
      </trkpt>
      <trkpt lat="47.25217" lon="-1.44876">
        <ele>59</ele>
        <time>2022-04-16T12:52:25Z</time>
      </trkpt>
      <trkpt lat="47.25205" lon="-1.44887">
        <ele>60</ele>
        <time>2022-04-16T12:52:27Z</time>
      </trkpt>
      <trkpt lat="47.25193" lon="-1.44897">
        <ele>60</ele>
        <time>2022-04-16T12:52:29Z</time>
      </trkpt>
      <trkpt lat="47.2518" lon="-1.44907">
        <ele>59</ele>
        <time>2022-04-16T12:52:31Z</time>
      </trkpt>
      <trkpt lat="47.25168" lon="-1.44918">
        <ele>59</ele>
        <time>2022-04-16T12:52:33Z</time>
      </trkpt>
      <trkpt lat="47.25155" lon="-1.44929">
        <ele>58</ele>
        <time>2022-04-16T12:52:35Z</time>
      </trkpt>
      <trkpt lat="47.25144" lon="-1.4494">
        <ele>58</ele>
        <time>2022-04-16T12:52:37Z</time>
      </trkpt>
      <trkpt lat="47.25133" lon="-1.4495">
        <ele>58</ele>
        <time>2022-04-16T12:52:39Z</time>
      </trkpt>
      <trkpt lat="47.25122" lon="-1.44962">
        <ele>58</ele>
        <time>2022-04-16T12:52:41Z</time>
      </trkpt>
      <trkpt lat="47.2511" lon="-1.44973">
        <ele>58</ele>
        <time>2022-04-16T12:52:43Z</time>
      </trkpt>
      <trkpt lat="47.25099" lon="-1.44984">
        <ele>58</ele>
        <time>2022-04-16T12:52:45Z</time>
      </trkpt>
      <trkpt lat="47.25088" lon="-1.44994">
        <ele>59</ele>
        <time>2022-04-16T12:52:47Z</time>
      </trkpt>
      <trkpt lat="47.25076" lon="-1.45003">
        <ele>60</ele>
        <time>2022-04-16T12:52:49Z</time>
      </trkpt>
      <trkpt lat="47.25065" lon="-1.45012">
        <ele>60</ele>
        <time>2022-04-16T12:52:51Z</time>
      </trkpt>
      <trkpt lat="47.25053" lon="-1.45022">
        <ele>61</ele>
        <time>2022-04-16T12:52:53Z</time>
      </trkpt>
      <trkpt lat="47.2504" lon="-1.45031">
        <ele>61</ele>
        <time>2022-04-16T12:52:55Z</time>
      </trkpt>
      <trkpt lat="47.25027" lon="-1.4504">
        <ele>61</ele>
        <time>2022-04-16T12:52:57Z</time>
      </trkpt>
      <trkpt lat="47.25015" lon="-1.45051">
        <ele>60</ele>
        <time>2022-04-16T12:52:59Z</time>
      </trkpt>
      <trkpt lat="47.25003" lon="-1.45062">
        <ele>60</ele>
        <time>2022-04-16T12:53:01Z</time>
      </trkpt>
      <trkpt lat="47.24993" lon="-1.45073">
        <ele>59</ele>
        <time>2022-04-16T12:53:03Z</time>
      </trkpt>
      <trkpt lat="47.24982" lon="-1.45086">
        <ele>59</ele>
        <time>2022-04-16T12:53:05Z</time>
      </trkpt>
      <trkpt lat="47.24971" lon="-1.45099">
        <ele>59</ele>
        <time>2022-04-16T12:53:07Z</time>
      </trkpt>
      <trkpt lat="47.24961" lon="-1.4511">
        <ele>59</ele>
        <time>2022-04-16T12:53:09Z</time>
      </trkpt>
      <trkpt lat="47.2495" lon="-1.45122">
        <ele>59</ele>
        <time>2022-04-16T12:53:11Z</time>
      </trkpt>
      <trkpt lat="47.24939" lon="-1.45134">
        <ele>60</ele>
        <time>2022-04-16T12:53:13Z</time>
      </trkpt>
      <trkpt lat="47.24928" lon="-1.45145">
        <ele>60</ele>
        <time>2022-04-16T12:53:15Z</time>
      </trkpt>
      <trkpt lat="47.24916" lon="-1.45157">
        <ele>59</ele>
        <time>2022-04-16T12:53:17Z</time>
      </trkpt>
      <trkpt lat="47.24905" lon="-1.45169">
        <ele>60</ele>
        <time>2022-04-16T12:53:19Z</time>
      </trkpt>
      <trkpt lat="47.24895" lon="-1.45182">
        <ele>59</ele>
        <time>2022-04-16T12:53:21Z</time>
      </trkpt>
      <trkpt lat="47.24885" lon="-1.45196">
        <ele>59</ele>
        <time>2022-04-16T12:53:23Z</time>
      </trkpt>
      <trkpt lat="47.24876" lon="-1.45209">
        <ele>59</ele>
        <time>2022-04-16T12:53:25Z</time>
      </trkpt>
      <trkpt lat="47.24867" lon="-1.45223">
        <ele>60</ele>
        <time>2022-04-16T12:53:27Z</time>
      </trkpt>
      <trkpt lat="47.24857" lon="-1.45238">
        <ele>60</ele>
        <time>2022-04-16T12:53:29Z</time>
      </trkpt>
      <trkpt lat="47.24848" lon="-1.45253">
        <ele>60</ele>
        <time>2022-04-16T12:53:31Z</time>
      </trkpt>
      <trkpt lat="47.24839" lon="-1.45268">
        <ele>60</ele>
        <time>2022-04-16T12:53:33Z</time>
      </trkpt>
      <trkpt lat="47.2483" lon="-1.45283">
        <ele>61</ele>
        <time>2022-04-16T12:53:35Z</time>
      </trkpt>
      <trkpt lat="47.24822" lon="-1.45298">
        <ele>61</ele>
        <time>2022-04-16T12:53:37Z</time>
      </trkpt>
      <trkpt lat="47.24815" lon="-1.45312">
        <ele>61</ele>
        <time>2022-04-16T12:53:39Z</time>
      </trkpt>
      <trkpt lat="47.24807" lon="-1.45329">
        <ele>62</ele>
        <time>2022-04-16T12:53:41Z</time>
      </trkpt>
      <trkpt lat="47.24799" lon="-1.45346">
        <ele>62</ele>
        <time>2022-04-16T12:53:43Z</time>
      </trkpt>
      <trkpt lat="47.24792" lon="-1.45361">
        <ele>62</ele>
        <time>2022-04-16T12:53:45Z</time>
      </trkpt>
      <trkpt lat="47.24785" lon="-1.45377">
        <ele>61</ele>
        <time>2022-04-16T12:53:47Z</time>
      </trkpt>
      <trkpt lat="47.2478" lon="-1.45393">
        <ele>61</ele>
        <time>2022-04-16T12:53:49Z</time>
      </trkpt>
      <trkpt lat="47.24773" lon="-1.45409">
        <ele>61</ele>
        <time>2022-04-16T12:53:51Z</time>
      </trkpt>
      <trkpt lat="47.24766" lon="-1.45425">
        <ele>60</ele>
        <time>2022-04-16T12:53:53Z</time>
      </trkpt>
      <trkpt lat="47.2476" lon="-1.45442">
        <ele>60</ele>
        <time>2022-04-16T12:53:55Z</time>
      </trkpt>
      <trkpt lat="47.24753" lon="-1.45459">
        <ele>59</ele>
        <time>2022-04-16T12:53:57Z</time>
      </trkpt>
      <trkpt lat="47.24746" lon="-1.45475">
        <ele>59</ele>
        <time>2022-04-16T12:53:59Z</time>
      </trkpt>
      <trkpt lat="47.24738" lon="-1.45492">
        <ele>59</ele>
        <time>2022-04-16T12:54:01Z</time>
      </trkpt>
      <trkpt lat="47.24732" lon="-1.4551">
        <ele>58</ele>
        <time>2022-04-16T12:54:03Z</time>
      </trkpt>
      <trkpt lat="47.24725" lon="-1.45528">
        <ele>57</ele>
        <time>2022-04-16T12:54:05Z</time>
      </trkpt>
      <trkpt lat="47.24718" lon="-1.45547">
        <ele>57</ele>
        <time>2022-04-16T12:54:07Z</time>
      </trkpt>
      <trkpt lat="47.24712" lon="-1.45566">
        <ele>57</ele>
        <time>2022-04-16T12:54:09Z</time>
      </trkpt>
      <trkpt lat="47.24706" lon="-1.45585">
        <ele>57</ele>
        <time>2022-04-16T12:54:11Z</time>
      </trkpt>
      <trkpt lat="47.24699" lon="-1.45604">
        <ele>57</ele>
        <time>2022-04-16T12:54:13Z</time>
      </trkpt>
      <trkpt lat="47.24693" lon="-1.45623">
        <ele>57</ele>
        <time>2022-04-16T12:54:15Z</time>
      </trkpt>
      <trkpt lat="47.24688" lon="-1.45642">
        <ele>57</ele>
        <time>2022-04-16T12:54:17Z</time>
      </trkpt>
      <trkpt lat="47.24683" lon="-1.45661">
        <ele>58</ele>
        <time>2022-04-16T12:54:19Z</time>
      </trkpt>
      <trkpt lat="47.24677" lon="-1.4568">
        <ele>58</ele>
        <time>2022-04-16T12:54:21Z</time>
      </trkpt>
      <trkpt lat="47.24672" lon="-1.457">
        <ele>58</ele>
        <time>2022-04-16T12:54:23Z</time>
      </trkpt>
      <trkpt lat="47.24667" lon="-1.4572">
        <ele>59</ele>
        <time>2022-04-16T12:54:25Z</time>
      </trkpt>
      <trkpt lat="47.24663" lon="-1.45741">
        <ele>59</ele>
        <time>2022-04-16T12:54:27Z</time>
      </trkpt>
      <trkpt lat="47.24658" lon="-1.45761">
        <ele>59</ele>
        <time>2022-04-16T12:54:29Z</time>
      </trkpt>
      <trkpt lat="47.24655" lon="-1.45781">
        <ele>59</ele>
        <time>2022-04-16T12:54:31Z</time>
      </trkpt>
      <trkpt lat="47.2465" lon="-1.45799">
        <ele>60</ele>
        <time>2022-04-16T12:54:33Z</time>
      </trkpt>
      <trkpt lat="47.24645" lon="-1.45816">
        <ele>60</ele>
        <time>2022-04-16T12:54:35Z</time>
      </trkpt>
      <trkpt lat="47.24638" lon="-1.45833">
        <ele>61</ele>
        <time>2022-04-16T12:54:37Z</time>
      </trkpt>
      <trkpt lat="47.24633" lon="-1.45851">
        <ele>62</ele>
        <time>2022-04-16T12:54:39Z</time>
      </trkpt>
      <trkpt lat="47.24628" lon="-1.4587">
        <ele>63</ele>
        <time>2022-04-16T12:54:41Z</time>
      </trkpt>
      <trkpt lat="47.24622" lon="-1.45888">
        <ele>64</ele>
        <time>2022-04-16T12:54:43Z</time>
      </trkpt>
      <trkpt lat="47.24616" lon="-1.45907">
        <ele>65</ele>
        <time>2022-04-16T12:54:45Z</time>
      </trkpt>
      <trkpt lat="47.24611" lon="-1.45924">
        <ele>65</ele>
        <time>2022-04-16T12:54:47Z</time>
      </trkpt>
      <trkpt lat="47.24604" lon="-1.45941">
        <ele>65</ele>
        <time>2022-04-16T12:54:49Z</time>
      </trkpt>
      <trkpt lat="47.24596" lon="-1.45959">
        <ele>65</ele>
        <time>2022-04-16T12:54:51Z</time>
      </trkpt>
      <trkpt lat="47.24589" lon="-1.45977">
        <ele>65</ele>
        <time>2022-04-16T12:54:53Z</time>
      </trkpt>
      <trkpt lat="47.24581" lon="-1.45993">
        <ele>64</ele>
        <time>2022-04-16T12:54:55Z</time>
      </trkpt>
      <trkpt lat="47.24573" lon="-1.46011">
        <ele>64</ele>
        <time>2022-04-16T12:54:57Z</time>
      </trkpt>
      <trkpt lat="47.24566" lon="-1.46027">
        <ele>64</ele>
        <time>2022-04-16T12:54:59Z</time>
      </trkpt>
      <trkpt lat="47.24557" lon="-1.46042">
        <ele>63</ele>
        <time>2022-04-16T12:55:01Z</time>
      </trkpt>
      <trkpt lat="47.24548" lon="-1.46057">
        <ele>63</ele>
        <time>2022-04-16T12:55:03Z</time>
      </trkpt>
      <trkpt lat="47.24541" lon="-1.46074">
        <ele>62</ele>
        <time>2022-04-16T12:55:05Z</time>
      </trkpt>
      <trkpt lat="47.24533" lon="-1.46089">
        <ele>63</ele>
        <time>2022-04-16T12:55:07Z</time>
      </trkpt>
      <trkpt lat="47.24527" lon="-1.46101">
        <ele>63</ele>
        <time>2022-04-16T12:55:09Z</time>
      </trkpt>
      <trkpt lat="47.24518" lon="-1.46111">
        <ele>63</ele>
        <time>2022-04-16T12:55:11Z</time>
      </trkpt>
      <trkpt lat="47.24507" lon="-1.46123">
        <ele>62</ele>
        <time>2022-04-16T12:55:13Z</time>
      </trkpt>
      <trkpt lat="47.24496" lon="-1.46136">
        <ele>62</ele>
        <time>2022-04-16T12:55:15Z</time>
      </trkpt>
      <trkpt lat="47.24486" lon="-1.4615">
        <ele>62</ele>
        <time>2022-04-16T12:55:17Z</time>
      </trkpt>
      <trkpt lat="47.24475" lon="-1.46163">
        <ele>61</ele>
        <time>2022-04-16T12:55:19Z</time>
      </trkpt>
      <trkpt lat="47.24465" lon="-1.46176">
        <ele>61</ele>
        <time>2022-04-16T12:55:21Z</time>
      </trkpt>
      <trkpt lat="47.24455" lon="-1.46188">
        <ele>61</ele>
        <time>2022-04-16T12:55:23Z</time>
      </trkpt>
      <trkpt lat="47.24445" lon="-1.46202">
        <ele>61</ele>
        <time>2022-04-16T12:55:25Z</time>
      </trkpt>
      <trkpt lat="47.24435" lon="-1.46215">
        <ele>61</ele>
        <time>2022-04-16T12:55:27Z</time>
      </trkpt>
      <trkpt lat="47.24425" lon="-1.46227">
        <ele>61</ele>
        <time>2022-04-16T12:55:29Z</time>
      </trkpt>
      <trkpt lat="47.24415" lon="-1.4624">
        <ele>62</ele>
        <time>2022-04-16T12:55:31Z</time>
      </trkpt>
      <trkpt lat="47.24406" lon="-1.46254">
        <ele>62</ele>
        <time>2022-04-16T12:55:33Z</time>
      </trkpt>
      <trkpt lat="47.24397" lon="-1.46267">
        <ele>62</ele>
        <time>2022-04-16T12:55:35Z</time>
      </trkpt>
      <trkpt lat="47.24389" lon="-1.46281">
        <ele>63</ele>
        <time>2022-04-16T12:55:37Z</time>
      </trkpt>
      <trkpt lat="47.2438" lon="-1.46294">
        <ele>63</ele>
        <time>2022-04-16T12:55:39Z</time>
      </trkpt>
      <trkpt lat="47.2437" lon="-1.46307">
        <ele>63</ele>
        <time>2022-04-16T12:55:41Z</time>
      </trkpt>
      <trkpt lat="47.24361" lon="-1.46321">
        <ele>63</ele>
        <time>2022-04-16T12:55:43Z</time>
      </trkpt>
      <trkpt lat="47.24352" lon="-1.46334">
        <ele>63</ele>
        <time>2022-04-16T12:55:45Z</time>
      </trkpt>
      <trkpt lat="47.24344" lon="-1.46348">
        <ele>63</ele>
        <time>2022-04-16T12:55:47Z</time>
      </trkpt>
      <trkpt lat="47.24335" lon="-1.46362">
        <ele>63</ele>
        <time>2022-04-16T12:55:49Z</time>
      </trkpt>
      <trkpt lat="47.24327" lon="-1.46377">
        <ele>63</ele>
        <time>2022-04-16T12:55:51Z</time>
      </trkpt>
      <trkpt lat="47.24318" lon="-1.46392">
        <ele>63</ele>
        <time>2022-04-16T12:55:53Z</time>
      </trkpt>
      <trkpt lat="47.2431" lon="-1.46406">
        <ele>63</ele>
        <time>2022-04-16T12:55:55Z</time>
      </trkpt>
      <trkpt lat="47.24301" lon="-1.46421">
        <ele>63</ele>
        <time>2022-04-16T12:55:57Z</time>
      </trkpt>
      <trkpt lat="47.24293" lon="-1.46436">
        <ele>63</ele>
        <time>2022-04-16T12:55:59Z</time>
      </trkpt>
      <trkpt lat="47.24284" lon="-1.46449">
        <ele>63</ele>
        <time>2022-04-16T12:56:01Z</time>
      </trkpt>
      <trkpt lat="47.24274" lon="-1.46462">
        <ele>62</ele>
        <time>2022-04-16T12:56:03Z</time>
      </trkpt>
      <trkpt lat="47.24264" lon="-1.46475">
        <ele>61</ele>
        <time>2022-04-16T12:56:05Z</time>
      </trkpt>
      <trkpt lat="47.24254" lon="-1.46488">
        <ele>61</ele>
        <time>2022-04-16T12:56:07Z</time>
      </trkpt>
      <trkpt lat="47.24243" lon="-1.46502">
        <ele>61</ele>
        <time>2022-04-16T12:56:09Z</time>
      </trkpt>
      <trkpt lat="47.24233" lon="-1.46514">
        <ele>60</ele>
        <time>2022-04-16T12:56:11Z</time>
      </trkpt>
      <trkpt lat="47.24222" lon="-1.46527">
        <ele>60</ele>
        <time>2022-04-16T12:56:13Z</time>
      </trkpt>
      <trkpt lat="47.24212" lon="-1.4654">
        <ele>59</ele>
        <time>2022-04-16T12:56:15Z</time>
      </trkpt>
      <trkpt lat="47.24202" lon="-1.46551">
        <ele>59</ele>
        <time>2022-04-16T12:56:17Z</time>
      </trkpt>
      <trkpt lat="47.24192" lon="-1.46564">
        <ele>59</ele>
        <time>2022-04-16T12:56:19Z</time>
      </trkpt>
      <trkpt lat="47.24181" lon="-1.46577">
        <ele>59</ele>
        <time>2022-04-16T12:56:21Z</time>
      </trkpt>
      <trkpt lat="47.24171" lon="-1.4659">
        <ele>59</ele>
        <time>2022-04-16T12:56:23Z</time>
      </trkpt>
      <trkpt lat="47.24162" lon="-1.46602">
        <ele>59</ele>
        <time>2022-04-16T12:56:25Z</time>
      </trkpt>
      <trkpt lat="47.24153" lon="-1.46614">
        <ele>59</ele>
        <time>2022-04-16T12:56:27Z</time>
      </trkpt>
      <trkpt lat="47.24144" lon="-1.46626">
        <ele>59</ele>
        <time>2022-04-16T12:56:29Z</time>
      </trkpt>
      <trkpt lat="47.24135" lon="-1.46639">
        <ele>59</ele>
        <time>2022-04-16T12:56:31Z</time>
      </trkpt>
      <trkpt lat="47.24125" lon="-1.46652">
        <ele>59</ele>
        <time>2022-04-16T12:56:33Z</time>
      </trkpt>
      <trkpt lat="47.24116" lon="-1.46665">
        <ele>59</ele>
        <time>2022-04-16T12:56:35Z</time>
      </trkpt>
      <trkpt lat="47.24107" lon="-1.46678">
        <ele>59</ele>
        <time>2022-04-16T12:56:37Z</time>
      </trkpt>
      <trkpt lat="47.24096" lon="-1.46691">
        <ele>59</ele>
        <time>2022-04-16T12:56:39Z</time>
      </trkpt>
      <trkpt lat="47.24087" lon="-1.46705">
        <ele>59</ele>
        <time>2022-04-16T12:56:41Z</time>
      </trkpt>
      <trkpt lat="47.24081" lon="-1.4672">
        <ele>59</ele>
        <time>2022-04-16T12:56:43Z</time>
      </trkpt>
      <trkpt lat="47.24076" lon="-1.46735">
        <ele>59</ele>
        <time>2022-04-16T12:56:45Z</time>
      </trkpt>
      <trkpt lat="47.24065" lon="-1.46746">
        <ele>59</ele>
        <time>2022-04-16T12:56:47Z</time>
      </trkpt>
      <trkpt lat="47.24053" lon="-1.46753">
        <ele>59</ele>
        <time>2022-04-16T12:56:49Z</time>
      </trkpt>
      <trkpt lat="47.24042" lon="-1.46765">
        <ele>58</ele>
        <time>2022-04-16T12:56:51Z</time>
      </trkpt>
      <trkpt lat="47.24031" lon="-1.46776">
        <ele>58</ele>
        <time>2022-04-16T12:56:53Z</time>
      </trkpt>
      <trkpt lat="47.24021" lon="-1.46788">
        <ele>58</ele>
        <time>2022-04-16T12:56:55Z</time>
      </trkpt>
      <trkpt lat="47.24011" lon="-1.468">
        <ele>58</ele>
        <time>2022-04-16T12:56:57Z</time>
      </trkpt>
      <trkpt lat="47.24" lon="-1.46811">
        <ele>58</ele>
        <time>2022-04-16T12:56:59Z</time>
      </trkpt>
      <trkpt lat="47.2399" lon="-1.46822">
        <ele>58</ele>
        <time>2022-04-16T12:57:01Z</time>
      </trkpt>
      <trkpt lat="47.23979" lon="-1.46833">
        <ele>58</ele>
        <time>2022-04-16T12:57:03Z</time>
      </trkpt>
      <trkpt lat="47.23968" lon="-1.46844">
        <ele>58</ele>
        <time>2022-04-16T12:57:05Z</time>
      </trkpt>
      <trkpt lat="47.23958" lon="-1.46855">
        <ele>58</ele>
        <time>2022-04-16T12:57:07Z</time>
      </trkpt>
      <trkpt lat="47.23946" lon="-1.46864">
        <ele>59</ele>
        <time>2022-04-16T12:57:09Z</time>
      </trkpt>
      <trkpt lat="47.23935" lon="-1.46873">
        <ele>59</ele>
        <time>2022-04-16T12:57:11Z</time>
      </trkpt>
      <trkpt lat="47.23925" lon="-1.46883">
        <ele>59</ele>
        <time>2022-04-16T12:57:13Z</time>
      </trkpt>
      <trkpt lat="47.23914" lon="-1.46893">
        <ele>59</ele>
        <time>2022-04-16T12:57:15Z</time>
      </trkpt>
      <trkpt lat="47.23904" lon="-1.46906">
        <ele>59</ele>
        <time>2022-04-16T12:57:17Z</time>
      </trkpt>
      <trkpt lat="47.23896" lon="-1.46919">
        <ele>59</ele>
        <time>2022-04-16T12:57:19Z</time>
      </trkpt>
      <trkpt lat="47.23887" lon="-1.46932">
        <ele>59</ele>
        <time>2022-04-16T12:57:21Z</time>
      </trkpt>
      <trkpt lat="47.23877" lon="-1.46945">
        <ele>60</ele>
        <time>2022-04-16T12:57:23Z</time>
      </trkpt>
      <trkpt lat="47.23867" lon="-1.46958">
        <ele>60</ele>
        <time>2022-04-16T12:57:25Z</time>
      </trkpt>
      <trkpt lat="47.23857" lon="-1.46971">
        <ele>61</ele>
        <time>2022-04-16T12:57:27Z</time>
      </trkpt>
      <trkpt lat="47.23848" lon="-1.46984">
        <ele>61</ele>
        <time>2022-04-16T12:57:29Z</time>
      </trkpt>
      <trkpt lat="47.23838" lon="-1.46997">
        <ele>61</ele>
        <time>2022-04-16T12:57:31Z</time>
      </trkpt>
      <trkpt lat="47.23829" lon="-1.47011">
        <ele>60</ele>
        <time>2022-04-16T12:57:33Z</time>
      </trkpt>
      <trkpt lat="47.2382" lon="-1.47025">
        <ele>60</ele>
        <time>2022-04-16T12:57:35Z</time>
      </trkpt>
      <trkpt lat="47.2381" lon="-1.47039">
        <ele>59</ele>
        <time>2022-04-16T12:57:37Z</time>
      </trkpt>
      <trkpt lat="47.23801" lon="-1.47052">
        <ele>59</ele>
        <time>2022-04-16T12:57:39Z</time>
      </trkpt>
      <trkpt lat="47.23791" lon="-1.47066">
        <ele>59</ele>
        <time>2022-04-16T12:57:41Z</time>
      </trkpt>
      <trkpt lat="47.23782" lon="-1.47079">
        <ele>59</ele>
        <time>2022-04-16T12:57:43Z</time>
      </trkpt>
      <trkpt lat="47.23772" lon="-1.47093">
        <ele>58</ele>
        <time>2022-04-16T12:57:45Z</time>
      </trkpt>
      <trkpt lat="47.23762" lon="-1.47106">
        <ele>58</ele>
        <time>2022-04-16T12:57:47Z</time>
      </trkpt>
      <trkpt lat="47.23752" lon="-1.47119">
        <ele>58</ele>
        <time>2022-04-16T12:57:49Z</time>
      </trkpt>
      <trkpt lat="47.23741" lon="-1.47131">
        <ele>58</ele>
        <time>2022-04-16T12:57:51Z</time>
      </trkpt>
      <trkpt lat="47.23731" lon="-1.47143">
        <ele>58</ele>
        <time>2022-04-16T12:57:53Z</time>
      </trkpt>
      <trkpt lat="47.23721" lon="-1.47156">
        <ele>58</ele>
        <time>2022-04-16T12:57:55Z</time>
      </trkpt>
      <trkpt lat="47.23712" lon="-1.4717">
        <ele>58</ele>
        <time>2022-04-16T12:57:57Z</time>
      </trkpt>
      <trkpt lat="47.23703" lon="-1.47184">
        <ele>58</ele>
        <time>2022-04-16T12:57:59Z</time>
      </trkpt>
      <trkpt lat="47.23694" lon="-1.47197">
        <ele>59</ele>
        <time>2022-04-16T12:58:01Z</time>
      </trkpt>
      <trkpt lat="47.23685" lon="-1.47211">
        <ele>59</ele>
        <time>2022-04-16T12:58:03Z</time>
      </trkpt>
      <trkpt lat="47.23675" lon="-1.47225">
        <ele>59</ele>
        <time>2022-04-16T12:58:05Z</time>
      </trkpt>
      <trkpt lat="47.23664" lon="-1.47237">
        <ele>59</ele>
        <time>2022-04-16T12:58:07Z</time>
      </trkpt>
      <trkpt lat="47.23654" lon="-1.47249">
        <ele>59</ele>
        <time>2022-04-16T12:58:09Z</time>
      </trkpt>
      <trkpt lat="47.23643" lon="-1.47262">
        <ele>59</ele>
        <time>2022-04-16T12:58:11Z</time>
      </trkpt>
      <trkpt lat="47.23632" lon="-1.47274">
        <ele>58</ele>
        <time>2022-04-16T12:58:13Z</time>
      </trkpt>
      <trkpt lat="47.23621" lon="-1.47285">
        <ele>59</ele>
        <time>2022-04-16T12:58:15Z</time>
      </trkpt>
      <trkpt lat="47.23611" lon="-1.47297">
        <ele>59</ele>
        <time>2022-04-16T12:58:17Z</time>
      </trkpt>
      <trkpt lat="47.23599" lon="-1.47308">
        <ele>59</ele>
        <time>2022-04-16T12:58:19Z</time>
      </trkpt>
      <trkpt lat="47.23588" lon="-1.47319">
        <ele>58</ele>
        <time>2022-04-16T12:58:21Z</time>
      </trkpt>
      <trkpt lat="47.23576" lon="-1.4733">
        <ele>58</ele>
        <time>2022-04-16T12:58:23Z</time>
      </trkpt>
      <trkpt lat="47.23565" lon="-1.4734">
        <ele>58</ele>
        <time>2022-04-16T12:58:25Z</time>
      </trkpt>
      <trkpt lat="47.23552" lon="-1.4735">
        <ele>58</ele>
        <time>2022-04-16T12:58:27Z</time>
      </trkpt>
      <trkpt lat="47.23541" lon="-1.4736">
        <ele>58</ele>
        <time>2022-04-16T12:58:29Z</time>
      </trkpt>
      <trkpt lat="47.23529" lon="-1.4737">
        <ele>58</ele>
        <time>2022-04-16T12:58:31Z</time>
      </trkpt>
      <trkpt lat="47.23517" lon="-1.4738">
        <ele>58</ele>
        <time>2022-04-16T12:58:33Z</time>
      </trkpt>
      <trkpt lat="47.23506" lon="-1.47389">
        <ele>58</ele>
        <time>2022-04-16T12:58:35Z</time>
      </trkpt>
      <trkpt lat="47.23494" lon="-1.47398">
        <ele>58</ele>
        <time>2022-04-16T12:58:37Z</time>
      </trkpt>
      <trkpt lat="47.23482" lon="-1.47405">
        <ele>58</ele>
        <time>2022-04-16T12:58:39Z</time>
      </trkpt>
      <trkpt lat="47.23469" lon="-1.4741">
        <ele>58</ele>
        <time>2022-04-16T12:58:41Z</time>
      </trkpt>
      <trkpt lat="47.23457" lon="-1.47417">
        <ele>58</ele>
        <time>2022-04-16T12:58:43Z</time>
      </trkpt>
      <trkpt lat="47.23446" lon="-1.47423">
        <ele>58</ele>
        <time>2022-04-16T12:58:45Z</time>
      </trkpt>
      <trkpt lat="47.23434" lon="-1.47429">
        <ele>59</ele>
        <time>2022-04-16T12:58:47Z</time>
      </trkpt>
      <trkpt lat="47.23422" lon="-1.47433">
        <ele>59</ele>
        <time>2022-04-16T12:58:49Z</time>
      </trkpt>
      <trkpt lat="47.2341" lon="-1.47441">
        <ele>59</ele>
        <time>2022-04-16T12:58:51Z</time>
      </trkpt>
      <trkpt lat="47.23398" lon="-1.47449">
        <ele>59</ele>
        <time>2022-04-16T12:58:53Z</time>
      </trkpt>
      <trkpt lat="47.23386" lon="-1.47456">
        <ele>60</ele>
        <time>2022-04-16T12:58:55Z</time>
      </trkpt>
      <trkpt lat="47.23374" lon="-1.47462">
        <ele>60</ele>
        <time>2022-04-16T12:58:57Z</time>
      </trkpt>
      <trkpt lat="47.23362" lon="-1.47468">
        <ele>60</ele>
        <time>2022-04-16T12:58:59Z</time>
      </trkpt>
      <trkpt lat="47.2335" lon="-1.47474">
        <ele>59</ele>
        <time>2022-04-16T12:59:01Z</time>
      </trkpt>
      <trkpt lat="47.23339" lon="-1.4748">
        <ele>59</ele>
        <time>2022-04-16T12:59:03Z</time>
      </trkpt>
      <trkpt lat="47.23327" lon="-1.47487">
        <ele>59</ele>
        <time>2022-04-16T12:59:05Z</time>
      </trkpt>
      <trkpt lat="47.23315" lon="-1.475">
        <ele>60</ele>
        <time>2022-04-16T12:59:07Z</time>
      </trkpt>
      <trkpt lat="47.23302" lon="-1.47507">
        <ele>59</ele>
        <time>2022-04-16T12:59:09Z</time>
      </trkpt>
      <trkpt lat="47.2329" lon="-1.47514">
        <ele>59</ele>
        <time>2022-04-16T12:59:11Z</time>
      </trkpt>
      <trkpt lat="47.23278" lon="-1.4752">
        <ele>58</ele>
        <time>2022-04-16T12:59:13Z</time>
      </trkpt>
      <trkpt lat="47.23266" lon="-1.4753">
        <ele>59</ele>
        <time>2022-04-16T12:59:15Z</time>
      </trkpt>
      <trkpt lat="47.23257" lon="-1.47544">
        <ele>59</ele>
        <time>2022-04-16T12:59:17Z</time>
      </trkpt>
      <trkpt lat="47.23249" lon="-1.4756">
        <ele>59</ele>
        <time>2022-04-16T12:59:19Z</time>
      </trkpt>
      <trkpt lat="47.23241" lon="-1.47575">
        <ele>59</ele>
        <time>2022-04-16T12:59:21Z</time>
      </trkpt>
      <trkpt lat="47.23232" lon="-1.47589">
        <ele>60</ele>
        <time>2022-04-16T12:59:23Z</time>
      </trkpt>
      <trkpt lat="47.23225" lon="-1.47604">
        <ele>60</ele>
        <time>2022-04-16T12:59:25Z</time>
      </trkpt>
      <trkpt lat="47.23218" lon="-1.47621">
        <ele>60</ele>
        <time>2022-04-16T12:59:27Z</time>
      </trkpt>
      <trkpt lat="47.2321" lon="-1.47637">
        <ele>59</ele>
        <time>2022-04-16T12:59:29Z</time>
      </trkpt>
      <trkpt lat="47.23203" lon="-1.47654">
        <ele>59</ele>
        <time>2022-04-16T12:59:31Z</time>
      </trkpt>
      <trkpt lat="47.23198" lon="-1.47669">
        <ele>59</ele>
        <time>2022-04-16T12:59:33Z</time>
      </trkpt>
      <trkpt lat="47.23192" lon="-1.47686">
        <ele>60</ele>
        <time>2022-04-16T12:59:35Z</time>
      </trkpt>
      <trkpt lat="47.23186" lon="-1.47703">
        <ele>60</ele>
        <time>2022-04-16T12:59:37Z</time>
      </trkpt>
      <trkpt lat="47.23177" lon="-1.4772">
        <ele>59</ele>
        <time>2022-04-16T12:59:39Z</time>
      </trkpt>
      <trkpt lat="47.2317" lon="-1.47737">
        <ele>59</ele>
        <time>2022-04-16T12:59:41Z</time>
      </trkpt>
      <trkpt lat="47.23162" lon="-1.47755">
        <ele>59</ele>
        <time>2022-04-16T12:59:43Z</time>
      </trkpt>
      <trkpt lat="47.23155" lon="-1.47771">
        <ele>59</ele>
        <time>2022-04-16T12:59:45Z</time>
      </trkpt>
      <trkpt lat="47.23148" lon="-1.47788">
        <ele>59</ele>
        <time>2022-04-16T12:59:47Z</time>
      </trkpt>
      <trkpt lat="47.23142" lon="-1.47804">
        <ele>59</ele>
        <time>2022-04-16T12:59:49Z</time>
      </trkpt>
      <trkpt lat="47.23136" lon="-1.47821">
        <ele>59</ele>
        <time>2022-04-16T12:59:51Z</time>
      </trkpt>
      <trkpt lat="47.23129" lon="-1.47837">
        <ele>59</ele>
        <time>2022-04-16T12:59:53Z</time>
      </trkpt>
      <trkpt lat="47.23121" lon="-1.47855">
        <ele>59</ele>
        <time>2022-04-16T12:59:55Z</time>
      </trkpt>
      <trkpt lat="47.23112" lon="-1.4787">
        <ele>59</ele>
        <time>2022-04-16T12:59:57Z</time>
      </trkpt>
      <trkpt lat="47.23102" lon="-1.47884">
        <ele>58</ele>
        <time>2022-04-16T12:59:59Z</time>
      </trkpt>
      <trkpt lat="47.23092" lon="-1.47898">
        <ele>58</ele>
        <time>2022-04-16T13:00:01Z</time>
      </trkpt>
      <trkpt lat="47.23081" lon="-1.47913">
        <ele>58</ele>
        <time>2022-04-16T13:00:03Z</time>
      </trkpt>
      <trkpt lat="47.23071" lon="-1.47926">
        <ele>58</ele>
        <time>2022-04-16T13:00:05Z</time>
      </trkpt>
      <trkpt lat="47.23061" lon="-1.47939">
        <ele>58</ele>
        <time>2022-04-16T13:00:07Z</time>
      </trkpt>
      <trkpt lat="47.23051" lon="-1.47952">
        <ele>58</ele>
        <time>2022-04-16T13:00:09Z</time>
      </trkpt>
      <trkpt lat="47.23041" lon="-1.47965">
        <ele>58</ele>
        <time>2022-04-16T13:00:11Z</time>
      </trkpt>
      <trkpt lat="47.23031" lon="-1.47979">
        <ele>58</ele>
        <time>2022-04-16T13:00:13Z</time>
      </trkpt>
      <trkpt lat="47.23016" lon="-1.47999">
        <ele>58</ele>
        <time>2022-04-16T13:00:16Z</time>
      </trkpt>
      <trkpt lat="47.23007" lon="-1.48014">
        <ele>58</ele>
        <time>2022-04-16T13:00:18Z</time>
      </trkpt>
      <trkpt lat="47.22998" lon="-1.48029">
        <ele>58</ele>
        <time>2022-04-16T13:00:20Z</time>
      </trkpt>
      <trkpt lat="47.2299" lon="-1.48044">
        <ele>58</ele>
        <time>2022-04-16T13:00:22Z</time>
      </trkpt>
      <trkpt lat="47.22981" lon="-1.48059">
        <ele>58</ele>
        <time>2022-04-16T13:00:24Z</time>
      </trkpt>
      <trkpt lat="47.22972" lon="-1.48073">
        <ele>57</ele>
        <time>2022-04-16T13:00:26Z</time>
      </trkpt>
      <trkpt lat="47.22964" lon="-1.48086">
        <ele>58</ele>
        <time>2022-04-16T13:00:28Z</time>
      </trkpt>
      <trkpt lat="47.22955" lon="-1.48099">
        <ele>58</ele>
        <time>2022-04-16T13:00:30Z</time>
      </trkpt>
      <trkpt lat="47.22947" lon="-1.4811">
        <ele>58</ele>
        <time>2022-04-16T13:00:32Z</time>
      </trkpt>
      <trkpt lat="47.22936" lon="-1.48114">
        <ele>59</ele>
        <time>2022-04-16T13:00:34Z</time>
      </trkpt>
      <trkpt lat="47.22922" lon="-1.48115">
        <ele>58</ele>
        <time>2022-04-16T13:00:36Z</time>
      </trkpt>
      <trkpt lat="47.22909" lon="-1.48122">
        <ele>58</ele>
        <time>2022-04-16T13:00:38Z</time>
      </trkpt>
      <trkpt lat="47.22898" lon="-1.48134">
        <ele>58</ele>
        <time>2022-04-16T13:00:40Z</time>
      </trkpt>
      <trkpt lat="47.22888" lon="-1.48148">
        <ele>58</ele>
        <time>2022-04-16T13:00:42Z</time>
      </trkpt>
      <trkpt lat="47.22879" lon="-1.48162">
        <ele>57</ele>
        <time>2022-04-16T13:00:44Z</time>
      </trkpt>
      <trkpt lat="47.22869" lon="-1.48177">
        <ele>58</ele>
        <time>2022-04-16T13:00:46Z</time>
      </trkpt>
      <trkpt lat="47.22861" lon="-1.48191">
        <ele>58</ele>
        <time>2022-04-16T13:00:48Z</time>
      </trkpt>
      <trkpt lat="47.22852" lon="-1.48206">
        <ele>59</ele>
        <time>2022-04-16T13:00:50Z</time>
      </trkpt>
      <trkpt lat="47.22842" lon="-1.4822">
        <ele>59</ele>
        <time>2022-04-16T13:00:52Z</time>
      </trkpt>
      <trkpt lat="47.22833" lon="-1.48234">
        <ele>59</ele>
        <time>2022-04-16T13:00:54Z</time>
      </trkpt>
      <trkpt lat="47.22824" lon="-1.48249">
        <ele>59</ele>
        <time>2022-04-16T13:00:56Z</time>
      </trkpt>
      <trkpt lat="47.22815" lon="-1.48261">
        <ele>59</ele>
        <time>2022-04-16T13:00:58Z</time>
      </trkpt>
      <trkpt lat="47.22806" lon="-1.48276">
        <ele>59</ele>
        <time>2022-04-16T13:01:00Z</time>
      </trkpt>
      <trkpt lat="47.22797" lon="-1.4829">
        <ele>60</ele>
        <time>2022-04-16T13:01:02Z</time>
      </trkpt>
      <trkpt lat="47.22787" lon="-1.48305">
        <ele>60</ele>
        <time>2022-04-16T13:01:04Z</time>
      </trkpt>
      <trkpt lat="47.22778" lon="-1.4832">
        <ele>60</ele>
        <time>2022-04-16T13:01:06Z</time>
      </trkpt>
      <trkpt lat="47.22768" lon="-1.48334">
        <ele>60</ele>
        <time>2022-04-16T13:01:08Z</time>
      </trkpt>
      <trkpt lat="47.22759" lon="-1.48348">
        <ele>59</ele>
        <time>2022-04-16T13:01:10Z</time>
      </trkpt>
      <trkpt lat="47.22749" lon="-1.48361">
        <ele>59</ele>
        <time>2022-04-16T13:01:12Z</time>
      </trkpt>
      <trkpt lat="47.22739" lon="-1.48374">
        <ele>59</ele>
        <time>2022-04-16T13:01:14Z</time>
      </trkpt>
      <trkpt lat="47.22729" lon="-1.48387">
        <ele>58</ele>
        <time>2022-04-16T13:01:16Z</time>
      </trkpt>
      <trkpt lat="47.22719" lon="-1.48399">
        <ele>58</ele>
        <time>2022-04-16T13:01:18Z</time>
      </trkpt>
      <trkpt lat="47.2271" lon="-1.48414">
        <ele>58</ele>
        <time>2022-04-16T13:01:20Z</time>
      </trkpt>
      <trkpt lat="47.22703" lon="-1.48431">
        <ele>58</ele>
        <time>2022-04-16T13:01:22Z</time>
      </trkpt>
      <trkpt lat="47.22698" lon="-1.48449">
        <ele>58</ele>
        <time>2022-04-16T13:01:24Z</time>
      </trkpt>
      <trkpt lat="47.22692" lon="-1.48467">
        <ele>58</ele>
        <time>2022-04-16T13:01:26Z</time>
      </trkpt>
      <trkpt lat="47.22685" lon="-1.48483">
        <ele>58</ele>
        <time>2022-04-16T13:01:28Z</time>
      </trkpt>
      <trkpt lat="47.22677" lon="-1.48499">
        <ele>59</ele>
        <time>2022-04-16T13:01:30Z</time>
      </trkpt>
      <trkpt lat="47.2267" lon="-1.48514">
        <ele>59</ele>
        <time>2022-04-16T13:01:32Z</time>
      </trkpt>
      <trkpt lat="47.22663" lon="-1.48532">
        <ele>59</ele>
        <time>2022-04-16T13:01:34Z</time>
      </trkpt>
      <trkpt lat="47.22658" lon="-1.48551">
        <ele>58</ele>
        <time>2022-04-16T13:01:36Z</time>
      </trkpt>
      <trkpt lat="47.22651" lon="-1.48569">
        <ele>57</ele>
        <time>2022-04-16T13:01:38Z</time>
      </trkpt>
      <trkpt lat="47.22645" lon="-1.48587">
        <ele>57</ele>
        <time>2022-04-16T13:01:40Z</time>
      </trkpt>
      <trkpt lat="47.22638" lon="-1.48603">
        <ele>57</ele>
        <time>2022-04-16T13:01:42Z</time>
      </trkpt>
      <trkpt lat="47.22632" lon="-1.48618">
        <ele>57</ele>
        <time>2022-04-16T13:01:44Z</time>
      </trkpt>
      <trkpt lat="47.22625" lon="-1.48636">
        <ele>57</ele>
        <time>2022-04-16T13:01:46Z</time>
      </trkpt>
      <trkpt lat="47.22618" lon="-1.48653">
        <ele>56</ele>
        <time>2022-04-16T13:01:48Z</time>
      </trkpt>
      <trkpt lat="47.22611" lon="-1.48671">
        <ele>56</ele>
        <time>2022-04-16T13:01:50Z</time>
      </trkpt>
      <trkpt lat="47.22605" lon="-1.4869">
        <ele>56</ele>
        <time>2022-04-16T13:01:52Z</time>
      </trkpt>
      <trkpt lat="47.22601" lon="-1.4871">
        <ele>55</ele>
        <time>2022-04-16T13:01:54Z</time>
      </trkpt>
      <trkpt lat="47.22595" lon="-1.48729">
        <ele>56</ele>
        <time>2022-04-16T13:01:56Z</time>
      </trkpt>
      <trkpt lat="47.22591" lon="-1.48747">
        <ele>56</ele>
        <time>2022-04-16T13:01:58Z</time>
      </trkpt>
      <trkpt lat="47.22586" lon="-1.48766">
        <ele>57</ele>
        <time>2022-04-16T13:02:00Z</time>
      </trkpt>
      <trkpt lat="47.22581" lon="-1.48785">
        <ele>57</ele>
        <time>2022-04-16T13:02:02Z</time>
      </trkpt>
      <trkpt lat="47.22576" lon="-1.48803">
        <ele>58</ele>
        <time>2022-04-16T13:02:04Z</time>
      </trkpt>
      <trkpt lat="47.22569" lon="-1.48821">
        <ele>58</ele>
        <time>2022-04-16T13:02:06Z</time>
      </trkpt>
      <trkpt lat="47.22563" lon="-1.48836">
        <ele>57</ele>
        <time>2022-04-16T13:02:08Z</time>
      </trkpt>
      <trkpt lat="47.22559" lon="-1.48851">
        <ele>58</ele>
        <time>2022-04-16T13:02:10Z</time>
      </trkpt>
      <trkpt lat="47.22553" lon="-1.48869">
        <ele>57</ele>
        <time>2022-04-16T13:02:12Z</time>
      </trkpt>
      <trkpt lat="47.22548" lon="-1.48885">
        <ele>57</ele>
        <time>2022-04-16T13:02:14Z</time>
      </trkpt>
      <trkpt lat="47.22543" lon="-1.48905">
        <ele>58</ele>
        <time>2022-04-16T13:02:16Z</time>
      </trkpt>
      <trkpt lat="47.22537" lon="-1.48925">
        <ele>58</ele>
        <time>2022-04-16T13:02:18Z</time>
      </trkpt>
      <trkpt lat="47.22531" lon="-1.48945">
        <ele>59</ele>
        <time>2022-04-16T13:02:20Z</time>
      </trkpt>
      <trkpt lat="47.22524" lon="-1.48964">
        <ele>59</ele>
        <time>2022-04-16T13:02:22Z</time>
      </trkpt>
      <trkpt lat="47.22518" lon="-1.48982">
        <ele>59</ele>
        <time>2022-04-16T13:02:24Z</time>
      </trkpt>
      <trkpt lat="47.22512" lon="-1.49">
        <ele>58</ele>
        <time>2022-04-16T13:02:26Z</time>
      </trkpt>
      <trkpt lat="47.22506" lon="-1.49017">
        <ele>58</ele>
        <time>2022-04-16T13:02:28Z</time>
      </trkpt>
      <trkpt lat="47.22501" lon="-1.49033">
        <ele>58</ele>
        <time>2022-04-16T13:02:30Z</time>
      </trkpt>
      <trkpt lat="47.22496" lon="-1.49051">
        <ele>58</ele>
        <time>2022-04-16T13:02:32Z</time>
      </trkpt>
      <trkpt lat="47.2249" lon="-1.49068">
        <ele>59</ele>
        <time>2022-04-16T13:02:34Z</time>
      </trkpt>
      <trkpt lat="47.22485" lon="-1.49086">
        <ele>60</ele>
        <time>2022-04-16T13:02:36Z</time>
      </trkpt>
      <trkpt lat="47.2248" lon="-1.49106">
        <ele>60</ele>
        <time>2022-04-16T13:02:38Z</time>
      </trkpt>
      <trkpt lat="47.22474" lon="-1.49126">
        <ele>60</ele>
        <time>2022-04-16T13:02:40Z</time>
      </trkpt>
      <trkpt lat="47.22469" lon="-1.49145">
        <ele>60</ele>
        <time>2022-04-16T13:02:42Z</time>
      </trkpt>
      <trkpt lat="47.22463" lon="-1.49163">
        <ele>60</ele>
        <time>2022-04-16T13:02:44Z</time>
      </trkpt>
      <trkpt lat="47.22456" lon="-1.49181">
        <ele>60</ele>
        <time>2022-04-16T13:02:46Z</time>
      </trkpt>
      <trkpt lat="47.22449" lon="-1.49198">
        <ele>60</ele>
        <time>2022-04-16T13:02:48Z</time>
      </trkpt>
      <trkpt lat="47.22443" lon="-1.49215">
        <ele>60</ele>
        <time>2022-04-16T13:02:50Z</time>
      </trkpt>
      <trkpt lat="47.22437" lon="-1.49232">
        <ele>60</ele>
        <time>2022-04-16T13:02:52Z</time>
      </trkpt>
      <trkpt lat="47.22432" lon="-1.4925">
        <ele>59</ele>
        <time>2022-04-16T13:02:54Z</time>
      </trkpt>
      <trkpt lat="47.22425" lon="-1.49266">
        <ele>59</ele>
        <time>2022-04-16T13:02:56Z</time>
      </trkpt>
      <trkpt lat="47.22418" lon="-1.49282">
        <ele>58</ele>
        <time>2022-04-16T13:02:58Z</time>
      </trkpt>
      <trkpt lat="47.22411" lon="-1.49298">
        <ele>58</ele>
        <time>2022-04-16T13:03:00Z</time>
      </trkpt>
      <trkpt lat="47.22405" lon="-1.49315">
        <ele>59</ele>
        <time>2022-04-16T13:03:02Z</time>
      </trkpt>
      <trkpt lat="47.22399" lon="-1.49332">
        <ele>60</ele>
        <time>2022-04-16T13:03:04Z</time>
      </trkpt>
      <trkpt lat="47.22393" lon="-1.49349">
        <ele>60</ele>
        <time>2022-04-16T13:03:06Z</time>
      </trkpt>
      <trkpt lat="47.22386" lon="-1.49366">
        <ele>62</ele>
        <time>2022-04-16T13:03:08Z</time>
      </trkpt>
      <trkpt lat="47.2238" lon="-1.49382">
        <ele>63</ele>
        <time>2022-04-16T13:03:10Z</time>
      </trkpt>
      <trkpt lat="47.22373" lon="-1.49398">
        <ele>64</ele>
        <time>2022-04-16T13:03:12Z</time>
      </trkpt>
      <trkpt lat="47.22366" lon="-1.49414">
        <ele>64</ele>
        <time>2022-04-16T13:03:14Z</time>
      </trkpt>
      <trkpt lat="47.2236" lon="-1.49431">
        <ele>64</ele>
        <time>2022-04-16T13:03:16Z</time>
      </trkpt>
      <trkpt lat="47.22353" lon="-1.49448">
        <ele>64</ele>
        <time>2022-04-16T13:03:18Z</time>
      </trkpt>
      <trkpt lat="47.22348" lon="-1.49466">
        <ele>65</ele>
        <time>2022-04-16T13:03:20Z</time>
      </trkpt>
      <trkpt lat="47.22343" lon="-1.49484">
        <ele>66</ele>
        <time>2022-04-16T13:03:22Z</time>
      </trkpt>
      <trkpt lat="47.22337" lon="-1.49503">
        <ele>65</ele>
        <time>2022-04-16T13:03:24Z</time>
      </trkpt>
      <trkpt lat="47.22331" lon="-1.4952">
        <ele>65</ele>
        <time>2022-04-16T13:03:26Z</time>
      </trkpt>
      <trkpt lat="47.22326" lon="-1.49538">
        <ele>66</ele>
        <time>2022-04-16T13:03:28Z</time>
      </trkpt>
      <trkpt lat="47.2232" lon="-1.49556">
        <ele>66</ele>
        <time>2022-04-16T13:03:30Z</time>
      </trkpt>
      <trkpt lat="47.22313" lon="-1.49572">
        <ele>67</ele>
        <time>2022-04-16T13:03:32Z</time>
      </trkpt>
      <trkpt lat="47.22307" lon="-1.49589">
        <ele>66</ele>
        <time>2022-04-16T13:03:34Z</time>
      </trkpt>
      <trkpt lat="47.223" lon="-1.49606">
        <ele>66</ele>
        <time>2022-04-16T13:03:36Z</time>
      </trkpt>
      <trkpt lat="47.22294" lon="-1.49624">
        <ele>66</ele>
        <time>2022-04-16T13:03:38Z</time>
      </trkpt>
      <trkpt lat="47.22289" lon="-1.49642">
        <ele>65</ele>
        <time>2022-04-16T13:03:40Z</time>
      </trkpt>
      <trkpt lat="47.22284" lon="-1.49661">
        <ele>64</ele>
        <time>2022-04-16T13:03:42Z</time>
      </trkpt>
      <trkpt lat="47.22277" lon="-1.4968">
        <ele>64</ele>
        <time>2022-04-16T13:03:44Z</time>
      </trkpt>
      <trkpt lat="47.22271" lon="-1.49698">
        <ele>64</ele>
        <time>2022-04-16T13:03:46Z</time>
      </trkpt>
      <trkpt lat="47.22265" lon="-1.49716">
        <ele>64</ele>
        <time>2022-04-16T13:03:48Z</time>
      </trkpt>
      <trkpt lat="47.22259" lon="-1.49734">
        <ele>63</ele>
        <time>2022-04-16T13:03:50Z</time>
      </trkpt>
      <trkpt lat="47.22255" lon="-1.49751">
        <ele>62</ele>
        <time>2022-04-16T13:03:52Z</time>
      </trkpt>
      <trkpt lat="47.22252" lon="-1.49771">
        <ele>62</ele>
        <time>2022-04-16T13:03:54Z</time>
      </trkpt>
      <trkpt lat="47.2225" lon="-1.4979">
        <ele>62</ele>
        <time>2022-04-16T13:03:56Z</time>
      </trkpt>
      <trkpt lat="47.22247" lon="-1.49809">
        <ele>62</ele>
        <time>2022-04-16T13:03:58Z</time>
      </trkpt>
      <trkpt lat="47.22243" lon="-1.49829">
        <ele>63</ele>
        <time>2022-04-16T13:04:00Z</time>
      </trkpt>
      <trkpt lat="47.22239" lon="-1.49848">
        <ele>63</ele>
        <time>2022-04-16T13:04:02Z</time>
      </trkpt>
      <trkpt lat="47.22234" lon="-1.49868">
        <ele>63</ele>
        <time>2022-04-16T13:04:04Z</time>
      </trkpt>
      <trkpt lat="47.2223" lon="-1.49886">
        <ele>64</ele>
        <time>2022-04-16T13:04:06Z</time>
      </trkpt>
      <trkpt lat="47.22226" lon="-1.49903">
        <ele>64</ele>
        <time>2022-04-16T13:04:08Z</time>
      </trkpt>
      <trkpt lat="47.22222" lon="-1.49922">
        <ele>64</ele>
        <time>2022-04-16T13:04:10Z</time>
      </trkpt>
      <trkpt lat="47.22217" lon="-1.49941">
        <ele>65</ele>
        <time>2022-04-16T13:04:12Z</time>
      </trkpt>
      <trkpt lat="47.22212" lon="-1.4996">
        <ele>65</ele>
        <time>2022-04-16T13:04:14Z</time>
      </trkpt>
      <trkpt lat="47.22206" lon="-1.49977">
        <ele>66</ele>
        <time>2022-04-16T13:04:16Z</time>
      </trkpt>
      <trkpt lat="47.222" lon="-1.49993">
        <ele>66</ele>
        <time>2022-04-16T13:04:18Z</time>
      </trkpt>
      <trkpt lat="47.22196" lon="-1.50012">
        <ele>66</ele>
        <time>2022-04-16T13:04:20Z</time>
      </trkpt>
      <trkpt lat="47.22191" lon="-1.50032">
        <ele>65</ele>
        <time>2022-04-16T13:04:22Z</time>
      </trkpt>
      <trkpt lat="47.22187" lon="-1.50051">
        <ele>65</ele>
        <time>2022-04-16T13:04:24Z</time>
      </trkpt>
      <trkpt lat="47.22183" lon="-1.50069">
        <ele>65</ele>
        <time>2022-04-16T13:04:26Z</time>
      </trkpt>
      <trkpt lat="47.22179" lon="-1.50087">
        <ele>66</ele>
        <time>2022-04-16T13:04:28Z</time>
      </trkpt>
      <trkpt lat="47.22174" lon="-1.50106">
        <ele>65</ele>
        <time>2022-04-16T13:04:30Z</time>
      </trkpt>
      <trkpt lat="47.22168" lon="-1.50124">
        <ele>65</ele>
        <time>2022-04-16T13:04:32Z</time>
      </trkpt>
      <trkpt lat="47.22161" lon="-1.50141">
        <ele>64</ele>
        <time>2022-04-16T13:04:34Z</time>
      </trkpt>
      <trkpt lat="47.22156" lon="-1.50158">
        <ele>64</ele>
        <time>2022-04-16T13:04:36Z</time>
      </trkpt>
      <trkpt lat="47.22151" lon="-1.50175">
        <ele>63</ele>
        <time>2022-04-16T13:04:38Z</time>
      </trkpt>
      <trkpt lat="47.22147" lon="-1.50194">
        <ele>63</ele>
        <time>2022-04-16T13:04:40Z</time>
      </trkpt>
      <trkpt lat="47.22144" lon="-1.50212">
        <ele>63</ele>
        <time>2022-04-16T13:04:42Z</time>
      </trkpt>
      <trkpt lat="47.22139" lon="-1.5023">
        <ele>63</ele>
        <time>2022-04-16T13:04:44Z</time>
      </trkpt>
      <trkpt lat="47.22134" lon="-1.50246">
        <ele>62</ele>
        <time>2022-04-16T13:04:46Z</time>
      </trkpt>
      <trkpt lat="47.22129" lon="-1.50265">
        <ele>62</ele>
        <time>2022-04-16T13:04:48Z</time>
      </trkpt>
      <trkpt lat="47.22122" lon="-1.50283">
        <ele>64</ele>
        <time>2022-04-16T13:04:50Z</time>
      </trkpt>
      <trkpt lat="47.22114" lon="-1.50299">
        <ele>64</ele>
        <time>2022-04-16T13:04:52Z</time>
      </trkpt>
      <trkpt lat="47.22107" lon="-1.50315">
        <ele>64</ele>
        <time>2022-04-16T13:04:54Z</time>
      </trkpt>
      <trkpt lat="47.22099" lon="-1.5033">
        <ele>64</ele>
        <time>2022-04-16T13:04:56Z</time>
      </trkpt>
      <trkpt lat="47.22093" lon="-1.50346">
        <ele>64</ele>
        <time>2022-04-16T13:04:58Z</time>
      </trkpt>
      <trkpt lat="47.22088" lon="-1.50363">
        <ele>64</ele>
        <time>2022-04-16T13:05:00Z</time>
      </trkpt>
      <trkpt lat="47.22083" lon="-1.50382">
        <ele>63</ele>
        <time>2022-04-16T13:05:02Z</time>
      </trkpt>
      <trkpt lat="47.22078" lon="-1.504">
        <ele>62</ele>
        <time>2022-04-16T13:05:04Z</time>
      </trkpt>
      <trkpt lat="47.22073" lon="-1.50418">
        <ele>62</ele>
        <time>2022-04-16T13:05:06Z</time>
      </trkpt>
      <trkpt lat="47.22069" lon="-1.50437">
        <ele>62</ele>
        <time>2022-04-16T13:05:08Z</time>
      </trkpt>
      <trkpt lat="47.22066" lon="-1.50457">
        <ele>61</ele>
        <time>2022-04-16T13:05:10Z</time>
      </trkpt>
      <trkpt lat="47.22064" lon="-1.50476">
        <ele>61</ele>
        <time>2022-04-16T13:05:12Z</time>
      </trkpt>
      <trkpt lat="47.22062" lon="-1.50494">
        <ele>61</ele>
        <time>2022-04-16T13:05:14Z</time>
      </trkpt>
      <trkpt lat="47.22061" lon="-1.50514">
        <ele>61</ele>
        <time>2022-04-16T13:05:16Z</time>
      </trkpt>
      <trkpt lat="47.2206" lon="-1.50533">
        <ele>61</ele>
        <time>2022-04-16T13:05:18Z</time>
      </trkpt>
      <trkpt lat="47.22059" lon="-1.5055">
        <ele>61</ele>
        <time>2022-04-16T13:05:20Z</time>
      </trkpt>
      <trkpt lat="47.22058" lon="-1.50568">
        <ele>61</ele>
        <time>2022-04-16T13:05:22Z</time>
      </trkpt>
      <trkpt lat="47.22057" lon="-1.50582">
        <ele>61</ele>
        <time>2022-04-16T13:05:24Z</time>
      </trkpt>
      <trkpt lat="47.22056" lon="-1.50602">
        <ele>62</ele>
        <time>2022-04-16T13:05:26Z</time>
      </trkpt>
      <trkpt lat="47.22054" lon="-1.5062">
        <ele>62</ele>
        <time>2022-04-16T13:05:28Z</time>
      </trkpt>
      <trkpt lat="47.22053" lon="-1.5064">
        <ele>62</ele>
        <time>2022-04-16T13:05:30Z</time>
      </trkpt>
      <trkpt lat="47.22052" lon="-1.5066">
        <ele>63</ele>
        <time>2022-04-16T13:05:32Z</time>
      </trkpt>
      <trkpt lat="47.2205" lon="-1.50678">
        <ele>64</ele>
        <time>2022-04-16T13:05:34Z</time>
      </trkpt>
      <trkpt lat="47.22048" lon="-1.50698">
        <ele>64</ele>
        <time>2022-04-16T13:05:36Z</time>
      </trkpt>
      <trkpt lat="47.22046" lon="-1.50717">
        <ele>64</ele>
        <time>2022-04-16T13:05:38Z</time>
      </trkpt>
      <trkpt lat="47.22043" lon="-1.50734">
        <ele>65</ele>
        <time>2022-04-16T13:05:40Z</time>
      </trkpt>
      <trkpt lat="47.22039" lon="-1.50752">
        <ele>65</ele>
        <time>2022-04-16T13:05:42Z</time>
      </trkpt>
      <trkpt lat="47.22035" lon="-1.50768">
        <ele>66</ele>
        <time>2022-04-16T13:05:44Z</time>
      </trkpt>
      <trkpt lat="47.2203" lon="-1.50785">
        <ele>66</ele>
        <time>2022-04-16T13:05:46Z</time>
      </trkpt>
      <trkpt lat="47.22024" lon="-1.50802">
        <ele>65</ele>
        <time>2022-04-16T13:05:48Z</time>
      </trkpt>
      <trkpt lat="47.22019" lon="-1.50818">
        <ele>65</ele>
        <time>2022-04-16T13:05:50Z</time>
      </trkpt>
      <trkpt lat="47.22013" lon="-1.50837">
        <ele>66</ele>
        <time>2022-04-16T13:05:52Z</time>
      </trkpt>
      <trkpt lat="47.22006" lon="-1.50858">
        <ele>67</ele>
        <time>2022-04-16T13:05:54Z</time>
      </trkpt>
      <trkpt lat="47.21999" lon="-1.50879">
        <ele>67</ele>
        <time>2022-04-16T13:05:56Z</time>
      </trkpt>
      <trkpt lat="47.21994" lon="-1.50898">
        <ele>66</ele>
        <time>2022-04-16T13:05:58Z</time>
      </trkpt>
      <trkpt lat="47.21988" lon="-1.50916">
        <ele>65</ele>
        <time>2022-04-16T13:06:00Z</time>
      </trkpt>
      <trkpt lat="47.21984" lon="-1.50934">
        <ele>64</ele>
        <time>2022-04-16T13:06:02Z</time>
      </trkpt>
      <trkpt lat="47.21979" lon="-1.50951">
        <ele>64</ele>
        <time>2022-04-16T13:06:04Z</time>
      </trkpt>
      <trkpt lat="47.21974" lon="-1.50969">
        <ele>63</ele>
        <time>2022-04-16T13:06:06Z</time>
      </trkpt>
      <trkpt lat="47.21969" lon="-1.50987">
        <ele>62</ele>
        <time>2022-04-16T13:06:08Z</time>
      </trkpt>
      <trkpt lat="47.21964" lon="-1.51005">
        <ele>61</ele>
        <time>2022-04-16T13:06:10Z</time>
      </trkpt>
      <trkpt lat="47.21958" lon="-1.51023">
        <ele>61</ele>
        <time>2022-04-16T13:06:12Z</time>
      </trkpt>
      <trkpt lat="47.21954" lon="-1.5104">
        <ele>60</ele>
        <time>2022-04-16T13:06:14Z</time>
      </trkpt>
      <trkpt lat="47.21949" lon="-1.51055">
        <ele>59</ele>
        <time>2022-04-16T13:06:16Z</time>
      </trkpt>
      <trkpt lat="47.21943" lon="-1.51066">
        <ele>59</ele>
        <time>2022-04-16T13:06:18Z</time>
      </trkpt>
      <trkpt lat="47.21934" lon="-1.51079">
        <ele>59</ele>
        <time>2022-04-16T13:06:20Z</time>
      </trkpt>
      <trkpt lat="47.21927" lon="-1.51095">
        <ele>58</ele>
        <time>2022-04-16T13:06:22Z</time>
      </trkpt>
      <trkpt lat="47.21921" lon="-1.51113">
        <ele>58</ele>
        <time>2022-04-16T13:06:24Z</time>
      </trkpt>
      <trkpt lat="47.21916" lon="-1.51131">
        <ele>57</ele>
        <time>2022-04-16T13:06:26Z</time>
      </trkpt>
      <trkpt lat="47.2191" lon="-1.51148">
        <ele>57</ele>
        <time>2022-04-16T13:06:28Z</time>
      </trkpt>
      <trkpt lat="47.21904" lon="-1.51165">
        <ele>57</ele>
        <time>2022-04-16T13:06:30Z</time>
      </trkpt>
      <trkpt lat="47.21898" lon="-1.51183">
        <ele>57</ele>
        <time>2022-04-16T13:06:32Z</time>
      </trkpt>
      <trkpt lat="47.21892" lon="-1.51201">
        <ele>56</ele>
        <time>2022-04-16T13:06:34Z</time>
      </trkpt>
      <trkpt lat="47.21887" lon="-1.51219">
        <ele>56</ele>
        <time>2022-04-16T13:06:36Z</time>
      </trkpt>
      <trkpt lat="47.21881" lon="-1.51238">
        <ele>56</ele>
        <time>2022-04-16T13:06:38Z</time>
      </trkpt>
      <trkpt lat="47.21874" lon="-1.51257">
        <ele>56</ele>
        <time>2022-04-16T13:06:40Z</time>
      </trkpt>
      <trkpt lat="47.21869" lon="-1.51275">
        <ele>56</ele>
        <time>2022-04-16T13:06:42Z</time>
      </trkpt>
      <trkpt lat="47.21864" lon="-1.51293">
        <ele>56</ele>
        <time>2022-04-16T13:06:44Z</time>
      </trkpt>
      <trkpt lat="47.21858" lon="-1.51311">
        <ele>57</ele>
        <time>2022-04-16T13:06:46Z</time>
      </trkpt>
      <trkpt lat="47.21853" lon="-1.51329">
        <ele>57</ele>
        <time>2022-04-16T13:06:48Z</time>
      </trkpt>
      <trkpt lat="47.21848" lon="-1.51346">
        <ele>58</ele>
        <time>2022-04-16T13:06:50Z</time>
      </trkpt>
      <trkpt lat="47.21843" lon="-1.51364">
        <ele>59</ele>
        <time>2022-04-16T13:06:52Z</time>
      </trkpt>
      <trkpt lat="47.21838" lon="-1.51383">
        <ele>59</ele>
        <time>2022-04-16T13:06:54Z</time>
      </trkpt>
      <trkpt lat="47.21834" lon="-1.514">
        <ele>59</ele>
        <time>2022-04-16T13:06:56Z</time>
      </trkpt>
      <trkpt lat="47.2183" lon="-1.51418">
        <ele>58</ele>
        <time>2022-04-16T13:06:58Z</time>
      </trkpt>
      <trkpt lat="47.21826" lon="-1.51435">
        <ele>58</ele>
        <time>2022-04-16T13:07:00Z</time>
      </trkpt>
      <trkpt lat="47.21823" lon="-1.51454">
        <ele>58</ele>
        <time>2022-04-16T13:07:02Z</time>
      </trkpt>
      <trkpt lat="47.2182" lon="-1.51472">
        <ele>58</ele>
        <time>2022-04-16T13:07:04Z</time>
      </trkpt>
      <trkpt lat="47.21816" lon="-1.51489">
        <ele>58</ele>
        <time>2022-04-16T13:07:06Z</time>
      </trkpt>
      <trkpt lat="47.21809" lon="-1.51505">
        <ele>58</ele>
        <time>2022-04-16T13:07:08Z</time>
      </trkpt>
      <trkpt lat="47.21802" lon="-1.5152">
        <ele>58</ele>
        <time>2022-04-16T13:07:10Z</time>
      </trkpt>
      <trkpt lat="47.21796" lon="-1.51536">
        <ele>58</ele>
        <time>2022-04-16T13:07:12Z</time>
      </trkpt>
      <trkpt lat="47.2179" lon="-1.51552">
        <ele>58</ele>
        <time>2022-04-16T13:07:14Z</time>
      </trkpt>
      <trkpt lat="47.21783" lon="-1.51568">
        <ele>58</ele>
        <time>2022-04-16T13:07:16Z</time>
      </trkpt>
      <trkpt lat="47.21775" lon="-1.51582">
        <ele>58</ele>
        <time>2022-04-16T13:07:18Z</time>
      </trkpt>
      <trkpt lat="47.21765" lon="-1.51595">
        <ele>58</ele>
        <time>2022-04-16T13:07:20Z</time>
      </trkpt>
      <trkpt lat="47.21756" lon="-1.51609">
        <ele>58</ele>
        <time>2022-04-16T13:07:22Z</time>
      </trkpt>
      <trkpt lat="47.21748" lon="-1.51624">
        <ele>58</ele>
        <time>2022-04-16T13:07:24Z</time>
      </trkpt>
      <trkpt lat="47.2174" lon="-1.5164">
        <ele>59</ele>
        <time>2022-04-16T13:07:26Z</time>
      </trkpt>
      <trkpt lat="47.21733" lon="-1.51656">
        <ele>58</ele>
        <time>2022-04-16T13:07:28Z</time>
      </trkpt>
      <trkpt lat="47.21726" lon="-1.51673">
        <ele>58</ele>
        <time>2022-04-16T13:07:30Z</time>
      </trkpt>
      <trkpt lat="47.21719" lon="-1.51688">
        <ele>58</ele>
        <time>2022-04-16T13:07:32Z</time>
      </trkpt>
      <trkpt lat="47.21712" lon="-1.51703">
        <ele>58</ele>
        <time>2022-04-16T13:07:34Z</time>
      </trkpt>
      <trkpt lat="47.21706" lon="-1.51718">
        <ele>59</ele>
        <time>2022-04-16T13:07:36Z</time>
      </trkpt>
      <trkpt lat="47.21699" lon="-1.51733">
        <ele>60</ele>
        <time>2022-04-16T13:07:38Z</time>
      </trkpt>
      <trkpt lat="47.21692" lon="-1.5175">
        <ele>60</ele>
        <time>2022-04-16T13:07:40Z</time>
      </trkpt>
      <trkpt lat="47.21684" lon="-1.51767">
        <ele>59</ele>
        <time>2022-04-16T13:07:42Z</time>
      </trkpt>
      <trkpt lat="47.21677" lon="-1.51784">
        <ele>59</ele>
        <time>2022-04-16T13:07:44Z</time>
      </trkpt>
      <trkpt lat="47.2167" lon="-1.51799">
        <ele>59</ele>
        <time>2022-04-16T13:07:46Z</time>
      </trkpt>
      <trkpt lat="47.21663" lon="-1.51815">
        <ele>58</ele>
        <time>2022-04-16T13:07:48Z</time>
      </trkpt>
      <trkpt lat="47.21656" lon="-1.51833">
        <ele>58</ele>
        <time>2022-04-16T13:07:50Z</time>
      </trkpt>
      <trkpt lat="47.21651" lon="-1.5185">
        <ele>58</ele>
        <time>2022-04-16T13:07:52Z</time>
      </trkpt>
      <trkpt lat="47.21646" lon="-1.51866">
        <ele>58</ele>
        <time>2022-04-16T13:07:54Z</time>
      </trkpt>
      <trkpt lat="47.21643" lon="-1.51885">
        <ele>58</ele>
        <time>2022-04-16T13:07:56Z</time>
      </trkpt>
      <trkpt lat="47.21636" lon="-1.519">
        <ele>58</ele>
        <time>2022-04-16T13:07:58Z</time>
      </trkpt>
      <trkpt lat="47.21628" lon="-1.51915">
        <ele>58</ele>
        <time>2022-04-16T13:08:00Z</time>
      </trkpt>
      <trkpt lat="47.21624" lon="-1.51933">
        <ele>59</ele>
        <time>2022-04-16T13:08:02Z</time>
      </trkpt>
      <trkpt lat="47.2162" lon="-1.51951">
        <ele>60</ele>
        <time>2022-04-16T13:08:04Z</time>
      </trkpt>
      <trkpt lat="47.21617" lon="-1.51968">
        <ele>59</ele>
        <time>2022-04-16T13:08:06Z</time>
      </trkpt>
      <trkpt lat="47.21612" lon="-1.51983">
        <ele>61</ele>
        <time>2022-04-16T13:08:08Z</time>
      </trkpt>
      <trkpt lat="47.21607" lon="-1.51996">
        <ele>61</ele>
        <time>2022-04-16T13:08:10Z</time>
      </trkpt>
      <trkpt lat="47.21602" lon="-1.52014">
        <ele>61</ele>
        <time>2022-04-16T13:08:12Z</time>
      </trkpt>
      <trkpt lat="47.21594" lon="-1.52032">
        <ele>60</ele>
        <time>2022-04-16T13:08:14Z</time>
      </trkpt>
      <trkpt lat="47.21587" lon="-1.52049">
        <ele>59</ele>
        <time>2022-04-16T13:08:16Z</time>
      </trkpt>
      <trkpt lat="47.21582" lon="-1.52067">
        <ele>59</ele>
        <time>2022-04-16T13:08:18Z</time>
      </trkpt>
      <trkpt lat="47.21576" lon="-1.52084">
        <ele>59</ele>
        <time>2022-04-16T13:08:20Z</time>
      </trkpt>
      <trkpt lat="47.2157" lon="-1.52102">
        <ele>59</ele>
        <time>2022-04-16T13:08:22Z</time>
      </trkpt>
      <trkpt lat="47.21564" lon="-1.52119">
        <ele>59</ele>
        <time>2022-04-16T13:08:24Z</time>
      </trkpt>
      <trkpt lat="47.21558" lon="-1.52136">
        <ele>58</ele>
        <time>2022-04-16T13:08:26Z</time>
      </trkpt>
      <trkpt lat="47.21552" lon="-1.52154">
        <ele>58</ele>
        <time>2022-04-16T13:08:28Z</time>
      </trkpt>
      <trkpt lat="47.21546" lon="-1.52172">
        <ele>58</ele>
        <time>2022-04-16T13:08:30Z</time>
      </trkpt>
      <trkpt lat="47.21541" lon="-1.52189">
        <ele>58</ele>
        <time>2022-04-16T13:08:32Z</time>
      </trkpt>
      <trkpt lat="47.21535" lon="-1.52208">
        <ele>58</ele>
        <time>2022-04-16T13:08:34Z</time>
      </trkpt>
      <trkpt lat="47.2153" lon="-1.52225">
        <ele>58</ele>
        <time>2022-04-16T13:08:36Z</time>
      </trkpt>
      <trkpt lat="47.21524" lon="-1.52243">
        <ele>57</ele>
        <time>2022-04-16T13:08:38Z</time>
      </trkpt>
      <trkpt lat="47.21518" lon="-1.5226">
        <ele>57</ele>
        <time>2022-04-16T13:08:40Z</time>
      </trkpt>
      <trkpt lat="47.21512" lon="-1.52278">
        <ele>58</ele>
        <time>2022-04-16T13:08:42Z</time>
      </trkpt>
      <trkpt lat="47.21507" lon="-1.52297">
        <ele>58</ele>
        <time>2022-04-16T13:08:44Z</time>
      </trkpt>
      <trkpt lat="47.21502" lon="-1.52314">
        <ele>58</ele>
        <time>2022-04-16T13:08:46Z</time>
      </trkpt>
      <trkpt lat="47.21496" lon="-1.52332">
        <ele>59</ele>
        <time>2022-04-16T13:08:48Z</time>
      </trkpt>
      <trkpt lat="47.21491" lon="-1.52349">
        <ele>59</ele>
        <time>2022-04-16T13:08:50Z</time>
      </trkpt>
      <trkpt lat="47.21485" lon="-1.52368">
        <ele>59</ele>
        <time>2022-04-16T13:08:52Z</time>
      </trkpt>
      <trkpt lat="47.2148" lon="-1.52386">
        <ele>59</ele>
        <time>2022-04-16T13:08:54Z</time>
      </trkpt>
      <trkpt lat="47.21474" lon="-1.52405">
        <ele>59</ele>
        <time>2022-04-16T13:08:56Z</time>
      </trkpt>
      <trkpt lat="47.21468" lon="-1.52423">
        <ele>59</ele>
        <time>2022-04-16T13:08:58Z</time>
      </trkpt>
      <trkpt lat="47.21461" lon="-1.52441">
        <ele>58</ele>
        <time>2022-04-16T13:09:00Z</time>
      </trkpt>
      <trkpt lat="47.21456" lon="-1.52458">
        <ele>59</ele>
        <time>2022-04-16T13:09:02Z</time>
      </trkpt>
      <trkpt lat="47.21451" lon="-1.52475">
        <ele>59</ele>
        <time>2022-04-16T13:09:04Z</time>
      </trkpt>
      <trkpt lat="47.21445" lon="-1.52494">
        <ele>59</ele>
        <time>2022-04-16T13:09:06Z</time>
      </trkpt>
      <trkpt lat="47.21439" lon="-1.52511">
        <ele>60</ele>
        <time>2022-04-16T13:09:08Z</time>
      </trkpt>
      <trkpt lat="47.21432" lon="-1.52529">
        <ele>60</ele>
        <time>2022-04-16T13:09:10Z</time>
      </trkpt>
      <trkpt lat="47.21427" lon="-1.52547">
        <ele>60</ele>
        <time>2022-04-16T13:09:12Z</time>
      </trkpt>
      <trkpt lat="47.21421" lon="-1.52565">
        <ele>60</ele>
        <time>2022-04-16T13:09:14Z</time>
      </trkpt>
      <trkpt lat="47.21416" lon="-1.52583">
        <ele>60</ele>
        <time>2022-04-16T13:09:16Z</time>
      </trkpt>
      <trkpt lat="47.21409" lon="-1.526">
        <ele>60</ele>
        <time>2022-04-16T13:09:18Z</time>
      </trkpt>
      <trkpt lat="47.21403" lon="-1.52617">
        <ele>59</ele>
        <time>2022-04-16T13:09:20Z</time>
      </trkpt>
      <trkpt lat="47.21398" lon="-1.52633">
        <ele>59</ele>
        <time>2022-04-16T13:09:22Z</time>
      </trkpt>
      <trkpt lat="47.21394" lon="-1.5265">
        <ele>59</ele>
        <time>2022-04-16T13:09:24Z</time>
      </trkpt>
      <trkpt lat="47.2139" lon="-1.52666">
        <ele>59</ele>
        <time>2022-04-16T13:09:26Z</time>
      </trkpt>
      <trkpt lat="47.21387" lon="-1.52685">
        <ele>59</ele>
        <time>2022-04-16T13:09:28Z</time>
      </trkpt>
      <trkpt lat="47.21381" lon="-1.52706">
        <ele>61</ele>
        <time>2022-04-16T13:09:30Z</time>
      </trkpt>
      <trkpt lat="47.21377" lon="-1.52724">
        <ele>60</ele>
        <time>2022-04-16T13:09:32Z</time>
      </trkpt>
      <trkpt lat="47.21373" lon="-1.52742">
        <ele>60</ele>
        <time>2022-04-16T13:09:34Z</time>
      </trkpt>
      <trkpt lat="47.2137" lon="-1.52762">
        <ele>60</ele>
        <time>2022-04-16T13:09:36Z</time>
      </trkpt>
      <trkpt lat="47.21367" lon="-1.52781">
        <ele>60</ele>
        <time>2022-04-16T13:09:38Z</time>
      </trkpt>
      <trkpt lat="47.21365" lon="-1.52799">
        <ele>60</ele>
        <time>2022-04-16T13:09:40Z</time>
      </trkpt>
      <trkpt lat="47.21365" lon="-1.52815">
        <ele>61</ele>
        <time>2022-04-16T13:09:42Z</time>
      </trkpt>
      <trkpt lat="47.21363" lon="-1.5283">
        <ele>60</ele>
        <time>2022-04-16T13:09:44Z</time>
      </trkpt>
      <trkpt lat="47.21362" lon="-1.52846">
        <ele>61</ele>
        <time>2022-04-16T13:09:46Z</time>
      </trkpt>
      <trkpt lat="47.21362" lon="-1.52862">
        <ele>61</ele>
        <time>2022-04-16T13:09:48Z</time>
      </trkpt>
      <trkpt lat="47.21361" lon="-1.52878">
        <ele>62</ele>
        <time>2022-04-16T13:09:50Z</time>
      </trkpt>
      <trkpt lat="47.21361" lon="-1.52893">
        <ele>62</ele>
        <time>2022-04-16T13:09:52Z</time>
      </trkpt>
      <trkpt lat="47.21361" lon="-1.52907">
        <ele>62</ele>
        <time>2022-04-16T13:09:54Z</time>
      </trkpt>
      <trkpt lat="47.21357" lon="-1.5292">
        <ele>63</ele>
        <time>2022-04-16T13:09:56Z</time>
      </trkpt>
      <trkpt lat="47.21351" lon="-1.52932">
        <ele>64</ele>
        <time>2022-04-16T13:10:01Z</time>
      </trkpt>
      <trkpt lat="47.21348" lon="-1.52948">
        <ele>64</ele>
        <time>2022-04-16T13:10:04Z</time>
      </trkpt>
      <trkpt lat="47.21339" lon="-1.52956">
        <ele>65</ele>
        <time>2022-04-16T13:10:07Z</time>
      </trkpt>
      <trkpt lat="47.21324" lon="-1.52953">
        <ele>65</ele>
        <time>2022-04-16T13:10:09Z</time>
      </trkpt>
      <trkpt lat="47.2131" lon="-1.52948">
        <ele>64</ele>
        <time>2022-04-16T13:10:11Z</time>
      </trkpt>
      <trkpt lat="47.21297" lon="-1.52944">
        <ele>64</ele>
        <time>2022-04-16T13:10:13Z</time>
      </trkpt>
      <trkpt lat="47.21284" lon="-1.52941">
        <ele>63</ele>
        <time>2022-04-16T13:10:15Z</time>
      </trkpt>
      <trkpt lat="47.21271" lon="-1.52938">
        <ele>62</ele>
        <time>2022-04-16T13:10:17Z</time>
      </trkpt>
      <trkpt lat="47.21258" lon="-1.52934">
        <ele>62</ele>
        <time>2022-04-16T13:10:19Z</time>
      </trkpt>
      <trkpt lat="47.21245" lon="-1.52931">
        <ele>61</ele>
        <time>2022-04-16T13:10:21Z</time>
      </trkpt>
      <trkpt lat="47.21233" lon="-1.52928">
        <ele>61</ele>
        <time>2022-04-16T13:10:23Z</time>
      </trkpt>
      <trkpt lat="47.21221" lon="-1.52925">
        <ele>60</ele>
        <time>2022-04-16T13:10:25Z</time>
      </trkpt>
      <trkpt lat="47.21208" lon="-1.52922">
        <ele>60</ele>
        <time>2022-04-16T13:10:27Z</time>
      </trkpt>
      <trkpt lat="47.21196" lon="-1.52919">
        <ele>61</ele>
        <time>2022-04-16T13:10:29Z</time>
      </trkpt>
      <trkpt lat="47.21183" lon="-1.52916">
        <ele>60</ele>
        <time>2022-04-16T13:10:31Z</time>
      </trkpt>
      <trkpt lat="47.21169" lon="-1.52912">
        <ele>60</ele>
        <time>2022-04-16T13:10:33Z</time>
      </trkpt>
      <trkpt lat="47.21156" lon="-1.52907">
        <ele>60</ele>
        <time>2022-04-16T13:10:35Z</time>
      </trkpt>
      <trkpt lat="47.21142" lon="-1.52903">
        <ele>59</ele>
        <time>2022-04-16T13:10:37Z</time>
      </trkpt>
      <trkpt lat="47.21128" lon="-1.52898">
        <ele>58</ele>
        <time>2022-04-16T13:10:39Z</time>
      </trkpt>
      <trkpt lat="47.21114" lon="-1.52893">
        <ele>59</ele>
        <time>2022-04-16T13:10:41Z</time>
      </trkpt>
      <trkpt lat="47.21103" lon="-1.52882">
        <ele>59</ele>
        <time>2022-04-16T13:10:43Z</time>
      </trkpt>
      <trkpt lat="47.21093" lon="-1.5287">
        <ele>60</ele>
        <time>2022-04-16T13:10:45Z</time>
      </trkpt>
      <trkpt lat="47.21082" lon="-1.52858">
        <ele>60</ele>
        <time>2022-04-16T13:10:47Z</time>
      </trkpt>
      <trkpt lat="47.21072" lon="-1.52855">
        <ele>60</ele>
        <time>2022-04-16T13:10:49Z</time>
      </trkpt>
      <trkpt lat="47.21061" lon="-1.52865">
        <ele>60</ele>
        <time>2022-04-16T13:10:51Z</time>
      </trkpt>
      <trkpt lat="47.2105" lon="-1.52876">
        <ele>60</ele>
        <time>2022-04-16T13:10:53Z</time>
      </trkpt>
      <trkpt lat="47.21038" lon="-1.52886">
        <ele>61</ele>
        <time>2022-04-16T13:10:55Z</time>
      </trkpt>
      <trkpt lat="47.21027" lon="-1.52897">
        <ele>61</ele>
        <time>2022-04-16T13:10:57Z</time>
      </trkpt>
      <trkpt lat="47.21015" lon="-1.52908">
        <ele>61</ele>
        <time>2022-04-16T13:10:59Z</time>
      </trkpt>
      <trkpt lat="47.21002" lon="-1.52918">
        <ele>61</ele>
        <time>2022-04-16T13:11:01Z</time>
      </trkpt>
      <trkpt lat="47.2099" lon="-1.5293">
        <ele>62</ele>
        <time>2022-04-16T13:11:03Z</time>
      </trkpt>
      <trkpt lat="47.20979" lon="-1.5294">
        <ele>62</ele>
        <time>2022-04-16T13:11:05Z</time>
      </trkpt>
      <trkpt lat="47.20969" lon="-1.5295">
        <ele>62</ele>
        <time>2022-04-16T13:11:07Z</time>
      </trkpt>
      <trkpt lat="47.20957" lon="-1.52961">
        <ele>62</ele>
        <time>2022-04-16T13:11:09Z</time>
      </trkpt>
      <trkpt lat="47.20945" lon="-1.52972">
        <ele>63</ele>
        <time>2022-04-16T13:11:11Z</time>
      </trkpt>
      <trkpt lat="47.20934" lon="-1.52984">
        <ele>62</ele>
        <time>2022-04-16T13:11:13Z</time>
      </trkpt>
      <trkpt lat="47.20923" lon="-1.52994">
        <ele>62</ele>
        <time>2022-04-16T13:11:15Z</time>
      </trkpt>
      <trkpt lat="47.20912" lon="-1.53006">
        <ele>62</ele>
        <time>2022-04-16T13:11:17Z</time>
      </trkpt>
      <trkpt lat="47.20901" lon="-1.53017">
        <ele>61</ele>
        <time>2022-04-16T13:11:19Z</time>
      </trkpt>
      <trkpt lat="47.2089" lon="-1.53029">
        <ele>61</ele>
        <time>2022-04-16T13:11:21Z</time>
      </trkpt>
      <trkpt lat="47.2088" lon="-1.5304">
        <ele>61</ele>
        <time>2022-04-16T13:11:23Z</time>
      </trkpt>
      <trkpt lat="47.20873" lon="-1.53054">
        <ele>61</ele>
        <time>2022-04-16T13:11:25Z</time>
      </trkpt>
      <trkpt lat="47.20872" lon="-1.53067">
        <ele>60</ele>
        <time>2022-04-16T13:11:27Z</time>
      </trkpt>
      <trkpt lat="47.2088" lon="-1.53083">
        <ele>61</ele>
        <time>2022-04-16T13:11:30Z</time>
      </trkpt>
      <trkpt lat="47.20886" lon="-1.53096">
        <ele>61</ele>
        <time>2022-04-16T13:11:32Z</time>
      </trkpt>
      <trkpt lat="47.20892" lon="-1.53109">
        <ele>61</ele>
        <time>2022-04-16T13:11:34Z</time>
      </trkpt>
      <trkpt lat="47.20901" lon="-1.53119">
        <ele>61</ele>
        <time>2022-04-16T13:11:37Z</time>
      </trkpt>
      <trkpt lat="47.2091" lon="-1.53129">
        <ele>61</ele>
        <time>2022-04-16T13:11:40Z</time>
      </trkpt>
      <trkpt lat="47.20915" lon="-1.53142">
        <ele>61</ele>
        <time>2022-04-16T13:11:44Z</time>
      </trkpt>
      <trkpt lat="47.20916" lon="-1.53151">
        <ele>61</ele>
        <time>2022-04-16T13:13:45Z</time>
      </trkpt>
      <trkpt lat="47.20908" lon="-1.53138">
        <ele>66</ele>
        <time>2022-04-16T13:13:53Z</time>
      </trkpt>
      <trkpt lat="47.20901" lon="-1.53128">
        <ele>67</ele>
        <time>2022-04-16T13:13:56Z</time>
      </trkpt>
      <trkpt lat="47.20891" lon="-1.53119">
        <ele>67</ele>
        <time>2022-04-16T13:13:59Z</time>
      </trkpt>
      <trkpt lat="47.20885" lon="-1.5311">
        <ele>66</ele>
        <time>2022-04-16T13:14:03Z</time>
      </trkpt>
      <trkpt lat="47.20882" lon="-1.53124">
        <ele>65</ele>
        <time>2022-04-16T13:14:08Z</time>
      </trkpt>
      <trkpt lat="47.20877" lon="-1.53141">
        <ele>64</ele>
        <time>2022-04-16T13:14:11Z</time>
      </trkpt>
      <trkpt lat="47.20873" lon="-1.53154">
        <ele>64</ele>
        <time>2022-04-16T13:14:13Z</time>
      </trkpt>
      <trkpt lat="47.20868" lon="-1.53167">
        <ele>63</ele>
        <time>2022-04-16T13:14:15Z</time>
      </trkpt>
      <trkpt lat="47.20864" lon="-1.53178">
        <ele>63</ele>
        <time>2022-04-16T13:14:17Z</time>
      </trkpt>
      <trkpt lat="47.20859" lon="-1.5319">
        <ele>62</ele>
        <time>2022-04-16T13:14:19Z</time>
      </trkpt>
      <trkpt lat="47.20853" lon="-1.53206">
        <ele>62</ele>
        <time>2022-04-16T13:14:22Z</time>
      </trkpt>
      <trkpt lat="47.20848" lon="-1.53224">
        <ele>63</ele>
        <time>2022-04-16T13:14:25Z</time>
      </trkpt>
      <trkpt lat="47.20843" lon="-1.53235">
        <ele>63</ele>
        <time>2022-04-16T13:14:27Z</time>
      </trkpt>
      <trkpt lat="47.20838" lon="-1.53248">
        <ele>64</ele>
        <time>2022-04-16T13:14:29Z</time>
      </trkpt>
      <trkpt lat="47.20833" lon="-1.53265">
        <ele>66</ele>
        <time>2022-04-16T13:14:32Z</time>
      </trkpt>
      <trkpt lat="47.20829" lon="-1.53277">
        <ele>67</ele>
        <time>2022-04-16T13:14:34Z</time>
      </trkpt>
      <trkpt lat="47.20823" lon="-1.53294">
        <ele>69</ele>
        <time>2022-04-16T13:14:37Z</time>
      </trkpt>
      <trkpt lat="47.20817" lon="-1.53305">
        <ele>68</ele>
        <time>2022-04-16T13:14:39Z</time>
      </trkpt>
      <trkpt lat="47.20812" lon="-1.53317">
        <ele>69</ele>
        <time>2022-04-16T13:14:41Z</time>
      </trkpt>
      <trkpt lat="47.20805" lon="-1.53334">
        <ele>68</ele>
        <time>2022-04-16T13:14:44Z</time>
      </trkpt>
      <trkpt lat="47.20798" lon="-1.5335">
        <ele>70</ele>
        <time>2022-04-16T13:14:47Z</time>
      </trkpt>
      <trkpt lat="47.20796" lon="-1.53364">
        <ele>71</ele>
        <time>2022-04-16T13:14:52Z</time>
      </trkpt>
      <trkpt lat="47.20787" lon="-1.53375">
        <ele>76</ele>
        <time>2022-04-16T13:15:18Z</time>
      </trkpt>
      <trkpt lat="47.20781" lon="-1.53388">
        <ele>78</ele>
        <time>2022-04-16T13:15:21Z</time>
      </trkpt>
      <trkpt lat="47.20777" lon="-1.53403">
        <ele>79</ele>
        <time>2022-04-16T13:15:24Z</time>
      </trkpt>
      <trkpt lat="47.20774" lon="-1.53416">
        <ele>77</ele>
        <time>2022-04-16T13:15:26Z</time>
      </trkpt>
      <trkpt lat="47.20769" lon="-1.5343">
        <ele>74</ele>
        <time>2022-04-16T13:15:30Z</time>
      </trkpt>
      <trkpt lat="47.20764" lon="-1.53442">
        <ele>73</ele>
        <time>2022-04-16T13:15:34Z</time>
      </trkpt>
      <trkpt lat="47.20753" lon="-1.53445">
        <ele>70</ele>
        <time>2022-04-16T13:15:37Z</time>
      </trkpt>
      <trkpt lat="47.2074" lon="-1.53439">
        <ele>71</ele>
        <time>2022-04-16T13:15:40Z</time>
      </trkpt>
      <trkpt lat="47.20731" lon="-1.53432">
        <ele>71</ele>
        <time>2022-04-16T13:15:42Z</time>
      </trkpt>
      <trkpt lat="47.20722" lon="-1.53425">
        <ele>70</ele>
        <time>2022-04-16T13:15:44Z</time>
      </trkpt>
      <trkpt lat="47.20713" lon="-1.53418">
        <ele>69</ele>
        <time>2022-04-16T13:15:46Z</time>
      </trkpt>
      <trkpt lat="47.20702" lon="-1.53412">
        <ele>71</ele>
        <time>2022-04-16T13:15:48Z</time>
      </trkpt>
      <trkpt lat="47.20693" lon="-1.53407">
        <ele>71</ele>
        <time>2022-04-16T13:15:50Z</time>
      </trkpt>
      <trkpt lat="47.20683" lon="-1.53399">
        <ele>72</ele>
        <time>2022-04-16T13:15:53Z</time>
      </trkpt>
      <trkpt lat="47.20674" lon="-1.53413">
        <ele>70</ele>
        <time>2022-04-16T13:15:57Z</time>
      </trkpt>
      <trkpt lat="47.20669" lon="-1.53427">
        <ele>69</ele>
        <time>2022-04-16T13:15:59Z</time>
      </trkpt>
      <trkpt lat="47.20663" lon="-1.53442">
        <ele>68</ele>
        <time>2022-04-16T13:16:01Z</time>
      </trkpt>
      <trkpt lat="47.20657" lon="-1.53458">
        <ele>67</ele>
        <time>2022-04-16T13:16:03Z</time>
      </trkpt>
      <trkpt lat="47.20651" lon="-1.53474">
        <ele>66</ele>
        <time>2022-04-16T13:16:05Z</time>
      </trkpt>
      <trkpt lat="47.20645" lon="-1.5349">
        <ele>66</ele>
        <time>2022-04-16T13:16:07Z</time>
      </trkpt>
      <trkpt lat="47.20639" lon="-1.53508">
        <ele>66</ele>
        <time>2022-04-16T13:16:09Z</time>
      </trkpt>
      <trkpt lat="47.20633" lon="-1.53523">
        <ele>66</ele>
        <time>2022-04-16T13:16:11Z</time>
      </trkpt>
      <trkpt lat="47.20626" lon="-1.5354">
        <ele>65</ele>
        <time>2022-04-16T13:16:13Z</time>
      </trkpt>
      <trkpt lat="47.20619" lon="-1.53558">
        <ele>63</ele>
        <time>2022-04-16T13:16:15Z</time>
      </trkpt>
      <trkpt lat="47.20612" lon="-1.53576">
        <ele>63</ele>
        <time>2022-04-16T13:16:17Z</time>
      </trkpt>
      <trkpt lat="47.20605" lon="-1.53593">
        <ele>63</ele>
        <time>2022-04-16T13:16:19Z</time>
      </trkpt>
      <trkpt lat="47.20598" lon="-1.5361">
        <ele>62</ele>
        <time>2022-04-16T13:16:21Z</time>
      </trkpt>
      <trkpt lat="47.20591" lon="-1.53628">
        <ele>61</ele>
        <time>2022-04-16T13:16:23Z</time>
      </trkpt>
      <trkpt lat="47.20585" lon="-1.53645">
        <ele>61</ele>
        <time>2022-04-16T13:16:25Z</time>
      </trkpt>
      <trkpt lat="47.20579" lon="-1.53661">
        <ele>61</ele>
        <time>2022-04-16T13:16:27Z</time>
      </trkpt>
      <trkpt lat="47.20572" lon="-1.53677">
        <ele>60</ele>
        <time>2022-04-16T13:16:29Z</time>
      </trkpt>
      <trkpt lat="47.20567" lon="-1.53692">
        <ele>60</ele>
        <time>2022-04-16T13:16:31Z</time>
      </trkpt>
      <trkpt lat="47.20561" lon="-1.53707">
        <ele>60</ele>
        <time>2022-04-16T13:16:33Z</time>
      </trkpt>
      <trkpt lat="47.20556" lon="-1.53723">
        <ele>61</ele>
        <time>2022-04-16T13:16:35Z</time>
      </trkpt>
      <trkpt lat="47.2055" lon="-1.53738">
        <ele>60</ele>
        <time>2022-04-16T13:16:37Z</time>
      </trkpt>
      <trkpt lat="47.20543" lon="-1.53751">
        <ele>60</ele>
        <time>2022-04-16T13:16:39Z</time>
      </trkpt>
      <trkpt lat="47.20536" lon="-1.53762">
        <ele>60</ele>
        <time>2022-04-16T13:16:41Z</time>
      </trkpt>
      <trkpt lat="47.20532" lon="-1.53774">
        <ele>60</ele>
        <time>2022-04-16T13:16:43Z</time>
      </trkpt>
      <trkpt lat="47.20531" lon="-1.53789">
        <ele>60</ele>
        <time>2022-04-16T13:16:46Z</time>
      </trkpt>
      <trkpt lat="47.20531" lon="-1.53803">
        <ele>60</ele>
        <time>2022-04-16T13:16:50Z</time>
      </trkpt>
      <trkpt lat="47.20526" lon="-1.53816">
        <ele>60</ele>
        <time>2022-04-16T13:16:56Z</time>
      </trkpt>
      <trkpt lat="47.20513" lon="-1.53823">
        <ele>59</ele>
        <time>2022-04-16T13:16:59Z</time>
      </trkpt>
      <trkpt lat="47.20502" lon="-1.53816">
        <ele>59</ele>
        <time>2022-04-16T13:17:01Z</time>
      </trkpt>
      <trkpt lat="47.20492" lon="-1.53823">
        <ele>58</ele>
        <time>2022-04-16T13:17:03Z</time>
      </trkpt>
      <trkpt lat="47.20487" lon="-1.5384">
        <ele>59</ele>
        <time>2022-04-16T13:17:05Z</time>
      </trkpt>
      <trkpt lat="47.20485" lon="-1.53858">
        <ele>58</ele>
        <time>2022-04-16T13:17:07Z</time>
      </trkpt>
      <trkpt lat="47.2048" lon="-1.53876">
        <ele>58</ele>
        <time>2022-04-16T13:17:09Z</time>
      </trkpt>
      <trkpt lat="47.20472" lon="-1.53892">
        <ele>59</ele>
        <time>2022-04-16T13:17:11Z</time>
      </trkpt>
      <trkpt lat="47.20462" lon="-1.53907">
        <ele>59</ele>
        <time>2022-04-16T13:17:13Z</time>
      </trkpt>
      <trkpt lat="47.20452" lon="-1.53922">
        <ele>59</ele>
        <time>2022-04-16T13:17:15Z</time>
      </trkpt>
      <trkpt lat="47.20443" lon="-1.53937">
        <ele>60</ele>
        <time>2022-04-16T13:17:17Z</time>
      </trkpt>
      <trkpt lat="47.20434" lon="-1.53952">
        <ele>59</ele>
        <time>2022-04-16T13:17:19Z</time>
      </trkpt>
      <trkpt lat="47.20427" lon="-1.53968">
        <ele>59</ele>
        <time>2022-04-16T13:17:21Z</time>
      </trkpt>
      <trkpt lat="47.20418" lon="-1.53984">
        <ele>59</ele>
        <time>2022-04-16T13:17:23Z</time>
      </trkpt>
      <trkpt lat="47.20409" lon="-1.54">
        <ele>59</ele>
        <time>2022-04-16T13:17:25Z</time>
      </trkpt>
      <trkpt lat="47.20401" lon="-1.54017">
        <ele>59</ele>
        <time>2022-04-16T13:17:27Z</time>
      </trkpt>
      <trkpt lat="47.20393" lon="-1.54034">
        <ele>59</ele>
        <time>2022-04-16T13:17:29Z</time>
      </trkpt>
      <trkpt lat="47.20386" lon="-1.5405">
        <ele>59</ele>
        <time>2022-04-16T13:17:31Z</time>
      </trkpt>
      <trkpt lat="47.20379" lon="-1.54067">
        <ele>59</ele>
        <time>2022-04-16T13:17:33Z</time>
      </trkpt>
      <trkpt lat="47.20371" lon="-1.54083">
        <ele>59</ele>
        <time>2022-04-16T13:17:35Z</time>
      </trkpt>
      <trkpt lat="47.20363" lon="-1.54099">
        <ele>59</ele>
        <time>2022-04-16T13:17:37Z</time>
      </trkpt>
      <trkpt lat="47.20356" lon="-1.54116">
        <ele>59</ele>
        <time>2022-04-16T13:17:39Z</time>
      </trkpt>
      <trkpt lat="47.20349" lon="-1.54134">
        <ele>59</ele>
        <time>2022-04-16T13:17:41Z</time>
      </trkpt>
      <trkpt lat="47.20342" lon="-1.5415">
        <ele>59</ele>
        <time>2022-04-16T13:17:43Z</time>
      </trkpt>
      <trkpt lat="47.20336" lon="-1.54167">
        <ele>59</ele>
        <time>2022-04-16T13:17:45Z</time>
      </trkpt>
      <trkpt lat="47.2033" lon="-1.54185">
        <ele>59</ele>
        <time>2022-04-16T13:17:47Z</time>
      </trkpt>
      <trkpt lat="47.20326" lon="-1.54202">
        <ele>58</ele>
        <time>2022-04-16T13:17:49Z</time>
      </trkpt>
      <trkpt lat="47.20323" lon="-1.5422">
        <ele>58</ele>
        <time>2022-04-16T13:17:51Z</time>
      </trkpt>
      <trkpt lat="47.2032" lon="-1.54238">
        <ele>58</ele>
        <time>2022-04-16T13:17:53Z</time>
      </trkpt>
      <trkpt lat="47.20315" lon="-1.54253">
        <ele>58</ele>
        <time>2022-04-16T13:17:55Z</time>
      </trkpt>
      <trkpt lat="47.20305" lon="-1.54262">
        <ele>58</ele>
        <time>2022-04-16T13:17:57Z</time>
      </trkpt>
      <trkpt lat="47.20295" lon="-1.54271">
        <ele>58</ele>
        <time>2022-04-16T13:17:59Z</time>
      </trkpt>
      <trkpt lat="47.20285" lon="-1.54279">
        <ele>59</ele>
        <time>2022-04-16T13:18:01Z</time>
      </trkpt>
      <trkpt lat="47.20276" lon="-1.54291">
        <ele>59</ele>
        <time>2022-04-16T13:18:03Z</time>
      </trkpt>
      <trkpt lat="47.20267" lon="-1.54299">
        <ele>60</ele>
        <time>2022-04-16T13:18:05Z</time>
      </trkpt>
      <trkpt lat="47.20255" lon="-1.54302">
        <ele>61</ele>
        <time>2022-04-16T13:18:07Z</time>
      </trkpt>
      <trkpt lat="47.20246" lon="-1.54315">
        <ele>61</ele>
        <time>2022-04-16T13:18:09Z</time>
      </trkpt>
      <trkpt lat="47.20234" lon="-1.54327">
        <ele>61</ele>
        <time>2022-04-16T13:18:11Z</time>
      </trkpt>
      <trkpt lat="47.20218" lon="-1.5433">
        <ele>62</ele>
        <time>2022-04-16T13:18:13Z</time>
      </trkpt>
      <trkpt lat="47.20203" lon="-1.54341">
        <ele>63</ele>
        <time>2022-04-16T13:18:15Z</time>
      </trkpt>
      <trkpt lat="47.20194" lon="-1.54347">
        <ele>62</ele>
        <time>2022-04-16T13:18:16Z</time>
      </trkpt>
      <trkpt lat="47.20179" lon="-1.54359">
        <ele>62</ele>
        <time>2022-04-16T13:18:18Z</time>
      </trkpt>
      <trkpt lat="47.20165" lon="-1.54371">
        <ele>61</ele>
        <time>2022-04-16T13:18:20Z</time>
      </trkpt>
      <trkpt lat="47.2015" lon="-1.54381">
        <ele>60</ele>
        <time>2022-04-16T13:18:22Z</time>
      </trkpt>
      <trkpt lat="47.20138" lon="-1.5439">
        <ele>60</ele>
        <time>2022-04-16T13:18:24Z</time>
      </trkpt>
      <trkpt lat="47.20128" lon="-1.54398">
        <ele>60</ele>
        <time>2022-04-16T13:18:26Z</time>
      </trkpt>
      <trkpt lat="47.20118" lon="-1.54407">
        <ele>60</ele>
        <time>2022-04-16T13:18:28Z</time>
      </trkpt>
      <trkpt lat="47.20112" lon="-1.54421">
        <ele>60</ele>
        <time>2022-04-16T13:18:30Z</time>
      </trkpt>
      <trkpt lat="47.2011" lon="-1.54436">
        <ele>61</ele>
        <time>2022-04-16T13:18:33Z</time>
      </trkpt>
      <trkpt lat="47.20111" lon="-1.5445">
        <ele>61</ele>
        <time>2022-04-16T13:18:36Z</time>
      </trkpt>
      <trkpt lat="47.2011" lon="-1.54464">
        <ele>61</ele>
        <time>2022-04-16T13:18:38Z</time>
      </trkpt>
      <trkpt lat="47.20103" lon="-1.54478">
        <ele>60</ele>
        <time>2022-04-16T13:18:40Z</time>
      </trkpt>
      <trkpt lat="47.20093" lon="-1.54488">
        <ele>60</ele>
        <time>2022-04-16T13:18:42Z</time>
      </trkpt>
      <trkpt lat="47.20086" lon="-1.54503">
        <ele>59</ele>
        <time>2022-04-16T13:18:44Z</time>
      </trkpt>
      <trkpt lat="47.20085" lon="-1.54523">
        <ele>60</ele>
        <time>2022-04-16T13:18:46Z</time>
      </trkpt>
      <trkpt lat="47.20088" lon="-1.54542">
        <ele>59</ele>
        <time>2022-04-16T13:18:48Z</time>
      </trkpt>
      <trkpt lat="47.20093" lon="-1.54559">
        <ele>59</ele>
        <time>2022-04-16T13:18:50Z</time>
      </trkpt>
      <trkpt lat="47.201" lon="-1.54576">
        <ele>58</ele>
        <time>2022-04-16T13:18:52Z</time>
      </trkpt>
      <trkpt lat="47.20107" lon="-1.54592">
        <ele>59</ele>
        <time>2022-04-16T13:18:54Z</time>
      </trkpt>
      <trkpt lat="47.20114" lon="-1.54607">
        <ele>59</ele>
        <time>2022-04-16T13:18:56Z</time>
      </trkpt>
      <trkpt lat="47.20122" lon="-1.54621">
        <ele>58</ele>
        <time>2022-04-16T13:18:58Z</time>
      </trkpt>
      <trkpt lat="47.20129" lon="-1.54635">
        <ele>59</ele>
        <time>2022-04-16T13:19:00Z</time>
      </trkpt>
      <trkpt lat="47.20136" lon="-1.54647">
        <ele>59</ele>
        <time>2022-04-16T13:19:02Z</time>
      </trkpt>
      <trkpt lat="47.20143" lon="-1.54661">
        <ele>59</ele>
        <time>2022-04-16T13:19:04Z</time>
      </trkpt>
      <trkpt lat="47.20151" lon="-1.54676">
        <ele>59</ele>
        <time>2022-04-16T13:19:06Z</time>
      </trkpt>
      <trkpt lat="47.20155" lon="-1.54693">
        <ele>59</ele>
        <time>2022-04-16T13:19:08Z</time>
      </trkpt>
      <trkpt lat="47.20159" lon="-1.5471">
        <ele>60</ele>
        <time>2022-04-16T13:19:10Z</time>
      </trkpt>
      <trkpt lat="47.20162" lon="-1.54731">
        <ele>59</ele>
        <time>2022-04-16T13:19:12Z</time>
      </trkpt>
      <trkpt lat="47.20163" lon="-1.54752">
        <ele>60</ele>
        <time>2022-04-16T13:19:14Z</time>
      </trkpt>
      <trkpt lat="47.20164" lon="-1.54771">
        <ele>60</ele>
        <time>2022-04-16T13:19:16Z</time>
      </trkpt>
      <trkpt lat="47.20164" lon="-1.54792">
        <ele>60</ele>
        <time>2022-04-16T13:19:18Z</time>
      </trkpt>
      <trkpt lat="47.20164" lon="-1.54812">
        <ele>59</ele>
        <time>2022-04-16T13:19:20Z</time>
      </trkpt>
      <trkpt lat="47.20164" lon="-1.54832">
        <ele>59</ele>
        <time>2022-04-16T13:19:22Z</time>
      </trkpt>
      <trkpt lat="47.20164" lon="-1.54854">
        <ele>58</ele>
        <time>2022-04-16T13:19:24Z</time>
      </trkpt>
      <trkpt lat="47.20165" lon="-1.54875">
        <ele>58</ele>
        <time>2022-04-16T13:19:26Z</time>
      </trkpt>
      <trkpt lat="47.20165" lon="-1.54895">
        <ele>59</ele>
        <time>2022-04-16T13:19:28Z</time>
      </trkpt>
      <trkpt lat="47.20165" lon="-1.54915">
        <ele>59</ele>
        <time>2022-04-16T13:19:30Z</time>
      </trkpt>
      <trkpt lat="47.20166" lon="-1.54936">
        <ele>59</ele>
        <time>2022-04-16T13:19:32Z</time>
      </trkpt>
      <trkpt lat="47.20166" lon="-1.54956">
        <ele>59</ele>
        <time>2022-04-16T13:19:34Z</time>
      </trkpt>
      <trkpt lat="47.20167" lon="-1.54977">
        <ele>59</ele>
        <time>2022-04-16T13:19:36Z</time>
      </trkpt>
      <trkpt lat="47.20167" lon="-1.54996">
        <ele>60</ele>
        <time>2022-04-16T13:19:38Z</time>
      </trkpt>
      <trkpt lat="47.20167" lon="-1.55016">
        <ele>59</ele>
        <time>2022-04-16T13:19:40Z</time>
      </trkpt>
      <trkpt lat="47.20167" lon="-1.55036">
        <ele>59</ele>
        <time>2022-04-16T13:19:42Z</time>
      </trkpt>
      <trkpt lat="47.20167" lon="-1.55057">
        <ele>59</ele>
        <time>2022-04-16T13:19:44Z</time>
      </trkpt>
      <trkpt lat="47.20167" lon="-1.55077">
        <ele>59</ele>
        <time>2022-04-16T13:19:46Z</time>
      </trkpt>
      <trkpt lat="47.20167" lon="-1.55097">
        <ele>60</ele>
        <time>2022-04-16T13:19:48Z</time>
      </trkpt>
      <trkpt lat="47.20167" lon="-1.55117">
        <ele>60</ele>
        <time>2022-04-16T13:19:50Z</time>
      </trkpt>
      <trkpt lat="47.20167" lon="-1.55137">
        <ele>60</ele>
        <time>2022-04-16T13:19:52Z</time>
      </trkpt>
      <trkpt lat="47.20168" lon="-1.55156">
        <ele>60</ele>
        <time>2022-04-16T13:19:54Z</time>
      </trkpt>
      <trkpt lat="47.20168" lon="-1.55176">
        <ele>60</ele>
        <time>2022-04-16T13:19:56Z</time>
      </trkpt>
      <trkpt lat="47.20168" lon="-1.55197">
        <ele>61</ele>
        <time>2022-04-16T13:19:58Z</time>
      </trkpt>
      <trkpt lat="47.20168" lon="-1.55216">
        <ele>61</ele>
        <time>2022-04-16T13:20:00Z</time>
      </trkpt>
      <trkpt lat="47.20169" lon="-1.55235">
        <ele>62</ele>
        <time>2022-04-16T13:20:02Z</time>
      </trkpt>
      <trkpt lat="47.2017" lon="-1.55254">
        <ele>64</ele>
        <time>2022-04-16T13:20:04Z</time>
      </trkpt>
      <trkpt lat="47.20172" lon="-1.55272">
        <ele>65</ele>
        <time>2022-04-16T13:20:06Z</time>
      </trkpt>
      <trkpt lat="47.20173" lon="-1.55293">
        <ele>66</ele>
        <time>2022-04-16T13:20:08Z</time>
      </trkpt>
      <trkpt lat="47.20172" lon="-1.55311">
        <ele>67</ele>
        <time>2022-04-16T13:20:10Z</time>
      </trkpt>
      <trkpt lat="47.20172" lon="-1.5533">
        <ele>68</ele>
        <time>2022-04-16T13:20:12Z</time>
      </trkpt>
      <trkpt lat="47.20172" lon="-1.55348">
        <ele>68</ele>
        <time>2022-04-16T13:20:14Z</time>
      </trkpt>
      <trkpt lat="47.20171" lon="-1.55364">
        <ele>68</ele>
        <time>2022-04-16T13:20:16Z</time>
      </trkpt>
      <trkpt lat="47.20171" lon="-1.5538">
        <ele>67</ele>
        <time>2022-04-16T13:20:18Z</time>
      </trkpt>
      <trkpt lat="47.20174" lon="-1.55394">
        <ele>67</ele>
        <time>2022-04-16T13:20:20Z</time>
      </trkpt>
      <trkpt lat="47.20183" lon="-1.554">
        <ele>65</ele>
        <time>2022-04-16T13:20:22Z</time>
      </trkpt>
      <trkpt lat="47.20193" lon="-1.55411">
        <ele>63</ele>
        <time>2022-04-16T13:20:25Z</time>
      </trkpt>
      <trkpt lat="47.20194" lon="-1.55432">
        <ele>62</ele>
        <time>2022-04-16T13:20:28Z</time>
      </trkpt>
      <trkpt lat="47.20188" lon="-1.55449">
        <ele>63</ele>
        <time>2022-04-16T13:20:30Z</time>
      </trkpt>
      <trkpt lat="47.2018" lon="-1.55478">
        <ele>63</ele>
        <time>2022-04-16T13:20:33Z</time>
      </trkpt>
      <trkpt lat="47.20178" lon="-1.55496">
        <ele>63</ele>
        <time>2022-04-16T13:20:35Z</time>
      </trkpt>
      <trkpt lat="47.2018" lon="-1.55513">
        <ele>62</ele>
        <time>2022-04-16T13:20:37Z</time>
      </trkpt>
      <trkpt lat="47.20187" lon="-1.55528">
        <ele>62</ele>
        <time>2022-04-16T13:20:39Z</time>
      </trkpt>
      <trkpt lat="47.20197" lon="-1.55536">
        <ele>60</ele>
        <time>2022-04-16T13:20:41Z</time>
      </trkpt>
      <trkpt lat="47.20208" lon="-1.55541">
        <ele>59</ele>
        <time>2022-04-16T13:20:43Z</time>
      </trkpt>
      <trkpt lat="47.2022" lon="-1.55545">
        <ele>59</ele>
        <time>2022-04-16T13:20:45Z</time>
      </trkpt>
      <trkpt lat="47.20232" lon="-1.55551">
        <ele>59</ele>
        <time>2022-04-16T13:20:47Z</time>
      </trkpt>
      <trkpt lat="47.20244" lon="-1.55557">
        <ele>59</ele>
        <time>2022-04-16T13:20:49Z</time>
      </trkpt>
      <trkpt lat="47.20257" lon="-1.55561">
        <ele>58</ele>
        <time>2022-04-16T13:20:51Z</time>
      </trkpt>
      <trkpt lat="47.2027" lon="-1.55564">
        <ele>59</ele>
        <time>2022-04-16T13:20:53Z</time>
      </trkpt>
      <trkpt lat="47.20282" lon="-1.55567">
        <ele>59</ele>
        <time>2022-04-16T13:20:55Z</time>
      </trkpt>
      <trkpt lat="47.20293" lon="-1.55576">
        <ele>59</ele>
        <time>2022-04-16T13:20:57Z</time>
      </trkpt>
      <trkpt lat="47.20298" lon="-1.55592">
        <ele>59</ele>
        <time>2022-04-16T13:20:59Z</time>
      </trkpt>
      <trkpt lat="47.20296" lon="-1.55611">
        <ele>59</ele>
        <time>2022-04-16T13:21:01Z</time>
      </trkpt>
      <trkpt lat="47.20295" lon="-1.5563">
        <ele>59</ele>
        <time>2022-04-16T13:21:03Z</time>
      </trkpt>
      <trkpt lat="47.20292" lon="-1.5565">
        <ele>58</ele>
        <time>2022-04-16T13:21:05Z</time>
      </trkpt>
      <trkpt lat="47.2029" lon="-1.5567">
        <ele>58</ele>
        <time>2022-04-16T13:21:07Z</time>
      </trkpt>
      <trkpt lat="47.20288" lon="-1.55689">
        <ele>58</ele>
        <time>2022-04-16T13:21:09Z</time>
      </trkpt>
      <trkpt lat="47.20286" lon="-1.55709">
        <ele>59</ele>
        <time>2022-04-16T13:21:11Z</time>
      </trkpt>
      <trkpt lat="47.20284" lon="-1.55728">
        <ele>58</ele>
        <time>2022-04-16T13:21:13Z</time>
      </trkpt>
      <trkpt lat="47.20281" lon="-1.55748">
        <ele>58</ele>
        <time>2022-04-16T13:21:15Z</time>
      </trkpt>
      <trkpt lat="47.2028" lon="-1.55768">
        <ele>58</ele>
        <time>2022-04-16T13:21:17Z</time>
      </trkpt>
      <trkpt lat="47.20277" lon="-1.55789">
        <ele>58</ele>
        <time>2022-04-16T13:21:19Z</time>
      </trkpt>
      <trkpt lat="47.20275" lon="-1.55808">
        <ele>58</ele>
        <time>2022-04-16T13:21:21Z</time>
      </trkpt>
      <trkpt lat="47.20274" lon="-1.55827">
        <ele>58</ele>
        <time>2022-04-16T13:21:23Z</time>
      </trkpt>
      <trkpt lat="47.20271" lon="-1.55847">
        <ele>58</ele>
        <time>2022-04-16T13:21:25Z</time>
      </trkpt>
      <trkpt lat="47.20269" lon="-1.55866">
        <ele>59</ele>
        <time>2022-04-16T13:21:27Z</time>
      </trkpt>
      <trkpt lat="47.20268" lon="-1.55886">
        <ele>58</ele>
        <time>2022-04-16T13:21:29Z</time>
      </trkpt>
      <trkpt lat="47.20266" lon="-1.55906">
        <ele>58</ele>
        <time>2022-04-16T13:21:31Z</time>
      </trkpt>
      <trkpt lat="47.20264" lon="-1.55926">
        <ele>59</ele>
        <time>2022-04-16T13:21:33Z</time>
      </trkpt>
      <trkpt lat="47.20261" lon="-1.55945">
        <ele>58</ele>
        <time>2022-04-16T13:21:35Z</time>
      </trkpt>
      <trkpt lat="47.20259" lon="-1.55965">
        <ele>59</ele>
        <time>2022-04-16T13:21:37Z</time>
      </trkpt>
      <trkpt lat="47.20256" lon="-1.55984">
        <ele>59</ele>
        <time>2022-04-16T13:21:39Z</time>
      </trkpt>
      <trkpt lat="47.20255" lon="-1.56003">
        <ele>59</ele>
        <time>2022-04-16T13:21:41Z</time>
      </trkpt>
      <trkpt lat="47.20253" lon="-1.56022">
        <ele>58</ele>
        <time>2022-04-16T13:21:43Z</time>
      </trkpt>
      <trkpt lat="47.2025" lon="-1.56043">
        <ele>58</ele>
        <time>2022-04-16T13:21:45Z</time>
      </trkpt>
      <trkpt lat="47.20248" lon="-1.56063">
        <ele>58</ele>
        <time>2022-04-16T13:21:47Z</time>
      </trkpt>
      <trkpt lat="47.20246" lon="-1.56083">
        <ele>58</ele>
        <time>2022-04-16T13:21:49Z</time>
      </trkpt>
      <trkpt lat="47.20244" lon="-1.56102">
        <ele>58</ele>
        <time>2022-04-16T13:21:51Z</time>
      </trkpt>
      <trkpt lat="47.20242" lon="-1.56121">
        <ele>58</ele>
        <time>2022-04-16T13:21:53Z</time>
      </trkpt>
      <trkpt lat="47.20236" lon="-1.56139">
        <ele>58</ele>
        <time>2022-04-16T13:21:55Z</time>
      </trkpt>
      <trkpt lat="47.20227" lon="-1.56153">
        <ele>58</ele>
        <time>2022-04-16T13:21:57Z</time>
      </trkpt>
      <trkpt lat="47.20216" lon="-1.56164">
        <ele>58</ele>
        <time>2022-04-16T13:21:59Z</time>
      </trkpt>
      <trkpt lat="47.20204" lon="-1.56173">
        <ele>58</ele>
        <time>2022-04-16T13:22:01Z</time>
      </trkpt>
      <trkpt lat="47.20191" lon="-1.5618">
        <ele>57</ele>
        <time>2022-04-16T13:22:03Z</time>
      </trkpt>
      <trkpt lat="47.20181" lon="-1.56192">
        <ele>57</ele>
        <time>2022-04-16T13:22:05Z</time>
      </trkpt>
      <trkpt lat="47.20168" lon="-1.56197">
        <ele>57</ele>
        <time>2022-04-16T13:22:07Z</time>
      </trkpt>
      <trkpt lat="47.20156" lon="-1.56189">
        <ele>57</ele>
        <time>2022-04-16T13:22:09Z</time>
      </trkpt>
      <trkpt lat="47.20144" lon="-1.56182">
        <ele>57</ele>
        <time>2022-04-16T13:22:11Z</time>
      </trkpt>
      <trkpt lat="47.20131" lon="-1.56182">
        <ele>57</ele>
        <time>2022-04-16T13:22:13Z</time>
      </trkpt>
      <trkpt lat="47.20117" lon="-1.56182">
        <ele>57</ele>
        <time>2022-04-16T13:22:15Z</time>
      </trkpt>
      <trkpt lat="47.20104" lon="-1.56182">
        <ele>57</ele>
        <time>2022-04-16T13:22:17Z</time>
      </trkpt>
      <trkpt lat="47.20091" lon="-1.56182">
        <ele>57</ele>
        <time>2022-04-16T13:22:19Z</time>
      </trkpt>
      <trkpt lat="47.20078" lon="-1.56182">
        <ele>57</ele>
        <time>2022-04-16T13:22:21Z</time>
      </trkpt>
      <trkpt lat="47.20064" lon="-1.56183">
        <ele>56</ele>
        <time>2022-04-16T13:22:23Z</time>
      </trkpt>
      <trkpt lat="47.20051" lon="-1.56183">
        <ele>56</ele>
        <time>2022-04-16T13:22:25Z</time>
      </trkpt>
      <trkpt lat="47.20037" lon="-1.56183">
        <ele>56</ele>
        <time>2022-04-16T13:22:27Z</time>
      </trkpt>
      <trkpt lat="47.20025" lon="-1.56184">
        <ele>56</ele>
        <time>2022-04-16T13:22:29Z</time>
      </trkpt>
      <trkpt lat="47.20012" lon="-1.56186">
        <ele>55</ele>
        <time>2022-04-16T13:22:31Z</time>
      </trkpt>
      <trkpt lat="47.20003" lon="-1.5619">
        <ele>55</ele>
        <time>2022-04-16T13:22:33Z</time>
      </trkpt>
      <trkpt lat="47.19992" lon="-1.56194">
        <ele>56</ele>
        <time>2022-04-16T13:22:36Z</time>
      </trkpt>
      <trkpt lat="47.1998" lon="-1.56192">
        <ele>56</ele>
        <time>2022-04-16T13:22:38Z</time>
      </trkpt>
      <trkpt lat="47.19974" lon="-1.56177">
        <ele>56</ele>
        <time>2022-04-16T13:22:40Z</time>
      </trkpt>
      <trkpt lat="47.19966" lon="-1.56166">
        <ele>56</ele>
        <time>2022-04-16T13:22:42Z</time>
      </trkpt>
      <trkpt lat="47.19953" lon="-1.56169">
        <ele>57</ele>
        <time>2022-04-16T13:22:44Z</time>
      </trkpt>
      <trkpt lat="47.19938" lon="-1.56172">
        <ele>59</ele>
        <time>2022-04-16T13:22:46Z</time>
      </trkpt>
      <trkpt lat="47.19924" lon="-1.56174">
        <ele>60</ele>
        <time>2022-04-16T13:22:48Z</time>
      </trkpt>
      <trkpt lat="47.19909" lon="-1.56177">
        <ele>60</ele>
        <time>2022-04-16T13:22:50Z</time>
      </trkpt>
      <trkpt lat="47.19894" lon="-1.56179">
        <ele>61</ele>
        <time>2022-04-16T13:22:52Z</time>
      </trkpt>
      <trkpt lat="47.1988" lon="-1.56182">
        <ele>62</ele>
        <time>2022-04-16T13:22:54Z</time>
      </trkpt>
      <trkpt lat="47.19866" lon="-1.56185">
        <ele>62</ele>
        <time>2022-04-16T13:22:56Z</time>
      </trkpt>
      <trkpt lat="47.19852" lon="-1.56187">
        <ele>62</ele>
        <time>2022-04-16T13:22:58Z</time>
      </trkpt>
      <trkpt lat="47.19839" lon="-1.5619">
        <ele>62</ele>
        <time>2022-04-16T13:23:00Z</time>
      </trkpt>
      <trkpt lat="47.19826" lon="-1.56193">
        <ele>62</ele>
        <time>2022-04-16T13:23:02Z</time>
      </trkpt>
      <trkpt lat="47.19812" lon="-1.56195">
        <ele>62</ele>
        <time>2022-04-16T13:23:04Z</time>
      </trkpt>
      <trkpt lat="47.19799" lon="-1.56198">
        <ele>62</ele>
        <time>2022-04-16T13:23:06Z</time>
      </trkpt>
      <trkpt lat="47.19785" lon="-1.562">
        <ele>62</ele>
        <time>2022-04-16T13:23:08Z</time>
      </trkpt>
      <trkpt lat="47.1977" lon="-1.56203">
        <ele>61</ele>
        <time>2022-04-16T13:23:10Z</time>
      </trkpt>
      <trkpt lat="47.19755" lon="-1.56206">
        <ele>61</ele>
        <time>2022-04-16T13:23:12Z</time>
      </trkpt>
      <trkpt lat="47.1974" lon="-1.56208">
        <ele>61</ele>
        <time>2022-04-16T13:23:14Z</time>
      </trkpt>
      <trkpt lat="47.19725" lon="-1.56211">
        <ele>60</ele>
        <time>2022-04-16T13:23:16Z</time>
      </trkpt>
      <trkpt lat="47.19708" lon="-1.56214">
        <ele>60</ele>
        <time>2022-04-16T13:23:18Z</time>
      </trkpt>
      <trkpt lat="47.19699" lon="-1.56216">
        <ele>59</ele>
        <time>2022-04-16T13:23:19Z</time>
      </trkpt>
      <trkpt lat="47.1969" lon="-1.56218">
        <ele>59</ele>
        <time>2022-04-16T13:23:20Z</time>
      </trkpt>
      <trkpt lat="47.1968" lon="-1.5622">
        <ele>59</ele>
        <time>2022-04-16T13:23:21Z</time>
      </trkpt>
      <trkpt lat="47.19671" lon="-1.56223">
        <ele>58</ele>
        <time>2022-04-16T13:23:22Z</time>
      </trkpt>
      <trkpt lat="47.19662" lon="-1.56227">
        <ele>57</ele>
        <time>2022-04-16T13:23:23Z</time>
      </trkpt>
      <trkpt lat="47.19653" lon="-1.56229">
        <ele>57</ele>
        <time>2022-04-16T13:23:24Z</time>
      </trkpt>
      <trkpt lat="47.19639" lon="-1.5624">
        <ele>56</ele>
        <time>2022-04-16T13:23:26Z</time>
      </trkpt>
      <trkpt lat="47.19634" lon="-1.56262">
        <ele>56</ele>
        <time>2022-04-16T13:23:28Z</time>
      </trkpt>
      <trkpt lat="47.19634" lon="-1.56284">
        <ele>56</ele>
        <time>2022-04-16T13:23:30Z</time>
      </trkpt>
      <trkpt lat="47.19632" lon="-1.56306">
        <ele>56</ele>
        <time>2022-04-16T13:23:32Z</time>
      </trkpt>
      <trkpt lat="47.19631" lon="-1.56327">
        <ele>56</ele>
        <time>2022-04-16T13:23:34Z</time>
      </trkpt>
      <trkpt lat="47.1963" lon="-1.56348">
        <ele>56</ele>
        <time>2022-04-16T13:23:36Z</time>
      </trkpt>
      <trkpt lat="47.1963" lon="-1.5637">
        <ele>55</ele>
        <time>2022-04-16T13:23:38Z</time>
      </trkpt>
      <trkpt lat="47.19631" lon="-1.5639">
        <ele>55</ele>
        <time>2022-04-16T13:23:40Z</time>
      </trkpt>
      <trkpt lat="47.19632" lon="-1.56411">
        <ele>55</ele>
        <time>2022-04-16T13:23:42Z</time>
      </trkpt>
      <trkpt lat="47.19632" lon="-1.56431">
        <ele>55</ele>
        <time>2022-04-16T13:23:44Z</time>
      </trkpt>
      <trkpt lat="47.19633" lon="-1.56452">
        <ele>54</ele>
        <time>2022-04-16T13:23:46Z</time>
      </trkpt>
      <trkpt lat="47.19634" lon="-1.56472">
        <ele>55</ele>
        <time>2022-04-16T13:23:48Z</time>
      </trkpt>
      <trkpt lat="47.19634" lon="-1.56492">
        <ele>55</ele>
        <time>2022-04-16T13:23:50Z</time>
      </trkpt>
      <trkpt lat="47.19634" lon="-1.56513">
        <ele>55</ele>
        <time>2022-04-16T13:23:52Z</time>
      </trkpt>
      <trkpt lat="47.19634" lon="-1.56533">
        <ele>55</ele>
        <time>2022-04-16T13:23:54Z</time>
      </trkpt>
      <trkpt lat="47.19633" lon="-1.56553">
        <ele>56</ele>
        <time>2022-04-16T13:23:56Z</time>
      </trkpt>
      <trkpt lat="47.19632" lon="-1.56574">
        <ele>56</ele>
        <time>2022-04-16T13:23:58Z</time>
      </trkpt>
      <trkpt lat="47.19631" lon="-1.56596">
        <ele>56</ele>
        <time>2022-04-16T13:24:00Z</time>
      </trkpt>
      <trkpt lat="47.1963" lon="-1.56616">
        <ele>56</ele>
        <time>2022-04-16T13:24:02Z</time>
      </trkpt>
      <trkpt lat="47.19629" lon="-1.56636">
        <ele>57</ele>
        <time>2022-04-16T13:24:04Z</time>
      </trkpt>
      <trkpt lat="47.19628" lon="-1.56657">
        <ele>58</ele>
        <time>2022-04-16T13:24:06Z</time>
      </trkpt>
      <trkpt lat="47.19627" lon="-1.56677">
        <ele>59</ele>
        <time>2022-04-16T13:24:08Z</time>
      </trkpt>
      <trkpt lat="47.19626" lon="-1.56697">
        <ele>59</ele>
        <time>2022-04-16T13:24:10Z</time>
      </trkpt>
      <trkpt lat="47.19625" lon="-1.56717">
        <ele>60</ele>
        <time>2022-04-16T13:24:12Z</time>
      </trkpt>
      <trkpt lat="47.19623" lon="-1.56737">
        <ele>60</ele>
        <time>2022-04-16T13:24:14Z</time>
      </trkpt>
      <trkpt lat="47.19622" lon="-1.56756">
        <ele>60</ele>
        <time>2022-04-16T13:24:16Z</time>
      </trkpt>
      <trkpt lat="47.19621" lon="-1.56777">
        <ele>59</ele>
        <time>2022-04-16T13:24:18Z</time>
      </trkpt>
      <trkpt lat="47.1962" lon="-1.56796">
        <ele>59</ele>
        <time>2022-04-16T13:24:20Z</time>
      </trkpt>
      <trkpt lat="47.19618" lon="-1.56817">
        <ele>58</ele>
        <time>2022-04-16T13:24:22Z</time>
      </trkpt>
      <trkpt lat="47.19617" lon="-1.56837">
        <ele>58</ele>
        <time>2022-04-16T13:24:24Z</time>
      </trkpt>
      <trkpt lat="47.19616" lon="-1.56857">
        <ele>59</ele>
        <time>2022-04-16T13:24:26Z</time>
      </trkpt>
      <trkpt lat="47.19615" lon="-1.56877">
        <ele>59</ele>
        <time>2022-04-16T13:24:28Z</time>
      </trkpt>
      <trkpt lat="47.19613" lon="-1.56896">
        <ele>59</ele>
        <time>2022-04-16T13:24:30Z</time>
      </trkpt>
      <trkpt lat="47.19612" lon="-1.56917">
        <ele>58</ele>
        <time>2022-04-16T13:24:32Z</time>
      </trkpt>
      <trkpt lat="47.19611" lon="-1.56936">
        <ele>58</ele>
        <time>2022-04-16T13:24:34Z</time>
      </trkpt>
      <trkpt lat="47.19609" lon="-1.56955">
        <ele>58</ele>
        <time>2022-04-16T13:24:36Z</time>
      </trkpt>
      <trkpt lat="47.19608" lon="-1.56974">
        <ele>57</ele>
        <time>2022-04-16T13:24:38Z</time>
      </trkpt>
      <trkpt lat="47.19607" lon="-1.56994">
        <ele>58</ele>
        <time>2022-04-16T13:24:40Z</time>
      </trkpt>
      <trkpt lat="47.19606" lon="-1.57014">
        <ele>58</ele>
        <time>2022-04-16T13:24:42Z</time>
      </trkpt>
      <trkpt lat="47.19605" lon="-1.57035">
        <ele>58</ele>
        <time>2022-04-16T13:24:44Z</time>
      </trkpt>
      <trkpt lat="47.19603" lon="-1.57055">
        <ele>59</ele>
        <time>2022-04-16T13:24:46Z</time>
      </trkpt>
      <trkpt lat="47.19603" lon="-1.57076">
        <ele>58</ele>
        <time>2022-04-16T13:24:48Z</time>
      </trkpt>
      <trkpt lat="47.19602" lon="-1.57097">
        <ele>58</ele>
        <time>2022-04-16T13:24:50Z</time>
      </trkpt>
      <trkpt lat="47.19601" lon="-1.57117">
        <ele>58</ele>
        <time>2022-04-16T13:24:52Z</time>
      </trkpt>
      <trkpt lat="47.19599" lon="-1.57136">
        <ele>57</ele>
        <time>2022-04-16T13:24:54Z</time>
      </trkpt>
      <trkpt lat="47.19598" lon="-1.57155">
        <ele>57</ele>
        <time>2022-04-16T13:24:56Z</time>
      </trkpt>
      <trkpt lat="47.19596" lon="-1.57175">
        <ele>57</ele>
        <time>2022-04-16T13:24:58Z</time>
      </trkpt>
      <trkpt lat="47.19595" lon="-1.57196">
        <ele>57</ele>
        <time>2022-04-16T13:25:00Z</time>
      </trkpt>
      <trkpt lat="47.19594" lon="-1.57215">
        <ele>57</ele>
        <time>2022-04-16T13:25:02Z</time>
      </trkpt>
      <trkpt lat="47.19592" lon="-1.57235">
        <ele>57</ele>
        <time>2022-04-16T13:25:04Z</time>
      </trkpt>
      <trkpt lat="47.1959" lon="-1.57255">
        <ele>57</ele>
        <time>2022-04-16T13:25:06Z</time>
      </trkpt>
      <trkpt lat="47.19588" lon="-1.57275">
        <ele>57</ele>
        <time>2022-04-16T13:25:08Z</time>
      </trkpt>
      <trkpt lat="47.19588" lon="-1.57294">
        <ele>58</ele>
        <time>2022-04-16T13:25:10Z</time>
      </trkpt>
      <trkpt lat="47.19587" lon="-1.57312">
        <ele>58</ele>
        <time>2022-04-16T13:25:12Z</time>
      </trkpt>
      <trkpt lat="47.19583" lon="-1.5733">
        <ele>58</ele>
        <time>2022-04-16T13:25:14Z</time>
      </trkpt>
      <trkpt lat="47.1958" lon="-1.57348">
        <ele>57</ele>
        <time>2022-04-16T13:25:16Z</time>
      </trkpt>
      <trkpt lat="47.19576" lon="-1.57365">
        <ele>57</ele>
        <time>2022-04-16T13:25:18Z</time>
      </trkpt>
      <trkpt lat="47.19572" lon="-1.57383">
        <ele>57</ele>
        <time>2022-04-16T13:25:20Z</time>
      </trkpt>
      <trkpt lat="47.19568" lon="-1.57401">
        <ele>57</ele>
        <time>2022-04-16T13:25:22Z</time>
      </trkpt>
      <trkpt lat="47.19565" lon="-1.5742">
        <ele>57</ele>
        <time>2022-04-16T13:25:24Z</time>
      </trkpt>
      <trkpt lat="47.19562" lon="-1.57438">
        <ele>57</ele>
        <time>2022-04-16T13:25:26Z</time>
      </trkpt>
      <trkpt lat="47.19558" lon="-1.57456">
        <ele>57</ele>
        <time>2022-04-16T13:25:28Z</time>
      </trkpt>
      <trkpt lat="47.19555" lon="-1.57475">
        <ele>58</ele>
        <time>2022-04-16T13:25:30Z</time>
      </trkpt>
      <trkpt lat="47.19552" lon="-1.57494">
        <ele>58</ele>
        <time>2022-04-16T13:25:32Z</time>
      </trkpt>
      <trkpt lat="47.19548" lon="-1.57513">
        <ele>57</ele>
        <time>2022-04-16T13:25:34Z</time>
      </trkpt>
      <trkpt lat="47.19544" lon="-1.57532">
        <ele>57</ele>
        <time>2022-04-16T13:25:36Z</time>
      </trkpt>
      <trkpt lat="47.1954" lon="-1.57551">
        <ele>56</ele>
        <time>2022-04-16T13:25:38Z</time>
      </trkpt>
      <trkpt lat="47.19536" lon="-1.57569">
        <ele>56</ele>
        <time>2022-04-16T13:25:40Z</time>
      </trkpt>
      <trkpt lat="47.19532" lon="-1.57589">
        <ele>57</ele>
        <time>2022-04-16T13:25:42Z</time>
      </trkpt>
      <trkpt lat="47.19529" lon="-1.57608">
        <ele>57</ele>
        <time>2022-04-16T13:25:44Z</time>
      </trkpt>
      <trkpt lat="47.19524" lon="-1.57626">
        <ele>57</ele>
        <time>2022-04-16T13:25:46Z</time>
      </trkpt>
      <trkpt lat="47.1952" lon="-1.57645">
        <ele>56</ele>
        <time>2022-04-16T13:25:48Z</time>
      </trkpt>
      <trkpt lat="47.19516" lon="-1.57664">
        <ele>56</ele>
        <time>2022-04-16T13:25:50Z</time>
      </trkpt>
      <trkpt lat="47.19512" lon="-1.57683">
        <ele>56</ele>
        <time>2022-04-16T13:25:52Z</time>
      </trkpt>
      <trkpt lat="47.19508" lon="-1.57703">
        <ele>56</ele>
        <time>2022-04-16T13:25:54Z</time>
      </trkpt>
      <trkpt lat="47.19504" lon="-1.57723">
        <ele>56</ele>
        <time>2022-04-16T13:25:56Z</time>
      </trkpt>
      <trkpt lat="47.195" lon="-1.57743">
        <ele>56</ele>
        <time>2022-04-16T13:25:58Z</time>
      </trkpt>
      <trkpt lat="47.19496" lon="-1.57763">
        <ele>55</ele>
        <time>2022-04-16T13:26:00Z</time>
      </trkpt>
      <trkpt lat="47.19491" lon="-1.57783">
        <ele>55</ele>
        <time>2022-04-16T13:26:02Z</time>
      </trkpt>
      <trkpt lat="47.19488" lon="-1.57803">
        <ele>55</ele>
        <time>2022-04-16T13:26:04Z</time>
      </trkpt>
      <trkpt lat="47.19484" lon="-1.57823">
        <ele>55</ele>
        <time>2022-04-16T13:26:06Z</time>
      </trkpt>
      <trkpt lat="47.19481" lon="-1.57843">
        <ele>56</ele>
        <time>2022-04-16T13:26:08Z</time>
      </trkpt>
      <trkpt lat="47.19479" lon="-1.57863">
        <ele>56</ele>
        <time>2022-04-16T13:26:10Z</time>
      </trkpt>
      <trkpt lat="47.19477" lon="-1.57882">
        <ele>56</ele>
        <time>2022-04-16T13:26:12Z</time>
      </trkpt>
      <trkpt lat="47.19473" lon="-1.57901">
        <ele>56</ele>
        <time>2022-04-16T13:26:14Z</time>
      </trkpt>
      <trkpt lat="47.1947" lon="-1.57921">
        <ele>56</ele>
        <time>2022-04-16T13:26:16Z</time>
      </trkpt>
      <trkpt lat="47.19469" lon="-1.57939">
        <ele>56</ele>
        <time>2022-04-16T13:26:18Z</time>
      </trkpt>
      <trkpt lat="47.19468" lon="-1.57955">
        <ele>56</ele>
        <time>2022-04-16T13:26:20Z</time>
      </trkpt>
      <trkpt lat="47.19467" lon="-1.5797">
        <ele>57</ele>
        <time>2022-04-16T13:26:29Z</time>
      </trkpt>
      <trkpt lat="47.19466" lon="-1.5799">
        <ele>57</ele>
        <time>2022-04-16T13:26:32Z</time>
      </trkpt>
      <trkpt lat="47.19464" lon="-1.58007">
        <ele>57</ele>
        <time>2022-04-16T13:26:34Z</time>
      </trkpt>
      <trkpt lat="47.19462" lon="-1.58024">
        <ele>57</ele>
        <time>2022-04-16T13:26:36Z</time>
      </trkpt>
      <trkpt lat="47.1946" lon="-1.58041">
        <ele>57</ele>
        <time>2022-04-16T13:26:38Z</time>
      </trkpt>
      <trkpt lat="47.19459" lon="-1.58057">
        <ele>56</ele>
        <time>2022-04-16T13:26:40Z</time>
      </trkpt>
      <trkpt lat="47.19457" lon="-1.58072">
        <ele>56</ele>
        <time>2022-04-16T13:26:42Z</time>
      </trkpt>
      <trkpt lat="47.19455" lon="-1.58089">
        <ele>56</ele>
        <time>2022-04-16T13:26:45Z</time>
      </trkpt>
      <trkpt lat="47.19447" lon="-1.58102">
        <ele>56</ele>
        <time>2022-04-16T13:26:47Z</time>
      </trkpt>
      <trkpt lat="47.19437" lon="-1.58112">
        <ele>56</ele>
        <time>2022-04-16T13:26:49Z</time>
      </trkpt>
      <trkpt lat="47.19427" lon="-1.58125">
        <ele>56</ele>
        <time>2022-04-16T13:26:51Z</time>
      </trkpt>
      <trkpt lat="47.19416" lon="-1.58137">
        <ele>56</ele>
        <time>2022-04-16T13:26:53Z</time>
      </trkpt>
      <trkpt lat="47.19406" lon="-1.5815">
        <ele>55</ele>
        <time>2022-04-16T13:26:55Z</time>
      </trkpt>
      <trkpt lat="47.19398" lon="-1.58165">
        <ele>55</ele>
        <time>2022-04-16T13:26:57Z</time>
      </trkpt>
      <trkpt lat="47.19391" lon="-1.58181">
        <ele>55</ele>
        <time>2022-04-16T13:26:59Z</time>
      </trkpt>
      <trkpt lat="47.19383" lon="-1.58197">
        <ele>55</ele>
        <time>2022-04-16T13:27:01Z</time>
      </trkpt>
      <trkpt lat="47.19377" lon="-1.58214">
        <ele>55</ele>
        <time>2022-04-16T13:27:03Z</time>
      </trkpt>
      <trkpt lat="47.1937" lon="-1.58232">
        <ele>55</ele>
        <time>2022-04-16T13:27:05Z</time>
      </trkpt>
      <trkpt lat="47.19364" lon="-1.5825">
        <ele>56</ele>
        <time>2022-04-16T13:27:07Z</time>
      </trkpt>
      <trkpt lat="47.19356" lon="-1.58268">
        <ele>55</ele>
        <time>2022-04-16T13:27:09Z</time>
      </trkpt>
      <trkpt lat="47.19346" lon="-1.58282">
        <ele>55</ele>
        <time>2022-04-16T13:27:11Z</time>
      </trkpt>
      <trkpt lat="47.19335" lon="-1.58295">
        <ele>54</ele>
        <time>2022-04-16T13:27:13Z</time>
      </trkpt>
      <trkpt lat="47.19322" lon="-1.58306">
        <ele>54</ele>
        <time>2022-04-16T13:27:15Z</time>
      </trkpt>
      <trkpt lat="47.1931" lon="-1.58317">
        <ele>54</ele>
        <time>2022-04-16T13:27:17Z</time>
      </trkpt>
      <trkpt lat="47.19298" lon="-1.58327">
        <ele>54</ele>
        <time>2022-04-16T13:27:19Z</time>
      </trkpt>
      <trkpt lat="47.19286" lon="-1.58338">
        <ele>54</ele>
        <time>2022-04-16T13:27:21Z</time>
      </trkpt>
      <trkpt lat="47.19275" lon="-1.5835">
        <ele>55</ele>
        <time>2022-04-16T13:27:23Z</time>
      </trkpt>
      <trkpt lat="47.19262" lon="-1.58362">
        <ele>55</ele>
        <time>2022-04-16T13:27:25Z</time>
      </trkpt>
      <trkpt lat="47.1925" lon="-1.58374">
        <ele>55</ele>
        <time>2022-04-16T13:27:27Z</time>
      </trkpt>
      <trkpt lat="47.19237" lon="-1.58386">
        <ele>55</ele>
        <time>2022-04-16T13:27:29Z</time>
      </trkpt>
      <trkpt lat="47.19224" lon="-1.58398">
        <ele>54</ele>
        <time>2022-04-16T13:27:31Z</time>
      </trkpt>
      <trkpt lat="47.19211" lon="-1.58409">
        <ele>54</ele>
        <time>2022-04-16T13:27:33Z</time>
      </trkpt>
      <trkpt lat="47.19199" lon="-1.58421">
        <ele>54</ele>
        <time>2022-04-16T13:27:35Z</time>
      </trkpt>
      <trkpt lat="47.19187" lon="-1.58432">
        <ele>54</ele>
        <time>2022-04-16T13:27:37Z</time>
      </trkpt>
      <trkpt lat="47.19175" lon="-1.58444">
        <ele>54</ele>
        <time>2022-04-16T13:27:39Z</time>
      </trkpt>
      <trkpt lat="47.19164" lon="-1.58454">
        <ele>55</ele>
        <time>2022-04-16T13:27:41Z</time>
      </trkpt>
      <trkpt lat="47.19156" lon="-1.58465">
        <ele>55</ele>
        <time>2022-04-16T13:27:43Z</time>
      </trkpt>
      <trkpt lat="47.19147" lon="-1.58472">
        <ele>55</ele>
        <time>2022-04-16T13:27:46Z</time>
      </trkpt>
      <trkpt lat="47.1914" lon="-1.5848">
        <ele>54</ele>
        <time>2022-04-16T13:27:48Z</time>
      </trkpt>
      <trkpt lat="47.1913" lon="-1.58489">
        <ele>56</ele>
        <time>2022-04-16T13:27:50Z</time>
      </trkpt>
      <trkpt lat="47.19119" lon="-1.58499">
        <ele>56</ele>
        <time>2022-04-16T13:27:52Z</time>
      </trkpt>
      <trkpt lat="47.19109" lon="-1.58509">
        <ele>56</ele>
        <time>2022-04-16T13:27:54Z</time>
      </trkpt>
      <trkpt lat="47.19097" lon="-1.58519">
        <ele>56</ele>
        <time>2022-04-16T13:27:56Z</time>
      </trkpt>
      <trkpt lat="47.19087" lon="-1.5853">
        <ele>56</ele>
        <time>2022-04-16T13:27:58Z</time>
      </trkpt>
      <trkpt lat="47.19076" lon="-1.5854">
        <ele>56</ele>
        <time>2022-04-16T13:28:00Z</time>
      </trkpt>
      <trkpt lat="47.19066" lon="-1.58551">
        <ele>56</ele>
        <time>2022-04-16T13:28:02Z</time>
      </trkpt>
      <trkpt lat="47.19056" lon="-1.58563">
        <ele>56</ele>
        <time>2022-04-16T13:28:04Z</time>
      </trkpt>
      <trkpt lat="47.19046" lon="-1.58573">
        <ele>56</ele>
        <time>2022-04-16T13:28:06Z</time>
      </trkpt>
      <trkpt lat="47.19035" lon="-1.58584">
        <ele>56</ele>
        <time>2022-04-16T13:28:08Z</time>
      </trkpt>
      <trkpt lat="47.19025" lon="-1.58596">
        <ele>55</ele>
        <time>2022-04-16T13:28:10Z</time>
      </trkpt>
      <trkpt lat="47.19015" lon="-1.58606">
        <ele>55</ele>
        <time>2022-04-16T13:28:12Z</time>
      </trkpt>
      <trkpt lat="47.19004" lon="-1.58616">
        <ele>55</ele>
        <time>2022-04-16T13:28:14Z</time>
      </trkpt>
      <trkpt lat="47.18993" lon="-1.58626">
        <ele>55</ele>
        <time>2022-04-16T13:28:16Z</time>
      </trkpt>
      <trkpt lat="47.18983" lon="-1.58636">
        <ele>56</ele>
        <time>2022-04-16T13:28:18Z</time>
      </trkpt>
      <trkpt lat="47.18973" lon="-1.58646">
        <ele>56</ele>
        <time>2022-04-16T13:28:20Z</time>
      </trkpt>
      <trkpt lat="47.18962" lon="-1.58657">
        <ele>56</ele>
        <time>2022-04-16T13:28:22Z</time>
      </trkpt>
      <trkpt lat="47.18952" lon="-1.58667">
        <ele>56</ele>
        <time>2022-04-16T13:28:24Z</time>
      </trkpt>
      <trkpt lat="47.18941" lon="-1.58677">
        <ele>56</ele>
        <time>2022-04-16T13:28:26Z</time>
      </trkpt>
      <trkpt lat="47.18931" lon="-1.58687">
        <ele>56</ele>
        <time>2022-04-16T13:28:28Z</time>
      </trkpt>
      <trkpt lat="47.1892" lon="-1.58696">
        <ele>56</ele>
        <time>2022-04-16T13:28:30Z</time>
      </trkpt>
      <trkpt lat="47.18909" lon="-1.58706">
        <ele>56</ele>
        <time>2022-04-16T13:28:32Z</time>
      </trkpt>
      <trkpt lat="47.18898" lon="-1.58713">
        <ele>56</ele>
        <time>2022-04-16T13:28:34Z</time>
      </trkpt>
      <trkpt lat="47.18887" lon="-1.58721">
        <ele>56</ele>
        <time>2022-04-16T13:28:36Z</time>
      </trkpt>
      <trkpt lat="47.18875" lon="-1.58728">
        <ele>56</ele>
        <time>2022-04-16T13:28:38Z</time>
      </trkpt>
      <trkpt lat="47.18864" lon="-1.58734">
        <ele>56</ele>
        <time>2022-04-16T13:28:40Z</time>
      </trkpt>
      <trkpt lat="47.18853" lon="-1.58738">
        <ele>57</ele>
        <time>2022-04-16T13:28:42Z</time>
      </trkpt>
      <trkpt lat="47.18843" lon="-1.58742">
        <ele>57</ele>
        <time>2022-04-16T13:28:44Z</time>
      </trkpt>
      <trkpt lat="47.18834" lon="-1.58752">
        <ele>57</ele>
        <time>2022-04-16T13:28:46Z</time>
      </trkpt>
      <trkpt lat="47.18831" lon="-1.58768">
        <ele>56</ele>
        <time>2022-04-16T13:28:48Z</time>
      </trkpt>
      <trkpt lat="47.18826" lon="-1.58784">
        <ele>57</ele>
        <time>2022-04-16T13:28:50Z</time>
      </trkpt>
      <trkpt lat="47.18817" lon="-1.58798">
        <ele>57</ele>
        <time>2022-04-16T13:28:52Z</time>
      </trkpt>
      <trkpt lat="47.18807" lon="-1.58808">
        <ele>57</ele>
        <time>2022-04-16T13:28:54Z</time>
      </trkpt>
      <trkpt lat="47.18795" lon="-1.58815">
        <ele>57</ele>
        <time>2022-04-16T13:28:56Z</time>
      </trkpt>
      <trkpt lat="47.18788" lon="-1.58829">
        <ele>58</ele>
        <time>2022-04-16T13:28:58Z</time>
      </trkpt>
      <trkpt lat="47.18784" lon="-1.58847">
        <ele>57</ele>
        <time>2022-04-16T13:29:00Z</time>
      </trkpt>
      <trkpt lat="47.1878" lon="-1.58865">
        <ele>57</ele>
        <time>2022-04-16T13:29:02Z</time>
      </trkpt>
      <trkpt lat="47.18776" lon="-1.58884">
        <ele>57</ele>
        <time>2022-04-16T13:29:04Z</time>
      </trkpt>
      <trkpt lat="47.18774" lon="-1.58904">
        <ele>57</ele>
        <time>2022-04-16T13:29:06Z</time>
      </trkpt>
      <trkpt lat="47.18772" lon="-1.58924">
        <ele>57</ele>
        <time>2022-04-16T13:29:08Z</time>
      </trkpt>
      <trkpt lat="47.18769" lon="-1.58944">
        <ele>57</ele>
        <time>2022-04-16T13:29:10Z</time>
      </trkpt>
      <trkpt lat="47.18767" lon="-1.58964">
        <ele>58</ele>
        <time>2022-04-16T13:29:12Z</time>
      </trkpt>
      <trkpt lat="47.18764" lon="-1.58984">
        <ele>58</ele>
        <time>2022-04-16T13:29:14Z</time>
      </trkpt>
      <trkpt lat="47.18762" lon="-1.59004">
        <ele>58</ele>
        <time>2022-04-16T13:29:16Z</time>
      </trkpt>
      <trkpt lat="47.1876" lon="-1.59025">
        <ele>59</ele>
        <time>2022-04-16T13:29:18Z</time>
      </trkpt>
      <trkpt lat="47.18758" lon="-1.59044">
        <ele>58</ele>
        <time>2022-04-16T13:29:20Z</time>
      </trkpt>
      <trkpt lat="47.18756" lon="-1.59064">
        <ele>58</ele>
        <time>2022-04-16T13:29:22Z</time>
      </trkpt>
      <trkpt lat="47.18754" lon="-1.59084">
        <ele>58</ele>
        <time>2022-04-16T13:29:24Z</time>
      </trkpt>
      <trkpt lat="47.18752" lon="-1.59103">
        <ele>58</ele>
        <time>2022-04-16T13:29:26Z</time>
      </trkpt>
      <trkpt lat="47.18749" lon="-1.59124">
        <ele>58</ele>
        <time>2022-04-16T13:29:28Z</time>
      </trkpt>
      <trkpt lat="47.18747" lon="-1.59144">
        <ele>58</ele>
        <time>2022-04-16T13:29:30Z</time>
      </trkpt>
      <trkpt lat="47.18745" lon="-1.59164">
        <ele>58</ele>
        <time>2022-04-16T13:29:32Z</time>
      </trkpt>
      <trkpt lat="47.18743" lon="-1.59184">
        <ele>58</ele>
        <time>2022-04-16T13:29:34Z</time>
      </trkpt>
      <trkpt lat="47.18741" lon="-1.59205">
        <ele>58</ele>
        <time>2022-04-16T13:29:36Z</time>
      </trkpt>
      <trkpt lat="47.18739" lon="-1.59226">
        <ele>58</ele>
        <time>2022-04-16T13:29:38Z</time>
      </trkpt>
      <trkpt lat="47.18736" lon="-1.59247">
        <ele>58</ele>
        <time>2022-04-16T13:29:40Z</time>
      </trkpt>
      <trkpt lat="47.18734" lon="-1.59268">
        <ele>58</ele>
        <time>2022-04-16T13:29:42Z</time>
      </trkpt>
      <trkpt lat="47.18731" lon="-1.5929">
        <ele>57</ele>
        <time>2022-04-16T13:29:44Z</time>
      </trkpt>
      <trkpt lat="47.18729" lon="-1.59312">
        <ele>57</ele>
        <time>2022-04-16T13:29:46Z</time>
      </trkpt>
      <trkpt lat="47.18726" lon="-1.59333">
        <ele>58</ele>
        <time>2022-04-16T13:29:48Z</time>
      </trkpt>
      <trkpt lat="47.18724" lon="-1.59354">
        <ele>58</ele>
        <time>2022-04-16T13:29:50Z</time>
      </trkpt>
      <trkpt lat="47.18722" lon="-1.59376">
        <ele>57</ele>
        <time>2022-04-16T13:29:52Z</time>
      </trkpt>
      <trkpt lat="47.18719" lon="-1.59398">
        <ele>57</ele>
        <time>2022-04-16T13:29:54Z</time>
      </trkpt>
      <trkpt lat="47.18717" lon="-1.59419">
        <ele>57</ele>
        <time>2022-04-16T13:29:56Z</time>
      </trkpt>
      <trkpt lat="47.18715" lon="-1.5944">
        <ele>57</ele>
        <time>2022-04-16T13:29:58Z</time>
      </trkpt>
      <trkpt lat="47.18713" lon="-1.59463">
        <ele>58</ele>
        <time>2022-04-16T13:30:00Z</time>
      </trkpt>
      <trkpt lat="47.1871" lon="-1.59484">
        <ele>58</ele>
        <time>2022-04-16T13:30:02Z</time>
      </trkpt>
      <trkpt lat="47.18708" lon="-1.59506">
        <ele>58</ele>
        <time>2022-04-16T13:30:04Z</time>
      </trkpt>
      <trkpt lat="47.18705" lon="-1.59528">
        <ele>58</ele>
        <time>2022-04-16T13:30:06Z</time>
      </trkpt>
      <trkpt lat="47.18703" lon="-1.5955">
        <ele>58</ele>
        <time>2022-04-16T13:30:08Z</time>
      </trkpt>
      <trkpt lat="47.18701" lon="-1.59571">
        <ele>58</ele>
        <time>2022-04-16T13:30:10Z</time>
      </trkpt>
      <trkpt lat="47.18698" lon="-1.59592">
        <ele>58</ele>
        <time>2022-04-16T13:30:12Z</time>
      </trkpt>
      <trkpt lat="47.18696" lon="-1.59613">
        <ele>58</ele>
        <time>2022-04-16T13:30:14Z</time>
      </trkpt>
      <trkpt lat="47.18693" lon="-1.59634">
        <ele>58</ele>
        <time>2022-04-16T13:30:16Z</time>
      </trkpt>
      <trkpt lat="47.1869" lon="-1.59655">
        <ele>58</ele>
        <time>2022-04-16T13:30:18Z</time>
      </trkpt>
      <trkpt lat="47.18688" lon="-1.59676">
        <ele>58</ele>
        <time>2022-04-16T13:30:20Z</time>
      </trkpt>
      <trkpt lat="47.18685" lon="-1.59696">
        <ele>58</ele>
        <time>2022-04-16T13:30:22Z</time>
      </trkpt>
      <trkpt lat="47.18683" lon="-1.59716">
        <ele>58</ele>
        <time>2022-04-16T13:30:24Z</time>
      </trkpt>
      <trkpt lat="47.18683" lon="-1.59736">
        <ele>58</ele>
        <time>2022-04-16T13:30:26Z</time>
      </trkpt>
      <trkpt lat="47.18683" lon="-1.59755">
        <ele>58</ele>
        <time>2022-04-16T13:30:28Z</time>
      </trkpt>
      <trkpt lat="47.18683" lon="-1.59788">
        <ele>58</ele>
        <time>2022-04-16T13:30:31Z</time>
      </trkpt>
      <trkpt lat="47.18683" lon="-1.59814">
        <ele>58</ele>
        <time>2022-04-16T13:30:33Z</time>
      </trkpt>
      <trkpt lat="47.18678" lon="-1.59827">
        <ele>58</ele>
        <time>2022-04-16T13:30:34Z</time>
      </trkpt>
      <trkpt lat="47.18671" lon="-1.59837">
        <ele>58</ele>
        <time>2022-04-16T13:30:35Z</time>
      </trkpt>
      <trkpt lat="47.18663" lon="-1.59843">
        <ele>58</ele>
        <time>2022-04-16T13:30:36Z</time>
      </trkpt>
      <trkpt lat="47.18644" lon="-1.59842">
        <ele>58</ele>
        <time>2022-04-16T13:30:38Z</time>
      </trkpt>
      <trkpt lat="47.18623" lon="-1.5983">
        <ele>56</ele>
        <time>2022-04-16T13:30:41Z</time>
      </trkpt>
      <trkpt lat="47.18615" lon="-1.59842">
        <ele>56</ele>
        <time>2022-04-16T13:30:43Z</time>
      </trkpt>
      <trkpt lat="47.1862" lon="-1.59858">
        <ele>56</ele>
        <time>2022-04-16T13:30:45Z</time>
      </trkpt>
      <trkpt lat="47.18621" lon="-1.59877">
        <ele>57</ele>
        <time>2022-04-16T13:30:47Z</time>
      </trkpt>
      <trkpt lat="47.18617" lon="-1.59897">
        <ele>57</ele>
        <time>2022-04-16T13:30:49Z</time>
      </trkpt>
      <trkpt lat="47.18612" lon="-1.59916">
        <ele>57</ele>
        <time>2022-04-16T13:30:51Z</time>
      </trkpt>
      <trkpt lat="47.18606" lon="-1.59934">
        <ele>57</ele>
        <time>2022-04-16T13:30:53Z</time>
      </trkpt>
      <trkpt lat="47.18601" lon="-1.59952">
        <ele>56</ele>
        <time>2022-04-16T13:30:55Z</time>
      </trkpt>
      <trkpt lat="47.18596" lon="-1.5997">
        <ele>57</ele>
        <time>2022-04-16T13:30:57Z</time>
      </trkpt>
      <trkpt lat="47.1859" lon="-1.59987">
        <ele>56</ele>
        <time>2022-04-16T13:30:59Z</time>
      </trkpt>
      <trkpt lat="47.18584" lon="-1.60006">
        <ele>56</ele>
        <time>2022-04-16T13:31:01Z</time>
      </trkpt>
      <trkpt lat="47.18578" lon="-1.60022">
        <ele>56</ele>
        <time>2022-04-16T13:31:03Z</time>
      </trkpt>
      <trkpt lat="47.18573" lon="-1.6004">
        <ele>56</ele>
        <time>2022-04-16T13:31:05Z</time>
      </trkpt>
      <trkpt lat="47.18566" lon="-1.60056">
        <ele>56</ele>
        <time>2022-04-16T13:31:07Z</time>
      </trkpt>
      <trkpt lat="47.1856" lon="-1.60074">
        <ele>56</ele>
        <time>2022-04-16T13:31:09Z</time>
      </trkpt>
      <trkpt lat="47.18553" lon="-1.6009">
        <ele>56</ele>
        <time>2022-04-16T13:31:11Z</time>
      </trkpt>
      <trkpt lat="47.18546" lon="-1.60107">
        <ele>56</ele>
        <time>2022-04-16T13:31:13Z</time>
      </trkpt>
      <trkpt lat="47.18539" lon="-1.60124">
        <ele>56</ele>
        <time>2022-04-16T13:31:15Z</time>
      </trkpt>
      <trkpt lat="47.18532" lon="-1.6014">
        <ele>56</ele>
        <time>2022-04-16T13:31:17Z</time>
      </trkpt>
      <trkpt lat="47.18524" lon="-1.60156">
        <ele>56</ele>
        <time>2022-04-16T13:31:19Z</time>
      </trkpt>
      <trkpt lat="47.18516" lon="-1.60172">
        <ele>56</ele>
        <time>2022-04-16T13:31:21Z</time>
      </trkpt>
      <trkpt lat="47.18508" lon="-1.60189">
        <ele>56</ele>
        <time>2022-04-16T13:31:23Z</time>
      </trkpt>
      <trkpt lat="47.185" lon="-1.60205">
        <ele>55</ele>
        <time>2022-04-16T13:31:25Z</time>
      </trkpt>
      <trkpt lat="47.18492" lon="-1.60221">
        <ele>55</ele>
        <time>2022-04-16T13:31:27Z</time>
      </trkpt>
      <trkpt lat="47.18484" lon="-1.60237">
        <ele>55</ele>
        <time>2022-04-16T13:31:29Z</time>
      </trkpt>
      <trkpt lat="47.18476" lon="-1.60252">
        <ele>55</ele>
        <time>2022-04-16T13:31:31Z</time>
      </trkpt>
      <trkpt lat="47.18468" lon="-1.60267">
        <ele>55</ele>
        <time>2022-04-16T13:31:33Z</time>
      </trkpt>
      <trkpt lat="47.1846" lon="-1.60282">
        <ele>55</ele>
        <time>2022-04-16T13:31:35Z</time>
      </trkpt>
      <trkpt lat="47.18451" lon="-1.60297">
        <ele>55</ele>
        <time>2022-04-16T13:31:37Z</time>
      </trkpt>
      <trkpt lat="47.18442" lon="-1.60311">
        <ele>55</ele>
        <time>2022-04-16T13:31:39Z</time>
      </trkpt>
      <trkpt lat="47.18433" lon="-1.60326">
        <ele>55</ele>
        <time>2022-04-16T13:31:41Z</time>
      </trkpt>
      <trkpt lat="47.18424" lon="-1.6034">
        <ele>55</ele>
        <time>2022-04-16T13:31:43Z</time>
      </trkpt>
      <trkpt lat="47.18415" lon="-1.60354">
        <ele>55</ele>
        <time>2022-04-16T13:31:45Z</time>
      </trkpt>
      <trkpt lat="47.18405" lon="-1.60367">
        <ele>55</ele>
        <time>2022-04-16T13:31:47Z</time>
      </trkpt>
      <trkpt lat="47.18395" lon="-1.60381">
        <ele>55</ele>
        <time>2022-04-16T13:31:49Z</time>
      </trkpt>
      <trkpt lat="47.18385" lon="-1.60394">
        <ele>55</ele>
        <time>2022-04-16T13:31:51Z</time>
      </trkpt>
      <trkpt lat="47.18375" lon="-1.60407">
        <ele>55</ele>
        <time>2022-04-16T13:31:53Z</time>
      </trkpt>
      <trkpt lat="47.18365" lon="-1.6042">
        <ele>55</ele>
        <time>2022-04-16T13:31:55Z</time>
      </trkpt>
      <trkpt lat="47.18355" lon="-1.60433">
        <ele>54</ele>
        <time>2022-04-16T13:31:57Z</time>
      </trkpt>
      <trkpt lat="47.18345" lon="-1.60446">
        <ele>54</ele>
        <time>2022-04-16T13:31:59Z</time>
      </trkpt>
      <trkpt lat="47.18334" lon="-1.60459">
        <ele>54</ele>
        <time>2022-04-16T13:32:01Z</time>
      </trkpt>
      <trkpt lat="47.18324" lon="-1.60471">
        <ele>54</ele>
        <time>2022-04-16T13:32:03Z</time>
      </trkpt>
      <trkpt lat="47.18313" lon="-1.60483">
        <ele>54</ele>
        <time>2022-04-16T13:32:05Z</time>
      </trkpt>
      <trkpt lat="47.18303" lon="-1.60495">
        <ele>55</ele>
        <time>2022-04-16T13:32:07Z</time>
      </trkpt>
      <trkpt lat="47.18292" lon="-1.60506">
        <ele>55</ele>
        <time>2022-04-16T13:32:09Z</time>
      </trkpt>
      <trkpt lat="47.18281" lon="-1.60517">
        <ele>55</ele>
        <time>2022-04-16T13:32:11Z</time>
      </trkpt>
      <trkpt lat="47.1827" lon="-1.60529">
        <ele>54</ele>
        <time>2022-04-16T13:32:13Z</time>
      </trkpt>
      <trkpt lat="47.18258" lon="-1.6054">
        <ele>55</ele>
        <time>2022-04-16T13:32:15Z</time>
      </trkpt>
      <trkpt lat="47.18247" lon="-1.60549">
        <ele>55</ele>
        <time>2022-04-16T13:32:17Z</time>
      </trkpt>
      <trkpt lat="47.18235" lon="-1.60557">
        <ele>55</ele>
        <time>2022-04-16T13:32:19Z</time>
      </trkpt>
      <trkpt lat="47.18223" lon="-1.60564">
        <ele>55</ele>
        <time>2022-04-16T13:32:21Z</time>
      </trkpt>
      <trkpt lat="47.18212" lon="-1.60571">
        <ele>55</ele>
        <time>2022-04-16T13:32:23Z</time>
      </trkpt>
      <trkpt lat="47.18201" lon="-1.60575">
        <ele>55</ele>
        <time>2022-04-16T13:32:25Z</time>
      </trkpt>
      <trkpt lat="47.18192" lon="-1.6058">
        <ele>56</ele>
        <time>2022-04-16T13:32:27Z</time>
      </trkpt>
      <trkpt lat="47.1819" lon="-1.60594">
        <ele>56</ele>
        <time>2022-04-16T13:32:29Z</time>
      </trkpt>
      <trkpt lat="47.18182" lon="-1.60602">
        <ele>56</ele>
        <time>2022-04-16T13:32:31Z</time>
      </trkpt>
      <trkpt lat="47.1817" lon="-1.60603">
        <ele>55</ele>
        <time>2022-04-16T13:32:33Z</time>
      </trkpt>
      <trkpt lat="47.18157" lon="-1.60604">
        <ele>55</ele>
        <time>2022-04-16T13:32:35Z</time>
      </trkpt>
      <trkpt lat="47.18144" lon="-1.60603">
        <ele>55</ele>
        <time>2022-04-16T13:32:37Z</time>
      </trkpt>
      <trkpt lat="47.18131" lon="-1.606">
        <ele>54</ele>
        <time>2022-04-16T13:32:39Z</time>
      </trkpt>
      <trkpt lat="47.18118" lon="-1.60596">
        <ele>54</ele>
        <time>2022-04-16T13:32:41Z</time>
      </trkpt>
      <trkpt lat="47.18104" lon="-1.60592">
        <ele>54</ele>
        <time>2022-04-16T13:32:43Z</time>
      </trkpt>
      <trkpt lat="47.18091" lon="-1.60586">
        <ele>54</ele>
        <time>2022-04-16T13:32:45Z</time>
      </trkpt>
      <trkpt lat="47.18078" lon="-1.6058">
        <ele>54</ele>
        <time>2022-04-16T13:32:47Z</time>
      </trkpt>
      <trkpt lat="47.18065" lon="-1.60573">
        <ele>54</ele>
        <time>2022-04-16T13:32:49Z</time>
      </trkpt>
      <trkpt lat="47.18053" lon="-1.60566">
        <ele>54</ele>
        <time>2022-04-16T13:32:51Z</time>
      </trkpt>
      <trkpt lat="47.1804" lon="-1.60559">
        <ele>54</ele>
        <time>2022-04-16T13:32:53Z</time>
      </trkpt>
      <trkpt lat="47.18028" lon="-1.60554">
        <ele>53</ele>
        <time>2022-04-16T13:32:55Z</time>
      </trkpt>
      <trkpt lat="47.18014" lon="-1.60554">
        <ele>53</ele>
        <time>2022-04-16T13:32:57Z</time>
      </trkpt>
      <trkpt lat="47.18" lon="-1.60557">
        <ele>52</ele>
        <time>2022-04-16T13:32:59Z</time>
      </trkpt>
      <trkpt lat="47.17987" lon="-1.60562">
        <ele>53</ele>
        <time>2022-04-16T13:33:01Z</time>
      </trkpt>
      <trkpt lat="47.17975" lon="-1.60567">
        <ele>53</ele>
        <time>2022-04-16T13:33:03Z</time>
      </trkpt>
      <trkpt lat="47.17963" lon="-1.60572">
        <ele>54</ele>
        <time>2022-04-16T13:33:05Z</time>
      </trkpt>
      <trkpt lat="47.17952" lon="-1.60579">
        <ele>54</ele>
        <time>2022-04-16T13:33:07Z</time>
      </trkpt>
      <trkpt lat="47.17939" lon="-1.60585">
        <ele>54</ele>
        <time>2022-04-16T13:33:09Z</time>
      </trkpt>
      <trkpt lat="47.1793" lon="-1.60587">
        <ele>55</ele>
        <time>2022-04-16T13:33:11Z</time>
      </trkpt>
      <trkpt lat="47.1792" lon="-1.60588">
        <ele>56</ele>
        <time>2022-04-16T13:33:15Z</time>
      </trkpt>
      <trkpt lat="47.17909" lon="-1.60592">
        <ele>56</ele>
        <time>2022-04-16T13:33:18Z</time>
      </trkpt>
      <trkpt lat="47.17904" lon="-1.60606">
        <ele>56</ele>
        <time>2022-04-16T13:33:20Z</time>
      </trkpt>
      <trkpt lat="47.17901" lon="-1.60623">
        <ele>56</ele>
        <time>2022-04-16T13:33:22Z</time>
      </trkpt>
      <trkpt lat="47.17896" lon="-1.60641">
        <ele>56</ele>
        <time>2022-04-16T13:33:24Z</time>
      </trkpt>
      <trkpt lat="47.17889" lon="-1.6066">
        <ele>56</ele>
        <time>2022-04-16T13:33:26Z</time>
      </trkpt>
      <trkpt lat="47.17883" lon="-1.60679">
        <ele>55</ele>
        <time>2022-04-16T13:33:28Z</time>
      </trkpt>
      <trkpt lat="47.17877" lon="-1.60697">
        <ele>55</ele>
        <time>2022-04-16T13:33:30Z</time>
      </trkpt>
      <trkpt lat="47.17872" lon="-1.60716">
        <ele>55</ele>
        <time>2022-04-16T13:33:32Z</time>
      </trkpt>
      <trkpt lat="47.17868" lon="-1.60736">
        <ele>55</ele>
        <time>2022-04-16T13:33:34Z</time>
      </trkpt>
      <trkpt lat="47.17863" lon="-1.60755">
        <ele>55</ele>
        <time>2022-04-16T13:33:36Z</time>
      </trkpt>
      <trkpt lat="47.17859" lon="-1.60774">
        <ele>55</ele>
        <time>2022-04-16T13:33:38Z</time>
      </trkpt>
      <trkpt lat="47.17854" lon="-1.60792">
        <ele>55</ele>
        <time>2022-04-16T13:33:40Z</time>
      </trkpt>
      <trkpt lat="47.1785" lon="-1.60811">
        <ele>55</ele>
        <time>2022-04-16T13:33:42Z</time>
      </trkpt>
      <trkpt lat="47.17845" lon="-1.60829">
        <ele>55</ele>
        <time>2022-04-16T13:33:44Z</time>
      </trkpt>
      <trkpt lat="47.17839" lon="-1.60847">
        <ele>55</ele>
        <time>2022-04-16T13:33:46Z</time>
      </trkpt>
      <trkpt lat="47.1783" lon="-1.60863">
        <ele>55</ele>
        <time>2022-04-16T13:33:48Z</time>
      </trkpt>
      <trkpt lat="47.17821" lon="-1.60878">
        <ele>55</ele>
        <time>2022-04-16T13:33:50Z</time>
      </trkpt>
      <trkpt lat="47.17811" lon="-1.6089">
        <ele>55</ele>
        <time>2022-04-16T13:33:52Z</time>
      </trkpt>
      <trkpt lat="47.178" lon="-1.609">
        <ele>55</ele>
        <time>2022-04-16T13:33:54Z</time>
      </trkpt>
      <trkpt lat="47.17788" lon="-1.60908">
        <ele>55</ele>
        <time>2022-04-16T13:33:56Z</time>
      </trkpt>
      <trkpt lat="47.17776" lon="-1.60916">
        <ele>55</ele>
        <time>2022-04-16T13:33:58Z</time>
      </trkpt>
      <trkpt lat="47.17765" lon="-1.60926">
        <ele>55</ele>
        <time>2022-04-16T13:34:00Z</time>
      </trkpt>
      <trkpt lat="47.17754" lon="-1.60935">
        <ele>55</ele>
        <time>2022-04-16T13:34:02Z</time>
      </trkpt>
      <trkpt lat="47.17743" lon="-1.60943">
        <ele>55</ele>
        <time>2022-04-16T13:34:04Z</time>
      </trkpt>
      <trkpt lat="47.17731" lon="-1.60952">
        <ele>55</ele>
        <time>2022-04-16T13:34:06Z</time>
      </trkpt>
      <trkpt lat="47.17719" lon="-1.60959">
        <ele>55</ele>
        <time>2022-04-16T13:34:08Z</time>
      </trkpt>
      <trkpt lat="47.17707" lon="-1.60967">
        <ele>55</ele>
        <time>2022-04-16T13:34:10Z</time>
      </trkpt>
      <trkpt lat="47.17695" lon="-1.60972">
        <ele>54</ele>
        <time>2022-04-16T13:34:12Z</time>
      </trkpt>
      <trkpt lat="47.17682" lon="-1.60972">
        <ele>54</ele>
        <time>2022-04-16T13:34:14Z</time>
      </trkpt>
      <trkpt lat="47.17668" lon="-1.60971">
        <ele>53</ele>
        <time>2022-04-16T13:34:16Z</time>
      </trkpt>
      <trkpt lat="47.17655" lon="-1.60976">
        <ele>53</ele>
        <time>2022-04-16T13:34:18Z</time>
      </trkpt>
      <trkpt lat="47.17644" lon="-1.60985">
        <ele>53</ele>
        <time>2022-04-16T13:34:20Z</time>
      </trkpt>
      <trkpt lat="47.17633" lon="-1.60995">
        <ele>53</ele>
        <time>2022-04-16T13:34:22Z</time>
      </trkpt>
      <trkpt lat="47.17622" lon="-1.61005">
        <ele>53</ele>
        <time>2022-04-16T13:34:24Z</time>
      </trkpt>
      <trkpt lat="47.17611" lon="-1.61015">
        <ele>53</ele>
        <time>2022-04-16T13:34:26Z</time>
      </trkpt>
      <trkpt lat="47.176" lon="-1.61025">
        <ele>53</ele>
        <time>2022-04-16T13:34:28Z</time>
      </trkpt>
      <trkpt lat="47.17589" lon="-1.61035">
        <ele>53</ele>
        <time>2022-04-16T13:34:30Z</time>
      </trkpt>
      <trkpt lat="47.17578" lon="-1.61044">
        <ele>53</ele>
        <time>2022-04-16T13:34:32Z</time>
      </trkpt>
      <trkpt lat="47.17567" lon="-1.61054">
        <ele>53</ele>
        <time>2022-04-16T13:34:34Z</time>
      </trkpt>
      <trkpt lat="47.17556" lon="-1.61063">
        <ele>53</ele>
        <time>2022-04-16T13:34:36Z</time>
      </trkpt>
      <trkpt lat="47.17545" lon="-1.61073">
        <ele>53</ele>
        <time>2022-04-16T13:34:38Z</time>
      </trkpt>
      <trkpt lat="47.17534" lon="-1.61082">
        <ele>53</ele>
        <time>2022-04-16T13:34:40Z</time>
      </trkpt>
      <trkpt lat="47.17522" lon="-1.61092">
        <ele>54</ele>
        <time>2022-04-16T13:34:42Z</time>
      </trkpt>
      <trkpt lat="47.17511" lon="-1.61101">
        <ele>55</ele>
        <time>2022-04-16T13:34:44Z</time>
      </trkpt>
      <trkpt lat="47.17499" lon="-1.61105">
        <ele>55</ele>
        <time>2022-04-16T13:34:46Z</time>
      </trkpt>
      <trkpt lat="47.17487" lon="-1.61106">
        <ele>55</ele>
        <time>2022-04-16T13:34:48Z</time>
      </trkpt>
      <trkpt lat="47.17475" lon="-1.61103">
        <ele>56</ele>
        <time>2022-04-16T13:34:50Z</time>
      </trkpt>
      <trkpt lat="47.17464" lon="-1.61095">
        <ele>56</ele>
        <time>2022-04-16T13:34:52Z</time>
      </trkpt>
      <trkpt lat="47.17456" lon="-1.61085">
        <ele>56</ele>
        <time>2022-04-16T13:34:54Z</time>
      </trkpt>
      <trkpt lat="47.17448" lon="-1.61075">
        <ele>57</ele>
        <time>2022-04-16T13:34:56Z</time>
      </trkpt>
      <trkpt lat="47.17442" lon="-1.61063">
        <ele>57</ele>
        <time>2022-04-16T13:34:58Z</time>
      </trkpt>
      <trkpt lat="47.17436" lon="-1.61049">
        <ele>58</ele>
        <time>2022-04-16T13:35:00Z</time>
      </trkpt>
      <trkpt lat="47.17432" lon="-1.61036">
        <ele>58</ele>
        <time>2022-04-16T13:35:02Z</time>
      </trkpt>
      <trkpt lat="47.17426" lon="-1.6102">
        <ele>58</ele>
        <time>2022-04-16T13:35:05Z</time>
      </trkpt>
      <trkpt lat="47.17422" lon="-1.61036">
        <ele>58</ele>
        <time>2022-04-16T13:35:09Z</time>
      </trkpt>
      <trkpt lat="47.17424" lon="-1.6105">
        <ele>58</ele>
        <time>2022-04-16T13:35:11Z</time>
      </trkpt>
      <trkpt lat="47.17429" lon="-1.61064">
        <ele>59</ele>
        <time>2022-04-16T13:35:13Z</time>
      </trkpt>
      <trkpt lat="47.17435" lon="-1.61077">
        <ele>59</ele>
        <time>2022-04-16T13:35:15Z</time>
      </trkpt>
      <trkpt lat="47.17441" lon="-1.61092">
        <ele>59</ele>
        <time>2022-04-16T13:35:17Z</time>
      </trkpt>
      <trkpt lat="47.17447" lon="-1.61107">
        <ele>60</ele>
        <time>2022-04-16T13:35:19Z</time>
      </trkpt>
      <trkpt lat="47.17453" lon="-1.61121">
        <ele>60</ele>
        <time>2022-04-16T13:35:21Z</time>
      </trkpt>
      <trkpt lat="47.17458" lon="-1.61134">
        <ele>61</ele>
        <time>2022-04-16T13:35:23Z</time>
      </trkpt>
      <trkpt lat="47.17464" lon="-1.61147">
        <ele>61</ele>
        <time>2022-04-16T13:35:25Z</time>
      </trkpt>
      <trkpt lat="47.17469" lon="-1.61161">
        <ele>61</ele>
        <time>2022-04-16T13:35:27Z</time>
      </trkpt>
      <trkpt lat="47.17475" lon="-1.61174">
        <ele>62</ele>
        <time>2022-04-16T13:35:29Z</time>
      </trkpt>
      <trkpt lat="47.1748" lon="-1.61188">
        <ele>62</ele>
        <time>2022-04-16T13:35:31Z</time>
      </trkpt>
      <trkpt lat="47.17486" lon="-1.61203">
        <ele>62</ele>
        <time>2022-04-16T13:35:33Z</time>
      </trkpt>
      <trkpt lat="47.17492" lon="-1.61217">
        <ele>62</ele>
        <time>2022-04-16T13:35:35Z</time>
      </trkpt>
      <trkpt lat="47.17498" lon="-1.61231">
        <ele>62</ele>
        <time>2022-04-16T13:35:37Z</time>
      </trkpt>
      <trkpt lat="47.17504" lon="-1.61246">
        <ele>62</ele>
        <time>2022-04-16T13:35:39Z</time>
      </trkpt>
      <trkpt lat="47.17511" lon="-1.61259">
        <ele>62</ele>
        <time>2022-04-16T13:35:41Z</time>
      </trkpt>
      <trkpt lat="47.17519" lon="-1.61272">
        <ele>62</ele>
        <time>2022-04-16T13:35:43Z</time>
      </trkpt>
      <trkpt lat="47.17528" lon="-1.61282">
        <ele>62</ele>
        <time>2022-04-16T13:35:45Z</time>
      </trkpt>
      <trkpt lat="47.17539" lon="-1.61286">
        <ele>63</ele>
        <time>2022-04-16T13:35:47Z</time>
      </trkpt>
      <trkpt lat="47.17551" lon="-1.6129">
        <ele>62</ele>
        <time>2022-04-16T13:35:49Z</time>
      </trkpt>
      <trkpt lat="47.17559" lon="-1.61304">
        <ele>62</ele>
        <time>2022-04-16T13:35:51Z</time>
      </trkpt>
      <trkpt lat="47.17561" lon="-1.61322">
        <ele>62</ele>
        <time>2022-04-16T13:35:53Z</time>
      </trkpt>
      <trkpt lat="47.17558" lon="-1.6134">
        <ele>62</ele>
        <time>2022-04-16T13:35:55Z</time>
      </trkpt>
      <trkpt lat="47.17548" lon="-1.61354">
        <ele>61</ele>
        <time>2022-04-16T13:35:57Z</time>
      </trkpt>
      <trkpt lat="47.17536" lon="-1.61364">
        <ele>61</ele>
        <time>2022-04-16T13:35:59Z</time>
      </trkpt>
      <trkpt lat="47.17529" lon="-1.61381">
        <ele>61</ele>
        <time>2022-04-16T13:36:01Z</time>
      </trkpt>
      <trkpt lat="47.17524" lon="-1.61397">
        <ele>62</ele>
        <time>2022-04-16T13:36:03Z</time>
      </trkpt>
      <trkpt lat="47.1752" lon="-1.61414">
        <ele>63</ele>
        <time>2022-04-16T13:36:05Z</time>
      </trkpt>
      <trkpt lat="47.17517" lon="-1.6143">
        <ele>63</ele>
        <time>2022-04-16T13:36:07Z</time>
      </trkpt>
      <trkpt lat="47.17515" lon="-1.61444">
        <ele>65</ele>
        <time>2022-04-16T13:36:09Z</time>
      </trkpt>
      <trkpt lat="47.17509" lon="-1.61458">
        <ele>66</ele>
        <time>2022-04-16T13:36:11Z</time>
      </trkpt>
      <trkpt lat="47.17498" lon="-1.61465">
        <ele>66</ele>
        <time>2022-04-16T13:36:13Z</time>
      </trkpt>
      <trkpt lat="47.17487" lon="-1.61469">
        <ele>67</ele>
        <time>2022-04-16T13:36:15Z</time>
      </trkpt>
      <trkpt lat="47.17475" lon="-1.61473">
        <ele>68</ele>
        <time>2022-04-16T13:36:17Z</time>
      </trkpt>
      <trkpt lat="47.17465" lon="-1.61478">
        <ele>68</ele>
        <time>2022-04-16T13:36:19Z</time>
      </trkpt>
      <trkpt lat="47.17454" lon="-1.61483">
        <ele>68</ele>
        <time>2022-04-16T13:36:21Z</time>
      </trkpt>
      <trkpt lat="47.17443" lon="-1.61489">
        <ele>69</ele>
        <time>2022-04-16T13:36:23Z</time>
      </trkpt>
      <trkpt lat="47.17433" lon="-1.61495">
        <ele>69</ele>
        <time>2022-04-16T13:36:25Z</time>
      </trkpt>
      <trkpt lat="47.17424" lon="-1.61502">
        <ele>69</ele>
        <time>2022-04-16T13:36:27Z</time>
      </trkpt>
      <trkpt lat="47.17414" lon="-1.61509">
        <ele>69</ele>
        <time>2022-04-16T13:36:29Z</time>
      </trkpt>
      <trkpt lat="47.17404" lon="-1.61516">
        <ele>70</ele>
        <time>2022-04-16T13:36:31Z</time>
      </trkpt>
      <trkpt lat="47.17394" lon="-1.61523">
        <ele>70</ele>
        <time>2022-04-16T13:36:33Z</time>
      </trkpt>
      <trkpt lat="47.17385" lon="-1.61531">
        <ele>71</ele>
        <time>2022-04-16T13:36:35Z</time>
      </trkpt>
      <trkpt lat="47.17375" lon="-1.6154">
        <ele>72</ele>
        <time>2022-04-16T13:36:37Z</time>
      </trkpt>
      <trkpt lat="47.17367" lon="-1.61549">
        <ele>72</ele>
        <time>2022-04-16T13:36:39Z</time>
      </trkpt>
      <trkpt lat="47.17358" lon="-1.61558">
        <ele>73</ele>
        <time>2022-04-16T13:36:41Z</time>
      </trkpt>
      <trkpt lat="47.17351" lon="-1.61568">
        <ele>73</ele>
        <time>2022-04-16T13:36:43Z</time>
      </trkpt>
      <trkpt lat="47.17343" lon="-1.61578">
        <ele>73</ele>
        <time>2022-04-16T13:36:45Z</time>
      </trkpt>
      <trkpt lat="47.17335" lon="-1.61588">
        <ele>73</ele>
        <time>2022-04-16T13:36:47Z</time>
      </trkpt>
      <trkpt lat="47.17326" lon="-1.61597">
        <ele>72</ele>
        <time>2022-04-16T13:36:49Z</time>
      </trkpt>
      <trkpt lat="47.17318" lon="-1.61608">
        <ele>73</ele>
        <time>2022-04-16T13:36:51Z</time>
      </trkpt>
      <trkpt lat="47.1731" lon="-1.6162">
        <ele>72</ele>
        <time>2022-04-16T13:36:53Z</time>
      </trkpt>
      <trkpt lat="47.17302" lon="-1.61632">
        <ele>72</ele>
        <time>2022-04-16T13:36:55Z</time>
      </trkpt>
      <trkpt lat="47.17295" lon="-1.61646">
        <ele>72</ele>
        <time>2022-04-16T13:36:57Z</time>
      </trkpt>
      <trkpt lat="47.17288" lon="-1.6166">
        <ele>72</ele>
        <time>2022-04-16T13:36:59Z</time>
      </trkpt>
      <trkpt lat="47.1728" lon="-1.61674">
        <ele>72</ele>
        <time>2022-04-16T13:37:01Z</time>
      </trkpt>
      <trkpt lat="47.17274" lon="-1.61688">
        <ele>72</ele>
        <time>2022-04-16T13:37:03Z</time>
      </trkpt>
      <trkpt lat="47.17266" lon="-1.61702">
        <ele>72</ele>
        <time>2022-04-16T13:37:05Z</time>
      </trkpt>
      <trkpt lat="47.17259" lon="-1.61717">
        <ele>72</ele>
        <time>2022-04-16T13:37:07Z</time>
      </trkpt>
      <trkpt lat="47.17252" lon="-1.61731">
        <ele>72</ele>
        <time>2022-04-16T13:37:09Z</time>
      </trkpt>
      <trkpt lat="47.17247" lon="-1.61748">
        <ele>72</ele>
        <time>2022-04-16T13:37:11Z</time>
      </trkpt>
      <trkpt lat="47.17244" lon="-1.61765">
        <ele>72</ele>
        <time>2022-04-16T13:37:13Z</time>
      </trkpt>
      <trkpt lat="47.17238" lon="-1.6178">
        <ele>71</ele>
        <time>2022-04-16T13:37:15Z</time>
      </trkpt>
      <trkpt lat="47.17228" lon="-1.6179">
        <ele>72</ele>
        <time>2022-04-16T13:37:17Z</time>
      </trkpt>
      <trkpt lat="47.17217" lon="-1.618">
        <ele>72</ele>
        <time>2022-04-16T13:37:19Z</time>
      </trkpt>
      <trkpt lat="47.17206" lon="-1.61809">
        <ele>72</ele>
        <time>2022-04-16T13:37:21Z</time>
      </trkpt>
      <trkpt lat="47.17195" lon="-1.61819">
        <ele>72</ele>
        <time>2022-04-16T13:37:23Z</time>
      </trkpt>
      <trkpt lat="47.17185" lon="-1.61829">
        <ele>72</ele>
        <time>2022-04-16T13:37:25Z</time>
      </trkpt>
      <trkpt lat="47.17175" lon="-1.61839">
        <ele>72</ele>
        <time>2022-04-16T13:37:27Z</time>
      </trkpt>
      <trkpt lat="47.17164" lon="-1.61849">
        <ele>71</ele>
        <time>2022-04-16T13:37:29Z</time>
      </trkpt>
      <trkpt lat="47.17154" lon="-1.61858">
        <ele>71</ele>
        <time>2022-04-16T13:37:31Z</time>
      </trkpt>
      <trkpt lat="47.17143" lon="-1.61869">
        <ele>71</ele>
        <time>2022-04-16T13:37:33Z</time>
      </trkpt>
      <trkpt lat="47.17132" lon="-1.61879">
        <ele>71</ele>
        <time>2022-04-16T13:37:35Z</time>
      </trkpt>
      <trkpt lat="47.17121" lon="-1.61889">
        <ele>71</ele>
        <time>2022-04-16T13:37:37Z</time>
      </trkpt>
      <trkpt lat="47.1711" lon="-1.619">
        <ele>70</ele>
        <time>2022-04-16T13:37:39Z</time>
      </trkpt>
      <trkpt lat="47.17099" lon="-1.61911">
        <ele>71</ele>
        <time>2022-04-16T13:37:41Z</time>
      </trkpt>
      <trkpt lat="47.17088" lon="-1.61922">
        <ele>71</ele>
        <time>2022-04-16T13:37:43Z</time>
      </trkpt>
      <trkpt lat="47.17078" lon="-1.61931">
        <ele>71</ele>
        <time>2022-04-16T13:37:45Z</time>
      </trkpt>
      <trkpt lat="47.17068" lon="-1.61942">
        <ele>72</ele>
        <time>2022-04-16T13:37:47Z</time>
      </trkpt>
      <trkpt lat="47.17057" lon="-1.61954">
        <ele>71</ele>
        <time>2022-04-16T13:37:49Z</time>
      </trkpt>
      <trkpt lat="47.17048" lon="-1.61968">
        <ele>71</ele>
        <time>2022-04-16T13:37:51Z</time>
      </trkpt>
      <trkpt lat="47.17039" lon="-1.61982">
        <ele>71</ele>
        <time>2022-04-16T13:37:53Z</time>
      </trkpt>
      <trkpt lat="47.1703" lon="-1.61995">
        <ele>71</ele>
        <time>2022-04-16T13:37:55Z</time>
      </trkpt>
      <trkpt lat="47.17021" lon="-1.62009">
        <ele>71</ele>
        <time>2022-04-16T13:37:57Z</time>
      </trkpt>
      <trkpt lat="47.17011" lon="-1.62023">
        <ele>71</ele>
        <time>2022-04-16T13:37:59Z</time>
      </trkpt>
      <trkpt lat="47.17002" lon="-1.62037">
        <ele>71</ele>
        <time>2022-04-16T13:38:01Z</time>
      </trkpt>
      <trkpt lat="47.16994" lon="-1.62053">
        <ele>71</ele>
        <time>2022-04-16T13:38:03Z</time>
      </trkpt>
      <trkpt lat="47.16986" lon="-1.62068">
        <ele>72</ele>
        <time>2022-04-16T13:38:05Z</time>
      </trkpt>
      <trkpt lat="47.16977" lon="-1.62083">
        <ele>72</ele>
        <time>2022-04-16T13:38:07Z</time>
      </trkpt>
      <trkpt lat="47.16968" lon="-1.62098">
        <ele>72</ele>
        <time>2022-04-16T13:38:09Z</time>
      </trkpt>
      <trkpt lat="47.1696" lon="-1.62113">
        <ele>72</ele>
        <time>2022-04-16T13:38:11Z</time>
      </trkpt>
      <trkpt lat="47.16952" lon="-1.62129">
        <ele>72</ele>
        <time>2022-04-16T13:38:13Z</time>
      </trkpt>
      <trkpt lat="47.16944" lon="-1.62145">
        <ele>72</ele>
        <time>2022-04-16T13:38:15Z</time>
      </trkpt>
      <trkpt lat="47.16936" lon="-1.62161">
        <ele>72</ele>
        <time>2022-04-16T13:38:17Z</time>
      </trkpt>
      <trkpt lat="47.16929" lon="-1.62177">
        <ele>72</ele>
        <time>2022-04-16T13:38:19Z</time>
      </trkpt>
      <trkpt lat="47.1692" lon="-1.62193">
        <ele>72</ele>
        <time>2022-04-16T13:38:21Z</time>
      </trkpt>
      <trkpt lat="47.16912" lon="-1.62207">
        <ele>72</ele>
        <time>2022-04-16T13:38:23Z</time>
      </trkpt>
      <trkpt lat="47.16902" lon="-1.62221">
        <ele>72</ele>
        <time>2022-04-16T13:38:25Z</time>
      </trkpt>
      <trkpt lat="47.16891" lon="-1.62234">
        <ele>72</ele>
        <time>2022-04-16T13:38:27Z</time>
      </trkpt>
      <trkpt lat="47.16881" lon="-1.62247">
        <ele>72</ele>
        <time>2022-04-16T13:38:29Z</time>
      </trkpt>
      <trkpt lat="47.1687" lon="-1.6226">
        <ele>72</ele>
        <time>2022-04-16T13:38:31Z</time>
      </trkpt>
      <trkpt lat="47.16861" lon="-1.62273">
        <ele>72</ele>
        <time>2022-04-16T13:38:33Z</time>
      </trkpt>
      <trkpt lat="47.1685" lon="-1.62286">
        <ele>72</ele>
        <time>2022-04-16T13:38:35Z</time>
      </trkpt>
      <trkpt lat="47.1684" lon="-1.62298">
        <ele>72</ele>
        <time>2022-04-16T13:38:37Z</time>
      </trkpt>
      <trkpt lat="47.1683" lon="-1.6231">
        <ele>72</ele>
        <time>2022-04-16T13:38:39Z</time>
      </trkpt>
      <trkpt lat="47.16818" lon="-1.62319">
        <ele>73</ele>
        <time>2022-04-16T13:38:41Z</time>
      </trkpt>
      <trkpt lat="47.16806" lon="-1.62327">
        <ele>73</ele>
        <time>2022-04-16T13:38:43Z</time>
      </trkpt>
      <trkpt lat="47.16794" lon="-1.62334">
        <ele>72</ele>
        <time>2022-04-16T13:38:45Z</time>
      </trkpt>
      <trkpt lat="47.16781" lon="-1.6234">
        <ele>72</ele>
        <time>2022-04-16T13:38:47Z</time>
      </trkpt>
      <trkpt lat="47.16768" lon="-1.62348">
        <ele>72</ele>
        <time>2022-04-16T13:38:49Z</time>
      </trkpt>
      <trkpt lat="47.16756" lon="-1.62357">
        <ele>72</ele>
        <time>2022-04-16T13:38:51Z</time>
      </trkpt>
      <trkpt lat="47.16745" lon="-1.62368">
        <ele>71</ele>
        <time>2022-04-16T13:38:53Z</time>
      </trkpt>
      <trkpt lat="47.16736" lon="-1.62383">
        <ele>70</ele>
        <time>2022-04-16T13:38:55Z</time>
      </trkpt>
      <trkpt lat="47.16732" lon="-1.62401">
        <ele>70</ele>
        <time>2022-04-16T13:38:57Z</time>
      </trkpt>
      <trkpt lat="47.16729" lon="-1.62418">
        <ele>70</ele>
        <time>2022-04-16T13:38:59Z</time>
      </trkpt>
      <trkpt lat="47.16727" lon="-1.62436">
        <ele>70</ele>
        <time>2022-04-16T13:39:01Z</time>
      </trkpt>
      <trkpt lat="47.16722" lon="-1.62453">
        <ele>70</ele>
        <time>2022-04-16T13:39:03Z</time>
      </trkpt>
      <trkpt lat="47.16717" lon="-1.62471">
        <ele>71</ele>
        <time>2022-04-16T13:39:05Z</time>
      </trkpt>
      <trkpt lat="47.16715" lon="-1.62489">
        <ele>71</ele>
        <time>2022-04-16T13:39:07Z</time>
      </trkpt>
      <trkpt lat="47.16724" lon="-1.62498">
        <ele>71</ele>
        <time>2022-04-16T13:39:09Z</time>
      </trkpt>
      <trkpt lat="47.16736" lon="-1.62502">
        <ele>71</ele>
        <time>2022-04-16T13:39:11Z</time>
      </trkpt>
      <trkpt lat="47.16747" lon="-1.62508">
        <ele>70</ele>
        <time>2022-04-16T13:39:13Z</time>
      </trkpt>
      <trkpt lat="47.16759" lon="-1.62513">
        <ele>70</ele>
        <time>2022-04-16T13:39:15Z</time>
      </trkpt>
      <trkpt lat="47.1677" lon="-1.6252">
        <ele>71</ele>
        <time>2022-04-16T13:39:17Z</time>
      </trkpt>
      <trkpt lat="47.16781" lon="-1.62527">
        <ele>71</ele>
        <time>2022-04-16T13:39:19Z</time>
      </trkpt>
      <trkpt lat="47.16792" lon="-1.62534">
        <ele>72</ele>
        <time>2022-04-16T13:39:21Z</time>
      </trkpt>
      <trkpt lat="47.16802" lon="-1.62541">
        <ele>71</ele>
        <time>2022-04-16T13:39:23Z</time>
      </trkpt>
      <trkpt lat="47.16813" lon="-1.6255">
        <ele>71</ele>
        <time>2022-04-16T13:39:25Z</time>
      </trkpt>
      <trkpt lat="47.16823" lon="-1.6256">
        <ele>71</ele>
        <time>2022-04-16T13:39:27Z</time>
      </trkpt>
      <trkpt lat="47.1683" lon="-1.62573">
        <ele>71</ele>
        <time>2022-04-16T13:39:29Z</time>
      </trkpt>
      <trkpt lat="47.16828" lon="-1.6259">
        <ele>71</ele>
        <time>2022-04-16T13:39:31Z</time>
      </trkpt>
      <trkpt lat="47.1682" lon="-1.62603">
        <ele>71</ele>
        <time>2022-04-16T13:39:33Z</time>
      </trkpt>
      <trkpt lat="47.16812" lon="-1.62616">
        <ele>71</ele>
        <time>2022-04-16T13:39:35Z</time>
      </trkpt>
      <trkpt lat="47.16805" lon="-1.6263">
        <ele>71</ele>
        <time>2022-04-16T13:39:37Z</time>
      </trkpt>
      <trkpt lat="47.16797" lon="-1.62641">
        <ele>71</ele>
        <time>2022-04-16T13:39:39Z</time>
      </trkpt>
      <trkpt lat="47.16791" lon="-1.62652">
        <ele>71</ele>
        <time>2022-04-16T13:39:41Z</time>
      </trkpt>
      <trkpt lat="47.16783" lon="-1.62662">
        <ele>72</ele>
        <time>2022-04-16T13:39:44Z</time>
      </trkpt>
      <trkpt lat="47.16776" lon="-1.62654">
        <ele>72</ele>
        <time>2022-04-16T13:39:51Z</time>
      </trkpt>
    </trkseg>
  </trk>
</gpx>